<?xml version="1.0" encoding="UTF-8" standalone="no" ?>
<gpx xmlns="http://www.topografix.com/GPX/1/1" xmlns:xsi="http://www.w3.org/2001/XMLSchema-instance" xsi:schemaLocation="http://www.topografix.com/GPX/1/1 http://www.topografix.com/GPX/1/1/gpx.xsd" version="1.1" creator="VisuGPX - https://www.visugpx.com">
  <metadata>
    <name>Rocher des vierges / Mont saint Baudille</name>
    <desc><![CDATA[Vtt Rocher des vierges, Mont saint Baudille
Avec Ben Bender, Tonio, Gaby, Fabrice, Kamill,Samy et Scouby, Logan]]></desc>
  </metadata>
  <trk>
    <name><![CDATA[Rocher des vierges / Mont saint Baudille_1]]></name>
    <trkseg>
      <trkpt lat="43.70697" lon="3.46768">
        <ele>337</ele>
        <time>2015-10-25T06:36:55Z</time>
      </trkpt>
      <trkpt lat="43.70698" lon="3.46767">
        <ele>336.5</ele>
        <time>2015-10-25T06:36:57Z</time>
      </trkpt>
      <trkpt lat="43.70698" lon="3.46767">
        <ele>336.5</ele>
        <time>2015-10-25T06:36:58Z</time>
      </trkpt>
      <trkpt lat="43.70698" lon="3.46765">
        <ele>336.5</ele>
        <time>2015-10-25T06:36:59Z</time>
      </trkpt>
      <trkpt lat="43.70697" lon="3.46765">
        <ele>336.5</ele>
        <time>2015-10-25T06:37:00Z</time>
      </trkpt>
      <trkpt lat="43.70697" lon="3.46764">
        <ele>336.5</ele>
        <time>2015-10-25T06:37:01Z</time>
      </trkpt>
      <trkpt lat="43.70696" lon="3.46765">
        <ele>336.5</ele>
        <time>2015-10-25T06:37:02Z</time>
      </trkpt>
      <trkpt lat="43.70696" lon="3.46765">
        <ele>336.5</ele>
        <time>2015-10-25T06:37:03Z</time>
      </trkpt>
      <trkpt lat="43.70696" lon="3.46766">
        <ele>337</ele>
        <time>2015-10-25T06:37:09Z</time>
      </trkpt>
      <trkpt lat="43.70695" lon="3.46767">
        <ele>337</ele>
        <time>2015-10-25T06:37:11Z</time>
      </trkpt>
      <trkpt lat="43.70694" lon="3.46767">
        <ele>337.5</ele>
        <time>2015-10-25T06:37:12Z</time>
      </trkpt>
      <trkpt lat="43.70694" lon="3.46768">
        <ele>337.5</ele>
        <time>2015-10-25T06:37:28Z</time>
      </trkpt>
      <trkpt lat="43.70694" lon="3.46768">
        <ele>337</ele>
        <time>2015-10-25T06:37:30Z</time>
      </trkpt>
      <trkpt lat="43.70696" lon="3.46769">
        <ele>337.5</ele>
        <time>2015-10-25T06:37:32Z</time>
      </trkpt>
      <trkpt lat="43.70695" lon="3.4677">
        <ele>339</ele>
        <time>2015-10-25T06:37:40Z</time>
      </trkpt>
      <trkpt lat="43.70693" lon="3.46768">
        <ele>340</ele>
        <time>2015-10-25T06:38:08Z</time>
      </trkpt>
      <trkpt lat="43.70693" lon="3.46769">
        <ele>340</ele>
        <time>2015-10-25T06:38:09Z</time>
      </trkpt>
      <trkpt lat="43.70693" lon="3.46769">
        <ele>340</ele>
        <time>2015-10-25T06:38:11Z</time>
      </trkpt>
      <trkpt lat="43.70692" lon="3.46769">
        <ele>340</ele>
        <time>2015-10-25T06:38:12Z</time>
      </trkpt>
      <trkpt lat="43.70693" lon="3.46769">
        <ele>339.5</ele>
        <time>2015-10-25T06:38:23Z</time>
      </trkpt>
      <trkpt lat="43.70693" lon="3.46769">
        <ele>339.5</ele>
        <time>2015-10-25T06:38:24Z</time>
      </trkpt>
      <trkpt lat="43.70693" lon="3.4677">
        <ele>339.5</ele>
        <time>2015-10-25T06:38:25Z</time>
      </trkpt>
      <trkpt lat="43.70693" lon="3.4677">
        <ele>340</ele>
        <time>2015-10-25T06:38:31Z</time>
      </trkpt>
      <trkpt lat="43.70693" lon="3.46769">
        <ele>340</ele>
        <time>2015-10-25T06:38:32Z</time>
      </trkpt>
      <trkpt lat="43.70693" lon="3.4677">
        <ele>339</ele>
        <time>2015-10-25T06:38:36Z</time>
      </trkpt>
      <trkpt lat="43.70691" lon="3.4677">
        <ele>340</ele>
        <time>2015-10-25T06:38:54Z</time>
      </trkpt>
      <trkpt lat="43.70691" lon="3.46771">
        <ele>340</ele>
        <time>2015-10-25T06:38:56Z</time>
      </trkpt>
      <trkpt lat="43.70692" lon="3.46771">
        <ele>340.5</ele>
        <time>2015-10-25T06:39:02Z</time>
      </trkpt>
      <trkpt lat="43.70695" lon="3.46772">
        <ele>339.5</ele>
        <time>2015-10-25T06:38:37Z</time>
      </trkpt>
      <trkpt lat="43.70695" lon="3.4677">
        <ele>338</ele>
        <time>2015-10-25T06:39:08Z</time>
      </trkpt>
      <trkpt lat="43.70695" lon="3.4677">
        <ele>338</ele>
        <time>2015-10-25T06:39:09Z</time>
      </trkpt>
      <trkpt lat="43.70697" lon="3.46771">
        <ele>337.5</ele>
        <time>2015-10-25T06:39:25Z</time>
      </trkpt>
      <trkpt lat="43.70697" lon="3.46771">
        <ele>337</ele>
        <time>2015-10-25T06:39:31Z</time>
      </trkpt>
      <trkpt lat="43.70698" lon="3.46771">
        <ele>336.5</ele>
        <time>2015-10-25T06:40:01Z</time>
      </trkpt>
      <trkpt lat="43.70698" lon="3.46771">
        <ele>336.5</ele>
        <time>2015-10-25T06:40:02Z</time>
      </trkpt>
      <trkpt lat="43.70697" lon="3.46771">
        <ele>336.5</ele>
        <time>2015-10-25T06:40:03Z</time>
      </trkpt>
      <trkpt lat="43.70696" lon="3.46771">
        <ele>336.5</ele>
        <time>2015-10-25T06:40:06Z</time>
      </trkpt>
      <trkpt lat="43.70693" lon="3.46772">
        <ele>337</ele>
        <time>2015-10-25T06:40:25Z</time>
      </trkpt>
      <trkpt lat="43.70694" lon="3.46771">
        <ele>337</ele>
        <time>2015-10-25T06:40:28Z</time>
      </trkpt>
      <trkpt lat="43.70695" lon="3.4677">
        <ele>337</ele>
        <time>2015-10-25T06:40:47Z</time>
      </trkpt>
      <trkpt lat="43.70697" lon="3.4677">
        <ele>337</ele>
        <time>2015-10-25T06:40:49Z</time>
      </trkpt>
      <trkpt lat="43.70696" lon="3.4677">
        <ele>337</ele>
        <time>2015-10-25T06:40:50Z</time>
      </trkpt>
      <trkpt lat="43.70695" lon="3.46769">
        <ele>337</ele>
        <time>2015-10-25T06:40:51Z</time>
      </trkpt>
      <trkpt lat="43.70695" lon="3.46769">
        <ele>337</ele>
        <time>2015-10-25T06:40:52Z</time>
      </trkpt>
      <trkpt lat="43.70694" lon="3.46768">
        <ele>337</ele>
        <time>2015-10-25T06:40:53Z</time>
      </trkpt>
      <trkpt lat="43.70693" lon="3.46768">
        <ele>337</ele>
        <time>2015-10-25T06:40:54Z</time>
      </trkpt>
      <trkpt lat="43.70695" lon="3.46769">
        <ele>336.5</ele>
        <time>2015-10-25T06:40:58Z</time>
      </trkpt>
      <trkpt lat="43.70695" lon="3.46769">
        <ele>336.5</ele>
        <time>2015-10-25T06:40:59Z</time>
      </trkpt>
      <trkpt lat="43.70696" lon="3.4677">
        <ele>336.5</ele>
        <time>2015-10-25T06:41:00Z</time>
      </trkpt>
      <trkpt lat="43.70697" lon="3.4677">
        <ele>336.5</ele>
        <time>2015-10-25T06:41:01Z</time>
      </trkpt>
      <trkpt lat="43.70697" lon="3.46772">
        <ele>336</ele>
        <time>2015-10-25T06:41:02Z</time>
      </trkpt>
      <trkpt lat="43.70698" lon="3.46772">
        <ele>336</ele>
        <time>2015-10-25T06:41:04Z</time>
      </trkpt>
      <trkpt lat="43.70697" lon="3.46772">
        <ele>336</ele>
        <time>2015-10-25T06:41:05Z</time>
      </trkpt>
      <trkpt lat="43.70699" lon="3.46774">
        <ele>336</ele>
        <time>2015-10-25T06:41:06Z</time>
      </trkpt>
      <trkpt lat="43.70698" lon="3.46774">
        <ele>336</ele>
        <time>2015-10-25T06:41:07Z</time>
      </trkpt>
      <trkpt lat="43.70698" lon="3.46773">
        <ele>336</ele>
        <time>2015-10-25T06:41:08Z</time>
      </trkpt>
      <trkpt lat="43.70698" lon="3.46773">
        <ele>336</ele>
        <time>2015-10-25T06:41:09Z</time>
      </trkpt>
      <trkpt lat="43.70698" lon="3.46773">
        <ele>336</ele>
        <time>2015-10-25T06:41:10Z</time>
      </trkpt>
      <trkpt lat="43.70698" lon="3.46774">
        <ele>336</ele>
        <time>2015-10-25T06:41:11Z</time>
      </trkpt>
      <trkpt lat="43.70699" lon="3.46774">
        <ele>336</ele>
        <time>2015-10-25T06:41:12Z</time>
      </trkpt>
      <trkpt lat="43.707" lon="3.46775">
        <ele>336</ele>
        <time>2015-10-25T06:41:13Z</time>
      </trkpt>
      <trkpt lat="43.70702" lon="3.46776">
        <ele>336</ele>
        <time>2015-10-25T06:41:14Z</time>
      </trkpt>
      <trkpt lat="43.70703" lon="3.46777">
        <ele>336</ele>
        <time>2015-10-25T06:41:16Z</time>
      </trkpt>
      <trkpt lat="43.70699" lon="3.46774">
        <ele>337</ele>
        <time>2015-10-25T06:41:33Z</time>
      </trkpt>
      <trkpt lat="43.70698" lon="3.46773">
        <ele>337</ele>
        <time>2015-10-25T06:41:48Z</time>
      </trkpt>
      <trkpt lat="43.70695" lon="3.46772">
        <ele>338</ele>
        <time>2015-10-25T06:41:44Z</time>
      </trkpt>
      <trkpt lat="43.70695" lon="3.4677">
        <ele>338.5</ele>
        <time>2015-10-25T06:41:59Z</time>
      </trkpt>
      <trkpt lat="43.70694" lon="3.4677">
        <ele>338.5</ele>
        <time>2015-10-25T06:42:07Z</time>
      </trkpt>
      <trkpt lat="43.70694" lon="3.4677">
        <ele>338</ele>
        <time>2015-10-25T06:42:10Z</time>
      </trkpt>
      <trkpt lat="43.70694" lon="3.46771">
        <ele>338</ele>
        <time>2015-10-25T06:42:15Z</time>
      </trkpt>
      <trkpt lat="43.70695" lon="3.4677">
        <ele>338</ele>
        <time>2015-10-25T06:42:19Z</time>
      </trkpt>
      <trkpt lat="43.70696" lon="3.46771">
        <ele>338.5</ele>
        <time>2015-10-25T06:42:20Z</time>
      </trkpt>
      <trkpt lat="43.70698" lon="3.46769">
        <ele>338</ele>
        <time>2015-10-25T06:42:27Z</time>
      </trkpt>
      <trkpt lat="43.70698" lon="3.46769">
        <ele>338</ele>
        <time>2015-10-25T06:42:28Z</time>
      </trkpt>
      <trkpt lat="43.70698" lon="3.46769">
        <ele>338</ele>
        <time>2015-10-25T06:42:43Z</time>
      </trkpt>
      <trkpt lat="43.70698" lon="3.4677">
        <ele>337.5</ele>
        <time>2015-10-25T06:42:45Z</time>
      </trkpt>
      <trkpt lat="43.70697" lon="3.4677">
        <ele>337.5</ele>
        <time>2015-10-25T06:42:46Z</time>
      </trkpt>
      <trkpt lat="43.70697" lon="3.46771">
        <ele>337</ele>
        <time>2015-10-25T06:42:48Z</time>
      </trkpt>
      <trkpt lat="43.70697" lon="3.46772">
        <ele>337.5</ele>
        <time>2015-10-25T06:42:55Z</time>
      </trkpt>
      <trkpt lat="43.70698" lon="3.46771">
        <ele>337.5</ele>
        <time>2015-10-25T06:42:56Z</time>
      </trkpt>
      <trkpt lat="43.70699" lon="3.46769">
        <ele>337.5</ele>
        <time>2015-10-25T06:42:57Z</time>
      </trkpt>
      <trkpt lat="43.707" lon="3.46768">
        <ele>336.5</ele>
        <time>2015-10-25T06:42:59Z</time>
      </trkpt>
      <trkpt lat="43.70701" lon="3.46768">
        <ele>336.5</ele>
        <time>2015-10-25T06:43:02Z</time>
      </trkpt>
      <trkpt lat="43.70701" lon="3.46769">
        <ele>336</ele>
        <time>2015-10-25T06:43:03Z</time>
      </trkpt>
      <trkpt lat="43.70701" lon="3.46768">
        <ele>336</ele>
        <time>2015-10-25T06:43:04Z</time>
      </trkpt>
      <trkpt lat="43.70701" lon="3.46768">
        <ele>336</ele>
        <time>2015-10-25T06:43:05Z</time>
      </trkpt>
      <trkpt lat="43.70697" lon="3.46767">
        <ele>335</ele>
        <time>2015-10-25T06:43:09Z</time>
      </trkpt>
      <trkpt lat="43.70696" lon="3.46768">
        <ele>334</ele>
        <time>2015-10-25T06:43:13Z</time>
      </trkpt>
      <trkpt lat="43.70696" lon="3.46767">
        <ele>334</ele>
        <time>2015-10-25T06:43:15Z</time>
      </trkpt>
      <trkpt lat="43.70696" lon="3.46767">
        <ele>334</ele>
        <time>2015-10-25T06:43:16Z</time>
      </trkpt>
      <trkpt lat="43.70695" lon="3.46766">
        <ele>329.5</ele>
        <time>2015-10-25T06:43:34Z</time>
      </trkpt>
      <trkpt lat="43.70695" lon="3.46766">
        <ele>329</ele>
        <time>2015-10-25T06:43:35Z</time>
      </trkpt>
      <trkpt lat="43.70696" lon="3.46767">
        <ele>329</ele>
        <time>2015-10-25T06:43:36Z</time>
      </trkpt>
      <trkpt lat="43.70697" lon="3.46767">
        <ele>329.5</ele>
        <time>2015-10-25T06:43:37Z</time>
      </trkpt>
      <trkpt lat="43.70698" lon="3.46766">
        <ele>330.5</ele>
        <time>2015-10-25T06:43:38Z</time>
      </trkpt>
      <trkpt lat="43.70698" lon="3.46764">
        <ele>338.5</ele>
        <time>2015-10-25T06:43:14Z</time>
      </trkpt>
      <trkpt lat="43.70697" lon="3.46762">
        <ele>340</ele>
        <time>2015-10-25T06:43:16Z</time>
      </trkpt>
      <trkpt lat="43.70697" lon="3.46762">
        <ele>339.5</ele>
        <time>2015-10-25T06:43:17Z</time>
      </trkpt>
      <trkpt lat="43.70697" lon="3.46763">
        <ele>341</ele>
        <time>2015-10-25T06:42:57Z</time>
      </trkpt>
      <trkpt lat="43.70698" lon="3.46763">
        <ele>341</ele>
        <time>2015-10-25T06:42:58Z</time>
      </trkpt>
      <trkpt lat="43.707" lon="3.46763">
        <ele>341</ele>
        <time>2015-10-25T06:42:59Z</time>
      </trkpt>
      <trkpt lat="43.70701" lon="3.46763">
        <ele>341</ele>
        <time>2015-10-25T06:43:00Z</time>
      </trkpt>
      <trkpt lat="43.70703" lon="3.46761">
        <ele>342</ele>
        <time>2015-10-25T06:43:01Z</time>
      </trkpt>
      <trkpt lat="43.70705" lon="3.46762">
        <ele>342</ele>
        <time>2015-10-25T06:43:02Z</time>
      </trkpt>
      <trkpt lat="43.70706" lon="3.46763">
        <ele>342</ele>
        <time>2015-10-25T06:43:03Z</time>
      </trkpt>
      <trkpt lat="43.70708" lon="3.46764">
        <ele>342</ele>
        <time>2015-10-25T06:43:04Z</time>
      </trkpt>
      <trkpt lat="43.7071" lon="3.46765">
        <ele>342</ele>
        <time>2015-10-25T06:43:05Z</time>
      </trkpt>
      <trkpt lat="43.70712" lon="3.46767">
        <ele>341.5</ele>
        <time>2015-10-25T06:43:06Z</time>
      </trkpt>
      <trkpt lat="43.70714" lon="3.46769">
        <ele>341.5</ele>
        <time>2015-10-25T06:43:07Z</time>
      </trkpt>
      <trkpt lat="43.70716" lon="3.4677">
        <ele>341.5</ele>
        <time>2015-10-25T06:43:08Z</time>
      </trkpt>
      <trkpt lat="43.70718" lon="3.46772">
        <ele>341</ele>
        <time>2015-10-25T06:43:09Z</time>
      </trkpt>
      <trkpt lat="43.70721" lon="3.46774">
        <ele>341</ele>
        <time>2015-10-25T06:43:10Z</time>
      </trkpt>
      <trkpt lat="43.70723" lon="3.46776">
        <ele>340.5</ele>
        <time>2015-10-25T06:43:11Z</time>
      </trkpt>
      <trkpt lat="43.70725" lon="3.46778">
        <ele>340</ele>
        <time>2015-10-25T06:43:12Z</time>
      </trkpt>
      <trkpt lat="43.70727" lon="3.46778">
        <ele>340.5</ele>
        <time>2015-10-25T06:43:13Z</time>
      </trkpt>
      <trkpt lat="43.70729" lon="3.46779">
        <ele>340.5</ele>
        <time>2015-10-25T06:43:14Z</time>
      </trkpt>
      <trkpt lat="43.70731" lon="3.46779">
        <ele>340.5</ele>
        <time>2015-10-25T06:43:15Z</time>
      </trkpt>
      <trkpt lat="43.70733" lon="3.4678">
        <ele>340.5</ele>
        <time>2015-10-25T06:43:16Z</time>
      </trkpt>
      <trkpt lat="43.70735" lon="3.46781">
        <ele>340.5</ele>
        <time>2015-10-25T06:43:17Z</time>
      </trkpt>
      <trkpt lat="43.70737" lon="3.46781">
        <ele>341</ele>
        <time>2015-10-25T06:43:18Z</time>
      </trkpt>
      <trkpt lat="43.70739" lon="3.46781">
        <ele>341</ele>
        <time>2015-10-25T06:43:19Z</time>
      </trkpt>
      <trkpt lat="43.70741" lon="3.46782">
        <ele>341</ele>
        <time>2015-10-25T06:43:20Z</time>
      </trkpt>
      <trkpt lat="43.70743" lon="3.46783">
        <ele>341</ele>
        <time>2015-10-25T06:43:21Z</time>
      </trkpt>
      <trkpt lat="43.70745" lon="3.46783">
        <ele>341.5</ele>
        <time>2015-10-25T06:43:22Z</time>
      </trkpt>
      <trkpt lat="43.70747" lon="3.46784">
        <ele>341.5</ele>
        <time>2015-10-25T06:43:23Z</time>
      </trkpt>
      <trkpt lat="43.7075" lon="3.46785">
        <ele>342</ele>
        <time>2015-10-25T06:43:24Z</time>
      </trkpt>
      <trkpt lat="43.70752" lon="3.46786">
        <ele>342</ele>
        <time>2015-10-25T06:43:25Z</time>
      </trkpt>
      <trkpt lat="43.70754" lon="3.46787">
        <ele>342</ele>
        <time>2015-10-25T06:43:26Z</time>
      </trkpt>
      <trkpt lat="43.70756" lon="3.46788">
        <ele>342.5</ele>
        <time>2015-10-25T06:43:27Z</time>
      </trkpt>
      <trkpt lat="43.70758" lon="3.46789">
        <ele>343</ele>
        <time>2015-10-25T06:43:28Z</time>
      </trkpt>
      <trkpt lat="43.70759" lon="3.4679">
        <ele>343</ele>
        <time>2015-10-25T06:43:29Z</time>
      </trkpt>
      <trkpt lat="43.70761" lon="3.46792">
        <ele>343.5</ele>
        <time>2015-10-25T06:43:30Z</time>
      </trkpt>
      <trkpt lat="43.70762" lon="3.46795">
        <ele>343.5</ele>
        <time>2015-10-25T06:43:31Z</time>
      </trkpt>
      <trkpt lat="43.70763" lon="3.46799">
        <ele>343.5</ele>
        <time>2015-10-25T06:43:32Z</time>
      </trkpt>
      <trkpt lat="43.70763" lon="3.46803">
        <ele>343.5</ele>
        <time>2015-10-25T06:43:33Z</time>
      </trkpt>
      <trkpt lat="43.70763" lon="3.46806">
        <ele>343</ele>
        <time>2015-10-25T06:43:34Z</time>
      </trkpt>
      <trkpt lat="43.7076" lon="3.46813">
        <ele>342.5</ele>
        <time>2015-10-25T06:43:36Z</time>
      </trkpt>
      <trkpt lat="43.70758" lon="3.46816">
        <ele>343</ele>
        <time>2015-10-25T06:43:37Z</time>
      </trkpt>
      <trkpt lat="43.70755" lon="3.46819">
        <ele>343</ele>
        <time>2015-10-25T06:43:38Z</time>
      </trkpt>
      <trkpt lat="43.70753" lon="3.46822">
        <ele>343</ele>
        <time>2015-10-25T06:43:39Z</time>
      </trkpt>
      <trkpt lat="43.7075" lon="3.46824">
        <ele>343</ele>
        <time>2015-10-25T06:43:40Z</time>
      </trkpt>
      <trkpt lat="43.70748" lon="3.46827">
        <ele>342.5</ele>
        <time>2015-10-25T06:43:41Z</time>
      </trkpt>
      <trkpt lat="43.70745" lon="3.46829">
        <ele>342</ele>
        <time>2015-10-25T06:43:42Z</time>
      </trkpt>
      <trkpt lat="43.70742" lon="3.46831">
        <ele>341</ele>
        <time>2015-10-25T06:43:43Z</time>
      </trkpt>
      <trkpt lat="43.7074" lon="3.46835">
        <ele>342.5</ele>
        <time>2015-10-25T06:43:44Z</time>
      </trkpt>
      <trkpt lat="43.70738" lon="3.46837">
        <ele>342.5</ele>
        <time>2015-10-25T06:43:45Z</time>
      </trkpt>
      <trkpt lat="43.70735" lon="3.4684">
        <ele>343</ele>
        <time>2015-10-25T06:43:46Z</time>
      </trkpt>
      <trkpt lat="43.70733" lon="3.46842">
        <ele>343</ele>
        <time>2015-10-25T06:43:47Z</time>
      </trkpt>
      <trkpt lat="43.70731" lon="3.46845">
        <ele>343</ele>
        <time>2015-10-25T06:43:48Z</time>
      </trkpt>
      <trkpt lat="43.70729" lon="3.46847">
        <ele>343.5</ele>
        <time>2015-10-25T06:43:48Z</time>
      </trkpt>
      <trkpt lat="43.70728" lon="3.4685">
        <ele>344</ele>
        <time>2015-10-25T06:43:49Z</time>
      </trkpt>
      <trkpt lat="43.70726" lon="3.46853">
        <ele>344.5</ele>
        <time>2015-10-25T06:43:51Z</time>
      </trkpt>
      <trkpt lat="43.70725" lon="3.46856">
        <ele>344.5</ele>
        <time>2015-10-25T06:43:51Z</time>
      </trkpt>
      <trkpt lat="43.70723" lon="3.46859">
        <ele>344.5</ele>
        <time>2015-10-25T06:43:52Z</time>
      </trkpt>
      <trkpt lat="43.70721" lon="3.46863">
        <ele>345</ele>
        <time>2015-10-25T06:43:53Z</time>
      </trkpt>
      <trkpt lat="43.7072" lon="3.46866">
        <ele>345</ele>
        <time>2015-10-25T06:43:54Z</time>
      </trkpt>
      <trkpt lat="43.70719" lon="3.46869">
        <ele>345</ele>
        <time>2015-10-25T06:43:55Z</time>
      </trkpt>
      <trkpt lat="43.70717" lon="3.46872">
        <ele>345.5</ele>
        <time>2015-10-25T06:43:56Z</time>
      </trkpt>
      <trkpt lat="43.70716" lon="3.46875">
        <ele>346</ele>
        <time>2015-10-25T06:43:57Z</time>
      </trkpt>
      <trkpt lat="43.70714" lon="3.46878">
        <ele>346</ele>
        <time>2015-10-25T06:43:58Z</time>
      </trkpt>
      <trkpt lat="43.70713" lon="3.46882">
        <ele>346.5</ele>
        <time>2015-10-25T06:43:59Z</time>
      </trkpt>
      <trkpt lat="43.70712" lon="3.46885">
        <ele>346.5</ele>
        <time>2015-10-25T06:44:00Z</time>
      </trkpt>
      <trkpt lat="43.70711" lon="3.46887">
        <ele>347</ele>
        <time>2015-10-25T06:44:01Z</time>
      </trkpt>
      <trkpt lat="43.7071" lon="3.46891">
        <ele>347</ele>
        <time>2015-10-25T06:44:02Z</time>
      </trkpt>
      <trkpt lat="43.70709" lon="3.46894">
        <ele>347.5</ele>
        <time>2015-10-25T06:44:03Z</time>
      </trkpt>
      <trkpt lat="43.70707" lon="3.46897">
        <ele>347.5</ele>
        <time>2015-10-25T06:44:04Z</time>
      </trkpt>
      <trkpt lat="43.70706" lon="3.469">
        <ele>347.5</ele>
        <time>2015-10-25T06:44:05Z</time>
      </trkpt>
      <trkpt lat="43.70705" lon="3.46903">
        <ele>347</ele>
        <time>2015-10-25T06:44:06Z</time>
      </trkpt>
      <trkpt lat="43.70704" lon="3.46906">
        <ele>347</ele>
        <time>2015-10-25T06:44:07Z</time>
      </trkpt>
      <trkpt lat="43.70703" lon="3.46909">
        <ele>347</ele>
        <time>2015-10-25T06:44:08Z</time>
      </trkpt>
      <trkpt lat="43.70702" lon="3.46912">
        <ele>347</ele>
        <time>2015-10-25T06:44:09Z</time>
      </trkpt>
      <trkpt lat="43.70701" lon="3.46915">
        <ele>347</ele>
        <time>2015-10-25T06:44:10Z</time>
      </trkpt>
      <trkpt lat="43.707" lon="3.46918">
        <ele>347.5</ele>
        <time>2015-10-25T06:44:11Z</time>
      </trkpt>
      <trkpt lat="43.707" lon="3.46922">
        <ele>347.5</ele>
        <time>2015-10-25T06:44:12Z</time>
      </trkpt>
      <trkpt lat="43.707" lon="3.46925">
        <ele>347.5</ele>
        <time>2015-10-25T06:44:13Z</time>
      </trkpt>
      <trkpt lat="43.70699" lon="3.46928">
        <ele>347.5</ele>
        <time>2015-10-25T06:44:14Z</time>
      </trkpt>
      <trkpt lat="43.70698" lon="3.46931">
        <ele>347.5</ele>
        <time>2015-10-25T06:44:15Z</time>
      </trkpt>
      <trkpt lat="43.70698" lon="3.46934">
        <ele>347.5</ele>
        <time>2015-10-25T06:44:16Z</time>
      </trkpt>
      <trkpt lat="43.70697" lon="3.46937">
        <ele>348</ele>
        <time>2015-10-25T06:44:17Z</time>
      </trkpt>
      <trkpt lat="43.70696" lon="3.4694">
        <ele>348</ele>
        <time>2015-10-25T06:44:18Z</time>
      </trkpt>
      <trkpt lat="43.70695" lon="3.46943">
        <ele>348</ele>
        <time>2015-10-25T06:44:19Z</time>
      </trkpt>
      <trkpt lat="43.70695" lon="3.46946">
        <ele>348.5</ele>
        <time>2015-10-25T06:44:20Z</time>
      </trkpt>
      <trkpt lat="43.70694" lon="3.46949">
        <ele>348.5</ele>
        <time>2015-10-25T06:44:21Z</time>
      </trkpt>
      <trkpt lat="43.70693" lon="3.46952">
        <ele>348.5</ele>
        <time>2015-10-25T06:44:22Z</time>
      </trkpt>
      <trkpt lat="43.70692" lon="3.46956">
        <ele>349</ele>
        <time>2015-10-25T06:44:23Z</time>
      </trkpt>
      <trkpt lat="43.70691" lon="3.46959">
        <ele>349</ele>
        <time>2015-10-25T06:44:24Z</time>
      </trkpt>
      <trkpt lat="43.70691" lon="3.46962">
        <ele>349.5</ele>
        <time>2015-10-25T06:44:25Z</time>
      </trkpt>
      <trkpt lat="43.7069" lon="3.46965">
        <ele>350</ele>
        <time>2015-10-25T06:44:26Z</time>
      </trkpt>
      <trkpt lat="43.7069" lon="3.46968">
        <ele>350</ele>
        <time>2015-10-25T06:44:27Z</time>
      </trkpt>
      <trkpt lat="43.70689" lon="3.46972">
        <ele>350.5</ele>
        <time>2015-10-25T06:44:28Z</time>
      </trkpt>
      <trkpt lat="43.70689" lon="3.46975">
        <ele>351</ele>
        <time>2015-10-25T06:44:29Z</time>
      </trkpt>
      <trkpt lat="43.70689" lon="3.46979">
        <ele>351</ele>
        <time>2015-10-25T06:44:30Z</time>
      </trkpt>
      <trkpt lat="43.70689" lon="3.46982">
        <ele>351.5</ele>
        <time>2015-10-25T06:44:31Z</time>
      </trkpt>
      <trkpt lat="43.70689" lon="3.46986">
        <ele>352</ele>
        <time>2015-10-25T06:44:32Z</time>
      </trkpt>
      <trkpt lat="43.70689" lon="3.46989">
        <ele>353</ele>
        <time>2015-10-25T06:44:33Z</time>
      </trkpt>
      <trkpt lat="43.70689" lon="3.46992">
        <ele>353</ele>
        <time>2015-10-25T06:44:34Z</time>
      </trkpt>
      <trkpt lat="43.70689" lon="3.46996">
        <ele>352</ele>
        <time>2015-10-25T06:44:35Z</time>
      </trkpt>
      <trkpt lat="43.70689" lon="3.46999">
        <ele>352.5</ele>
        <time>2015-10-25T06:44:36Z</time>
      </trkpt>
      <trkpt lat="43.7069" lon="3.47002">
        <ele>352.5</ele>
        <time>2015-10-25T06:44:37Z</time>
      </trkpt>
      <trkpt lat="43.7069" lon="3.47005">
        <ele>352.5</ele>
        <time>2015-10-25T06:44:38Z</time>
      </trkpt>
      <trkpt lat="43.70691" lon="3.47008">
        <ele>352.5</ele>
        <time>2015-10-25T06:44:39Z</time>
      </trkpt>
      <trkpt lat="43.70691" lon="3.47012">
        <ele>352.5</ele>
        <time>2015-10-25T06:44:40Z</time>
      </trkpt>
      <trkpt lat="43.70692" lon="3.47015">
        <ele>352.5</ele>
        <time>2015-10-25T06:44:41Z</time>
      </trkpt>
      <trkpt lat="43.70693" lon="3.47018">
        <ele>352.5</ele>
        <time>2015-10-25T06:44:42Z</time>
      </trkpt>
      <trkpt lat="43.70694" lon="3.47021">
        <ele>352.5</ele>
        <time>2015-10-25T06:44:43Z</time>
      </trkpt>
      <trkpt lat="43.70695" lon="3.47024">
        <ele>353</ele>
        <time>2015-10-25T06:44:44Z</time>
      </trkpt>
      <trkpt lat="43.70695" lon="3.47027">
        <ele>353</ele>
        <time>2015-10-25T06:44:45Z</time>
      </trkpt>
      <trkpt lat="43.70696" lon="3.4703">
        <ele>353</ele>
        <time>2015-10-25T06:44:46Z</time>
      </trkpt>
      <trkpt lat="43.70697" lon="3.47033">
        <ele>353</ele>
        <time>2015-10-25T06:44:47Z</time>
      </trkpt>
      <trkpt lat="43.70698" lon="3.47036">
        <ele>353.5</ele>
        <time>2015-10-25T06:44:48Z</time>
      </trkpt>
      <trkpt lat="43.70698" lon="3.47038">
        <ele>353</ele>
        <time>2015-10-25T06:44:49Z</time>
      </trkpt>
      <trkpt lat="43.70699" lon="3.47041">
        <ele>353</ele>
        <time>2015-10-25T06:44:50Z</time>
      </trkpt>
      <trkpt lat="43.707" lon="3.47044">
        <ele>353</ele>
        <time>2015-10-25T06:44:51Z</time>
      </trkpt>
      <trkpt lat="43.70701" lon="3.47047">
        <ele>353</ele>
        <time>2015-10-25T06:44:52Z</time>
      </trkpt>
      <trkpt lat="43.70702" lon="3.4705">
        <ele>353.5</ele>
        <time>2015-10-25T06:44:53Z</time>
      </trkpt>
      <trkpt lat="43.70703" lon="3.47053">
        <ele>353.5</ele>
        <time>2015-10-25T06:44:54Z</time>
      </trkpt>
      <trkpt lat="43.70704" lon="3.47056">
        <ele>353.5</ele>
        <time>2015-10-25T06:44:55Z</time>
      </trkpt>
      <trkpt lat="43.70705" lon="3.47058">
        <ele>354</ele>
        <time>2015-10-25T06:44:56Z</time>
      </trkpt>
      <trkpt lat="43.70706" lon="3.47061">
        <ele>354</ele>
        <time>2015-10-25T06:44:57Z</time>
      </trkpt>
      <trkpt lat="43.70707" lon="3.47064">
        <ele>354</ele>
        <time>2015-10-25T06:44:58Z</time>
      </trkpt>
      <trkpt lat="43.70708" lon="3.47066">
        <ele>354</ele>
        <time>2015-10-25T06:44:59Z</time>
      </trkpt>
      <trkpt lat="43.7071" lon="3.47069">
        <ele>354</ele>
        <time>2015-10-25T06:45:00Z</time>
      </trkpt>
      <trkpt lat="43.70711" lon="3.47071">
        <ele>354.5</ele>
        <time>2015-10-25T06:45:01Z</time>
      </trkpt>
      <trkpt lat="43.70713" lon="3.47073">
        <ele>354.5</ele>
        <time>2015-10-25T06:45:02Z</time>
      </trkpt>
      <trkpt lat="43.70715" lon="3.47076">
        <ele>354.5</ele>
        <time>2015-10-25T06:45:03Z</time>
      </trkpt>
      <trkpt lat="43.70717" lon="3.47078">
        <ele>354.5</ele>
        <time>2015-10-25T06:45:04Z</time>
      </trkpt>
      <trkpt lat="43.70718" lon="3.47079">
        <ele>354.5</ele>
        <time>2015-10-25T06:45:05Z</time>
      </trkpt>
      <trkpt lat="43.7072" lon="3.47081">
        <ele>354.5</ele>
        <time>2015-10-25T06:45:06Z</time>
      </trkpt>
      <trkpt lat="43.70722" lon="3.47083">
        <ele>354.5</ele>
        <time>2015-10-25T06:45:07Z</time>
      </trkpt>
      <trkpt lat="43.70724" lon="3.47084">
        <ele>354.5</ele>
        <time>2015-10-25T06:45:08Z</time>
      </trkpt>
      <trkpt lat="43.70726" lon="3.47085">
        <ele>354.5</ele>
        <time>2015-10-25T06:45:09Z</time>
      </trkpt>
      <trkpt lat="43.70729" lon="3.47087">
        <ele>354.5</ele>
        <time>2015-10-25T06:45:10Z</time>
      </trkpt>
      <trkpt lat="43.70731" lon="3.47089">
        <ele>355</ele>
        <time>2015-10-25T06:45:11Z</time>
      </trkpt>
      <trkpt lat="43.70733" lon="3.47091">
        <ele>355</ele>
        <time>2015-10-25T06:45:12Z</time>
      </trkpt>
      <trkpt lat="43.70735" lon="3.47093">
        <ele>355</ele>
        <time>2015-10-25T06:45:13Z</time>
      </trkpt>
      <trkpt lat="43.70737" lon="3.47095">
        <ele>355</ele>
        <time>2015-10-25T06:45:14Z</time>
      </trkpt>
      <trkpt lat="43.70739" lon="3.47097">
        <ele>355</ele>
        <time>2015-10-25T06:45:15Z</time>
      </trkpt>
      <trkpt lat="43.70741" lon="3.47097">
        <ele>355</ele>
        <time>2015-10-25T06:45:16Z</time>
      </trkpt>
      <trkpt lat="43.70743" lon="3.47099">
        <ele>355</ele>
        <time>2015-10-25T06:45:17Z</time>
      </trkpt>
      <trkpt lat="43.70745" lon="3.47101">
        <ele>355</ele>
        <time>2015-10-25T06:45:18Z</time>
      </trkpt>
      <trkpt lat="43.70747" lon="3.47103">
        <ele>355</ele>
        <time>2015-10-25T06:45:19Z</time>
      </trkpt>
      <trkpt lat="43.70749" lon="3.47105">
        <ele>355.5</ele>
        <time>2015-10-25T06:45:20Z</time>
      </trkpt>
      <trkpt lat="43.70751" lon="3.47106">
        <ele>355.5</ele>
        <time>2015-10-25T06:45:21Z</time>
      </trkpt>
      <trkpt lat="43.70753" lon="3.47105">
        <ele>355.5</ele>
        <time>2015-10-25T06:45:22Z</time>
      </trkpt>
      <trkpt lat="43.70755" lon="3.47105">
        <ele>355</ele>
        <time>2015-10-25T06:45:23Z</time>
      </trkpt>
      <trkpt lat="43.70757" lon="3.47104">
        <ele>355</ele>
        <time>2015-10-25T06:45:24Z</time>
      </trkpt>
      <trkpt lat="43.70759" lon="3.47105">
        <ele>356</ele>
        <time>2015-10-25T06:45:25Z</time>
      </trkpt>
      <trkpt lat="43.70761" lon="3.47104">
        <ele>356</ele>
        <time>2015-10-25T06:45:26Z</time>
      </trkpt>
      <trkpt lat="43.70763" lon="3.47105">
        <ele>356</ele>
        <time>2015-10-25T06:45:27Z</time>
      </trkpt>
      <trkpt lat="43.70766" lon="3.47106">
        <ele>356</ele>
        <time>2015-10-25T06:45:28Z</time>
      </trkpt>
      <trkpt lat="43.70768" lon="3.47106">
        <ele>356</ele>
        <time>2015-10-25T06:45:29Z</time>
      </trkpt>
      <trkpt lat="43.7077" lon="3.47107">
        <ele>356</ele>
        <time>2015-10-25T06:45:30Z</time>
      </trkpt>
      <trkpt lat="43.70772" lon="3.47108">
        <ele>356</ele>
        <time>2015-10-25T06:45:31Z</time>
      </trkpt>
      <trkpt lat="43.70775" lon="3.47109">
        <ele>356</ele>
        <time>2015-10-25T06:45:32Z</time>
      </trkpt>
      <trkpt lat="43.70777" lon="3.47111">
        <ele>356</ele>
        <time>2015-10-25T06:45:33Z</time>
      </trkpt>
      <trkpt lat="43.7078" lon="3.47111">
        <ele>356</ele>
        <time>2015-10-25T06:45:34Z</time>
      </trkpt>
      <trkpt lat="43.70782" lon="3.47111">
        <ele>356</ele>
        <time>2015-10-25T06:45:35Z</time>
      </trkpt>
      <trkpt lat="43.70785" lon="3.47112">
        <ele>356.5</ele>
        <time>2015-10-25T06:45:36Z</time>
      </trkpt>
      <trkpt lat="43.70787" lon="3.47113">
        <ele>356.5</ele>
        <time>2015-10-25T06:45:37Z</time>
      </trkpt>
      <trkpt lat="43.7079" lon="3.47114">
        <ele>356.5</ele>
        <time>2015-10-25T06:45:38Z</time>
      </trkpt>
      <trkpt lat="43.70792" lon="3.47114">
        <ele>356.5</ele>
        <time>2015-10-25T06:45:39Z</time>
      </trkpt>
      <trkpt lat="43.70794" lon="3.47115">
        <ele>356.5</ele>
        <time>2015-10-25T06:45:40Z</time>
      </trkpt>
      <trkpt lat="43.70797" lon="3.47116">
        <ele>356.5</ele>
        <time>2015-10-25T06:45:41Z</time>
      </trkpt>
      <trkpt lat="43.70799" lon="3.47116">
        <ele>356.5</ele>
        <time>2015-10-25T06:45:42Z</time>
      </trkpt>
      <trkpt lat="43.70801" lon="3.47115">
        <ele>356.5</ele>
        <time>2015-10-25T06:45:43Z</time>
      </trkpt>
      <trkpt lat="43.70803" lon="3.47116">
        <ele>356.5</ele>
        <time>2015-10-25T06:45:44Z</time>
      </trkpt>
      <trkpt lat="43.70805" lon="3.47116">
        <ele>357</ele>
        <time>2015-10-25T06:45:45Z</time>
      </trkpt>
      <trkpt lat="43.70807" lon="3.47117">
        <ele>357</ele>
        <time>2015-10-25T06:45:46Z</time>
      </trkpt>
      <trkpt lat="43.7081" lon="3.47116">
        <ele>357</ele>
        <time>2015-10-25T06:45:47Z</time>
      </trkpt>
      <trkpt lat="43.70812" lon="3.47116">
        <ele>357</ele>
        <time>2015-10-25T06:45:48Z</time>
      </trkpt>
      <trkpt lat="43.70814" lon="3.47117">
        <ele>357</ele>
        <time>2015-10-25T06:45:49Z</time>
      </trkpt>
      <trkpt lat="43.70816" lon="3.47117">
        <ele>357</ele>
        <time>2015-10-25T06:45:50Z</time>
      </trkpt>
      <trkpt lat="43.70818" lon="3.47115">
        <ele>357.5</ele>
        <time>2015-10-25T06:45:51Z</time>
      </trkpt>
      <trkpt lat="43.7082" lon="3.47116">
        <ele>357.5</ele>
        <time>2015-10-25T06:45:52Z</time>
      </trkpt>
      <trkpt lat="43.70824" lon="3.47124">
        <ele>357.5</ele>
        <time>2015-10-25T06:45:54Z</time>
      </trkpt>
      <trkpt lat="43.70826" lon="3.47125">
        <ele>357.5</ele>
        <time>2015-10-25T06:45:55Z</time>
      </trkpt>
      <trkpt lat="43.70828" lon="3.47125">
        <ele>357.5</ele>
        <time>2015-10-25T06:45:56Z</time>
      </trkpt>
      <trkpt lat="43.7083" lon="3.47126">
        <ele>357.5</ele>
        <time>2015-10-25T06:45:57Z</time>
      </trkpt>
      <trkpt lat="43.70831" lon="3.47127">
        <ele>357.5</ele>
        <time>2015-10-25T06:45:58Z</time>
      </trkpt>
      <trkpt lat="43.70834" lon="3.47126">
        <ele>357.5</ele>
        <time>2015-10-25T06:45:59Z</time>
      </trkpt>
      <trkpt lat="43.70835" lon="3.47124">
        <ele>357.5</ele>
        <time>2015-10-25T06:46:00Z</time>
      </trkpt>
      <trkpt lat="43.70836" lon="3.47123">
        <ele>358</ele>
        <time>2015-10-25T06:46:01Z</time>
      </trkpt>
      <trkpt lat="43.70839" lon="3.47118">
        <ele>358</ele>
        <time>2015-10-25T06:46:03Z</time>
      </trkpt>
      <trkpt lat="43.70841" lon="3.47117">
        <ele>358</ele>
        <time>2015-10-25T06:46:04Z</time>
      </trkpt>
      <trkpt lat="43.70843" lon="3.47117">
        <ele>358</ele>
        <time>2015-10-25T06:46:05Z</time>
      </trkpt>
      <trkpt lat="43.70845" lon="3.47116">
        <ele>358.5</ele>
        <time>2015-10-25T06:46:06Z</time>
      </trkpt>
      <trkpt lat="43.70847" lon="3.47117">
        <ele>358.5</ele>
        <time>2015-10-25T06:46:07Z</time>
      </trkpt>
      <trkpt lat="43.70849" lon="3.47116">
        <ele>358.5</ele>
        <time>2015-10-25T06:46:08Z</time>
      </trkpt>
      <trkpt lat="43.70851" lon="3.47115">
        <ele>358.5</ele>
        <time>2015-10-25T06:46:09Z</time>
      </trkpt>
      <trkpt lat="43.70854" lon="3.47115">
        <ele>358.5</ele>
        <time>2015-10-25T06:46:10Z</time>
      </trkpt>
      <trkpt lat="43.70856" lon="3.47116">
        <ele>358</ele>
        <time>2015-10-25T06:46:11Z</time>
      </trkpt>
      <trkpt lat="43.70858" lon="3.47116">
        <ele>358</ele>
        <time>2015-10-25T06:46:12Z</time>
      </trkpt>
      <trkpt lat="43.70861" lon="3.47115">
        <ele>358.5</ele>
        <time>2015-10-25T06:46:13Z</time>
      </trkpt>
      <trkpt lat="43.70863" lon="3.47114">
        <ele>358.5</ele>
        <time>2015-10-25T06:46:14Z</time>
      </trkpt>
      <trkpt lat="43.70865" lon="3.47113">
        <ele>358.5</ele>
        <time>2015-10-25T06:46:15Z</time>
      </trkpt>
      <trkpt lat="43.70867" lon="3.47113">
        <ele>358.5</ele>
        <time>2015-10-25T06:46:16Z</time>
      </trkpt>
      <trkpt lat="43.7087" lon="3.47112">
        <ele>358.5</ele>
        <time>2015-10-25T06:46:17Z</time>
      </trkpt>
      <trkpt lat="43.70872" lon="3.47111">
        <ele>358.5</ele>
        <time>2015-10-25T06:46:18Z</time>
      </trkpt>
      <trkpt lat="43.70874" lon="3.4711">
        <ele>358.5</ele>
        <time>2015-10-25T06:46:19Z</time>
      </trkpt>
      <trkpt lat="43.70876" lon="3.47108">
        <ele>359</ele>
        <time>2015-10-25T06:46:20Z</time>
      </trkpt>
      <trkpt lat="43.70879" lon="3.47108">
        <ele>359</ele>
        <time>2015-10-25T06:46:21Z</time>
      </trkpt>
      <trkpt lat="43.70881" lon="3.47107">
        <ele>359</ele>
        <time>2015-10-25T06:46:22Z</time>
      </trkpt>
      <trkpt lat="43.70884" lon="3.47106">
        <ele>359</ele>
        <time>2015-10-25T06:46:23Z</time>
      </trkpt>
      <trkpt lat="43.70886" lon="3.47106">
        <ele>359</ele>
        <time>2015-10-25T06:46:24Z</time>
      </trkpt>
      <trkpt lat="43.70889" lon="3.47105">
        <ele>359</ele>
        <time>2015-10-25T06:46:25Z</time>
      </trkpt>
      <trkpt lat="43.70891" lon="3.47104">
        <ele>359</ele>
        <time>2015-10-25T06:46:26Z</time>
      </trkpt>
      <trkpt lat="43.70893" lon="3.47103">
        <ele>359</ele>
        <time>2015-10-25T06:46:27Z</time>
      </trkpt>
      <trkpt lat="43.70896" lon="3.47103">
        <ele>359</ele>
        <time>2015-10-25T06:46:28Z</time>
      </trkpt>
      <trkpt lat="43.70898" lon="3.47102">
        <ele>359</ele>
        <time>2015-10-25T06:46:29Z</time>
      </trkpt>
      <trkpt lat="43.709" lon="3.47102">
        <ele>359</ele>
        <time>2015-10-25T06:46:30Z</time>
      </trkpt>
      <trkpt lat="43.70903" lon="3.47101">
        <ele>359</ele>
        <time>2015-10-25T06:46:31Z</time>
      </trkpt>
      <trkpt lat="43.70905" lon="3.471">
        <ele>359</ele>
        <time>2015-10-25T06:46:32Z</time>
      </trkpt>
      <trkpt lat="43.70907" lon="3.47099">
        <ele>359.5</ele>
        <time>2015-10-25T06:46:33Z</time>
      </trkpt>
      <trkpt lat="43.70909" lon="3.47099">
        <ele>359.5</ele>
        <time>2015-10-25T06:46:34Z</time>
      </trkpt>
      <trkpt lat="43.70911" lon="3.47098">
        <ele>359.5</ele>
        <time>2015-10-25T06:46:35Z</time>
      </trkpt>
      <trkpt lat="43.70913" lon="3.47097">
        <ele>359.5</ele>
        <time>2015-10-25T06:46:36Z</time>
      </trkpt>
      <trkpt lat="43.70915" lon="3.47096">
        <ele>360</ele>
        <time>2015-10-25T06:46:37Z</time>
      </trkpt>
      <trkpt lat="43.70917" lon="3.47094">
        <ele>360</ele>
        <time>2015-10-25T06:46:38Z</time>
      </trkpt>
      <trkpt lat="43.70919" lon="3.47093">
        <ele>360</ele>
        <time>2015-10-25T06:46:39Z</time>
      </trkpt>
      <trkpt lat="43.70921" lon="3.47092">
        <ele>359.5</ele>
        <time>2015-10-25T06:46:40Z</time>
      </trkpt>
      <trkpt lat="43.70923" lon="3.47091">
        <ele>360</ele>
        <time>2015-10-25T06:46:41Z</time>
      </trkpt>
      <trkpt lat="43.70925" lon="3.47089">
        <ele>359.5</ele>
        <time>2015-10-25T06:46:42Z</time>
      </trkpt>
      <trkpt lat="43.70927" lon="3.47088">
        <ele>360</ele>
        <time>2015-10-25T06:46:43Z</time>
      </trkpt>
      <trkpt lat="43.70929" lon="3.47087">
        <ele>360</ele>
        <time>2015-10-25T06:46:44Z</time>
      </trkpt>
      <trkpt lat="43.70931" lon="3.47085">
        <ele>360.5</ele>
        <time>2015-10-25T06:46:45Z</time>
      </trkpt>
      <trkpt lat="43.70933" lon="3.47084">
        <ele>360.5</ele>
        <time>2015-10-25T06:46:46Z</time>
      </trkpt>
      <trkpt lat="43.70935" lon="3.47083">
        <ele>360.5</ele>
        <time>2015-10-25T06:46:47Z</time>
      </trkpt>
      <trkpt lat="43.70937" lon="3.47082">
        <ele>360.5</ele>
        <time>2015-10-25T06:46:48Z</time>
      </trkpt>
      <trkpt lat="43.70939" lon="3.4708">
        <ele>361</ele>
        <time>2015-10-25T06:46:49Z</time>
      </trkpt>
      <trkpt lat="43.70941" lon="3.47079">
        <ele>361</ele>
        <time>2015-10-25T06:46:50Z</time>
      </trkpt>
      <trkpt lat="43.70942" lon="3.47076">
        <ele>361.5</ele>
        <time>2015-10-25T06:46:51Z</time>
      </trkpt>
      <trkpt lat="43.70944" lon="3.47075">
        <ele>362</ele>
        <time>2015-10-25T06:46:52Z</time>
      </trkpt>
      <trkpt lat="43.70946" lon="3.47073">
        <ele>362.5</ele>
        <time>2015-10-25T06:46:53Z</time>
      </trkpt>
      <trkpt lat="43.70948" lon="3.47072">
        <ele>362.5</ele>
        <time>2015-10-25T06:46:54Z</time>
      </trkpt>
      <trkpt lat="43.7095" lon="3.4707">
        <ele>362.5</ele>
        <time>2015-10-25T06:46:55Z</time>
      </trkpt>
      <trkpt lat="43.70952" lon="3.47069">
        <ele>363</ele>
        <time>2015-10-25T06:46:56Z</time>
      </trkpt>
      <trkpt lat="43.70953" lon="3.47067">
        <ele>363</ele>
        <time>2015-10-25T06:46:57Z</time>
      </trkpt>
      <trkpt lat="43.70955" lon="3.47065">
        <ele>362.5</ele>
        <time>2015-10-25T06:46:58Z</time>
      </trkpt>
      <trkpt lat="43.70957" lon="3.47063">
        <ele>362.5</ele>
        <time>2015-10-25T06:46:59Z</time>
      </trkpt>
      <trkpt lat="43.70959" lon="3.47062">
        <ele>362.5</ele>
        <time>2015-10-25T06:47:00Z</time>
      </trkpt>
      <trkpt lat="43.7096" lon="3.4706">
        <ele>363</ele>
        <time>2015-10-25T06:47:01Z</time>
      </trkpt>
      <trkpt lat="43.70962" lon="3.47059">
        <ele>363</ele>
        <time>2015-10-25T06:47:02Z</time>
      </trkpt>
      <trkpt lat="43.70964" lon="3.47057">
        <ele>363.5</ele>
        <time>2015-10-25T06:47:02Z</time>
      </trkpt>
      <trkpt lat="43.70966" lon="3.47055">
        <ele>364</ele>
        <time>2015-10-25T06:47:03Z</time>
      </trkpt>
      <trkpt lat="43.70967" lon="3.47053">
        <ele>364</ele>
        <time>2015-10-25T06:47:04Z</time>
      </trkpt>
      <trkpt lat="43.7097" lon="3.47051">
        <ele>364.5</ele>
        <time>2015-10-25T06:47:06Z</time>
      </trkpt>
      <trkpt lat="43.70971" lon="3.47049">
        <ele>365.5</ele>
        <time>2015-10-25T06:47:06Z</time>
      </trkpt>
      <trkpt lat="43.70973" lon="3.47047">
        <ele>367</ele>
        <time>2015-10-25T06:47:07Z</time>
      </trkpt>
      <trkpt lat="43.70975" lon="3.47046">
        <ele>367.5</ele>
        <time>2015-10-25T06:47:08Z</time>
      </trkpt>
      <trkpt lat="43.70976" lon="3.47044">
        <ele>368.5</ele>
        <time>2015-10-25T06:47:09Z</time>
      </trkpt>
      <trkpt lat="43.70978" lon="3.47042">
        <ele>369</ele>
        <time>2015-10-25T06:47:10Z</time>
      </trkpt>
      <trkpt lat="43.7098" lon="3.4704">
        <ele>369.5</ele>
        <time>2015-10-25T06:47:11Z</time>
      </trkpt>
      <trkpt lat="43.70981" lon="3.47038">
        <ele>370</ele>
        <time>2015-10-25T06:47:12Z</time>
      </trkpt>
      <trkpt lat="43.70983" lon="3.47036">
        <ele>370</ele>
        <time>2015-10-25T06:47:13Z</time>
      </trkpt>
      <trkpt lat="43.70985" lon="3.47035">
        <ele>370.5</ele>
        <time>2015-10-25T06:47:14Z</time>
      </trkpt>
      <trkpt lat="43.70987" lon="3.47033">
        <ele>371</ele>
        <time>2015-10-25T06:47:15Z</time>
      </trkpt>
      <trkpt lat="43.70988" lon="3.47032">
        <ele>371.5</ele>
        <time>2015-10-25T06:47:16Z</time>
      </trkpt>
      <trkpt lat="43.7099" lon="3.4703">
        <ele>372</ele>
        <time>2015-10-25T06:47:17Z</time>
      </trkpt>
      <trkpt lat="43.70992" lon="3.47028">
        <ele>372.5</ele>
        <time>2015-10-25T06:47:18Z</time>
      </trkpt>
      <trkpt lat="43.70994" lon="3.47026">
        <ele>372.5</ele>
        <time>2015-10-25T06:47:19Z</time>
      </trkpt>
      <trkpt lat="43.70996" lon="3.47024">
        <ele>373</ele>
        <time>2015-10-25T06:47:20Z</time>
      </trkpt>
      <trkpt lat="43.70997" lon="3.47022">
        <ele>373.5</ele>
        <time>2015-10-25T06:47:21Z</time>
      </trkpt>
      <trkpt lat="43.70999" lon="3.4702">
        <ele>374</ele>
        <time>2015-10-25T06:47:22Z</time>
      </trkpt>
      <trkpt lat="43.71" lon="3.47018">
        <ele>374.5</ele>
        <time>2015-10-25T06:47:23Z</time>
      </trkpt>
      <trkpt lat="43.71002" lon="3.47016">
        <ele>375.5</ele>
        <time>2015-10-25T06:47:24Z</time>
      </trkpt>
      <trkpt lat="43.71004" lon="3.47014">
        <ele>376</ele>
        <time>2015-10-25T06:47:25Z</time>
      </trkpt>
      <trkpt lat="43.71005" lon="3.47012">
        <ele>376.5</ele>
        <time>2015-10-25T06:47:26Z</time>
      </trkpt>
      <trkpt lat="43.71007" lon="3.4701">
        <ele>377</ele>
        <time>2015-10-25T06:47:27Z</time>
      </trkpt>
      <trkpt lat="43.71008" lon="3.47008">
        <ele>377.5</ele>
        <time>2015-10-25T06:47:28Z</time>
      </trkpt>
      <trkpt lat="43.7101" lon="3.47006">
        <ele>378</ele>
        <time>2015-10-25T06:47:29Z</time>
      </trkpt>
      <trkpt lat="43.71012" lon="3.47003">
        <ele>378</ele>
        <time>2015-10-25T06:47:30Z</time>
      </trkpt>
      <trkpt lat="43.71013" lon="3.47001">
        <ele>378.5</ele>
        <time>2015-10-25T06:47:31Z</time>
      </trkpt>
      <trkpt lat="43.71015" lon="3.46999">
        <ele>379</ele>
        <time>2015-10-25T06:47:32Z</time>
      </trkpt>
      <trkpt lat="43.71017" lon="3.46998">
        <ele>379.5</ele>
        <time>2015-10-25T06:47:33Z</time>
      </trkpt>
      <trkpt lat="43.71018" lon="3.46995">
        <ele>380.5</ele>
        <time>2015-10-25T06:47:34Z</time>
      </trkpt>
      <trkpt lat="43.7102" lon="3.46993">
        <ele>381</ele>
        <time>2015-10-25T06:47:35Z</time>
      </trkpt>
      <trkpt lat="43.71022" lon="3.46992">
        <ele>381.5</ele>
        <time>2015-10-25T06:47:36Z</time>
      </trkpt>
      <trkpt lat="43.71023" lon="3.4699">
        <ele>381.5</ele>
        <time>2015-10-25T06:47:37Z</time>
      </trkpt>
      <trkpt lat="43.71025" lon="3.46988">
        <ele>382</ele>
        <time>2015-10-25T06:52:05Z</time>
      </trkpt>
      <trkpt lat="43.71029" lon="3.46984">
        <ele>382.5</ele>
        <time>2015-10-25T06:52:07Z</time>
      </trkpt>
      <trkpt lat="43.71031" lon="3.46982">
        <ele>382.5</ele>
        <time>2015-10-25T06:52:08Z</time>
      </trkpt>
      <trkpt lat="43.71032" lon="3.4698">
        <ele>383</ele>
        <time>2015-10-25T06:52:09Z</time>
      </trkpt>
      <trkpt lat="43.71035" lon="3.46978">
        <ele>383.5</ele>
        <time>2015-10-25T06:52:10Z</time>
      </trkpt>
      <trkpt lat="43.71037" lon="3.46977">
        <ele>383.5</ele>
        <time>2015-10-25T06:52:11Z</time>
      </trkpt>
      <trkpt lat="43.71039" lon="3.46975">
        <ele>384</ele>
        <time>2015-10-25T06:52:12Z</time>
      </trkpt>
      <trkpt lat="43.71041" lon="3.46974">
        <ele>384</ele>
        <time>2015-10-25T06:52:13Z</time>
      </trkpt>
      <trkpt lat="43.71043" lon="3.46972">
        <ele>384.5</ele>
        <time>2015-10-25T06:52:14Z</time>
      </trkpt>
      <trkpt lat="43.71045" lon="3.4697">
        <ele>384.5</ele>
        <time>2015-10-25T06:52:15Z</time>
      </trkpt>
      <trkpt lat="43.71047" lon="3.46969">
        <ele>385</ele>
        <time>2015-10-25T06:52:16Z</time>
      </trkpt>
      <trkpt lat="43.71049" lon="3.46968">
        <ele>385</ele>
        <time>2015-10-25T06:52:17Z</time>
      </trkpt>
      <trkpt lat="43.7105" lon="3.46966">
        <ele>385.5</ele>
        <time>2015-10-25T06:52:18Z</time>
      </trkpt>
      <trkpt lat="43.71052" lon="3.46965">
        <ele>385.5</ele>
        <time>2015-10-25T06:52:19Z</time>
      </trkpt>
      <trkpt lat="43.71054" lon="3.46964">
        <ele>386</ele>
        <time>2015-10-25T06:52:20Z</time>
      </trkpt>
      <trkpt lat="43.71056" lon="3.46963">
        <ele>386</ele>
        <time>2015-10-25T06:52:21Z</time>
      </trkpt>
      <trkpt lat="43.71058" lon="3.46962">
        <ele>386</ele>
        <time>2015-10-25T06:52:22Z</time>
      </trkpt>
      <trkpt lat="43.7106" lon="3.4696">
        <ele>386.5</ele>
        <time>2015-10-25T06:52:23Z</time>
      </trkpt>
      <trkpt lat="43.71062" lon="3.46959">
        <ele>387</ele>
        <time>2015-10-25T06:52:24Z</time>
      </trkpt>
      <trkpt lat="43.71064" lon="3.46958">
        <ele>387</ele>
        <time>2015-10-25T06:52:25Z</time>
      </trkpt>
      <trkpt lat="43.71066" lon="3.46957">
        <ele>387</ele>
        <time>2015-10-25T06:52:26Z</time>
      </trkpt>
      <trkpt lat="43.71068" lon="3.46956">
        <ele>387.5</ele>
        <time>2015-10-25T06:52:27Z</time>
      </trkpt>
      <trkpt lat="43.7107" lon="3.46955">
        <ele>388</ele>
        <time>2015-10-25T06:52:28Z</time>
      </trkpt>
      <trkpt lat="43.71072" lon="3.46953">
        <ele>388</ele>
        <time>2015-10-25T06:52:29Z</time>
      </trkpt>
      <trkpt lat="43.71074" lon="3.46953">
        <ele>388.5</ele>
        <time>2015-10-25T06:52:30Z</time>
      </trkpt>
      <trkpt lat="43.71077" lon="3.46952">
        <ele>388.5</ele>
        <time>2015-10-25T06:52:31Z</time>
      </trkpt>
      <trkpt lat="43.71079" lon="3.46952">
        <ele>388.5</ele>
        <time>2015-10-25T06:52:32Z</time>
      </trkpt>
      <trkpt lat="43.71081" lon="3.46951">
        <ele>388.5</ele>
        <time>2015-10-25T06:52:33Z</time>
      </trkpt>
      <trkpt lat="43.71084" lon="3.46951">
        <ele>388.5</ele>
        <time>2015-10-25T06:52:34Z</time>
      </trkpt>
      <trkpt lat="43.71086" lon="3.46951">
        <ele>388.5</ele>
        <time>2015-10-25T06:52:35Z</time>
      </trkpt>
      <trkpt lat="43.71089" lon="3.4695">
        <ele>388.5</ele>
        <time>2015-10-25T06:52:36Z</time>
      </trkpt>
      <trkpt lat="43.71091" lon="3.4695">
        <ele>388.5</ele>
        <time>2015-10-25T06:52:36Z</time>
      </trkpt>
      <trkpt lat="43.71093" lon="3.46949">
        <ele>388.5</ele>
        <time>2015-10-25T06:52:37Z</time>
      </trkpt>
      <trkpt lat="43.71096" lon="3.46948">
        <ele>388.5</ele>
        <time>2015-10-25T06:52:38Z</time>
      </trkpt>
      <trkpt lat="43.71098" lon="3.46947">
        <ele>389</ele>
        <time>2015-10-25T06:52:39Z</time>
      </trkpt>
      <trkpt lat="43.711" lon="3.46947">
        <ele>388.5</ele>
        <time>2015-10-25T06:52:40Z</time>
      </trkpt>
      <trkpt lat="43.71103" lon="3.46946">
        <ele>389</ele>
        <time>2015-10-25T06:52:41Z</time>
      </trkpt>
      <trkpt lat="43.71105" lon="3.46945">
        <ele>389.5</ele>
        <time>2015-10-25T06:52:42Z</time>
      </trkpt>
      <trkpt lat="43.71107" lon="3.46944">
        <ele>389.5</ele>
        <time>2015-10-25T06:52:43Z</time>
      </trkpt>
      <trkpt lat="43.71109" lon="3.46943">
        <ele>390.5</ele>
        <time>2015-10-25T06:52:44Z</time>
      </trkpt>
      <trkpt lat="43.71111" lon="3.46942">
        <ele>391</ele>
        <time>2015-10-25T06:52:45Z</time>
      </trkpt>
      <trkpt lat="43.71113" lon="3.46941">
        <ele>391.5</ele>
        <time>2015-10-25T06:52:46Z</time>
      </trkpt>
      <trkpt lat="43.71115" lon="3.4694">
        <ele>392</ele>
        <time>2015-10-25T06:52:47Z</time>
      </trkpt>
      <trkpt lat="43.71118" lon="3.4694">
        <ele>392.5</ele>
        <time>2015-10-25T06:52:48Z</time>
      </trkpt>
      <trkpt lat="43.7112" lon="3.4694">
        <ele>393</ele>
        <time>2015-10-25T06:52:49Z</time>
      </trkpt>
      <trkpt lat="43.71122" lon="3.46939">
        <ele>394</ele>
        <time>2015-10-25T06:52:50Z</time>
      </trkpt>
      <trkpt lat="43.71124" lon="3.46938">
        <ele>394.5</ele>
        <time>2015-10-25T06:52:51Z</time>
      </trkpt>
      <trkpt lat="43.71126" lon="3.46937">
        <ele>395</ele>
        <time>2015-10-25T06:52:52Z</time>
      </trkpt>
      <trkpt lat="43.71128" lon="3.46936">
        <ele>395.5</ele>
        <time>2015-10-25T06:52:53Z</time>
      </trkpt>
      <trkpt lat="43.7113" lon="3.46936">
        <ele>395.5</ele>
        <time>2015-10-25T06:52:54Z</time>
      </trkpt>
      <trkpt lat="43.71132" lon="3.46935">
        <ele>395</ele>
        <time>2015-10-25T06:52:55Z</time>
      </trkpt>
      <trkpt lat="43.71134" lon="3.46935">
        <ele>395</ele>
        <time>2015-10-25T06:52:56Z</time>
      </trkpt>
      <trkpt lat="43.71136" lon="3.46935">
        <ele>394.5</ele>
        <time>2015-10-25T06:52:57Z</time>
      </trkpt>
      <trkpt lat="43.71139" lon="3.46934">
        <ele>394.5</ele>
        <time>2015-10-25T06:52:58Z</time>
      </trkpt>
      <trkpt lat="43.71141" lon="3.46933">
        <ele>394</ele>
        <time>2015-10-25T06:52:59Z</time>
      </trkpt>
      <trkpt lat="43.71143" lon="3.46932">
        <ele>394.5</ele>
        <time>2015-10-25T06:53:00Z</time>
      </trkpt>
      <trkpt lat="43.71145" lon="3.4693">
        <ele>395.5</ele>
        <time>2015-10-25T06:53:01Z</time>
      </trkpt>
      <trkpt lat="43.71147" lon="3.46929">
        <ele>395.5</ele>
        <time>2015-10-25T06:53:02Z</time>
      </trkpt>
      <trkpt lat="43.71149" lon="3.46928">
        <ele>395.5</ele>
        <time>2015-10-25T06:53:03Z</time>
      </trkpt>
      <trkpt lat="43.71151" lon="3.46928">
        <ele>396</ele>
        <time>2015-10-25T06:53:04Z</time>
      </trkpt>
      <trkpt lat="43.71153" lon="3.46927">
        <ele>396</ele>
        <time>2015-10-25T06:53:05Z</time>
      </trkpt>
      <trkpt lat="43.71155" lon="3.46927">
        <ele>396</ele>
        <time>2015-10-25T06:53:06Z</time>
      </trkpt>
      <trkpt lat="43.71157" lon="3.46926">
        <ele>396</ele>
        <time>2015-10-25T06:53:07Z</time>
      </trkpt>
      <trkpt lat="43.7116" lon="3.46926">
        <ele>396</ele>
        <time>2015-10-25T06:53:08Z</time>
      </trkpt>
      <trkpt lat="43.71162" lon="3.46925">
        <ele>396.5</ele>
        <time>2015-10-25T06:53:09Z</time>
      </trkpt>
      <trkpt lat="43.71165" lon="3.46925">
        <ele>396.5</ele>
        <time>2015-10-25T06:53:10Z</time>
      </trkpt>
      <trkpt lat="43.71167" lon="3.46924">
        <ele>396.5</ele>
        <time>2015-10-25T06:53:11Z</time>
      </trkpt>
      <trkpt lat="43.71169" lon="3.46924">
        <ele>397</ele>
        <time>2015-10-25T06:53:12Z</time>
      </trkpt>
      <trkpt lat="43.71172" lon="3.46923">
        <ele>397</ele>
        <time>2015-10-25T06:53:13Z</time>
      </trkpt>
      <trkpt lat="43.71177" lon="3.46923">
        <ele>397.5</ele>
        <time>2015-10-25T06:53:15Z</time>
      </trkpt>
      <trkpt lat="43.71179" lon="3.46923">
        <ele>398</ele>
        <time>2015-10-25T06:53:16Z</time>
      </trkpt>
      <trkpt lat="43.71182" lon="3.46922">
        <ele>396.5</ele>
        <time>2015-10-25T06:53:17Z</time>
      </trkpt>
      <trkpt lat="43.71184" lon="3.46921">
        <ele>396</ele>
        <time>2015-10-25T06:53:18Z</time>
      </trkpt>
      <trkpt lat="43.71186" lon="3.46921">
        <ele>396</ele>
        <time>2015-10-25T06:53:19Z</time>
      </trkpt>
      <trkpt lat="43.71188" lon="3.4692">
        <ele>396</ele>
        <time>2015-10-25T06:53:20Z</time>
      </trkpt>
      <trkpt lat="43.71191" lon="3.4692">
        <ele>395</ele>
        <time>2015-10-25T06:53:21Z</time>
      </trkpt>
      <trkpt lat="43.71193" lon="3.46919">
        <ele>395</ele>
        <time>2015-10-25T06:53:22Z</time>
      </trkpt>
      <trkpt lat="43.71196" lon="3.46919">
        <ele>395</ele>
        <time>2015-10-25T06:53:23Z</time>
      </trkpt>
      <trkpt lat="43.71198" lon="3.46919">
        <ele>395</ele>
        <time>2015-10-25T06:53:24Z</time>
      </trkpt>
      <trkpt lat="43.71201" lon="3.46919">
        <ele>395</ele>
        <time>2015-10-25T06:53:25Z</time>
      </trkpt>
      <trkpt lat="43.71204" lon="3.4692">
        <ele>395</ele>
        <time>2015-10-25T06:53:26Z</time>
      </trkpt>
      <trkpt lat="43.71206" lon="3.46921">
        <ele>395.5</ele>
        <time>2015-10-25T06:53:27Z</time>
      </trkpt>
      <trkpt lat="43.71209" lon="3.46922">
        <ele>396</ele>
        <time>2015-10-25T06:53:28Z</time>
      </trkpt>
      <trkpt lat="43.71212" lon="3.46923">
        <ele>396.5</ele>
        <time>2015-10-25T06:53:29Z</time>
      </trkpt>
      <trkpt lat="43.71214" lon="3.46924">
        <ele>398</ele>
        <time>2015-10-25T06:53:30Z</time>
      </trkpt>
      <trkpt lat="43.71217" lon="3.46926">
        <ele>398.5</ele>
        <time>2015-10-25T06:53:31Z</time>
      </trkpt>
      <trkpt lat="43.71219" lon="3.46929">
        <ele>399</ele>
        <time>2015-10-25T06:53:32Z</time>
      </trkpt>
      <trkpt lat="43.71221" lon="3.46931">
        <ele>399</ele>
        <time>2015-10-25T06:53:33Z</time>
      </trkpt>
      <trkpt lat="43.71224" lon="3.46933">
        <ele>399.5</ele>
        <time>2015-10-25T06:53:34Z</time>
      </trkpt>
      <trkpt lat="43.71225" lon="3.46935">
        <ele>399.5</ele>
        <time>2015-10-25T06:53:35Z</time>
      </trkpt>
      <trkpt lat="43.71227" lon="3.46938">
        <ele>399.5</ele>
        <time>2015-10-25T06:53:36Z</time>
      </trkpt>
      <trkpt lat="43.71228" lon="3.46941">
        <ele>399.5</ele>
        <time>2015-10-25T06:53:37Z</time>
      </trkpt>
      <trkpt lat="43.7123" lon="3.46944">
        <ele>400.5</ele>
        <time>2015-10-25T06:53:38Z</time>
      </trkpt>
      <trkpt lat="43.71231" lon="3.46947">
        <ele>400.5</ele>
        <time>2015-10-25T06:53:39Z</time>
      </trkpt>
      <trkpt lat="43.71232" lon="3.46951">
        <ele>401.5</ele>
        <time>2015-10-25T06:53:40Z</time>
      </trkpt>
      <trkpt lat="43.71232" lon="3.46955">
        <ele>401.5</ele>
        <time>2015-10-25T06:53:41Z</time>
      </trkpt>
      <trkpt lat="43.71233" lon="3.46958">
        <ele>402</ele>
        <time>2015-10-25T06:53:42Z</time>
      </trkpt>
      <trkpt lat="43.71234" lon="3.46961">
        <ele>402</ele>
        <time>2015-10-25T06:53:43Z</time>
      </trkpt>
      <trkpt lat="43.71234" lon="3.46964">
        <ele>402.5</ele>
        <time>2015-10-25T06:53:44Z</time>
      </trkpt>
      <trkpt lat="43.71235" lon="3.46968">
        <ele>402.5</ele>
        <time>2015-10-25T06:53:45Z</time>
      </trkpt>
      <trkpt lat="43.71236" lon="3.46971">
        <ele>403</ele>
        <time>2015-10-25T06:53:46Z</time>
      </trkpt>
      <trkpt lat="43.71238" lon="3.46974">
        <ele>403</ele>
        <time>2015-10-25T06:53:47Z</time>
      </trkpt>
      <trkpt lat="43.71239" lon="3.46977">
        <ele>403.5</ele>
        <time>2015-10-25T06:53:48Z</time>
      </trkpt>
      <trkpt lat="43.71241" lon="3.46979">
        <ele>403.5</ele>
        <time>2015-10-25T06:53:49Z</time>
      </trkpt>
      <trkpt lat="43.71242" lon="3.46982">
        <ele>403.5</ele>
        <time>2015-10-25T06:53:50Z</time>
      </trkpt>
      <trkpt lat="43.71244" lon="3.46985">
        <ele>403</ele>
        <time>2015-10-25T06:53:51Z</time>
      </trkpt>
      <trkpt lat="43.71247" lon="3.46986">
        <ele>402.5</ele>
        <time>2015-10-25T06:53:52Z</time>
      </trkpt>
      <trkpt lat="43.71249" lon="3.46987">
        <ele>402.5</ele>
        <time>2015-10-25T06:53:53Z</time>
      </trkpt>
      <trkpt lat="43.71252" lon="3.46987">
        <ele>402.5</ele>
        <time>2015-10-25T06:53:54Z</time>
      </trkpt>
      <trkpt lat="43.71254" lon="3.46986">
        <ele>403</ele>
        <time>2015-10-25T06:53:55Z</time>
      </trkpt>
      <trkpt lat="43.71256" lon="3.46984">
        <ele>403</ele>
        <time>2015-10-25T06:53:56Z</time>
      </trkpt>
      <trkpt lat="43.71258" lon="3.46981">
        <ele>403.5</ele>
        <time>2015-10-25T06:53:57Z</time>
      </trkpt>
      <trkpt lat="43.7126" lon="3.46978">
        <ele>403.5</ele>
        <time>2015-10-25T06:53:58Z</time>
      </trkpt>
      <trkpt lat="43.71261" lon="3.46975">
        <ele>403.5</ele>
        <time>2015-10-25T06:53:59Z</time>
      </trkpt>
      <trkpt lat="43.71263" lon="3.46972">
        <ele>404</ele>
        <time>2015-10-25T06:54:00Z</time>
      </trkpt>
      <trkpt lat="43.71264" lon="3.46969">
        <ele>404.5</ele>
        <time>2015-10-25T06:54:01Z</time>
      </trkpt>
      <trkpt lat="43.71265" lon="3.46966">
        <ele>405.5</ele>
        <time>2015-10-25T06:54:02Z</time>
      </trkpt>
      <trkpt lat="43.71266" lon="3.46962">
        <ele>406</ele>
        <time>2015-10-25T06:54:03Z</time>
      </trkpt>
      <trkpt lat="43.71266" lon="3.46959">
        <ele>406.5</ele>
        <time>2015-10-25T06:54:04Z</time>
      </trkpt>
      <trkpt lat="43.71267" lon="3.46956">
        <ele>407</ele>
        <time>2015-10-25T06:54:05Z</time>
      </trkpt>
      <trkpt lat="43.71267" lon="3.46953">
        <ele>407</ele>
        <time>2015-10-25T06:54:06Z</time>
      </trkpt>
      <trkpt lat="43.71268" lon="3.4695">
        <ele>407.5</ele>
        <time>2015-10-25T06:54:07Z</time>
      </trkpt>
      <trkpt lat="43.71268" lon="3.46946">
        <ele>408</ele>
        <time>2015-10-25T06:54:08Z</time>
      </trkpt>
      <trkpt lat="43.71269" lon="3.46943">
        <ele>408</ele>
        <time>2015-10-25T06:54:09Z</time>
      </trkpt>
      <trkpt lat="43.7127" lon="3.4694">
        <ele>408.5</ele>
        <time>2015-10-25T06:54:10Z</time>
      </trkpt>
      <trkpt lat="43.7127" lon="3.46936">
        <ele>409</ele>
        <time>2015-10-25T06:54:11Z</time>
      </trkpt>
      <trkpt lat="43.71271" lon="3.46932">
        <ele>409.5</ele>
        <time>2015-10-25T06:54:12Z</time>
      </trkpt>
      <trkpt lat="43.71272" lon="3.46929">
        <ele>409.5</ele>
        <time>2015-10-25T06:54:13Z</time>
      </trkpt>
      <trkpt lat="43.71273" lon="3.46925">
        <ele>410</ele>
        <time>2015-10-25T06:54:14Z</time>
      </trkpt>
      <trkpt lat="43.71274" lon="3.46922">
        <ele>410.5</ele>
        <time>2015-10-25T06:54:15Z</time>
      </trkpt>
      <trkpt lat="43.71275" lon="3.46919">
        <ele>411</ele>
        <time>2015-10-25T06:54:16Z</time>
      </trkpt>
      <trkpt lat="43.71277" lon="3.46916">
        <ele>411.5</ele>
        <time>2015-10-25T06:54:17Z</time>
      </trkpt>
      <trkpt lat="43.71278" lon="3.46913">
        <ele>412</ele>
        <time>2015-10-25T06:54:18Z</time>
      </trkpt>
      <trkpt lat="43.71279" lon="3.4691">
        <ele>412</ele>
        <time>2015-10-25T06:54:19Z</time>
      </trkpt>
      <trkpt lat="43.71281" lon="3.46907">
        <ele>412.5</ele>
        <time>2015-10-25T06:54:20Z</time>
      </trkpt>
      <trkpt lat="43.71283" lon="3.46904">
        <ele>412.5</ele>
        <time>2015-10-25T06:54:21Z</time>
      </trkpt>
      <trkpt lat="43.71284" lon="3.46901">
        <ele>413</ele>
        <time>2015-10-25T06:54:22Z</time>
      </trkpt>
      <trkpt lat="43.71286" lon="3.46898">
        <ele>414</ele>
        <time>2015-10-25T06:54:23Z</time>
      </trkpt>
      <trkpt lat="43.71288" lon="3.46895">
        <ele>414</ele>
        <time>2015-10-25T06:54:24Z</time>
      </trkpt>
      <trkpt lat="43.71289" lon="3.46892">
        <ele>413.5</ele>
        <time>2015-10-25T06:54:25Z</time>
      </trkpt>
      <trkpt lat="43.71291" lon="3.4689">
        <ele>413.5</ele>
        <time>2015-10-25T06:54:26Z</time>
      </trkpt>
      <trkpt lat="43.71292" lon="3.46887">
        <ele>414</ele>
        <time>2015-10-25T06:54:27Z</time>
      </trkpt>
      <trkpt lat="43.71294" lon="3.46884">
        <ele>414</ele>
        <time>2015-10-25T06:54:28Z</time>
      </trkpt>
      <trkpt lat="43.71296" lon="3.46882">
        <ele>414</ele>
        <time>2015-10-25T06:54:29Z</time>
      </trkpt>
      <trkpt lat="43.71298" lon="3.46879">
        <ele>414.5</ele>
        <time>2015-10-25T06:54:30Z</time>
      </trkpt>
      <trkpt lat="43.71299" lon="3.46877">
        <ele>414.5</ele>
        <time>2015-10-25T06:54:31Z</time>
      </trkpt>
      <trkpt lat="43.71301" lon="3.46874">
        <ele>414.5</ele>
        <time>2015-10-25T06:54:32Z</time>
      </trkpt>
      <trkpt lat="43.71302" lon="3.46871">
        <ele>415</ele>
        <time>2015-10-25T06:54:33Z</time>
      </trkpt>
      <trkpt lat="43.71304" lon="3.46868">
        <ele>415</ele>
        <time>2015-10-25T06:54:34Z</time>
      </trkpt>
      <trkpt lat="43.71305" lon="3.46865">
        <ele>415</ele>
        <time>2015-10-25T06:54:35Z</time>
      </trkpt>
      <trkpt lat="43.71306" lon="3.46862">
        <ele>415</ele>
        <time>2015-10-25T06:54:36Z</time>
      </trkpt>
      <trkpt lat="43.71307" lon="3.46858">
        <ele>415</ele>
        <time>2015-10-25T06:54:37Z</time>
      </trkpt>
      <trkpt lat="43.71308" lon="3.46855">
        <ele>415.5</ele>
        <time>2015-10-25T06:54:38Z</time>
      </trkpt>
      <trkpt lat="43.71309" lon="3.46852">
        <ele>416</ele>
        <time>2015-10-25T06:54:39Z</time>
      </trkpt>
      <trkpt lat="43.7131" lon="3.46848">
        <ele>416</ele>
        <time>2015-10-25T06:54:40Z</time>
      </trkpt>
      <trkpt lat="43.7131" lon="3.46845">
        <ele>416.5</ele>
        <time>2015-10-25T06:54:41Z</time>
      </trkpt>
      <trkpt lat="43.7131" lon="3.46841">
        <ele>416.5</ele>
        <time>2015-10-25T06:54:42Z</time>
      </trkpt>
      <trkpt lat="43.7131" lon="3.46839">
        <ele>418</ele>
        <time>2015-10-25T06:54:43Z</time>
      </trkpt>
      <trkpt lat="43.7131" lon="3.46835">
        <ele>418.5</ele>
        <time>2015-10-25T06:54:44Z</time>
      </trkpt>
      <trkpt lat="43.7131" lon="3.46832">
        <ele>418.5</ele>
        <time>2015-10-25T06:54:45Z</time>
      </trkpt>
      <trkpt lat="43.7131" lon="3.46828">
        <ele>418.5</ele>
        <time>2015-10-25T06:54:46Z</time>
      </trkpt>
      <trkpt lat="43.7131" lon="3.46825">
        <ele>418</ele>
        <time>2015-10-25T06:54:47Z</time>
      </trkpt>
      <trkpt lat="43.71309" lon="3.46821">
        <ele>418</ele>
        <time>2015-10-25T06:54:48Z</time>
      </trkpt>
      <trkpt lat="43.71309" lon="3.46818">
        <ele>418</ele>
        <time>2015-10-25T06:54:49Z</time>
      </trkpt>
      <trkpt lat="43.71309" lon="3.46814">
        <ele>418.5</ele>
        <time>2015-10-25T06:54:50Z</time>
      </trkpt>
      <trkpt lat="43.71308" lon="3.46811">
        <ele>418.5</ele>
        <time>2015-10-25T06:54:51Z</time>
      </trkpt>
      <trkpt lat="43.71308" lon="3.46804">
        <ele>418.5</ele>
        <time>2015-10-25T06:54:53Z</time>
      </trkpt>
      <trkpt lat="43.71307" lon="3.468">
        <ele>418</ele>
        <time>2015-10-25T06:54:54Z</time>
      </trkpt>
      <trkpt lat="43.71307" lon="3.46796">
        <ele>418</ele>
        <time>2015-10-25T06:54:55Z</time>
      </trkpt>
      <trkpt lat="43.71306" lon="3.46792">
        <ele>418</ele>
        <time>2015-10-25T06:54:56Z</time>
      </trkpt>
      <trkpt lat="43.71306" lon="3.46789">
        <ele>418</ele>
        <time>2015-10-25T06:54:57Z</time>
      </trkpt>
      <trkpt lat="43.71305" lon="3.46785">
        <ele>418</ele>
        <time>2015-10-25T06:54:58Z</time>
      </trkpt>
      <trkpt lat="43.71304" lon="3.46782">
        <ele>418.5</ele>
        <time>2015-10-25T06:54:59Z</time>
      </trkpt>
      <trkpt lat="43.71303" lon="3.46778">
        <ele>418.5</ele>
        <time>2015-10-25T06:55:00Z</time>
      </trkpt>
      <trkpt lat="43.71302" lon="3.46775">
        <ele>418.5</ele>
        <time>2015-10-25T06:55:01Z</time>
      </trkpt>
      <trkpt lat="43.71301" lon="3.46771">
        <ele>418.5</ele>
        <time>2015-10-25T06:55:02Z</time>
      </trkpt>
      <trkpt lat="43.713" lon="3.46768">
        <ele>418</ele>
        <time>2015-10-25T06:55:03Z</time>
      </trkpt>
      <trkpt lat="43.71299" lon="3.46764">
        <ele>418.5</ele>
        <time>2015-10-25T06:55:04Z</time>
      </trkpt>
      <trkpt lat="43.71298" lon="3.46761">
        <ele>418.5</ele>
        <time>2015-10-25T06:55:05Z</time>
      </trkpt>
      <trkpt lat="43.71298" lon="3.46757">
        <ele>419</ele>
        <time>2015-10-25T06:55:06Z</time>
      </trkpt>
      <trkpt lat="43.71296" lon="3.46754">
        <ele>419</ele>
        <time>2015-10-25T06:55:07Z</time>
      </trkpt>
      <trkpt lat="43.71295" lon="3.46751">
        <ele>419</ele>
        <time>2015-10-25T06:55:08Z</time>
      </trkpt>
      <trkpt lat="43.71295" lon="3.46747">
        <ele>419</ele>
        <time>2015-10-25T06:55:09Z</time>
      </trkpt>
      <trkpt lat="43.71294" lon="3.46744">
        <ele>419</ele>
        <time>2015-10-25T06:55:10Z</time>
      </trkpt>
      <trkpt lat="43.71293" lon="3.46741">
        <ele>419</ele>
        <time>2015-10-25T06:55:11Z</time>
      </trkpt>
      <trkpt lat="43.71292" lon="3.46737">
        <ele>419.5</ele>
        <time>2015-10-25T06:55:12Z</time>
      </trkpt>
      <trkpt lat="43.71291" lon="3.46734">
        <ele>419.5</ele>
        <time>2015-10-25T06:55:13Z</time>
      </trkpt>
      <trkpt lat="43.71289" lon="3.46731">
        <ele>420</ele>
        <time>2015-10-25T06:55:14Z</time>
      </trkpt>
      <trkpt lat="43.71288" lon="3.46728">
        <ele>420</ele>
        <time>2015-10-25T06:55:15Z</time>
      </trkpt>
      <trkpt lat="43.71287" lon="3.46725">
        <ele>420</ele>
        <time>2015-10-25T06:55:16Z</time>
      </trkpt>
      <trkpt lat="43.71286" lon="3.46722">
        <ele>420</ele>
        <time>2015-10-25T06:55:17Z</time>
      </trkpt>
      <trkpt lat="43.71285" lon="3.46718">
        <ele>420</ele>
        <time>2015-10-25T06:55:18Z</time>
      </trkpt>
      <trkpt lat="43.71284" lon="3.46715">
        <ele>420.5</ele>
        <time>2015-10-25T06:55:19Z</time>
      </trkpt>
      <trkpt lat="43.71283" lon="3.46712">
        <ele>420.5</ele>
        <time>2015-10-25T06:55:20Z</time>
      </trkpt>
      <trkpt lat="43.71282" lon="3.46709">
        <ele>420.5</ele>
        <time>2015-10-25T06:55:21Z</time>
      </trkpt>
      <trkpt lat="43.71282" lon="3.46705">
        <ele>420.5</ele>
        <time>2015-10-25T06:55:22Z</time>
      </trkpt>
      <trkpt lat="43.71281" lon="3.46702">
        <ele>421</ele>
        <time>2015-10-25T06:55:23Z</time>
      </trkpt>
      <trkpt lat="43.7128" lon="3.46699">
        <ele>422</ele>
        <time>2015-10-25T06:55:24Z</time>
      </trkpt>
      <trkpt lat="43.71279" lon="3.46695">
        <ele>422</ele>
        <time>2015-10-25T06:55:25Z</time>
      </trkpt>
      <trkpt lat="43.71279" lon="3.46692">
        <ele>422</ele>
        <time>2015-10-25T06:55:26Z</time>
      </trkpt>
      <trkpt lat="43.71279" lon="3.46688">
        <ele>422</ele>
        <time>2015-10-25T06:55:27Z</time>
      </trkpt>
      <trkpt lat="43.71279" lon="3.46685">
        <ele>422</ele>
        <time>2015-10-25T06:55:28Z</time>
      </trkpt>
      <trkpt lat="43.71278" lon="3.46681">
        <ele>422</ele>
        <time>2015-10-25T06:55:29Z</time>
      </trkpt>
      <trkpt lat="43.71278" lon="3.46678">
        <ele>422.5</ele>
        <time>2015-10-25T06:55:30Z</time>
      </trkpt>
      <trkpt lat="43.71277" lon="3.46675">
        <ele>422.5</ele>
        <time>2015-10-25T06:55:31Z</time>
      </trkpt>
      <trkpt lat="43.71276" lon="3.46671">
        <ele>422.5</ele>
        <time>2015-10-25T06:55:32Z</time>
      </trkpt>
      <trkpt lat="43.71274" lon="3.46668">
        <ele>422.5</ele>
        <time>2015-10-25T06:55:33Z</time>
      </trkpt>
      <trkpt lat="43.71272" lon="3.46665">
        <ele>423</ele>
        <time>2015-10-25T06:55:34Z</time>
      </trkpt>
      <trkpt lat="43.7127" lon="3.46662">
        <ele>423</ele>
        <time>2015-10-25T06:55:35Z</time>
      </trkpt>
      <trkpt lat="43.71267" lon="3.4666">
        <ele>423</ele>
        <time>2015-10-25T06:55:36Z</time>
      </trkpt>
      <trkpt lat="43.71265" lon="3.46658">
        <ele>423</ele>
        <time>2015-10-25T06:55:37Z</time>
      </trkpt>
      <trkpt lat="43.71262" lon="3.46656">
        <ele>423</ele>
        <time>2015-10-25T06:55:38Z</time>
      </trkpt>
      <trkpt lat="43.71256" lon="3.46653">
        <ele>423</ele>
        <time>2015-10-25T06:55:40Z</time>
      </trkpt>
      <trkpt lat="43.71254" lon="3.46653">
        <ele>423</ele>
        <time>2015-10-25T06:55:41Z</time>
      </trkpt>
      <trkpt lat="43.71248" lon="3.46651">
        <ele>424.5</ele>
        <time>2015-10-25T06:55:43Z</time>
      </trkpt>
      <trkpt lat="43.71246" lon="3.46649">
        <ele>424.5</ele>
        <time>2015-10-25T06:55:44Z</time>
      </trkpt>
      <trkpt lat="43.71243" lon="3.46646">
        <ele>424.5</ele>
        <time>2015-10-25T06:55:45Z</time>
      </trkpt>
      <trkpt lat="43.71242" lon="3.46643">
        <ele>424.5</ele>
        <time>2015-10-25T06:55:46Z</time>
      </trkpt>
      <trkpt lat="43.7124" lon="3.46638">
        <ele>425.5</ele>
        <time>2015-10-25T06:55:47Z</time>
      </trkpt>
      <trkpt lat="43.71238" lon="3.46635">
        <ele>425</ele>
        <time>2015-10-25T06:55:48Z</time>
      </trkpt>
      <trkpt lat="43.71238" lon="3.46629">
        <ele>425.5</ele>
        <time>2015-10-25T06:55:49Z</time>
      </trkpt>
      <trkpt lat="43.71237" lon="3.46625">
        <ele>426</ele>
        <time>2015-10-25T06:55:50Z</time>
      </trkpt>
      <trkpt lat="43.71236" lon="3.46622">
        <ele>426</ele>
        <time>2015-10-25T06:55:51Z</time>
      </trkpt>
      <trkpt lat="43.71236" lon="3.46618">
        <ele>426</ele>
        <time>2015-10-25T06:55:52Z</time>
      </trkpt>
      <trkpt lat="43.71235" lon="3.46614">
        <ele>426</ele>
        <time>2015-10-25T06:55:53Z</time>
      </trkpt>
      <trkpt lat="43.71235" lon="3.46611">
        <ele>426</ele>
        <time>2015-10-25T06:55:54Z</time>
      </trkpt>
      <trkpt lat="43.71235" lon="3.46607">
        <ele>426.5</ele>
        <time>2015-10-25T06:55:55Z</time>
      </trkpt>
      <trkpt lat="43.71236" lon="3.46603">
        <ele>426.5</ele>
        <time>2015-10-25T06:55:56Z</time>
      </trkpt>
      <trkpt lat="43.71237" lon="3.46599">
        <ele>426.5</ele>
        <time>2015-10-25T06:55:57Z</time>
      </trkpt>
      <trkpt lat="43.71238" lon="3.46595">
        <ele>426.5</ele>
        <time>2015-10-25T06:55:58Z</time>
      </trkpt>
      <trkpt lat="43.71238" lon="3.46592">
        <ele>427</ele>
        <time>2015-10-25T06:55:59Z</time>
      </trkpt>
      <trkpt lat="43.71239" lon="3.46588">
        <ele>427</ele>
        <time>2015-10-25T06:56:00Z</time>
      </trkpt>
      <trkpt lat="43.71241" lon="3.46584">
        <ele>427.5</ele>
        <time>2015-10-25T06:56:01Z</time>
      </trkpt>
      <trkpt lat="43.71243" lon="3.46581">
        <ele>427.5</ele>
        <time>2015-10-25T06:56:02Z</time>
      </trkpt>
      <trkpt lat="43.71246" lon="3.46577">
        <ele>427.5</ele>
        <time>2015-10-25T06:56:03Z</time>
      </trkpt>
      <trkpt lat="43.71248" lon="3.46574">
        <ele>428</ele>
        <time>2015-10-25T06:56:04Z</time>
      </trkpt>
      <trkpt lat="43.7125" lon="3.46572">
        <ele>428</ele>
        <time>2015-10-25T06:56:05Z</time>
      </trkpt>
      <trkpt lat="43.71252" lon="3.4657">
        <ele>428</ele>
        <time>2015-10-25T06:56:06Z</time>
      </trkpt>
      <trkpt lat="43.71254" lon="3.46568">
        <ele>429</ele>
        <time>2015-10-25T06:56:07Z</time>
      </trkpt>
      <trkpt lat="43.71256" lon="3.46567">
        <ele>428.5</ele>
        <time>2015-10-25T06:56:08Z</time>
      </trkpt>
      <trkpt lat="43.71259" lon="3.46565">
        <ele>428.5</ele>
        <time>2015-10-25T06:56:09Z</time>
      </trkpt>
      <trkpt lat="43.71261" lon="3.46564">
        <ele>428.5</ele>
        <time>2015-10-25T06:56:10Z</time>
      </trkpt>
      <trkpt lat="43.71264" lon="3.46564">
        <ele>428.5</ele>
        <time>2015-10-25T06:56:11Z</time>
      </trkpt>
      <trkpt lat="43.71267" lon="3.46562">
        <ele>428.5</ele>
        <time>2015-10-25T06:56:12Z</time>
      </trkpt>
      <trkpt lat="43.7127" lon="3.46563">
        <ele>428</ele>
        <time>2015-10-25T06:56:13Z</time>
      </trkpt>
      <trkpt lat="43.71273" lon="3.46562">
        <ele>428</ele>
        <time>2015-10-25T06:56:14Z</time>
      </trkpt>
      <trkpt lat="43.71275" lon="3.4656">
        <ele>427.5</ele>
        <time>2015-10-25T06:56:15Z</time>
      </trkpt>
      <trkpt lat="43.71277" lon="3.46559">
        <ele>427.5</ele>
        <time>2015-10-25T06:56:16Z</time>
      </trkpt>
      <trkpt lat="43.71279" lon="3.46559">
        <ele>427.5</ele>
        <time>2015-10-25T06:56:17Z</time>
      </trkpt>
      <trkpt lat="43.71281" lon="3.46558">
        <ele>427</ele>
        <time>2015-10-25T06:56:17Z</time>
      </trkpt>
      <trkpt lat="43.71283" lon="3.46556">
        <ele>428.5</ele>
        <time>2015-10-25T06:56:18Z</time>
      </trkpt>
      <trkpt lat="43.71285" lon="3.46555">
        <ele>428</ele>
        <time>2015-10-25T06:56:19Z</time>
      </trkpt>
      <trkpt lat="43.71288" lon="3.46555">
        <ele>428</ele>
        <time>2015-10-25T06:56:20Z</time>
      </trkpt>
      <trkpt lat="43.7129" lon="3.46555">
        <ele>428</ele>
        <time>2015-10-25T06:56:21Z</time>
      </trkpt>
      <trkpt lat="43.71292" lon="3.46554">
        <ele>427.5</ele>
        <time>2015-10-25T06:56:22Z</time>
      </trkpt>
      <trkpt lat="43.71294" lon="3.46554">
        <ele>426.5</ele>
        <time>2015-10-25T06:56:23Z</time>
      </trkpt>
      <trkpt lat="43.71296" lon="3.46554">
        <ele>426</ele>
        <time>2015-10-25T06:56:24Z</time>
      </trkpt>
      <trkpt lat="43.71298" lon="3.46553">
        <ele>426.5</ele>
        <time>2015-10-25T06:56:25Z</time>
      </trkpt>
      <trkpt lat="43.71299" lon="3.46552">
        <ele>426.5</ele>
        <time>2015-10-25T06:56:26Z</time>
      </trkpt>
      <trkpt lat="43.71301" lon="3.46551">
        <ele>427</ele>
        <time>2015-10-25T06:56:27Z</time>
      </trkpt>
      <trkpt lat="43.71303" lon="3.4655">
        <ele>427.5</ele>
        <time>2015-10-25T06:56:28Z</time>
      </trkpt>
      <trkpt lat="43.71304" lon="3.46549">
        <ele>427.5</ele>
        <time>2015-10-25T06:56:29Z</time>
      </trkpt>
      <trkpt lat="43.71306" lon="3.46549">
        <ele>428</ele>
        <time>2015-10-25T06:56:30Z</time>
      </trkpt>
      <trkpt lat="43.71308" lon="3.46549">
        <ele>428</ele>
        <time>2015-10-25T06:56:31Z</time>
      </trkpt>
      <trkpt lat="43.71309" lon="3.46548">
        <ele>428</ele>
        <time>2015-10-25T06:56:32Z</time>
      </trkpt>
      <trkpt lat="43.71311" lon="3.46549">
        <ele>428.5</ele>
        <time>2015-10-25T06:56:33Z</time>
      </trkpt>
      <trkpt lat="43.71312" lon="3.46548">
        <ele>428.5</ele>
        <time>2015-10-25T06:56:34Z</time>
      </trkpt>
      <trkpt lat="43.71314" lon="3.46548">
        <ele>428.5</ele>
        <time>2015-10-25T06:56:35Z</time>
      </trkpt>
      <trkpt lat="43.71316" lon="3.46548">
        <ele>428.5</ele>
        <time>2015-10-25T06:56:36Z</time>
      </trkpt>
      <trkpt lat="43.71318" lon="3.46547">
        <ele>428.5</ele>
        <time>2015-10-25T06:56:37Z</time>
      </trkpt>
      <trkpt lat="43.7132" lon="3.46547">
        <ele>428.5</ele>
        <time>2015-10-25T06:56:38Z</time>
      </trkpt>
      <trkpt lat="43.71322" lon="3.46547">
        <ele>429</ele>
        <time>2015-10-25T06:56:39Z</time>
      </trkpt>
      <trkpt lat="43.71324" lon="3.46547">
        <ele>429.5</ele>
        <time>2015-10-25T06:56:40Z</time>
      </trkpt>
      <trkpt lat="43.71326" lon="3.46548">
        <ele>429</ele>
        <time>2015-10-25T06:56:41Z</time>
      </trkpt>
      <trkpt lat="43.71328" lon="3.4655">
        <ele>427</ele>
        <time>2015-10-25T06:56:42Z</time>
      </trkpt>
      <trkpt lat="43.7133" lon="3.4655">
        <ele>427</ele>
        <time>2015-10-25T06:56:43Z</time>
      </trkpt>
      <trkpt lat="43.71332" lon="3.4655">
        <ele>427</ele>
        <time>2015-10-25T06:56:44Z</time>
      </trkpt>
      <trkpt lat="43.71334" lon="3.46551">
        <ele>426.5</ele>
        <time>2015-10-25T06:56:45Z</time>
      </trkpt>
      <trkpt lat="43.71336" lon="3.46551">
        <ele>426.5</ele>
        <time>2015-10-25T06:56:46Z</time>
      </trkpt>
      <trkpt lat="43.71338" lon="3.46552">
        <ele>427</ele>
        <time>2015-10-25T06:56:47Z</time>
      </trkpt>
      <trkpt lat="43.7134" lon="3.46552">
        <ele>427</ele>
        <time>2015-10-25T06:56:48Z</time>
      </trkpt>
      <trkpt lat="43.71342" lon="3.46553">
        <ele>427</ele>
        <time>2015-10-25T06:56:49Z</time>
      </trkpt>
      <trkpt lat="43.71345" lon="3.46553">
        <ele>426.5</ele>
        <time>2015-10-25T06:56:50Z</time>
      </trkpt>
      <trkpt lat="43.71347" lon="3.46553">
        <ele>426.5</ele>
        <time>2015-10-25T06:56:51Z</time>
      </trkpt>
      <trkpt lat="43.7135" lon="3.46553">
        <ele>427</ele>
        <time>2015-10-25T06:56:53Z</time>
      </trkpt>
      <trkpt lat="43.71352" lon="3.46553">
        <ele>426.5</ele>
        <time>2015-10-25T06:56:54Z</time>
      </trkpt>
      <trkpt lat="43.71355" lon="3.46553">
        <ele>426</ele>
        <time>2015-10-25T06:56:55Z</time>
      </trkpt>
      <trkpt lat="43.71357" lon="3.46553">
        <ele>426</ele>
        <time>2015-10-25T06:56:56Z</time>
      </trkpt>
      <trkpt lat="43.71359" lon="3.46553">
        <ele>426</ele>
        <time>2015-10-25T06:56:57Z</time>
      </trkpt>
      <trkpt lat="43.71362" lon="3.46552">
        <ele>425.5</ele>
        <time>2015-10-25T06:56:58Z</time>
      </trkpt>
      <trkpt lat="43.71364" lon="3.46552">
        <ele>425.5</ele>
        <time>2015-10-25T06:56:59Z</time>
      </trkpt>
      <trkpt lat="43.71366" lon="3.46552">
        <ele>425.5</ele>
        <time>2015-10-25T06:57:00Z</time>
      </trkpt>
      <trkpt lat="43.71368" lon="3.46552">
        <ele>425.5</ele>
        <time>2015-10-25T06:57:01Z</time>
      </trkpt>
      <trkpt lat="43.7137" lon="3.46552">
        <ele>425.5</ele>
        <time>2015-10-25T06:57:03Z</time>
      </trkpt>
      <trkpt lat="43.71372" lon="3.46551">
        <ele>425.5</ele>
        <time>2015-10-25T06:57:03Z</time>
      </trkpt>
      <trkpt lat="43.71374" lon="3.46551">
        <ele>425.5</ele>
        <time>2015-10-25T06:57:04Z</time>
      </trkpt>
      <trkpt lat="43.71376" lon="3.4655">
        <ele>425.5</ele>
        <time>2015-10-25T06:57:05Z</time>
      </trkpt>
      <trkpt lat="43.71378" lon="3.4655">
        <ele>426</ele>
        <time>2015-10-25T06:57:06Z</time>
      </trkpt>
      <trkpt lat="43.7138" lon="3.4655">
        <ele>426</ele>
        <time>2015-10-25T06:57:07Z</time>
      </trkpt>
      <trkpt lat="43.71382" lon="3.46549">
        <ele>425.5</ele>
        <time>2015-10-25T06:57:08Z</time>
      </trkpt>
      <trkpt lat="43.71384" lon="3.46549">
        <ele>426</ele>
        <time>2015-10-25T06:57:09Z</time>
      </trkpt>
      <trkpt lat="43.71386" lon="3.46548">
        <ele>426</ele>
        <time>2015-10-25T06:57:10Z</time>
      </trkpt>
      <trkpt lat="43.71388" lon="3.46547">
        <ele>426</ele>
        <time>2015-10-25T06:57:11Z</time>
      </trkpt>
      <trkpt lat="43.7139" lon="3.46546">
        <ele>426</ele>
        <time>2015-10-25T06:57:12Z</time>
      </trkpt>
      <trkpt lat="43.71392" lon="3.46545">
        <ele>426.5</ele>
        <time>2015-10-25T06:57:13Z</time>
      </trkpt>
      <trkpt lat="43.71394" lon="3.46545">
        <ele>426.5</ele>
        <time>2015-10-25T06:57:14Z</time>
      </trkpt>
      <trkpt lat="43.71396" lon="3.46543">
        <ele>427</ele>
        <time>2015-10-25T06:57:15Z</time>
      </trkpt>
      <trkpt lat="43.71398" lon="3.46542">
        <ele>427</ele>
        <time>2015-10-25T06:57:16Z</time>
      </trkpt>
      <trkpt lat="43.714" lon="3.46542">
        <ele>427.5</ele>
        <time>2015-10-25T06:57:17Z</time>
      </trkpt>
      <trkpt lat="43.71402" lon="3.46542">
        <ele>427.5</ele>
        <time>2015-10-25T06:57:18Z</time>
      </trkpt>
      <trkpt lat="43.71404" lon="3.46542">
        <ele>427.5</ele>
        <time>2015-10-25T06:57:19Z</time>
      </trkpt>
      <trkpt lat="43.71406" lon="3.46542">
        <ele>428</ele>
        <time>2015-10-25T06:57:20Z</time>
      </trkpt>
      <trkpt lat="43.71408" lon="3.46542">
        <ele>427.5</ele>
        <time>2015-10-25T06:57:21Z</time>
      </trkpt>
      <trkpt lat="43.7141" lon="3.46541">
        <ele>427.5</ele>
        <time>2015-10-25T06:57:22Z</time>
      </trkpt>
      <trkpt lat="43.71411" lon="3.4654">
        <ele>427.5</ele>
        <time>2015-10-25T06:57:23Z</time>
      </trkpt>
      <trkpt lat="43.71413" lon="3.4654">
        <ele>427.5</ele>
        <time>2015-10-25T06:57:24Z</time>
      </trkpt>
      <trkpt lat="43.71415" lon="3.46539">
        <ele>428</ele>
        <time>2015-10-25T06:57:25Z</time>
      </trkpt>
      <trkpt lat="43.71417" lon="3.46538">
        <ele>428</ele>
        <time>2015-10-25T06:57:26Z</time>
      </trkpt>
      <trkpt lat="43.7142" lon="3.46538">
        <ele>428</ele>
        <time>2015-10-25T06:57:27Z</time>
      </trkpt>
      <trkpt lat="43.71422" lon="3.46538">
        <ele>428.5</ele>
        <time>2015-10-25T06:57:28Z</time>
      </trkpt>
      <trkpt lat="43.71424" lon="3.46537">
        <ele>427.5</ele>
        <time>2015-10-25T06:57:29Z</time>
      </trkpt>
      <trkpt lat="43.71426" lon="3.46537">
        <ele>427.5</ele>
        <time>2015-10-25T06:57:30Z</time>
      </trkpt>
      <trkpt lat="43.71428" lon="3.46537">
        <ele>427.5</ele>
        <time>2015-10-25T06:57:31Z</time>
      </trkpt>
      <trkpt lat="43.7143" lon="3.46537">
        <ele>427.5</ele>
        <time>2015-10-25T06:57:32Z</time>
      </trkpt>
      <trkpt lat="43.71432" lon="3.46537">
        <ele>427.5</ele>
        <time>2015-10-25T06:57:33Z</time>
      </trkpt>
      <trkpt lat="43.71434" lon="3.46537">
        <ele>428</ele>
        <time>2015-10-25T06:57:34Z</time>
      </trkpt>
      <trkpt lat="43.71436" lon="3.46536">
        <ele>428.5</ele>
        <time>2015-10-25T06:57:35Z</time>
      </trkpt>
      <trkpt lat="43.71438" lon="3.46535">
        <ele>429.5</ele>
        <time>2015-10-25T06:57:36Z</time>
      </trkpt>
      <trkpt lat="43.7144" lon="3.46535">
        <ele>430</ele>
        <time>2015-10-25T06:57:37Z</time>
      </trkpt>
      <trkpt lat="43.71442" lon="3.46534">
        <ele>430.5</ele>
        <time>2015-10-25T06:57:38Z</time>
      </trkpt>
      <trkpt lat="43.71444" lon="3.46533">
        <ele>430.5</ele>
        <time>2015-10-25T06:57:39Z</time>
      </trkpt>
      <trkpt lat="43.71447" lon="3.46533">
        <ele>430.5</ele>
        <time>2015-10-25T06:57:40Z</time>
      </trkpt>
      <trkpt lat="43.71449" lon="3.46532">
        <ele>431</ele>
        <time>2015-10-25T06:57:41Z</time>
      </trkpt>
      <trkpt lat="43.71452" lon="3.46531">
        <ele>431</ele>
        <time>2015-10-25T06:57:42Z</time>
      </trkpt>
      <trkpt lat="43.71454" lon="3.4653">
        <ele>431</ele>
        <time>2015-10-25T06:57:43Z</time>
      </trkpt>
      <trkpt lat="43.71456" lon="3.46529">
        <ele>431</ele>
        <time>2015-10-25T06:57:44Z</time>
      </trkpt>
      <trkpt lat="43.71458" lon="3.46528">
        <ele>431</ele>
        <time>2015-10-25T06:57:45Z</time>
      </trkpt>
      <trkpt lat="43.7146" lon="3.46527">
        <ele>431</ele>
        <time>2015-10-25T06:57:46Z</time>
      </trkpt>
      <trkpt lat="43.71462" lon="3.46526">
        <ele>432</ele>
        <time>2015-10-25T06:57:47Z</time>
      </trkpt>
      <trkpt lat="43.71464" lon="3.46524">
        <ele>432</ele>
        <time>2015-10-25T06:57:48Z</time>
      </trkpt>
      <trkpt lat="43.71466" lon="3.46524">
        <ele>432</ele>
        <time>2015-10-25T06:57:49Z</time>
      </trkpt>
      <trkpt lat="43.71469" lon="3.46523">
        <ele>431.5</ele>
        <time>2015-10-25T06:57:50Z</time>
      </trkpt>
      <trkpt lat="43.71471" lon="3.46521">
        <ele>431.5</ele>
        <time>2015-10-25T06:57:51Z</time>
      </trkpt>
      <trkpt lat="43.71473" lon="3.46519">
        <ele>431</ele>
        <time>2015-10-25T06:57:52Z</time>
      </trkpt>
      <trkpt lat="43.71475" lon="3.46517">
        <ele>431</ele>
        <time>2015-10-25T06:57:53Z</time>
      </trkpt>
      <trkpt lat="43.71476" lon="3.46515">
        <ele>430.5</ele>
        <time>2015-10-25T06:57:54Z</time>
      </trkpt>
      <trkpt lat="43.71478" lon="3.46512">
        <ele>431</ele>
        <time>2015-10-25T06:57:55Z</time>
      </trkpt>
      <trkpt lat="43.7148" lon="3.4651">
        <ele>431.5</ele>
        <time>2015-10-25T06:57:56Z</time>
      </trkpt>
      <trkpt lat="43.71481" lon="3.46507">
        <ele>431.5</ele>
        <time>2015-10-25T06:57:57Z</time>
      </trkpt>
      <trkpt lat="43.71483" lon="3.46504">
        <ele>432</ele>
        <time>2015-10-25T06:57:58Z</time>
      </trkpt>
      <trkpt lat="43.71483" lon="3.465">
        <ele>432.5</ele>
        <time>2015-10-25T06:57:59Z</time>
      </trkpt>
      <trkpt lat="43.71485" lon="3.46498">
        <ele>432.5</ele>
        <time>2015-10-25T06:58:00Z</time>
      </trkpt>
      <trkpt lat="43.71486" lon="3.46495">
        <ele>432</ele>
        <time>2015-10-25T06:58:01Z</time>
      </trkpt>
      <trkpt lat="43.71488" lon="3.46493">
        <ele>431.5</ele>
        <time>2015-10-25T06:58:02Z</time>
      </trkpt>
      <trkpt lat="43.71489" lon="3.46491">
        <ele>431.5</ele>
        <time>2015-10-25T06:58:03Z</time>
      </trkpt>
      <trkpt lat="43.71491" lon="3.46489">
        <ele>431.5</ele>
        <time>2015-10-25T06:58:04Z</time>
      </trkpt>
      <trkpt lat="43.71493" lon="3.46487">
        <ele>431</ele>
        <time>2015-10-25T06:58:05Z</time>
      </trkpt>
      <trkpt lat="43.71494" lon="3.46485">
        <ele>430.5</ele>
        <time>2015-10-25T06:58:06Z</time>
      </trkpt>
      <trkpt lat="43.71495" lon="3.46482">
        <ele>430.5</ele>
        <time>2015-10-25T06:58:07Z</time>
      </trkpt>
      <trkpt lat="43.71497" lon="3.46479">
        <ele>430.5</ele>
        <time>2015-10-25T06:58:08Z</time>
      </trkpt>
      <trkpt lat="43.71498" lon="3.46477">
        <ele>430.5</ele>
        <time>2015-10-25T06:58:09Z</time>
      </trkpt>
      <trkpt lat="43.71499" lon="3.46475">
        <ele>430.5</ele>
        <time>2015-10-25T06:58:10Z</time>
      </trkpt>
      <trkpt lat="43.715" lon="3.46472">
        <ele>430.5</ele>
        <time>2015-10-25T06:58:11Z</time>
      </trkpt>
      <trkpt lat="43.71501" lon="3.4647">
        <ele>430.5</ele>
        <time>2015-10-25T06:58:12Z</time>
      </trkpt>
      <trkpt lat="43.71502" lon="3.46467">
        <ele>431</ele>
        <time>2015-10-25T06:58:13Z</time>
      </trkpt>
      <trkpt lat="43.71503" lon="3.46464">
        <ele>431</ele>
        <time>2015-10-25T06:58:14Z</time>
      </trkpt>
      <trkpt lat="43.71505" lon="3.46461">
        <ele>431</ele>
        <time>2015-10-25T06:58:15Z</time>
      </trkpt>
      <trkpt lat="43.71506" lon="3.46459">
        <ele>431.5</ele>
        <time>2015-10-25T06:58:16Z</time>
      </trkpt>
      <trkpt lat="43.71508" lon="3.46457">
        <ele>432.5</ele>
        <time>2015-10-25T06:58:17Z</time>
      </trkpt>
      <trkpt lat="43.7151" lon="3.46455">
        <ele>432</ele>
        <time>2015-10-25T06:58:18Z</time>
      </trkpt>
      <trkpt lat="43.71513" lon="3.46449">
        <ele>431.5</ele>
        <time>2015-10-25T06:58:20Z</time>
      </trkpt>
      <trkpt lat="43.71514" lon="3.46447">
        <ele>432</ele>
        <time>2015-10-25T06:58:21Z</time>
      </trkpt>
      <trkpt lat="43.71515" lon="3.46445">
        <ele>432</ele>
        <time>2015-10-25T06:58:22Z</time>
      </trkpt>
      <trkpt lat="43.71517" lon="3.46442">
        <ele>432.5</ele>
        <time>2015-10-25T06:58:23Z</time>
      </trkpt>
      <trkpt lat="43.71519" lon="3.46439">
        <ele>432.5</ele>
        <time>2015-10-25T06:58:24Z</time>
      </trkpt>
      <trkpt lat="43.71521" lon="3.46437">
        <ele>432.5</ele>
        <time>2015-10-25T06:58:25Z</time>
      </trkpt>
      <trkpt lat="43.71522" lon="3.46434">
        <ele>432.5</ele>
        <time>2015-10-25T06:58:26Z</time>
      </trkpt>
      <trkpt lat="43.71525" lon="3.46431">
        <ele>432.5</ele>
        <time>2015-10-25T06:58:27Z</time>
      </trkpt>
      <trkpt lat="43.71527" lon="3.46429">
        <ele>432.5</ele>
        <time>2015-10-25T06:58:28Z</time>
      </trkpt>
      <trkpt lat="43.71529" lon="3.46427">
        <ele>432</ele>
        <time>2015-10-25T06:58:29Z</time>
      </trkpt>
      <trkpt lat="43.71531" lon="3.46425">
        <ele>432</ele>
        <time>2015-10-25T06:58:30Z</time>
      </trkpt>
      <trkpt lat="43.71534" lon="3.46423">
        <ele>432.5</ele>
        <time>2015-10-25T06:58:31Z</time>
      </trkpt>
      <trkpt lat="43.71536" lon="3.46421">
        <ele>432.5</ele>
        <time>2015-10-25T06:58:32Z</time>
      </trkpt>
      <trkpt lat="43.71538" lon="3.46419">
        <ele>432</ele>
        <time>2015-10-25T06:58:33Z</time>
      </trkpt>
      <trkpt lat="43.7154" lon="3.46417">
        <ele>432</ele>
        <time>2015-10-25T06:58:34Z</time>
      </trkpt>
      <trkpt lat="43.71543" lon="3.46415">
        <ele>432</ele>
        <time>2015-10-25T06:58:35Z</time>
      </trkpt>
      <trkpt lat="43.71545" lon="3.46413">
        <ele>432</ele>
        <time>2015-10-25T06:58:36Z</time>
      </trkpt>
      <trkpt lat="43.71547" lon="3.46411">
        <ele>431.5</ele>
        <time>2015-10-25T06:58:37Z</time>
      </trkpt>
      <trkpt lat="43.7155" lon="3.46409">
        <ele>431.5</ele>
        <time>2015-10-25T06:58:38Z</time>
      </trkpt>
      <trkpt lat="43.71552" lon="3.46408">
        <ele>431</ele>
        <time>2015-10-25T06:58:39Z</time>
      </trkpt>
      <trkpt lat="43.71554" lon="3.46406">
        <ele>431.5</ele>
        <time>2015-10-25T06:58:40Z</time>
      </trkpt>
      <trkpt lat="43.71556" lon="3.46406">
        <ele>433</ele>
        <time>2015-10-25T06:58:41Z</time>
      </trkpt>
      <trkpt lat="43.71558" lon="3.46404">
        <ele>433.5</ele>
        <time>2015-10-25T06:58:42Z</time>
      </trkpt>
      <trkpt lat="43.7156" lon="3.46402">
        <ele>434</ele>
        <time>2015-10-25T06:58:43Z</time>
      </trkpt>
      <trkpt lat="43.71563" lon="3.464">
        <ele>434</ele>
        <time>2015-10-25T06:58:44Z</time>
      </trkpt>
      <trkpt lat="43.71565" lon="3.46398">
        <ele>434</ele>
        <time>2015-10-25T06:58:45Z</time>
      </trkpt>
      <trkpt lat="43.71567" lon="3.46396">
        <ele>434</ele>
        <time>2015-10-25T06:58:46Z</time>
      </trkpt>
      <trkpt lat="43.71569" lon="3.46394">
        <ele>435</ele>
        <time>2015-10-25T06:58:47Z</time>
      </trkpt>
      <trkpt lat="43.71571" lon="3.46392">
        <ele>435</ele>
        <time>2015-10-25T06:58:48Z</time>
      </trkpt>
      <trkpt lat="43.71573" lon="3.4639">
        <ele>435</ele>
        <time>2015-10-25T06:58:49Z</time>
      </trkpt>
      <trkpt lat="43.71574" lon="3.46388">
        <ele>435</ele>
        <time>2015-10-25T06:58:50Z</time>
      </trkpt>
      <trkpt lat="43.71576" lon="3.46387">
        <ele>435.5</ele>
        <time>2015-10-25T06:58:51Z</time>
      </trkpt>
      <trkpt lat="43.71577" lon="3.46385">
        <ele>435.5</ele>
        <time>2015-10-25T06:58:52Z</time>
      </trkpt>
      <trkpt lat="43.71579" lon="3.46384">
        <ele>436</ele>
        <time>2015-10-25T06:58:53Z</time>
      </trkpt>
      <trkpt lat="43.71581" lon="3.46381">
        <ele>436</ele>
        <time>2015-10-25T06:58:54Z</time>
      </trkpt>
      <trkpt lat="43.71582" lon="3.46379">
        <ele>436</ele>
        <time>2015-10-25T06:58:55Z</time>
      </trkpt>
      <trkpt lat="43.71584" lon="3.46377">
        <ele>435.5</ele>
        <time>2015-10-25T06:58:56Z</time>
      </trkpt>
      <trkpt lat="43.71586" lon="3.46374">
        <ele>435.5</ele>
        <time>2015-10-25T06:58:57Z</time>
      </trkpt>
      <trkpt lat="43.71588" lon="3.46372">
        <ele>435.5</ele>
        <time>2015-10-25T06:58:58Z</time>
      </trkpt>
      <trkpt lat="43.71589" lon="3.4637">
        <ele>435.5</ele>
        <time>2015-10-25T06:58:59Z</time>
      </trkpt>
      <trkpt lat="43.71591" lon="3.46367">
        <ele>435.5</ele>
        <time>2015-10-25T06:59:00Z</time>
      </trkpt>
      <trkpt lat="43.71593" lon="3.46365">
        <ele>435</ele>
        <time>2015-10-25T06:59:01Z</time>
      </trkpt>
      <trkpt lat="43.71594" lon="3.46362">
        <ele>434.5</ele>
        <time>2015-10-25T06:59:02Z</time>
      </trkpt>
      <trkpt lat="43.71596" lon="3.4636">
        <ele>434.5</ele>
        <time>2015-10-25T06:59:03Z</time>
      </trkpt>
      <trkpt lat="43.71597" lon="3.46357">
        <ele>434.5</ele>
        <time>2015-10-25T06:59:04Z</time>
      </trkpt>
      <trkpt lat="43.71598" lon="3.46354">
        <ele>434.5</ele>
        <time>2015-10-25T06:59:05Z</time>
      </trkpt>
      <trkpt lat="43.71599" lon="3.46352">
        <ele>435</ele>
        <time>2015-10-25T06:59:06Z</time>
      </trkpt>
      <trkpt lat="43.716" lon="3.46349">
        <ele>434.5</ele>
        <time>2015-10-25T06:59:07Z</time>
      </trkpt>
      <trkpt lat="43.71602" lon="3.46347">
        <ele>434.5</ele>
        <time>2015-10-25T06:59:08Z</time>
      </trkpt>
      <trkpt lat="43.71602" lon="3.46345">
        <ele>436.5</ele>
        <time>2015-10-25T06:59:09Z</time>
      </trkpt>
      <trkpt lat="43.71603" lon="3.46344">
        <ele>436.5</ele>
        <time>2015-10-25T06:59:10Z</time>
      </trkpt>
      <trkpt lat="43.71604" lon="3.4634">
        <ele>437.5</ele>
        <time>2015-10-25T06:59:11Z</time>
      </trkpt>
      <trkpt lat="43.71605" lon="3.46337">
        <ele>437</ele>
        <time>2015-10-25T06:59:12Z</time>
      </trkpt>
      <trkpt lat="43.71606" lon="3.46334">
        <ele>437.5</ele>
        <time>2015-10-25T06:59:13Z</time>
      </trkpt>
      <trkpt lat="43.71608" lon="3.46331">
        <ele>437.5</ele>
        <time>2015-10-25T06:59:14Z</time>
      </trkpt>
      <trkpt lat="43.71609" lon="3.46328">
        <ele>438</ele>
        <time>2015-10-25T06:59:15Z</time>
      </trkpt>
      <trkpt lat="43.7161" lon="3.46325">
        <ele>438</ele>
        <time>2015-10-25T06:59:16Z</time>
      </trkpt>
      <trkpt lat="43.71612" lon="3.46322">
        <ele>438.5</ele>
        <time>2015-10-25T06:59:17Z</time>
      </trkpt>
      <trkpt lat="43.71613" lon="3.46319">
        <ele>438.5</ele>
        <time>2015-10-25T06:59:18Z</time>
      </trkpt>
      <trkpt lat="43.71615" lon="3.46316">
        <ele>438.5</ele>
        <time>2015-10-25T06:59:19Z</time>
      </trkpt>
      <trkpt lat="43.71617" lon="3.46313">
        <ele>438.5</ele>
        <time>2015-10-25T06:59:20Z</time>
      </trkpt>
      <trkpt lat="43.71618" lon="3.46311">
        <ele>438</ele>
        <time>2015-10-25T06:59:21Z</time>
      </trkpt>
      <trkpt lat="43.71619" lon="3.46308">
        <ele>440</ele>
        <time>2015-10-25T06:59:22Z</time>
      </trkpt>
      <trkpt lat="43.71621" lon="3.46305">
        <ele>440</ele>
        <time>2015-10-25T06:59:23Z</time>
      </trkpt>
      <trkpt lat="43.71623" lon="3.46301">
        <ele>440</ele>
        <time>2015-10-25T06:59:24Z</time>
      </trkpt>
      <trkpt lat="43.71624" lon="3.46298">
        <ele>440.5</ele>
        <time>2015-10-25T06:59:25Z</time>
      </trkpt>
      <trkpt lat="43.71625" lon="3.46295">
        <ele>440</ele>
        <time>2015-10-25T06:59:26Z</time>
      </trkpt>
      <trkpt lat="43.71627" lon="3.46292">
        <ele>439.5</ele>
        <time>2015-10-25T06:59:27Z</time>
      </trkpt>
      <trkpt lat="43.71628" lon="3.46289">
        <ele>439.5</ele>
        <time>2015-10-25T06:59:28Z</time>
      </trkpt>
      <trkpt lat="43.71629" lon="3.46286">
        <ele>439</ele>
        <time>2015-10-25T06:59:29Z</time>
      </trkpt>
      <trkpt lat="43.7163" lon="3.46283">
        <ele>439</ele>
        <time>2015-10-25T06:59:30Z</time>
      </trkpt>
      <trkpt lat="43.71632" lon="3.4628">
        <ele>438.5</ele>
        <time>2015-10-25T06:59:31Z</time>
      </trkpt>
      <trkpt lat="43.71633" lon="3.46277">
        <ele>438.5</ele>
        <time>2015-10-25T06:59:32Z</time>
      </trkpt>
      <trkpt lat="43.71634" lon="3.46274">
        <ele>438.5</ele>
        <time>2015-10-25T06:59:33Z</time>
      </trkpt>
      <trkpt lat="43.71634" lon="3.46271">
        <ele>438.5</ele>
        <time>2015-10-25T06:59:34Z</time>
      </trkpt>
      <trkpt lat="43.71635" lon="3.46269">
        <ele>438.5</ele>
        <time>2015-10-25T06:59:35Z</time>
      </trkpt>
      <trkpt lat="43.71636" lon="3.46266">
        <ele>438</ele>
        <time>2015-10-25T06:59:36Z</time>
      </trkpt>
      <trkpt lat="43.71637" lon="3.46263">
        <ele>437.5</ele>
        <time>2015-10-25T06:59:37Z</time>
      </trkpt>
      <trkpt lat="43.71638" lon="3.46259">
        <ele>438.5</ele>
        <time>2015-10-25T06:59:38Z</time>
      </trkpt>
      <trkpt lat="43.71639" lon="3.46256">
        <ele>438</ele>
        <time>2015-10-25T06:59:39Z</time>
      </trkpt>
      <trkpt lat="43.7164" lon="3.46253">
        <ele>438</ele>
        <time>2015-10-25T06:59:40Z</time>
      </trkpt>
      <trkpt lat="43.71639" lon="3.46252">
        <ele>437.5</ele>
        <time>2015-10-25T06:59:41Z</time>
      </trkpt>
      <trkpt lat="43.71639" lon="3.46249">
        <ele>437.5</ele>
        <time>2015-10-25T06:59:41Z</time>
      </trkpt>
      <trkpt lat="43.7164" lon="3.46245">
        <ele>437</ele>
        <time>2015-10-25T06:59:42Z</time>
      </trkpt>
      <trkpt lat="43.7164" lon="3.46243">
        <ele>437</ele>
        <time>2015-10-25T06:59:43Z</time>
      </trkpt>
      <trkpt lat="43.7164" lon="3.4624">
        <ele>437.5</ele>
        <time>2015-10-25T06:59:44Z</time>
      </trkpt>
      <trkpt lat="43.71641" lon="3.46236">
        <ele>437.5</ele>
        <time>2015-10-25T06:59:45Z</time>
      </trkpt>
      <trkpt lat="43.71642" lon="3.46232">
        <ele>437</ele>
        <time>2015-10-25T06:59:46Z</time>
      </trkpt>
      <trkpt lat="43.71641" lon="3.46229">
        <ele>437</ele>
        <time>2015-10-25T06:59:47Z</time>
      </trkpt>
      <trkpt lat="43.71641" lon="3.46226">
        <ele>437</ele>
        <time>2015-10-25T06:59:48Z</time>
      </trkpt>
      <trkpt lat="43.71642" lon="3.46222">
        <ele>437</ele>
        <time>2015-10-25T06:59:49Z</time>
      </trkpt>
      <trkpt lat="43.71643" lon="3.46218">
        <ele>437.5</ele>
        <time>2015-10-25T06:59:50Z</time>
      </trkpt>
      <trkpt lat="43.71643" lon="3.46215">
        <ele>437.5</ele>
        <time>2015-10-25T06:59:51Z</time>
      </trkpt>
      <trkpt lat="43.71643" lon="3.46212">
        <ele>437.5</ele>
        <time>2015-10-25T06:59:52Z</time>
      </trkpt>
      <trkpt lat="43.71644" lon="3.46209">
        <ele>438</ele>
        <time>2015-10-25T06:59:53Z</time>
      </trkpt>
      <trkpt lat="43.71646" lon="3.46207">
        <ele>439.5</ele>
        <time>2015-10-25T06:59:54Z</time>
      </trkpt>
      <trkpt lat="43.71647" lon="3.46205">
        <ele>439.5</ele>
        <time>2015-10-25T06:59:55Z</time>
      </trkpt>
      <trkpt lat="43.71648" lon="3.46202">
        <ele>439.5</ele>
        <time>2015-10-25T06:59:56Z</time>
      </trkpt>
      <trkpt lat="43.71649" lon="3.46199">
        <ele>439.5</ele>
        <time>2015-10-25T06:59:57Z</time>
      </trkpt>
      <trkpt lat="43.71649" lon="3.46195">
        <ele>439.5</ele>
        <time>2015-10-25T06:59:58Z</time>
      </trkpt>
      <trkpt lat="43.7165" lon="3.46192">
        <ele>439.5</ele>
        <time>2015-10-25T06:59:59Z</time>
      </trkpt>
      <trkpt lat="43.71651" lon="3.4619">
        <ele>439.5</ele>
        <time>2015-10-25T07:00:00Z</time>
      </trkpt>
      <trkpt lat="43.71653" lon="3.46186">
        <ele>439</ele>
        <time>2015-10-25T07:00:01Z</time>
      </trkpt>
      <trkpt lat="43.71654" lon="3.46183">
        <ele>438</ele>
        <time>2015-10-25T07:00:02Z</time>
      </trkpt>
      <trkpt lat="43.71655" lon="3.4618">
        <ele>437.5</ele>
        <time>2015-10-25T07:00:03Z</time>
      </trkpt>
      <trkpt lat="43.71657" lon="3.46177">
        <ele>437.5</ele>
        <time>2015-10-25T07:00:04Z</time>
      </trkpt>
      <trkpt lat="43.71658" lon="3.46174">
        <ele>437</ele>
        <time>2015-10-25T07:00:05Z</time>
      </trkpt>
      <trkpt lat="43.7166" lon="3.4617">
        <ele>436.5</ele>
        <time>2015-10-25T07:00:06Z</time>
      </trkpt>
      <trkpt lat="43.71661" lon="3.46167">
        <ele>437.5</ele>
        <time>2015-10-25T07:00:07Z</time>
      </trkpt>
      <trkpt lat="43.71664" lon="3.46164">
        <ele>438.5</ele>
        <time>2015-10-25T07:00:08Z</time>
      </trkpt>
      <trkpt lat="43.71666" lon="3.46161">
        <ele>439.5</ele>
        <time>2015-10-25T07:00:09Z</time>
      </trkpt>
      <trkpt lat="43.71669" lon="3.46157">
        <ele>441</ele>
        <time>2015-10-25T07:00:10Z</time>
      </trkpt>
      <trkpt lat="43.71671" lon="3.46154">
        <ele>441</ele>
        <time>2015-10-25T07:00:11Z</time>
      </trkpt>
      <trkpt lat="43.71674" lon="3.46151">
        <ele>441.5</ele>
        <time>2015-10-25T07:00:12Z</time>
      </trkpt>
      <trkpt lat="43.71674" lon="3.46146">
        <ele>442</ele>
        <time>2015-10-25T07:00:13Z</time>
      </trkpt>
      <trkpt lat="43.71676" lon="3.46143">
        <ele>442.5</ele>
        <time>2015-10-25T07:00:14Z</time>
      </trkpt>
      <trkpt lat="43.71677" lon="3.4614">
        <ele>442.5</ele>
        <time>2015-10-25T07:00:15Z</time>
      </trkpt>
      <trkpt lat="43.71679" lon="3.46137">
        <ele>442.5</ele>
        <time>2015-10-25T07:00:16Z</time>
      </trkpt>
      <trkpt lat="43.7168" lon="3.46134">
        <ele>442.5</ele>
        <time>2015-10-25T07:00:17Z</time>
      </trkpt>
      <trkpt lat="43.71682" lon="3.46132">
        <ele>443</ele>
        <time>2015-10-25T07:00:18Z</time>
      </trkpt>
      <trkpt lat="43.71683" lon="3.46128">
        <ele>443.5</ele>
        <time>2015-10-25T07:00:19Z</time>
      </trkpt>
      <trkpt lat="43.71684" lon="3.46125">
        <ele>443.5</ele>
        <time>2015-10-25T07:00:20Z</time>
      </trkpt>
      <trkpt lat="43.71685" lon="3.46122">
        <ele>443</ele>
        <time>2015-10-25T07:00:21Z</time>
      </trkpt>
      <trkpt lat="43.71688" lon="3.4612">
        <ele>442.5</ele>
        <time>2015-10-25T07:00:22Z</time>
      </trkpt>
      <trkpt lat="43.7169" lon="3.46118">
        <ele>442.5</ele>
        <time>2015-10-25T07:00:23Z</time>
      </trkpt>
      <trkpt lat="43.71691" lon="3.46113">
        <ele>441.5</ele>
        <time>2015-10-25T07:00:24Z</time>
      </trkpt>
      <trkpt lat="43.71693" lon="3.46111">
        <ele>442.5</ele>
        <time>2015-10-25T07:00:25Z</time>
      </trkpt>
      <trkpt lat="43.71693" lon="3.46108">
        <ele>442.5</ele>
        <time>2015-10-25T07:00:26Z</time>
      </trkpt>
      <trkpt lat="43.71694" lon="3.46103">
        <ele>441.5</ele>
        <time>2015-10-25T07:00:27Z</time>
      </trkpt>
      <trkpt lat="43.71695" lon="3.461">
        <ele>441</ele>
        <time>2015-10-25T07:00:28Z</time>
      </trkpt>
      <trkpt lat="43.71698" lon="3.46099">
        <ele>441</ele>
        <time>2015-10-25T07:00:29Z</time>
      </trkpt>
      <trkpt lat="43.71698" lon="3.46098">
        <ele>440.5</ele>
        <time>2015-10-25T07:00:30Z</time>
      </trkpt>
      <trkpt lat="43.71699" lon="3.46094">
        <ele>440.5</ele>
        <time>2015-10-25T07:00:31Z</time>
      </trkpt>
      <trkpt lat="43.717" lon="3.46092">
        <ele>440</ele>
        <time>2015-10-25T07:00:32Z</time>
      </trkpt>
      <trkpt lat="43.71701" lon="3.46089">
        <ele>440</ele>
        <time>2015-10-25T07:00:33Z</time>
      </trkpt>
      <trkpt lat="43.71701" lon="3.46086">
        <ele>440</ele>
        <time>2015-10-25T07:00:34Z</time>
      </trkpt>
      <trkpt lat="43.71703" lon="3.46083">
        <ele>441</ele>
        <time>2015-10-25T07:00:35Z</time>
      </trkpt>
      <trkpt lat="43.71704" lon="3.4608">
        <ele>441</ele>
        <time>2015-10-25T07:00:36Z</time>
      </trkpt>
      <trkpt lat="43.71705" lon="3.46076">
        <ele>441</ele>
        <time>2015-10-25T07:00:37Z</time>
      </trkpt>
      <trkpt lat="43.71705" lon="3.46074">
        <ele>441</ele>
        <time>2015-10-25T07:00:38Z</time>
      </trkpt>
      <trkpt lat="43.71705" lon="3.46071">
        <ele>441.5</ele>
        <time>2015-10-25T07:00:39Z</time>
      </trkpt>
      <trkpt lat="43.71706" lon="3.46068">
        <ele>441.5</ele>
        <time>2015-10-25T07:00:40Z</time>
      </trkpt>
      <trkpt lat="43.71705" lon="3.46065">
        <ele>441</ele>
        <time>2015-10-25T07:00:41Z</time>
      </trkpt>
      <trkpt lat="43.71706" lon="3.46062">
        <ele>440.5</ele>
        <time>2015-10-25T07:00:42Z</time>
      </trkpt>
      <trkpt lat="43.71707" lon="3.46059">
        <ele>440.5</ele>
        <time>2015-10-25T07:00:43Z</time>
      </trkpt>
      <trkpt lat="43.71708" lon="3.46056">
        <ele>440</ele>
        <time>2015-10-25T07:00:44Z</time>
      </trkpt>
      <trkpt lat="43.71709" lon="3.46052">
        <ele>438</ele>
        <time>2015-10-25T07:00:45Z</time>
      </trkpt>
      <trkpt lat="43.71711" lon="3.46049">
        <ele>437.5</ele>
        <time>2015-10-25T07:00:46Z</time>
      </trkpt>
      <trkpt lat="43.71714" lon="3.46048">
        <ele>438</ele>
        <time>2015-10-25T07:00:47Z</time>
      </trkpt>
      <trkpt lat="43.71715" lon="3.46044">
        <ele>437.5</ele>
        <time>2015-10-25T07:00:48Z</time>
      </trkpt>
      <trkpt lat="43.71716" lon="3.4604">
        <ele>437.5</ele>
        <time>2015-10-25T07:00:49Z</time>
      </trkpt>
      <trkpt lat="43.71717" lon="3.46037">
        <ele>437.5</ele>
        <time>2015-10-25T07:00:50Z</time>
      </trkpt>
      <trkpt lat="43.71721" lon="3.46037">
        <ele>437</ele>
        <time>2015-10-25T07:00:51Z</time>
      </trkpt>
      <trkpt lat="43.71724" lon="3.46036">
        <ele>437</ele>
        <time>2015-10-25T07:00:52Z</time>
      </trkpt>
      <trkpt lat="43.71728" lon="3.46034">
        <ele>436</ele>
        <time>2015-10-25T07:00:53Z</time>
      </trkpt>
      <trkpt lat="43.7173" lon="3.46032">
        <ele>435.5</ele>
        <time>2015-10-25T07:00:54Z</time>
      </trkpt>
      <trkpt lat="43.71733" lon="3.46029">
        <ele>434.5</ele>
        <time>2015-10-25T07:00:55Z</time>
      </trkpt>
      <trkpt lat="43.71735" lon="3.46026">
        <ele>434.5</ele>
        <time>2015-10-25T07:00:56Z</time>
      </trkpt>
      <trkpt lat="43.71736" lon="3.46023">
        <ele>434.5</ele>
        <time>2015-10-25T07:00:57Z</time>
      </trkpt>
      <trkpt lat="43.71739" lon="3.46021">
        <ele>434</ele>
        <time>2015-10-25T07:00:58Z</time>
      </trkpt>
      <trkpt lat="43.71741" lon="3.46018">
        <ele>434</ele>
        <time>2015-10-25T07:00:59Z</time>
      </trkpt>
      <trkpt lat="43.71744" lon="3.46015">
        <ele>433.5</ele>
        <time>2015-10-25T07:01:00Z</time>
      </trkpt>
      <trkpt lat="43.71748" lon="3.46012">
        <ele>434.5</ele>
        <time>2015-10-25T07:01:01Z</time>
      </trkpt>
      <trkpt lat="43.71751" lon="3.46008">
        <ele>436</ele>
        <time>2015-10-25T07:01:02Z</time>
      </trkpt>
      <trkpt lat="43.71752" lon="3.46002">
        <ele>437.5</ele>
        <time>2015-10-25T07:01:03Z</time>
      </trkpt>
      <trkpt lat="43.71753" lon="3.45996">
        <ele>437.5</ele>
        <time>2015-10-25T07:01:04Z</time>
      </trkpt>
      <trkpt lat="43.71755" lon="3.45992">
        <ele>439.5</ele>
        <time>2015-10-25T07:01:05Z</time>
      </trkpt>
      <trkpt lat="43.71758" lon="3.45988">
        <ele>440</ele>
        <time>2015-10-25T07:01:06Z</time>
      </trkpt>
      <trkpt lat="43.7176" lon="3.45984">
        <ele>440.5</ele>
        <time>2015-10-25T07:01:07Z</time>
      </trkpt>
      <trkpt lat="43.71759" lon="3.45979">
        <ele>441.5</ele>
        <time>2015-10-25T07:01:08Z</time>
      </trkpt>
      <trkpt lat="43.71761" lon="3.45975">
        <ele>443</ele>
        <time>2015-10-25T07:01:09Z</time>
      </trkpt>
      <trkpt lat="43.71763" lon="3.45973">
        <ele>443</ele>
        <time>2015-10-25T07:01:10Z</time>
      </trkpt>
      <trkpt lat="43.71764" lon="3.45969">
        <ele>442.5</ele>
        <time>2015-10-25T07:01:11Z</time>
      </trkpt>
      <trkpt lat="43.71768" lon="3.4596">
        <ele>443</ele>
        <time>2015-10-25T07:01:13Z</time>
      </trkpt>
      <trkpt lat="43.7177" lon="3.45957">
        <ele>443</ele>
        <time>2015-10-25T07:01:14Z</time>
      </trkpt>
      <trkpt lat="43.71773" lon="3.45954">
        <ele>443</ele>
        <time>2015-10-25T07:01:15Z</time>
      </trkpt>
      <trkpt lat="43.71775" lon="3.45952">
        <ele>443</ele>
        <time>2015-10-25T07:01:16Z</time>
      </trkpt>
      <trkpt lat="43.71779" lon="3.45951">
        <ele>443</ele>
        <time>2015-10-25T07:01:17Z</time>
      </trkpt>
      <trkpt lat="43.71782" lon="3.45951">
        <ele>442.5</ele>
        <time>2015-10-25T07:01:18Z</time>
      </trkpt>
      <trkpt lat="43.71785" lon="3.4595">
        <ele>443.5</ele>
        <time>2015-10-25T07:01:19Z</time>
      </trkpt>
      <trkpt lat="43.71789" lon="3.4595">
        <ele>443</ele>
        <time>2015-10-25T07:01:20Z</time>
      </trkpt>
      <trkpt lat="43.71792" lon="3.45949">
        <ele>443</ele>
        <time>2015-10-25T07:01:21Z</time>
      </trkpt>
      <trkpt lat="43.71795" lon="3.45948">
        <ele>442.5</ele>
        <time>2015-10-25T07:01:22Z</time>
      </trkpt>
      <trkpt lat="43.71799" lon="3.45946">
        <ele>442</ele>
        <time>2015-10-25T07:01:23Z</time>
      </trkpt>
      <trkpt lat="43.71802" lon="3.45944">
        <ele>442</ele>
        <time>2015-10-25T07:01:24Z</time>
      </trkpt>
      <trkpt lat="43.71805" lon="3.45942">
        <ele>441</ele>
        <time>2015-10-25T07:01:25Z</time>
      </trkpt>
      <trkpt lat="43.71808" lon="3.45939">
        <ele>440</ele>
        <time>2015-10-25T07:01:26Z</time>
      </trkpt>
      <trkpt lat="43.71811" lon="3.45936">
        <ele>440.5</ele>
        <time>2015-10-25T07:01:27Z</time>
      </trkpt>
      <trkpt lat="43.71815" lon="3.45935">
        <ele>440.5</ele>
        <time>2015-10-25T07:01:28Z</time>
      </trkpt>
      <trkpt lat="43.71817" lon="3.45935">
        <ele>440.5</ele>
        <time>2015-10-25T07:01:29Z</time>
      </trkpt>
      <trkpt lat="43.7182" lon="3.45933">
        <ele>440</ele>
        <time>2015-10-25T07:01:30Z</time>
      </trkpt>
      <trkpt lat="43.71823" lon="3.45932">
        <ele>439.5</ele>
        <time>2015-10-25T07:01:31Z</time>
      </trkpt>
      <trkpt lat="43.71826" lon="3.4593">
        <ele>439</ele>
        <time>2015-10-25T07:01:32Z</time>
      </trkpt>
      <trkpt lat="43.71829" lon="3.45928">
        <ele>439</ele>
        <time>2015-10-25T07:01:33Z</time>
      </trkpt>
      <trkpt lat="43.71831" lon="3.45927">
        <ele>439</ele>
        <time>2015-10-25T07:01:34Z</time>
      </trkpt>
      <trkpt lat="43.71834" lon="3.45925">
        <ele>438.5</ele>
        <time>2015-10-25T07:01:35Z</time>
      </trkpt>
      <trkpt lat="43.71837" lon="3.45923">
        <ele>438.5</ele>
        <time>2015-10-25T07:01:36Z</time>
      </trkpt>
      <trkpt lat="43.7184" lon="3.45921">
        <ele>437.5</ele>
        <time>2015-10-25T07:01:37Z</time>
      </trkpt>
      <trkpt lat="43.71843" lon="3.45919">
        <ele>437.5</ele>
        <time>2015-10-25T07:01:38Z</time>
      </trkpt>
      <trkpt lat="43.71845" lon="3.45917">
        <ele>437.5</ele>
        <time>2015-10-25T07:01:39Z</time>
      </trkpt>
      <trkpt lat="43.71848" lon="3.45914">
        <ele>437.5</ele>
        <time>2015-10-25T07:01:40Z</time>
      </trkpt>
      <trkpt lat="43.7185" lon="3.45911">
        <ele>437.5</ele>
        <time>2015-10-25T07:01:41Z</time>
      </trkpt>
      <trkpt lat="43.71852" lon="3.45908">
        <ele>437.5</ele>
        <time>2015-10-25T07:01:42Z</time>
      </trkpt>
      <trkpt lat="43.71854" lon="3.45905">
        <ele>437.5</ele>
        <time>2015-10-25T07:01:43Z</time>
      </trkpt>
      <trkpt lat="43.71857" lon="3.45901">
        <ele>437.5</ele>
        <time>2015-10-25T07:01:44Z</time>
      </trkpt>
      <trkpt lat="43.7186" lon="3.45898">
        <ele>437</ele>
        <time>2015-10-25T07:01:45Z</time>
      </trkpt>
      <trkpt lat="43.71863" lon="3.45895">
        <ele>437</ele>
        <time>2015-10-25T07:01:46Z</time>
      </trkpt>
      <trkpt lat="43.71866" lon="3.45893">
        <ele>437</ele>
        <time>2015-10-25T07:01:47Z</time>
      </trkpt>
      <trkpt lat="43.71869" lon="3.45891">
        <ele>437</ele>
        <time>2015-10-25T07:01:48Z</time>
      </trkpt>
      <trkpt lat="43.71872" lon="3.45889">
        <ele>436.5</ele>
        <time>2015-10-25T07:01:49Z</time>
      </trkpt>
      <trkpt lat="43.71876" lon="3.45888">
        <ele>436.5</ele>
        <time>2015-10-25T07:01:50Z</time>
      </trkpt>
      <trkpt lat="43.71879" lon="3.45886">
        <ele>436.5</ele>
        <time>2015-10-25T07:01:51Z</time>
      </trkpt>
      <trkpt lat="43.71883" lon="3.45885">
        <ele>437</ele>
        <time>2015-10-25T07:01:52Z</time>
      </trkpt>
      <trkpt lat="43.71886" lon="3.45883">
        <ele>437.5</ele>
        <time>2015-10-25T07:01:53Z</time>
      </trkpt>
      <trkpt lat="43.71889" lon="3.45881">
        <ele>437.5</ele>
        <time>2015-10-25T07:01:54Z</time>
      </trkpt>
      <trkpt lat="43.71892" lon="3.45879">
        <ele>437.5</ele>
        <time>2015-10-25T07:01:55Z</time>
      </trkpt>
      <trkpt lat="43.71896" lon="3.45877">
        <ele>437.5</ele>
        <time>2015-10-25T07:01:56Z</time>
      </trkpt>
      <trkpt lat="43.71899" lon="3.45875">
        <ele>438</ele>
        <time>2015-10-25T07:01:57Z</time>
      </trkpt>
      <trkpt lat="43.71902" lon="3.45872">
        <ele>438</ele>
        <time>2015-10-25T07:01:58Z</time>
      </trkpt>
      <trkpt lat="43.71906" lon="3.45871">
        <ele>438.5</ele>
        <time>2015-10-25T07:01:59Z</time>
      </trkpt>
      <trkpt lat="43.71909" lon="3.45869">
        <ele>438.5</ele>
        <time>2015-10-25T07:02:00Z</time>
      </trkpt>
      <trkpt lat="43.71913" lon="3.45867">
        <ele>439</ele>
        <time>2015-10-25T07:02:01Z</time>
      </trkpt>
      <trkpt lat="43.71916" lon="3.45868">
        <ele>439.5</ele>
        <time>2015-10-25T07:02:02Z</time>
      </trkpt>
      <trkpt lat="43.7192" lon="3.45867">
        <ele>439.5</ele>
        <time>2015-10-25T07:02:03Z</time>
      </trkpt>
      <trkpt lat="43.71923" lon="3.45868">
        <ele>439.5</ele>
        <time>2015-10-25T07:02:04Z</time>
      </trkpt>
      <trkpt lat="43.71927" lon="3.45865">
        <ele>439.5</ele>
        <time>2015-10-25T07:02:05Z</time>
      </trkpt>
      <trkpt lat="43.71931" lon="3.45865">
        <ele>439.5</ele>
        <time>2015-10-25T07:02:06Z</time>
      </trkpt>
      <trkpt lat="43.71934" lon="3.45867">
        <ele>439.5</ele>
        <time>2015-10-25T07:02:07Z</time>
      </trkpt>
      <trkpt lat="43.71937" lon="3.4587">
        <ele>439.5</ele>
        <time>2015-10-25T07:02:08Z</time>
      </trkpt>
      <trkpt lat="43.7194" lon="3.45873">
        <ele>439.5</ele>
        <time>2015-10-25T07:02:09Z</time>
      </trkpt>
      <trkpt lat="43.71943" lon="3.45876">
        <ele>439.5</ele>
        <time>2015-10-25T07:02:10Z</time>
      </trkpt>
      <trkpt lat="43.71945" lon="3.45879">
        <ele>439.5</ele>
        <time>2015-10-25T07:02:11Z</time>
      </trkpt>
      <trkpt lat="43.71948" lon="3.45882">
        <ele>439.5</ele>
        <time>2015-10-25T07:02:12Z</time>
      </trkpt>
      <trkpt lat="43.71951" lon="3.45884">
        <ele>439.5</ele>
        <time>2015-10-25T07:02:13Z</time>
      </trkpt>
      <trkpt lat="43.71954" lon="3.45885">
        <ele>439</ele>
        <time>2015-10-25T07:02:14Z</time>
      </trkpt>
      <trkpt lat="43.71957" lon="3.45887">
        <ele>439</ele>
        <time>2015-10-25T07:02:15Z</time>
      </trkpt>
      <trkpt lat="43.7196" lon="3.45891">
        <ele>439</ele>
        <time>2015-10-25T07:02:16Z</time>
      </trkpt>
      <trkpt lat="43.71963" lon="3.45893">
        <ele>439</ele>
        <time>2015-10-25T07:02:17Z</time>
      </trkpt>
      <trkpt lat="43.71966" lon="3.45894">
        <ele>439.5</ele>
        <time>2015-10-25T07:02:18Z</time>
      </trkpt>
      <trkpt lat="43.71969" lon="3.45895">
        <ele>439</ele>
        <time>2015-10-25T07:02:19Z</time>
      </trkpt>
      <trkpt lat="43.71972" lon="3.45899">
        <ele>439</ele>
        <time>2015-10-25T07:02:20Z</time>
      </trkpt>
      <trkpt lat="43.71975" lon="3.45901">
        <ele>439</ele>
        <time>2015-10-25T07:02:21Z</time>
      </trkpt>
      <trkpt lat="43.71978" lon="3.45904">
        <ele>439</ele>
        <time>2015-10-25T07:02:22Z</time>
      </trkpt>
      <trkpt lat="43.71981" lon="3.45905">
        <ele>438.5</ele>
        <time>2015-10-25T07:02:23Z</time>
      </trkpt>
      <trkpt lat="43.71984" lon="3.45908">
        <ele>438.5</ele>
        <time>2015-10-25T07:02:24Z</time>
      </trkpt>
      <trkpt lat="43.71986" lon="3.45911">
        <ele>439.5</ele>
        <time>2015-10-25T07:02:25Z</time>
      </trkpt>
      <trkpt lat="43.71989" lon="3.45914">
        <ele>440</ele>
        <time>2015-10-25T07:02:26Z</time>
      </trkpt>
      <trkpt lat="43.71992" lon="3.45918">
        <ele>439.5</ele>
        <time>2015-10-25T07:02:27Z</time>
      </trkpt>
      <trkpt lat="43.71995" lon="3.45922">
        <ele>439</ele>
        <time>2015-10-25T07:02:28Z</time>
      </trkpt>
      <trkpt lat="43.71997" lon="3.45925">
        <ele>439.5</ele>
        <time>2015-10-25T07:02:29Z</time>
      </trkpt>
      <trkpt lat="43.72" lon="3.45929">
        <ele>439.5</ele>
        <time>2015-10-25T07:02:30Z</time>
      </trkpt>
      <trkpt lat="43.72002" lon="3.45933">
        <ele>440</ele>
        <time>2015-10-25T07:02:31Z</time>
      </trkpt>
      <trkpt lat="43.72004" lon="3.45938">
        <ele>440</ele>
        <time>2015-10-25T07:02:32Z</time>
      </trkpt>
      <trkpt lat="43.72007" lon="3.45943">
        <ele>439.5</ele>
        <time>2015-10-25T07:02:33Z</time>
      </trkpt>
      <trkpt lat="43.72009" lon="3.45946">
        <ele>439.5</ele>
        <time>2015-10-25T07:02:34Z</time>
      </trkpt>
      <trkpt lat="43.72012" lon="3.4595">
        <ele>440</ele>
        <time>2015-10-25T07:02:35Z</time>
      </trkpt>
      <trkpt lat="43.72015" lon="3.45953">
        <ele>440.5</ele>
        <time>2015-10-25T07:02:36Z</time>
      </trkpt>
      <trkpt lat="43.72018" lon="3.45955">
        <ele>438.5</ele>
        <time>2015-10-25T07:02:37Z</time>
      </trkpt>
      <trkpt lat="43.72021" lon="3.45956">
        <ele>438.5</ele>
        <time>2015-10-25T07:02:38Z</time>
      </trkpt>
      <trkpt lat="43.72024" lon="3.45954">
        <ele>438.5</ele>
        <time>2015-10-25T07:02:39Z</time>
      </trkpt>
      <trkpt lat="43.72027" lon="3.45954">
        <ele>438.5</ele>
        <time>2015-10-25T07:02:40Z</time>
      </trkpt>
      <trkpt lat="43.72031" lon="3.45952">
        <ele>438</ele>
        <time>2015-10-25T07:02:41Z</time>
      </trkpt>
      <trkpt lat="43.72035" lon="3.45952">
        <ele>438</ele>
        <time>2015-10-25T07:02:42Z</time>
      </trkpt>
      <trkpt lat="43.7204" lon="3.45949">
        <ele>438</ele>
        <time>2015-10-25T07:02:43Z</time>
      </trkpt>
      <trkpt lat="43.72045" lon="3.45947">
        <ele>438</ele>
        <time>2015-10-25T07:02:44Z</time>
      </trkpt>
      <trkpt lat="43.72048" lon="3.45945">
        <ele>438.5</ele>
        <time>2015-10-25T07:02:45Z</time>
      </trkpt>
      <trkpt lat="43.7206" lon="3.4593">
        <ele>438.5</ele>
        <time>2015-10-25T07:02:47Z</time>
      </trkpt>
      <trkpt lat="43.72067" lon="3.45924">
        <ele>437.5</ele>
        <time>2015-10-25T07:02:48Z</time>
      </trkpt>
      <trkpt lat="43.72074" lon="3.45917">
        <ele>436</ele>
        <time>2015-10-25T07:02:49Z</time>
      </trkpt>
      <trkpt lat="43.72082" lon="3.45911">
        <ele>435.5</ele>
        <time>2015-10-25T07:02:50Z</time>
      </trkpt>
      <trkpt lat="43.72089" lon="3.45904">
        <ele>435</ele>
        <time>2015-10-25T07:02:51Z</time>
      </trkpt>
      <trkpt lat="43.72096" lon="3.45899">
        <ele>435</ele>
        <time>2015-10-25T07:02:52Z</time>
      </trkpt>
      <trkpt lat="43.72104" lon="3.45894">
        <ele>434.5</ele>
        <time>2015-10-25T07:02:53Z</time>
      </trkpt>
      <trkpt lat="43.72112" lon="3.45889">
        <ele>434</ele>
        <time>2015-10-25T07:02:54Z</time>
      </trkpt>
      <trkpt lat="43.7212" lon="3.45887">
        <ele>434</ele>
        <time>2015-10-25T07:02:55Z</time>
      </trkpt>
      <trkpt lat="43.72129" lon="3.45886">
        <ele>434.5</ele>
        <time>2015-10-25T07:02:56Z</time>
      </trkpt>
      <trkpt lat="43.72137" lon="3.45883">
        <ele>434.5</ele>
        <time>2015-10-25T07:02:57Z</time>
      </trkpt>
      <trkpt lat="43.72145" lon="3.45878">
        <ele>434.5</ele>
        <time>2015-10-25T07:02:58Z</time>
      </trkpt>
      <trkpt lat="43.72152" lon="3.45874">
        <ele>434.5</ele>
        <time>2015-10-25T07:02:59Z</time>
      </trkpt>
      <trkpt lat="43.72159" lon="3.45869">
        <ele>434.5</ele>
        <time>2015-10-25T07:03:00Z</time>
      </trkpt>
      <trkpt lat="43.72167" lon="3.45863">
        <ele>434.5</ele>
        <time>2015-10-25T07:03:01Z</time>
      </trkpt>
      <trkpt lat="43.72174" lon="3.45855">
        <ele>434.5</ele>
        <time>2015-10-25T07:03:02Z</time>
      </trkpt>
      <trkpt lat="43.7218" lon="3.45847">
        <ele>434.5</ele>
        <time>2015-10-25T07:03:02Z</time>
      </trkpt>
      <trkpt lat="43.72189" lon="3.45841">
        <ele>434</ele>
        <time>2015-10-25T07:03:03Z</time>
      </trkpt>
      <trkpt lat="43.72197" lon="3.45837">
        <ele>434</ele>
        <time>2015-10-25T07:03:04Z</time>
      </trkpt>
      <trkpt lat="43.72202" lon="3.45828">
        <ele>433.5</ele>
        <time>2015-10-25T07:03:05Z</time>
      </trkpt>
      <trkpt lat="43.72208" lon="3.4582">
        <ele>433.5</ele>
        <time>2015-10-25T07:03:06Z</time>
      </trkpt>
      <trkpt lat="43.72258" lon="3.45824">
        <ele>434</ele>
        <time>2015-10-25T07:03:14Z</time>
      </trkpt>
      <trkpt lat="43.72267" lon="3.45822">
        <ele>434</ele>
        <time>2015-10-25T07:03:15Z</time>
      </trkpt>
      <trkpt lat="43.72275" lon="3.4582">
        <ele>434</ele>
        <time>2015-10-25T07:03:16Z</time>
      </trkpt>
      <trkpt lat="43.72283" lon="3.45818">
        <ele>433.5</ele>
        <time>2015-10-25T07:03:17Z</time>
      </trkpt>
      <trkpt lat="43.7229" lon="3.45815">
        <ele>433.5</ele>
        <time>2015-10-25T07:03:18Z</time>
      </trkpt>
      <trkpt lat="43.72297" lon="3.45813">
        <ele>433.5</ele>
        <time>2015-10-25T07:03:19Z</time>
      </trkpt>
      <trkpt lat="43.72303" lon="3.4581">
        <ele>433.5</ele>
        <time>2015-10-25T07:03:20Z</time>
      </trkpt>
      <trkpt lat="43.72308" lon="3.45808">
        <ele>433.5</ele>
        <time>2015-10-25T07:03:21Z</time>
      </trkpt>
      <trkpt lat="43.72314" lon="3.45807">
        <ele>434</ele>
        <time>2015-10-25T07:03:22Z</time>
      </trkpt>
      <trkpt lat="43.72319" lon="3.45806">
        <ele>434</ele>
        <time>2015-10-25T07:03:23Z</time>
      </trkpt>
      <trkpt lat="43.72325" lon="3.45805">
        <ele>434</ele>
        <time>2015-10-25T07:03:24Z</time>
      </trkpt>
      <trkpt lat="43.72332" lon="3.45804">
        <ele>434</ele>
        <time>2015-10-25T07:03:25Z</time>
      </trkpt>
      <trkpt lat="43.72338" lon="3.45803">
        <ele>433</ele>
        <time>2015-10-25T07:03:26Z</time>
      </trkpt>
      <trkpt lat="43.72345" lon="3.45801">
        <ele>431.5</ele>
        <time>2015-10-25T07:03:27Z</time>
      </trkpt>
      <trkpt lat="43.72352" lon="3.45796">
        <ele>431.5</ele>
        <time>2015-10-25T07:03:28Z</time>
      </trkpt>
      <trkpt lat="43.72358" lon="3.45789">
        <ele>431.5</ele>
        <time>2015-10-25T07:03:29Z</time>
      </trkpt>
      <trkpt lat="43.72364" lon="3.45783">
        <ele>431.5</ele>
        <time>2015-10-25T07:03:30Z</time>
      </trkpt>
      <trkpt lat="43.7237" lon="3.45776">
        <ele>431.5</ele>
        <time>2015-10-25T07:03:31Z</time>
      </trkpt>
      <trkpt lat="43.72376" lon="3.45771">
        <ele>429</ele>
        <time>2015-10-25T07:03:32Z</time>
      </trkpt>
      <trkpt lat="43.72386" lon="3.45764">
        <ele>427</ele>
        <time>2015-10-25T07:03:34Z</time>
      </trkpt>
      <trkpt lat="43.7239" lon="3.4576">
        <ele>425</ele>
        <time>2015-10-25T07:03:35Z</time>
      </trkpt>
      <trkpt lat="43.72393" lon="3.45756">
        <ele>426</ele>
        <time>2015-10-25T07:03:36Z</time>
      </trkpt>
      <trkpt lat="43.72393" lon="3.45747">
        <ele>425.5</ele>
        <time>2015-10-25T07:03:37Z</time>
      </trkpt>
      <trkpt lat="43.72394" lon="3.4574">
        <ele>424.5</ele>
        <time>2015-10-25T07:03:38Z</time>
      </trkpt>
      <trkpt lat="43.72395" lon="3.45733">
        <ele>423.5</ele>
        <time>2015-10-25T07:03:39Z</time>
      </trkpt>
      <trkpt lat="43.72396" lon="3.45726">
        <ele>423</ele>
        <time>2015-10-25T07:03:40Z</time>
      </trkpt>
      <trkpt lat="43.72398" lon="3.45717">
        <ele>422.5</ele>
        <time>2015-10-25T07:03:41Z</time>
      </trkpt>
      <trkpt lat="43.724" lon="3.45709">
        <ele>422.5</ele>
        <time>2015-10-25T07:03:42Z</time>
      </trkpt>
      <trkpt lat="43.72406" lon="3.45704">
        <ele>422.5</ele>
        <time>2015-10-25T07:03:43Z</time>
      </trkpt>
      <trkpt lat="43.7241" lon="3.45697">
        <ele>422.5</ele>
        <time>2015-10-25T07:03:44Z</time>
      </trkpt>
      <trkpt lat="43.72413" lon="3.45689">
        <ele>422</ele>
        <time>2015-10-25T07:03:45Z</time>
      </trkpt>
      <trkpt lat="43.72417" lon="3.45683">
        <ele>422</ele>
        <time>2015-10-25T07:03:46Z</time>
      </trkpt>
      <trkpt lat="43.72421" lon="3.45676">
        <ele>421.5</ele>
        <time>2015-10-25T07:03:47Z</time>
      </trkpt>
      <trkpt lat="43.72425" lon="3.45668">
        <ele>420.5</ele>
        <time>2015-10-25T07:03:48Z</time>
      </trkpt>
      <trkpt lat="43.72429" lon="3.45659">
        <ele>421</ele>
        <time>2015-10-25T07:03:49Z</time>
      </trkpt>
      <trkpt lat="43.72433" lon="3.45651">
        <ele>421.5</ele>
        <time>2015-10-25T07:03:50Z</time>
      </trkpt>
      <trkpt lat="43.72437" lon="3.45644">
        <ele>421</ele>
        <time>2015-10-25T07:03:51Z</time>
      </trkpt>
      <trkpt lat="43.72442" lon="3.45638">
        <ele>421.5</ele>
        <time>2015-10-25T07:03:52Z</time>
      </trkpt>
      <trkpt lat="43.72446" lon="3.45631">
        <ele>421.5</ele>
        <time>2015-10-25T07:03:53Z</time>
      </trkpt>
      <trkpt lat="43.7245" lon="3.45624">
        <ele>421.5</ele>
        <time>2015-10-25T07:03:54Z</time>
      </trkpt>
      <trkpt lat="43.72453" lon="3.45617">
        <ele>422</ele>
        <time>2015-10-25T07:03:54Z</time>
      </trkpt>
      <trkpt lat="43.72456" lon="3.4561">
        <ele>422</ele>
        <time>2015-10-25T07:03:55Z</time>
      </trkpt>
      <trkpt lat="43.72458" lon="3.45604">
        <ele>422</ele>
        <time>2015-10-25T07:03:56Z</time>
      </trkpt>
      <trkpt lat="43.72462" lon="3.456">
        <ele>422</ele>
        <time>2015-10-25T07:03:57Z</time>
      </trkpt>
      <trkpt lat="43.72464" lon="3.45595">
        <ele>423</ele>
        <time>2015-10-25T07:03:58Z</time>
      </trkpt>
      <trkpt lat="43.72469" lon="3.45592">
        <ele>424.5</ele>
        <time>2015-10-25T07:03:59Z</time>
      </trkpt>
      <trkpt lat="43.72471" lon="3.45587">
        <ele>424.5</ele>
        <time>2015-10-25T07:04:00Z</time>
      </trkpt>
      <trkpt lat="43.72473" lon="3.45585">
        <ele>426</ele>
        <time>2015-10-25T07:04:01Z</time>
      </trkpt>
      <trkpt lat="43.72473" lon="3.4558">
        <ele>426.5</ele>
        <time>2015-10-25T07:04:02Z</time>
      </trkpt>
      <trkpt lat="43.72475" lon="3.45576">
        <ele>426.5</ele>
        <time>2015-10-25T07:04:03Z</time>
      </trkpt>
      <trkpt lat="43.72477" lon="3.45572">
        <ele>426</ele>
        <time>2015-10-25T07:04:04Z</time>
      </trkpt>
      <trkpt lat="43.72478" lon="3.45568">
        <ele>425.5</ele>
        <time>2015-10-25T07:04:05Z</time>
      </trkpt>
      <trkpt lat="43.7248" lon="3.45564">
        <ele>425.5</ele>
        <time>2015-10-25T07:04:06Z</time>
      </trkpt>
      <trkpt lat="43.72481" lon="3.4556">
        <ele>426</ele>
        <time>2015-10-25T07:04:07Z</time>
      </trkpt>
      <trkpt lat="43.72483" lon="3.45548">
        <ele>423</ele>
        <time>2015-10-25T07:04:09Z</time>
      </trkpt>
      <trkpt lat="43.72484" lon="3.45541">
        <ele>422.5</ele>
        <time>2015-10-25T07:04:10Z</time>
      </trkpt>
      <trkpt lat="43.72485" lon="3.45535">
        <ele>422</ele>
        <time>2015-10-25T07:04:11Z</time>
      </trkpt>
      <trkpt lat="43.72485" lon="3.45529">
        <ele>420</ele>
        <time>2015-10-25T07:04:12Z</time>
      </trkpt>
      <trkpt lat="43.72486" lon="3.45523">
        <ele>419</ele>
        <time>2015-10-25T07:04:13Z</time>
      </trkpt>
      <trkpt lat="43.72485" lon="3.45517">
        <ele>417.5</ele>
        <time>2015-10-25T07:04:14Z</time>
      </trkpt>
      <trkpt lat="43.72485" lon="3.45512">
        <ele>415.5</ele>
        <time>2015-10-25T07:04:15Z</time>
      </trkpt>
      <trkpt lat="43.72485" lon="3.45507">
        <ele>413.5</ele>
        <time>2015-10-25T07:04:16Z</time>
      </trkpt>
      <trkpt lat="43.72484" lon="3.455">
        <ele>413.5</ele>
        <time>2015-10-25T07:04:17Z</time>
      </trkpt>
      <trkpt lat="43.72484" lon="3.45493">
        <ele>413</ele>
        <time>2015-10-25T07:04:18Z</time>
      </trkpt>
      <trkpt lat="43.72484" lon="3.45487">
        <ele>412.5</ele>
        <time>2015-10-25T07:04:19Z</time>
      </trkpt>
      <trkpt lat="43.72485" lon="3.45481">
        <ele>411</ele>
        <time>2015-10-25T07:04:20Z</time>
      </trkpt>
      <trkpt lat="43.72484" lon="3.45476">
        <ele>410</ele>
        <time>2015-10-25T07:04:21Z</time>
      </trkpt>
      <trkpt lat="43.72485" lon="3.45471">
        <ele>410</ele>
        <time>2015-10-25T07:04:22Z</time>
      </trkpt>
      <trkpt lat="43.72485" lon="3.45465">
        <ele>409</ele>
        <time>2015-10-25T07:04:23Z</time>
      </trkpt>
      <trkpt lat="43.72485" lon="3.4546">
        <ele>409</ele>
        <time>2015-10-25T07:04:24Z</time>
      </trkpt>
      <trkpt lat="43.72487" lon="3.45456">
        <ele>408.5</ele>
        <time>2015-10-25T07:04:25Z</time>
      </trkpt>
      <trkpt lat="43.72489" lon="3.4545">
        <ele>408.5</ele>
        <time>2015-10-25T07:04:26Z</time>
      </trkpt>
      <trkpt lat="43.72489" lon="3.45446">
        <ele>408.5</ele>
        <time>2015-10-25T07:04:27Z</time>
      </trkpt>
      <trkpt lat="43.7249" lon="3.45442">
        <ele>408.5</ele>
        <time>2015-10-25T07:04:28Z</time>
      </trkpt>
      <trkpt lat="43.72491" lon="3.45437">
        <ele>409</ele>
        <time>2015-10-25T07:04:29Z</time>
      </trkpt>
      <trkpt lat="43.72492" lon="3.45432">
        <ele>409</ele>
        <time>2015-10-25T07:04:30Z</time>
      </trkpt>
      <trkpt lat="43.72492" lon="3.45429">
        <ele>409</ele>
        <time>2015-10-25T07:04:31Z</time>
      </trkpt>
      <trkpt lat="43.72493" lon="3.45425">
        <ele>409</ele>
        <time>2015-10-25T07:04:32Z</time>
      </trkpt>
      <trkpt lat="43.72495" lon="3.4542">
        <ele>409</ele>
        <time>2015-10-25T07:04:33Z</time>
      </trkpt>
      <trkpt lat="43.72496" lon="3.45415">
        <ele>407</ele>
        <time>2015-10-25T07:04:34Z</time>
      </trkpt>
      <trkpt lat="43.72502" lon="3.45405">
        <ele>408</ele>
        <time>2015-10-25T07:04:36Z</time>
      </trkpt>
      <trkpt lat="43.72503" lon="3.45391">
        <ele>407.5</ele>
        <time>2015-10-25T07:04:38Z</time>
      </trkpt>
      <trkpt lat="43.72502" lon="3.45377">
        <ele>408</ele>
        <time>2015-10-25T07:04:40Z</time>
      </trkpt>
      <trkpt lat="43.72501" lon="3.45371">
        <ele>408</ele>
        <time>2015-10-25T07:04:41Z</time>
      </trkpt>
      <trkpt lat="43.72503" lon="3.45355">
        <ele>409</ele>
        <time>2015-10-25T07:04:43Z</time>
      </trkpt>
      <trkpt lat="43.72499" lon="3.45339">
        <ele>405.5</ele>
        <time>2015-10-25T07:04:45Z</time>
      </trkpt>
      <trkpt lat="43.72499" lon="3.45332">
        <ele>406</ele>
        <time>2015-10-25T07:04:46Z</time>
      </trkpt>
      <trkpt lat="43.72499" lon="3.45326">
        <ele>406</ele>
        <time>2015-10-25T07:04:47Z</time>
      </trkpt>
      <trkpt lat="43.72498" lon="3.4532">
        <ele>406</ele>
        <time>2015-10-25T07:04:48Z</time>
      </trkpt>
      <trkpt lat="43.72498" lon="3.45313">
        <ele>407.5</ele>
        <time>2015-10-25T07:04:49Z</time>
      </trkpt>
      <trkpt lat="43.72497" lon="3.45308">
        <ele>408</ele>
        <time>2015-10-25T07:04:50Z</time>
      </trkpt>
      <trkpt lat="43.72495" lon="3.45302">
        <ele>409</ele>
        <time>2015-10-25T07:04:51Z</time>
      </trkpt>
      <trkpt lat="43.72503" lon="3.4528">
        <ele>411.5</ele>
        <time>2015-10-25T07:04:55Z</time>
      </trkpt>
      <trkpt lat="43.72512" lon="3.45278">
        <ele>411.5</ele>
        <time>2015-10-25T07:04:57Z</time>
      </trkpt>
      <trkpt lat="43.72522" lon="3.45281">
        <ele>412</ele>
        <time>2015-10-25T07:04:59Z</time>
      </trkpt>
      <trkpt lat="43.72526" lon="3.45281">
        <ele>412</ele>
        <time>2015-10-25T07:05:00Z</time>
      </trkpt>
      <trkpt lat="43.72529" lon="3.45282">
        <ele>412</ele>
        <time>2015-10-25T07:05:01Z</time>
      </trkpt>
      <trkpt lat="43.72533" lon="3.45281">
        <ele>413</ele>
        <time>2015-10-25T07:05:02Z</time>
      </trkpt>
      <trkpt lat="43.72536" lon="3.45281">
        <ele>413.5</ele>
        <time>2015-10-25T07:05:03Z</time>
      </trkpt>
      <trkpt lat="43.7254" lon="3.45282">
        <ele>413.5</ele>
        <time>2015-10-25T07:05:04Z</time>
      </trkpt>
      <trkpt lat="43.72544" lon="3.45282">
        <ele>414</ele>
        <time>2015-10-25T07:05:05Z</time>
      </trkpt>
      <trkpt lat="43.72547" lon="3.45283">
        <ele>413.5</ele>
        <time>2015-10-25T07:05:06Z</time>
      </trkpt>
      <trkpt lat="43.72551" lon="3.45284">
        <ele>414</ele>
        <time>2015-10-25T07:05:07Z</time>
      </trkpt>
      <trkpt lat="43.72554" lon="3.45285">
        <ele>414</ele>
        <time>2015-10-25T07:05:08Z</time>
      </trkpt>
      <trkpt lat="43.72557" lon="3.45285">
        <ele>414</ele>
        <time>2015-10-25T07:05:09Z</time>
      </trkpt>
      <trkpt lat="43.7256" lon="3.45286">
        <ele>414</ele>
        <time>2015-10-25T07:05:10Z</time>
      </trkpt>
      <trkpt lat="43.72564" lon="3.45286">
        <ele>414</ele>
        <time>2015-10-25T07:05:11Z</time>
      </trkpt>
      <trkpt lat="43.72567" lon="3.45285">
        <ele>415.5</ele>
        <time>2015-10-25T07:05:12Z</time>
      </trkpt>
      <trkpt lat="43.72569" lon="3.45285">
        <ele>415.5</ele>
        <time>2015-10-25T07:05:13Z</time>
      </trkpt>
      <trkpt lat="43.72572" lon="3.45284">
        <ele>416.5</ele>
        <time>2015-10-25T07:05:14Z</time>
      </trkpt>
      <trkpt lat="43.72575" lon="3.45284">
        <ele>416.5</ele>
        <time>2015-10-25T07:05:15Z</time>
      </trkpt>
      <trkpt lat="43.72577" lon="3.45283">
        <ele>417.5</ele>
        <time>2015-10-25T07:05:16Z</time>
      </trkpt>
      <trkpt lat="43.7258" lon="3.45281">
        <ele>419</ele>
        <time>2015-10-25T07:05:17Z</time>
      </trkpt>
      <trkpt lat="43.72583" lon="3.4528">
        <ele>420</ele>
        <time>2015-10-25T07:05:18Z</time>
      </trkpt>
      <trkpt lat="43.72586" lon="3.4528">
        <ele>420</ele>
        <time>2015-10-25T07:05:19Z</time>
      </trkpt>
      <trkpt lat="43.72589" lon="3.4528">
        <ele>420</ele>
        <time>2015-10-25T07:05:20Z</time>
      </trkpt>
      <trkpt lat="43.72591" lon="3.4528">
        <ele>421</ele>
        <time>2015-10-25T07:05:21Z</time>
      </trkpt>
      <trkpt lat="43.72595" lon="3.4528">
        <ele>421</ele>
        <time>2015-10-25T07:05:22Z</time>
      </trkpt>
      <trkpt lat="43.72598" lon="3.4528">
        <ele>421.5</ele>
        <time>2015-10-25T07:05:23Z</time>
      </trkpt>
      <trkpt lat="43.72601" lon="3.45281">
        <ele>421.5</ele>
        <time>2015-10-25T07:05:24Z</time>
      </trkpt>
      <trkpt lat="43.72604" lon="3.4528">
        <ele>423</ele>
        <time>2015-10-25T07:05:25Z</time>
      </trkpt>
      <trkpt lat="43.72606" lon="3.45281">
        <ele>423</ele>
        <time>2015-10-25T07:05:26Z</time>
      </trkpt>
      <trkpt lat="43.72609" lon="3.4528">
        <ele>424</ele>
        <time>2015-10-25T07:05:27Z</time>
      </trkpt>
      <trkpt lat="43.72612" lon="3.45281">
        <ele>424</ele>
        <time>2015-10-25T07:05:28Z</time>
      </trkpt>
      <trkpt lat="43.72615" lon="3.45282">
        <ele>424</ele>
        <time>2015-10-25T07:05:29Z</time>
      </trkpt>
      <trkpt lat="43.72618" lon="3.45282">
        <ele>424</ele>
        <time>2015-10-25T07:05:29Z</time>
      </trkpt>
      <trkpt lat="43.72621" lon="3.45282">
        <ele>424.5</ele>
        <time>2015-10-25T07:05:30Z</time>
      </trkpt>
      <trkpt lat="43.72623" lon="3.45281">
        <ele>426</ele>
        <time>2015-10-25T07:05:31Z</time>
      </trkpt>
      <trkpt lat="43.72625" lon="3.45281">
        <ele>426.5</ele>
        <time>2015-10-25T07:05:32Z</time>
      </trkpt>
      <trkpt lat="43.72628" lon="3.45281">
        <ele>427</ele>
        <time>2015-10-25T07:05:33Z</time>
      </trkpt>
      <trkpt lat="43.72631" lon="3.45282">
        <ele>427</ele>
        <time>2015-10-25T07:05:34Z</time>
      </trkpt>
      <trkpt lat="43.72634" lon="3.45282">
        <ele>427.5</ele>
        <time>2015-10-25T07:05:35Z</time>
      </trkpt>
      <trkpt lat="43.72637" lon="3.45282">
        <ele>427.5</ele>
        <time>2015-10-25T07:05:36Z</time>
      </trkpt>
      <trkpt lat="43.72641" lon="3.45283">
        <ele>427.5</ele>
        <time>2015-10-25T07:05:37Z</time>
      </trkpt>
      <trkpt lat="43.72645" lon="3.45283">
        <ele>428</ele>
        <time>2015-10-25T07:05:38Z</time>
      </trkpt>
      <trkpt lat="43.72648" lon="3.45283">
        <ele>428.5</ele>
        <time>2015-10-25T07:05:39Z</time>
      </trkpt>
      <trkpt lat="43.72652" lon="3.45282">
        <ele>428.5</ele>
        <time>2015-10-25T07:05:40Z</time>
      </trkpt>
      <trkpt lat="43.72656" lon="3.45281">
        <ele>428.5</ele>
        <time>2015-10-25T07:05:41Z</time>
      </trkpt>
      <trkpt lat="43.72659" lon="3.4528">
        <ele>428.5</ele>
        <time>2015-10-25T07:05:42Z</time>
      </trkpt>
      <trkpt lat="43.72662" lon="3.4528">
        <ele>428.5</ele>
        <time>2015-10-25T07:05:43Z</time>
      </trkpt>
      <trkpt lat="43.72666" lon="3.45279">
        <ele>428.5</ele>
        <time>2015-10-25T07:05:44Z</time>
      </trkpt>
      <trkpt lat="43.72669" lon="3.45277">
        <ele>429</ele>
        <time>2015-10-25T07:05:45Z</time>
      </trkpt>
      <trkpt lat="43.72672" lon="3.45275">
        <ele>429.5</ele>
        <time>2015-10-25T07:05:46Z</time>
      </trkpt>
      <trkpt lat="43.72675" lon="3.45274">
        <ele>430</ele>
        <time>2015-10-25T07:05:47Z</time>
      </trkpt>
      <trkpt lat="43.72679" lon="3.45272">
        <ele>430.5</ele>
        <time>2015-10-25T07:05:48Z</time>
      </trkpt>
      <trkpt lat="43.72682" lon="3.45271">
        <ele>430.5</ele>
        <time>2015-10-25T07:05:49Z</time>
      </trkpt>
      <trkpt lat="43.72685" lon="3.4527">
        <ele>430.5</ele>
        <time>2015-10-25T07:05:50Z</time>
      </trkpt>
      <trkpt lat="43.72689" lon="3.45269">
        <ele>430.5</ele>
        <time>2015-10-25T07:05:51Z</time>
      </trkpt>
      <trkpt lat="43.72692" lon="3.45268">
        <ele>430</ele>
        <time>2015-10-25T07:05:52Z</time>
      </trkpt>
      <trkpt lat="43.72695" lon="3.45267">
        <ele>430</ele>
        <time>2015-10-25T07:05:53Z</time>
      </trkpt>
      <trkpt lat="43.72699" lon="3.45265">
        <ele>430</ele>
        <time>2015-10-25T07:05:54Z</time>
      </trkpt>
      <trkpt lat="43.72702" lon="3.45264">
        <ele>430</ele>
        <time>2015-10-25T07:05:55Z</time>
      </trkpt>
      <trkpt lat="43.72705" lon="3.45263">
        <ele>430</ele>
        <time>2015-10-25T07:05:56Z</time>
      </trkpt>
      <trkpt lat="43.72709" lon="3.45262">
        <ele>430</ele>
        <time>2015-10-25T07:05:57Z</time>
      </trkpt>
      <trkpt lat="43.72712" lon="3.4526">
        <ele>430.5</ele>
        <time>2015-10-25T07:05:58Z</time>
      </trkpt>
      <trkpt lat="43.72716" lon="3.45259">
        <ele>430.5</ele>
        <time>2015-10-25T07:05:59Z</time>
      </trkpt>
      <trkpt lat="43.72719" lon="3.45258">
        <ele>430.5</ele>
        <time>2015-10-25T07:06:00Z</time>
      </trkpt>
      <trkpt lat="43.72723" lon="3.45256">
        <ele>430</ele>
        <time>2015-10-25T07:06:01Z</time>
      </trkpt>
      <trkpt lat="43.72726" lon="3.45255">
        <ele>431</ele>
        <time>2015-10-25T07:06:02Z</time>
      </trkpt>
      <trkpt lat="43.7273" lon="3.45254">
        <ele>431</ele>
        <time>2015-10-25T07:06:03Z</time>
      </trkpt>
      <trkpt lat="43.72733" lon="3.45253">
        <ele>430.5</ele>
        <time>2015-10-25T07:06:04Z</time>
      </trkpt>
      <trkpt lat="43.72737" lon="3.45252">
        <ele>430.5</ele>
        <time>2015-10-25T07:06:05Z</time>
      </trkpt>
      <trkpt lat="43.7274" lon="3.45251">
        <ele>430.5</ele>
        <time>2015-10-25T07:06:06Z</time>
      </trkpt>
      <trkpt lat="43.72744" lon="3.4525">
        <ele>430.5</ele>
        <time>2015-10-25T07:06:07Z</time>
      </trkpt>
      <trkpt lat="43.72748" lon="3.45252">
        <ele>429.5</ele>
        <time>2015-10-25T07:06:08Z</time>
      </trkpt>
      <trkpt lat="43.72751" lon="3.45252">
        <ele>429.5</ele>
        <time>2015-10-25T07:06:09Z</time>
      </trkpt>
      <trkpt lat="43.72755" lon="3.45252">
        <ele>429.5</ele>
        <time>2015-10-25T07:06:10Z</time>
      </trkpt>
      <trkpt lat="43.72758" lon="3.45252">
        <ele>429.5</ele>
        <time>2015-10-25T07:06:11Z</time>
      </trkpt>
      <trkpt lat="43.72761" lon="3.45251">
        <ele>431.5</ele>
        <time>2015-10-25T07:06:12Z</time>
      </trkpt>
      <trkpt lat="43.72764" lon="3.45251">
        <ele>431.5</ele>
        <time>2015-10-25T07:06:13Z</time>
      </trkpt>
      <trkpt lat="43.72767" lon="3.45251">
        <ele>432</ele>
        <time>2015-10-25T07:06:14Z</time>
      </trkpt>
      <trkpt lat="43.7277" lon="3.45251">
        <ele>431.5</ele>
        <time>2015-10-25T07:06:15Z</time>
      </trkpt>
      <trkpt lat="43.72774" lon="3.4525">
        <ele>432.5</ele>
        <time>2015-10-25T07:06:16Z</time>
      </trkpt>
      <trkpt lat="43.72777" lon="3.45251">
        <ele>432.5</ele>
        <time>2015-10-25T07:06:17Z</time>
      </trkpt>
      <trkpt lat="43.72781" lon="3.45251">
        <ele>432.5</ele>
        <time>2015-10-25T07:06:18Z</time>
      </trkpt>
      <trkpt lat="43.72784" lon="3.45252">
        <ele>433</ele>
        <time>2015-10-25T07:06:19Z</time>
      </trkpt>
      <trkpt lat="43.72788" lon="3.45252">
        <ele>433</ele>
        <time>2015-10-25T07:06:20Z</time>
      </trkpt>
      <trkpt lat="43.72791" lon="3.45251">
        <ele>433.5</ele>
        <time>2015-10-25T07:06:21Z</time>
      </trkpt>
      <trkpt lat="43.72794" lon="3.45251">
        <ele>434</ele>
        <time>2015-10-25T07:06:22Z</time>
      </trkpt>
      <trkpt lat="43.72798" lon="3.45252">
        <ele>433.5</ele>
        <time>2015-10-25T07:06:23Z</time>
      </trkpt>
      <trkpt lat="43.72801" lon="3.45251">
        <ele>433.5</ele>
        <time>2015-10-25T07:06:24Z</time>
      </trkpt>
      <trkpt lat="43.72805" lon="3.45251">
        <ele>434</ele>
        <time>2015-10-25T07:06:25Z</time>
      </trkpt>
      <trkpt lat="43.72808" lon="3.45251">
        <ele>435</ele>
        <time>2015-10-25T07:06:26Z</time>
      </trkpt>
      <trkpt lat="43.72812" lon="3.45251">
        <ele>434</ele>
        <time>2015-10-25T07:06:27Z</time>
      </trkpt>
      <trkpt lat="43.72816" lon="3.45251">
        <ele>434</ele>
        <time>2015-10-25T07:06:28Z</time>
      </trkpt>
      <trkpt lat="43.72819" lon="3.45251">
        <ele>434.5</ele>
        <time>2015-10-25T07:06:29Z</time>
      </trkpt>
      <trkpt lat="43.72823" lon="3.45251">
        <ele>435</ele>
        <time>2015-10-25T07:06:30Z</time>
      </trkpt>
      <trkpt lat="43.72827" lon="3.45251">
        <ele>435</ele>
        <time>2015-10-25T07:06:31Z</time>
      </trkpt>
      <trkpt lat="43.72831" lon="3.45251">
        <ele>435</ele>
        <time>2015-10-25T07:06:32Z</time>
      </trkpt>
      <trkpt lat="43.72834" lon="3.45252">
        <ele>435</ele>
        <time>2015-10-25T07:06:33Z</time>
      </trkpt>
      <trkpt lat="43.72838" lon="3.45252">
        <ele>435</ele>
        <time>2015-10-25T07:06:34Z</time>
      </trkpt>
      <trkpt lat="43.72842" lon="3.45253">
        <ele>435</ele>
        <time>2015-10-25T07:06:35Z</time>
      </trkpt>
      <trkpt lat="43.72846" lon="3.45253">
        <ele>435</ele>
        <time>2015-10-25T07:06:36Z</time>
      </trkpt>
      <trkpt lat="43.7285" lon="3.45253">
        <ele>435</ele>
        <time>2015-10-25T07:06:37Z</time>
      </trkpt>
      <trkpt lat="43.72854" lon="3.45253">
        <ele>435</ele>
        <time>2015-10-25T07:06:38Z</time>
      </trkpt>
      <trkpt lat="43.72858" lon="3.45254">
        <ele>435</ele>
        <time>2015-10-25T07:06:39Z</time>
      </trkpt>
      <trkpt lat="43.72861" lon="3.45253">
        <ele>435</ele>
        <time>2015-10-25T07:06:40Z</time>
      </trkpt>
      <trkpt lat="43.72865" lon="3.45252">
        <ele>435</ele>
        <time>2015-10-25T07:06:41Z</time>
      </trkpt>
      <trkpt lat="43.72869" lon="3.45252">
        <ele>435</ele>
        <time>2015-10-25T07:06:42Z</time>
      </trkpt>
      <trkpt lat="43.72873" lon="3.45251">
        <ele>435</ele>
        <time>2015-10-25T07:06:43Z</time>
      </trkpt>
      <trkpt lat="43.72877" lon="3.4525">
        <ele>435</ele>
        <time>2015-10-25T07:06:44Z</time>
      </trkpt>
      <trkpt lat="43.72881" lon="3.45253">
        <ele>435</ele>
        <time>2015-10-25T07:06:45Z</time>
      </trkpt>
      <trkpt lat="43.72885" lon="3.45253">
        <ele>435</ele>
        <time>2015-10-25T07:06:46Z</time>
      </trkpt>
      <trkpt lat="43.72889" lon="3.45253">
        <ele>435</ele>
        <time>2015-10-25T07:06:47Z</time>
      </trkpt>
      <trkpt lat="43.72893" lon="3.45252">
        <ele>435</ele>
        <time>2015-10-25T07:06:48Z</time>
      </trkpt>
      <trkpt lat="43.72896" lon="3.45252">
        <ele>435</ele>
        <time>2015-10-25T07:06:49Z</time>
      </trkpt>
      <trkpt lat="43.729" lon="3.45252">
        <ele>435.5</ele>
        <time>2015-10-25T07:06:50Z</time>
      </trkpt>
      <trkpt lat="43.72903" lon="3.45252">
        <ele>435.5</ele>
        <time>2015-10-25T07:06:51Z</time>
      </trkpt>
      <trkpt lat="43.72907" lon="3.45253">
        <ele>435.5</ele>
        <time>2015-10-25T07:06:52Z</time>
      </trkpt>
      <trkpt lat="43.7291" lon="3.45254">
        <ele>436</ele>
        <time>2015-10-25T07:06:53Z</time>
      </trkpt>
      <trkpt lat="43.72914" lon="3.45254">
        <ele>436</ele>
        <time>2015-10-25T07:06:54Z</time>
      </trkpt>
      <trkpt lat="43.72918" lon="3.45254">
        <ele>436.5</ele>
        <time>2015-10-25T07:06:55Z</time>
      </trkpt>
      <trkpt lat="43.72921" lon="3.45254">
        <ele>436.5</ele>
        <time>2015-10-25T07:06:56Z</time>
      </trkpt>
      <trkpt lat="43.72925" lon="3.45253">
        <ele>436.5</ele>
        <time>2015-10-25T07:06:57Z</time>
      </trkpt>
      <trkpt lat="43.72928" lon="3.45253">
        <ele>436.5</ele>
        <time>2015-10-25T07:06:58Z</time>
      </trkpt>
      <trkpt lat="43.72931" lon="3.45251">
        <ele>437</ele>
        <time>2015-10-25T07:06:59Z</time>
      </trkpt>
      <trkpt lat="43.72935" lon="3.45252">
        <ele>437</ele>
        <time>2015-10-25T07:07:00Z</time>
      </trkpt>
      <trkpt lat="43.72938" lon="3.45251">
        <ele>437</ele>
        <time>2015-10-25T07:07:01Z</time>
      </trkpt>
      <trkpt lat="43.72941" lon="3.45248">
        <ele>438.5</ele>
        <time>2015-10-25T07:07:02Z</time>
      </trkpt>
      <trkpt lat="43.72943" lon="3.45245">
        <ele>440</ele>
        <time>2015-10-25T07:07:03Z</time>
      </trkpt>
      <trkpt lat="43.72946" lon="3.45243">
        <ele>440.5</ele>
        <time>2015-10-25T07:07:04Z</time>
      </trkpt>
      <trkpt lat="43.72949" lon="3.45242">
        <ele>440.5</ele>
        <time>2015-10-25T07:07:05Z</time>
      </trkpt>
      <trkpt lat="43.72952" lon="3.4524">
        <ele>440.5</ele>
        <time>2015-10-25T07:07:06Z</time>
      </trkpt>
      <trkpt lat="43.72955" lon="3.45239">
        <ele>440.5</ele>
        <time>2015-10-25T07:07:07Z</time>
      </trkpt>
      <trkpt lat="43.72957" lon="3.45237">
        <ele>441</ele>
        <time>2015-10-25T07:07:08Z</time>
      </trkpt>
      <trkpt lat="43.7296" lon="3.45235">
        <ele>441.5</ele>
        <time>2015-10-25T07:07:09Z</time>
      </trkpt>
      <trkpt lat="43.72963" lon="3.45233">
        <ele>441</ele>
        <time>2015-10-25T07:07:10Z</time>
      </trkpt>
      <trkpt lat="43.72965" lon="3.45231">
        <ele>441</ele>
        <time>2015-10-25T07:07:11Z</time>
      </trkpt>
      <trkpt lat="43.72968" lon="3.45229">
        <ele>440</ele>
        <time>2015-10-25T07:07:12Z</time>
      </trkpt>
      <trkpt lat="43.7297" lon="3.45227">
        <ele>440.5</ele>
        <time>2015-10-25T07:07:13Z</time>
      </trkpt>
      <trkpt lat="43.72972" lon="3.45226">
        <ele>440.5</ele>
        <time>2015-10-25T07:07:14Z</time>
      </trkpt>
      <trkpt lat="43.72974" lon="3.45224">
        <ele>440.5</ele>
        <time>2015-10-25T07:07:15Z</time>
      </trkpt>
      <trkpt lat="43.72977" lon="3.45223">
        <ele>440.5</ele>
        <time>2015-10-25T07:07:16Z</time>
      </trkpt>
      <trkpt lat="43.72978" lon="3.45219">
        <ele>443</ele>
        <time>2015-10-25T07:07:17Z</time>
      </trkpt>
      <trkpt lat="43.72981" lon="3.45217">
        <ele>443.5</ele>
        <time>2015-10-25T07:07:18Z</time>
      </trkpt>
      <trkpt lat="43.72983" lon="3.45217">
        <ele>443.5</ele>
        <time>2015-10-25T07:07:19Z</time>
      </trkpt>
      <trkpt lat="43.72986" lon="3.45216">
        <ele>443.5</ele>
        <time>2015-10-25T07:07:20Z</time>
      </trkpt>
      <trkpt lat="43.72988" lon="3.45216">
        <ele>443</ele>
        <time>2015-10-25T07:07:21Z</time>
      </trkpt>
      <trkpt lat="43.72991" lon="3.45215">
        <ele>443.5</ele>
        <time>2015-10-25T07:07:22Z</time>
      </trkpt>
      <trkpt lat="43.72993" lon="3.45215">
        <ele>443</ele>
        <time>2015-10-25T07:07:23Z</time>
      </trkpt>
      <trkpt lat="43.72995" lon="3.45214">
        <ele>443</ele>
        <time>2015-10-25T07:07:24Z</time>
      </trkpt>
      <trkpt lat="43.72997" lon="3.45213">
        <ele>443.5</ele>
        <time>2015-10-25T07:07:25Z</time>
      </trkpt>
      <trkpt lat="43.73" lon="3.45212">
        <ele>443.5</ele>
        <time>2015-10-25T07:07:26Z</time>
      </trkpt>
      <trkpt lat="43.73002" lon="3.4521">
        <ele>443.5</ele>
        <time>2015-10-25T07:07:27Z</time>
      </trkpt>
      <trkpt lat="43.73004" lon="3.45209">
        <ele>443.5</ele>
        <time>2015-10-25T07:07:28Z</time>
      </trkpt>
      <trkpt lat="43.73007" lon="3.45208">
        <ele>443</ele>
        <time>2015-10-25T07:07:29Z</time>
      </trkpt>
      <trkpt lat="43.73009" lon="3.45207">
        <ele>443</ele>
        <time>2015-10-25T07:07:30Z</time>
      </trkpt>
      <trkpt lat="43.73011" lon="3.45206">
        <ele>443</ele>
        <time>2015-10-25T07:07:31Z</time>
      </trkpt>
      <trkpt lat="43.73013" lon="3.45205">
        <ele>443</ele>
        <time>2015-10-25T07:07:32Z</time>
      </trkpt>
      <trkpt lat="43.73016" lon="3.45203">
        <ele>443.5</ele>
        <time>2015-10-25T07:07:33Z</time>
      </trkpt>
      <trkpt lat="43.73018" lon="3.45202">
        <ele>444</ele>
        <time>2015-10-25T07:07:34Z</time>
      </trkpt>
      <trkpt lat="43.7302" lon="3.452">
        <ele>445</ele>
        <time>2015-10-25T07:07:35Z</time>
      </trkpt>
      <trkpt lat="43.73023" lon="3.45199">
        <ele>445</ele>
        <time>2015-10-25T07:07:36Z</time>
      </trkpt>
      <trkpt lat="43.73025" lon="3.45198">
        <ele>445</ele>
        <time>2015-10-25T07:07:37Z</time>
      </trkpt>
      <trkpt lat="43.73027" lon="3.45197">
        <ele>445</ele>
        <time>2015-10-25T07:07:38Z</time>
      </trkpt>
      <trkpt lat="43.73029" lon="3.45196">
        <ele>445</ele>
        <time>2015-10-25T07:07:39Z</time>
      </trkpt>
      <trkpt lat="43.73031" lon="3.45196">
        <ele>445</ele>
        <time>2015-10-25T07:07:40Z</time>
      </trkpt>
      <trkpt lat="43.73033" lon="3.45196">
        <ele>444.5</ele>
        <time>2015-10-25T07:07:41Z</time>
      </trkpt>
      <trkpt lat="43.73035" lon="3.45195">
        <ele>445</ele>
        <time>2015-10-25T07:07:42Z</time>
      </trkpt>
      <trkpt lat="43.73037" lon="3.45194">
        <ele>445</ele>
        <time>2015-10-25T07:07:43Z</time>
      </trkpt>
      <trkpt lat="43.73039" lon="3.45192">
        <ele>444.5</ele>
        <time>2015-10-25T07:07:44Z</time>
      </trkpt>
      <trkpt lat="43.73041" lon="3.4519">
        <ele>445</ele>
        <time>2015-10-25T07:07:45Z</time>
      </trkpt>
      <trkpt lat="43.73042" lon="3.45188">
        <ele>446</ele>
        <time>2015-10-25T07:07:46Z</time>
      </trkpt>
      <trkpt lat="43.73044" lon="3.45189">
        <ele>445</ele>
        <time>2015-10-25T07:07:47Z</time>
      </trkpt>
      <trkpt lat="43.73046" lon="3.45189">
        <ele>445.5</ele>
        <time>2015-10-25T07:07:48Z</time>
      </trkpt>
      <trkpt lat="43.73047" lon="3.4519">
        <ele>445.5</ele>
        <time>2015-10-25T07:07:49Z</time>
      </trkpt>
      <trkpt lat="43.73049" lon="3.45191">
        <ele>446.5</ele>
        <time>2015-10-25T07:07:50Z</time>
      </trkpt>
      <trkpt lat="43.7305" lon="3.45192">
        <ele>446.5</ele>
        <time>2015-10-25T07:07:51Z</time>
      </trkpt>
      <trkpt lat="43.7305" lon="3.45194">
        <ele>448</ele>
        <time>2015-10-25T07:07:52Z</time>
      </trkpt>
      <trkpt lat="43.73051" lon="3.45196">
        <ele>448</ele>
        <time>2015-10-25T07:07:53Z</time>
      </trkpt>
      <trkpt lat="43.73051" lon="3.45198">
        <ele>448.5</ele>
        <time>2015-10-25T07:07:54Z</time>
      </trkpt>
      <trkpt lat="43.73052" lon="3.452">
        <ele>448.5</ele>
        <time>2015-10-25T07:07:55Z</time>
      </trkpt>
      <trkpt lat="43.73053" lon="3.45201">
        <ele>449</ele>
        <time>2015-10-25T07:07:56Z</time>
      </trkpt>
      <trkpt lat="43.73054" lon="3.45203">
        <ele>449</ele>
        <time>2015-10-25T07:07:57Z</time>
      </trkpt>
      <trkpt lat="43.73055" lon="3.45206">
        <ele>449</ele>
        <time>2015-10-25T07:07:58Z</time>
      </trkpt>
      <trkpt lat="43.73058" lon="3.4521">
        <ele>449</ele>
        <time>2015-10-25T07:08:00Z</time>
      </trkpt>
      <trkpt lat="43.73059" lon="3.45213">
        <ele>449</ele>
        <time>2015-10-25T07:08:01Z</time>
      </trkpt>
      <trkpt lat="43.73061" lon="3.45215">
        <ele>449</ele>
        <time>2015-10-25T07:08:02Z</time>
      </trkpt>
      <trkpt lat="43.73062" lon="3.45217">
        <ele>448.5</ele>
        <time>2015-10-25T07:08:03Z</time>
      </trkpt>
      <trkpt lat="43.73063" lon="3.4522">
        <ele>448</ele>
        <time>2015-10-25T07:08:04Z</time>
      </trkpt>
      <trkpt lat="43.73065" lon="3.45222">
        <ele>448.5</ele>
        <time>2015-10-25T07:08:05Z</time>
      </trkpt>
      <trkpt lat="43.73066" lon="3.45224">
        <ele>448.5</ele>
        <time>2015-10-25T07:08:06Z</time>
      </trkpt>
      <trkpt lat="43.73067" lon="3.45226">
        <ele>448.5</ele>
        <time>2015-10-25T07:08:07Z</time>
      </trkpt>
      <trkpt lat="43.73069" lon="3.45228">
        <ele>448.5</ele>
        <time>2015-10-25T07:08:08Z</time>
      </trkpt>
      <trkpt lat="43.7307" lon="3.4523">
        <ele>448.5</ele>
        <time>2015-10-25T07:08:09Z</time>
      </trkpt>
      <trkpt lat="43.73071" lon="3.45232">
        <ele>448.5</ele>
        <time>2015-10-25T07:08:10Z</time>
      </trkpt>
      <trkpt lat="43.73073" lon="3.45233">
        <ele>448.5</ele>
        <time>2015-10-25T07:08:11Z</time>
      </trkpt>
      <trkpt lat="43.73074" lon="3.45235">
        <ele>448.5</ele>
        <time>2015-10-25T07:08:12Z</time>
      </trkpt>
      <trkpt lat="43.73075" lon="3.45237">
        <ele>448.5</ele>
        <time>2015-10-25T07:08:13Z</time>
      </trkpt>
      <trkpt lat="43.73076" lon="3.45239">
        <ele>448.5</ele>
        <time>2015-10-25T07:08:14Z</time>
      </trkpt>
      <trkpt lat="43.73077" lon="3.4524">
        <ele>448.5</ele>
        <time>2015-10-25T07:08:15Z</time>
      </trkpt>
      <trkpt lat="43.73079" lon="3.45242">
        <ele>448.5</ele>
        <time>2015-10-25T07:08:16Z</time>
      </trkpt>
      <trkpt lat="43.7308" lon="3.45244">
        <ele>448.5</ele>
        <time>2015-10-25T07:08:17Z</time>
      </trkpt>
      <trkpt lat="43.73081" lon="3.45246">
        <ele>448.5</ele>
        <time>2015-10-25T07:08:18Z</time>
      </trkpt>
      <trkpt lat="43.73082" lon="3.45247">
        <ele>448.5</ele>
        <time>2015-10-25T07:08:19Z</time>
      </trkpt>
      <trkpt lat="43.73084" lon="3.45249">
        <ele>448.5</ele>
        <time>2015-10-25T07:08:20Z</time>
      </trkpt>
      <trkpt lat="43.73085" lon="3.45251">
        <ele>448.5</ele>
        <time>2015-10-25T07:08:21Z</time>
      </trkpt>
      <trkpt lat="43.73087" lon="3.45252">
        <ele>448</ele>
        <time>2015-10-25T07:08:22Z</time>
      </trkpt>
      <trkpt lat="43.73089" lon="3.45254">
        <ele>448</ele>
        <time>2015-10-25T07:08:23Z</time>
      </trkpt>
      <trkpt lat="43.7309" lon="3.45255">
        <ele>448</ele>
        <time>2015-10-25T07:08:24Z</time>
      </trkpt>
      <trkpt lat="43.73091" lon="3.45257">
        <ele>448.5</ele>
        <time>2015-10-25T07:08:25Z</time>
      </trkpt>
      <trkpt lat="43.73092" lon="3.45258">
        <ele>449</ele>
        <time>2015-10-25T07:08:26Z</time>
      </trkpt>
      <trkpt lat="43.73093" lon="3.4526">
        <ele>449</ele>
        <time>2015-10-25T07:08:27Z</time>
      </trkpt>
      <trkpt lat="43.73095" lon="3.45261">
        <ele>449</ele>
        <time>2015-10-25T07:08:28Z</time>
      </trkpt>
      <trkpt lat="43.73096" lon="3.45263">
        <ele>449</ele>
        <time>2015-10-25T07:08:29Z</time>
      </trkpt>
      <trkpt lat="43.73097" lon="3.45265">
        <ele>449</ele>
        <time>2015-10-25T07:08:30Z</time>
      </trkpt>
      <trkpt lat="43.73098" lon="3.45267">
        <ele>449</ele>
        <time>2015-10-25T07:08:31Z</time>
      </trkpt>
      <trkpt lat="43.73099" lon="3.45269">
        <ele>449</ele>
        <time>2015-10-25T07:08:32Z</time>
      </trkpt>
      <trkpt lat="43.731" lon="3.4527">
        <ele>449.5</ele>
        <time>2015-10-25T07:08:33Z</time>
      </trkpt>
      <trkpt lat="43.73101" lon="3.45271">
        <ele>449.5</ele>
        <time>2015-10-25T07:08:34Z</time>
      </trkpt>
      <trkpt lat="43.73102" lon="3.45272">
        <ele>450</ele>
        <time>2015-10-25T07:08:35Z</time>
      </trkpt>
      <trkpt lat="43.73103" lon="3.45274">
        <ele>450</ele>
        <time>2015-10-25T07:08:36Z</time>
      </trkpt>
      <trkpt lat="43.73104" lon="3.45276">
        <ele>449.5</ele>
        <time>2015-10-25T07:08:37Z</time>
      </trkpt>
      <trkpt lat="43.73104" lon="3.45278">
        <ele>449.5</ele>
        <time>2015-10-25T07:08:38Z</time>
      </trkpt>
      <trkpt lat="43.73106" lon="3.4528">
        <ele>450</ele>
        <time>2015-10-25T07:08:39Z</time>
      </trkpt>
      <trkpt lat="43.73107" lon="3.45281">
        <ele>450</ele>
        <time>2015-10-25T07:08:40Z</time>
      </trkpt>
      <trkpt lat="43.73107" lon="3.45283">
        <ele>450</ele>
        <time>2015-10-25T07:08:41Z</time>
      </trkpt>
      <trkpt lat="43.73108" lon="3.45285">
        <ele>450.5</ele>
        <time>2015-10-25T07:08:42Z</time>
      </trkpt>
      <trkpt lat="43.73109" lon="3.45287">
        <ele>450.5</ele>
        <time>2015-10-25T07:08:43Z</time>
      </trkpt>
      <trkpt lat="43.73109" lon="3.45289">
        <ele>450.5</ele>
        <time>2015-10-25T07:08:44Z</time>
      </trkpt>
      <trkpt lat="43.7311" lon="3.45292">
        <ele>451</ele>
        <time>2015-10-25T07:08:45Z</time>
      </trkpt>
      <trkpt lat="43.7311" lon="3.45294">
        <ele>451</ele>
        <time>2015-10-25T07:08:46Z</time>
      </trkpt>
      <trkpt lat="43.7311" lon="3.45297">
        <ele>450.5</ele>
        <time>2015-10-25T07:08:47Z</time>
      </trkpt>
      <trkpt lat="43.7311" lon="3.45299">
        <ele>450.5</ele>
        <time>2015-10-25T07:08:48Z</time>
      </trkpt>
      <trkpt lat="43.7311" lon="3.45301">
        <ele>450.5</ele>
        <time>2015-10-25T07:08:49Z</time>
      </trkpt>
      <trkpt lat="43.73111" lon="3.45304">
        <ele>450.5</ele>
        <time>2015-10-25T07:08:49Z</time>
      </trkpt>
      <trkpt lat="43.73111" lon="3.45307">
        <ele>450</ele>
        <time>2015-10-25T07:08:51Z</time>
      </trkpt>
      <trkpt lat="43.73111" lon="3.4531">
        <ele>450</ele>
        <time>2015-10-25T07:08:52Z</time>
      </trkpt>
      <trkpt lat="43.73111" lon="3.45312">
        <ele>450</ele>
        <time>2015-10-25T07:08:52Z</time>
      </trkpt>
      <trkpt lat="43.73111" lon="3.45315">
        <ele>450</ele>
        <time>2015-10-25T07:08:54Z</time>
      </trkpt>
      <trkpt lat="43.7311" lon="3.45317">
        <ele>450</ele>
        <time>2015-10-25T07:08:54Z</time>
      </trkpt>
      <trkpt lat="43.7311" lon="3.4532">
        <ele>450</ele>
        <time>2015-10-25T07:08:55Z</time>
      </trkpt>
      <trkpt lat="43.7311" lon="3.45322">
        <ele>450</ele>
        <time>2015-10-25T07:08:56Z</time>
      </trkpt>
      <trkpt lat="43.7311" lon="3.45324">
        <ele>450</ele>
        <time>2015-10-25T07:08:57Z</time>
      </trkpt>
      <trkpt lat="43.73109" lon="3.45327">
        <ele>450</ele>
        <time>2015-10-25T07:08:58Z</time>
      </trkpt>
      <trkpt lat="43.73109" lon="3.45329">
        <ele>450</ele>
        <time>2015-10-25T07:08:59Z</time>
      </trkpt>
      <trkpt lat="43.73109" lon="3.45332">
        <ele>449.5</ele>
        <time>2015-10-25T07:09:00Z</time>
      </trkpt>
      <trkpt lat="43.73108" lon="3.45334">
        <ele>449.5</ele>
        <time>2015-10-25T07:09:01Z</time>
      </trkpt>
      <trkpt lat="43.73108" lon="3.45337">
        <ele>449</ele>
        <time>2015-10-25T07:09:02Z</time>
      </trkpt>
      <trkpt lat="43.73108" lon="3.4534">
        <ele>449.5</ele>
        <time>2015-10-25T07:09:03Z</time>
      </trkpt>
      <trkpt lat="43.73108" lon="3.45343">
        <ele>449.5</ele>
        <time>2015-10-25T07:09:05Z</time>
      </trkpt>
      <trkpt lat="43.73109" lon="3.45345">
        <ele>449.5</ele>
        <time>2015-10-25T07:09:05Z</time>
      </trkpt>
      <trkpt lat="43.7311" lon="3.45346">
        <ele>449.5</ele>
        <time>2015-10-25T07:09:06Z</time>
      </trkpt>
      <trkpt lat="43.73111" lon="3.45347">
        <ele>449.5</ele>
        <time>2015-10-25T07:09:07Z</time>
      </trkpt>
      <trkpt lat="43.73113" lon="3.45348">
        <ele>449.5</ele>
        <time>2015-10-25T07:09:08Z</time>
      </trkpt>
      <trkpt lat="43.73114" lon="3.45348">
        <ele>449.5</ele>
        <time>2015-10-25T07:09:09Z</time>
      </trkpt>
      <trkpt lat="43.73116" lon="3.45348">
        <ele>449.5</ele>
        <time>2015-10-25T07:09:10Z</time>
      </trkpt>
      <trkpt lat="43.73117" lon="3.45346">
        <ele>449.5</ele>
        <time>2015-10-25T07:09:11Z</time>
      </trkpt>
      <trkpt lat="43.73118" lon="3.45344">
        <ele>449.5</ele>
        <time>2015-10-25T07:09:12Z</time>
      </trkpt>
      <trkpt lat="43.73119" lon="3.45342">
        <ele>449.5</ele>
        <time>2015-10-25T07:09:13Z</time>
      </trkpt>
      <trkpt lat="43.7312" lon="3.4534">
        <ele>450</ele>
        <time>2015-10-25T07:09:14Z</time>
      </trkpt>
      <trkpt lat="43.73121" lon="3.45339">
        <ele>450</ele>
        <time>2015-10-25T07:09:15Z</time>
      </trkpt>
      <trkpt lat="43.73123" lon="3.45337">
        <ele>449.5</ele>
        <time>2015-10-25T07:09:16Z</time>
      </trkpt>
      <trkpt lat="43.73124" lon="3.45335">
        <ele>449.5</ele>
        <time>2015-10-25T07:09:17Z</time>
      </trkpt>
      <trkpt lat="43.73124" lon="3.45333">
        <ele>449.5</ele>
        <time>2015-10-25T07:09:19Z</time>
      </trkpt>
      <trkpt lat="43.73125" lon="3.4533">
        <ele>450</ele>
        <time>2015-10-25T07:09:19Z</time>
      </trkpt>
      <trkpt lat="43.73126" lon="3.45328">
        <ele>450</ele>
        <time>2015-10-25T07:09:20Z</time>
      </trkpt>
      <trkpt lat="43.73127" lon="3.45326">
        <ele>450.5</ele>
        <time>2015-10-25T07:09:21Z</time>
      </trkpt>
      <trkpt lat="43.73127" lon="3.45324">
        <ele>450.5</ele>
        <time>2015-10-25T07:09:22Z</time>
      </trkpt>
      <trkpt lat="43.73128" lon="3.45322">
        <ele>451</ele>
        <time>2015-10-25T07:09:23Z</time>
      </trkpt>
      <trkpt lat="43.73129" lon="3.4532">
        <ele>452</ele>
        <time>2015-10-25T07:09:24Z</time>
      </trkpt>
      <trkpt lat="43.7313" lon="3.45318">
        <ele>452</ele>
        <time>2015-10-25T07:09:25Z</time>
      </trkpt>
      <trkpt lat="43.73131" lon="3.45316">
        <ele>452.5</ele>
        <time>2015-10-25T07:09:26Z</time>
      </trkpt>
      <trkpt lat="43.73131" lon="3.45314">
        <ele>452.5</ele>
        <time>2015-10-25T07:09:27Z</time>
      </trkpt>
      <trkpt lat="43.73132" lon="3.45312">
        <ele>453</ele>
        <time>2015-10-25T07:09:28Z</time>
      </trkpt>
      <trkpt lat="43.73132" lon="3.4531">
        <ele>453.5</ele>
        <time>2015-10-25T07:09:29Z</time>
      </trkpt>
      <trkpt lat="43.73133" lon="3.45308">
        <ele>453.5</ele>
        <time>2015-10-25T07:09:30Z</time>
      </trkpt>
      <trkpt lat="43.73134" lon="3.45307">
        <ele>453.5</ele>
        <time>2015-10-25T07:09:32Z</time>
      </trkpt>
      <trkpt lat="43.73134" lon="3.45305">
        <ele>453</ele>
        <time>2015-10-25T07:09:32Z</time>
      </trkpt>
      <trkpt lat="43.73135" lon="3.45303">
        <ele>453</ele>
        <time>2015-10-25T07:09:33Z</time>
      </trkpt>
      <trkpt lat="43.73135" lon="3.45301">
        <ele>453.5</ele>
        <time>2015-10-25T07:09:34Z</time>
      </trkpt>
      <trkpt lat="43.73136" lon="3.45299">
        <ele>453.5</ele>
        <time>2015-10-25T07:09:35Z</time>
      </trkpt>
      <trkpt lat="43.73137" lon="3.45297">
        <ele>453.5</ele>
        <time>2015-10-25T07:09:36Z</time>
      </trkpt>
      <trkpt lat="43.73138" lon="3.45295">
        <ele>453</ele>
        <time>2015-10-25T07:09:38Z</time>
      </trkpt>
      <trkpt lat="43.73138" lon="3.45292">
        <ele>453</ele>
        <time>2015-10-25T07:09:38Z</time>
      </trkpt>
      <trkpt lat="43.73139" lon="3.4529">
        <ele>452.5</ele>
        <time>2015-10-25T07:09:39Z</time>
      </trkpt>
      <trkpt lat="43.7314" lon="3.45288">
        <ele>452.5</ele>
        <time>2015-10-25T07:09:40Z</time>
      </trkpt>
      <trkpt lat="43.73141" lon="3.45287">
        <ele>452.5</ele>
        <time>2015-10-25T07:09:41Z</time>
      </trkpt>
      <trkpt lat="43.73142" lon="3.45285">
        <ele>452.5</ele>
        <time>2015-10-25T07:09:42Z</time>
      </trkpt>
      <trkpt lat="43.73144" lon="3.45283">
        <ele>453</ele>
        <time>2015-10-25T07:09:43Z</time>
      </trkpt>
      <trkpt lat="43.73145" lon="3.45281">
        <ele>453</ele>
        <time>2015-10-25T07:09:44Z</time>
      </trkpt>
      <trkpt lat="43.73146" lon="3.4528">
        <ele>453</ele>
        <time>2015-10-25T07:09:46Z</time>
      </trkpt>
      <trkpt lat="43.73148" lon="3.45278">
        <ele>453.5</ele>
        <time>2015-10-25T07:09:46Z</time>
      </trkpt>
      <trkpt lat="43.73149" lon="3.45276">
        <ele>454</ele>
        <time>2015-10-25T07:09:47Z</time>
      </trkpt>
      <trkpt lat="43.7315" lon="3.45274">
        <ele>455</ele>
        <time>2015-10-25T07:09:48Z</time>
      </trkpt>
      <trkpt lat="43.73151" lon="3.45271">
        <ele>455.5</ele>
        <time>2015-10-25T07:09:49Z</time>
      </trkpt>
      <trkpt lat="43.73152" lon="3.45269">
        <ele>457</ele>
        <time>2015-10-25T07:09:50Z</time>
      </trkpt>
      <trkpt lat="43.73153" lon="3.45267">
        <ele>458</ele>
        <time>2015-10-25T07:09:51Z</time>
      </trkpt>
      <trkpt lat="43.73153" lon="3.45265">
        <ele>460.5</ele>
        <time>2015-10-25T07:09:52Z</time>
      </trkpt>
      <trkpt lat="43.73155" lon="3.45261">
        <ele>459</ele>
        <time>2015-10-25T07:09:53Z</time>
      </trkpt>
      <trkpt lat="43.73155" lon="3.45259">
        <ele>459.5</ele>
        <time>2015-10-25T07:09:54Z</time>
      </trkpt>
      <trkpt lat="43.73156" lon="3.45257">
        <ele>460</ele>
        <time>2015-10-25T07:09:55Z</time>
      </trkpt>
      <trkpt lat="43.73156" lon="3.45254">
        <ele>461</ele>
        <time>2015-10-25T07:09:56Z</time>
      </trkpt>
      <trkpt lat="43.73156" lon="3.45251">
        <ele>459.5</ele>
        <time>2015-10-25T07:09:57Z</time>
      </trkpt>
      <trkpt lat="43.73156" lon="3.45248">
        <ele>459</ele>
        <time>2015-10-25T07:09:58Z</time>
      </trkpt>
      <trkpt lat="43.73156" lon="3.45245">
        <ele>459.5</ele>
        <time>2015-10-25T07:09:59Z</time>
      </trkpt>
      <trkpt lat="43.73157" lon="3.45241">
        <ele>458</ele>
        <time>2015-10-25T07:10:00Z</time>
      </trkpt>
      <trkpt lat="43.73157" lon="3.45238">
        <ele>458.5</ele>
        <time>2015-10-25T07:10:01Z</time>
      </trkpt>
      <trkpt lat="43.73156" lon="3.45236">
        <ele>458.5</ele>
        <time>2015-10-25T07:10:02Z</time>
      </trkpt>
      <trkpt lat="43.73156" lon="3.45233">
        <ele>458.5</ele>
        <time>2015-10-25T07:10:04Z</time>
      </trkpt>
      <trkpt lat="43.73155" lon="3.45231">
        <ele>458.5</ele>
        <time>2015-10-25T07:10:04Z</time>
      </trkpt>
      <trkpt lat="43.73156" lon="3.45229">
        <ele>458.5</ele>
        <time>2015-10-25T07:10:05Z</time>
      </trkpt>
      <trkpt lat="43.73156" lon="3.45227">
        <ele>459</ele>
        <time>2015-10-25T07:10:06Z</time>
      </trkpt>
      <trkpt lat="43.73156" lon="3.45224">
        <ele>459.5</ele>
        <time>2015-10-25T07:10:07Z</time>
      </trkpt>
      <trkpt lat="43.73156" lon="3.45222">
        <ele>459.5</ele>
        <time>2015-10-25T07:10:08Z</time>
      </trkpt>
      <trkpt lat="43.73157" lon="3.4522">
        <ele>460.5</ele>
        <time>2015-10-25T07:10:09Z</time>
      </trkpt>
      <trkpt lat="43.73157" lon="3.45218">
        <ele>460.5</ele>
        <time>2015-10-25T07:10:10Z</time>
      </trkpt>
      <trkpt lat="43.73157" lon="3.45216">
        <ele>461</ele>
        <time>2015-10-25T07:10:11Z</time>
      </trkpt>
      <trkpt lat="43.73158" lon="3.45214">
        <ele>461</ele>
        <time>2015-10-25T07:10:12Z</time>
      </trkpt>
      <trkpt lat="43.73158" lon="3.45211">
        <ele>462</ele>
        <time>2015-10-25T07:10:13Z</time>
      </trkpt>
      <trkpt lat="43.73159" lon="3.45209">
        <ele>462</ele>
        <time>2015-10-25T07:10:14Z</time>
      </trkpt>
      <trkpt lat="43.73159" lon="3.45207">
        <ele>462.5</ele>
        <time>2015-10-25T07:10:15Z</time>
      </trkpt>
      <trkpt lat="43.7316" lon="3.45204">
        <ele>463</ele>
        <time>2015-10-25T07:10:16Z</time>
      </trkpt>
      <trkpt lat="43.7316" lon="3.45202">
        <ele>462</ele>
        <time>2015-10-25T07:10:17Z</time>
      </trkpt>
      <trkpt lat="43.73161" lon="3.452">
        <ele>461.5</ele>
        <time>2015-10-25T07:10:18Z</time>
      </trkpt>
      <trkpt lat="43.73162" lon="3.45198">
        <ele>461.5</ele>
        <time>2015-10-25T07:10:19Z</time>
      </trkpt>
      <trkpt lat="43.73163" lon="3.45196">
        <ele>461.5</ele>
        <time>2015-10-25T07:10:20Z</time>
      </trkpt>
      <trkpt lat="43.73164" lon="3.45194">
        <ele>462</ele>
        <time>2015-10-25T07:10:21Z</time>
      </trkpt>
      <trkpt lat="43.73165" lon="3.45191">
        <ele>463</ele>
        <time>2015-10-25T07:10:22Z</time>
      </trkpt>
      <trkpt lat="43.73167" lon="3.4519">
        <ele>463</ele>
        <time>2015-10-25T07:10:23Z</time>
      </trkpt>
      <trkpt lat="43.73168" lon="3.45189">
        <ele>463.5</ele>
        <time>2015-10-25T07:10:24Z</time>
      </trkpt>
      <trkpt lat="43.7317" lon="3.45188">
        <ele>464</ele>
        <time>2015-10-25T07:10:25Z</time>
      </trkpt>
      <trkpt lat="43.73171" lon="3.45187">
        <ele>464</ele>
        <time>2015-10-25T07:10:26Z</time>
      </trkpt>
      <trkpt lat="43.73173" lon="3.45187">
        <ele>463</ele>
        <time>2015-10-25T07:10:27Z</time>
      </trkpt>
      <trkpt lat="43.73175" lon="3.45186">
        <ele>463</ele>
        <time>2015-10-25T07:10:28Z</time>
      </trkpt>
      <trkpt lat="43.73176" lon="3.45185">
        <ele>463</ele>
        <time>2015-10-25T07:10:29Z</time>
      </trkpt>
      <trkpt lat="43.73178" lon="3.45185">
        <ele>463.5</ele>
        <time>2015-10-25T07:10:30Z</time>
      </trkpt>
      <trkpt lat="43.73179" lon="3.45184">
        <ele>464</ele>
        <time>2015-10-25T07:10:31Z</time>
      </trkpt>
      <trkpt lat="43.73181" lon="3.45183">
        <ele>464</ele>
        <time>2015-10-25T07:10:32Z</time>
      </trkpt>
      <trkpt lat="43.73182" lon="3.45182">
        <ele>465.5</ele>
        <time>2015-10-25T07:10:33Z</time>
      </trkpt>
      <trkpt lat="43.73183" lon="3.45182">
        <ele>465.5</ele>
        <time>2015-10-25T07:10:34Z</time>
      </trkpt>
      <trkpt lat="43.73185" lon="3.45181">
        <ele>465.5</ele>
        <time>2015-10-25T07:10:35Z</time>
      </trkpt>
      <trkpt lat="43.73187" lon="3.45181">
        <ele>466</ele>
        <time>2015-10-25T07:10:36Z</time>
      </trkpt>
      <trkpt lat="43.73189" lon="3.45181">
        <ele>466</ele>
        <time>2015-10-25T07:10:37Z</time>
      </trkpt>
      <trkpt lat="43.7319" lon="3.45181">
        <ele>466</ele>
        <time>2015-10-25T07:10:38Z</time>
      </trkpt>
      <trkpt lat="43.73192" lon="3.4518">
        <ele>466.5</ele>
        <time>2015-10-25T07:10:39Z</time>
      </trkpt>
      <trkpt lat="43.73193" lon="3.4518">
        <ele>467.5</ele>
        <time>2015-10-25T07:10:40Z</time>
      </trkpt>
      <trkpt lat="43.73195" lon="3.4518">
        <ele>467.5</ele>
        <time>2015-10-25T07:10:41Z</time>
      </trkpt>
      <trkpt lat="43.73197" lon="3.45179">
        <ele>468.5</ele>
        <time>2015-10-25T07:10:42Z</time>
      </trkpt>
      <trkpt lat="43.732" lon="3.45179">
        <ele>469.5</ele>
        <time>2015-10-25T07:10:44Z</time>
      </trkpt>
      <trkpt lat="43.73202" lon="3.4518">
        <ele>469.5</ele>
        <time>2015-10-25T07:10:45Z</time>
      </trkpt>
      <trkpt lat="43.73203" lon="3.45181">
        <ele>469.5</ele>
        <time>2015-10-25T07:10:46Z</time>
      </trkpt>
      <trkpt lat="43.73204" lon="3.45181">
        <ele>469.5</ele>
        <time>2015-10-25T07:10:47Z</time>
      </trkpt>
      <trkpt lat="43.73206" lon="3.45181">
        <ele>469.5</ele>
        <time>2015-10-25T07:10:48Z</time>
      </trkpt>
      <trkpt lat="43.73207" lon="3.45182">
        <ele>470</ele>
        <time>2015-10-25T07:10:49Z</time>
      </trkpt>
      <trkpt lat="43.73208" lon="3.45182">
        <ele>470</ele>
        <time>2015-10-25T07:10:50Z</time>
      </trkpt>
      <trkpt lat="43.7321" lon="3.45182">
        <ele>471</ele>
        <time>2015-10-25T07:10:51Z</time>
      </trkpt>
      <trkpt lat="43.73211" lon="3.45181">
        <ele>472</ele>
        <time>2015-10-25T07:10:52Z</time>
      </trkpt>
      <trkpt lat="43.73212" lon="3.4518">
        <ele>473</ele>
        <time>2015-10-25T07:10:53Z</time>
      </trkpt>
      <trkpt lat="43.73213" lon="3.4518">
        <ele>473</ele>
        <time>2015-10-25T07:10:54Z</time>
      </trkpt>
      <trkpt lat="43.73215" lon="3.45181">
        <ele>473</ele>
        <time>2015-10-25T07:10:55Z</time>
      </trkpt>
      <trkpt lat="43.73217" lon="3.45181">
        <ele>472.5</ele>
        <time>2015-10-25T07:10:56Z</time>
      </trkpt>
      <trkpt lat="43.73218" lon="3.45182">
        <ele>471</ele>
        <time>2015-10-25T07:10:57Z</time>
      </trkpt>
      <trkpt lat="43.7322" lon="3.45181">
        <ele>471</ele>
        <time>2015-10-25T07:10:58Z</time>
      </trkpt>
      <trkpt lat="43.73221" lon="3.4518">
        <ele>470</ele>
        <time>2015-10-25T07:10:59Z</time>
      </trkpt>
      <trkpt lat="43.73222" lon="3.45179">
        <ele>469.5</ele>
        <time>2015-10-25T07:11:00Z</time>
      </trkpt>
      <trkpt lat="43.73224" lon="3.45178">
        <ele>469.5</ele>
        <time>2015-10-25T07:11:01Z</time>
      </trkpt>
      <trkpt lat="43.73225" lon="3.45175">
        <ele>471</ele>
        <time>2015-10-25T07:11:02Z</time>
      </trkpt>
      <trkpt lat="43.73226" lon="3.45173">
        <ele>471.5</ele>
        <time>2015-10-25T07:11:03Z</time>
      </trkpt>
      <trkpt lat="43.73227" lon="3.4517">
        <ele>471.5</ele>
        <time>2015-10-25T07:11:04Z</time>
      </trkpt>
      <trkpt lat="43.73227" lon="3.45168">
        <ele>470</ele>
        <time>2015-10-25T07:11:05Z</time>
      </trkpt>
      <trkpt lat="43.73227" lon="3.45167">
        <ele>469</ele>
        <time>2015-10-25T07:11:06Z</time>
      </trkpt>
      <trkpt lat="43.73229" lon="3.45165">
        <ele>469.5</ele>
        <time>2015-10-25T07:11:07Z</time>
      </trkpt>
      <trkpt lat="43.73229" lon="3.45162">
        <ele>471</ele>
        <time>2015-10-25T07:11:08Z</time>
      </trkpt>
      <trkpt lat="43.73231" lon="3.45158">
        <ele>472</ele>
        <time>2015-10-25T07:11:10Z</time>
      </trkpt>
      <trkpt lat="43.73232" lon="3.45156">
        <ele>472</ele>
        <time>2015-10-25T07:11:11Z</time>
      </trkpt>
      <trkpt lat="43.73233" lon="3.45154">
        <ele>472</ele>
        <time>2015-10-25T07:11:12Z</time>
      </trkpt>
      <trkpt lat="43.73234" lon="3.45152">
        <ele>472.5</ele>
        <time>2015-10-25T07:11:13Z</time>
      </trkpt>
      <trkpt lat="43.73235" lon="3.4515">
        <ele>472.5</ele>
        <time>2015-10-25T07:11:14Z</time>
      </trkpt>
      <trkpt lat="43.73237" lon="3.45147">
        <ele>472.5</ele>
        <time>2015-10-25T07:11:15Z</time>
      </trkpt>
      <trkpt lat="43.73238" lon="3.45145">
        <ele>473</ele>
        <time>2015-10-25T07:11:16Z</time>
      </trkpt>
      <trkpt lat="43.73239" lon="3.45142">
        <ele>473</ele>
        <time>2015-10-25T07:11:17Z</time>
      </trkpt>
      <trkpt lat="43.7324" lon="3.4514">
        <ele>473.5</ele>
        <time>2015-10-25T07:11:18Z</time>
      </trkpt>
      <trkpt lat="43.7324" lon="3.45137">
        <ele>474</ele>
        <time>2015-10-25T07:11:19Z</time>
      </trkpt>
      <trkpt lat="43.73241" lon="3.45134">
        <ele>475</ele>
        <time>2015-10-25T07:11:20Z</time>
      </trkpt>
      <trkpt lat="43.73241" lon="3.45131">
        <ele>475.5</ele>
        <time>2015-10-25T07:11:21Z</time>
      </trkpt>
      <trkpt lat="43.73242" lon="3.45128">
        <ele>476</ele>
        <time>2015-10-25T07:11:22Z</time>
      </trkpt>
      <trkpt lat="43.7324" lon="3.45127">
        <ele>477.5</ele>
        <time>2015-10-25T07:11:23Z</time>
      </trkpt>
      <trkpt lat="43.7324" lon="3.45124">
        <ele>477.5</ele>
        <time>2015-10-25T07:11:24Z</time>
      </trkpt>
      <trkpt lat="43.7324" lon="3.45122">
        <ele>477.5</ele>
        <time>2015-10-25T07:11:25Z</time>
      </trkpt>
      <trkpt lat="43.73241" lon="3.4512">
        <ele>479</ele>
        <time>2015-10-25T07:11:26Z</time>
      </trkpt>
      <trkpt lat="43.73243" lon="3.45117">
        <ele>480</ele>
        <time>2015-10-25T07:11:27Z</time>
      </trkpt>
      <trkpt lat="43.73245" lon="3.45115">
        <ele>481</ele>
        <time>2015-10-25T07:11:28Z</time>
      </trkpt>
      <trkpt lat="43.73244" lon="3.45112">
        <ele>479.5</ele>
        <time>2015-10-25T07:11:29Z</time>
      </trkpt>
      <trkpt lat="43.73245" lon="3.4511">
        <ele>479.5</ele>
        <time>2015-10-25T07:11:30Z</time>
      </trkpt>
      <trkpt lat="43.73246" lon="3.45108">
        <ele>480.5</ele>
        <time>2015-10-25T07:11:31Z</time>
      </trkpt>
      <trkpt lat="43.73246" lon="3.45105">
        <ele>480.5</ele>
        <time>2015-10-25T07:11:32Z</time>
      </trkpt>
      <trkpt lat="43.73246" lon="3.45103">
        <ele>479.5</ele>
        <time>2015-10-25T07:11:33Z</time>
      </trkpt>
      <trkpt lat="43.73246" lon="3.451">
        <ele>479</ele>
        <time>2015-10-25T07:11:34Z</time>
      </trkpt>
      <trkpt lat="43.73245" lon="3.45098">
        <ele>477.5</ele>
        <time>2015-10-25T07:11:35Z</time>
      </trkpt>
      <trkpt lat="43.73245" lon="3.45095">
        <ele>477.5</ele>
        <time>2015-10-25T07:11:36Z</time>
      </trkpt>
      <trkpt lat="43.73245" lon="3.45093">
        <ele>477.5</ele>
        <time>2015-10-25T07:11:37Z</time>
      </trkpt>
      <trkpt lat="43.73246" lon="3.4509">
        <ele>477.5</ele>
        <time>2015-10-25T07:11:38Z</time>
      </trkpt>
      <trkpt lat="43.73246" lon="3.45088">
        <ele>478.5</ele>
        <time>2015-10-25T07:11:39Z</time>
      </trkpt>
      <trkpt lat="43.73246" lon="3.45085">
        <ele>478.5</ele>
        <time>2015-10-25T07:11:40Z</time>
      </trkpt>
      <trkpt lat="43.73246" lon="3.45082">
        <ele>479.5</ele>
        <time>2015-10-25T07:11:41Z</time>
      </trkpt>
      <trkpt lat="43.73246" lon="3.45079">
        <ele>481</ele>
        <time>2015-10-25T07:11:42Z</time>
      </trkpt>
      <trkpt lat="43.73245" lon="3.45077">
        <ele>484</ele>
        <time>2015-10-25T07:11:43Z</time>
      </trkpt>
      <trkpt lat="43.73243" lon="3.45074">
        <ele>484</ele>
        <time>2015-10-25T07:11:44Z</time>
      </trkpt>
      <trkpt lat="43.73244" lon="3.45071">
        <ele>484.5</ele>
        <time>2015-10-25T07:11:45Z</time>
      </trkpt>
      <trkpt lat="43.73244" lon="3.45068">
        <ele>485</ele>
        <time>2015-10-25T07:11:46Z</time>
      </trkpt>
      <trkpt lat="43.73244" lon="3.45065">
        <ele>484.5</ele>
        <time>2015-10-25T07:11:47Z</time>
      </trkpt>
      <trkpt lat="43.73244" lon="3.45061">
        <ele>484</ele>
        <time>2015-10-25T07:11:48Z</time>
      </trkpt>
      <trkpt lat="43.73244" lon="3.45058">
        <ele>483.5</ele>
        <time>2015-10-25T07:11:49Z</time>
      </trkpt>
      <trkpt lat="43.73243" lon="3.45055">
        <ele>484</ele>
        <time>2015-10-25T07:11:50Z</time>
      </trkpt>
      <trkpt lat="43.73243" lon="3.45052">
        <ele>484</ele>
        <time>2015-10-25T07:11:51Z</time>
      </trkpt>
      <trkpt lat="43.73243" lon="3.45048">
        <ele>482.5</ele>
        <time>2015-10-25T07:11:52Z</time>
      </trkpt>
      <trkpt lat="43.73243" lon="3.45045">
        <ele>481.5</ele>
        <time>2015-10-25T07:11:53Z</time>
      </trkpt>
      <trkpt lat="43.73243" lon="3.45041">
        <ele>480.5</ele>
        <time>2015-10-25T07:11:54Z</time>
      </trkpt>
      <trkpt lat="43.73242" lon="3.45038">
        <ele>481.5</ele>
        <time>2015-10-25T07:11:55Z</time>
      </trkpt>
      <trkpt lat="43.73242" lon="3.45035">
        <ele>481.5</ele>
        <time>2015-10-25T07:11:56Z</time>
      </trkpt>
      <trkpt lat="43.73242" lon="3.45032">
        <ele>481</ele>
        <time>2015-10-25T07:11:57Z</time>
      </trkpt>
      <trkpt lat="43.73242" lon="3.45028">
        <ele>479.5</ele>
        <time>2015-10-25T07:11:58Z</time>
      </trkpt>
      <trkpt lat="43.73241" lon="3.45025">
        <ele>480</ele>
        <time>2015-10-25T07:11:59Z</time>
      </trkpt>
      <trkpt lat="43.7324" lon="3.45023">
        <ele>480</ele>
        <time>2015-10-25T07:12:00Z</time>
      </trkpt>
      <trkpt lat="43.73239" lon="3.45019">
        <ele>479.5</ele>
        <time>2015-10-25T07:12:01Z</time>
      </trkpt>
      <trkpt lat="43.73239" lon="3.45017">
        <ele>479</ele>
        <time>2015-10-25T07:12:02Z</time>
      </trkpt>
      <trkpt lat="43.73238" lon="3.45014">
        <ele>479.5</ele>
        <time>2015-10-25T07:12:03Z</time>
      </trkpt>
      <trkpt lat="43.73237" lon="3.45011">
        <ele>480</ele>
        <time>2015-10-25T07:12:04Z</time>
      </trkpt>
      <trkpt lat="43.73237" lon="3.45009">
        <ele>480.5</ele>
        <time>2015-10-25T07:12:05Z</time>
      </trkpt>
      <trkpt lat="43.73236" lon="3.45006">
        <ele>479</ele>
        <time>2015-10-25T07:12:06Z</time>
      </trkpt>
      <trkpt lat="43.73235" lon="3.45003">
        <ele>478.5</ele>
        <time>2015-10-25T07:12:07Z</time>
      </trkpt>
      <trkpt lat="43.73234" lon="3.45001">
        <ele>478.5</ele>
        <time>2015-10-25T07:12:08Z</time>
      </trkpt>
      <trkpt lat="43.73233" lon="3.44998">
        <ele>478.5</ele>
        <time>2015-10-25T07:12:09Z</time>
      </trkpt>
      <trkpt lat="43.73231" lon="3.44995">
        <ele>479</ele>
        <time>2015-10-25T07:12:10Z</time>
      </trkpt>
      <trkpt lat="43.7323" lon="3.44992">
        <ele>479</ele>
        <time>2015-10-25T07:12:11Z</time>
      </trkpt>
      <trkpt lat="43.7323" lon="3.4499">
        <ele>479</ele>
        <time>2015-10-25T07:12:12Z</time>
      </trkpt>
      <trkpt lat="43.73227" lon="3.44987">
        <ele>479</ele>
        <time>2015-10-25T07:12:13Z</time>
      </trkpt>
      <trkpt lat="43.73227" lon="3.44985">
        <ele>479</ele>
        <time>2015-10-25T07:12:14Z</time>
      </trkpt>
      <trkpt lat="43.73225" lon="3.44982">
        <ele>479</ele>
        <time>2015-10-25T07:12:15Z</time>
      </trkpt>
      <trkpt lat="43.73223" lon="3.4498">
        <ele>479</ele>
        <time>2015-10-25T07:12:16Z</time>
      </trkpt>
      <trkpt lat="43.73222" lon="3.44977">
        <ele>479</ele>
        <time>2015-10-25T07:12:17Z</time>
      </trkpt>
      <trkpt lat="43.73219" lon="3.44975">
        <ele>480</ele>
        <time>2015-10-25T07:12:18Z</time>
      </trkpt>
      <trkpt lat="43.73217" lon="3.44973">
        <ele>480.5</ele>
        <time>2015-10-25T07:12:19Z</time>
      </trkpt>
      <trkpt lat="43.73215" lon="3.44971">
        <ele>481.5</ele>
        <time>2015-10-25T07:12:20Z</time>
      </trkpt>
      <trkpt lat="43.73213" lon="3.44969">
        <ele>482</ele>
        <time>2015-10-25T07:12:21Z</time>
      </trkpt>
      <trkpt lat="43.73212" lon="3.44967">
        <ele>482.5</ele>
        <time>2015-10-25T07:12:22Z</time>
      </trkpt>
      <trkpt lat="43.7321" lon="3.44965">
        <ele>482</ele>
        <time>2015-10-25T07:12:23Z</time>
      </trkpt>
      <trkpt lat="43.73209" lon="3.44962">
        <ele>481.5</ele>
        <time>2015-10-25T07:12:24Z</time>
      </trkpt>
      <trkpt lat="43.73208" lon="3.4496">
        <ele>481.5</ele>
        <time>2015-10-25T07:12:25Z</time>
      </trkpt>
      <trkpt lat="43.73206" lon="3.44958">
        <ele>482</ele>
        <time>2015-10-25T07:12:26Z</time>
      </trkpt>
      <trkpt lat="43.73205" lon="3.44956">
        <ele>482</ele>
        <time>2015-10-25T07:12:27Z</time>
      </trkpt>
      <trkpt lat="43.73203" lon="3.44954">
        <ele>482.5</ele>
        <time>2015-10-25T07:12:28Z</time>
      </trkpt>
      <trkpt lat="43.73201" lon="3.44952">
        <ele>483.5</ele>
        <time>2015-10-25T07:12:29Z</time>
      </trkpt>
      <trkpt lat="43.732" lon="3.4495">
        <ele>483.5</ele>
        <time>2015-10-25T07:12:30Z</time>
      </trkpt>
      <trkpt lat="43.73198" lon="3.44948">
        <ele>484</ele>
        <time>2015-10-25T07:12:31Z</time>
      </trkpt>
      <trkpt lat="43.73197" lon="3.44946">
        <ele>484.5</ele>
        <time>2015-10-25T07:12:32Z</time>
      </trkpt>
      <trkpt lat="43.73195" lon="3.44944">
        <ele>485</ele>
        <time>2015-10-25T07:12:33Z</time>
      </trkpt>
      <trkpt lat="43.73194" lon="3.44942">
        <ele>485.5</ele>
        <time>2015-10-25T07:12:34Z</time>
      </trkpt>
      <trkpt lat="43.73193" lon="3.4494">
        <ele>486</ele>
        <time>2015-10-25T07:12:35Z</time>
      </trkpt>
      <trkpt lat="43.73191" lon="3.44939">
        <ele>487</ele>
        <time>2015-10-25T07:12:36Z</time>
      </trkpt>
      <trkpt lat="43.73189" lon="3.44937">
        <ele>487</ele>
        <time>2015-10-25T07:12:37Z</time>
      </trkpt>
      <trkpt lat="43.73188" lon="3.44936">
        <ele>487.5</ele>
        <time>2015-10-25T07:12:38Z</time>
      </trkpt>
      <trkpt lat="43.73185" lon="3.44935">
        <ele>489</ele>
        <time>2015-10-25T07:12:39Z</time>
      </trkpt>
      <trkpt lat="43.73184" lon="3.44933">
        <ele>489.5</ele>
        <time>2015-10-25T07:12:40Z</time>
      </trkpt>
      <trkpt lat="43.73182" lon="3.44931">
        <ele>489.5</ele>
        <time>2015-10-25T07:12:41Z</time>
      </trkpt>
      <trkpt lat="43.7318" lon="3.44929">
        <ele>489</ele>
        <time>2015-10-25T07:12:42Z</time>
      </trkpt>
      <trkpt lat="43.73179" lon="3.44927">
        <ele>489</ele>
        <time>2015-10-25T07:12:43Z</time>
      </trkpt>
      <trkpt lat="43.73178" lon="3.44926">
        <ele>488</ele>
        <time>2015-10-25T07:12:44Z</time>
      </trkpt>
      <trkpt lat="43.73175" lon="3.44926">
        <ele>490.5</ele>
        <time>2015-10-25T07:12:45Z</time>
      </trkpt>
      <trkpt lat="43.73173" lon="3.44927">
        <ele>491.5</ele>
        <time>2015-10-25T07:12:46Z</time>
      </trkpt>
      <trkpt lat="43.73171" lon="3.44926">
        <ele>492.5</ele>
        <time>2015-10-25T07:12:47Z</time>
      </trkpt>
      <trkpt lat="43.73169" lon="3.44926">
        <ele>493.5</ele>
        <time>2015-10-25T07:12:48Z</time>
      </trkpt>
      <trkpt lat="43.73166" lon="3.44928">
        <ele>495.5</ele>
        <time>2015-10-25T07:12:49Z</time>
      </trkpt>
      <trkpt lat="43.73164" lon="3.44928">
        <ele>496.5</ele>
        <time>2015-10-25T07:12:50Z</time>
      </trkpt>
      <trkpt lat="43.73162" lon="3.44928">
        <ele>498</ele>
        <time>2015-10-25T07:12:51Z</time>
      </trkpt>
      <trkpt lat="43.7316" lon="3.44927">
        <ele>498.5</ele>
        <time>2015-10-25T07:12:52Z</time>
      </trkpt>
      <trkpt lat="43.73158" lon="3.44926">
        <ele>499</ele>
        <time>2015-10-25T07:12:53Z</time>
      </trkpt>
      <trkpt lat="43.73157" lon="3.44924">
        <ele>498.5</ele>
        <time>2015-10-25T07:12:54Z</time>
      </trkpt>
      <trkpt lat="43.73155" lon="3.44921">
        <ele>498.5</ele>
        <time>2015-10-25T07:12:55Z</time>
      </trkpt>
      <trkpt lat="43.73154" lon="3.44918">
        <ele>498</ele>
        <time>2015-10-25T07:12:56Z</time>
      </trkpt>
      <trkpt lat="43.73152" lon="3.44916">
        <ele>498.5</ele>
        <time>2015-10-25T07:12:57Z</time>
      </trkpt>
      <trkpt lat="43.73151" lon="3.44915">
        <ele>499</ele>
        <time>2015-10-25T07:12:58Z</time>
      </trkpt>
      <trkpt lat="43.73149" lon="3.44913">
        <ele>500</ele>
        <time>2015-10-25T07:12:59Z</time>
      </trkpt>
      <trkpt lat="43.73147" lon="3.44912">
        <ele>501</ele>
        <time>2015-10-25T07:13:00Z</time>
      </trkpt>
      <trkpt lat="43.73145" lon="3.44909">
        <ele>500</ele>
        <time>2015-10-25T07:13:01Z</time>
      </trkpt>
      <trkpt lat="43.73143" lon="3.44908">
        <ele>501.5</ele>
        <time>2015-10-25T07:13:02Z</time>
      </trkpt>
      <trkpt lat="43.73142" lon="3.44907">
        <ele>503</ele>
        <time>2015-10-25T07:13:03Z</time>
      </trkpt>
      <trkpt lat="43.7314" lon="3.44908">
        <ele>506</ele>
        <time>2015-10-25T07:13:04Z</time>
      </trkpt>
      <trkpt lat="43.73139" lon="3.44906">
        <ele>506</ele>
        <time>2015-10-25T07:13:05Z</time>
      </trkpt>
      <trkpt lat="43.73138" lon="3.44905">
        <ele>507.5</ele>
        <time>2015-10-25T07:13:06Z</time>
      </trkpt>
      <trkpt lat="43.73138" lon="3.44905">
        <ele>509</ele>
        <time>2015-10-25T07:13:07Z</time>
      </trkpt>
      <trkpt lat="43.73138" lon="3.44901">
        <ele>507.5</ele>
        <time>2015-10-25T07:13:08Z</time>
      </trkpt>
      <trkpt lat="43.73137" lon="3.44899">
        <ele>508</ele>
        <time>2015-10-25T07:13:09Z</time>
      </trkpt>
      <trkpt lat="43.73137" lon="3.44897">
        <ele>508.5</ele>
        <time>2015-10-25T07:13:09Z</time>
      </trkpt>
      <trkpt lat="43.73137" lon="3.44895">
        <ele>508.5</ele>
        <time>2015-10-25T07:13:10Z</time>
      </trkpt>
      <trkpt lat="43.73137" lon="3.44891">
        <ele>507.5</ele>
        <time>2015-10-25T07:13:11Z</time>
      </trkpt>
      <trkpt lat="43.73139" lon="3.44888">
        <ele>505.5</ele>
        <time>2015-10-25T07:13:13Z</time>
      </trkpt>
      <trkpt lat="43.73141" lon="3.44884">
        <ele>503.5</ele>
        <time>2015-10-25T07:13:13Z</time>
      </trkpt>
      <trkpt lat="43.73142" lon="3.44881">
        <ele>502.5</ele>
        <time>2015-10-25T07:13:14Z</time>
      </trkpt>
      <trkpt lat="43.73143" lon="3.44879">
        <ele>501.5</ele>
        <time>2015-10-25T07:13:15Z</time>
      </trkpt>
      <trkpt lat="43.73144" lon="3.44878">
        <ele>501</ele>
        <time>2015-10-25T07:13:16Z</time>
      </trkpt>
      <trkpt lat="43.73146" lon="3.44877">
        <ele>500</ele>
        <time>2015-10-25T07:13:17Z</time>
      </trkpt>
      <trkpt lat="43.73148" lon="3.44877">
        <ele>499</ele>
        <time>2015-10-25T07:13:18Z</time>
      </trkpt>
      <trkpt lat="43.73149" lon="3.44876">
        <ele>498</ele>
        <time>2015-10-25T07:13:19Z</time>
      </trkpt>
      <trkpt lat="43.7315" lon="3.44876">
        <ele>498</ele>
        <time>2015-10-25T07:13:20Z</time>
      </trkpt>
      <trkpt lat="43.73151" lon="3.44876">
        <ele>497.5</ele>
        <time>2015-10-25T07:13:21Z</time>
      </trkpt>
      <trkpt lat="43.73153" lon="3.44876">
        <ele>497</ele>
        <time>2015-10-25T07:13:22Z</time>
      </trkpt>
      <trkpt lat="43.73154" lon="3.44876">
        <ele>497</ele>
        <time>2015-10-25T07:13:23Z</time>
      </trkpt>
      <trkpt lat="43.73155" lon="3.44877">
        <ele>496.5</ele>
        <time>2015-10-25T07:13:24Z</time>
      </trkpt>
      <trkpt lat="43.73156" lon="3.44877">
        <ele>496</ele>
        <time>2015-10-25T07:13:25Z</time>
      </trkpt>
      <trkpt lat="43.73156" lon="3.44876">
        <ele>496</ele>
        <time>2015-10-25T07:13:26Z</time>
      </trkpt>
      <trkpt lat="43.73157" lon="3.44876">
        <ele>495.5</ele>
        <time>2015-10-25T07:13:27Z</time>
      </trkpt>
      <trkpt lat="43.73158" lon="3.44876">
        <ele>495.5</ele>
        <time>2015-10-25T07:13:28Z</time>
      </trkpt>
      <trkpt lat="43.73158" lon="3.44876">
        <ele>496</ele>
        <time>2015-10-25T07:13:29Z</time>
      </trkpt>
      <trkpt lat="43.73158" lon="3.44875">
        <ele>497.5</ele>
        <time>2015-10-25T07:13:30Z</time>
      </trkpt>
      <trkpt lat="43.73157" lon="3.44874">
        <ele>498.5</ele>
        <time>2015-10-25T07:13:31Z</time>
      </trkpt>
      <trkpt lat="43.73156" lon="3.44873">
        <ele>499.5</ele>
        <time>2015-10-25T07:13:32Z</time>
      </trkpt>
      <trkpt lat="43.73157" lon="3.44873">
        <ele>498.5</ele>
        <time>2015-10-25T07:13:35Z</time>
      </trkpt>
      <trkpt lat="43.73157" lon="3.44872">
        <ele>500</ele>
        <time>2015-10-25T07:13:47Z</time>
      </trkpt>
      <trkpt lat="43.73158" lon="3.44873">
        <ele>499.5</ele>
        <time>2015-10-25T07:13:51Z</time>
      </trkpt>
      <trkpt lat="43.73158" lon="3.44875">
        <ele>497</ele>
        <time>2015-10-25T07:13:53Z</time>
      </trkpt>
      <trkpt lat="43.73159" lon="3.44877">
        <ele>497</ele>
        <time>2015-10-25T07:13:54Z</time>
      </trkpt>
      <trkpt lat="43.7316" lon="3.44879">
        <ele>497.5</ele>
        <time>2015-10-25T07:13:55Z</time>
      </trkpt>
      <trkpt lat="43.7316" lon="3.4488">
        <ele>498</ele>
        <time>2015-10-25T07:13:56Z</time>
      </trkpt>
      <trkpt lat="43.73161" lon="3.44881">
        <ele>498</ele>
        <time>2015-10-25T07:13:57Z</time>
      </trkpt>
      <trkpt lat="43.73162" lon="3.44882">
        <ele>498</ele>
        <time>2015-10-25T07:13:58Z</time>
      </trkpt>
      <trkpt lat="43.73162" lon="3.44882">
        <ele>498</ele>
        <time>2015-10-25T07:14:00Z</time>
      </trkpt>
      <trkpt lat="43.73163" lon="3.44882">
        <ele>499</ele>
        <time>2015-10-25T07:14:06Z</time>
      </trkpt>
      <trkpt lat="43.73162" lon="3.44879">
        <ele>501.5</ele>
        <time>2015-10-25T07:14:14Z</time>
      </trkpt>
      <trkpt lat="43.73162" lon="3.4488">
        <ele>502</ele>
        <time>2015-10-25T07:14:21Z</time>
      </trkpt>
      <trkpt lat="43.73162" lon="3.44881">
        <ele>500</ele>
        <time>2015-10-25T07:14:35Z</time>
      </trkpt>
      <trkpt lat="43.73162" lon="3.44884">
        <ele>497.5</ele>
        <time>2015-10-25T07:14:53Z</time>
      </trkpt>
      <trkpt lat="43.73162" lon="3.44883">
        <ele>498</ele>
        <time>2015-10-25T07:14:56Z</time>
      </trkpt>
      <trkpt lat="43.73162" lon="3.44884">
        <ele>497</ele>
        <time>2015-10-25T07:15:02Z</time>
      </trkpt>
      <trkpt lat="43.73162" lon="3.44883">
        <ele>498</ele>
        <time>2015-10-25T07:15:05Z</time>
      </trkpt>
      <trkpt lat="43.73162" lon="3.44881">
        <ele>499</ele>
        <time>2015-10-25T07:15:10Z</time>
      </trkpt>
      <trkpt lat="43.73162" lon="3.44877">
        <ele>502.5</ele>
        <time>2015-10-25T07:14:52Z</time>
      </trkpt>
      <trkpt lat="43.73162" lon="3.44879">
        <ele>501</ele>
        <time>2015-10-25T07:14:59Z</time>
      </trkpt>
      <trkpt lat="43.73162" lon="3.4488">
        <ele>501</ele>
        <time>2015-10-25T07:15:04Z</time>
      </trkpt>
      <trkpt lat="43.73162" lon="3.44879">
        <ele>503.5</ele>
        <time>2015-10-25T07:15:14Z</time>
      </trkpt>
      <trkpt lat="43.73162" lon="3.44881">
        <ele>502.5</ele>
        <time>2015-10-25T07:15:21Z</time>
      </trkpt>
      <trkpt lat="43.73162" lon="3.4488">
        <ele>502.5</ele>
        <time>2015-10-25T07:15:46Z</time>
      </trkpt>
      <trkpt lat="43.73162" lon="3.44881">
        <ele>501.5</ele>
        <time>2015-10-25T07:15:35Z</time>
      </trkpt>
      <trkpt lat="43.73162" lon="3.44881">
        <ele>501.5</ele>
        <time>2015-10-25T07:15:51Z</time>
      </trkpt>
      <trkpt lat="43.73162" lon="3.44881">
        <ele>501</ele>
        <time>2015-10-25T07:15:53Z</time>
      </trkpt>
      <trkpt lat="43.73162" lon="3.44881">
        <ele>500</ele>
        <time>2015-10-25T07:15:57Z</time>
      </trkpt>
      <trkpt lat="43.73163" lon="3.44883">
        <ele>499</ele>
        <time>2015-10-25T07:16:23Z</time>
      </trkpt>
      <trkpt lat="43.73162" lon="3.44883">
        <ele>500</ele>
        <time>2015-10-25T07:16:49Z</time>
      </trkpt>
      <trkpt lat="43.73161" lon="3.44883">
        <ele>499</ele>
        <time>2015-10-25T07:17:04Z</time>
      </trkpt>
      <trkpt lat="43.73162" lon="3.44884">
        <ele>498.5</ele>
        <time>2015-10-25T07:17:06Z</time>
      </trkpt>
      <trkpt lat="43.73164" lon="3.44885">
        <ele>498.5</ele>
        <time>2015-10-25T07:17:07Z</time>
      </trkpt>
      <trkpt lat="43.73166" lon="3.44886">
        <ele>498.5</ele>
        <time>2015-10-25T07:17:08Z</time>
      </trkpt>
      <trkpt lat="43.73167" lon="3.44886">
        <ele>499</ele>
        <time>2015-10-25T07:17:09Z</time>
      </trkpt>
      <trkpt lat="43.73169" lon="3.44887">
        <ele>499</ele>
        <time>2015-10-25T07:17:10Z</time>
      </trkpt>
      <trkpt lat="43.7317" lon="3.44887">
        <ele>499</ele>
        <time>2015-10-25T07:17:11Z</time>
      </trkpt>
      <trkpt lat="43.73172" lon="3.44889">
        <ele>499</ele>
        <time>2015-10-25T07:17:12Z</time>
      </trkpt>
      <trkpt lat="43.73173" lon="3.44889">
        <ele>499</ele>
        <time>2015-10-25T07:17:13Z</time>
      </trkpt>
      <trkpt lat="43.73175" lon="3.4489">
        <ele>499.5</ele>
        <time>2015-10-25T07:17:14Z</time>
      </trkpt>
      <trkpt lat="43.73176" lon="3.4489">
        <ele>499.5</ele>
        <time>2015-10-25T07:17:15Z</time>
      </trkpt>
      <trkpt lat="43.73178" lon="3.44891">
        <ele>499.5</ele>
        <time>2015-10-25T07:17:16Z</time>
      </trkpt>
      <trkpt lat="43.73179" lon="3.44892">
        <ele>500</ele>
        <time>2015-10-25T07:17:17Z</time>
      </trkpt>
      <trkpt lat="43.7318" lon="3.44892">
        <ele>500.5</ele>
        <time>2015-10-25T07:17:18Z</time>
      </trkpt>
      <trkpt lat="43.73182" lon="3.44893">
        <ele>500.5</ele>
        <time>2015-10-25T07:17:19Z</time>
      </trkpt>
      <trkpt lat="43.73184" lon="3.44893">
        <ele>501.5</ele>
        <time>2015-10-25T07:17:20Z</time>
      </trkpt>
      <trkpt lat="43.73185" lon="3.44894">
        <ele>501.5</ele>
        <time>2015-10-25T07:17:21Z</time>
      </trkpt>
      <trkpt lat="43.73187" lon="3.44895">
        <ele>501</ele>
        <time>2015-10-25T07:17:22Z</time>
      </trkpt>
      <trkpt lat="43.73188" lon="3.44895">
        <ele>501</ele>
        <time>2015-10-25T07:17:23Z</time>
      </trkpt>
      <trkpt lat="43.7319" lon="3.44896">
        <ele>501</ele>
        <time>2015-10-25T07:17:24Z</time>
      </trkpt>
      <trkpt lat="43.73192" lon="3.44898">
        <ele>500</ele>
        <time>2015-10-25T07:17:25Z</time>
      </trkpt>
      <trkpt lat="43.73194" lon="3.44899">
        <ele>500</ele>
        <time>2015-10-25T07:17:26Z</time>
      </trkpt>
      <trkpt lat="43.73196" lon="3.449">
        <ele>499.5</ele>
        <time>2015-10-25T07:17:27Z</time>
      </trkpt>
      <trkpt lat="43.73197" lon="3.449">
        <ele>500.5</ele>
        <time>2015-10-25T07:17:28Z</time>
      </trkpt>
      <trkpt lat="43.73199" lon="3.449">
        <ele>501</ele>
        <time>2015-10-25T07:17:29Z</time>
      </trkpt>
      <trkpt lat="43.732" lon="3.449">
        <ele>502.5</ele>
        <time>2015-10-25T07:17:30Z</time>
      </trkpt>
      <trkpt lat="43.73201" lon="3.44899">
        <ele>504</ele>
        <time>2015-10-25T07:17:31Z</time>
      </trkpt>
      <trkpt lat="43.73203" lon="3.44898">
        <ele>505.5</ele>
        <time>2015-10-25T07:17:32Z</time>
      </trkpt>
      <trkpt lat="43.73204" lon="3.44899">
        <ele>505.5</ele>
        <time>2015-10-25T07:17:33Z</time>
      </trkpt>
      <trkpt lat="43.73206" lon="3.449">
        <ele>506</ele>
        <time>2015-10-25T07:17:34Z</time>
      </trkpt>
      <trkpt lat="43.73208" lon="3.44901">
        <ele>506</ele>
        <time>2015-10-25T07:17:35Z</time>
      </trkpt>
      <trkpt lat="43.73211" lon="3.44902">
        <ele>506</ele>
        <time>2015-10-25T07:17:36Z</time>
      </trkpt>
      <trkpt lat="43.73213" lon="3.44903">
        <ele>507.5</ele>
        <time>2015-10-25T07:17:37Z</time>
      </trkpt>
      <trkpt lat="43.73214" lon="3.44903">
        <ele>508.5</ele>
        <time>2015-10-25T07:17:38Z</time>
      </trkpt>
      <trkpt lat="43.73217" lon="3.44904">
        <ele>508.5</ele>
        <time>2015-10-25T07:17:39Z</time>
      </trkpt>
      <trkpt lat="43.73219" lon="3.44904">
        <ele>509</ele>
        <time>2015-10-25T07:17:40Z</time>
      </trkpt>
      <trkpt lat="43.7322" lon="3.44904">
        <ele>511</ele>
        <time>2015-10-25T07:17:41Z</time>
      </trkpt>
      <trkpt lat="43.73222" lon="3.44905">
        <ele>511</ele>
        <time>2015-10-25T07:17:42Z</time>
      </trkpt>
      <trkpt lat="43.73224" lon="3.44905">
        <ele>511</ele>
        <time>2015-10-25T07:17:43Z</time>
      </trkpt>
      <trkpt lat="43.73226" lon="3.44905">
        <ele>512</ele>
        <time>2015-10-25T07:17:44Z</time>
      </trkpt>
      <trkpt lat="43.7323" lon="3.44907">
        <ele>512.5</ele>
        <time>2015-10-25T07:17:46Z</time>
      </trkpt>
      <trkpt lat="43.73232" lon="3.44908">
        <ele>512.5</ele>
        <time>2015-10-25T07:17:47Z</time>
      </trkpt>
      <trkpt lat="43.73234" lon="3.44908">
        <ele>513.5</ele>
        <time>2015-10-25T07:17:48Z</time>
      </trkpt>
      <trkpt lat="43.73236" lon="3.44909">
        <ele>513</ele>
        <time>2015-10-25T07:17:49Z</time>
      </trkpt>
      <trkpt lat="43.73238" lon="3.4491">
        <ele>513.5</ele>
        <time>2015-10-25T07:17:50Z</time>
      </trkpt>
      <trkpt lat="43.7324" lon="3.44911">
        <ele>513.5</ele>
        <time>2015-10-25T07:17:51Z</time>
      </trkpt>
      <trkpt lat="43.73242" lon="3.44911">
        <ele>514</ele>
        <time>2015-10-25T07:17:52Z</time>
      </trkpt>
      <trkpt lat="43.73244" lon="3.44912">
        <ele>513.5</ele>
        <time>2015-10-25T07:17:53Z</time>
      </trkpt>
      <trkpt lat="43.73246" lon="3.44913">
        <ele>514</ele>
        <time>2015-10-25T07:17:54Z</time>
      </trkpt>
      <trkpt lat="43.73248" lon="3.44913">
        <ele>514</ele>
        <time>2015-10-25T07:17:55Z</time>
      </trkpt>
      <trkpt lat="43.7325" lon="3.44913">
        <ele>514.5</ele>
        <time>2015-10-25T07:17:56Z</time>
      </trkpt>
      <trkpt lat="43.73251" lon="3.44913">
        <ele>515</ele>
        <time>2015-10-25T07:17:57Z</time>
      </trkpt>
      <trkpt lat="43.73254" lon="3.44914">
        <ele>514.5</ele>
        <time>2015-10-25T07:17:58Z</time>
      </trkpt>
      <trkpt lat="43.73256" lon="3.44915">
        <ele>514</ele>
        <time>2015-10-25T07:17:59Z</time>
      </trkpt>
      <trkpt lat="43.73258" lon="3.44916">
        <ele>513</ele>
        <time>2015-10-25T07:18:00Z</time>
      </trkpt>
      <trkpt lat="43.7326" lon="3.44917">
        <ele>512</ele>
        <time>2015-10-25T07:18:01Z</time>
      </trkpt>
      <trkpt lat="43.73262" lon="3.44918">
        <ele>511</ele>
        <time>2015-10-25T07:18:02Z</time>
      </trkpt>
      <trkpt lat="43.73264" lon="3.44919">
        <ele>511.5</ele>
        <time>2015-10-25T07:18:03Z</time>
      </trkpt>
      <trkpt lat="43.73268" lon="3.44919">
        <ele>511.5</ele>
        <time>2015-10-25T07:18:05Z</time>
      </trkpt>
      <trkpt lat="43.7327" lon="3.44919">
        <ele>512</ele>
        <time>2015-10-25T07:18:06Z</time>
      </trkpt>
      <trkpt lat="43.73271" lon="3.44919">
        <ele>512</ele>
        <time>2015-10-25T07:18:07Z</time>
      </trkpt>
      <trkpt lat="43.73274" lon="3.44921">
        <ele>511</ele>
        <time>2015-10-25T07:18:08Z</time>
      </trkpt>
      <trkpt lat="43.73276" lon="3.44921">
        <ele>510.5</ele>
        <time>2015-10-25T07:18:09Z</time>
      </trkpt>
      <trkpt lat="43.73278" lon="3.44922">
        <ele>510.5</ele>
        <time>2015-10-25T07:18:10Z</time>
      </trkpt>
      <trkpt lat="43.7328" lon="3.44922">
        <ele>510.5</ele>
        <time>2015-10-25T07:18:11Z</time>
      </trkpt>
      <trkpt lat="43.73282" lon="3.44922">
        <ele>510.5</ele>
        <time>2015-10-25T07:18:12Z</time>
      </trkpt>
      <trkpt lat="43.73284" lon="3.44923">
        <ele>510</ele>
        <time>2015-10-25T07:18:13Z</time>
      </trkpt>
      <trkpt lat="43.73286" lon="3.44923">
        <ele>510.5</ele>
        <time>2015-10-25T07:18:14Z</time>
      </trkpt>
      <trkpt lat="43.73288" lon="3.44923">
        <ele>510.5</ele>
        <time>2015-10-25T07:18:15Z</time>
      </trkpt>
      <trkpt lat="43.73292" lon="3.44923">
        <ele>510</ele>
        <time>2015-10-25T07:18:17Z</time>
      </trkpt>
      <trkpt lat="43.73294" lon="3.44923">
        <ele>509.5</ele>
        <time>2015-10-25T07:18:18Z</time>
      </trkpt>
      <trkpt lat="43.73296" lon="3.44924">
        <ele>509.5</ele>
        <time>2015-10-25T07:18:19Z</time>
      </trkpt>
      <trkpt lat="43.73298" lon="3.44923">
        <ele>510</ele>
        <time>2015-10-25T07:18:20Z</time>
      </trkpt>
      <trkpt lat="43.733" lon="3.44922">
        <ele>509</ele>
        <time>2015-10-25T07:18:21Z</time>
      </trkpt>
      <trkpt lat="43.73302" lon="3.44922">
        <ele>510.5</ele>
        <time>2015-10-25T07:18:22Z</time>
      </trkpt>
      <trkpt lat="43.73304" lon="3.44922">
        <ele>511</ele>
        <time>2015-10-25T07:18:23Z</time>
      </trkpt>
      <trkpt lat="43.73305" lon="3.44921">
        <ele>512</ele>
        <time>2015-10-25T07:18:24Z</time>
      </trkpt>
      <trkpt lat="43.73307" lon="3.44921">
        <ele>512</ele>
        <time>2015-10-25T07:18:25Z</time>
      </trkpt>
      <trkpt lat="43.7331" lon="3.44921">
        <ele>512</ele>
        <time>2015-10-25T07:18:26Z</time>
      </trkpt>
      <trkpt lat="43.73312" lon="3.44921">
        <ele>512.5</ele>
        <time>2015-10-25T07:18:27Z</time>
      </trkpt>
      <trkpt lat="43.73315" lon="3.44921">
        <ele>512.5</ele>
        <time>2015-10-25T07:18:28Z</time>
      </trkpt>
      <trkpt lat="43.73317" lon="3.44921">
        <ele>512.5</ele>
        <time>2015-10-25T07:18:29Z</time>
      </trkpt>
      <trkpt lat="43.7332" lon="3.44922">
        <ele>512.5</ele>
        <time>2015-10-25T07:18:30Z</time>
      </trkpt>
      <trkpt lat="43.73322" lon="3.44921">
        <ele>512.5</ele>
        <time>2015-10-25T07:18:31Z</time>
      </trkpt>
      <trkpt lat="43.73324" lon="3.44921">
        <ele>513</ele>
        <time>2015-10-25T07:18:32Z</time>
      </trkpt>
      <trkpt lat="43.73326" lon="3.44921">
        <ele>513</ele>
        <time>2015-10-25T07:18:33Z</time>
      </trkpt>
      <trkpt lat="43.73329" lon="3.44921">
        <ele>513</ele>
        <time>2015-10-25T07:18:34Z</time>
      </trkpt>
      <trkpt lat="43.73331" lon="3.44921">
        <ele>513.5</ele>
        <time>2015-10-25T07:18:35Z</time>
      </trkpt>
      <trkpt lat="43.73333" lon="3.44921">
        <ele>513.5</ele>
        <time>2015-10-25T07:18:36Z</time>
      </trkpt>
      <trkpt lat="43.73335" lon="3.44921">
        <ele>513.5</ele>
        <time>2015-10-25T07:18:37Z</time>
      </trkpt>
      <trkpt lat="43.73338" lon="3.44922">
        <ele>513</ele>
        <time>2015-10-25T07:18:38Z</time>
      </trkpt>
      <trkpt lat="43.7334" lon="3.44922">
        <ele>513</ele>
        <time>2015-10-25T07:18:39Z</time>
      </trkpt>
      <trkpt lat="43.73342" lon="3.44923">
        <ele>513</ele>
        <time>2015-10-25T07:18:40Z</time>
      </trkpt>
      <trkpt lat="43.73344" lon="3.44925">
        <ele>513</ele>
        <time>2015-10-25T07:18:41Z</time>
      </trkpt>
      <trkpt lat="43.73346" lon="3.44927">
        <ele>513</ele>
        <time>2015-10-25T07:18:42Z</time>
      </trkpt>
      <trkpt lat="43.73348" lon="3.4493">
        <ele>513.5</ele>
        <time>2015-10-25T07:18:43Z</time>
      </trkpt>
      <trkpt lat="43.73349" lon="3.44932">
        <ele>514</ele>
        <time>2015-10-25T07:18:44Z</time>
      </trkpt>
      <trkpt lat="43.7335" lon="3.44934">
        <ele>514.5</ele>
        <time>2015-10-25T07:18:45Z</time>
      </trkpt>
      <trkpt lat="43.7335" lon="3.44937">
        <ele>515</ele>
        <time>2015-10-25T07:18:46Z</time>
      </trkpt>
      <trkpt lat="43.7335" lon="3.44939">
        <ele>515.5</ele>
        <time>2015-10-25T07:18:47Z</time>
      </trkpt>
      <trkpt lat="43.7335" lon="3.44942">
        <ele>516</ele>
        <time>2015-10-25T07:18:48Z</time>
      </trkpt>
      <trkpt lat="43.73349" lon="3.44945">
        <ele>516.5</ele>
        <time>2015-10-25T07:18:49Z</time>
      </trkpt>
      <trkpt lat="43.73348" lon="3.44948">
        <ele>516.5</ele>
        <time>2015-10-25T07:18:50Z</time>
      </trkpt>
      <trkpt lat="43.73347" lon="3.4495">
        <ele>516.5</ele>
        <time>2015-10-25T07:18:51Z</time>
      </trkpt>
      <trkpt lat="43.73346" lon="3.44953">
        <ele>517.5</ele>
        <time>2015-10-25T07:18:52Z</time>
      </trkpt>
      <trkpt lat="43.73345" lon="3.44955">
        <ele>518</ele>
        <time>2015-10-25T07:18:53Z</time>
      </trkpt>
      <trkpt lat="43.73344" lon="3.44958">
        <ele>518</ele>
        <time>2015-10-25T07:18:54Z</time>
      </trkpt>
      <trkpt lat="43.73342" lon="3.4496">
        <ele>518.5</ele>
        <time>2015-10-25T07:18:55Z</time>
      </trkpt>
      <trkpt lat="43.73341" lon="3.44962">
        <ele>518.5</ele>
        <time>2015-10-25T07:18:56Z</time>
      </trkpt>
      <trkpt lat="43.7334" lon="3.44964">
        <ele>518</ele>
        <time>2015-10-25T07:18:57Z</time>
      </trkpt>
      <trkpt lat="43.73341" lon="3.44969">
        <ele>519</ele>
        <time>2015-10-25T07:18:58Z</time>
      </trkpt>
      <trkpt lat="43.7334" lon="3.44971">
        <ele>519</ele>
        <time>2015-10-25T07:18:59Z</time>
      </trkpt>
      <trkpt lat="43.7334" lon="3.44974">
        <ele>519.5</ele>
        <time>2015-10-25T07:19:00Z</time>
      </trkpt>
      <trkpt lat="43.73339" lon="3.44977">
        <ele>519.5</ele>
        <time>2015-10-25T07:19:01Z</time>
      </trkpt>
      <trkpt lat="43.73338" lon="3.4498">
        <ele>518</ele>
        <time>2015-10-25T07:19:03Z</time>
      </trkpt>
      <trkpt lat="43.73337" lon="3.44983">
        <ele>518</ele>
        <time>2015-10-25T07:19:04Z</time>
      </trkpt>
      <trkpt lat="43.73335" lon="3.44985">
        <ele>517.5</ele>
        <time>2015-10-25T07:19:05Z</time>
      </trkpt>
      <trkpt lat="43.73334" lon="3.44987">
        <ele>517</ele>
        <time>2015-10-25T07:19:06Z</time>
      </trkpt>
      <trkpt lat="43.73333" lon="3.44989">
        <ele>516.5</ele>
        <time>2015-10-25T07:19:07Z</time>
      </trkpt>
      <trkpt lat="43.73332" lon="3.44992">
        <ele>516.5</ele>
        <time>2015-10-25T07:19:08Z</time>
      </trkpt>
      <trkpt lat="43.73331" lon="3.44995">
        <ele>516.5</ele>
        <time>2015-10-25T07:19:09Z</time>
      </trkpt>
      <trkpt lat="43.73329" lon="3.45">
        <ele>516.5</ele>
        <time>2015-10-25T07:19:11Z</time>
      </trkpt>
      <trkpt lat="43.73328" lon="3.45004">
        <ele>516.5</ele>
        <time>2015-10-25T07:19:12Z</time>
      </trkpt>
      <trkpt lat="43.73328" lon="3.45007">
        <ele>517</ele>
        <time>2015-10-25T07:19:13Z</time>
      </trkpt>
      <trkpt lat="43.73328" lon="3.4501">
        <ele>517</ele>
        <time>2015-10-25T07:19:14Z</time>
      </trkpt>
      <trkpt lat="43.73328" lon="3.45013">
        <ele>517.5</ele>
        <time>2015-10-25T07:19:15Z</time>
      </trkpt>
      <trkpt lat="43.73329" lon="3.45016">
        <ele>517.5</ele>
        <time>2015-10-25T07:19:16Z</time>
      </trkpt>
      <trkpt lat="43.73329" lon="3.4502">
        <ele>518</ele>
        <time>2015-10-25T07:19:17Z</time>
      </trkpt>
      <trkpt lat="43.73329" lon="3.45023">
        <ele>518.5</ele>
        <time>2015-10-25T07:19:18Z</time>
      </trkpt>
      <trkpt lat="43.73329" lon="3.45026">
        <ele>518.5</ele>
        <time>2015-10-25T07:19:19Z</time>
      </trkpt>
      <trkpt lat="43.73329" lon="3.45029">
        <ele>518.5</ele>
        <time>2015-10-25T07:19:20Z</time>
      </trkpt>
      <trkpt lat="43.73329" lon="3.45032">
        <ele>519</ele>
        <time>2015-10-25T07:19:21Z</time>
      </trkpt>
      <trkpt lat="43.73329" lon="3.45034">
        <ele>519</ele>
        <time>2015-10-25T07:19:22Z</time>
      </trkpt>
      <trkpt lat="43.7333" lon="3.45037">
        <ele>519.5</ele>
        <time>2015-10-25T07:19:23Z</time>
      </trkpt>
      <trkpt lat="43.73331" lon="3.4504">
        <ele>519.5</ele>
        <time>2015-10-25T07:19:24Z</time>
      </trkpt>
      <trkpt lat="43.73331" lon="3.45043">
        <ele>519.5</ele>
        <time>2015-10-25T07:19:25Z</time>
      </trkpt>
      <trkpt lat="43.73332" lon="3.45046">
        <ele>519.5</ele>
        <time>2015-10-25T07:19:26Z</time>
      </trkpt>
      <trkpt lat="43.73334" lon="3.45049">
        <ele>520</ele>
        <time>2015-10-25T07:19:27Z</time>
      </trkpt>
      <trkpt lat="43.73335" lon="3.45052">
        <ele>520.5</ele>
        <time>2015-10-25T07:19:28Z</time>
      </trkpt>
      <trkpt lat="43.73336" lon="3.45055">
        <ele>521</ele>
        <time>2015-10-25T07:19:29Z</time>
      </trkpt>
      <trkpt lat="43.73337" lon="3.4506">
        <ele>521.5</ele>
        <time>2015-10-25T07:19:31Z</time>
      </trkpt>
      <trkpt lat="43.73338" lon="3.45063">
        <ele>522</ele>
        <time>2015-10-25T07:19:32Z</time>
      </trkpt>
      <trkpt lat="43.73338" lon="3.45066">
        <ele>522</ele>
        <time>2015-10-25T07:19:33Z</time>
      </trkpt>
      <trkpt lat="43.73339" lon="3.45068">
        <ele>522</ele>
        <time>2015-10-25T07:19:34Z</time>
      </trkpt>
      <trkpt lat="43.73339" lon="3.4507">
        <ele>522</ele>
        <time>2015-10-25T07:19:35Z</time>
      </trkpt>
      <trkpt lat="43.7334" lon="3.45073">
        <ele>522</ele>
        <time>2015-10-25T07:19:36Z</time>
      </trkpt>
      <trkpt lat="43.7334" lon="3.45076">
        <ele>522</ele>
        <time>2015-10-25T07:19:37Z</time>
      </trkpt>
      <trkpt lat="43.73341" lon="3.45078">
        <ele>522</ele>
        <time>2015-10-25T07:19:38Z</time>
      </trkpt>
      <trkpt lat="43.73341" lon="3.45081">
        <ele>522.5</ele>
        <time>2015-10-25T07:19:39Z</time>
      </trkpt>
      <trkpt lat="43.73342" lon="3.45084">
        <ele>523</ele>
        <time>2015-10-25T07:19:40Z</time>
      </trkpt>
      <trkpt lat="43.73343" lon="3.45087">
        <ele>523</ele>
        <time>2015-10-25T07:19:41Z</time>
      </trkpt>
      <trkpt lat="43.73344" lon="3.45089">
        <ele>523</ele>
        <time>2015-10-25T07:19:42Z</time>
      </trkpt>
      <trkpt lat="43.73345" lon="3.45092">
        <ele>523</ele>
        <time>2015-10-25T07:19:43Z</time>
      </trkpt>
      <trkpt lat="43.73345" lon="3.45095">
        <ele>523</ele>
        <time>2015-10-25T07:19:44Z</time>
      </trkpt>
      <trkpt lat="43.73346" lon="3.45097">
        <ele>523.5</ele>
        <time>2015-10-25T07:19:45Z</time>
      </trkpt>
      <trkpt lat="43.73346" lon="3.451">
        <ele>523.5</ele>
        <time>2015-10-25T07:19:46Z</time>
      </trkpt>
      <trkpt lat="43.73347" lon="3.45103">
        <ele>523.5</ele>
        <time>2015-10-25T07:19:47Z</time>
      </trkpt>
      <trkpt lat="43.73347" lon="3.45106">
        <ele>524</ele>
        <time>2015-10-25T07:19:48Z</time>
      </trkpt>
      <trkpt lat="43.73348" lon="3.45109">
        <ele>524</ele>
        <time>2015-10-25T07:19:49Z</time>
      </trkpt>
      <trkpt lat="43.73348" lon="3.45112">
        <ele>524</ele>
        <time>2015-10-25T07:19:50Z</time>
      </trkpt>
      <trkpt lat="43.73348" lon="3.45114">
        <ele>524.5</ele>
        <time>2015-10-25T07:19:51Z</time>
      </trkpt>
      <trkpt lat="43.73347" lon="3.45116">
        <ele>523</ele>
        <time>2015-10-25T07:19:52Z</time>
      </trkpt>
      <trkpt lat="43.73347" lon="3.45119">
        <ele>523.5</ele>
        <time>2015-10-25T07:19:53Z</time>
      </trkpt>
      <trkpt lat="43.73347" lon="3.45122">
        <ele>524.5</ele>
        <time>2015-10-25T07:19:54Z</time>
      </trkpt>
      <trkpt lat="43.73347" lon="3.45125">
        <ele>524</ele>
        <time>2015-10-25T07:19:54Z</time>
      </trkpt>
      <trkpt lat="43.73347" lon="3.45127">
        <ele>524</ele>
        <time>2015-10-25T07:19:55Z</time>
      </trkpt>
      <trkpt lat="43.73348" lon="3.45131">
        <ele>525</ele>
        <time>2015-10-25T07:19:56Z</time>
      </trkpt>
      <trkpt lat="43.73348" lon="3.45133">
        <ele>525.5</ele>
        <time>2015-10-25T07:19:58Z</time>
      </trkpt>
      <trkpt lat="43.73348" lon="3.45136">
        <ele>526</ele>
        <time>2015-10-25T07:19:58Z</time>
      </trkpt>
      <trkpt lat="43.73349" lon="3.45139">
        <ele>526</ele>
        <time>2015-10-25T07:20:00Z</time>
      </trkpt>
      <trkpt lat="43.7335" lon="3.45142">
        <ele>527</ele>
        <time>2015-10-25T07:20:01Z</time>
      </trkpt>
      <trkpt lat="43.7335" lon="3.45145">
        <ele>527.5</ele>
        <time>2015-10-25T07:20:01Z</time>
      </trkpt>
      <trkpt lat="43.73351" lon="3.45148">
        <ele>527.5</ele>
        <time>2015-10-25T07:20:03Z</time>
      </trkpt>
      <trkpt lat="43.73353" lon="3.45152">
        <ele>530</ele>
        <time>2015-10-25T07:20:03Z</time>
      </trkpt>
      <trkpt lat="43.73354" lon="3.45155">
        <ele>530.5</ele>
        <time>2015-10-25T07:20:05Z</time>
      </trkpt>
      <trkpt lat="43.73355" lon="3.45157">
        <ele>530.5</ele>
        <time>2015-10-25T07:20:05Z</time>
      </trkpt>
      <trkpt lat="43.73355" lon="3.4516">
        <ele>530.5</ele>
        <time>2015-10-25T07:20:06Z</time>
      </trkpt>
      <trkpt lat="43.73355" lon="3.45162">
        <ele>530.5</ele>
        <time>2015-10-25T07:20:07Z</time>
      </trkpt>
      <trkpt lat="43.73355" lon="3.45165">
        <ele>531</ele>
        <time>2015-10-25T07:20:08Z</time>
      </trkpt>
      <trkpt lat="43.73355" lon="3.45167">
        <ele>530.5</ele>
        <time>2015-10-25T07:20:09Z</time>
      </trkpt>
      <trkpt lat="43.73355" lon="3.4517">
        <ele>531</ele>
        <time>2015-10-25T07:20:10Z</time>
      </trkpt>
      <trkpt lat="43.73355" lon="3.45173">
        <ele>531.5</ele>
        <time>2015-10-25T07:20:11Z</time>
      </trkpt>
      <trkpt lat="43.73356" lon="3.45176">
        <ele>532.5</ele>
        <time>2015-10-25T07:20:12Z</time>
      </trkpt>
      <trkpt lat="43.73358" lon="3.45178">
        <ele>533.5</ele>
        <time>2015-10-25T07:20:13Z</time>
      </trkpt>
      <trkpt lat="43.73358" lon="3.4518">
        <ele>533.5</ele>
        <time>2015-10-25T07:20:14Z</time>
      </trkpt>
      <trkpt lat="43.73357" lon="3.45183">
        <ele>533</ele>
        <time>2015-10-25T07:20:15Z</time>
      </trkpt>
      <trkpt lat="43.73358" lon="3.45185">
        <ele>533</ele>
        <time>2015-10-25T07:20:16Z</time>
      </trkpt>
      <trkpt lat="43.73359" lon="3.45188">
        <ele>534.5</ele>
        <time>2015-10-25T07:20:17Z</time>
      </trkpt>
      <trkpt lat="43.73359" lon="3.4519">
        <ele>535</ele>
        <time>2015-10-25T07:20:18Z</time>
      </trkpt>
      <trkpt lat="43.7336" lon="3.45193">
        <ele>536</ele>
        <time>2015-10-25T07:20:19Z</time>
      </trkpt>
      <trkpt lat="43.7336" lon="3.45195">
        <ele>536</ele>
        <time>2015-10-25T07:20:20Z</time>
      </trkpt>
      <trkpt lat="43.7336" lon="3.45198">
        <ele>536.5</ele>
        <time>2015-10-25T07:20:21Z</time>
      </trkpt>
      <trkpt lat="43.7336" lon="3.452">
        <ele>535.5</ele>
        <time>2015-10-25T07:20:22Z</time>
      </trkpt>
      <trkpt lat="43.7336" lon="3.45202">
        <ele>535</ele>
        <time>2015-10-25T07:20:23Z</time>
      </trkpt>
      <trkpt lat="43.73359" lon="3.45204">
        <ele>534</ele>
        <time>2015-10-25T07:20:24Z</time>
      </trkpt>
      <trkpt lat="43.73359" lon="3.45206">
        <ele>534</ele>
        <time>2015-10-25T07:20:25Z</time>
      </trkpt>
      <trkpt lat="43.73359" lon="3.45208">
        <ele>534.5</ele>
        <time>2015-10-25T07:20:26Z</time>
      </trkpt>
      <trkpt lat="43.7336" lon="3.4521">
        <ele>535.5</ele>
        <time>2015-10-25T07:20:27Z</time>
      </trkpt>
      <trkpt lat="43.73362" lon="3.45213">
        <ele>536</ele>
        <time>2015-10-25T07:20:28Z</time>
      </trkpt>
      <trkpt lat="43.73361" lon="3.45216">
        <ele>536</ele>
        <time>2015-10-25T07:20:29Z</time>
      </trkpt>
      <trkpt lat="43.73362" lon="3.45219">
        <ele>536</ele>
        <time>2015-10-25T07:20:31Z</time>
      </trkpt>
      <trkpt lat="43.73361" lon="3.45222">
        <ele>535.5</ele>
        <time>2015-10-25T07:20:31Z</time>
      </trkpt>
      <trkpt lat="43.7336" lon="3.45225">
        <ele>534.5</ele>
        <time>2015-10-25T07:20:32Z</time>
      </trkpt>
      <trkpt lat="43.7336" lon="3.45228">
        <ele>534</ele>
        <time>2015-10-25T07:20:33Z</time>
      </trkpt>
      <trkpt lat="43.73359" lon="3.45232">
        <ele>534</ele>
        <time>2015-10-25T07:20:34Z</time>
      </trkpt>
      <trkpt lat="43.73359" lon="3.45235">
        <ele>533.5</ele>
        <time>2015-10-25T07:20:35Z</time>
      </trkpt>
      <trkpt lat="43.73358" lon="3.45239">
        <ele>533.5</ele>
        <time>2015-10-25T07:20:36Z</time>
      </trkpt>
      <trkpt lat="43.73357" lon="3.45242">
        <ele>533.5</ele>
        <time>2015-10-25T07:20:37Z</time>
      </trkpt>
      <trkpt lat="43.73356" lon="3.45246">
        <ele>533.5</ele>
        <time>2015-10-25T07:20:38Z</time>
      </trkpt>
      <trkpt lat="43.73354" lon="3.45249">
        <ele>532</ele>
        <time>2015-10-25T07:20:39Z</time>
      </trkpt>
      <trkpt lat="43.73353" lon="3.45252">
        <ele>531</ele>
        <time>2015-10-25T07:20:40Z</time>
      </trkpt>
      <trkpt lat="43.73351" lon="3.45255">
        <ele>530.5</ele>
        <time>2015-10-25T07:20:41Z</time>
      </trkpt>
      <trkpt lat="43.73351" lon="3.45259">
        <ele>531.5</ele>
        <time>2015-10-25T07:20:42Z</time>
      </trkpt>
      <trkpt lat="43.7335" lon="3.45262">
        <ele>532</ele>
        <time>2015-10-25T07:20:43Z</time>
      </trkpt>
      <trkpt lat="43.73351" lon="3.45266">
        <ele>532.5</ele>
        <time>2015-10-25T07:20:44Z</time>
      </trkpt>
      <trkpt lat="43.73351" lon="3.45269">
        <ele>532</ele>
        <time>2015-10-25T07:20:45Z</time>
      </trkpt>
      <trkpt lat="43.73351" lon="3.45273">
        <ele>532.5</ele>
        <time>2015-10-25T07:20:46Z</time>
      </trkpt>
      <trkpt lat="43.73351" lon="3.45276">
        <ele>533</ele>
        <time>2015-10-25T07:20:47Z</time>
      </trkpt>
      <trkpt lat="43.73351" lon="3.4528">
        <ele>533</ele>
        <time>2015-10-25T07:20:48Z</time>
      </trkpt>
      <trkpt lat="43.73351" lon="3.45283">
        <ele>533.5</ele>
        <time>2015-10-25T07:20:49Z</time>
      </trkpt>
      <trkpt lat="43.73352" lon="3.45286">
        <ele>533.5</ele>
        <time>2015-10-25T07:20:50Z</time>
      </trkpt>
      <trkpt lat="43.73353" lon="3.45289">
        <ele>534</ele>
        <time>2015-10-25T07:20:51Z</time>
      </trkpt>
      <trkpt lat="43.73353" lon="3.45292">
        <ele>534</ele>
        <time>2015-10-25T07:20:52Z</time>
      </trkpt>
      <trkpt lat="43.73352" lon="3.45296">
        <ele>534.5</ele>
        <time>2015-10-25T07:20:53Z</time>
      </trkpt>
      <trkpt lat="43.73352" lon="3.45298">
        <ele>535</ele>
        <time>2015-10-25T07:20:54Z</time>
      </trkpt>
      <trkpt lat="43.73352" lon="3.45302">
        <ele>535.5</ele>
        <time>2015-10-25T07:20:55Z</time>
      </trkpt>
      <trkpt lat="43.73352" lon="3.45305">
        <ele>535</ele>
        <time>2015-10-25T07:20:56Z</time>
      </trkpt>
      <trkpt lat="43.73352" lon="3.45308">
        <ele>535</ele>
        <time>2015-10-25T07:20:57Z</time>
      </trkpt>
      <trkpt lat="43.73351" lon="3.45312">
        <ele>535</ele>
        <time>2015-10-25T07:20:58Z</time>
      </trkpt>
      <trkpt lat="43.73351" lon="3.45315">
        <ele>535</ele>
        <time>2015-10-25T07:20:59Z</time>
      </trkpt>
      <trkpt lat="43.7335" lon="3.45318">
        <ele>535</ele>
        <time>2015-10-25T07:21:00Z</time>
      </trkpt>
      <trkpt lat="43.7335" lon="3.45321">
        <ele>534</ele>
        <time>2015-10-25T07:21:01Z</time>
      </trkpt>
      <trkpt lat="43.73349" lon="3.45324">
        <ele>534.5</ele>
        <time>2015-10-25T07:21:02Z</time>
      </trkpt>
      <trkpt lat="43.73349" lon="3.45327">
        <ele>534.5</ele>
        <time>2015-10-25T07:21:03Z</time>
      </trkpt>
      <trkpt lat="43.73348" lon="3.4533">
        <ele>535</ele>
        <time>2015-10-25T07:21:04Z</time>
      </trkpt>
      <trkpt lat="43.73347" lon="3.45333">
        <ele>535</ele>
        <time>2015-10-25T07:21:05Z</time>
      </trkpt>
      <trkpt lat="43.73347" lon="3.45337">
        <ele>535</ele>
        <time>2015-10-25T07:21:06Z</time>
      </trkpt>
      <trkpt lat="43.73347" lon="3.4534">
        <ele>535</ele>
        <time>2015-10-25T07:21:08Z</time>
      </trkpt>
      <trkpt lat="43.73346" lon="3.45345">
        <ele>536</ele>
        <time>2015-10-25T07:21:09Z</time>
      </trkpt>
      <trkpt lat="43.73347" lon="3.45348">
        <ele>536</ele>
        <time>2015-10-25T07:21:10Z</time>
      </trkpt>
      <trkpt lat="43.73347" lon="3.45352">
        <ele>536</ele>
        <time>2015-10-25T07:21:11Z</time>
      </trkpt>
      <trkpt lat="43.73347" lon="3.45355">
        <ele>536</ele>
        <time>2015-10-25T07:21:12Z</time>
      </trkpt>
      <trkpt lat="43.73347" lon="3.45358">
        <ele>536</ele>
        <time>2015-10-25T07:21:13Z</time>
      </trkpt>
      <trkpt lat="43.73347" lon="3.45361">
        <ele>536</ele>
        <time>2015-10-25T07:21:14Z</time>
      </trkpt>
      <trkpt lat="43.73348" lon="3.45365">
        <ele>535.5</ele>
        <time>2015-10-25T07:21:15Z</time>
      </trkpt>
      <trkpt lat="43.73347" lon="3.45368">
        <ele>535.5</ele>
        <time>2015-10-25T07:21:16Z</time>
      </trkpt>
      <trkpt lat="43.73348" lon="3.45371">
        <ele>535.5</ele>
        <time>2015-10-25T07:21:17Z</time>
      </trkpt>
      <trkpt lat="43.73349" lon="3.45374">
        <ele>535.5</ele>
        <time>2015-10-25T07:21:18Z</time>
      </trkpt>
      <trkpt lat="43.73351" lon="3.45378">
        <ele>536</ele>
        <time>2015-10-25T07:21:19Z</time>
      </trkpt>
      <trkpt lat="43.73352" lon="3.45381">
        <ele>536</ele>
        <time>2015-10-25T07:21:20Z</time>
      </trkpt>
      <trkpt lat="43.73353" lon="3.45384">
        <ele>536</ele>
        <time>2015-10-25T07:21:21Z</time>
      </trkpt>
      <trkpt lat="43.73353" lon="3.45388">
        <ele>536</ele>
        <time>2015-10-25T07:21:22Z</time>
      </trkpt>
      <trkpt lat="43.73354" lon="3.45391">
        <ele>536</ele>
        <time>2015-10-25T07:21:23Z</time>
      </trkpt>
      <trkpt lat="43.73356" lon="3.45394">
        <ele>536.5</ele>
        <time>2015-10-25T07:21:24Z</time>
      </trkpt>
      <trkpt lat="43.73357" lon="3.45397">
        <ele>536.5</ele>
        <time>2015-10-25T07:21:25Z</time>
      </trkpt>
      <trkpt lat="43.73357" lon="3.454">
        <ele>537.5</ele>
        <time>2015-10-25T07:21:26Z</time>
      </trkpt>
      <trkpt lat="43.73357" lon="3.45403">
        <ele>537.5</ele>
        <time>2015-10-25T07:21:27Z</time>
      </trkpt>
      <trkpt lat="43.73358" lon="3.45406">
        <ele>538.5</ele>
        <time>2015-10-25T07:21:28Z</time>
      </trkpt>
      <trkpt lat="43.73359" lon="3.45409">
        <ele>539</ele>
        <time>2015-10-25T07:21:29Z</time>
      </trkpt>
      <trkpt lat="43.73359" lon="3.45412">
        <ele>539</ele>
        <time>2015-10-25T07:21:30Z</time>
      </trkpt>
      <trkpt lat="43.7336" lon="3.45415">
        <ele>539</ele>
        <time>2015-10-25T07:21:31Z</time>
      </trkpt>
      <trkpt lat="43.73361" lon="3.45418">
        <ele>539.5</ele>
        <time>2015-10-25T07:21:32Z</time>
      </trkpt>
      <trkpt lat="43.73362" lon="3.45421">
        <ele>539.5</ele>
        <time>2015-10-25T07:21:33Z</time>
      </trkpt>
      <trkpt lat="43.73363" lon="3.45424">
        <ele>539.5</ele>
        <time>2015-10-25T07:21:34Z</time>
      </trkpt>
      <trkpt lat="43.73364" lon="3.45426">
        <ele>539.5</ele>
        <time>2015-10-25T07:21:35Z</time>
      </trkpt>
      <trkpt lat="43.73365" lon="3.45429">
        <ele>540</ele>
        <time>2015-10-25T07:21:36Z</time>
      </trkpt>
      <trkpt lat="43.73367" lon="3.45432">
        <ele>540</ele>
        <time>2015-10-25T07:21:37Z</time>
      </trkpt>
      <trkpt lat="43.73368" lon="3.45435">
        <ele>540.5</ele>
        <time>2015-10-25T07:21:38Z</time>
      </trkpt>
      <trkpt lat="43.73369" lon="3.45437">
        <ele>541</ele>
        <time>2015-10-25T07:21:39Z</time>
      </trkpt>
      <trkpt lat="43.7337" lon="3.4544">
        <ele>542</ele>
        <time>2015-10-25T07:21:40Z</time>
      </trkpt>
      <trkpt lat="43.73371" lon="3.45442">
        <ele>542</ele>
        <time>2015-10-25T07:21:41Z</time>
      </trkpt>
      <trkpt lat="43.73372" lon="3.45445">
        <ele>542</ele>
        <time>2015-10-25T07:21:42Z</time>
      </trkpt>
      <trkpt lat="43.73373" lon="3.45447">
        <ele>542.5</ele>
        <time>2015-10-25T07:21:43Z</time>
      </trkpt>
      <trkpt lat="43.73374" lon="3.45449">
        <ele>543</ele>
        <time>2015-10-25T07:21:44Z</time>
      </trkpt>
      <trkpt lat="43.73375" lon="3.45452">
        <ele>543</ele>
        <time>2015-10-25T07:21:45Z</time>
      </trkpt>
      <trkpt lat="43.73377" lon="3.45454">
        <ele>543</ele>
        <time>2015-10-25T07:21:46Z</time>
      </trkpt>
      <trkpt lat="43.73378" lon="3.45456">
        <ele>543.5</ele>
        <time>2015-10-25T07:21:47Z</time>
      </trkpt>
      <trkpt lat="43.73379" lon="3.45457">
        <ele>545</ele>
        <time>2015-10-25T07:21:48Z</time>
      </trkpt>
      <trkpt lat="43.73382" lon="3.45462">
        <ele>544</ele>
        <time>2015-10-25T07:21:50Z</time>
      </trkpt>
      <trkpt lat="43.73383" lon="3.45464">
        <ele>543.5</ele>
        <time>2015-10-25T07:21:51Z</time>
      </trkpt>
      <trkpt lat="43.73384" lon="3.45465">
        <ele>543</ele>
        <time>2015-10-25T07:21:52Z</time>
      </trkpt>
      <trkpt lat="43.73385" lon="3.45467">
        <ele>543.5</ele>
        <time>2015-10-25T07:21:53Z</time>
      </trkpt>
      <trkpt lat="43.73387" lon="3.45469">
        <ele>543.5</ele>
        <time>2015-10-25T07:21:54Z</time>
      </trkpt>
      <trkpt lat="43.73389" lon="3.4547">
        <ele>544</ele>
        <time>2015-10-25T07:21:55Z</time>
      </trkpt>
      <trkpt lat="43.73391" lon="3.45472">
        <ele>544.5</ele>
        <time>2015-10-25T07:21:56Z</time>
      </trkpt>
      <trkpt lat="43.73393" lon="3.45474">
        <ele>547.5</ele>
        <time>2015-10-25T07:21:58Z</time>
      </trkpt>
      <trkpt lat="43.73396" lon="3.45477">
        <ele>546.5</ele>
        <time>2015-10-25T07:21:59Z</time>
      </trkpt>
      <trkpt lat="43.73398" lon="3.45479">
        <ele>547</ele>
        <time>2015-10-25T07:22:00Z</time>
      </trkpt>
      <trkpt lat="43.73399" lon="3.45481">
        <ele>547</ele>
        <time>2015-10-25T07:22:01Z</time>
      </trkpt>
      <trkpt lat="43.73401" lon="3.45482">
        <ele>547</ele>
        <time>2015-10-25T07:22:02Z</time>
      </trkpt>
      <trkpt lat="43.73403" lon="3.45484">
        <ele>547.5</ele>
        <time>2015-10-25T07:22:03Z</time>
      </trkpt>
      <trkpt lat="43.73405" lon="3.45485">
        <ele>548.5</ele>
        <time>2015-10-25T07:22:04Z</time>
      </trkpt>
      <trkpt lat="43.73407" lon="3.45486">
        <ele>549</ele>
        <time>2015-10-25T07:22:05Z</time>
      </trkpt>
      <trkpt lat="43.73408" lon="3.45488">
        <ele>549</ele>
        <time>2015-10-25T07:22:06Z</time>
      </trkpt>
      <trkpt lat="43.7341" lon="3.4549">
        <ele>549</ele>
        <time>2015-10-25T07:22:07Z</time>
      </trkpt>
      <trkpt lat="43.73412" lon="3.45491">
        <ele>549.5</ele>
        <time>2015-10-25T07:22:08Z</time>
      </trkpt>
      <trkpt lat="43.73414" lon="3.45493">
        <ele>549.5</ele>
        <time>2015-10-25T07:22:09Z</time>
      </trkpt>
      <trkpt lat="43.73416" lon="3.45494">
        <ele>550.5</ele>
        <time>2015-10-25T07:22:10Z</time>
      </trkpt>
      <trkpt lat="43.73417" lon="3.45496">
        <ele>550.5</ele>
        <time>2015-10-25T07:22:11Z</time>
      </trkpt>
      <trkpt lat="43.73419" lon="3.45497">
        <ele>551</ele>
        <time>2015-10-25T07:22:12Z</time>
      </trkpt>
      <trkpt lat="43.73421" lon="3.45499">
        <ele>551.5</ele>
        <time>2015-10-25T07:22:13Z</time>
      </trkpt>
      <trkpt lat="43.73423" lon="3.45501">
        <ele>551.5</ele>
        <time>2015-10-25T07:22:14Z</time>
      </trkpt>
      <trkpt lat="43.73425" lon="3.45503">
        <ele>551.5</ele>
        <time>2015-10-25T07:22:15Z</time>
      </trkpt>
      <trkpt lat="43.73427" lon="3.45505">
        <ele>551.5</ele>
        <time>2015-10-25T07:22:16Z</time>
      </trkpt>
      <trkpt lat="43.73429" lon="3.45507">
        <ele>551.5</ele>
        <time>2015-10-25T07:22:17Z</time>
      </trkpt>
      <trkpt lat="43.73431" lon="3.45509">
        <ele>551.5</ele>
        <time>2015-10-25T07:22:18Z</time>
      </trkpt>
      <trkpt lat="43.73433" lon="3.4551">
        <ele>552</ele>
        <time>2015-10-25T07:22:19Z</time>
      </trkpt>
      <trkpt lat="43.73434" lon="3.45512">
        <ele>552.5</ele>
        <time>2015-10-25T07:22:20Z</time>
      </trkpt>
      <trkpt lat="43.73436" lon="3.45514">
        <ele>552.5</ele>
        <time>2015-10-25T07:22:21Z</time>
      </trkpt>
      <trkpt lat="43.73438" lon="3.45515">
        <ele>553</ele>
        <time>2015-10-25T07:22:22Z</time>
      </trkpt>
      <trkpt lat="43.7344" lon="3.45517">
        <ele>553</ele>
        <time>2015-10-25T07:22:23Z</time>
      </trkpt>
      <trkpt lat="43.73441" lon="3.45518">
        <ele>553.5</ele>
        <time>2015-10-25T07:22:24Z</time>
      </trkpt>
      <trkpt lat="43.73443" lon="3.4552">
        <ele>554</ele>
        <time>2015-10-25T07:22:25Z</time>
      </trkpt>
      <trkpt lat="43.73445" lon="3.45522">
        <ele>554</ele>
        <time>2015-10-25T07:22:26Z</time>
      </trkpt>
      <trkpt lat="43.73447" lon="3.45524">
        <ele>554.5</ele>
        <time>2015-10-25T07:22:27Z</time>
      </trkpt>
      <trkpt lat="43.73448" lon="3.45525">
        <ele>554.5</ele>
        <time>2015-10-25T07:22:28Z</time>
      </trkpt>
      <trkpt lat="43.7345" lon="3.45527">
        <ele>555</ele>
        <time>2015-10-25T07:22:29Z</time>
      </trkpt>
      <trkpt lat="43.73451" lon="3.45529">
        <ele>555</ele>
        <time>2015-10-25T07:22:30Z</time>
      </trkpt>
      <trkpt lat="43.73453" lon="3.45532">
        <ele>555</ele>
        <time>2015-10-25T07:22:31Z</time>
      </trkpt>
      <trkpt lat="43.73454" lon="3.45534">
        <ele>555.5</ele>
        <time>2015-10-25T07:22:32Z</time>
      </trkpt>
      <trkpt lat="43.73456" lon="3.45537">
        <ele>556</ele>
        <time>2015-10-25T07:22:33Z</time>
      </trkpt>
      <trkpt lat="43.73458" lon="3.4554">
        <ele>557.5</ele>
        <time>2015-10-25T07:22:34Z</time>
      </trkpt>
      <trkpt lat="43.73459" lon="3.45543">
        <ele>557.5</ele>
        <time>2015-10-25T07:22:35Z</time>
      </trkpt>
      <trkpt lat="43.7346" lon="3.45546">
        <ele>558</ele>
        <time>2015-10-25T07:22:36Z</time>
      </trkpt>
      <trkpt lat="43.7346" lon="3.45549">
        <ele>558.5</ele>
        <time>2015-10-25T07:22:37Z</time>
      </trkpt>
      <trkpt lat="43.73461" lon="3.45551">
        <ele>559.5</ele>
        <time>2015-10-25T07:22:38Z</time>
      </trkpt>
      <trkpt lat="43.73461" lon="3.45554">
        <ele>559.5</ele>
        <time>2015-10-25T07:22:39Z</time>
      </trkpt>
      <trkpt lat="43.73462" lon="3.45558">
        <ele>560.5</ele>
        <time>2015-10-25T07:22:40Z</time>
      </trkpt>
      <trkpt lat="43.73462" lon="3.45561">
        <ele>560</ele>
        <time>2015-10-25T07:22:41Z</time>
      </trkpt>
      <trkpt lat="43.73462" lon="3.45564">
        <ele>560</ele>
        <time>2015-10-25T07:22:42Z</time>
      </trkpt>
      <trkpt lat="43.73462" lon="3.45567">
        <ele>560</ele>
        <time>2015-10-25T07:22:43Z</time>
      </trkpt>
      <trkpt lat="43.73462" lon="3.45571">
        <ele>559.5</ele>
        <time>2015-10-25T07:22:44Z</time>
      </trkpt>
      <trkpt lat="43.73462" lon="3.45574">
        <ele>560</ele>
        <time>2015-10-25T07:22:45Z</time>
      </trkpt>
      <trkpt lat="43.73462" lon="3.45577">
        <ele>559.5</ele>
        <time>2015-10-25T07:22:46Z</time>
      </trkpt>
      <trkpt lat="43.73462" lon="3.45581">
        <ele>561</ele>
        <time>2015-10-25T07:22:47Z</time>
      </trkpt>
      <trkpt lat="43.73462" lon="3.45585">
        <ele>562</ele>
        <time>2015-10-25T07:22:48Z</time>
      </trkpt>
      <trkpt lat="43.73462" lon="3.45589">
        <ele>562.5</ele>
        <time>2015-10-25T07:22:49Z</time>
      </trkpt>
      <trkpt lat="43.73462" lon="3.45592">
        <ele>562.5</ele>
        <time>2015-10-25T07:22:50Z</time>
      </trkpt>
      <trkpt lat="43.73462" lon="3.45596">
        <ele>562.5</ele>
        <time>2015-10-25T07:22:51Z</time>
      </trkpt>
      <trkpt lat="43.73462" lon="3.45599">
        <ele>562.5</ele>
        <time>2015-10-25T07:22:52Z</time>
      </trkpt>
      <trkpt lat="43.73462" lon="3.45603">
        <ele>562.5</ele>
        <time>2015-10-25T07:22:53Z</time>
      </trkpt>
      <trkpt lat="43.73462" lon="3.45606">
        <ele>562</ele>
        <time>2015-10-25T07:22:54Z</time>
      </trkpt>
      <trkpt lat="43.73464" lon="3.45609">
        <ele>562</ele>
        <time>2015-10-25T07:22:55Z</time>
      </trkpt>
      <trkpt lat="43.73464" lon="3.45612">
        <ele>562</ele>
        <time>2015-10-25T07:22:56Z</time>
      </trkpt>
      <trkpt lat="43.73464" lon="3.45616">
        <ele>562</ele>
        <time>2015-10-25T07:22:57Z</time>
      </trkpt>
      <trkpt lat="43.73464" lon="3.45619">
        <ele>562.5</ele>
        <time>2015-10-25T07:22:58Z</time>
      </trkpt>
      <trkpt lat="43.73463" lon="3.4562">
        <ele>563</ele>
        <time>2015-10-25T07:22:59Z</time>
      </trkpt>
      <trkpt lat="43.73463" lon="3.45623">
        <ele>563</ele>
        <time>2015-10-25T07:23:00Z</time>
      </trkpt>
      <trkpt lat="43.73464" lon="3.45627">
        <ele>562</ele>
        <time>2015-10-25T07:23:01Z</time>
      </trkpt>
      <trkpt lat="43.73464" lon="3.45631">
        <ele>562</ele>
        <time>2015-10-25T07:23:02Z</time>
      </trkpt>
      <trkpt lat="43.73465" lon="3.45634">
        <ele>561</ele>
        <time>2015-10-25T07:23:03Z</time>
      </trkpt>
      <trkpt lat="43.73465" lon="3.45637">
        <ele>561</ele>
        <time>2015-10-25T07:23:04Z</time>
      </trkpt>
      <trkpt lat="43.73466" lon="3.4564">
        <ele>561</ele>
        <time>2015-10-25T07:23:05Z</time>
      </trkpt>
      <trkpt lat="43.73466" lon="3.45643">
        <ele>561.5</ele>
        <time>2015-10-25T07:23:06Z</time>
      </trkpt>
      <trkpt lat="43.73467" lon="3.45646">
        <ele>561.5</ele>
        <time>2015-10-25T07:23:07Z</time>
      </trkpt>
      <trkpt lat="43.73467" lon="3.4565">
        <ele>561</ele>
        <time>2015-10-25T07:23:08Z</time>
      </trkpt>
      <trkpt lat="43.73468" lon="3.45653">
        <ele>561</ele>
        <time>2015-10-25T07:23:09Z</time>
      </trkpt>
      <trkpt lat="43.73468" lon="3.45657">
        <ele>561</ele>
        <time>2015-10-25T07:23:10Z</time>
      </trkpt>
      <trkpt lat="43.73468" lon="3.45661">
        <ele>560.5</ele>
        <time>2015-10-25T07:23:11Z</time>
      </trkpt>
      <trkpt lat="43.73468" lon="3.45664">
        <ele>560</ele>
        <time>2015-10-25T07:23:12Z</time>
      </trkpt>
      <trkpt lat="43.73469" lon="3.45667">
        <ele>560</ele>
        <time>2015-10-25T07:23:13Z</time>
      </trkpt>
      <trkpt lat="43.73468" lon="3.4567">
        <ele>558.5</ele>
        <time>2015-10-25T07:23:14Z</time>
      </trkpt>
      <trkpt lat="43.7347" lon="3.45674">
        <ele>559.5</ele>
        <time>2015-10-25T07:23:15Z</time>
      </trkpt>
      <trkpt lat="43.7347" lon="3.45677">
        <ele>560</ele>
        <time>2015-10-25T07:23:16Z</time>
      </trkpt>
      <trkpt lat="43.73471" lon="3.4568">
        <ele>560.5</ele>
        <time>2015-10-25T07:23:17Z</time>
      </trkpt>
      <trkpt lat="43.73474" lon="3.45684">
        <ele>562.5</ele>
        <time>2015-10-25T07:23:18Z</time>
      </trkpt>
      <trkpt lat="43.73474" lon="3.45688">
        <ele>563</ele>
        <time>2015-10-25T07:23:19Z</time>
      </trkpt>
      <trkpt lat="43.73477" lon="3.45696">
        <ele>565.5</ele>
        <time>2015-10-25T07:23:21Z</time>
      </trkpt>
      <trkpt lat="43.73478" lon="3.457">
        <ele>565.5</ele>
        <time>2015-10-25T07:23:22Z</time>
      </trkpt>
      <trkpt lat="43.73479" lon="3.45706">
        <ele>566</ele>
        <time>2015-10-25T07:23:24Z</time>
      </trkpt>
      <trkpt lat="43.7348" lon="3.45709">
        <ele>566</ele>
        <time>2015-10-25T07:23:25Z</time>
      </trkpt>
      <trkpt lat="43.73481" lon="3.45712">
        <ele>566</ele>
        <time>2015-10-25T07:23:26Z</time>
      </trkpt>
      <trkpt lat="43.73482" lon="3.45715">
        <ele>566</ele>
        <time>2015-10-25T07:23:27Z</time>
      </trkpt>
      <trkpt lat="43.73482" lon="3.45717">
        <ele>566.5</ele>
        <time>2015-10-25T07:23:28Z</time>
      </trkpt>
      <trkpt lat="43.73483" lon="3.4572">
        <ele>566.5</ele>
        <time>2015-10-25T07:23:29Z</time>
      </trkpt>
      <trkpt lat="43.73484" lon="3.45723">
        <ele>567</ele>
        <time>2015-10-25T07:23:30Z</time>
      </trkpt>
      <trkpt lat="43.73485" lon="3.45726">
        <ele>567</ele>
        <time>2015-10-25T07:23:31Z</time>
      </trkpt>
      <trkpt lat="43.73486" lon="3.45728">
        <ele>567</ele>
        <time>2015-10-25T07:23:32Z</time>
      </trkpt>
      <trkpt lat="43.73486" lon="3.45731">
        <ele>567</ele>
        <time>2015-10-25T07:23:33Z</time>
      </trkpt>
      <trkpt lat="43.73487" lon="3.45734">
        <ele>567</ele>
        <time>2015-10-25T07:23:33Z</time>
      </trkpt>
      <trkpt lat="43.73488" lon="3.45736">
        <ele>567</ele>
        <time>2015-10-25T07:23:35Z</time>
      </trkpt>
      <trkpt lat="43.73489" lon="3.45739">
        <ele>567.5</ele>
        <time>2015-10-25T07:23:35Z</time>
      </trkpt>
      <trkpt lat="43.7349" lon="3.45742">
        <ele>567</ele>
        <time>2015-10-25T07:23:37Z</time>
      </trkpt>
      <trkpt lat="43.7349" lon="3.45745">
        <ele>567</ele>
        <time>2015-10-25T07:23:38Z</time>
      </trkpt>
      <trkpt lat="43.73491" lon="3.45747">
        <ele>567</ele>
        <time>2015-10-25T07:23:38Z</time>
      </trkpt>
      <trkpt lat="43.73491" lon="3.4575">
        <ele>566.5</ele>
        <time>2015-10-25T07:23:40Z</time>
      </trkpt>
      <trkpt lat="43.73492" lon="3.45753">
        <ele>567</ele>
        <time>2015-10-25T07:23:40Z</time>
      </trkpt>
      <trkpt lat="43.73493" lon="3.45755">
        <ele>566</ele>
        <time>2015-10-25T07:23:42Z</time>
      </trkpt>
      <trkpt lat="43.73493" lon="3.45758">
        <ele>566</ele>
        <time>2015-10-25T07:23:42Z</time>
      </trkpt>
      <trkpt lat="43.73494" lon="3.45761">
        <ele>566</ele>
        <time>2015-10-25T07:23:44Z</time>
      </trkpt>
      <trkpt lat="43.73495" lon="3.45763">
        <ele>566</ele>
        <time>2015-10-25T07:23:44Z</time>
      </trkpt>
      <trkpt lat="43.73496" lon="3.45766">
        <ele>566</ele>
        <time>2015-10-25T07:23:45Z</time>
      </trkpt>
      <trkpt lat="43.73496" lon="3.45768">
        <ele>565.5</ele>
        <time>2015-10-25T07:23:46Z</time>
      </trkpt>
      <trkpt lat="43.73497" lon="3.45771">
        <ele>565.5</ele>
        <time>2015-10-25T07:23:47Z</time>
      </trkpt>
      <trkpt lat="43.73498" lon="3.45774">
        <ele>565.5</ele>
        <time>2015-10-25T07:23:48Z</time>
      </trkpt>
      <trkpt lat="43.73499" lon="3.45776">
        <ele>565.5</ele>
        <time>2015-10-25T07:23:49Z</time>
      </trkpt>
      <trkpt lat="43.735" lon="3.45778">
        <ele>565.5</ele>
        <time>2015-10-25T07:23:50Z</time>
      </trkpt>
      <trkpt lat="43.73501" lon="3.4578">
        <ele>566</ele>
        <time>2015-10-25T07:23:51Z</time>
      </trkpt>
      <trkpt lat="43.73501" lon="3.45782">
        <ele>565.5</ele>
        <time>2015-10-25T07:23:53Z</time>
      </trkpt>
      <trkpt lat="43.73502" lon="3.45784">
        <ele>565.5</ele>
        <time>2015-10-25T07:23:53Z</time>
      </trkpt>
      <trkpt lat="43.73503" lon="3.45786">
        <ele>565.5</ele>
        <time>2015-10-25T07:23:54Z</time>
      </trkpt>
      <trkpt lat="43.73504" lon="3.45787">
        <ele>566.5</ele>
        <time>2015-10-25T07:23:55Z</time>
      </trkpt>
      <trkpt lat="43.73507" lon="3.45787">
        <ele>567</ele>
        <time>2015-10-25T07:23:56Z</time>
      </trkpt>
      <trkpt lat="43.73509" lon="3.45786">
        <ele>567</ele>
        <time>2015-10-25T07:23:57Z</time>
      </trkpt>
      <trkpt lat="43.73511" lon="3.45784">
        <ele>567</ele>
        <time>2015-10-25T07:23:58Z</time>
      </trkpt>
      <trkpt lat="43.73513" lon="3.45781">
        <ele>567.5</ele>
        <time>2015-10-25T07:23:59Z</time>
      </trkpt>
      <trkpt lat="43.73514" lon="3.45778">
        <ele>567</ele>
        <time>2015-10-25T07:24:00Z</time>
      </trkpt>
      <trkpt lat="43.73514" lon="3.45775">
        <ele>567.5</ele>
        <time>2015-10-25T07:24:01Z</time>
      </trkpt>
      <trkpt lat="43.73514" lon="3.45772">
        <ele>567.5</ele>
        <time>2015-10-25T07:24:02Z</time>
      </trkpt>
      <trkpt lat="43.73513" lon="3.4577">
        <ele>567.5</ele>
        <time>2015-10-25T07:24:03Z</time>
      </trkpt>
      <trkpt lat="43.73512" lon="3.45767">
        <ele>567</ele>
        <time>2015-10-25T07:24:05Z</time>
      </trkpt>
      <trkpt lat="43.7351" lon="3.45762">
        <ele>567</ele>
        <time>2015-10-25T07:24:06Z</time>
      </trkpt>
      <trkpt lat="43.73509" lon="3.45759">
        <ele>567</ele>
        <time>2015-10-25T07:24:07Z</time>
      </trkpt>
      <trkpt lat="43.73508" lon="3.45756">
        <ele>566.5</ele>
        <time>2015-10-25T07:24:08Z</time>
      </trkpt>
      <trkpt lat="43.73506" lon="3.45754">
        <ele>567</ele>
        <time>2015-10-25T07:24:09Z</time>
      </trkpt>
      <trkpt lat="43.73506" lon="3.4575">
        <ele>567</ele>
        <time>2015-10-25T07:24:10Z</time>
      </trkpt>
      <trkpt lat="43.73505" lon="3.45747">
        <ele>567</ele>
        <time>2015-10-25T07:24:12Z</time>
      </trkpt>
      <trkpt lat="43.73505" lon="3.45744">
        <ele>567.5</ele>
        <time>2015-10-25T07:24:12Z</time>
      </trkpt>
      <trkpt lat="43.73504" lon="3.45741">
        <ele>567.5</ele>
        <time>2015-10-25T07:24:13Z</time>
      </trkpt>
      <trkpt lat="43.73503" lon="3.45739">
        <ele>567.5</ele>
        <time>2015-10-25T07:24:14Z</time>
      </trkpt>
      <trkpt lat="43.73502" lon="3.45736">
        <ele>567.5</ele>
        <time>2015-10-25T07:24:15Z</time>
      </trkpt>
      <trkpt lat="43.73502" lon="3.45732">
        <ele>567.5</ele>
        <time>2015-10-25T07:24:16Z</time>
      </trkpt>
      <trkpt lat="43.73501" lon="3.45729">
        <ele>567.5</ele>
        <time>2015-10-25T07:24:17Z</time>
      </trkpt>
      <trkpt lat="43.73501" lon="3.45726">
        <ele>567</ele>
        <time>2015-10-25T07:24:18Z</time>
      </trkpt>
      <trkpt lat="43.73501" lon="3.45723">
        <ele>567</ele>
        <time>2015-10-25T07:24:19Z</time>
      </trkpt>
      <trkpt lat="43.735" lon="3.45721">
        <ele>567.5</ele>
        <time>2015-10-25T07:24:20Z</time>
      </trkpt>
      <trkpt lat="43.73499" lon="3.45718">
        <ele>568</ele>
        <time>2015-10-25T07:24:21Z</time>
      </trkpt>
      <trkpt lat="43.73499" lon="3.45714">
        <ele>568</ele>
        <time>2015-10-25T07:24:22Z</time>
      </trkpt>
      <trkpt lat="43.73498" lon="3.45711">
        <ele>568</ele>
        <time>2015-10-25T07:24:23Z</time>
      </trkpt>
      <trkpt lat="43.73498" lon="3.45708">
        <ele>568</ele>
        <time>2015-10-25T07:24:24Z</time>
      </trkpt>
      <trkpt lat="43.73498" lon="3.45704">
        <ele>568</ele>
        <time>2015-10-25T07:24:25Z</time>
      </trkpt>
      <trkpt lat="43.73498" lon="3.45701">
        <ele>568</ele>
        <time>2015-10-25T07:24:26Z</time>
      </trkpt>
      <trkpt lat="43.73498" lon="3.45698">
        <ele>568.5</ele>
        <time>2015-10-25T07:24:27Z</time>
      </trkpt>
      <trkpt lat="43.73497" lon="3.45695">
        <ele>568.5</ele>
        <time>2015-10-25T07:24:28Z</time>
      </trkpt>
      <trkpt lat="43.73497" lon="3.45691">
        <ele>569</ele>
        <time>2015-10-25T07:24:29Z</time>
      </trkpt>
      <trkpt lat="43.73497" lon="3.45688">
        <ele>570</ele>
        <time>2015-10-25T07:24:30Z</time>
      </trkpt>
      <trkpt lat="43.73497" lon="3.45685">
        <ele>570</ele>
        <time>2015-10-25T07:24:31Z</time>
      </trkpt>
      <trkpt lat="43.73497" lon="3.45681">
        <ele>571</ele>
        <time>2015-10-25T07:24:32Z</time>
      </trkpt>
      <trkpt lat="43.73497" lon="3.45678">
        <ele>571</ele>
        <time>2015-10-25T07:24:33Z</time>
      </trkpt>
      <trkpt lat="43.73497" lon="3.45674">
        <ele>571</ele>
        <time>2015-10-25T07:24:34Z</time>
      </trkpt>
      <trkpt lat="43.73498" lon="3.4567">
        <ele>571</ele>
        <time>2015-10-25T07:24:35Z</time>
      </trkpt>
      <trkpt lat="43.73498" lon="3.45666">
        <ele>571.5</ele>
        <time>2015-10-25T07:24:36Z</time>
      </trkpt>
      <trkpt lat="43.73498" lon="3.45662">
        <ele>572</ele>
        <time>2015-10-25T07:24:37Z</time>
      </trkpt>
      <trkpt lat="43.73498" lon="3.45658">
        <ele>572</ele>
        <time>2015-10-25T07:24:38Z</time>
      </trkpt>
      <trkpt lat="43.73499" lon="3.45655">
        <ele>572.5</ele>
        <time>2015-10-25T07:24:39Z</time>
      </trkpt>
      <trkpt lat="43.73499" lon="3.45651">
        <ele>572</ele>
        <time>2015-10-25T07:24:40Z</time>
      </trkpt>
      <trkpt lat="43.735" lon="3.45647">
        <ele>572.5</ele>
        <time>2015-10-25T07:24:41Z</time>
      </trkpt>
      <trkpt lat="43.73501" lon="3.45643">
        <ele>572.5</ele>
        <time>2015-10-25T07:24:42Z</time>
      </trkpt>
      <trkpt lat="43.73502" lon="3.4564">
        <ele>573</ele>
        <time>2015-10-25T07:24:43Z</time>
      </trkpt>
      <trkpt lat="43.73503" lon="3.45636">
        <ele>572.5</ele>
        <time>2015-10-25T07:24:44Z</time>
      </trkpt>
      <trkpt lat="43.73504" lon="3.45632">
        <ele>572.5</ele>
        <time>2015-10-25T07:24:45Z</time>
      </trkpt>
      <trkpt lat="43.73505" lon="3.45628">
        <ele>573</ele>
        <time>2015-10-25T07:24:46Z</time>
      </trkpt>
      <trkpt lat="43.73506" lon="3.45623">
        <ele>574.5</ele>
        <time>2015-10-25T07:24:47Z</time>
      </trkpt>
      <trkpt lat="43.73508" lon="3.45619">
        <ele>574</ele>
        <time>2015-10-25T07:24:48Z</time>
      </trkpt>
      <trkpt lat="43.73509" lon="3.45615">
        <ele>574</ele>
        <time>2015-10-25T07:24:49Z</time>
      </trkpt>
      <trkpt lat="43.73511" lon="3.45613">
        <ele>574</ele>
        <time>2015-10-25T07:24:50Z</time>
      </trkpt>
      <trkpt lat="43.73513" lon="3.4561">
        <ele>573</ele>
        <time>2015-10-25T07:24:51Z</time>
      </trkpt>
      <trkpt lat="43.73515" lon="3.45607">
        <ele>571.5</ele>
        <time>2015-10-25T07:24:52Z</time>
      </trkpt>
      <trkpt lat="43.73518" lon="3.45605">
        <ele>570.5</ele>
        <time>2015-10-25T07:24:53Z</time>
      </trkpt>
      <trkpt lat="43.73519" lon="3.45601">
        <ele>571</ele>
        <time>2015-10-25T07:24:54Z</time>
      </trkpt>
      <trkpt lat="43.73521" lon="3.45598">
        <ele>571</ele>
        <time>2015-10-25T07:24:55Z</time>
      </trkpt>
      <trkpt lat="43.73523" lon="3.45595">
        <ele>571</ele>
        <time>2015-10-25T07:24:56Z</time>
      </trkpt>
      <trkpt lat="43.73524" lon="3.45592">
        <ele>571.5</ele>
        <time>2015-10-25T07:24:57Z</time>
      </trkpt>
      <trkpt lat="43.73526" lon="3.45589">
        <ele>571.5</ele>
        <time>2015-10-25T07:24:58Z</time>
      </trkpt>
      <trkpt lat="43.73527" lon="3.45585">
        <ele>571.5</ele>
        <time>2015-10-25T07:24:59Z</time>
      </trkpt>
      <trkpt lat="43.73529" lon="3.45582">
        <ele>571.5</ele>
        <time>2015-10-25T07:25:00Z</time>
      </trkpt>
      <trkpt lat="43.73531" lon="3.45579">
        <ele>572</ele>
        <time>2015-10-25T07:25:01Z</time>
      </trkpt>
      <trkpt lat="43.73532" lon="3.45575">
        <ele>572</ele>
        <time>2015-10-25T07:25:02Z</time>
      </trkpt>
      <trkpt lat="43.73533" lon="3.45571">
        <ele>572</ele>
        <time>2015-10-25T07:25:03Z</time>
      </trkpt>
      <trkpt lat="43.73534" lon="3.45567">
        <ele>572</ele>
        <time>2015-10-25T07:25:04Z</time>
      </trkpt>
      <trkpt lat="43.73535" lon="3.45563">
        <ele>572</ele>
        <time>2015-10-25T07:25:05Z</time>
      </trkpt>
      <trkpt lat="43.73535" lon="3.45559">
        <ele>572</ele>
        <time>2015-10-25T07:25:06Z</time>
      </trkpt>
      <trkpt lat="43.73535" lon="3.45554">
        <ele>572.5</ele>
        <time>2015-10-25T07:25:07Z</time>
      </trkpt>
      <trkpt lat="43.73535" lon="3.4555">
        <ele>572.5</ele>
        <time>2015-10-25T07:25:08Z</time>
      </trkpt>
      <trkpt lat="43.73535" lon="3.45545">
        <ele>572.5</ele>
        <time>2015-10-25T07:25:09Z</time>
      </trkpt>
      <trkpt lat="43.73535" lon="3.45541">
        <ele>572</ele>
        <time>2015-10-25T07:25:10Z</time>
      </trkpt>
      <trkpt lat="43.73534" lon="3.45537">
        <ele>573</ele>
        <time>2015-10-25T07:25:11Z</time>
      </trkpt>
      <trkpt lat="43.73533" lon="3.45533">
        <ele>573.5</ele>
        <time>2015-10-25T07:25:12Z</time>
      </trkpt>
      <trkpt lat="43.73532" lon="3.45529">
        <ele>574</ele>
        <time>2015-10-25T07:25:13Z</time>
      </trkpt>
      <trkpt lat="43.7353" lon="3.45525">
        <ele>575.5</ele>
        <time>2015-10-25T07:25:14Z</time>
      </trkpt>
      <trkpt lat="43.73529" lon="3.45521">
        <ele>577</ele>
        <time>2015-10-25T07:25:15Z</time>
      </trkpt>
      <trkpt lat="43.73527" lon="3.45518">
        <ele>578</ele>
        <time>2015-10-25T07:25:16Z</time>
      </trkpt>
      <trkpt lat="43.73526" lon="3.45514">
        <ele>578.5</ele>
        <time>2015-10-25T07:25:17Z</time>
      </trkpt>
      <trkpt lat="43.73524" lon="3.4551">
        <ele>579.5</ele>
        <time>2015-10-25T07:25:18Z</time>
      </trkpt>
      <trkpt lat="43.73523" lon="3.45507">
        <ele>580</ele>
        <time>2015-10-25T07:25:19Z</time>
      </trkpt>
      <trkpt lat="43.73521" lon="3.45503">
        <ele>580</ele>
        <time>2015-10-25T07:25:20Z</time>
      </trkpt>
      <trkpt lat="43.73519" lon="3.45496">
        <ele>580</ele>
        <time>2015-10-25T07:25:22Z</time>
      </trkpt>
      <trkpt lat="43.73517" lon="3.45493">
        <ele>580</ele>
        <time>2015-10-25T07:25:23Z</time>
      </trkpt>
      <trkpt lat="43.73516" lon="3.4549">
        <ele>580.5</ele>
        <time>2015-10-25T07:25:24Z</time>
      </trkpt>
      <trkpt lat="43.73515" lon="3.45487">
        <ele>580.5</ele>
        <time>2015-10-25T07:25:25Z</time>
      </trkpt>
      <trkpt lat="43.73513" lon="3.45484">
        <ele>580.5</ele>
        <time>2015-10-25T07:25:26Z</time>
      </trkpt>
      <trkpt lat="43.73512" lon="3.45481">
        <ele>580.5</ele>
        <time>2015-10-25T07:25:27Z</time>
      </trkpt>
      <trkpt lat="43.73511" lon="3.45479">
        <ele>580.5</ele>
        <time>2015-10-25T07:25:28Z</time>
      </trkpt>
      <trkpt lat="43.7351" lon="3.45476">
        <ele>580.5</ele>
        <time>2015-10-25T07:25:29Z</time>
      </trkpt>
      <trkpt lat="43.73509" lon="3.45473">
        <ele>580.5</ele>
        <time>2015-10-25T07:25:30Z</time>
      </trkpt>
      <trkpt lat="43.73508" lon="3.45471">
        <ele>580.5</ele>
        <time>2015-10-25T07:25:31Z</time>
      </trkpt>
      <trkpt lat="43.73507" lon="3.45468">
        <ele>580.5</ele>
        <time>2015-10-25T07:25:32Z</time>
      </trkpt>
      <trkpt lat="43.73506" lon="3.45465">
        <ele>578</ele>
        <time>2015-10-25T07:25:33Z</time>
      </trkpt>
      <trkpt lat="43.73505" lon="3.45462">
        <ele>578</ele>
        <time>2015-10-25T07:25:34Z</time>
      </trkpt>
      <trkpt lat="43.73504" lon="3.45459">
        <ele>577.5</ele>
        <time>2015-10-25T07:25:35Z</time>
      </trkpt>
      <trkpt lat="43.73503" lon="3.45457">
        <ele>578</ele>
        <time>2015-10-25T07:25:36Z</time>
      </trkpt>
      <trkpt lat="43.73502" lon="3.45454">
        <ele>578.5</ele>
        <time>2015-10-25T07:25:37Z</time>
      </trkpt>
      <trkpt lat="43.73501" lon="3.45452">
        <ele>579</ele>
        <time>2015-10-25T07:25:38Z</time>
      </trkpt>
      <trkpt lat="43.73499" lon="3.45449">
        <ele>579.5</ele>
        <time>2015-10-25T07:25:39Z</time>
      </trkpt>
      <trkpt lat="43.73498" lon="3.45447">
        <ele>579.5</ele>
        <time>2015-10-25T07:25:40Z</time>
      </trkpt>
      <trkpt lat="43.73497" lon="3.45445">
        <ele>579.5</ele>
        <time>2015-10-25T07:25:41Z</time>
      </trkpt>
      <trkpt lat="43.73495" lon="3.45442">
        <ele>579.5</ele>
        <time>2015-10-25T07:25:42Z</time>
      </trkpt>
      <trkpt lat="43.73494" lon="3.45439">
        <ele>579.5</ele>
        <time>2015-10-25T07:25:43Z</time>
      </trkpt>
      <trkpt lat="43.73493" lon="3.45437">
        <ele>579.5</ele>
        <time>2015-10-25T07:25:44Z</time>
      </trkpt>
      <trkpt lat="43.73492" lon="3.45434">
        <ele>579</ele>
        <time>2015-10-25T07:25:45Z</time>
      </trkpt>
      <trkpt lat="43.73491" lon="3.45431">
        <ele>579</ele>
        <time>2015-10-25T07:25:46Z</time>
      </trkpt>
      <trkpt lat="43.7349" lon="3.45428">
        <ele>579</ele>
        <time>2015-10-25T07:25:47Z</time>
      </trkpt>
      <trkpt lat="43.73489" lon="3.45425">
        <ele>579</ele>
        <time>2015-10-25T07:25:48Z</time>
      </trkpt>
      <trkpt lat="43.73488" lon="3.45423">
        <ele>579</ele>
        <time>2015-10-25T07:25:49Z</time>
      </trkpt>
      <trkpt lat="43.73487" lon="3.4542">
        <ele>578.5</ele>
        <time>2015-10-25T07:25:50Z</time>
      </trkpt>
      <trkpt lat="43.73486" lon="3.45418">
        <ele>578.5</ele>
        <time>2015-10-25T07:25:51Z</time>
      </trkpt>
      <trkpt lat="43.73485" lon="3.45415">
        <ele>578</ele>
        <time>2015-10-25T07:25:52Z</time>
      </trkpt>
      <trkpt lat="43.73484" lon="3.45413">
        <ele>577.5</ele>
        <time>2015-10-25T07:25:53Z</time>
      </trkpt>
      <trkpt lat="43.73483" lon="3.4541">
        <ele>577.5</ele>
        <time>2015-10-25T07:25:54Z</time>
      </trkpt>
      <trkpt lat="43.73482" lon="3.45408">
        <ele>577</ele>
        <time>2015-10-25T07:25:55Z</time>
      </trkpt>
      <trkpt lat="43.73482" lon="3.45405">
        <ele>577</ele>
        <time>2015-10-25T07:25:56Z</time>
      </trkpt>
      <trkpt lat="43.7348" lon="3.45403">
        <ele>577</ele>
        <time>2015-10-25T07:25:57Z</time>
      </trkpt>
      <trkpt lat="43.73479" lon="3.45401">
        <ele>577</ele>
        <time>2015-10-25T07:25:58Z</time>
      </trkpt>
      <trkpt lat="43.73478" lon="3.45398">
        <ele>577</ele>
        <time>2015-10-25T07:25:59Z</time>
      </trkpt>
      <trkpt lat="43.73477" lon="3.45396">
        <ele>577</ele>
        <time>2015-10-25T07:26:00Z</time>
      </trkpt>
      <trkpt lat="43.73476" lon="3.45393">
        <ele>577</ele>
        <time>2015-10-25T07:26:01Z</time>
      </trkpt>
      <trkpt lat="43.73475" lon="3.45391">
        <ele>577</ele>
        <time>2015-10-25T07:26:02Z</time>
      </trkpt>
      <trkpt lat="43.73474" lon="3.45388">
        <ele>577</ele>
        <time>2015-10-25T07:26:03Z</time>
      </trkpt>
      <trkpt lat="43.73472" lon="3.45386">
        <ele>577.5</ele>
        <time>2015-10-25T07:26:04Z</time>
      </trkpt>
      <trkpt lat="43.73471" lon="3.45383">
        <ele>577</ele>
        <time>2015-10-25T07:26:05Z</time>
      </trkpt>
      <trkpt lat="43.7347" lon="3.45381">
        <ele>577</ele>
        <time>2015-10-25T07:26:06Z</time>
      </trkpt>
      <trkpt lat="43.7347" lon="3.45378">
        <ele>577.5</ele>
        <time>2015-10-25T07:26:07Z</time>
      </trkpt>
      <trkpt lat="43.7347" lon="3.45375">
        <ele>577.5</ele>
        <time>2015-10-25T07:26:08Z</time>
      </trkpt>
      <trkpt lat="43.73469" lon="3.45372">
        <ele>577.5</ele>
        <time>2015-10-25T07:26:09Z</time>
      </trkpt>
      <trkpt lat="43.73469" lon="3.4537">
        <ele>578</ele>
        <time>2015-10-25T07:26:10Z</time>
      </trkpt>
      <trkpt lat="43.73469" lon="3.45367">
        <ele>578</ele>
        <time>2015-10-25T07:26:11Z</time>
      </trkpt>
      <trkpt lat="43.73467" lon="3.45365">
        <ele>580</ele>
        <time>2015-10-25T07:26:12Z</time>
      </trkpt>
      <trkpt lat="43.73469" lon="3.45361">
        <ele>578.5</ele>
        <time>2015-10-25T07:26:13Z</time>
      </trkpt>
      <trkpt lat="43.73469" lon="3.45359">
        <ele>579</ele>
        <time>2015-10-25T07:26:14Z</time>
      </trkpt>
      <trkpt lat="43.73469" lon="3.45356">
        <ele>580</ele>
        <time>2015-10-25T07:26:15Z</time>
      </trkpt>
      <trkpt lat="43.73468" lon="3.45353">
        <ele>580.5</ele>
        <time>2015-10-25T07:26:16Z</time>
      </trkpt>
      <trkpt lat="43.73468" lon="3.4535">
        <ele>581</ele>
        <time>2015-10-25T07:26:17Z</time>
      </trkpt>
      <trkpt lat="43.73469" lon="3.45348">
        <ele>581.5</ele>
        <time>2015-10-25T07:26:18Z</time>
      </trkpt>
      <trkpt lat="43.73469" lon="3.45345">
        <ele>582</ele>
        <time>2015-10-25T07:26:19Z</time>
      </trkpt>
      <trkpt lat="43.7347" lon="3.45342">
        <ele>582.5</ele>
        <time>2015-10-25T07:26:20Z</time>
      </trkpt>
      <trkpt lat="43.7347" lon="3.4534">
        <ele>583.5</ele>
        <time>2015-10-25T07:26:21Z</time>
      </trkpt>
      <trkpt lat="43.73471" lon="3.45337">
        <ele>583.5</ele>
        <time>2015-10-25T07:26:22Z</time>
      </trkpt>
      <trkpt lat="43.73472" lon="3.45335">
        <ele>584</ele>
        <time>2015-10-25T07:26:23Z</time>
      </trkpt>
      <trkpt lat="43.73472" lon="3.45332">
        <ele>584.5</ele>
        <time>2015-10-25T07:26:24Z</time>
      </trkpt>
      <trkpt lat="43.73473" lon="3.4533">
        <ele>585</ele>
        <time>2015-10-25T07:26:25Z</time>
      </trkpt>
      <trkpt lat="43.73475" lon="3.45328">
        <ele>584.5</ele>
        <time>2015-10-25T07:26:26Z</time>
      </trkpt>
      <trkpt lat="43.73476" lon="3.45326">
        <ele>584</ele>
        <time>2015-10-25T07:26:27Z</time>
      </trkpt>
      <trkpt lat="43.73477" lon="3.45324">
        <ele>584</ele>
        <time>2015-10-25T07:26:28Z</time>
      </trkpt>
      <trkpt lat="43.73479" lon="3.45321">
        <ele>584.5</ele>
        <time>2015-10-25T07:26:29Z</time>
      </trkpt>
      <trkpt lat="43.7348" lon="3.45318">
        <ele>584.5</ele>
        <time>2015-10-25T07:26:30Z</time>
      </trkpt>
      <trkpt lat="43.73481" lon="3.45315">
        <ele>585</ele>
        <time>2015-10-25T07:26:31Z</time>
      </trkpt>
      <trkpt lat="43.73482" lon="3.45312">
        <ele>585.5</ele>
        <time>2015-10-25T07:26:32Z</time>
      </trkpt>
      <trkpt lat="43.73483" lon="3.45309">
        <ele>586</ele>
        <time>2015-10-25T07:26:33Z</time>
      </trkpt>
      <trkpt lat="43.73485" lon="3.45307">
        <ele>586.5</ele>
        <time>2015-10-25T07:26:34Z</time>
      </trkpt>
      <trkpt lat="43.73486" lon="3.45304">
        <ele>586.5</ele>
        <time>2015-10-25T07:26:35Z</time>
      </trkpt>
      <trkpt lat="43.73488" lon="3.45302">
        <ele>586.5</ele>
        <time>2015-10-25T07:26:36Z</time>
      </trkpt>
      <trkpt lat="43.7349" lon="3.453">
        <ele>586.5</ele>
        <time>2015-10-25T07:26:37Z</time>
      </trkpt>
      <trkpt lat="43.73491" lon="3.45298">
        <ele>586</ele>
        <time>2015-10-25T07:26:38Z</time>
      </trkpt>
      <trkpt lat="43.73493" lon="3.45297">
        <ele>586.5</ele>
        <time>2015-10-25T07:26:39Z</time>
      </trkpt>
      <trkpt lat="43.73495" lon="3.45295">
        <ele>586</ele>
        <time>2015-10-25T07:26:40Z</time>
      </trkpt>
      <trkpt lat="43.73496" lon="3.45293">
        <ele>586</ele>
        <time>2015-10-25T07:26:41Z</time>
      </trkpt>
      <trkpt lat="43.73498" lon="3.45291">
        <ele>586</ele>
        <time>2015-10-25T07:26:42Z</time>
      </trkpt>
      <trkpt lat="43.73501" lon="3.45287">
        <ele>587</ele>
        <time>2015-10-25T07:26:44Z</time>
      </trkpt>
      <trkpt lat="43.73503" lon="3.45286">
        <ele>587</ele>
        <time>2015-10-25T07:26:45Z</time>
      </trkpt>
      <trkpt lat="43.73505" lon="3.45284">
        <ele>587</ele>
        <time>2015-10-25T07:26:46Z</time>
      </trkpt>
      <trkpt lat="43.73506" lon="3.45282">
        <ele>587</ele>
        <time>2015-10-25T07:26:47Z</time>
      </trkpt>
      <trkpt lat="43.73508" lon="3.4528">
        <ele>587.5</ele>
        <time>2015-10-25T07:26:48Z</time>
      </trkpt>
      <trkpt lat="43.7351" lon="3.45279">
        <ele>587.5</ele>
        <time>2015-10-25T07:26:49Z</time>
      </trkpt>
      <trkpt lat="43.73512" lon="3.45277">
        <ele>588</ele>
        <time>2015-10-25T07:26:50Z</time>
      </trkpt>
      <trkpt lat="43.73514" lon="3.45275">
        <ele>588</ele>
        <time>2015-10-25T07:26:51Z</time>
      </trkpt>
      <trkpt lat="43.73516" lon="3.45274">
        <ele>588</ele>
        <time>2015-10-25T07:26:52Z</time>
      </trkpt>
      <trkpt lat="43.73518" lon="3.45272">
        <ele>588</ele>
        <time>2015-10-25T07:26:53Z</time>
      </trkpt>
      <trkpt lat="43.7352" lon="3.4527">
        <ele>588</ele>
        <time>2015-10-25T07:26:54Z</time>
      </trkpt>
      <trkpt lat="43.73523" lon="3.4527">
        <ele>587.5</ele>
        <time>2015-10-25T07:26:55Z</time>
      </trkpt>
      <trkpt lat="43.73524" lon="3.45267">
        <ele>588.5</ele>
        <time>2015-10-25T07:26:56Z</time>
      </trkpt>
      <trkpt lat="43.73527" lon="3.45266">
        <ele>588.5</ele>
        <time>2015-10-25T07:26:57Z</time>
      </trkpt>
      <trkpt lat="43.7353" lon="3.45267">
        <ele>587</ele>
        <time>2015-10-25T07:26:58Z</time>
      </trkpt>
      <trkpt lat="43.73532" lon="3.45265">
        <ele>587</ele>
        <time>2015-10-25T07:26:59Z</time>
      </trkpt>
      <trkpt lat="43.73535" lon="3.45265">
        <ele>586.5</ele>
        <time>2015-10-25T07:27:00Z</time>
      </trkpt>
      <trkpt lat="43.73537" lon="3.45264">
        <ele>586.5</ele>
        <time>2015-10-25T07:27:01Z</time>
      </trkpt>
      <trkpt lat="43.73539" lon="3.45263">
        <ele>586.5</ele>
        <time>2015-10-25T07:27:02Z</time>
      </trkpt>
      <trkpt lat="43.73541" lon="3.45261">
        <ele>587.5</ele>
        <time>2015-10-25T07:27:03Z</time>
      </trkpt>
      <trkpt lat="43.73543" lon="3.4526">
        <ele>587</ele>
        <time>2015-10-25T07:27:04Z</time>
      </trkpt>
      <trkpt lat="43.73545" lon="3.45258">
        <ele>588</ele>
        <time>2015-10-25T07:27:05Z</time>
      </trkpt>
      <trkpt lat="43.73548" lon="3.45258">
        <ele>588</ele>
        <time>2015-10-25T07:27:06Z</time>
      </trkpt>
      <trkpt lat="43.7355" lon="3.45257">
        <ele>588</ele>
        <time>2015-10-25T07:27:07Z</time>
      </trkpt>
      <trkpt lat="43.73553" lon="3.45256">
        <ele>588</ele>
        <time>2015-10-25T07:27:08Z</time>
      </trkpt>
      <trkpt lat="43.73555" lon="3.45255">
        <ele>588.5</ele>
        <time>2015-10-25T07:27:09Z</time>
      </trkpt>
      <trkpt lat="43.73557" lon="3.45254">
        <ele>589</ele>
        <time>2015-10-25T07:27:10Z</time>
      </trkpt>
      <trkpt lat="43.73559" lon="3.45254">
        <ele>589.5</ele>
        <time>2015-10-25T07:27:11Z</time>
      </trkpt>
      <trkpt lat="43.73562" lon="3.45253">
        <ele>589.5</ele>
        <time>2015-10-25T07:27:12Z</time>
      </trkpt>
      <trkpt lat="43.73564" lon="3.45252">
        <ele>589.5</ele>
        <time>2015-10-25T07:27:13Z</time>
      </trkpt>
      <trkpt lat="43.73567" lon="3.45252">
        <ele>589.5</ele>
        <time>2015-10-25T07:27:14Z</time>
      </trkpt>
      <trkpt lat="43.73569" lon="3.45251">
        <ele>590</ele>
        <time>2015-10-25T07:27:15Z</time>
      </trkpt>
      <trkpt lat="43.73574" lon="3.45249">
        <ele>591</ele>
        <time>2015-10-25T07:27:17Z</time>
      </trkpt>
      <trkpt lat="43.73576" lon="3.45249">
        <ele>591</ele>
        <time>2015-10-25T07:27:18Z</time>
      </trkpt>
      <trkpt lat="43.73579" lon="3.45247">
        <ele>592</ele>
        <time>2015-10-25T07:27:18Z</time>
      </trkpt>
      <trkpt lat="43.73581" lon="3.45247">
        <ele>592</ele>
        <time>2015-10-25T07:27:19Z</time>
      </trkpt>
      <trkpt lat="43.73584" lon="3.45247">
        <ele>591.5</ele>
        <time>2015-10-25T07:27:20Z</time>
      </trkpt>
      <trkpt lat="43.73586" lon="3.45246">
        <ele>592</ele>
        <time>2015-10-25T07:27:21Z</time>
      </trkpt>
      <trkpt lat="43.73588" lon="3.45245">
        <ele>592.5</ele>
        <time>2015-10-25T07:27:23Z</time>
      </trkpt>
      <trkpt lat="43.7359" lon="3.45245">
        <ele>592.5</ele>
        <time>2015-10-25T07:27:23Z</time>
      </trkpt>
      <trkpt lat="43.73593" lon="3.45245">
        <ele>591.5</ele>
        <time>2015-10-25T07:27:25Z</time>
      </trkpt>
      <trkpt lat="43.73596" lon="3.45245">
        <ele>591.5</ele>
        <time>2015-10-25T07:27:26Z</time>
      </trkpt>
      <trkpt lat="43.73598" lon="3.45245">
        <ele>591.5</ele>
        <time>2015-10-25T07:27:26Z</time>
      </trkpt>
      <trkpt lat="43.73601" lon="3.45245">
        <ele>591.5</ele>
        <time>2015-10-25T07:27:27Z</time>
      </trkpt>
      <trkpt lat="43.73603" lon="3.45245">
        <ele>590.5</ele>
        <time>2015-10-25T07:27:29Z</time>
      </trkpt>
      <trkpt lat="43.73606" lon="3.45246">
        <ele>589.5</ele>
        <time>2015-10-25T07:27:29Z</time>
      </trkpt>
      <trkpt lat="43.73609" lon="3.45247">
        <ele>588.5</ele>
        <time>2015-10-25T07:27:30Z</time>
      </trkpt>
      <trkpt lat="43.7361" lon="3.45246">
        <ele>590</ele>
        <time>2015-10-25T07:27:31Z</time>
      </trkpt>
      <trkpt lat="43.73612" lon="3.45245">
        <ele>591</ele>
        <time>2015-10-25T07:27:32Z</time>
      </trkpt>
      <trkpt lat="43.73615" lon="3.45239">
        <ele>597</ele>
        <time>2015-10-25T07:27:34Z</time>
      </trkpt>
      <trkpt lat="43.73617" lon="3.45238">
        <ele>597</ele>
        <time>2015-10-25T07:27:35Z</time>
      </trkpt>
      <trkpt lat="43.7362" lon="3.45238">
        <ele>597</ele>
        <time>2015-10-25T07:27:36Z</time>
      </trkpt>
      <trkpt lat="43.73622" lon="3.45239">
        <ele>596.5</ele>
        <time>2015-10-25T07:27:38Z</time>
      </trkpt>
      <trkpt lat="43.73625" lon="3.45239">
        <ele>596</ele>
        <time>2015-10-25T07:27:38Z</time>
      </trkpt>
      <trkpt lat="43.73627" lon="3.45239">
        <ele>596</ele>
        <time>2015-10-25T07:27:40Z</time>
      </trkpt>
      <trkpt lat="43.7363" lon="3.45239">
        <ele>596</ele>
        <time>2015-10-25T07:27:40Z</time>
      </trkpt>
      <trkpt lat="43.73632" lon="3.45239">
        <ele>596</ele>
        <time>2015-10-25T07:27:41Z</time>
      </trkpt>
      <trkpt lat="43.73634" lon="3.45238">
        <ele>596.5</ele>
        <time>2015-10-25T07:27:42Z</time>
      </trkpt>
      <trkpt lat="43.73637" lon="3.45238">
        <ele>596.5</ele>
        <time>2015-10-25T07:27:43Z</time>
      </trkpt>
      <trkpt lat="43.73639" lon="3.45238">
        <ele>597</ele>
        <time>2015-10-25T07:27:45Z</time>
      </trkpt>
      <trkpt lat="43.73641" lon="3.45238">
        <ele>597</ele>
        <time>2015-10-25T07:27:45Z</time>
      </trkpt>
      <trkpt lat="43.73644" lon="3.45238">
        <ele>597</ele>
        <time>2015-10-25T07:27:46Z</time>
      </trkpt>
      <trkpt lat="43.73646" lon="3.45238">
        <ele>598</ele>
        <time>2015-10-25T07:27:47Z</time>
      </trkpt>
      <trkpt lat="43.73648" lon="3.45239">
        <ele>598</ele>
        <time>2015-10-25T07:27:48Z</time>
      </trkpt>
      <trkpt lat="43.7365" lon="3.4524">
        <ele>599</ele>
        <time>2015-10-25T07:27:49Z</time>
      </trkpt>
      <trkpt lat="43.73651" lon="3.45241">
        <ele>600</ele>
        <time>2015-10-25T07:27:50Z</time>
      </trkpt>
      <trkpt lat="43.73653" lon="3.45243">
        <ele>601.5</ele>
        <time>2015-10-25T07:27:51Z</time>
      </trkpt>
      <trkpt lat="43.73653" lon="3.45244">
        <ele>603</ele>
        <time>2015-10-25T07:27:52Z</time>
      </trkpt>
      <trkpt lat="43.73653" lon="3.45246">
        <ele>605</ele>
        <time>2015-10-25T07:27:53Z</time>
      </trkpt>
      <trkpt lat="43.73653" lon="3.45249">
        <ele>606</ele>
        <time>2015-10-25T07:27:54Z</time>
      </trkpt>
      <trkpt lat="43.73652" lon="3.45251">
        <ele>607</ele>
        <time>2015-10-25T07:27:55Z</time>
      </trkpt>
      <trkpt lat="43.73651" lon="3.45253">
        <ele>607.5</ele>
        <time>2015-10-25T07:27:56Z</time>
      </trkpt>
      <trkpt lat="43.7365" lon="3.45256">
        <ele>607.5</ele>
        <time>2015-10-25T07:27:57Z</time>
      </trkpt>
      <trkpt lat="43.73649" lon="3.45258">
        <ele>607</ele>
        <time>2015-10-25T07:27:58Z</time>
      </trkpt>
      <trkpt lat="43.73647" lon="3.45259">
        <ele>606.5</ele>
        <time>2015-10-25T07:27:59Z</time>
      </trkpt>
      <trkpt lat="43.73646" lon="3.45261">
        <ele>607</ele>
        <time>2015-10-25T07:28:00Z</time>
      </trkpt>
      <trkpt lat="43.73644" lon="3.45263">
        <ele>607</ele>
        <time>2015-10-25T07:28:01Z</time>
      </trkpt>
      <trkpt lat="43.73642" lon="3.45264">
        <ele>607.5</ele>
        <time>2015-10-25T07:28:02Z</time>
      </trkpt>
      <trkpt lat="43.7364" lon="3.45265">
        <ele>607</ele>
        <time>2015-10-25T07:28:03Z</time>
      </trkpt>
      <trkpt lat="43.73638" lon="3.45267">
        <ele>607</ele>
        <time>2015-10-25T07:28:04Z</time>
      </trkpt>
      <trkpt lat="43.73636" lon="3.45268">
        <ele>607</ele>
        <time>2015-10-25T07:28:05Z</time>
      </trkpt>
      <trkpt lat="43.73634" lon="3.4527">
        <ele>606.5</ele>
        <time>2015-10-25T07:28:06Z</time>
      </trkpt>
      <trkpt lat="43.73632" lon="3.45271">
        <ele>606.5</ele>
        <time>2015-10-25T07:28:07Z</time>
      </trkpt>
      <trkpt lat="43.7363" lon="3.45272">
        <ele>606.5</ele>
        <time>2015-10-25T07:28:08Z</time>
      </trkpt>
      <trkpt lat="43.73628" lon="3.45273">
        <ele>606.5</ele>
        <time>2015-10-25T07:28:10Z</time>
      </trkpt>
      <trkpt lat="43.73623" lon="3.45274">
        <ele>606.5</ele>
        <time>2015-10-25T07:28:11Z</time>
      </trkpt>
      <trkpt lat="43.73621" lon="3.45275">
        <ele>607</ele>
        <time>2015-10-25T07:28:12Z</time>
      </trkpt>
      <trkpt lat="43.73616" lon="3.45276">
        <ele>607</ele>
        <time>2015-10-25T07:28:14Z</time>
      </trkpt>
      <trkpt lat="43.73614" lon="3.45277">
        <ele>607.5</ele>
        <time>2015-10-25T07:28:15Z</time>
      </trkpt>
      <trkpt lat="43.73611" lon="3.45277">
        <ele>607</ele>
        <time>2015-10-25T07:28:16Z</time>
      </trkpt>
      <trkpt lat="43.73609" lon="3.45277">
        <ele>607</ele>
        <time>2015-10-25T07:28:18Z</time>
      </trkpt>
      <trkpt lat="43.73604" lon="3.45278">
        <ele>606.5</ele>
        <time>2015-10-25T07:28:19Z</time>
      </trkpt>
      <trkpt lat="43.73601" lon="3.45278">
        <ele>606.5</ele>
        <time>2015-10-25T07:28:20Z</time>
      </trkpt>
      <trkpt lat="43.73599" lon="3.45278">
        <ele>607</ele>
        <time>2015-10-25T07:28:21Z</time>
      </trkpt>
      <trkpt lat="43.73597" lon="3.45278">
        <ele>607</ele>
        <time>2015-10-25T07:28:22Z</time>
      </trkpt>
      <trkpt lat="43.73594" lon="3.45278">
        <ele>607</ele>
        <time>2015-10-25T07:28:23Z</time>
      </trkpt>
      <trkpt lat="43.73592" lon="3.45278">
        <ele>607</ele>
        <time>2015-10-25T07:28:24Z</time>
      </trkpt>
      <trkpt lat="43.7359" lon="3.45278">
        <ele>607</ele>
        <time>2015-10-25T07:28:25Z</time>
      </trkpt>
      <trkpt lat="43.73587" lon="3.45279">
        <ele>607</ele>
        <time>2015-10-25T07:28:27Z</time>
      </trkpt>
      <trkpt lat="43.73582" lon="3.4528">
        <ele>607.5</ele>
        <time>2015-10-25T07:28:28Z</time>
      </trkpt>
      <trkpt lat="43.73579" lon="3.4528">
        <ele>608</ele>
        <time>2015-10-25T07:28:29Z</time>
      </trkpt>
      <trkpt lat="43.73577" lon="3.45281">
        <ele>608</ele>
        <time>2015-10-25T07:28:31Z</time>
      </trkpt>
      <trkpt lat="43.73571" lon="3.45283">
        <ele>608.5</ele>
        <time>2015-10-25T07:28:32Z</time>
      </trkpt>
      <trkpt lat="43.73569" lon="3.45284">
        <ele>608.5</ele>
        <time>2015-10-25T07:28:33Z</time>
      </trkpt>
      <trkpt lat="43.73566" lon="3.45285">
        <ele>608.5</ele>
        <time>2015-10-25T07:28:34Z</time>
      </trkpt>
      <trkpt lat="43.73564" lon="3.45286">
        <ele>609</ele>
        <time>2015-10-25T07:28:35Z</time>
      </trkpt>
      <trkpt lat="43.73562" lon="3.45288">
        <ele>609.5</ele>
        <time>2015-10-25T07:28:36Z</time>
      </trkpt>
      <trkpt lat="43.73559" lon="3.45289">
        <ele>610</ele>
        <time>2015-10-25T07:28:37Z</time>
      </trkpt>
      <trkpt lat="43.73557" lon="3.45291">
        <ele>610</ele>
        <time>2015-10-25T07:28:38Z</time>
      </trkpt>
      <trkpt lat="43.73555" lon="3.45293">
        <ele>610</ele>
        <time>2015-10-25T07:28:39Z</time>
      </trkpt>
      <trkpt lat="43.73552" lon="3.45294">
        <ele>610.5</ele>
        <time>2015-10-25T07:28:40Z</time>
      </trkpt>
      <trkpt lat="43.7355" lon="3.45296">
        <ele>610.5</ele>
        <time>2015-10-25T07:28:41Z</time>
      </trkpt>
      <trkpt lat="43.73547" lon="3.45298">
        <ele>610.5</ele>
        <time>2015-10-25T07:28:42Z</time>
      </trkpt>
      <trkpt lat="43.73545" lon="3.45299">
        <ele>610.5</ele>
        <time>2015-10-25T07:28:43Z</time>
      </trkpt>
      <trkpt lat="43.73542" lon="3.45301">
        <ele>610.5</ele>
        <time>2015-10-25T07:28:44Z</time>
      </trkpt>
      <trkpt lat="43.7354" lon="3.45303">
        <ele>611</ele>
        <time>2015-10-25T07:28:45Z</time>
      </trkpt>
      <trkpt lat="43.73538" lon="3.45304">
        <ele>611</ele>
        <time>2015-10-25T07:28:46Z</time>
      </trkpt>
      <trkpt lat="43.73536" lon="3.45306">
        <ele>611</ele>
        <time>2015-10-25T07:28:47Z</time>
      </trkpt>
      <trkpt lat="43.73533" lon="3.45308">
        <ele>611</ele>
        <time>2015-10-25T07:28:48Z</time>
      </trkpt>
      <trkpt lat="43.73531" lon="3.4531">
        <ele>611.5</ele>
        <time>2015-10-25T07:28:49Z</time>
      </trkpt>
      <trkpt lat="43.73529" lon="3.45312">
        <ele>611.5</ele>
        <time>2015-10-25T07:28:50Z</time>
      </trkpt>
      <trkpt lat="43.73527" lon="3.45314">
        <ele>611.5</ele>
        <time>2015-10-25T07:28:51Z</time>
      </trkpt>
      <trkpt lat="43.73524" lon="3.45318">
        <ele>613</ele>
        <time>2015-10-25T07:28:52Z</time>
      </trkpt>
      <trkpt lat="43.73523" lon="3.45322">
        <ele>613</ele>
        <time>2015-10-25T07:28:53Z</time>
      </trkpt>
      <trkpt lat="43.73522" lon="3.45325">
        <ele>613</ele>
        <time>2015-10-25T07:28:54Z</time>
      </trkpt>
      <trkpt lat="43.73521" lon="3.45328">
        <ele>613</ele>
        <time>2015-10-25T07:28:55Z</time>
      </trkpt>
      <trkpt lat="43.7352" lon="3.45332">
        <ele>613.5</ele>
        <time>2015-10-25T07:28:56Z</time>
      </trkpt>
      <trkpt lat="43.73519" lon="3.45336">
        <ele>613.5</ele>
        <time>2015-10-25T07:28:57Z</time>
      </trkpt>
      <trkpt lat="43.73519" lon="3.45339">
        <ele>613.5</ele>
        <time>2015-10-25T07:28:58Z</time>
      </trkpt>
      <trkpt lat="43.73519" lon="3.45343">
        <ele>613.5</ele>
        <time>2015-10-25T07:28:59Z</time>
      </trkpt>
      <trkpt lat="43.73519" lon="3.45346">
        <ele>612.5</ele>
        <time>2015-10-25T07:29:00Z</time>
      </trkpt>
      <trkpt lat="43.7352" lon="3.45349">
        <ele>612.5</ele>
        <time>2015-10-25T07:29:01Z</time>
      </trkpt>
      <trkpt lat="43.73522" lon="3.45353">
        <ele>612.5</ele>
        <time>2015-10-25T07:29:02Z</time>
      </trkpt>
      <trkpt lat="43.73523" lon="3.45356">
        <ele>612.5</ele>
        <time>2015-10-25T07:29:03Z</time>
      </trkpt>
      <trkpt lat="43.73524" lon="3.45359">
        <ele>612.5</ele>
        <time>2015-10-25T07:29:04Z</time>
      </trkpt>
      <trkpt lat="43.73526" lon="3.45361">
        <ele>612</ele>
        <time>2015-10-25T07:29:05Z</time>
      </trkpt>
      <trkpt lat="43.73527" lon="3.45364">
        <ele>612</ele>
        <time>2015-10-25T07:29:06Z</time>
      </trkpt>
      <trkpt lat="43.73529" lon="3.45367">
        <ele>612.5</ele>
        <time>2015-10-25T07:29:07Z</time>
      </trkpt>
      <trkpt lat="43.73531" lon="3.45369">
        <ele>612</ele>
        <time>2015-10-25T07:29:08Z</time>
      </trkpt>
      <trkpt lat="43.73532" lon="3.45372">
        <ele>612</ele>
        <time>2015-10-25T07:29:09Z</time>
      </trkpt>
      <trkpt lat="43.73534" lon="3.45375">
        <ele>612</ele>
        <time>2015-10-25T07:29:10Z</time>
      </trkpt>
      <trkpt lat="43.73536" lon="3.45378">
        <ele>612</ele>
        <time>2015-10-25T07:29:11Z</time>
      </trkpt>
      <trkpt lat="43.73538" lon="3.4538">
        <ele>612.5</ele>
        <time>2015-10-25T07:29:12Z</time>
      </trkpt>
      <trkpt lat="43.7354" lon="3.45383">
        <ele>612</ele>
        <time>2015-10-25T07:29:13Z</time>
      </trkpt>
      <trkpt lat="43.73542" lon="3.45386">
        <ele>612.5</ele>
        <time>2015-10-25T07:29:14Z</time>
      </trkpt>
      <trkpt lat="43.73544" lon="3.45389">
        <ele>612.5</ele>
        <time>2015-10-25T07:29:15Z</time>
      </trkpt>
      <trkpt lat="43.73545" lon="3.45391">
        <ele>612.5</ele>
        <time>2015-10-25T07:29:16Z</time>
      </trkpt>
      <trkpt lat="43.73547" lon="3.45394">
        <ele>612.5</ele>
        <time>2015-10-25T07:29:17Z</time>
      </trkpt>
      <trkpt lat="43.73549" lon="3.45397">
        <ele>613</ele>
        <time>2015-10-25T07:29:18Z</time>
      </trkpt>
      <trkpt lat="43.73552" lon="3.45399">
        <ele>613.5</ele>
        <time>2015-10-25T07:29:19Z</time>
      </trkpt>
      <trkpt lat="43.73554" lon="3.45402">
        <ele>613.5</ele>
        <time>2015-10-25T07:29:20Z</time>
      </trkpt>
      <trkpt lat="43.73556" lon="3.45404">
        <ele>614</ele>
        <time>2015-10-25T07:29:21Z</time>
      </trkpt>
      <trkpt lat="43.73559" lon="3.45407">
        <ele>614</ele>
        <time>2015-10-25T07:29:22Z</time>
      </trkpt>
      <trkpt lat="43.7356" lon="3.4541">
        <ele>614.5</ele>
        <time>2015-10-25T07:29:23Z</time>
      </trkpt>
      <trkpt lat="43.73562" lon="3.45413">
        <ele>614.5</ele>
        <time>2015-10-25T07:29:24Z</time>
      </trkpt>
      <trkpt lat="43.73563" lon="3.45416">
        <ele>614.5</ele>
        <time>2015-10-25T07:29:25Z</time>
      </trkpt>
      <trkpt lat="43.73565" lon="3.45418">
        <ele>615</ele>
        <time>2015-10-25T07:29:26Z</time>
      </trkpt>
      <trkpt lat="43.73567" lon="3.45421">
        <ele>615</ele>
        <time>2015-10-25T07:29:27Z</time>
      </trkpt>
      <trkpt lat="43.73569" lon="3.45423">
        <ele>615.5</ele>
        <time>2015-10-25T07:29:28Z</time>
      </trkpt>
      <trkpt lat="43.7357" lon="3.45426">
        <ele>615.5</ele>
        <time>2015-10-25T07:29:29Z</time>
      </trkpt>
      <trkpt lat="43.73572" lon="3.45428">
        <ele>616</ele>
        <time>2015-10-25T07:29:30Z</time>
      </trkpt>
      <trkpt lat="43.73573" lon="3.45431">
        <ele>616</ele>
        <time>2015-10-25T07:29:31Z</time>
      </trkpt>
      <trkpt lat="43.73575" lon="3.45433">
        <ele>616.5</ele>
        <time>2015-10-25T07:29:32Z</time>
      </trkpt>
      <trkpt lat="43.73575" lon="3.45436">
        <ele>616</ele>
        <time>2015-10-25T07:29:33Z</time>
      </trkpt>
      <trkpt lat="43.73577" lon="3.45438">
        <ele>617</ele>
        <time>2015-10-25T07:29:34Z</time>
      </trkpt>
      <trkpt lat="43.73579" lon="3.4544">
        <ele>617</ele>
        <time>2015-10-25T07:29:35Z</time>
      </trkpt>
      <trkpt lat="43.73581" lon="3.45442">
        <ele>617.5</ele>
        <time>2015-10-25T07:29:36Z</time>
      </trkpt>
      <trkpt lat="43.73583" lon="3.45445">
        <ele>618</ele>
        <time>2015-10-25T07:29:37Z</time>
      </trkpt>
      <trkpt lat="43.73584" lon="3.45447">
        <ele>618</ele>
        <time>2015-10-25T07:29:38Z</time>
      </trkpt>
      <trkpt lat="43.73586" lon="3.4545">
        <ele>618.5</ele>
        <time>2015-10-25T07:29:39Z</time>
      </trkpt>
      <trkpt lat="43.73588" lon="3.45452">
        <ele>618.5</ele>
        <time>2015-10-25T07:29:40Z</time>
      </trkpt>
      <trkpt lat="43.73589" lon="3.45455">
        <ele>619</ele>
        <time>2015-10-25T07:29:41Z</time>
      </trkpt>
      <trkpt lat="43.73591" lon="3.45457">
        <ele>619.5</ele>
        <time>2015-10-25T07:29:42Z</time>
      </trkpt>
      <trkpt lat="43.73593" lon="3.4546">
        <ele>619.5</ele>
        <time>2015-10-25T07:29:43Z</time>
      </trkpt>
      <trkpt lat="43.73594" lon="3.45462">
        <ele>619.5</ele>
        <time>2015-10-25T07:29:44Z</time>
      </trkpt>
      <trkpt lat="43.73596" lon="3.45465">
        <ele>619.5</ele>
        <time>2015-10-25T07:29:45Z</time>
      </trkpt>
      <trkpt lat="43.73597" lon="3.45467">
        <ele>620</ele>
        <time>2015-10-25T07:29:46Z</time>
      </trkpt>
      <trkpt lat="43.73599" lon="3.45469">
        <ele>620</ele>
        <time>2015-10-25T07:29:47Z</time>
      </trkpt>
      <trkpt lat="43.73601" lon="3.45472">
        <ele>620</ele>
        <time>2015-10-25T07:29:48Z</time>
      </trkpt>
      <trkpt lat="43.73603" lon="3.45474">
        <ele>620</ele>
        <time>2015-10-25T07:29:49Z</time>
      </trkpt>
      <trkpt lat="43.73604" lon="3.45476">
        <ele>620</ele>
        <time>2015-10-25T07:29:50Z</time>
      </trkpt>
      <trkpt lat="43.73606" lon="3.45478">
        <ele>621</ele>
        <time>2015-10-25T07:29:51Z</time>
      </trkpt>
      <trkpt lat="43.73608" lon="3.4548">
        <ele>621</ele>
        <time>2015-10-25T07:29:52Z</time>
      </trkpt>
      <trkpt lat="43.73609" lon="3.45482">
        <ele>621</ele>
        <time>2015-10-25T07:29:53Z</time>
      </trkpt>
      <trkpt lat="43.73611" lon="3.45484">
        <ele>621.5</ele>
        <time>2015-10-25T07:29:54Z</time>
      </trkpt>
      <trkpt lat="43.73613" lon="3.45486">
        <ele>621.5</ele>
        <time>2015-10-25T07:29:55Z</time>
      </trkpt>
      <trkpt lat="43.73615" lon="3.45489">
        <ele>621</ele>
        <time>2015-10-25T07:29:56Z</time>
      </trkpt>
      <trkpt lat="43.73617" lon="3.45491">
        <ele>621.5</ele>
        <time>2015-10-25T07:29:57Z</time>
      </trkpt>
      <trkpt lat="43.73619" lon="3.45493">
        <ele>621</ele>
        <time>2015-10-25T07:29:58Z</time>
      </trkpt>
      <trkpt lat="43.73621" lon="3.45495">
        <ele>621.5</ele>
        <time>2015-10-25T07:29:59Z</time>
      </trkpt>
      <trkpt lat="43.73623" lon="3.45498">
        <ele>621.5</ele>
        <time>2015-10-25T07:30:00Z</time>
      </trkpt>
      <trkpt lat="43.73625" lon="3.455">
        <ele>621.5</ele>
        <time>2015-10-25T07:30:01Z</time>
      </trkpt>
      <trkpt lat="43.73626" lon="3.45502">
        <ele>621.5</ele>
        <time>2015-10-25T07:30:02Z</time>
      </trkpt>
      <trkpt lat="43.73629" lon="3.45505">
        <ele>622</ele>
        <time>2015-10-25T07:30:03Z</time>
      </trkpt>
      <trkpt lat="43.73631" lon="3.45507">
        <ele>622.5</ele>
        <time>2015-10-25T07:30:04Z</time>
      </trkpt>
      <trkpt lat="43.73633" lon="3.4551">
        <ele>623</ele>
        <time>2015-10-25T07:30:05Z</time>
      </trkpt>
      <trkpt lat="43.73636" lon="3.45515">
        <ele>623</ele>
        <time>2015-10-25T07:30:07Z</time>
      </trkpt>
      <trkpt lat="43.73638" lon="3.45517">
        <ele>624</ele>
        <time>2015-10-25T07:30:08Z</time>
      </trkpt>
      <trkpt lat="43.73639" lon="3.45519">
        <ele>624.5</ele>
        <time>2015-10-25T07:30:09Z</time>
      </trkpt>
      <trkpt lat="43.73641" lon="3.45522">
        <ele>625</ele>
        <time>2015-10-25T07:30:10Z</time>
      </trkpt>
      <trkpt lat="43.73643" lon="3.45525">
        <ele>625.5</ele>
        <time>2015-10-25T07:30:11Z</time>
      </trkpt>
      <trkpt lat="43.73644" lon="3.45528">
        <ele>625.5</ele>
        <time>2015-10-25T07:30:12Z</time>
      </trkpt>
      <trkpt lat="43.73646" lon="3.45531">
        <ele>626</ele>
        <time>2015-10-25T07:30:13Z</time>
      </trkpt>
      <trkpt lat="43.73647" lon="3.45534">
        <ele>626.5</ele>
        <time>2015-10-25T07:30:14Z</time>
      </trkpt>
      <trkpt lat="43.73649" lon="3.45538">
        <ele>627</ele>
        <time>2015-10-25T07:30:15Z</time>
      </trkpt>
      <trkpt lat="43.7365" lon="3.45541">
        <ele>627.5</ele>
        <time>2015-10-25T07:30:16Z</time>
      </trkpt>
      <trkpt lat="43.73651" lon="3.45544">
        <ele>627.5</ele>
        <time>2015-10-25T07:30:17Z</time>
      </trkpt>
      <trkpt lat="43.73653" lon="3.45551">
        <ele>628</ele>
        <time>2015-10-25T07:30:19Z</time>
      </trkpt>
      <trkpt lat="43.73654" lon="3.45555">
        <ele>628</ele>
        <time>2015-10-25T07:30:20Z</time>
      </trkpt>
      <trkpt lat="43.73654" lon="3.45558">
        <ele>628</ele>
        <time>2015-10-25T07:30:21Z</time>
      </trkpt>
      <trkpt lat="43.73654" lon="3.45561">
        <ele>628.5</ele>
        <time>2015-10-25T07:30:22Z</time>
      </trkpt>
      <trkpt lat="43.73654" lon="3.45564">
        <ele>629.5</ele>
        <time>2015-10-25T07:30:23Z</time>
      </trkpt>
      <trkpt lat="43.73654" lon="3.45568">
        <ele>629.5</ele>
        <time>2015-10-25T07:30:24Z</time>
      </trkpt>
      <trkpt lat="43.73654" lon="3.45571">
        <ele>630</ele>
        <time>2015-10-25T07:30:25Z</time>
      </trkpt>
      <trkpt lat="43.73654" lon="3.45574">
        <ele>630</ele>
        <time>2015-10-25T07:30:26Z</time>
      </trkpt>
      <trkpt lat="43.73654" lon="3.45578">
        <ele>630</ele>
        <time>2015-10-25T07:30:27Z</time>
      </trkpt>
      <trkpt lat="43.73654" lon="3.45581">
        <ele>630</ele>
        <time>2015-10-25T07:30:28Z</time>
      </trkpt>
      <trkpt lat="43.73654" lon="3.45585">
        <ele>630.5</ele>
        <time>2015-10-25T07:30:29Z</time>
      </trkpt>
      <trkpt lat="43.73654" lon="3.45588">
        <ele>630.5</ele>
        <time>2015-10-25T07:30:30Z</time>
      </trkpt>
      <trkpt lat="43.73654" lon="3.45592">
        <ele>630.5</ele>
        <time>2015-10-25T07:30:31Z</time>
      </trkpt>
      <trkpt lat="43.73654" lon="3.45596">
        <ele>630.5</ele>
        <time>2015-10-25T07:30:32Z</time>
      </trkpt>
      <trkpt lat="43.73654" lon="3.45599">
        <ele>631</ele>
        <time>2015-10-25T07:30:33Z</time>
      </trkpt>
      <trkpt lat="43.73654" lon="3.45603">
        <ele>631</ele>
        <time>2015-10-25T07:30:34Z</time>
      </trkpt>
      <trkpt lat="43.73654" lon="3.45606">
        <ele>631</ele>
        <time>2015-10-25T07:30:35Z</time>
      </trkpt>
      <trkpt lat="43.73654" lon="3.45609">
        <ele>629</ele>
        <time>2015-10-25T07:30:36Z</time>
      </trkpt>
      <trkpt lat="43.73654" lon="3.45612">
        <ele>629</ele>
        <time>2015-10-25T07:30:37Z</time>
      </trkpt>
      <trkpt lat="43.73654" lon="3.45615">
        <ele>628.5</ele>
        <time>2015-10-25T07:30:38Z</time>
      </trkpt>
      <trkpt lat="43.73654" lon="3.45618">
        <ele>628.5</ele>
        <time>2015-10-25T07:30:39Z</time>
      </trkpt>
      <trkpt lat="43.73655" lon="3.45622">
        <ele>628.5</ele>
        <time>2015-10-25T07:30:40Z</time>
      </trkpt>
      <trkpt lat="43.73655" lon="3.45625">
        <ele>628.5</ele>
        <time>2015-10-25T07:30:41Z</time>
      </trkpt>
      <trkpt lat="43.73656" lon="3.45629">
        <ele>629</ele>
        <time>2015-10-25T07:30:42Z</time>
      </trkpt>
      <trkpt lat="43.73657" lon="3.45632">
        <ele>629</ele>
        <time>2015-10-25T07:30:43Z</time>
      </trkpt>
      <trkpt lat="43.73658" lon="3.45636">
        <ele>629.5</ele>
        <time>2015-10-25T07:30:44Z</time>
      </trkpt>
      <trkpt lat="43.73658" lon="3.45639">
        <ele>630</ele>
        <time>2015-10-25T07:30:45Z</time>
      </trkpt>
      <trkpt lat="43.73659" lon="3.45643">
        <ele>630</ele>
        <time>2015-10-25T07:30:46Z</time>
      </trkpt>
      <trkpt lat="43.73659" lon="3.45647">
        <ele>630</ele>
        <time>2015-10-25T07:30:47Z</time>
      </trkpt>
      <trkpt lat="43.7366" lon="3.4565">
        <ele>630.5</ele>
        <time>2015-10-25T07:30:48Z</time>
      </trkpt>
      <trkpt lat="43.7366" lon="3.45654">
        <ele>630.5</ele>
        <time>2015-10-25T07:30:49Z</time>
      </trkpt>
      <trkpt lat="43.73661" lon="3.45658">
        <ele>631</ele>
        <time>2015-10-25T07:30:50Z</time>
      </trkpt>
      <trkpt lat="43.73662" lon="3.45661">
        <ele>631.5</ele>
        <time>2015-10-25T07:30:51Z</time>
      </trkpt>
      <trkpt lat="43.73663" lon="3.45665">
        <ele>631.5</ele>
        <time>2015-10-25T07:30:52Z</time>
      </trkpt>
      <trkpt lat="43.73664" lon="3.45669">
        <ele>632</ele>
        <time>2015-10-25T07:30:53Z</time>
      </trkpt>
      <trkpt lat="43.73665" lon="3.45672">
        <ele>632</ele>
        <time>2015-10-25T07:30:54Z</time>
      </trkpt>
      <trkpt lat="43.73666" lon="3.45676">
        <ele>632</ele>
        <time>2015-10-25T07:30:55Z</time>
      </trkpt>
      <trkpt lat="43.73666" lon="3.4568">
        <ele>632.5</ele>
        <time>2015-10-25T07:30:56Z</time>
      </trkpt>
      <trkpt lat="43.73667" lon="3.45683">
        <ele>633</ele>
        <time>2015-10-25T07:30:57Z</time>
      </trkpt>
      <trkpt lat="43.73668" lon="3.45687">
        <ele>633.5</ele>
        <time>2015-10-25T07:30:58Z</time>
      </trkpt>
      <trkpt lat="43.7367" lon="3.4569">
        <ele>633.5</ele>
        <time>2015-10-25T07:30:59Z</time>
      </trkpt>
      <trkpt lat="43.73671" lon="3.45693">
        <ele>633.5</ele>
        <time>2015-10-25T07:31:00Z</time>
      </trkpt>
      <trkpt lat="43.73672" lon="3.45696">
        <ele>633.5</ele>
        <time>2015-10-25T07:31:01Z</time>
      </trkpt>
      <trkpt lat="43.73674" lon="3.457">
        <ele>634</ele>
        <time>2015-10-25T07:31:02Z</time>
      </trkpt>
      <trkpt lat="43.73675" lon="3.45703">
        <ele>634.5</ele>
        <time>2015-10-25T07:31:03Z</time>
      </trkpt>
      <trkpt lat="43.73676" lon="3.45706">
        <ele>635</ele>
        <time>2015-10-25T07:31:04Z</time>
      </trkpt>
      <trkpt lat="43.73677" lon="3.45709">
        <ele>635</ele>
        <time>2015-10-25T07:31:05Z</time>
      </trkpt>
      <trkpt lat="43.73678" lon="3.45712">
        <ele>635.5</ele>
        <time>2015-10-25T07:31:06Z</time>
      </trkpt>
      <trkpt lat="43.73679" lon="3.45715">
        <ele>636</ele>
        <time>2015-10-25T07:31:07Z</time>
      </trkpt>
      <trkpt lat="43.7368" lon="3.45718">
        <ele>636</ele>
        <time>2015-10-25T07:31:07Z</time>
      </trkpt>
      <trkpt lat="43.73681" lon="3.45721">
        <ele>636</ele>
        <time>2015-10-25T07:31:08Z</time>
      </trkpt>
      <trkpt lat="43.73682" lon="3.45724">
        <ele>636.5</ele>
        <time>2015-10-25T07:31:10Z</time>
      </trkpt>
      <trkpt lat="43.73684" lon="3.45727">
        <ele>637</ele>
        <time>2015-10-25T07:31:10Z</time>
      </trkpt>
      <trkpt lat="43.73683" lon="3.4573">
        <ele>636.5</ele>
        <time>2015-10-25T07:31:11Z</time>
      </trkpt>
      <trkpt lat="43.73684" lon="3.45733">
        <ele>637</ele>
        <time>2015-10-25T07:31:12Z</time>
      </trkpt>
      <trkpt lat="43.73685" lon="3.45736">
        <ele>637</ele>
        <time>2015-10-25T07:31:13Z</time>
      </trkpt>
      <trkpt lat="43.73686" lon="3.4574">
        <ele>637</ele>
        <time>2015-10-25T07:31:15Z</time>
      </trkpt>
      <trkpt lat="43.73687" lon="3.45743">
        <ele>637</ele>
        <time>2015-10-25T07:31:16Z</time>
      </trkpt>
      <trkpt lat="43.73688" lon="3.45746">
        <ele>638</ele>
        <time>2015-10-25T07:31:16Z</time>
      </trkpt>
      <trkpt lat="43.7369" lon="3.45749">
        <ele>638</ele>
        <time>2015-10-25T07:31:17Z</time>
      </trkpt>
      <trkpt lat="43.73691" lon="3.45752">
        <ele>638.5</ele>
        <time>2015-10-25T07:31:19Z</time>
      </trkpt>
      <trkpt lat="43.73692" lon="3.45755">
        <ele>638.5</ele>
        <time>2015-10-25T07:31:19Z</time>
      </trkpt>
      <trkpt lat="43.73693" lon="3.45758">
        <ele>639</ele>
        <time>2015-10-25T07:31:20Z</time>
      </trkpt>
      <trkpt lat="43.73694" lon="3.45761">
        <ele>639</ele>
        <time>2015-10-25T07:31:21Z</time>
      </trkpt>
      <trkpt lat="43.73695" lon="3.45764">
        <ele>639.5</ele>
        <time>2015-10-25T07:31:22Z</time>
      </trkpt>
      <trkpt lat="43.73696" lon="3.45768">
        <ele>638.5</ele>
        <time>2015-10-25T07:31:24Z</time>
      </trkpt>
      <trkpt lat="43.73698" lon="3.45771">
        <ele>638.5</ele>
        <time>2015-10-25T07:31:24Z</time>
      </trkpt>
      <trkpt lat="43.73699" lon="3.45774">
        <ele>638.5</ele>
        <time>2015-10-25T07:31:25Z</time>
      </trkpt>
      <trkpt lat="43.737" lon="3.45777">
        <ele>639</ele>
        <time>2015-10-25T07:31:26Z</time>
      </trkpt>
      <trkpt lat="43.73701" lon="3.4578">
        <ele>639</ele>
        <time>2015-10-25T07:31:27Z</time>
      </trkpt>
      <trkpt lat="43.73702" lon="3.45783">
        <ele>639</ele>
        <time>2015-10-25T07:31:29Z</time>
      </trkpt>
      <trkpt lat="43.73703" lon="3.45786">
        <ele>639.5</ele>
        <time>2015-10-25T07:31:29Z</time>
      </trkpt>
      <trkpt lat="43.73704" lon="3.45788">
        <ele>640</ele>
        <time>2015-10-25T07:31:30Z</time>
      </trkpt>
      <trkpt lat="43.73705" lon="3.4579">
        <ele>641</ele>
        <time>2015-10-25T07:31:31Z</time>
      </trkpt>
      <trkpt lat="43.73706" lon="3.45793">
        <ele>641</ele>
        <time>2015-10-25T07:31:32Z</time>
      </trkpt>
      <trkpt lat="43.73707" lon="3.45795">
        <ele>642</ele>
        <time>2015-10-25T07:31:33Z</time>
      </trkpt>
      <trkpt lat="43.73708" lon="3.45797">
        <ele>642.5</ele>
        <time>2015-10-25T07:31:35Z</time>
      </trkpt>
      <trkpt lat="43.73709" lon="3.458">
        <ele>642.5</ele>
        <time>2015-10-25T07:31:35Z</time>
      </trkpt>
      <trkpt lat="43.73711" lon="3.45804">
        <ele>641.5</ele>
        <time>2015-10-25T07:31:37Z</time>
      </trkpt>
      <trkpt lat="43.73712" lon="3.45807">
        <ele>641.5</ele>
        <time>2015-10-25T07:31:37Z</time>
      </trkpt>
      <trkpt lat="43.73713" lon="3.4581">
        <ele>641.5</ele>
        <time>2015-10-25T07:31:38Z</time>
      </trkpt>
      <trkpt lat="43.73714" lon="3.45813">
        <ele>641.5</ele>
        <time>2015-10-25T07:31:39Z</time>
      </trkpt>
      <trkpt lat="43.73714" lon="3.45815">
        <ele>642</ele>
        <time>2015-10-25T07:31:40Z</time>
      </trkpt>
      <trkpt lat="43.73714" lon="3.45818">
        <ele>642</ele>
        <time>2015-10-25T07:31:41Z</time>
      </trkpt>
      <trkpt lat="43.73714" lon="3.4582">
        <ele>642.5</ele>
        <time>2015-10-25T07:31:42Z</time>
      </trkpt>
      <trkpt lat="43.73715" lon="3.45823">
        <ele>643</ele>
        <time>2015-10-25T07:31:43Z</time>
      </trkpt>
      <trkpt lat="43.73715" lon="3.45825">
        <ele>643.5</ele>
        <time>2015-10-25T07:31:44Z</time>
      </trkpt>
      <trkpt lat="43.73715" lon="3.45828">
        <ele>643</ele>
        <time>2015-10-25T07:31:45Z</time>
      </trkpt>
      <trkpt lat="43.73715" lon="3.4583">
        <ele>643.5</ele>
        <time>2015-10-25T07:31:46Z</time>
      </trkpt>
      <trkpt lat="43.73716" lon="3.45833">
        <ele>643.5</ele>
        <time>2015-10-25T07:31:47Z</time>
      </trkpt>
      <trkpt lat="43.73715" lon="3.45836">
        <ele>643.5</ele>
        <time>2015-10-25T07:31:48Z</time>
      </trkpt>
      <trkpt lat="43.73716" lon="3.45838">
        <ele>644</ele>
        <time>2015-10-25T07:31:49Z</time>
      </trkpt>
      <trkpt lat="43.73716" lon="3.45841">
        <ele>644</ele>
        <time>2015-10-25T07:31:50Z</time>
      </trkpt>
      <trkpt lat="43.73716" lon="3.45844">
        <ele>644</ele>
        <time>2015-10-25T07:31:51Z</time>
      </trkpt>
      <trkpt lat="43.73716" lon="3.45846">
        <ele>643.5</ele>
        <time>2015-10-25T07:31:52Z</time>
      </trkpt>
      <trkpt lat="43.73716" lon="3.45849">
        <ele>643.5</ele>
        <time>2015-10-25T07:31:53Z</time>
      </trkpt>
      <trkpt lat="43.73716" lon="3.45851">
        <ele>644.5</ele>
        <time>2015-10-25T07:31:54Z</time>
      </trkpt>
      <trkpt lat="43.73717" lon="3.45854">
        <ele>644.5</ele>
        <time>2015-10-25T07:31:55Z</time>
      </trkpt>
      <trkpt lat="43.73717" lon="3.45857">
        <ele>643.5</ele>
        <time>2015-10-25T07:31:56Z</time>
      </trkpt>
      <trkpt lat="43.73717" lon="3.45861">
        <ele>643.5</ele>
        <time>2015-10-25T07:31:57Z</time>
      </trkpt>
      <trkpt lat="43.73717" lon="3.45864">
        <ele>643.5</ele>
        <time>2015-10-25T07:31:58Z</time>
      </trkpt>
      <trkpt lat="43.73718" lon="3.45867">
        <ele>643.5</ele>
        <time>2015-10-25T07:31:59Z</time>
      </trkpt>
      <trkpt lat="43.73718" lon="3.45871">
        <ele>643.5</ele>
        <time>2015-10-25T07:32:00Z</time>
      </trkpt>
      <trkpt lat="43.73719" lon="3.45874">
        <ele>643.5</ele>
        <time>2015-10-25T07:32:01Z</time>
      </trkpt>
      <trkpt lat="43.73718" lon="3.45878">
        <ele>642.5</ele>
        <time>2015-10-25T07:32:02Z</time>
      </trkpt>
      <trkpt lat="43.73719" lon="3.45881">
        <ele>643</ele>
        <time>2015-10-25T07:32:03Z</time>
      </trkpt>
      <trkpt lat="43.73719" lon="3.45884">
        <ele>643</ele>
        <time>2015-10-25T07:32:04Z</time>
      </trkpt>
      <trkpt lat="43.73719" lon="3.45886">
        <ele>643</ele>
        <time>2015-10-25T07:32:05Z</time>
      </trkpt>
      <trkpt lat="43.73719" lon="3.45889">
        <ele>643</ele>
        <time>2015-10-25T07:32:07Z</time>
      </trkpt>
      <trkpt lat="43.73719" lon="3.45895">
        <ele>642.5</ele>
        <time>2015-10-25T07:32:09Z</time>
      </trkpt>
      <trkpt lat="43.7372" lon="3.45901">
        <ele>642</ele>
        <time>2015-10-25T07:32:10Z</time>
      </trkpt>
      <trkpt lat="43.7372" lon="3.45904">
        <ele>642</ele>
        <time>2015-10-25T07:32:11Z</time>
      </trkpt>
      <trkpt lat="43.7372" lon="3.45907">
        <ele>642</ele>
        <time>2015-10-25T07:32:12Z</time>
      </trkpt>
      <trkpt lat="43.73721" lon="3.4591">
        <ele>642.5</ele>
        <time>2015-10-25T07:32:13Z</time>
      </trkpt>
      <trkpt lat="43.73721" lon="3.45912">
        <ele>642.5</ele>
        <time>2015-10-25T07:32:14Z</time>
      </trkpt>
      <trkpt lat="43.73721" lon="3.45916">
        <ele>642.5</ele>
        <time>2015-10-25T07:32:15Z</time>
      </trkpt>
      <trkpt lat="43.73721" lon="3.45919">
        <ele>642.5</ele>
        <time>2015-10-25T07:32:16Z</time>
      </trkpt>
      <trkpt lat="43.73721" lon="3.45922">
        <ele>642.5</ele>
        <time>2015-10-25T07:32:17Z</time>
      </trkpt>
      <trkpt lat="43.73721" lon="3.45924">
        <ele>643</ele>
        <time>2015-10-25T07:32:18Z</time>
      </trkpt>
      <trkpt lat="43.73721" lon="3.45927">
        <ele>643</ele>
        <time>2015-10-25T07:32:19Z</time>
      </trkpt>
      <trkpt lat="43.73721" lon="3.4593">
        <ele>643</ele>
        <time>2015-10-25T07:32:20Z</time>
      </trkpt>
      <trkpt lat="43.73721" lon="3.45933">
        <ele>643.5</ele>
        <time>2015-10-25T07:32:21Z</time>
      </trkpt>
      <trkpt lat="43.73721" lon="3.45936">
        <ele>643.5</ele>
        <time>2015-10-25T07:32:22Z</time>
      </trkpt>
      <trkpt lat="43.73721" lon="3.45939">
        <ele>643.5</ele>
        <time>2015-10-25T07:32:23Z</time>
      </trkpt>
      <trkpt lat="43.73722" lon="3.45941">
        <ele>643.5</ele>
        <time>2015-10-25T07:32:24Z</time>
      </trkpt>
      <trkpt lat="43.73723" lon="3.45944">
        <ele>643.5</ele>
        <time>2015-10-25T07:32:25Z</time>
      </trkpt>
      <trkpt lat="43.73725" lon="3.4595">
        <ele>643.5</ele>
        <time>2015-10-25T07:32:27Z</time>
      </trkpt>
      <trkpt lat="43.73726" lon="3.45953">
        <ele>644</ele>
        <time>2015-10-25T07:32:28Z</time>
      </trkpt>
      <trkpt lat="43.73727" lon="3.45956">
        <ele>644.5</ele>
        <time>2015-10-25T07:32:29Z</time>
      </trkpt>
      <trkpt lat="43.73728" lon="3.45959">
        <ele>644.5</ele>
        <time>2015-10-25T07:32:30Z</time>
      </trkpt>
      <trkpt lat="43.73728" lon="3.45962">
        <ele>645</ele>
        <time>2015-10-25T07:32:31Z</time>
      </trkpt>
      <trkpt lat="43.73728" lon="3.45964">
        <ele>645</ele>
        <time>2015-10-25T07:32:32Z</time>
      </trkpt>
      <trkpt lat="43.73728" lon="3.45968">
        <ele>645</ele>
        <time>2015-10-25T07:32:33Z</time>
      </trkpt>
      <trkpt lat="43.73728" lon="3.4597">
        <ele>645.5</ele>
        <time>2015-10-25T07:32:34Z</time>
      </trkpt>
      <trkpt lat="43.73728" lon="3.45973">
        <ele>645.5</ele>
        <time>2015-10-25T07:32:35Z</time>
      </trkpt>
      <trkpt lat="43.73728" lon="3.45976">
        <ele>645.5</ele>
        <time>2015-10-25T07:32:36Z</time>
      </trkpt>
      <trkpt lat="43.73728" lon="3.45979">
        <ele>646</ele>
        <time>2015-10-25T07:32:37Z</time>
      </trkpt>
      <trkpt lat="43.73728" lon="3.45981">
        <ele>646</ele>
        <time>2015-10-25T07:32:38Z</time>
      </trkpt>
      <trkpt lat="43.73727" lon="3.45984">
        <ele>646.5</ele>
        <time>2015-10-25T07:32:39Z</time>
      </trkpt>
      <trkpt lat="43.73727" lon="3.45986">
        <ele>646.5</ele>
        <time>2015-10-25T07:32:40Z</time>
      </trkpt>
      <trkpt lat="43.73727" lon="3.45988">
        <ele>646.5</ele>
        <time>2015-10-25T07:32:41Z</time>
      </trkpt>
      <trkpt lat="43.73726" lon="3.45991">
        <ele>647</ele>
        <time>2015-10-25T07:32:42Z</time>
      </trkpt>
      <trkpt lat="43.73725" lon="3.45993">
        <ele>648.5</ele>
        <time>2015-10-25T07:32:43Z</time>
      </trkpt>
      <trkpt lat="43.73724" lon="3.45996">
        <ele>648.5</ele>
        <time>2015-10-25T07:32:44Z</time>
      </trkpt>
      <trkpt lat="43.73723" lon="3.45998">
        <ele>648.5</ele>
        <time>2015-10-25T07:32:45Z</time>
      </trkpt>
      <trkpt lat="43.73724" lon="3.46002">
        <ele>649</ele>
        <time>2015-10-25T07:32:46Z</time>
      </trkpt>
      <trkpt lat="43.73724" lon="3.46005">
        <ele>649</ele>
        <time>2015-10-25T07:32:47Z</time>
      </trkpt>
      <trkpt lat="43.73724" lon="3.46008">
        <ele>649</ele>
        <time>2015-10-25T07:32:48Z</time>
      </trkpt>
      <trkpt lat="43.73723" lon="3.4601">
        <ele>649.5</ele>
        <time>2015-10-25T07:32:49Z</time>
      </trkpt>
      <trkpt lat="43.73723" lon="3.46013">
        <ele>649.5</ele>
        <time>2015-10-25T07:32:50Z</time>
      </trkpt>
      <trkpt lat="43.73722" lon="3.46016">
        <ele>650</ele>
        <time>2015-10-25T07:32:51Z</time>
      </trkpt>
      <trkpt lat="43.7372" lon="3.46018">
        <ele>650.5</ele>
        <time>2015-10-25T07:32:52Z</time>
      </trkpt>
      <trkpt lat="43.7372" lon="3.46021">
        <ele>650.5</ele>
        <time>2015-10-25T07:32:53Z</time>
      </trkpt>
      <trkpt lat="43.7372" lon="3.46026">
        <ele>652.5</ele>
        <time>2015-10-25T07:32:54Z</time>
      </trkpt>
      <trkpt lat="43.7372" lon="3.46031">
        <ele>652.5</ele>
        <time>2015-10-25T07:32:56Z</time>
      </trkpt>
      <trkpt lat="43.7372" lon="3.46034">
        <ele>653</ele>
        <time>2015-10-25T07:32:57Z</time>
      </trkpt>
      <trkpt lat="43.7372" lon="3.46036">
        <ele>653.5</ele>
        <time>2015-10-25T07:32:58Z</time>
      </trkpt>
      <trkpt lat="43.7372" lon="3.46039">
        <ele>655</ele>
        <time>2015-10-25T07:32:59Z</time>
      </trkpt>
      <trkpt lat="43.7372" lon="3.46042">
        <ele>655.5</ele>
        <time>2015-10-25T07:33:00Z</time>
      </trkpt>
      <trkpt lat="43.7372" lon="3.46045">
        <ele>655.5</ele>
        <time>2015-10-25T07:33:01Z</time>
      </trkpt>
      <trkpt lat="43.7372" lon="3.46047">
        <ele>656</ele>
        <time>2015-10-25T07:33:02Z</time>
      </trkpt>
      <trkpt lat="43.7372" lon="3.4605">
        <ele>657.5</ele>
        <time>2015-10-25T07:33:03Z</time>
      </trkpt>
      <trkpt lat="43.73719" lon="3.46053">
        <ele>658</ele>
        <time>2015-10-25T07:33:04Z</time>
      </trkpt>
      <trkpt lat="43.73719" lon="3.46056">
        <ele>658.5</ele>
        <time>2015-10-25T07:33:05Z</time>
      </trkpt>
      <trkpt lat="43.73719" lon="3.46059">
        <ele>659</ele>
        <time>2015-10-25T07:33:06Z</time>
      </trkpt>
      <trkpt lat="43.73719" lon="3.46062">
        <ele>659.5</ele>
        <time>2015-10-25T07:33:07Z</time>
      </trkpt>
      <trkpt lat="43.73718" lon="3.46066">
        <ele>659.5</ele>
        <time>2015-10-25T07:33:08Z</time>
      </trkpt>
      <trkpt lat="43.73718" lon="3.46069">
        <ele>660</ele>
        <time>2015-10-25T07:33:09Z</time>
      </trkpt>
      <trkpt lat="43.73718" lon="3.46072">
        <ele>660</ele>
        <time>2015-10-25T07:33:10Z</time>
      </trkpt>
      <trkpt lat="43.73718" lon="3.46076">
        <ele>660.5</ele>
        <time>2015-10-25T07:33:11Z</time>
      </trkpt>
      <trkpt lat="43.73717" lon="3.46079">
        <ele>660.5</ele>
        <time>2015-10-25T07:33:12Z</time>
      </trkpt>
      <trkpt lat="43.73717" lon="3.46083">
        <ele>661</ele>
        <time>2015-10-25T07:33:13Z</time>
      </trkpt>
      <trkpt lat="43.73716" lon="3.46086">
        <ele>660.5</ele>
        <time>2015-10-25T07:33:14Z</time>
      </trkpt>
      <trkpt lat="43.73716" lon="3.46089">
        <ele>660.5</ele>
        <time>2015-10-25T07:33:15Z</time>
      </trkpt>
      <trkpt lat="43.73715" lon="3.46093">
        <ele>660.5</ele>
        <time>2015-10-25T07:33:16Z</time>
      </trkpt>
      <trkpt lat="43.73715" lon="3.46097">
        <ele>660.5</ele>
        <time>2015-10-25T07:33:17Z</time>
      </trkpt>
      <trkpt lat="43.73715" lon="3.461">
        <ele>660.5</ele>
        <time>2015-10-25T07:33:18Z</time>
      </trkpt>
      <trkpt lat="43.73714" lon="3.46103">
        <ele>660</ele>
        <time>2015-10-25T07:33:19Z</time>
      </trkpt>
      <trkpt lat="43.73713" lon="3.46107">
        <ele>660</ele>
        <time>2015-10-25T07:33:20Z</time>
      </trkpt>
      <trkpt lat="43.73713" lon="3.4611">
        <ele>660</ele>
        <time>2015-10-25T07:33:21Z</time>
      </trkpt>
      <trkpt lat="43.73714" lon="3.46113">
        <ele>660</ele>
        <time>2015-10-25T07:33:22Z</time>
      </trkpt>
      <trkpt lat="43.73714" lon="3.46116">
        <ele>660.5</ele>
        <time>2015-10-25T07:33:23Z</time>
      </trkpt>
      <trkpt lat="43.73714" lon="3.46119">
        <ele>660.5</ele>
        <time>2015-10-25T07:33:24Z</time>
      </trkpt>
      <trkpt lat="43.73713" lon="3.46122">
        <ele>661</ele>
        <time>2015-10-25T07:33:25Z</time>
      </trkpt>
      <trkpt lat="43.73712" lon="3.46125">
        <ele>661</ele>
        <time>2015-10-25T07:33:26Z</time>
      </trkpt>
      <trkpt lat="43.73711" lon="3.46127">
        <ele>661</ele>
        <time>2015-10-25T07:33:27Z</time>
      </trkpt>
      <trkpt lat="43.73711" lon="3.4613">
        <ele>661.5</ele>
        <time>2015-10-25T07:33:28Z</time>
      </trkpt>
      <trkpt lat="43.73711" lon="3.46132">
        <ele>661.5</ele>
        <time>2015-10-25T07:33:29Z</time>
      </trkpt>
      <trkpt lat="43.73706" lon="3.46133">
        <ele>661.5</ele>
        <time>2015-10-25T07:33:31Z</time>
      </trkpt>
      <trkpt lat="43.73705" lon="3.46135">
        <ele>661.5</ele>
        <time>2015-10-25T07:33:32Z</time>
      </trkpt>
      <trkpt lat="43.73704" lon="3.46137">
        <ele>660</ele>
        <time>2015-10-25T07:33:33Z</time>
      </trkpt>
      <trkpt lat="43.73704" lon="3.4614">
        <ele>660</ele>
        <time>2015-10-25T07:33:34Z</time>
      </trkpt>
      <trkpt lat="43.73703" lon="3.46143">
        <ele>660</ele>
        <time>2015-10-25T07:33:35Z</time>
      </trkpt>
      <trkpt lat="43.73703" lon="3.46145">
        <ele>660</ele>
        <time>2015-10-25T07:33:36Z</time>
      </trkpt>
      <trkpt lat="43.73702" lon="3.46148">
        <ele>659.5</ele>
        <time>2015-10-25T07:33:37Z</time>
      </trkpt>
      <trkpt lat="43.737" lon="3.4615">
        <ele>660</ele>
        <time>2015-10-25T07:33:38Z</time>
      </trkpt>
      <trkpt lat="43.737" lon="3.46153">
        <ele>660</ele>
        <time>2015-10-25T07:33:39Z</time>
      </trkpt>
      <trkpt lat="43.73699" lon="3.46156">
        <ele>659.5</ele>
        <time>2015-10-25T07:33:40Z</time>
      </trkpt>
      <trkpt lat="43.73698" lon="3.46159">
        <ele>659.5</ele>
        <time>2015-10-25T07:33:41Z</time>
      </trkpt>
      <trkpt lat="43.73697" lon="3.46165">
        <ele>661</ele>
        <time>2015-10-25T07:33:43Z</time>
      </trkpt>
      <trkpt lat="43.73695" lon="3.46169">
        <ele>660.5</ele>
        <time>2015-10-25T07:33:45Z</time>
      </trkpt>
      <trkpt lat="43.73694" lon="3.46173">
        <ele>660.5</ele>
        <time>2015-10-25T07:33:46Z</time>
      </trkpt>
      <trkpt lat="43.73686" lon="3.46179">
        <ele>661.5</ele>
        <time>2015-10-25T07:33:48Z</time>
      </trkpt>
      <trkpt lat="43.73685" lon="3.46183">
        <ele>662</ele>
        <time>2015-10-25T07:33:49Z</time>
      </trkpt>
      <trkpt lat="43.73685" lon="3.46186">
        <ele>662</ele>
        <time>2015-10-25T07:33:50Z</time>
      </trkpt>
      <trkpt lat="43.73683" lon="3.46189">
        <ele>662</ele>
        <time>2015-10-25T07:33:51Z</time>
      </trkpt>
      <trkpt lat="43.73682" lon="3.46193">
        <ele>662.5</ele>
        <time>2015-10-25T07:33:52Z</time>
      </trkpt>
      <trkpt lat="43.73681" lon="3.46196">
        <ele>662.5</ele>
        <time>2015-10-25T07:33:53Z</time>
      </trkpt>
      <trkpt lat="43.73681" lon="3.46199">
        <ele>662</ele>
        <time>2015-10-25T07:33:54Z</time>
      </trkpt>
      <trkpt lat="43.73681" lon="3.46203">
        <ele>662</ele>
        <time>2015-10-25T07:33:55Z</time>
      </trkpt>
      <trkpt lat="43.7368" lon="3.46206">
        <ele>662</ele>
        <time>2015-10-25T07:33:56Z</time>
      </trkpt>
      <trkpt lat="43.73679" lon="3.46209">
        <ele>662.5</ele>
        <time>2015-10-25T07:33:57Z</time>
      </trkpt>
      <trkpt lat="43.73679" lon="3.46212">
        <ele>663</ele>
        <time>2015-10-25T07:33:58Z</time>
      </trkpt>
      <trkpt lat="43.73679" lon="3.46215">
        <ele>663</ele>
        <time>2015-10-25T07:33:59Z</time>
      </trkpt>
      <trkpt lat="43.73677" lon="3.46218">
        <ele>663.5</ele>
        <time>2015-10-25T07:34:00Z</time>
      </trkpt>
      <trkpt lat="43.73677" lon="3.46221">
        <ele>664</ele>
        <time>2015-10-25T07:34:01Z</time>
      </trkpt>
      <trkpt lat="43.73677" lon="3.46224">
        <ele>664.5</ele>
        <time>2015-10-25T07:34:02Z</time>
      </trkpt>
      <trkpt lat="43.73677" lon="3.46228">
        <ele>664.5</ele>
        <time>2015-10-25T07:34:03Z</time>
      </trkpt>
      <trkpt lat="43.73676" lon="3.4623">
        <ele>663.5</ele>
        <time>2015-10-25T07:34:04Z</time>
      </trkpt>
      <trkpt lat="43.73676" lon="3.46232">
        <ele>663</ele>
        <time>2015-10-25T07:34:05Z</time>
      </trkpt>
      <trkpt lat="43.73676" lon="3.46236">
        <ele>663</ele>
        <time>2015-10-25T07:34:06Z</time>
      </trkpt>
      <trkpt lat="43.73675" lon="3.46239">
        <ele>663</ele>
        <time>2015-10-25T07:34:07Z</time>
      </trkpt>
      <trkpt lat="43.73675" lon="3.46242">
        <ele>663</ele>
        <time>2015-10-25T07:34:08Z</time>
      </trkpt>
      <trkpt lat="43.73676" lon="3.46244">
        <ele>662.5</ele>
        <time>2015-10-25T07:34:09Z</time>
      </trkpt>
      <trkpt lat="43.73676" lon="3.46247">
        <ele>662.5</ele>
        <time>2015-10-25T07:34:10Z</time>
      </trkpt>
      <trkpt lat="43.73676" lon="3.4625">
        <ele>662.5</ele>
        <time>2015-10-25T07:34:11Z</time>
      </trkpt>
      <trkpt lat="43.73675" lon="3.46253">
        <ele>662.5</ele>
        <time>2015-10-25T07:34:12Z</time>
      </trkpt>
      <trkpt lat="43.73674" lon="3.46256">
        <ele>663</ele>
        <time>2015-10-25T07:34:13Z</time>
      </trkpt>
      <trkpt lat="43.73673" lon="3.46262">
        <ele>663</ele>
        <time>2015-10-25T07:34:15Z</time>
      </trkpt>
      <trkpt lat="43.73673" lon="3.46266">
        <ele>663</ele>
        <time>2015-10-25T07:34:16Z</time>
      </trkpt>
      <trkpt lat="43.73673" lon="3.46269">
        <ele>662.5</ele>
        <time>2015-10-25T07:34:17Z</time>
      </trkpt>
      <trkpt lat="43.73672" lon="3.46272">
        <ele>662</ele>
        <time>2015-10-25T07:34:18Z</time>
      </trkpt>
      <trkpt lat="43.73671" lon="3.46276">
        <ele>662</ele>
        <time>2015-10-25T07:34:19Z</time>
      </trkpt>
      <trkpt lat="43.7367" lon="3.46279">
        <ele>661.5</ele>
        <time>2015-10-25T07:34:20Z</time>
      </trkpt>
      <trkpt lat="43.73669" lon="3.46282">
        <ele>661.5</ele>
        <time>2015-10-25T07:34:21Z</time>
      </trkpt>
      <trkpt lat="43.73669" lon="3.46285">
        <ele>661.5</ele>
        <time>2015-10-25T07:34:22Z</time>
      </trkpt>
      <trkpt lat="43.73667" lon="3.46288">
        <ele>661</ele>
        <time>2015-10-25T07:34:23Z</time>
      </trkpt>
      <trkpt lat="43.73666" lon="3.4629">
        <ele>660.5</ele>
        <time>2015-10-25T07:34:24Z</time>
      </trkpt>
      <trkpt lat="43.73664" lon="3.46293">
        <ele>660.5</ele>
        <time>2015-10-25T07:34:25Z</time>
      </trkpt>
      <trkpt lat="43.73663" lon="3.46296">
        <ele>660.5</ele>
        <time>2015-10-25T07:34:26Z</time>
      </trkpt>
      <trkpt lat="43.73662" lon="3.46299">
        <ele>660.5</ele>
        <time>2015-10-25T07:34:27Z</time>
      </trkpt>
      <trkpt lat="43.73657" lon="3.46303">
        <ele>658.5</ele>
        <time>2015-10-25T07:34:29Z</time>
      </trkpt>
      <trkpt lat="43.73656" lon="3.46306">
        <ele>659</ele>
        <time>2015-10-25T07:34:30Z</time>
      </trkpt>
      <trkpt lat="43.73655" lon="3.46309">
        <ele>659.5</ele>
        <time>2015-10-25T07:34:31Z</time>
      </trkpt>
      <trkpt lat="43.73654" lon="3.46312">
        <ele>660</ele>
        <time>2015-10-25T07:34:32Z</time>
      </trkpt>
      <trkpt lat="43.73653" lon="3.46315">
        <ele>660</ele>
        <time>2015-10-25T07:34:33Z</time>
      </trkpt>
      <trkpt lat="43.73652" lon="3.46317">
        <ele>660.5</ele>
        <time>2015-10-25T07:34:33Z</time>
      </trkpt>
      <trkpt lat="43.73652" lon="3.4632">
        <ele>661</ele>
        <time>2015-10-25T07:34:35Z</time>
      </trkpt>
      <trkpt lat="43.73652" lon="3.46323">
        <ele>661.5</ele>
        <time>2015-10-25T07:34:35Z</time>
      </trkpt>
      <trkpt lat="43.73652" lon="3.46325">
        <ele>662</ele>
        <time>2015-10-25T07:34:36Z</time>
      </trkpt>
      <trkpt lat="43.73654" lon="3.46328">
        <ele>664</ele>
        <time>2015-10-25T07:34:37Z</time>
      </trkpt>
      <trkpt lat="43.73655" lon="3.46331">
        <ele>665</ele>
        <time>2015-10-25T07:34:38Z</time>
      </trkpt>
      <trkpt lat="43.73656" lon="3.46333">
        <ele>665</ele>
        <time>2015-10-25T07:34:39Z</time>
      </trkpt>
      <trkpt lat="43.73657" lon="3.46335">
        <ele>665.5</ele>
        <time>2015-10-25T07:34:40Z</time>
      </trkpt>
      <trkpt lat="43.73659" lon="3.46337">
        <ele>666</ele>
        <time>2015-10-25T07:34:41Z</time>
      </trkpt>
      <trkpt lat="43.7366" lon="3.46339">
        <ele>665.5</ele>
        <time>2015-10-25T07:34:42Z</time>
      </trkpt>
      <trkpt lat="43.73662" lon="3.46341">
        <ele>664.5</ele>
        <time>2015-10-25T07:34:43Z</time>
      </trkpt>
      <trkpt lat="43.73664" lon="3.46341">
        <ele>664.5</ele>
        <time>2015-10-25T07:34:44Z</time>
      </trkpt>
      <trkpt lat="43.73665" lon="3.46341">
        <ele>664.5</ele>
        <time>2015-10-25T07:34:45Z</time>
      </trkpt>
      <trkpt lat="43.73667" lon="3.4634">
        <ele>664.5</ele>
        <time>2015-10-25T07:34:46Z</time>
      </trkpt>
      <trkpt lat="43.73669" lon="3.46339">
        <ele>664.5</ele>
        <time>2015-10-25T07:34:47Z</time>
      </trkpt>
      <trkpt lat="43.7367" lon="3.46339">
        <ele>663.5</ele>
        <time>2015-10-25T07:34:48Z</time>
      </trkpt>
      <trkpt lat="43.73672" lon="3.46337">
        <ele>663</ele>
        <time>2015-10-25T07:34:50Z</time>
      </trkpt>
      <trkpt lat="43.73675" lon="3.46332">
        <ele>663</ele>
        <time>2015-10-25T07:34:51Z</time>
      </trkpt>
      <trkpt lat="43.73675" lon="3.4633">
        <ele>662.5</ele>
        <time>2015-10-25T07:34:52Z</time>
      </trkpt>
      <trkpt lat="43.73676" lon="3.46326">
        <ele>663</ele>
        <time>2015-10-25T07:34:53Z</time>
      </trkpt>
      <trkpt lat="43.73676" lon="3.46323">
        <ele>663.5</ele>
        <time>2015-10-25T07:34:55Z</time>
      </trkpt>
      <trkpt lat="43.73678" lon="3.46317">
        <ele>663.5</ele>
        <time>2015-10-25T07:34:56Z</time>
      </trkpt>
      <trkpt lat="43.73679" lon="3.46314">
        <ele>663.5</ele>
        <time>2015-10-25T07:34:57Z</time>
      </trkpt>
      <trkpt lat="43.7368" lon="3.46311">
        <ele>664</ele>
        <time>2015-10-25T07:34:58Z</time>
      </trkpt>
      <trkpt lat="43.73681" lon="3.46307">
        <ele>664</ele>
        <time>2015-10-25T07:34:59Z</time>
      </trkpt>
      <trkpt lat="43.73681" lon="3.46304">
        <ele>664</ele>
        <time>2015-10-25T07:35:00Z</time>
      </trkpt>
      <trkpt lat="43.73682" lon="3.46301">
        <ele>664.5</ele>
        <time>2015-10-25T07:35:01Z</time>
      </trkpt>
      <trkpt lat="43.73683" lon="3.46298">
        <ele>664.5</ele>
        <time>2015-10-25T07:35:02Z</time>
      </trkpt>
      <trkpt lat="43.73682" lon="3.46293">
        <ele>665.5</ele>
        <time>2015-10-25T07:35:03Z</time>
      </trkpt>
      <trkpt lat="43.73682" lon="3.4629">
        <ele>666</ele>
        <time>2015-10-25T07:35:04Z</time>
      </trkpt>
      <trkpt lat="43.73683" lon="3.46287">
        <ele>666</ele>
        <time>2015-10-25T07:35:05Z</time>
      </trkpt>
      <trkpt lat="43.73684" lon="3.46284">
        <ele>666.5</ele>
        <time>2015-10-25T07:35:06Z</time>
      </trkpt>
      <trkpt lat="43.73684" lon="3.46281">
        <ele>666.5</ele>
        <time>2015-10-25T07:35:07Z</time>
      </trkpt>
      <trkpt lat="43.73685" lon="3.46278">
        <ele>667</ele>
        <time>2015-10-25T07:35:08Z</time>
      </trkpt>
      <trkpt lat="43.73688" lon="3.46275">
        <ele>665.5</ele>
        <time>2015-10-25T07:35:09Z</time>
      </trkpt>
      <trkpt lat="43.73689" lon="3.46272">
        <ele>665.5</ele>
        <time>2015-10-25T07:35:10Z</time>
      </trkpt>
      <trkpt lat="43.73689" lon="3.46269">
        <ele>666.5</ele>
        <time>2015-10-25T07:35:11Z</time>
      </trkpt>
      <trkpt lat="43.73689" lon="3.46266">
        <ele>667</ele>
        <time>2015-10-25T07:35:12Z</time>
      </trkpt>
      <trkpt lat="43.7369" lon="3.46263">
        <ele>667.5</ele>
        <time>2015-10-25T07:35:13Z</time>
      </trkpt>
      <trkpt lat="43.73691" lon="3.4626">
        <ele>668</ele>
        <time>2015-10-25T07:35:14Z</time>
      </trkpt>
      <trkpt lat="43.73692" lon="3.46258">
        <ele>668</ele>
        <time>2015-10-25T07:35:15Z</time>
      </trkpt>
      <trkpt lat="43.73693" lon="3.46255">
        <ele>668</ele>
        <time>2015-10-25T07:35:16Z</time>
      </trkpt>
      <trkpt lat="43.73694" lon="3.46252">
        <ele>668</ele>
        <time>2015-10-25T07:35:18Z</time>
      </trkpt>
      <trkpt lat="43.73696" lon="3.46246">
        <ele>668.5</ele>
        <time>2015-10-25T07:35:19Z</time>
      </trkpt>
      <trkpt lat="43.73697" lon="3.46243">
        <ele>668.5</ele>
        <time>2015-10-25T07:35:20Z</time>
      </trkpt>
      <trkpt lat="43.73698" lon="3.4624">
        <ele>669</ele>
        <time>2015-10-25T07:35:21Z</time>
      </trkpt>
      <trkpt lat="43.73699" lon="3.46238">
        <ele>669</ele>
        <time>2015-10-25T07:35:22Z</time>
      </trkpt>
      <trkpt lat="43.737" lon="3.46235">
        <ele>669</ele>
        <time>2015-10-25T07:35:23Z</time>
      </trkpt>
      <trkpt lat="43.73701" lon="3.46232">
        <ele>669.5</ele>
        <time>2015-10-25T07:35:24Z</time>
      </trkpt>
      <trkpt lat="43.73702" lon="3.46229">
        <ele>670</ele>
        <time>2015-10-25T07:35:26Z</time>
      </trkpt>
      <trkpt lat="43.73704" lon="3.46224">
        <ele>670</ele>
        <time>2015-10-25T07:35:27Z</time>
      </trkpt>
      <trkpt lat="43.73705" lon="3.46221">
        <ele>670.5</ele>
        <time>2015-10-25T07:35:28Z</time>
      </trkpt>
      <trkpt lat="43.73706" lon="3.46218">
        <ele>671</ele>
        <time>2015-10-25T07:35:29Z</time>
      </trkpt>
      <trkpt lat="43.73706" lon="3.46215">
        <ele>671</ele>
        <time>2015-10-25T07:35:30Z</time>
      </trkpt>
      <trkpt lat="43.73707" lon="3.46213">
        <ele>670.5</ele>
        <time>2015-10-25T07:35:31Z</time>
      </trkpt>
      <trkpt lat="43.73708" lon="3.4621">
        <ele>670.5</ele>
        <time>2015-10-25T07:35:32Z</time>
      </trkpt>
      <trkpt lat="43.7371" lon="3.46208">
        <ele>671</ele>
        <time>2015-10-25T07:35:33Z</time>
      </trkpt>
      <trkpt lat="43.73711" lon="3.46205">
        <ele>671</ele>
        <time>2015-10-25T07:35:34Z</time>
      </trkpt>
      <trkpt lat="43.73711" lon="3.46202">
        <ele>671</ele>
        <time>2015-10-25T07:35:35Z</time>
      </trkpt>
      <trkpt lat="43.73712" lon="3.46199">
        <ele>672</ele>
        <time>2015-10-25T07:35:36Z</time>
      </trkpt>
      <trkpt lat="43.73714" lon="3.46196">
        <ele>672</ele>
        <time>2015-10-25T07:35:37Z</time>
      </trkpt>
      <trkpt lat="43.73715" lon="3.46194">
        <ele>671.5</ele>
        <time>2015-10-25T07:35:38Z</time>
      </trkpt>
      <trkpt lat="43.73716" lon="3.46191">
        <ele>671.5</ele>
        <time>2015-10-25T07:35:39Z</time>
      </trkpt>
      <trkpt lat="43.73716" lon="3.46189">
        <ele>672</ele>
        <time>2015-10-25T07:35:40Z</time>
      </trkpt>
      <trkpt lat="43.73717" lon="3.46186">
        <ele>672</ele>
        <time>2015-10-25T07:35:41Z</time>
      </trkpt>
      <trkpt lat="43.73717" lon="3.46185">
        <ele>673</ele>
        <time>2015-10-25T07:35:42Z</time>
      </trkpt>
      <trkpt lat="43.73718" lon="3.46183">
        <ele>673</ele>
        <time>2015-10-25T07:35:43Z</time>
      </trkpt>
      <trkpt lat="43.73719" lon="3.46181">
        <ele>673</ele>
        <time>2015-10-25T07:35:44Z</time>
      </trkpt>
      <trkpt lat="43.7372" lon="3.46179">
        <ele>673</ele>
        <time>2015-10-25T07:35:45Z</time>
      </trkpt>
      <trkpt lat="43.73721" lon="3.46177">
        <ele>673</ele>
        <time>2015-10-25T07:35:46Z</time>
      </trkpt>
      <trkpt lat="43.73723" lon="3.46175">
        <ele>672.5</ele>
        <time>2015-10-25T07:35:47Z</time>
      </trkpt>
      <trkpt lat="43.73724" lon="3.46173">
        <ele>672</ele>
        <time>2015-10-25T07:35:48Z</time>
      </trkpt>
      <trkpt lat="43.73726" lon="3.46171">
        <ele>672.5</ele>
        <time>2015-10-25T07:35:49Z</time>
      </trkpt>
      <trkpt lat="43.73727" lon="3.46168">
        <ele>672.5</ele>
        <time>2015-10-25T07:35:50Z</time>
      </trkpt>
      <trkpt lat="43.73728" lon="3.46166">
        <ele>672.5</ele>
        <time>2015-10-25T07:35:51Z</time>
      </trkpt>
      <trkpt lat="43.73729" lon="3.46163">
        <ele>673</ele>
        <time>2015-10-25T07:35:52Z</time>
      </trkpt>
      <trkpt lat="43.73732" lon="3.46159">
        <ele>673.5</ele>
        <time>2015-10-25T07:35:54Z</time>
      </trkpt>
      <trkpt lat="43.73733" lon="3.46157">
        <ele>673.5</ele>
        <time>2015-10-25T07:35:55Z</time>
      </trkpt>
      <trkpt lat="43.73734" lon="3.46155">
        <ele>673.5</ele>
        <time>2015-10-25T07:35:56Z</time>
      </trkpt>
      <trkpt lat="43.73735" lon="3.46153">
        <ele>673.5</ele>
        <time>2015-10-25T07:35:57Z</time>
      </trkpt>
      <trkpt lat="43.73736" lon="3.46151">
        <ele>673.5</ele>
        <time>2015-10-25T07:35:58Z</time>
      </trkpt>
      <trkpt lat="43.73737" lon="3.46149">
        <ele>674</ele>
        <time>2015-10-25T07:35:59Z</time>
      </trkpt>
      <trkpt lat="43.73738" lon="3.46147">
        <ele>674</ele>
        <time>2015-10-25T07:36:00Z</time>
      </trkpt>
      <trkpt lat="43.73739" lon="3.46145">
        <ele>673.5</ele>
        <time>2015-10-25T07:36:01Z</time>
      </trkpt>
      <trkpt lat="43.7374" lon="3.46143">
        <ele>673.5</ele>
        <time>2015-10-25T07:36:02Z</time>
      </trkpt>
      <trkpt lat="43.73742" lon="3.46141">
        <ele>673</ele>
        <time>2015-10-25T07:36:03Z</time>
      </trkpt>
      <trkpt lat="43.73743" lon="3.4614">
        <ele>672.5</ele>
        <time>2015-10-25T07:36:04Z</time>
      </trkpt>
      <trkpt lat="43.73744" lon="3.46138">
        <ele>672.5</ele>
        <time>2015-10-25T07:36:05Z</time>
      </trkpt>
      <trkpt lat="43.73745" lon="3.46136">
        <ele>672.5</ele>
        <time>2015-10-25T07:36:06Z</time>
      </trkpt>
      <trkpt lat="43.73746" lon="3.46134">
        <ele>672</ele>
        <time>2015-10-25T07:36:07Z</time>
      </trkpt>
      <trkpt lat="43.73748" lon="3.46133">
        <ele>671.5</ele>
        <time>2015-10-25T07:36:08Z</time>
      </trkpt>
      <trkpt lat="43.73749" lon="3.4613">
        <ele>671.5</ele>
        <time>2015-10-25T07:36:09Z</time>
      </trkpt>
      <trkpt lat="43.7375" lon="3.46129">
        <ele>670.5</ele>
        <time>2015-10-25T07:36:10Z</time>
      </trkpt>
      <trkpt lat="43.73752" lon="3.46126">
        <ele>670.5</ele>
        <time>2015-10-25T07:36:11Z</time>
      </trkpt>
      <trkpt lat="43.73753" lon="3.46125">
        <ele>670.5</ele>
        <time>2015-10-25T07:36:12Z</time>
      </trkpt>
      <trkpt lat="43.73754" lon="3.46123">
        <ele>669.5</ele>
        <time>2015-10-25T07:36:13Z</time>
      </trkpt>
      <trkpt lat="43.73755" lon="3.46121">
        <ele>669</ele>
        <time>2015-10-25T07:36:14Z</time>
      </trkpt>
      <trkpt lat="43.73756" lon="3.46118">
        <ele>669</ele>
        <time>2015-10-25T07:36:15Z</time>
      </trkpt>
      <trkpt lat="43.73756" lon="3.46116">
        <ele>669</ele>
        <time>2015-10-25T07:36:16Z</time>
      </trkpt>
      <trkpt lat="43.73757" lon="3.46113">
        <ele>669.5</ele>
        <time>2015-10-25T07:36:17Z</time>
      </trkpt>
      <trkpt lat="43.73757" lon="3.4611">
        <ele>670.5</ele>
        <time>2015-10-25T07:36:18Z</time>
      </trkpt>
      <trkpt lat="43.73757" lon="3.46106">
        <ele>671.5</ele>
        <time>2015-10-25T07:36:19Z</time>
      </trkpt>
      <trkpt lat="43.73757" lon="3.46104">
        <ele>672.5</ele>
        <time>2015-10-25T07:36:20Z</time>
      </trkpt>
      <trkpt lat="43.73757" lon="3.461">
        <ele>673.5</ele>
        <time>2015-10-25T07:36:21Z</time>
      </trkpt>
      <trkpt lat="43.73758" lon="3.46097">
        <ele>674</ele>
        <time>2015-10-25T07:36:22Z</time>
      </trkpt>
      <trkpt lat="43.73758" lon="3.46094">
        <ele>675</ele>
        <time>2015-10-25T07:36:23Z</time>
      </trkpt>
      <trkpt lat="43.73758" lon="3.4609">
        <ele>676</ele>
        <time>2015-10-25T07:36:24Z</time>
      </trkpt>
      <trkpt lat="43.73758" lon="3.46087">
        <ele>676.5</ele>
        <time>2015-10-25T07:36:25Z</time>
      </trkpt>
      <trkpt lat="43.73758" lon="3.46083">
        <ele>678</ele>
        <time>2015-10-25T07:36:26Z</time>
      </trkpt>
      <trkpt lat="43.73758" lon="3.4608">
        <ele>679.5</ele>
        <time>2015-10-25T07:36:27Z</time>
      </trkpt>
      <trkpt lat="43.73758" lon="3.46077">
        <ele>680.5</ele>
        <time>2015-10-25T07:36:28Z</time>
      </trkpt>
      <trkpt lat="43.73758" lon="3.46074">
        <ele>681</ele>
        <time>2015-10-25T07:36:29Z</time>
      </trkpt>
      <trkpt lat="43.73758" lon="3.46071">
        <ele>681.5</ele>
        <time>2015-10-25T07:36:30Z</time>
      </trkpt>
      <trkpt lat="43.73759" lon="3.46068">
        <ele>681.5</ele>
        <time>2015-10-25T07:36:31Z</time>
      </trkpt>
      <trkpt lat="43.73759" lon="3.46066">
        <ele>682</ele>
        <time>2015-10-25T07:36:32Z</time>
      </trkpt>
      <trkpt lat="43.7376" lon="3.46063">
        <ele>682</ele>
        <time>2015-10-25T07:36:33Z</time>
      </trkpt>
      <trkpt lat="43.7376" lon="3.4606">
        <ele>682.5</ele>
        <time>2015-10-25T07:36:34Z</time>
      </trkpt>
      <trkpt lat="43.73761" lon="3.46057">
        <ele>682.5</ele>
        <time>2015-10-25T07:36:35Z</time>
      </trkpt>
      <trkpt lat="43.73761" lon="3.46055">
        <ele>682.5</ele>
        <time>2015-10-25T07:36:36Z</time>
      </trkpt>
      <trkpt lat="43.73762" lon="3.46052">
        <ele>682.5</ele>
        <time>2015-10-25T07:36:37Z</time>
      </trkpt>
      <trkpt lat="43.73763" lon="3.4605">
        <ele>683</ele>
        <time>2015-10-25T07:36:38Z</time>
      </trkpt>
      <trkpt lat="43.73763" lon="3.46046">
        <ele>683.5</ele>
        <time>2015-10-25T07:36:39Z</time>
      </trkpt>
      <trkpt lat="43.73763" lon="3.46043">
        <ele>684</ele>
        <time>2015-10-25T07:36:40Z</time>
      </trkpt>
      <trkpt lat="43.73764" lon="3.46041">
        <ele>684</ele>
        <time>2015-10-25T07:36:41Z</time>
      </trkpt>
      <trkpt lat="43.73765" lon="3.46038">
        <ele>684</ele>
        <time>2015-10-25T07:36:42Z</time>
      </trkpt>
      <trkpt lat="43.73766" lon="3.46036">
        <ele>684</ele>
        <time>2015-10-25T07:36:43Z</time>
      </trkpt>
      <trkpt lat="43.73766" lon="3.46034">
        <ele>684.5</ele>
        <time>2015-10-25T07:36:44Z</time>
      </trkpt>
      <trkpt lat="43.73767" lon="3.46031">
        <ele>684.5</ele>
        <time>2015-10-25T07:36:45Z</time>
      </trkpt>
      <trkpt lat="43.73768" lon="3.46028">
        <ele>684.5</ele>
        <time>2015-10-25T07:36:46Z</time>
      </trkpt>
      <trkpt lat="43.73769" lon="3.46026">
        <ele>684.5</ele>
        <time>2015-10-25T07:36:47Z</time>
      </trkpt>
      <trkpt lat="43.7377" lon="3.46022">
        <ele>684.5</ele>
        <time>2015-10-25T07:36:48Z</time>
      </trkpt>
      <trkpt lat="43.73771" lon="3.46019">
        <ele>684.5</ele>
        <time>2015-10-25T07:36:49Z</time>
      </trkpt>
      <trkpt lat="43.73772" lon="3.46017">
        <ele>684</ele>
        <time>2015-10-25T07:36:50Z</time>
      </trkpt>
      <trkpt lat="43.73773" lon="3.46014">
        <ele>684</ele>
        <time>2015-10-25T07:36:51Z</time>
      </trkpt>
      <trkpt lat="43.73774" lon="3.46012">
        <ele>684</ele>
        <time>2015-10-25T07:36:52Z</time>
      </trkpt>
      <trkpt lat="43.73774" lon="3.46009">
        <ele>685</ele>
        <time>2015-10-25T07:36:53Z</time>
      </trkpt>
      <trkpt lat="43.73775" lon="3.46006">
        <ele>685</ele>
        <time>2015-10-25T07:36:54Z</time>
      </trkpt>
      <trkpt lat="43.73775" lon="3.46003">
        <ele>685</ele>
        <time>2015-10-25T07:36:55Z</time>
      </trkpt>
      <trkpt lat="43.73776" lon="3.46001">
        <ele>685</ele>
        <time>2015-10-25T07:36:56Z</time>
      </trkpt>
      <trkpt lat="43.73776" lon="3.45997">
        <ele>686</ele>
        <time>2015-10-25T07:36:57Z</time>
      </trkpt>
      <trkpt lat="43.73776" lon="3.45995">
        <ele>686</ele>
        <time>2015-10-25T07:36:58Z</time>
      </trkpt>
      <trkpt lat="43.73776" lon="3.45992">
        <ele>686.5</ele>
        <time>2015-10-25T07:36:59Z</time>
      </trkpt>
      <trkpt lat="43.73776" lon="3.4599">
        <ele>687</ele>
        <time>2015-10-25T07:37:00Z</time>
      </trkpt>
      <trkpt lat="43.73778" lon="3.45987">
        <ele>686</ele>
        <time>2015-10-25T07:37:01Z</time>
      </trkpt>
      <trkpt lat="43.73778" lon="3.45985">
        <ele>686</ele>
        <time>2015-10-25T07:37:02Z</time>
      </trkpt>
      <trkpt lat="43.73778" lon="3.45982">
        <ele>685.5</ele>
        <time>2015-10-25T07:37:03Z</time>
      </trkpt>
      <trkpt lat="43.73778" lon="3.45979">
        <ele>686</ele>
        <time>2015-10-25T07:37:04Z</time>
      </trkpt>
      <trkpt lat="43.73778" lon="3.45977">
        <ele>686.5</ele>
        <time>2015-10-25T07:37:05Z</time>
      </trkpt>
      <trkpt lat="43.73778" lon="3.45975">
        <ele>686.5</ele>
        <time>2015-10-25T07:37:06Z</time>
      </trkpt>
      <trkpt lat="43.73778" lon="3.45973">
        <ele>686.5</ele>
        <time>2015-10-25T07:37:07Z</time>
      </trkpt>
      <trkpt lat="43.73777" lon="3.4597">
        <ele>687</ele>
        <time>2015-10-25T07:37:08Z</time>
      </trkpt>
      <trkpt lat="43.73777" lon="3.45967">
        <ele>687</ele>
        <time>2015-10-25T07:37:09Z</time>
      </trkpt>
      <trkpt lat="43.73776" lon="3.45964">
        <ele>688</ele>
        <time>2015-10-25T07:37:10Z</time>
      </trkpt>
      <trkpt lat="43.73775" lon="3.45961">
        <ele>688.5</ele>
        <time>2015-10-25T07:37:11Z</time>
      </trkpt>
      <trkpt lat="43.73775" lon="3.45958">
        <ele>689</ele>
        <time>2015-10-25T07:37:12Z</time>
      </trkpt>
      <trkpt lat="43.73774" lon="3.45955">
        <ele>689.5</ele>
        <time>2015-10-25T07:37:13Z</time>
      </trkpt>
      <trkpt lat="43.73774" lon="3.45951">
        <ele>690</ele>
        <time>2015-10-25T07:37:14Z</time>
      </trkpt>
      <trkpt lat="43.73773" lon="3.45948">
        <ele>690.5</ele>
        <time>2015-10-25T07:37:15Z</time>
      </trkpt>
      <trkpt lat="43.73773" lon="3.45945">
        <ele>690.5</ele>
        <time>2015-10-25T07:37:16Z</time>
      </trkpt>
      <trkpt lat="43.73773" lon="3.45942">
        <ele>691</ele>
        <time>2015-10-25T07:37:17Z</time>
      </trkpt>
      <trkpt lat="43.73773" lon="3.45939">
        <ele>691.5</ele>
        <time>2015-10-25T07:37:18Z</time>
      </trkpt>
      <trkpt lat="43.73773" lon="3.45936">
        <ele>691.5</ele>
        <time>2015-10-25T07:37:19Z</time>
      </trkpt>
      <trkpt lat="43.73774" lon="3.45932">
        <ele>691.5</ele>
        <time>2015-10-25T07:37:20Z</time>
      </trkpt>
      <trkpt lat="43.73774" lon="3.45929">
        <ele>691.5</ele>
        <time>2015-10-25T07:37:21Z</time>
      </trkpt>
      <trkpt lat="43.73775" lon="3.45926">
        <ele>691.5</ele>
        <time>2015-10-25T07:37:22Z</time>
      </trkpt>
      <trkpt lat="43.73775" lon="3.45923">
        <ele>691</ele>
        <time>2015-10-25T07:37:23Z</time>
      </trkpt>
      <trkpt lat="43.73776" lon="3.4592">
        <ele>691</ele>
        <time>2015-10-25T07:37:24Z</time>
      </trkpt>
      <trkpt lat="43.73776" lon="3.45917">
        <ele>691</ele>
        <time>2015-10-25T07:37:25Z</time>
      </trkpt>
      <trkpt lat="43.73776" lon="3.45914">
        <ele>691</ele>
        <time>2015-10-25T07:37:26Z</time>
      </trkpt>
      <trkpt lat="43.73777" lon="3.45908">
        <ele>691.5</ele>
        <time>2015-10-25T07:37:28Z</time>
      </trkpt>
      <trkpt lat="43.73777" lon="3.45905">
        <ele>692</ele>
        <time>2015-10-25T07:37:29Z</time>
      </trkpt>
      <trkpt lat="43.73778" lon="3.45902">
        <ele>692</ele>
        <time>2015-10-25T07:37:30Z</time>
      </trkpt>
      <trkpt lat="43.73778" lon="3.45899">
        <ele>692.5</ele>
        <time>2015-10-25T07:37:31Z</time>
      </trkpt>
      <trkpt lat="43.73778" lon="3.45896">
        <ele>693</ele>
        <time>2015-10-25T07:37:32Z</time>
      </trkpt>
      <trkpt lat="43.73778" lon="3.45893">
        <ele>693</ele>
        <time>2015-10-25T07:37:33Z</time>
      </trkpt>
      <trkpt lat="43.73779" lon="3.4589">
        <ele>693.5</ele>
        <time>2015-10-25T07:37:34Z</time>
      </trkpt>
      <trkpt lat="43.73779" lon="3.45886">
        <ele>694</ele>
        <time>2015-10-25T07:37:35Z</time>
      </trkpt>
      <trkpt lat="43.73779" lon="3.45883">
        <ele>694.5</ele>
        <time>2015-10-25T07:37:36Z</time>
      </trkpt>
      <trkpt lat="43.7378" lon="3.4588">
        <ele>694.5</ele>
        <time>2015-10-25T07:37:37Z</time>
      </trkpt>
      <trkpt lat="43.73781" lon="3.45877">
        <ele>694.5</ele>
        <time>2015-10-25T07:37:38Z</time>
      </trkpt>
      <trkpt lat="43.73781" lon="3.45874">
        <ele>694.5</ele>
        <time>2015-10-25T07:37:39Z</time>
      </trkpt>
      <trkpt lat="43.73782" lon="3.4587">
        <ele>694.5</ele>
        <time>2015-10-25T07:37:40Z</time>
      </trkpt>
      <trkpt lat="43.73782" lon="3.45867">
        <ele>695</ele>
        <time>2015-10-25T07:37:41Z</time>
      </trkpt>
      <trkpt lat="43.73783" lon="3.45865">
        <ele>694.5</ele>
        <time>2015-10-25T07:37:42Z</time>
      </trkpt>
      <trkpt lat="43.73784" lon="3.45862">
        <ele>695</ele>
        <time>2015-10-25T07:37:43Z</time>
      </trkpt>
      <trkpt lat="43.73784" lon="3.45859">
        <ele>695</ele>
        <time>2015-10-25T07:37:44Z</time>
      </trkpt>
      <trkpt lat="43.73785" lon="3.45856">
        <ele>695.5</ele>
        <time>2015-10-25T07:37:45Z</time>
      </trkpt>
      <trkpt lat="43.73785" lon="3.45852">
        <ele>696</ele>
        <time>2015-10-25T07:37:46Z</time>
      </trkpt>
      <trkpt lat="43.73786" lon="3.4585">
        <ele>696</ele>
        <time>2015-10-25T07:37:47Z</time>
      </trkpt>
      <trkpt lat="43.73786" lon="3.45847">
        <ele>696.5</ele>
        <time>2015-10-25T07:37:48Z</time>
      </trkpt>
      <trkpt lat="43.73787" lon="3.45844">
        <ele>697</ele>
        <time>2015-10-25T07:37:49Z</time>
      </trkpt>
      <trkpt lat="43.73787" lon="3.45841">
        <ele>698</ele>
        <time>2015-10-25T07:37:50Z</time>
      </trkpt>
      <trkpt lat="43.73787" lon="3.45839">
        <ele>698.5</ele>
        <time>2015-10-25T07:37:51Z</time>
      </trkpt>
      <trkpt lat="43.73789" lon="3.45836">
        <ele>698</ele>
        <time>2015-10-25T07:37:52Z</time>
      </trkpt>
      <trkpt lat="43.73789" lon="3.45834">
        <ele>698.5</ele>
        <time>2015-10-25T07:37:53Z</time>
      </trkpt>
      <trkpt lat="43.7379" lon="3.45831">
        <ele>698</ele>
        <time>2015-10-25T07:37:54Z</time>
      </trkpt>
      <trkpt lat="43.7379" lon="3.45828">
        <ele>699</ele>
        <time>2015-10-25T07:37:55Z</time>
      </trkpt>
      <trkpt lat="43.73791" lon="3.45826">
        <ele>699.5</ele>
        <time>2015-10-25T07:37:56Z</time>
      </trkpt>
      <trkpt lat="43.73791" lon="3.45823">
        <ele>700</ele>
        <time>2015-10-25T07:37:57Z</time>
      </trkpt>
      <trkpt lat="43.73791" lon="3.4582">
        <ele>700.5</ele>
        <time>2015-10-25T07:37:58Z</time>
      </trkpt>
      <trkpt lat="43.73792" lon="3.45817">
        <ele>700</ele>
        <time>2015-10-25T07:37:59Z</time>
      </trkpt>
      <trkpt lat="43.73792" lon="3.45814">
        <ele>700</ele>
        <time>2015-10-25T07:38:00Z</time>
      </trkpt>
      <trkpt lat="43.73792" lon="3.45812">
        <ele>700.5</ele>
        <time>2015-10-25T07:38:01Z</time>
      </trkpt>
      <trkpt lat="43.73791" lon="3.45809">
        <ele>701.5</ele>
        <time>2015-10-25T07:38:02Z</time>
      </trkpt>
      <trkpt lat="43.73791" lon="3.45806">
        <ele>701.5</ele>
        <time>2015-10-25T07:38:03Z</time>
      </trkpt>
      <trkpt lat="43.73791" lon="3.45803">
        <ele>702</ele>
        <time>2015-10-25T07:38:04Z</time>
      </trkpt>
      <trkpt lat="43.7379" lon="3.458">
        <ele>701.5</ele>
        <time>2015-10-25T07:38:05Z</time>
      </trkpt>
      <trkpt lat="43.7379" lon="3.45797">
        <ele>702.5</ele>
        <time>2015-10-25T07:38:06Z</time>
      </trkpt>
      <trkpt lat="43.73789" lon="3.45794">
        <ele>703</ele>
        <time>2015-10-25T07:38:07Z</time>
      </trkpt>
      <trkpt lat="43.73788" lon="3.45791">
        <ele>703.5</ele>
        <time>2015-10-25T07:38:08Z</time>
      </trkpt>
      <trkpt lat="43.73788" lon="3.45785">
        <ele>703</ele>
        <time>2015-10-25T07:38:10Z</time>
      </trkpt>
      <trkpt lat="43.73788" lon="3.45779">
        <ele>702</ele>
        <time>2015-10-25T07:38:11Z</time>
      </trkpt>
      <trkpt lat="43.73788" lon="3.45776">
        <ele>701.5</ele>
        <time>2015-10-25T07:38:12Z</time>
      </trkpt>
      <trkpt lat="43.73788" lon="3.45774">
        <ele>701.5</ele>
        <time>2015-10-25T07:38:14Z</time>
      </trkpt>
      <trkpt lat="43.73788" lon="3.45771">
        <ele>701</ele>
        <time>2015-10-25T07:38:14Z</time>
      </trkpt>
      <trkpt lat="43.73788" lon="3.45768">
        <ele>701</ele>
        <time>2015-10-25T07:38:16Z</time>
      </trkpt>
      <trkpt lat="43.73788" lon="3.45765">
        <ele>701</ele>
        <time>2015-10-25T07:38:16Z</time>
      </trkpt>
      <trkpt lat="43.73787" lon="3.45762">
        <ele>701.5</ele>
        <time>2015-10-25T07:38:18Z</time>
      </trkpt>
      <trkpt lat="43.73788" lon="3.45759">
        <ele>701.5</ele>
        <time>2015-10-25T07:38:19Z</time>
      </trkpt>
      <trkpt lat="43.73787" lon="3.45756">
        <ele>701.5</ele>
        <time>2015-10-25T07:38:19Z</time>
      </trkpt>
      <trkpt lat="43.73788" lon="3.45753">
        <ele>701.5</ele>
        <time>2015-10-25T07:38:20Z</time>
      </trkpt>
      <trkpt lat="43.73787" lon="3.4575">
        <ele>701.5</ele>
        <time>2015-10-25T07:38:22Z</time>
      </trkpt>
      <trkpt lat="43.73787" lon="3.45747">
        <ele>702</ele>
        <time>2015-10-25T07:38:22Z</time>
      </trkpt>
      <trkpt lat="43.73786" lon="3.45744">
        <ele>702.5</ele>
        <time>2015-10-25T07:38:23Z</time>
      </trkpt>
      <trkpt lat="43.73785" lon="3.45741">
        <ele>703</ele>
        <time>2015-10-25T07:38:24Z</time>
      </trkpt>
      <trkpt lat="43.73785" lon="3.45738">
        <ele>703</ele>
        <time>2015-10-25T07:38:25Z</time>
      </trkpt>
      <trkpt lat="43.73785" lon="3.45735">
        <ele>703.5</ele>
        <time>2015-10-25T07:38:26Z</time>
      </trkpt>
      <trkpt lat="43.73785" lon="3.45732">
        <ele>703.5</ele>
        <time>2015-10-25T07:38:27Z</time>
      </trkpt>
      <trkpt lat="43.73784" lon="3.45729">
        <ele>704</ele>
        <time>2015-10-25T07:38:28Z</time>
      </trkpt>
      <trkpt lat="43.73784" lon="3.45726">
        <ele>704</ele>
        <time>2015-10-25T07:38:29Z</time>
      </trkpt>
      <trkpt lat="43.73784" lon="3.45723">
        <ele>704.5</ele>
        <time>2015-10-25T07:38:31Z</time>
      </trkpt>
      <trkpt lat="43.73784" lon="3.4572">
        <ele>704</ele>
        <time>2015-10-25T07:38:31Z</time>
      </trkpt>
      <trkpt lat="43.73785" lon="3.45717">
        <ele>703.5</ele>
        <time>2015-10-25T07:38:32Z</time>
      </trkpt>
      <trkpt lat="43.73785" lon="3.45714">
        <ele>703.5</ele>
        <time>2015-10-25T07:38:33Z</time>
      </trkpt>
      <trkpt lat="43.73784" lon="3.45711">
        <ele>704.5</ele>
        <time>2015-10-25T07:38:34Z</time>
      </trkpt>
      <trkpt lat="43.73784" lon="3.45708">
        <ele>705</ele>
        <time>2015-10-25T07:38:35Z</time>
      </trkpt>
      <trkpt lat="43.73785" lon="3.45705">
        <ele>705</ele>
        <time>2015-10-25T07:38:36Z</time>
      </trkpt>
      <trkpt lat="43.73785" lon="3.45702">
        <ele>705</ele>
        <time>2015-10-25T07:38:37Z</time>
      </trkpt>
      <trkpt lat="43.73785" lon="3.45699">
        <ele>705</ele>
        <time>2015-10-25T07:38:38Z</time>
      </trkpt>
      <trkpt lat="43.73785" lon="3.45696">
        <ele>705</ele>
        <time>2015-10-25T07:38:39Z</time>
      </trkpt>
      <trkpt lat="43.73786" lon="3.45693">
        <ele>705</ele>
        <time>2015-10-25T07:38:40Z</time>
      </trkpt>
      <trkpt lat="43.73786" lon="3.4569">
        <ele>705</ele>
        <time>2015-10-25T07:38:42Z</time>
      </trkpt>
      <trkpt lat="43.73786" lon="3.45685">
        <ele>706.5</ele>
        <time>2015-10-25T07:38:44Z</time>
      </trkpt>
      <trkpt lat="43.73786" lon="3.45682">
        <ele>707</ele>
        <time>2015-10-25T07:38:44Z</time>
      </trkpt>
      <trkpt lat="43.73786" lon="3.45679">
        <ele>707</ele>
        <time>2015-10-25T07:38:45Z</time>
      </trkpt>
      <trkpt lat="43.73787" lon="3.45675">
        <ele>707</ele>
        <time>2015-10-25T07:38:46Z</time>
      </trkpt>
      <trkpt lat="43.73787" lon="3.45672">
        <ele>707.5</ele>
        <time>2015-10-25T07:38:47Z</time>
      </trkpt>
      <trkpt lat="43.73787" lon="3.45669">
        <ele>707.5</ele>
        <time>2015-10-25T07:38:48Z</time>
      </trkpt>
      <trkpt lat="43.73788" lon="3.45666">
        <ele>707</ele>
        <time>2015-10-25T07:38:49Z</time>
      </trkpt>
      <trkpt lat="43.73789" lon="3.45663">
        <ele>707</ele>
        <time>2015-10-25T07:38:50Z</time>
      </trkpt>
      <trkpt lat="43.73789" lon="3.4566">
        <ele>707</ele>
        <time>2015-10-25T07:38:51Z</time>
      </trkpt>
      <trkpt lat="43.7379" lon="3.45657">
        <ele>707.5</ele>
        <time>2015-10-25T07:38:52Z</time>
      </trkpt>
      <trkpt lat="43.7379" lon="3.45654">
        <ele>707.5</ele>
        <time>2015-10-25T07:38:53Z</time>
      </trkpt>
      <trkpt lat="43.73791" lon="3.4565">
        <ele>707.5</ele>
        <time>2015-10-25T07:38:55Z</time>
      </trkpt>
      <trkpt lat="43.73792" lon="3.45643">
        <ele>708</ele>
        <time>2015-10-25T07:38:56Z</time>
      </trkpt>
      <trkpt lat="43.73794" lon="3.45641">
        <ele>707</ele>
        <time>2015-10-25T07:38:57Z</time>
      </trkpt>
      <trkpt lat="43.73795" lon="3.45638">
        <ele>707</ele>
        <time>2015-10-25T07:38:58Z</time>
      </trkpt>
      <trkpt lat="43.73795" lon="3.45635">
        <ele>707.5</ele>
        <time>2015-10-25T07:38:59Z</time>
      </trkpt>
      <trkpt lat="43.73796" lon="3.45631">
        <ele>708</ele>
        <time>2015-10-25T07:39:00Z</time>
      </trkpt>
      <trkpt lat="43.73797" lon="3.45628">
        <ele>708</ele>
        <time>2015-10-25T07:39:01Z</time>
      </trkpt>
      <trkpt lat="43.73798" lon="3.45625">
        <ele>708</ele>
        <time>2015-10-25T07:39:02Z</time>
      </trkpt>
      <trkpt lat="43.738" lon="3.45622">
        <ele>708</ele>
        <time>2015-10-25T07:39:03Z</time>
      </trkpt>
      <trkpt lat="43.73801" lon="3.4562">
        <ele>708</ele>
        <time>2015-10-25T07:39:04Z</time>
      </trkpt>
      <trkpt lat="43.73803" lon="3.45617">
        <ele>708</ele>
        <time>2015-10-25T07:39:05Z</time>
      </trkpt>
      <trkpt lat="43.73805" lon="3.45614">
        <ele>707</ele>
        <time>2015-10-25T07:39:06Z</time>
      </trkpt>
      <trkpt lat="43.73807" lon="3.45612">
        <ele>707</ele>
        <time>2015-10-25T07:39:07Z</time>
      </trkpt>
      <trkpt lat="43.73809" lon="3.4561">
        <ele>707</ele>
        <time>2015-10-25T07:39:08Z</time>
      </trkpt>
      <trkpt lat="43.73811" lon="3.45608">
        <ele>706.5</ele>
        <time>2015-10-25T07:39:09Z</time>
      </trkpt>
      <trkpt lat="43.73813" lon="3.45606">
        <ele>706.5</ele>
        <time>2015-10-25T07:39:10Z</time>
      </trkpt>
      <trkpt lat="43.73815" lon="3.45605">
        <ele>706.5</ele>
        <time>2015-10-25T07:39:11Z</time>
      </trkpt>
      <trkpt lat="43.73818" lon="3.45604">
        <ele>706.5</ele>
        <time>2015-10-25T07:39:12Z</time>
      </trkpt>
      <trkpt lat="43.7382" lon="3.45603">
        <ele>707</ele>
        <time>2015-10-25T07:39:13Z</time>
      </trkpt>
      <trkpt lat="43.73822" lon="3.45602">
        <ele>707.5</ele>
        <time>2015-10-25T07:39:14Z</time>
      </trkpt>
      <trkpt lat="43.73825" lon="3.45602">
        <ele>707</ele>
        <time>2015-10-25T07:39:15Z</time>
      </trkpt>
      <trkpt lat="43.73827" lon="3.45602">
        <ele>707</ele>
        <time>2015-10-25T07:39:16Z</time>
      </trkpt>
      <trkpt lat="43.73829" lon="3.45602">
        <ele>707</ele>
        <time>2015-10-25T07:39:17Z</time>
      </trkpt>
      <trkpt lat="43.73831" lon="3.45602">
        <ele>707.5</ele>
        <time>2015-10-25T07:39:18Z</time>
      </trkpt>
      <trkpt lat="43.73834" lon="3.45602">
        <ele>706.5</ele>
        <time>2015-10-25T07:39:19Z</time>
      </trkpt>
      <trkpt lat="43.73837" lon="3.45603">
        <ele>706.5</ele>
        <time>2015-10-25T07:39:20Z</time>
      </trkpt>
      <trkpt lat="43.73839" lon="3.45603">
        <ele>706.5</ele>
        <time>2015-10-25T07:39:21Z</time>
      </trkpt>
      <trkpt lat="43.73841" lon="3.45604">
        <ele>706.5</ele>
        <time>2015-10-25T07:39:22Z</time>
      </trkpt>
      <trkpt lat="43.73844" lon="3.45604">
        <ele>706.5</ele>
        <time>2015-10-25T07:39:23Z</time>
      </trkpt>
      <trkpt lat="43.73846" lon="3.45604">
        <ele>706.5</ele>
        <time>2015-10-25T07:39:24Z</time>
      </trkpt>
      <trkpt lat="43.73848" lon="3.45605">
        <ele>706.5</ele>
        <time>2015-10-25T07:39:25Z</time>
      </trkpt>
      <trkpt lat="43.7385" lon="3.45606">
        <ele>706.5</ele>
        <time>2015-10-25T07:39:26Z</time>
      </trkpt>
      <trkpt lat="43.73852" lon="3.45606">
        <ele>706.5</ele>
        <time>2015-10-25T07:39:27Z</time>
      </trkpt>
      <trkpt lat="43.73857" lon="3.45608">
        <ele>707</ele>
        <time>2015-10-25T07:39:29Z</time>
      </trkpt>
      <trkpt lat="43.73859" lon="3.45608">
        <ele>707</ele>
        <time>2015-10-25T07:39:30Z</time>
      </trkpt>
      <trkpt lat="43.73862" lon="3.45609">
        <ele>706</ele>
        <time>2015-10-25T07:39:31Z</time>
      </trkpt>
      <trkpt lat="43.73863" lon="3.45609">
        <ele>706</ele>
        <time>2015-10-25T07:39:32Z</time>
      </trkpt>
      <trkpt lat="43.73865" lon="3.4561">
        <ele>706.5</ele>
        <time>2015-10-25T07:39:33Z</time>
      </trkpt>
      <trkpt lat="43.73867" lon="3.45611">
        <ele>706.5</ele>
        <time>2015-10-25T07:39:34Z</time>
      </trkpt>
      <trkpt lat="43.73869" lon="3.45612">
        <ele>705.5</ele>
        <time>2015-10-25T07:39:35Z</time>
      </trkpt>
      <trkpt lat="43.73871" lon="3.45613">
        <ele>705.5</ele>
        <time>2015-10-25T07:39:36Z</time>
      </trkpt>
      <trkpt lat="43.73872" lon="3.45613">
        <ele>706</ele>
        <time>2015-10-25T07:39:37Z</time>
      </trkpt>
      <trkpt lat="43.73874" lon="3.45613">
        <ele>706.5</ele>
        <time>2015-10-25T07:39:38Z</time>
      </trkpt>
      <trkpt lat="43.73876" lon="3.45615">
        <ele>706</ele>
        <time>2015-10-25T07:39:39Z</time>
      </trkpt>
      <trkpt lat="43.73878" lon="3.45616">
        <ele>706</ele>
        <time>2015-10-25T07:39:40Z</time>
      </trkpt>
      <trkpt lat="43.7388" lon="3.45617">
        <ele>706</ele>
        <time>2015-10-25T07:39:41Z</time>
      </trkpt>
      <trkpt lat="43.73882" lon="3.45618">
        <ele>706.5</ele>
        <time>2015-10-25T07:39:42Z</time>
      </trkpt>
      <trkpt lat="43.73884" lon="3.45618">
        <ele>706.5</ele>
        <time>2015-10-25T07:39:43Z</time>
      </trkpt>
      <trkpt lat="43.73886" lon="3.45619">
        <ele>706.5</ele>
        <time>2015-10-25T07:39:44Z</time>
      </trkpt>
      <trkpt lat="43.73888" lon="3.4562">
        <ele>706.5</ele>
        <time>2015-10-25T07:39:45Z</time>
      </trkpt>
      <trkpt lat="43.7389" lon="3.45621">
        <ele>707</ele>
        <time>2015-10-25T07:39:46Z</time>
      </trkpt>
      <trkpt lat="43.73892" lon="3.45621">
        <ele>707</ele>
        <time>2015-10-25T07:39:47Z</time>
      </trkpt>
      <trkpt lat="43.73894" lon="3.45622">
        <ele>707.5</ele>
        <time>2015-10-25T07:39:48Z</time>
      </trkpt>
      <trkpt lat="43.73896" lon="3.45623">
        <ele>707.5</ele>
        <time>2015-10-25T07:39:49Z</time>
      </trkpt>
      <trkpt lat="43.73897" lon="3.45623">
        <ele>708</ele>
        <time>2015-10-25T07:39:50Z</time>
      </trkpt>
      <trkpt lat="43.73899" lon="3.45623">
        <ele>708</ele>
        <time>2015-10-25T07:39:51Z</time>
      </trkpt>
      <trkpt lat="43.73901" lon="3.45624">
        <ele>708.5</ele>
        <time>2015-10-25T07:39:52Z</time>
      </trkpt>
      <trkpt lat="43.73904" lon="3.45625">
        <ele>708.5</ele>
        <time>2015-10-25T07:39:54Z</time>
      </trkpt>
      <trkpt lat="43.73906" lon="3.45626">
        <ele>708.5</ele>
        <time>2015-10-25T07:39:55Z</time>
      </trkpt>
      <trkpt lat="43.73908" lon="3.45625">
        <ele>709.5</ele>
        <time>2015-10-25T07:39:56Z</time>
      </trkpt>
      <trkpt lat="43.7391" lon="3.45625">
        <ele>710</ele>
        <time>2015-10-25T07:39:57Z</time>
      </trkpt>
      <trkpt lat="43.73912" lon="3.45626">
        <ele>710</ele>
        <time>2015-10-25T07:39:58Z</time>
      </trkpt>
      <trkpt lat="43.73914" lon="3.45626">
        <ele>710.5</ele>
        <time>2015-10-25T07:39:59Z</time>
      </trkpt>
      <trkpt lat="43.73916" lon="3.45627">
        <ele>710</ele>
        <time>2015-10-25T07:40:00Z</time>
      </trkpt>
      <trkpt lat="43.73917" lon="3.45627">
        <ele>711</ele>
        <time>2015-10-25T07:40:01Z</time>
      </trkpt>
      <trkpt lat="43.73919" lon="3.45627">
        <ele>711</ele>
        <time>2015-10-25T07:40:02Z</time>
      </trkpt>
      <trkpt lat="43.73921" lon="3.45628">
        <ele>711</ele>
        <time>2015-10-25T07:40:03Z</time>
      </trkpt>
      <trkpt lat="43.73923" lon="3.45629">
        <ele>711.5</ele>
        <time>2015-10-25T07:40:04Z</time>
      </trkpt>
      <trkpt lat="43.73925" lon="3.45629">
        <ele>711.5</ele>
        <time>2015-10-25T07:40:05Z</time>
      </trkpt>
      <trkpt lat="43.73928" lon="3.45631">
        <ele>711.5</ele>
        <time>2015-10-25T07:40:06Z</time>
      </trkpt>
      <trkpt lat="43.7393" lon="3.45632">
        <ele>711.5</ele>
        <time>2015-10-25T07:40:07Z</time>
      </trkpt>
      <trkpt lat="43.73933" lon="3.45634">
        <ele>711.5</ele>
        <time>2015-10-25T07:40:08Z</time>
      </trkpt>
      <trkpt lat="43.73935" lon="3.45635">
        <ele>711.5</ele>
        <time>2015-10-25T07:40:09Z</time>
      </trkpt>
      <trkpt lat="43.73938" lon="3.45636">
        <ele>711.5</ele>
        <time>2015-10-25T07:40:10Z</time>
      </trkpt>
      <trkpt lat="43.7394" lon="3.45637">
        <ele>712</ele>
        <time>2015-10-25T07:40:11Z</time>
      </trkpt>
      <trkpt lat="43.73942" lon="3.45638">
        <ele>712.5</ele>
        <time>2015-10-25T07:40:12Z</time>
      </trkpt>
      <trkpt lat="43.73945" lon="3.45639">
        <ele>713</ele>
        <time>2015-10-25T07:40:13Z</time>
      </trkpt>
      <trkpt lat="43.73947" lon="3.4564">
        <ele>713.5</ele>
        <time>2015-10-25T07:40:14Z</time>
      </trkpt>
      <trkpt lat="43.73948" lon="3.45642">
        <ele>714</ele>
        <time>2015-10-25T07:40:15Z</time>
      </trkpt>
      <trkpt lat="43.73951" lon="3.45643">
        <ele>714</ele>
        <time>2015-10-25T07:40:16Z</time>
      </trkpt>
      <trkpt lat="43.73953" lon="3.45645">
        <ele>714</ele>
        <time>2015-10-25T07:40:17Z</time>
      </trkpt>
      <trkpt lat="43.73955" lon="3.45647">
        <ele>714</ele>
        <time>2015-10-25T07:40:18Z</time>
      </trkpt>
      <trkpt lat="43.73957" lon="3.45649">
        <ele>714</ele>
        <time>2015-10-25T07:40:19Z</time>
      </trkpt>
      <trkpt lat="43.73959" lon="3.45651">
        <ele>714</ele>
        <time>2015-10-25T07:40:20Z</time>
      </trkpt>
      <trkpt lat="43.73961" lon="3.45653">
        <ele>714</ele>
        <time>2015-10-25T07:40:21Z</time>
      </trkpt>
      <trkpt lat="43.73963" lon="3.45655">
        <ele>714</ele>
        <time>2015-10-25T07:40:22Z</time>
      </trkpt>
      <trkpt lat="43.73965" lon="3.45657">
        <ele>714</ele>
        <time>2015-10-25T07:40:23Z</time>
      </trkpt>
      <trkpt lat="43.73967" lon="3.45658">
        <ele>714</ele>
        <time>2015-10-25T07:40:24Z</time>
      </trkpt>
      <trkpt lat="43.73968" lon="3.4566">
        <ele>714</ele>
        <time>2015-10-25T07:40:25Z</time>
      </trkpt>
      <trkpt lat="43.73971" lon="3.45662">
        <ele>714</ele>
        <time>2015-10-25T07:40:26Z</time>
      </trkpt>
      <trkpt lat="43.73973" lon="3.45664">
        <ele>714.5</ele>
        <time>2015-10-25T07:40:27Z</time>
      </trkpt>
      <trkpt lat="43.73975" lon="3.45664">
        <ele>715</ele>
        <time>2015-10-25T07:40:28Z</time>
      </trkpt>
      <trkpt lat="43.73977" lon="3.45665">
        <ele>715</ele>
        <time>2015-10-25T07:40:29Z</time>
      </trkpt>
      <trkpt lat="43.73979" lon="3.45665">
        <ele>715.5</ele>
        <time>2015-10-25T07:40:30Z</time>
      </trkpt>
      <trkpt lat="43.73981" lon="3.45666">
        <ele>715.5</ele>
        <time>2015-10-25T07:40:31Z</time>
      </trkpt>
      <trkpt lat="43.73983" lon="3.45666">
        <ele>716</ele>
        <time>2015-10-25T07:40:32Z</time>
      </trkpt>
      <trkpt lat="43.73986" lon="3.45666">
        <ele>715.5</ele>
        <time>2015-10-25T07:40:33Z</time>
      </trkpt>
      <trkpt lat="43.73988" lon="3.45665">
        <ele>716.5</ele>
        <time>2015-10-25T07:40:34Z</time>
      </trkpt>
      <trkpt lat="43.7399" lon="3.45665">
        <ele>717</ele>
        <time>2015-10-25T07:40:35Z</time>
      </trkpt>
      <trkpt lat="43.73993" lon="3.45665">
        <ele>717</ele>
        <time>2015-10-25T07:40:36Z</time>
      </trkpt>
      <trkpt lat="43.73996" lon="3.45664">
        <ele>717</ele>
        <time>2015-10-25T07:40:37Z</time>
      </trkpt>
      <trkpt lat="43.73998" lon="3.45664">
        <ele>717</ele>
        <time>2015-10-25T07:40:38Z</time>
      </trkpt>
      <trkpt lat="43.74001" lon="3.45663">
        <ele>717</ele>
        <time>2015-10-25T07:40:39Z</time>
      </trkpt>
      <trkpt lat="43.74003" lon="3.45663">
        <ele>717</ele>
        <time>2015-10-25T07:40:40Z</time>
      </trkpt>
      <trkpt lat="43.74006" lon="3.45663">
        <ele>717</ele>
        <time>2015-10-25T07:40:41Z</time>
      </trkpt>
      <trkpt lat="43.74008" lon="3.45662">
        <ele>717.5</ele>
        <time>2015-10-25T07:40:42Z</time>
      </trkpt>
      <trkpt lat="43.74011" lon="3.45662">
        <ele>717.5</ele>
        <time>2015-10-25T07:40:43Z</time>
      </trkpt>
      <trkpt lat="43.74014" lon="3.45661">
        <ele>717.5</ele>
        <time>2015-10-25T07:40:44Z</time>
      </trkpt>
      <trkpt lat="43.74017" lon="3.45661">
        <ele>717.5</ele>
        <time>2015-10-25T07:40:45Z</time>
      </trkpt>
      <trkpt lat="43.74019" lon="3.45659">
        <ele>718</ele>
        <time>2015-10-25T07:40:46Z</time>
      </trkpt>
      <trkpt lat="43.74022" lon="3.45659">
        <ele>718.5</ele>
        <time>2015-10-25T07:40:47Z</time>
      </trkpt>
      <trkpt lat="43.74024" lon="3.45658">
        <ele>718.5</ele>
        <time>2015-10-25T07:40:48Z</time>
      </trkpt>
      <trkpt lat="43.74026" lon="3.45658">
        <ele>719</ele>
        <time>2015-10-25T07:40:49Z</time>
      </trkpt>
      <trkpt lat="43.74028" lon="3.45656">
        <ele>720</ele>
        <time>2015-10-25T07:40:50Z</time>
      </trkpt>
      <trkpt lat="43.7403" lon="3.45656">
        <ele>720.5</ele>
        <time>2015-10-25T07:40:51Z</time>
      </trkpt>
      <trkpt lat="43.74033" lon="3.45656">
        <ele>721</ele>
        <time>2015-10-25T07:40:52Z</time>
      </trkpt>
      <trkpt lat="43.74036" lon="3.45656">
        <ele>721</ele>
        <time>2015-10-25T07:40:53Z</time>
      </trkpt>
      <trkpt lat="43.74038" lon="3.45654">
        <ele>722.5</ele>
        <time>2015-10-25T07:40:54Z</time>
      </trkpt>
      <trkpt lat="43.7404" lon="3.45653">
        <ele>723</ele>
        <time>2015-10-25T07:40:55Z</time>
      </trkpt>
      <trkpt lat="43.74042" lon="3.45653">
        <ele>723</ele>
        <time>2015-10-25T07:40:56Z</time>
      </trkpt>
      <trkpt lat="43.74045" lon="3.45652">
        <ele>723.5</ele>
        <time>2015-10-25T07:40:57Z</time>
      </trkpt>
      <trkpt lat="43.74047" lon="3.45651">
        <ele>723.5</ele>
        <time>2015-10-25T07:40:58Z</time>
      </trkpt>
      <trkpt lat="43.7405" lon="3.45651">
        <ele>723.5</ele>
        <time>2015-10-25T07:40:59Z</time>
      </trkpt>
      <trkpt lat="43.74053" lon="3.4565">
        <ele>723.5</ele>
        <time>2015-10-25T07:41:00Z</time>
      </trkpt>
      <trkpt lat="43.74056" lon="3.4565">
        <ele>723.5</ele>
        <time>2015-10-25T07:41:01Z</time>
      </trkpt>
      <trkpt lat="43.74059" lon="3.45649">
        <ele>724</ele>
        <time>2015-10-25T07:41:02Z</time>
      </trkpt>
      <trkpt lat="43.74061" lon="3.45648">
        <ele>724</ele>
        <time>2015-10-25T07:41:03Z</time>
      </trkpt>
      <trkpt lat="43.74064" lon="3.45648">
        <ele>724</ele>
        <time>2015-10-25T07:41:04Z</time>
      </trkpt>
      <trkpt lat="43.74066" lon="3.45647">
        <ele>724</ele>
        <time>2015-10-25T07:41:05Z</time>
      </trkpt>
      <trkpt lat="43.74069" lon="3.45646">
        <ele>724.5</ele>
        <time>2015-10-25T07:41:06Z</time>
      </trkpt>
      <trkpt lat="43.74071" lon="3.45645">
        <ele>724.5</ele>
        <time>2015-10-25T07:41:07Z</time>
      </trkpt>
      <trkpt lat="43.74074" lon="3.45645">
        <ele>725</ele>
        <time>2015-10-25T07:41:08Z</time>
      </trkpt>
      <trkpt lat="43.74076" lon="3.45644">
        <ele>725</ele>
        <time>2015-10-25T07:41:09Z</time>
      </trkpt>
      <trkpt lat="43.74079" lon="3.45644">
        <ele>725.5</ele>
        <time>2015-10-25T07:41:10Z</time>
      </trkpt>
      <trkpt lat="43.74081" lon="3.45643">
        <ele>725.5</ele>
        <time>2015-10-25T07:41:11Z</time>
      </trkpt>
      <trkpt lat="43.74084" lon="3.45642">
        <ele>725.5</ele>
        <time>2015-10-25T07:41:12Z</time>
      </trkpt>
      <trkpt lat="43.74087" lon="3.45642">
        <ele>726</ele>
        <time>2015-10-25T07:41:13Z</time>
      </trkpt>
      <trkpt lat="43.7409" lon="3.45641">
        <ele>726.5</ele>
        <time>2015-10-25T07:41:14Z</time>
      </trkpt>
      <trkpt lat="43.74092" lon="3.45641">
        <ele>727</ele>
        <time>2015-10-25T07:41:15Z</time>
      </trkpt>
      <trkpt lat="43.74094" lon="3.45641">
        <ele>727</ele>
        <time>2015-10-25T07:41:16Z</time>
      </trkpt>
      <trkpt lat="43.74097" lon="3.45641">
        <ele>727</ele>
        <time>2015-10-25T07:41:17Z</time>
      </trkpt>
      <trkpt lat="43.74099" lon="3.4564">
        <ele>728</ele>
        <time>2015-10-25T07:41:18Z</time>
      </trkpt>
      <trkpt lat="43.74101" lon="3.45639">
        <ele>728</ele>
        <time>2015-10-25T07:41:19Z</time>
      </trkpt>
      <trkpt lat="43.74103" lon="3.45639">
        <ele>728.5</ele>
        <time>2015-10-25T07:41:20Z</time>
      </trkpt>
      <trkpt lat="43.74106" lon="3.45639">
        <ele>728.5</ele>
        <time>2015-10-25T07:41:21Z</time>
      </trkpt>
      <trkpt lat="43.74108" lon="3.45639">
        <ele>728.5</ele>
        <time>2015-10-25T07:41:22Z</time>
      </trkpt>
      <trkpt lat="43.74111" lon="3.45639">
        <ele>728.5</ele>
        <time>2015-10-25T07:41:23Z</time>
      </trkpt>
      <trkpt lat="43.74113" lon="3.45639">
        <ele>728.5</ele>
        <time>2015-10-25T07:41:24Z</time>
      </trkpt>
      <trkpt lat="43.74116" lon="3.45639">
        <ele>728.5</ele>
        <time>2015-10-25T07:41:25Z</time>
      </trkpt>
      <trkpt lat="43.74118" lon="3.4564">
        <ele>728.5</ele>
        <time>2015-10-25T07:41:26Z</time>
      </trkpt>
      <trkpt lat="43.74121" lon="3.4564">
        <ele>728.5</ele>
        <time>2015-10-25T07:41:27Z</time>
      </trkpt>
      <trkpt lat="43.74124" lon="3.4564">
        <ele>728.5</ele>
        <time>2015-10-25T07:41:28Z</time>
      </trkpt>
      <trkpt lat="43.74126" lon="3.4564">
        <ele>728.5</ele>
        <time>2015-10-25T07:41:29Z</time>
      </trkpt>
      <trkpt lat="43.74129" lon="3.4564">
        <ele>728.5</ele>
        <time>2015-10-25T07:41:30Z</time>
      </trkpt>
      <trkpt lat="43.74131" lon="3.45639">
        <ele>729</ele>
        <time>2015-10-25T07:41:31Z</time>
      </trkpt>
      <trkpt lat="43.74134" lon="3.45639">
        <ele>729</ele>
        <time>2015-10-25T07:41:32Z</time>
      </trkpt>
      <trkpt lat="43.74137" lon="3.45638">
        <ele>729</ele>
        <time>2015-10-25T07:41:33Z</time>
      </trkpt>
      <trkpt lat="43.74139" lon="3.45638">
        <ele>729</ele>
        <time>2015-10-25T07:41:34Z</time>
      </trkpt>
      <trkpt lat="43.74142" lon="3.45637">
        <ele>729</ele>
        <time>2015-10-25T07:41:35Z</time>
      </trkpt>
      <trkpt lat="43.74144" lon="3.45637">
        <ele>729</ele>
        <time>2015-10-25T07:41:36Z</time>
      </trkpt>
      <trkpt lat="43.74147" lon="3.45637">
        <ele>729.5</ele>
        <time>2015-10-25T07:41:37Z</time>
      </trkpt>
      <trkpt lat="43.74149" lon="3.45637">
        <ele>729.5</ele>
        <time>2015-10-25T07:41:38Z</time>
      </trkpt>
      <trkpt lat="43.74151" lon="3.45637">
        <ele>729.5</ele>
        <time>2015-10-25T07:41:39Z</time>
      </trkpt>
      <trkpt lat="43.74154" lon="3.45636">
        <ele>729.5</ele>
        <time>2015-10-25T07:41:40Z</time>
      </trkpt>
      <trkpt lat="43.74156" lon="3.45636">
        <ele>729.5</ele>
        <time>2015-10-25T07:41:41Z</time>
      </trkpt>
      <trkpt lat="43.74159" lon="3.45635">
        <ele>729.5</ele>
        <time>2015-10-25T07:41:42Z</time>
      </trkpt>
      <trkpt lat="43.74161" lon="3.45635">
        <ele>729.5</ele>
        <time>2015-10-25T07:41:43Z</time>
      </trkpt>
      <trkpt lat="43.74162" lon="3.45633">
        <ele>729.5</ele>
        <time>2015-10-25T07:41:44Z</time>
      </trkpt>
      <trkpt lat="43.74165" lon="3.45633">
        <ele>729.5</ele>
        <time>2015-10-25T07:41:45Z</time>
      </trkpt>
      <trkpt lat="43.74167" lon="3.45632">
        <ele>729.5</ele>
        <time>2015-10-25T07:41:45Z</time>
      </trkpt>
      <trkpt lat="43.74169" lon="3.45632">
        <ele>730</ele>
        <time>2015-10-25T07:41:47Z</time>
      </trkpt>
      <trkpt lat="43.7417" lon="3.45631">
        <ele>730</ele>
        <time>2015-10-25T07:41:48Z</time>
      </trkpt>
      <trkpt lat="43.74176" lon="3.45632">
        <ele>730</ele>
        <time>2015-10-25T07:41:49Z</time>
      </trkpt>
      <trkpt lat="43.74178" lon="3.45632">
        <ele>730</ele>
        <time>2015-10-25T07:41:51Z</time>
      </trkpt>
      <trkpt lat="43.74182" lon="3.45634">
        <ele>730.5</ele>
        <time>2015-10-25T07:41:52Z</time>
      </trkpt>
      <trkpt lat="43.74185" lon="3.45635">
        <ele>730.5</ele>
        <time>2015-10-25T07:41:53Z</time>
      </trkpt>
      <trkpt lat="43.74187" lon="3.45636">
        <ele>731</ele>
        <time>2015-10-25T07:41:55Z</time>
      </trkpt>
      <trkpt lat="43.74189" lon="3.45637">
        <ele>731</ele>
        <time>2015-10-25T07:41:56Z</time>
      </trkpt>
      <trkpt lat="43.74191" lon="3.45638">
        <ele>731.5</ele>
        <time>2015-10-25T07:41:56Z</time>
      </trkpt>
      <trkpt lat="43.74197" lon="3.45642">
        <ele>731.5</ele>
        <time>2015-10-25T07:41:58Z</time>
      </trkpt>
      <trkpt lat="43.74199" lon="3.45643">
        <ele>731.5</ele>
        <time>2015-10-25T07:42:00Z</time>
      </trkpt>
      <trkpt lat="43.74202" lon="3.45645">
        <ele>731.5</ele>
        <time>2015-10-25T07:42:01Z</time>
      </trkpt>
      <trkpt lat="43.74204" lon="3.45647">
        <ele>731.5</ele>
        <time>2015-10-25T07:42:01Z</time>
      </trkpt>
      <trkpt lat="43.74206" lon="3.45648">
        <ele>731.5</ele>
        <time>2015-10-25T07:42:03Z</time>
      </trkpt>
      <trkpt lat="43.74208" lon="3.4565">
        <ele>731</ele>
        <time>2015-10-25T07:42:03Z</time>
      </trkpt>
      <trkpt lat="43.74211" lon="3.45651">
        <ele>731</ele>
        <time>2015-10-25T07:42:04Z</time>
      </trkpt>
      <trkpt lat="43.74213" lon="3.45653">
        <ele>731</ele>
        <time>2015-10-25T07:42:05Z</time>
      </trkpt>
      <trkpt lat="43.74216" lon="3.45655">
        <ele>731</ele>
        <time>2015-10-25T07:42:06Z</time>
      </trkpt>
      <trkpt lat="43.74218" lon="3.45656">
        <ele>731.5</ele>
        <time>2015-10-25T07:42:07Z</time>
      </trkpt>
      <trkpt lat="43.74221" lon="3.45657">
        <ele>731.5</ele>
        <time>2015-10-25T07:42:08Z</time>
      </trkpt>
      <trkpt lat="43.74223" lon="3.45658">
        <ele>731.5</ele>
        <time>2015-10-25T07:42:10Z</time>
      </trkpt>
      <trkpt lat="43.74225" lon="3.45659">
        <ele>731.5</ele>
        <time>2015-10-25T07:42:10Z</time>
      </trkpt>
      <trkpt lat="43.74227" lon="3.45661">
        <ele>731.5</ele>
        <time>2015-10-25T07:42:11Z</time>
      </trkpt>
      <trkpt lat="43.74228" lon="3.45662">
        <ele>731.5</ele>
        <time>2015-10-25T07:42:13Z</time>
      </trkpt>
      <trkpt lat="43.7423" lon="3.45665">
        <ele>731.5</ele>
        <time>2015-10-25T07:42:13Z</time>
      </trkpt>
      <trkpt lat="43.74232" lon="3.45668">
        <ele>732</ele>
        <time>2015-10-25T07:42:16Z</time>
      </trkpt>
      <trkpt lat="43.74235" lon="3.45672">
        <ele>732</ele>
        <time>2015-10-25T07:42:17Z</time>
      </trkpt>
      <trkpt lat="43.74238" lon="3.45674">
        <ele>732</ele>
        <time>2015-10-25T07:42:18Z</time>
      </trkpt>
      <trkpt lat="43.7424" lon="3.45678">
        <ele>732</ele>
        <time>2015-10-25T07:42:19Z</time>
      </trkpt>
      <trkpt lat="43.74243" lon="3.4568">
        <ele>732</ele>
        <time>2015-10-25T07:42:21Z</time>
      </trkpt>
      <trkpt lat="43.74245" lon="3.45684">
        <ele>732</ele>
        <time>2015-10-25T07:42:21Z</time>
      </trkpt>
      <trkpt lat="43.74246" lon="3.45687">
        <ele>732</ele>
        <time>2015-10-25T07:42:23Z</time>
      </trkpt>
      <trkpt lat="43.74247" lon="3.4569">
        <ele>732</ele>
        <time>2015-10-25T07:42:23Z</time>
      </trkpt>
      <trkpt lat="43.74248" lon="3.45692">
        <ele>732</ele>
        <time>2015-10-25T07:42:24Z</time>
      </trkpt>
      <trkpt lat="43.7425" lon="3.45694">
        <ele>732.5</ele>
        <time>2015-10-25T07:42:25Z</time>
      </trkpt>
      <trkpt lat="43.74251" lon="3.45697">
        <ele>732.5</ele>
        <time>2015-10-25T07:42:26Z</time>
      </trkpt>
      <trkpt lat="43.74253" lon="3.45699">
        <ele>732.5</ele>
        <time>2015-10-25T07:42:27Z</time>
      </trkpt>
      <trkpt lat="43.74255" lon="3.45702">
        <ele>732.5</ele>
        <time>2015-10-25T07:42:29Z</time>
      </trkpt>
      <trkpt lat="43.7426" lon="3.45705">
        <ele>733</ele>
        <time>2015-10-25T07:42:30Z</time>
      </trkpt>
      <trkpt lat="43.74262" lon="3.45707">
        <ele>733</ele>
        <time>2015-10-25T07:42:31Z</time>
      </trkpt>
      <trkpt lat="43.74263" lon="3.45709">
        <ele>733</ele>
        <time>2015-10-25T07:42:32Z</time>
      </trkpt>
      <trkpt lat="43.74266" lon="3.45711">
        <ele>733</ele>
        <time>2015-10-25T07:42:33Z</time>
      </trkpt>
      <trkpt lat="43.74267" lon="3.45708">
        <ele>734</ele>
        <time>2015-10-25T07:42:35Z</time>
      </trkpt>
      <trkpt lat="43.74269" lon="3.45708">
        <ele>734.5</ele>
        <time>2015-10-25T07:42:36Z</time>
      </trkpt>
      <trkpt lat="43.74277" lon="3.45711">
        <ele>734.5</ele>
        <time>2015-10-25T07:42:38Z</time>
      </trkpt>
      <trkpt lat="43.74277" lon="3.45718">
        <ele>735</ele>
        <time>2015-10-25T07:42:40Z</time>
      </trkpt>
      <trkpt lat="43.74277" lon="3.45722">
        <ele>735</ele>
        <time>2015-10-25T07:42:41Z</time>
      </trkpt>
      <trkpt lat="43.74278" lon="3.45724">
        <ele>735</ele>
        <time>2015-10-25T07:42:42Z</time>
      </trkpt>
      <trkpt lat="43.74279" lon="3.45727">
        <ele>735</ele>
        <time>2015-10-25T07:42:43Z</time>
      </trkpt>
      <trkpt lat="43.7428" lon="3.4573">
        <ele>735</ele>
        <time>2015-10-25T07:42:44Z</time>
      </trkpt>
      <trkpt lat="43.74281" lon="3.45734">
        <ele>735.5</ele>
        <time>2015-10-25T07:42:45Z</time>
      </trkpt>
      <trkpt lat="43.74284" lon="3.45738">
        <ele>735.5</ele>
        <time>2015-10-25T07:42:46Z</time>
      </trkpt>
      <trkpt lat="43.74285" lon="3.45741">
        <ele>735.5</ele>
        <time>2015-10-25T07:42:47Z</time>
      </trkpt>
      <trkpt lat="43.74287" lon="3.45743">
        <ele>735.5</ele>
        <time>2015-10-25T07:42:48Z</time>
      </trkpt>
      <trkpt lat="43.74289" lon="3.45746">
        <ele>735.5</ele>
        <time>2015-10-25T07:42:49Z</time>
      </trkpt>
      <trkpt lat="43.74291" lon="3.45749">
        <ele>735.5</ele>
        <time>2015-10-25T07:42:50Z</time>
      </trkpt>
      <trkpt lat="43.74293" lon="3.45752">
        <ele>736</ele>
        <time>2015-10-25T07:42:51Z</time>
      </trkpt>
      <trkpt lat="43.74295" lon="3.45755">
        <ele>736</ele>
        <time>2015-10-25T07:42:52Z</time>
      </trkpt>
      <trkpt lat="43.74298" lon="3.45758">
        <ele>736</ele>
        <time>2015-10-25T07:42:53Z</time>
      </trkpt>
      <trkpt lat="43.743" lon="3.4576">
        <ele>736</ele>
        <time>2015-10-25T07:42:54Z</time>
      </trkpt>
      <trkpt lat="43.74302" lon="3.45762">
        <ele>736</ele>
        <time>2015-10-25T07:42:55Z</time>
      </trkpt>
      <trkpt lat="43.74304" lon="3.45765">
        <ele>736</ele>
        <time>2015-10-25T07:42:56Z</time>
      </trkpt>
      <trkpt lat="43.74307" lon="3.45768">
        <ele>736</ele>
        <time>2015-10-25T07:42:57Z</time>
      </trkpt>
      <trkpt lat="43.7431" lon="3.4577">
        <ele>736</ele>
        <time>2015-10-25T07:42:58Z</time>
      </trkpt>
      <trkpt lat="43.74313" lon="3.45772">
        <ele>736</ele>
        <time>2015-10-25T07:42:59Z</time>
      </trkpt>
      <trkpt lat="43.74316" lon="3.45774">
        <ele>736</ele>
        <time>2015-10-25T07:43:00Z</time>
      </trkpt>
      <trkpt lat="43.74318" lon="3.45774">
        <ele>736</ele>
        <time>2015-10-25T07:43:02Z</time>
      </trkpt>
      <trkpt lat="43.7432" lon="3.45774">
        <ele>736</ele>
        <time>2015-10-25T07:43:03Z</time>
      </trkpt>
      <trkpt lat="43.74321" lon="3.45775">
        <ele>736</ele>
        <time>2015-10-25T07:43:04Z</time>
      </trkpt>
      <trkpt lat="43.74327" lon="3.4578">
        <ele>736</ele>
        <time>2015-10-25T07:43:06Z</time>
      </trkpt>
      <trkpt lat="43.74329" lon="3.45781">
        <ele>736.5</ele>
        <time>2015-10-25T07:43:07Z</time>
      </trkpt>
      <trkpt lat="43.74331" lon="3.45783">
        <ele>736.5</ele>
        <time>2015-10-25T07:43:08Z</time>
      </trkpt>
      <trkpt lat="43.74334" lon="3.45786">
        <ele>736.5</ele>
        <time>2015-10-25T07:43:09Z</time>
      </trkpt>
      <trkpt lat="43.74337" lon="3.4579">
        <ele>736.5</ele>
        <time>2015-10-25T07:43:10Z</time>
      </trkpt>
      <trkpt lat="43.74346" lon="3.45797">
        <ele>736.5</ele>
        <time>2015-10-25T07:43:12Z</time>
      </trkpt>
      <trkpt lat="43.74349" lon="3.458">
        <ele>736.5</ele>
        <time>2015-10-25T07:43:13Z</time>
      </trkpt>
      <trkpt lat="43.74353" lon="3.45803">
        <ele>736.5</ele>
        <time>2015-10-25T07:43:14Z</time>
      </trkpt>
      <trkpt lat="43.74356" lon="3.45805">
        <ele>736.5</ele>
        <time>2015-10-25T07:43:15Z</time>
      </trkpt>
      <trkpt lat="43.74359" lon="3.45807">
        <ele>736.5</ele>
        <time>2015-10-25T07:43:16Z</time>
      </trkpt>
      <trkpt lat="43.74361" lon="3.45809">
        <ele>736.5</ele>
        <time>2015-10-25T07:43:17Z</time>
      </trkpt>
      <trkpt lat="43.74363" lon="3.45809">
        <ele>736.5</ele>
        <time>2015-10-25T07:43:18Z</time>
      </trkpt>
      <trkpt lat="43.74366" lon="3.4581">
        <ele>736.5</ele>
        <time>2015-10-25T07:43:19Z</time>
      </trkpt>
      <trkpt lat="43.74369" lon="3.4581">
        <ele>736.5</ele>
        <time>2015-10-25T07:43:20Z</time>
      </trkpt>
      <trkpt lat="43.74371" lon="3.45811">
        <ele>736.5</ele>
        <time>2015-10-25T07:43:21Z</time>
      </trkpt>
      <trkpt lat="43.74374" lon="3.45811">
        <ele>736.5</ele>
        <time>2015-10-25T07:43:22Z</time>
      </trkpt>
      <trkpt lat="43.74377" lon="3.45811">
        <ele>736.5</ele>
        <time>2015-10-25T07:43:23Z</time>
      </trkpt>
      <trkpt lat="43.74381" lon="3.45812">
        <ele>736.5</ele>
        <time>2015-10-25T07:43:24Z</time>
      </trkpt>
      <trkpt lat="43.74384" lon="3.45813">
        <ele>736.5</ele>
        <time>2015-10-25T07:43:25Z</time>
      </trkpt>
      <trkpt lat="43.74387" lon="3.45815">
        <ele>736.5</ele>
        <time>2015-10-25T07:43:26Z</time>
      </trkpt>
      <trkpt lat="43.74389" lon="3.45816">
        <ele>736.5</ele>
        <time>2015-10-25T07:43:27Z</time>
      </trkpt>
      <trkpt lat="43.74391" lon="3.45816">
        <ele>736.5</ele>
        <time>2015-10-25T07:43:28Z</time>
      </trkpt>
      <trkpt lat="43.74394" lon="3.45816">
        <ele>736.5</ele>
        <time>2015-10-25T07:43:29Z</time>
      </trkpt>
      <trkpt lat="43.74397" lon="3.45816">
        <ele>736.5</ele>
        <time>2015-10-25T07:43:30Z</time>
      </trkpt>
      <trkpt lat="43.744" lon="3.45816">
        <ele>736.5</ele>
        <time>2015-10-25T07:43:31Z</time>
      </trkpt>
      <trkpt lat="43.74402" lon="3.45816">
        <ele>736.5</ele>
        <time>2015-10-25T07:43:32Z</time>
      </trkpt>
      <trkpt lat="43.74405" lon="3.45816">
        <ele>736.5</ele>
        <time>2015-10-25T07:43:33Z</time>
      </trkpt>
      <trkpt lat="43.74407" lon="3.45816">
        <ele>736.5</ele>
        <time>2015-10-25T07:43:34Z</time>
      </trkpt>
      <trkpt lat="43.74409" lon="3.45816">
        <ele>736.5</ele>
        <time>2015-10-25T07:43:35Z</time>
      </trkpt>
      <trkpt lat="43.74412" lon="3.45816">
        <ele>736.5</ele>
        <time>2015-10-25T07:43:36Z</time>
      </trkpt>
      <trkpt lat="43.74414" lon="3.45816">
        <ele>736.5</ele>
        <time>2015-10-25T07:43:37Z</time>
      </trkpt>
      <trkpt lat="43.74417" lon="3.45816">
        <ele>736.5</ele>
        <time>2015-10-25T07:43:38Z</time>
      </trkpt>
      <trkpt lat="43.74419" lon="3.45816">
        <ele>736.5</ele>
        <time>2015-10-25T07:43:39Z</time>
      </trkpt>
      <trkpt lat="43.74421" lon="3.45816">
        <ele>736.5</ele>
        <time>2015-10-25T07:43:40Z</time>
      </trkpt>
      <trkpt lat="43.74423" lon="3.45816">
        <ele>736.5</ele>
        <time>2015-10-25T07:43:41Z</time>
      </trkpt>
      <trkpt lat="43.74426" lon="3.45817">
        <ele>736.5</ele>
        <time>2015-10-25T07:43:42Z</time>
      </trkpt>
      <trkpt lat="43.74429" lon="3.45818">
        <ele>736.5</ele>
        <time>2015-10-25T07:43:43Z</time>
      </trkpt>
      <trkpt lat="43.74431" lon="3.45819">
        <ele>736.5</ele>
        <time>2015-10-25T07:43:44Z</time>
      </trkpt>
      <trkpt lat="43.74433" lon="3.4582">
        <ele>736.5</ele>
        <time>2015-10-25T07:43:45Z</time>
      </trkpt>
      <trkpt lat="43.74436" lon="3.45821">
        <ele>736.5</ele>
        <time>2015-10-25T07:43:46Z</time>
      </trkpt>
      <trkpt lat="43.74438" lon="3.45822">
        <ele>736.5</ele>
        <time>2015-10-25T07:43:47Z</time>
      </trkpt>
      <trkpt lat="43.7444" lon="3.45824">
        <ele>736.5</ele>
        <time>2015-10-25T07:43:48Z</time>
      </trkpt>
      <trkpt lat="43.74442" lon="3.45825">
        <ele>736.5</ele>
        <time>2015-10-25T07:43:49Z</time>
      </trkpt>
      <trkpt lat="43.74447" lon="3.45829">
        <ele>736.5</ele>
        <time>2015-10-25T07:43:51Z</time>
      </trkpt>
      <trkpt lat="43.7445" lon="3.4583">
        <ele>736.5</ele>
        <time>2015-10-25T07:43:52Z</time>
      </trkpt>
      <trkpt lat="43.74452" lon="3.45831">
        <ele>737</ele>
        <time>2015-10-25T07:43:53Z</time>
      </trkpt>
      <trkpt lat="43.74454" lon="3.45833">
        <ele>737</ele>
        <time>2015-10-25T07:43:54Z</time>
      </trkpt>
      <trkpt lat="43.74457" lon="3.45834">
        <ele>737</ele>
        <time>2015-10-25T07:43:55Z</time>
      </trkpt>
      <trkpt lat="43.74459" lon="3.45836">
        <ele>737</ele>
        <time>2015-10-25T07:43:56Z</time>
      </trkpt>
      <trkpt lat="43.74462" lon="3.45838">
        <ele>737</ele>
        <time>2015-10-25T07:43:57Z</time>
      </trkpt>
      <trkpt lat="43.74464" lon="3.4584">
        <ele>737</ele>
        <time>2015-10-25T07:43:58Z</time>
      </trkpt>
      <trkpt lat="43.74467" lon="3.45842">
        <ele>737</ele>
        <time>2015-10-25T07:43:59Z</time>
      </trkpt>
      <trkpt lat="43.74469" lon="3.45844">
        <ele>737</ele>
        <time>2015-10-25T07:44:00Z</time>
      </trkpt>
      <trkpt lat="43.74471" lon="3.45846">
        <ele>737</ele>
        <time>2015-10-25T07:44:01Z</time>
      </trkpt>
      <trkpt lat="43.74472" lon="3.45847">
        <ele>737</ele>
        <time>2015-10-25T07:44:02Z</time>
      </trkpt>
      <trkpt lat="43.74474" lon="3.45848">
        <ele>737</ele>
        <time>2015-10-25T07:44:03Z</time>
      </trkpt>
      <trkpt lat="43.74475" lon="3.45849">
        <ele>737</ele>
        <time>2015-10-25T07:44:04Z</time>
      </trkpt>
      <trkpt lat="43.74476" lon="3.4585">
        <ele>737</ele>
        <time>2015-10-25T07:44:05Z</time>
      </trkpt>
      <trkpt lat="43.74478" lon="3.45853">
        <ele>737</ele>
        <time>2015-10-25T07:44:06Z</time>
      </trkpt>
      <trkpt lat="43.74479" lon="3.45855">
        <ele>737</ele>
        <time>2015-10-25T07:44:07Z</time>
      </trkpt>
      <trkpt lat="43.7448" lon="3.45858">
        <ele>737</ele>
        <time>2015-10-25T07:44:08Z</time>
      </trkpt>
      <trkpt lat="43.74481" lon="3.4586">
        <ele>737</ele>
        <time>2015-10-25T07:44:09Z</time>
      </trkpt>
      <trkpt lat="43.74481" lon="3.45862">
        <ele>737</ele>
        <time>2015-10-25T07:44:10Z</time>
      </trkpt>
      <trkpt lat="43.74482" lon="3.45866">
        <ele>737</ele>
        <time>2015-10-25T07:44:11Z</time>
      </trkpt>
      <trkpt lat="43.74482" lon="3.45869">
        <ele>737</ele>
        <time>2015-10-25T07:44:12Z</time>
      </trkpt>
      <trkpt lat="43.74482" lon="3.45872">
        <ele>737</ele>
        <time>2015-10-25T07:44:13Z</time>
      </trkpt>
      <trkpt lat="43.74483" lon="3.45878">
        <ele>737.5</ele>
        <time>2015-10-25T07:44:15Z</time>
      </trkpt>
      <trkpt lat="43.74483" lon="3.45881">
        <ele>737.5</ele>
        <time>2015-10-25T07:44:16Z</time>
      </trkpt>
      <trkpt lat="43.74483" lon="3.45883">
        <ele>737</ele>
        <time>2015-10-25T07:44:17Z</time>
      </trkpt>
      <trkpt lat="43.74483" lon="3.45887">
        <ele>738</ele>
        <time>2015-10-25T07:44:18Z</time>
      </trkpt>
      <trkpt lat="43.74484" lon="3.4589">
        <ele>738</ele>
        <time>2015-10-25T07:44:19Z</time>
      </trkpt>
      <trkpt lat="43.74484" lon="3.45893">
        <ele>738</ele>
        <time>2015-10-25T07:44:20Z</time>
      </trkpt>
      <trkpt lat="43.74485" lon="3.45896">
        <ele>737.5</ele>
        <time>2015-10-25T07:44:21Z</time>
      </trkpt>
      <trkpt lat="43.74486" lon="3.459">
        <ele>738</ele>
        <time>2015-10-25T07:44:22Z</time>
      </trkpt>
      <trkpt lat="43.74487" lon="3.45906">
        <ele>739</ele>
        <time>2015-10-25T07:44:24Z</time>
      </trkpt>
      <trkpt lat="43.74488" lon="3.45909">
        <ele>739</ele>
        <time>2015-10-25T07:44:25Z</time>
      </trkpt>
      <trkpt lat="43.74488" lon="3.45912">
        <ele>739.5</ele>
        <time>2015-10-25T07:44:26Z</time>
      </trkpt>
      <trkpt lat="43.74489" lon="3.45915">
        <ele>740</ele>
        <time>2015-10-25T07:44:27Z</time>
      </trkpt>
      <trkpt lat="43.7449" lon="3.45918">
        <ele>740.5</ele>
        <time>2015-10-25T07:44:28Z</time>
      </trkpt>
      <trkpt lat="43.74491" lon="3.45922">
        <ele>741.5</ele>
        <time>2015-10-25T07:44:29Z</time>
      </trkpt>
      <trkpt lat="43.74492" lon="3.45925">
        <ele>741</ele>
        <time>2015-10-25T07:44:30Z</time>
      </trkpt>
      <trkpt lat="43.74493" lon="3.45928">
        <ele>741</ele>
        <time>2015-10-25T07:44:31Z</time>
      </trkpt>
      <trkpt lat="43.74495" lon="3.45932">
        <ele>742.5</ele>
        <time>2015-10-25T07:44:32Z</time>
      </trkpt>
      <trkpt lat="43.74497" lon="3.45936">
        <ele>744</ele>
        <time>2015-10-25T07:44:33Z</time>
      </trkpt>
      <trkpt lat="43.74497" lon="3.45939">
        <ele>743.5</ele>
        <time>2015-10-25T07:44:34Z</time>
      </trkpt>
      <trkpt lat="43.74499" lon="3.45942">
        <ele>744.5</ele>
        <time>2015-10-25T07:44:35Z</time>
      </trkpt>
      <trkpt lat="43.74499" lon="3.45945">
        <ele>745</ele>
        <time>2015-10-25T07:44:36Z</time>
      </trkpt>
      <trkpt lat="43.745" lon="3.45947">
        <ele>746</ele>
        <time>2015-10-25T07:44:37Z</time>
      </trkpt>
      <trkpt lat="43.74501" lon="3.4595">
        <ele>746.5</ele>
        <time>2015-10-25T07:44:38Z</time>
      </trkpt>
      <trkpt lat="43.74501" lon="3.45952">
        <ele>747</ele>
        <time>2015-10-25T07:44:39Z</time>
      </trkpt>
      <trkpt lat="43.74501" lon="3.45954">
        <ele>747</ele>
        <time>2015-10-25T07:44:40Z</time>
      </trkpt>
      <trkpt lat="43.74501" lon="3.45956">
        <ele>747.5</ele>
        <time>2015-10-25T07:44:41Z</time>
      </trkpt>
      <trkpt lat="43.745" lon="3.45958">
        <ele>747.5</ele>
        <time>2015-10-25T07:44:42Z</time>
      </trkpt>
      <trkpt lat="43.745" lon="3.4596">
        <ele>749</ele>
        <time>2015-10-25T07:44:43Z</time>
      </trkpt>
      <trkpt lat="43.74499" lon="3.45961">
        <ele>750</ele>
        <time>2015-10-25T07:44:44Z</time>
      </trkpt>
      <trkpt lat="43.74499" lon="3.45961">
        <ele>751</ele>
        <time>2015-10-25T07:44:45Z</time>
      </trkpt>
      <trkpt lat="43.74498" lon="3.45962">
        <ele>751</ele>
        <time>2015-10-25T07:44:46Z</time>
      </trkpt>
      <trkpt lat="43.74498" lon="3.45962">
        <ele>751.5</ele>
        <time>2015-10-25T07:44:47Z</time>
      </trkpt>
      <trkpt lat="43.74498" lon="3.45962">
        <ele>752</ele>
        <time>2015-10-25T07:44:48Z</time>
      </trkpt>
      <trkpt lat="43.74497" lon="3.45962">
        <ele>753</ele>
        <time>2015-10-25T07:44:49Z</time>
      </trkpt>
      <trkpt lat="43.74497" lon="3.45961">
        <ele>753</ele>
        <time>2015-10-25T07:44:50Z</time>
      </trkpt>
      <trkpt lat="43.74496" lon="3.45961">
        <ele>753.5</ele>
        <time>2015-10-25T07:44:51Z</time>
      </trkpt>
      <trkpt lat="43.74496" lon="3.45961">
        <ele>753.5</ele>
        <time>2015-10-25T07:44:52Z</time>
      </trkpt>
      <trkpt lat="43.74496" lon="3.45961">
        <ele>753.5</ele>
        <time>2015-10-25T07:44:53Z</time>
      </trkpt>
      <trkpt lat="43.74497" lon="3.45962">
        <ele>753.5</ele>
        <time>2015-10-25T07:44:55Z</time>
      </trkpt>
      <trkpt lat="43.74498" lon="3.45962">
        <ele>753.5</ele>
        <time>2015-10-25T07:44:57Z</time>
      </trkpt>
      <trkpt lat="43.74498" lon="3.45962">
        <ele>754</ele>
        <time>2015-10-25T07:44:58Z</time>
      </trkpt>
      <trkpt lat="43.745" lon="3.45962">
        <ele>755</ele>
        <time>2015-10-25T07:45:07Z</time>
      </trkpt>
      <trkpt lat="43.74497" lon="3.45963">
        <ele>755</ele>
        <time>2015-10-25T07:45:26Z</time>
      </trkpt>
      <trkpt lat="43.74496" lon="3.45962">
        <ele>756.5</ele>
        <time>2015-10-25T07:45:42Z</time>
      </trkpt>
      <trkpt lat="43.74496" lon="3.45962">
        <ele>756.5</ele>
        <time>2015-10-25T07:45:47Z</time>
      </trkpt>
      <trkpt lat="43.74495" lon="3.45959">
        <ele>758.5</ele>
        <time>2015-10-25T07:46:16Z</time>
      </trkpt>
      <trkpt lat="43.74495" lon="3.45958">
        <ele>757.5</ele>
        <time>2015-10-25T07:46:27Z</time>
      </trkpt>
      <trkpt lat="43.74494" lon="3.45961">
        <ele>757</ele>
        <time>2015-10-25T07:46:37Z</time>
      </trkpt>
      <trkpt lat="43.74494" lon="3.4596">
        <ele>757.5</ele>
        <time>2015-10-25T07:46:46Z</time>
      </trkpt>
      <trkpt lat="43.74494" lon="3.45961">
        <ele>758</ele>
        <time>2015-10-25T07:46:48Z</time>
      </trkpt>
      <trkpt lat="43.74493" lon="3.4596">
        <ele>758.5</ele>
        <time>2015-10-25T07:46:50Z</time>
      </trkpt>
      <trkpt lat="43.7449" lon="3.45959">
        <ele>760</ele>
        <time>2015-10-25T07:46:52Z</time>
      </trkpt>
      <trkpt lat="43.74489" lon="3.45957">
        <ele>761</ele>
        <time>2015-10-25T07:47:10Z</time>
      </trkpt>
      <trkpt lat="43.74488" lon="3.45956">
        <ele>761</ele>
        <time>2015-10-25T07:47:14Z</time>
      </trkpt>
      <trkpt lat="43.74489" lon="3.45956">
        <ele>761</ele>
        <time>2015-10-25T07:47:17Z</time>
      </trkpt>
      <trkpt lat="43.74489" lon="3.45956">
        <ele>761</ele>
        <time>2015-10-25T07:47:19Z</time>
      </trkpt>
      <trkpt lat="43.74493" lon="3.45955">
        <ele>761</ele>
        <time>2015-10-25T07:47:21Z</time>
      </trkpt>
      <trkpt lat="43.74494" lon="3.45955">
        <ele>761</ele>
        <time>2015-10-25T07:47:22Z</time>
      </trkpt>
      <trkpt lat="43.74495" lon="3.45956">
        <ele>760.5</ele>
        <time>2015-10-25T07:47:23Z</time>
      </trkpt>
      <trkpt lat="43.74497" lon="3.45956">
        <ele>761</ele>
        <time>2015-10-25T07:47:24Z</time>
      </trkpt>
      <trkpt lat="43.74498" lon="3.45957">
        <ele>760.5</ele>
        <time>2015-10-25T07:47:25Z</time>
      </trkpt>
      <trkpt lat="43.74498" lon="3.45959">
        <ele>760</ele>
        <time>2015-10-25T07:47:26Z</time>
      </trkpt>
      <trkpt lat="43.74498" lon="3.4596">
        <ele>760</ele>
        <time>2015-10-25T07:47:27Z</time>
      </trkpt>
      <trkpt lat="43.74499" lon="3.45962">
        <ele>760</ele>
        <time>2015-10-25T07:47:28Z</time>
      </trkpt>
      <trkpt lat="43.74499" lon="3.45963">
        <ele>760</ele>
        <time>2015-10-25T07:47:29Z</time>
      </trkpt>
      <trkpt lat="43.745" lon="3.45964">
        <ele>760</ele>
        <time>2015-10-25T07:47:30Z</time>
      </trkpt>
      <trkpt lat="43.74502" lon="3.45965">
        <ele>760</ele>
        <time>2015-10-25T07:47:31Z</time>
      </trkpt>
      <trkpt lat="43.74504" lon="3.45967">
        <ele>760.5</ele>
        <time>2015-10-25T07:47:32Z</time>
      </trkpt>
      <trkpt lat="43.74505" lon="3.45968">
        <ele>760.5</ele>
        <time>2015-10-25T07:47:33Z</time>
      </trkpt>
      <trkpt lat="43.74507" lon="3.45969">
        <ele>761</ele>
        <time>2015-10-25T07:47:34Z</time>
      </trkpt>
      <trkpt lat="43.74508" lon="3.45971">
        <ele>760.5</ele>
        <time>2015-10-25T07:47:35Z</time>
      </trkpt>
      <trkpt lat="43.7451" lon="3.45972">
        <ele>760.5</ele>
        <time>2015-10-25T07:47:36Z</time>
      </trkpt>
      <trkpt lat="43.74511" lon="3.45975">
        <ele>759</ele>
        <time>2015-10-25T07:47:37Z</time>
      </trkpt>
      <trkpt lat="43.74513" lon="3.45978">
        <ele>759</ele>
        <time>2015-10-25T07:47:38Z</time>
      </trkpt>
      <trkpt lat="43.74515" lon="3.4598">
        <ele>758.5</ele>
        <time>2015-10-25T07:47:39Z</time>
      </trkpt>
      <trkpt lat="43.74517" lon="3.45983">
        <ele>758.5</ele>
        <time>2015-10-25T07:47:40Z</time>
      </trkpt>
      <trkpt lat="43.74518" lon="3.45986">
        <ele>758</ele>
        <time>2015-10-25T07:47:41Z</time>
      </trkpt>
      <trkpt lat="43.7452" lon="3.45989">
        <ele>757.5</ele>
        <time>2015-10-25T07:47:42Z</time>
      </trkpt>
      <trkpt lat="43.74521" lon="3.45992">
        <ele>757.5</ele>
        <time>2015-10-25T07:47:43Z</time>
      </trkpt>
      <trkpt lat="43.74523" lon="3.45994">
        <ele>758</ele>
        <time>2015-10-25T07:47:44Z</time>
      </trkpt>
      <trkpt lat="43.74524" lon="3.45996">
        <ele>758</ele>
        <time>2015-10-25T07:47:45Z</time>
      </trkpt>
      <trkpt lat="43.74525" lon="3.45999">
        <ele>757</ele>
        <time>2015-10-25T07:47:46Z</time>
      </trkpt>
      <trkpt lat="43.74526" lon="3.46002">
        <ele>757</ele>
        <time>2015-10-25T07:47:47Z</time>
      </trkpt>
      <trkpt lat="43.74527" lon="3.46004">
        <ele>757</ele>
        <time>2015-10-25T07:47:48Z</time>
      </trkpt>
      <trkpt lat="43.74529" lon="3.46006">
        <ele>757</ele>
        <time>2015-10-25T07:47:49Z</time>
      </trkpt>
      <trkpt lat="43.7453" lon="3.46007">
        <ele>756.5</ele>
        <time>2015-10-25T07:47:49Z</time>
      </trkpt>
      <trkpt lat="43.74532" lon="3.46008">
        <ele>756.5</ele>
        <time>2015-10-25T07:47:51Z</time>
      </trkpt>
      <trkpt lat="43.74534" lon="3.46012">
        <ele>756.5</ele>
        <time>2015-10-25T07:47:52Z</time>
      </trkpt>
      <trkpt lat="43.74535" lon="3.46015">
        <ele>758.5</ele>
        <time>2015-10-25T07:47:53Z</time>
      </trkpt>
      <trkpt lat="43.7454" lon="3.4602">
        <ele>758.5</ele>
        <time>2015-10-25T07:47:56Z</time>
      </trkpt>
      <trkpt lat="43.7454" lon="3.46021">
        <ele>758.5</ele>
        <time>2015-10-25T07:47:56Z</time>
      </trkpt>
      <trkpt lat="43.74542" lon="3.46023">
        <ele>758.5</ele>
        <time>2015-10-25T07:47:57Z</time>
      </trkpt>
      <trkpt lat="43.74544" lon="3.46025">
        <ele>760.5</ele>
        <time>2015-10-25T07:47:58Z</time>
      </trkpt>
      <trkpt lat="43.74546" lon="3.46028">
        <ele>760</ele>
        <time>2015-10-25T07:48:00Z</time>
      </trkpt>
      <trkpt lat="43.74548" lon="3.46031">
        <ele>761.5</ele>
        <time>2015-10-25T07:48:01Z</time>
      </trkpt>
      <trkpt lat="43.74547" lon="3.46028">
        <ele>762</ele>
        <time>2015-10-25T07:48:02Z</time>
      </trkpt>
      <trkpt lat="43.74548" lon="3.4603">
        <ele>762.5</ele>
        <time>2015-10-25T07:48:05Z</time>
      </trkpt>
      <trkpt lat="43.74548" lon="3.4603">
        <ele>762.5</ele>
        <time>2015-10-25T07:48:05Z</time>
      </trkpt>
      <trkpt lat="43.74552" lon="3.46037">
        <ele>764</ele>
        <time>2015-10-25T07:48:07Z</time>
      </trkpt>
      <trkpt lat="43.74554" lon="3.46041">
        <ele>765.5</ele>
        <time>2015-10-25T07:48:09Z</time>
      </trkpt>
      <trkpt lat="43.74556" lon="3.46045">
        <ele>767</ele>
        <time>2015-10-25T07:48:09Z</time>
      </trkpt>
      <trkpt lat="43.74558" lon="3.46048">
        <ele>768</ele>
        <time>2015-10-25T07:48:10Z</time>
      </trkpt>
      <trkpt lat="43.74559" lon="3.46051">
        <ele>769</ele>
        <time>2015-10-25T07:48:11Z</time>
      </trkpt>
      <trkpt lat="43.74561" lon="3.46054">
        <ele>769.5</ele>
        <time>2015-10-25T07:48:12Z</time>
      </trkpt>
      <trkpt lat="43.74562" lon="3.46057">
        <ele>769.5</ele>
        <time>2015-10-25T07:48:14Z</time>
      </trkpt>
      <trkpt lat="43.74563" lon="3.46059">
        <ele>770.5</ele>
        <time>2015-10-25T07:48:14Z</time>
      </trkpt>
      <trkpt lat="43.74565" lon="3.46062">
        <ele>771</ele>
        <time>2015-10-25T07:48:15Z</time>
      </trkpt>
      <trkpt lat="43.74569" lon="3.4607">
        <ele>769.5</ele>
        <time>2015-10-25T07:48:17Z</time>
      </trkpt>
      <trkpt lat="43.74571" lon="3.46074">
        <ele>768.5</ele>
        <time>2015-10-25T07:48:18Z</time>
      </trkpt>
      <trkpt lat="43.74572" lon="3.46077">
        <ele>769</ele>
        <time>2015-10-25T07:48:19Z</time>
      </trkpt>
      <trkpt lat="43.74573" lon="3.46078">
        <ele>771</ele>
        <time>2015-10-25T07:48:20Z</time>
      </trkpt>
      <trkpt lat="43.74575" lon="3.4608">
        <ele>772.5</ele>
        <time>2015-10-25T07:48:21Z</time>
      </trkpt>
      <trkpt lat="43.74576" lon="3.46083">
        <ele>773</ele>
        <time>2015-10-25T07:48:22Z</time>
      </trkpt>
      <trkpt lat="43.74578" lon="3.46086">
        <ele>775</ele>
        <time>2015-10-25T07:48:23Z</time>
      </trkpt>
      <trkpt lat="43.74582" lon="3.46094">
        <ele>774.5</ele>
        <time>2015-10-25T07:48:25Z</time>
      </trkpt>
      <trkpt lat="43.74588" lon="3.46106">
        <ele>766.5</ele>
        <time>2015-10-25T07:48:27Z</time>
      </trkpt>
      <trkpt lat="43.74593" lon="3.46114">
        <ele>768.5</ele>
        <time>2015-10-25T07:48:29Z</time>
      </trkpt>
      <trkpt lat="43.74595" lon="3.46118">
        <ele>768.5</ele>
        <time>2015-10-25T07:48:30Z</time>
      </trkpt>
      <trkpt lat="43.74597" lon="3.4612">
        <ele>769.5</ele>
        <time>2015-10-25T07:48:31Z</time>
      </trkpt>
      <trkpt lat="43.74598" lon="3.46122">
        <ele>769.5</ele>
        <time>2015-10-25T07:48:32Z</time>
      </trkpt>
      <trkpt lat="43.74603" lon="3.46131">
        <ele>768.5</ele>
        <time>2015-10-25T07:48:34Z</time>
      </trkpt>
      <trkpt lat="43.74609" lon="3.4614">
        <ele>769</ele>
        <time>2015-10-25T07:48:36Z</time>
      </trkpt>
      <trkpt lat="43.7461" lon="3.46143">
        <ele>769</ele>
        <time>2015-10-25T07:48:37Z</time>
      </trkpt>
      <trkpt lat="43.74612" lon="3.46145">
        <ele>770.5</ele>
        <time>2015-10-25T07:48:38Z</time>
      </trkpt>
      <trkpt lat="43.74614" lon="3.46148">
        <ele>771.5</ele>
        <time>2015-10-25T07:48:39Z</time>
      </trkpt>
      <trkpt lat="43.74617" lon="3.46152">
        <ele>772</ele>
        <time>2015-10-25T07:48:40Z</time>
      </trkpt>
      <trkpt lat="43.7462" lon="3.46153">
        <ele>772</ele>
        <time>2015-10-25T07:48:41Z</time>
      </trkpt>
      <trkpt lat="43.7462" lon="3.46156">
        <ele>772</ele>
        <time>2015-10-25T07:48:42Z</time>
      </trkpt>
      <trkpt lat="43.74621" lon="3.46158">
        <ele>772</ele>
        <time>2015-10-25T07:48:43Z</time>
      </trkpt>
      <trkpt lat="43.74622" lon="3.4616">
        <ele>772</ele>
        <time>2015-10-25T07:48:44Z</time>
      </trkpt>
      <trkpt lat="43.74623" lon="3.46163">
        <ele>772</ele>
        <time>2015-10-25T07:48:45Z</time>
      </trkpt>
      <trkpt lat="43.74624" lon="3.46165">
        <ele>772</ele>
        <time>2015-10-25T07:48:46Z</time>
      </trkpt>
      <trkpt lat="43.74625" lon="3.46166">
        <ele>772</ele>
        <time>2015-10-25T07:48:47Z</time>
      </trkpt>
      <trkpt lat="43.74626" lon="3.46168">
        <ele>772.5</ele>
        <time>2015-10-25T07:48:48Z</time>
      </trkpt>
      <trkpt lat="43.74627" lon="3.46169">
        <ele>773</ele>
        <time>2015-10-25T07:48:49Z</time>
      </trkpt>
      <trkpt lat="43.74627" lon="3.4617">
        <ele>773</ele>
        <time>2015-10-25T07:48:50Z</time>
      </trkpt>
      <trkpt lat="43.74629" lon="3.46172">
        <ele>773</ele>
        <time>2015-10-25T07:48:51Z</time>
      </trkpt>
      <trkpt lat="43.74631" lon="3.46174">
        <ele>772</ele>
        <time>2015-10-25T07:48:52Z</time>
      </trkpt>
      <trkpt lat="43.74633" lon="3.46176">
        <ele>771</ele>
        <time>2015-10-25T07:48:53Z</time>
      </trkpt>
      <trkpt lat="43.74634" lon="3.46178">
        <ele>772</ele>
        <time>2015-10-25T07:48:54Z</time>
      </trkpt>
      <trkpt lat="43.74635" lon="3.46179">
        <ele>772.5</ele>
        <time>2015-10-25T07:48:55Z</time>
      </trkpt>
      <trkpt lat="43.74637" lon="3.4618">
        <ele>772.5</ele>
        <time>2015-10-25T07:48:56Z</time>
      </trkpt>
      <trkpt lat="43.74638" lon="3.46182">
        <ele>771.5</ele>
        <time>2015-10-25T07:48:57Z</time>
      </trkpt>
      <trkpt lat="43.7464" lon="3.46184">
        <ele>771.5</ele>
        <time>2015-10-25T07:48:58Z</time>
      </trkpt>
      <trkpt lat="43.74642" lon="3.46185">
        <ele>771.5</ele>
        <time>2015-10-25T07:48:59Z</time>
      </trkpt>
      <trkpt lat="43.74645" lon="3.46187">
        <ele>771</ele>
        <time>2015-10-25T07:49:00Z</time>
      </trkpt>
      <trkpt lat="43.74648" lon="3.46189">
        <ele>769.5</ele>
        <time>2015-10-25T07:49:01Z</time>
      </trkpt>
      <trkpt lat="43.7465" lon="3.4619">
        <ele>769.5</ele>
        <time>2015-10-25T07:49:02Z</time>
      </trkpt>
      <trkpt lat="43.74653" lon="3.46192">
        <ele>768.5</ele>
        <time>2015-10-25T07:49:03Z</time>
      </trkpt>
      <trkpt lat="43.74656" lon="3.46193">
        <ele>768</ele>
        <time>2015-10-25T07:49:04Z</time>
      </trkpt>
      <trkpt lat="43.74658" lon="3.46194">
        <ele>768</ele>
        <time>2015-10-25T07:49:05Z</time>
      </trkpt>
      <trkpt lat="43.7466" lon="3.46194">
        <ele>768</ele>
        <time>2015-10-25T07:49:06Z</time>
      </trkpt>
      <trkpt lat="43.74662" lon="3.46194">
        <ele>767.5</ele>
        <time>2015-10-25T07:49:07Z</time>
      </trkpt>
      <trkpt lat="43.74663" lon="3.46194">
        <ele>767.5</ele>
        <time>2015-10-25T07:49:08Z</time>
      </trkpt>
      <trkpt lat="43.74664" lon="3.46194">
        <ele>768</ele>
        <time>2015-10-25T07:49:09Z</time>
      </trkpt>
      <trkpt lat="43.7467" lon="3.46196">
        <ele>766.5</ele>
        <time>2015-10-25T07:49:11Z</time>
      </trkpt>
      <trkpt lat="43.74672" lon="3.46196">
        <ele>767</ele>
        <time>2015-10-25T07:49:12Z</time>
      </trkpt>
      <trkpt lat="43.74675" lon="3.46197">
        <ele>767</ele>
        <time>2015-10-25T07:49:13Z</time>
      </trkpt>
      <trkpt lat="43.74678" lon="3.46198">
        <ele>766</ele>
        <time>2015-10-25T07:49:14Z</time>
      </trkpt>
      <trkpt lat="43.7468" lon="3.46199">
        <ele>766</ele>
        <time>2015-10-25T07:49:15Z</time>
      </trkpt>
      <trkpt lat="43.74682" lon="3.46199">
        <ele>766.5</ele>
        <time>2015-10-25T07:49:16Z</time>
      </trkpt>
      <trkpt lat="43.74685" lon="3.462">
        <ele>766.5</ele>
        <time>2015-10-25T07:49:17Z</time>
      </trkpt>
      <trkpt lat="43.74687" lon="3.46201">
        <ele>765.5</ele>
        <time>2015-10-25T07:49:18Z</time>
      </trkpt>
      <trkpt lat="43.74689" lon="3.46201">
        <ele>765.5</ele>
        <time>2015-10-25T07:49:19Z</time>
      </trkpt>
      <trkpt lat="43.7469" lon="3.46201">
        <ele>766</ele>
        <time>2015-10-25T07:49:20Z</time>
      </trkpt>
      <trkpt lat="43.74692" lon="3.46201">
        <ele>765</ele>
        <time>2015-10-25T07:49:21Z</time>
      </trkpt>
      <trkpt lat="43.74693" lon="3.46202">
        <ele>764</ele>
        <time>2015-10-25T07:49:22Z</time>
      </trkpt>
      <trkpt lat="43.74695" lon="3.46201">
        <ele>764</ele>
        <time>2015-10-25T07:49:23Z</time>
      </trkpt>
      <trkpt lat="43.74697" lon="3.46202">
        <ele>765</ele>
        <time>2015-10-25T07:49:24Z</time>
      </trkpt>
      <trkpt lat="43.74698" lon="3.46201">
        <ele>764.5</ele>
        <time>2015-10-25T07:49:25Z</time>
      </trkpt>
      <trkpt lat="43.74699" lon="3.46201">
        <ele>765</ele>
        <time>2015-10-25T07:49:26Z</time>
      </trkpt>
      <trkpt lat="43.74701" lon="3.46201">
        <ele>765</ele>
        <time>2015-10-25T07:49:27Z</time>
      </trkpt>
      <trkpt lat="43.74703" lon="3.46203">
        <ele>765</ele>
        <time>2015-10-25T07:49:28Z</time>
      </trkpt>
      <trkpt lat="43.74705" lon="3.46202">
        <ele>765</ele>
        <time>2015-10-25T07:49:29Z</time>
      </trkpt>
      <trkpt lat="43.74707" lon="3.46203">
        <ele>766.5</ele>
        <time>2015-10-25T07:49:30Z</time>
      </trkpt>
      <trkpt lat="43.7471" lon="3.46204">
        <ele>767</ele>
        <time>2015-10-25T07:49:31Z</time>
      </trkpt>
      <trkpt lat="43.74712" lon="3.46205">
        <ele>767.5</ele>
        <time>2015-10-25T07:49:32Z</time>
      </trkpt>
      <trkpt lat="43.74714" lon="3.46205">
        <ele>766</ele>
        <time>2015-10-25T07:49:33Z</time>
      </trkpt>
      <trkpt lat="43.74716" lon="3.46205">
        <ele>765</ele>
        <time>2015-10-25T07:49:34Z</time>
      </trkpt>
      <trkpt lat="43.74718" lon="3.46206">
        <ele>766.5</ele>
        <time>2015-10-25T07:49:35Z</time>
      </trkpt>
      <trkpt lat="43.7472" lon="3.46207">
        <ele>766</ele>
        <time>2015-10-25T07:49:36Z</time>
      </trkpt>
      <trkpt lat="43.74722" lon="3.46208">
        <ele>765.5</ele>
        <time>2015-10-25T07:49:37Z</time>
      </trkpt>
      <trkpt lat="43.74725" lon="3.46209">
        <ele>766.5</ele>
        <time>2015-10-25T07:49:38Z</time>
      </trkpt>
      <trkpt lat="43.74727" lon="3.46211">
        <ele>766.5</ele>
        <time>2015-10-25T07:49:39Z</time>
      </trkpt>
      <trkpt lat="43.7473" lon="3.46213">
        <ele>768</ele>
        <time>2015-10-25T07:49:40Z</time>
      </trkpt>
      <trkpt lat="43.74736" lon="3.46215">
        <ele>771</ele>
        <time>2015-10-25T07:49:42Z</time>
      </trkpt>
      <trkpt lat="43.74738" lon="3.46216">
        <ele>769.5</ele>
        <time>2015-10-25T07:49:43Z</time>
      </trkpt>
      <trkpt lat="43.7474" lon="3.46216">
        <ele>769</ele>
        <time>2015-10-25T07:49:44Z</time>
      </trkpt>
      <trkpt lat="43.74741" lon="3.46216">
        <ele>768.5</ele>
        <time>2015-10-25T07:49:45Z</time>
      </trkpt>
      <trkpt lat="43.74743" lon="3.46217">
        <ele>767.5</ele>
        <time>2015-10-25T07:49:46Z</time>
      </trkpt>
      <trkpt lat="43.74746" lon="3.46218">
        <ele>767.5</ele>
        <time>2015-10-25T07:49:47Z</time>
      </trkpt>
      <trkpt lat="43.74749" lon="3.46219">
        <ele>768</ele>
        <time>2015-10-25T07:49:48Z</time>
      </trkpt>
      <trkpt lat="43.74752" lon="3.46221">
        <ele>769.5</ele>
        <time>2015-10-25T07:49:49Z</time>
      </trkpt>
      <trkpt lat="43.74755" lon="3.46223">
        <ele>769.5</ele>
        <time>2015-10-25T07:49:50Z</time>
      </trkpt>
      <trkpt lat="43.74757" lon="3.46224">
        <ele>769.5</ele>
        <time>2015-10-25T07:49:51Z</time>
      </trkpt>
      <trkpt lat="43.74758" lon="3.46224">
        <ele>769</ele>
        <time>2015-10-25T07:49:52Z</time>
      </trkpt>
      <trkpt lat="43.74761" lon="3.46226">
        <ele>768</ele>
        <time>2015-10-25T07:49:53Z</time>
      </trkpt>
      <trkpt lat="43.74762" lon="3.46226">
        <ele>766.5</ele>
        <time>2015-10-25T07:49:54Z</time>
      </trkpt>
      <trkpt lat="43.74764" lon="3.46226">
        <ele>767</ele>
        <time>2015-10-25T07:49:55Z</time>
      </trkpt>
      <trkpt lat="43.74765" lon="3.46225">
        <ele>766.5</ele>
        <time>2015-10-25T07:49:56Z</time>
      </trkpt>
      <trkpt lat="43.74766" lon="3.46225">
        <ele>766</ele>
        <time>2015-10-25T07:49:57Z</time>
      </trkpt>
      <trkpt lat="43.74768" lon="3.46225">
        <ele>765</ele>
        <time>2015-10-25T07:49:58Z</time>
      </trkpt>
      <trkpt lat="43.74769" lon="3.46225">
        <ele>765</ele>
        <time>2015-10-25T07:49:59Z</time>
      </trkpt>
      <trkpt lat="43.7477" lon="3.46226">
        <ele>764</ele>
        <time>2015-10-25T07:50:00Z</time>
      </trkpt>
      <trkpt lat="43.74771" lon="3.46226">
        <ele>764.5</ele>
        <time>2015-10-25T07:50:01Z</time>
      </trkpt>
      <trkpt lat="43.74773" lon="3.46227">
        <ele>764</ele>
        <time>2015-10-25T07:50:02Z</time>
      </trkpt>
      <trkpt lat="43.74775" lon="3.46228">
        <ele>764.5</ele>
        <time>2015-10-25T07:50:03Z</time>
      </trkpt>
      <trkpt lat="43.74779" lon="3.46229">
        <ele>765</ele>
        <time>2015-10-25T07:50:05Z</time>
      </trkpt>
      <trkpt lat="43.74781" lon="3.4623">
        <ele>765</ele>
        <time>2015-10-25T07:50:06Z</time>
      </trkpt>
      <trkpt lat="43.74784" lon="3.4623">
        <ele>765</ele>
        <time>2015-10-25T07:50:07Z</time>
      </trkpt>
      <trkpt lat="43.74786" lon="3.46231">
        <ele>765</ele>
        <time>2015-10-25T07:50:08Z</time>
      </trkpt>
      <trkpt lat="43.74788" lon="3.46232">
        <ele>764</ele>
        <time>2015-10-25T07:50:09Z</time>
      </trkpt>
      <trkpt lat="43.74789" lon="3.46231">
        <ele>764</ele>
        <time>2015-10-25T07:50:10Z</time>
      </trkpt>
      <trkpt lat="43.74792" lon="3.46232">
        <ele>764.5</ele>
        <time>2015-10-25T07:50:11Z</time>
      </trkpt>
      <trkpt lat="43.74793" lon="3.46231">
        <ele>764.5</ele>
        <time>2015-10-25T07:50:12Z</time>
      </trkpt>
      <trkpt lat="43.74795" lon="3.46231">
        <ele>763</ele>
        <time>2015-10-25T07:50:13Z</time>
      </trkpt>
      <trkpt lat="43.74796" lon="3.46231">
        <ele>763</ele>
        <time>2015-10-25T07:50:14Z</time>
      </trkpt>
      <trkpt lat="43.74799" lon="3.46232">
        <ele>763</ele>
        <time>2015-10-25T07:50:15Z</time>
      </trkpt>
      <trkpt lat="43.74802" lon="3.46234">
        <ele>764.5</ele>
        <time>2015-10-25T07:50:16Z</time>
      </trkpt>
      <trkpt lat="43.74803" lon="3.46234">
        <ele>763.5</ele>
        <time>2015-10-25T07:50:17Z</time>
      </trkpt>
      <trkpt lat="43.74805" lon="3.46235">
        <ele>764.5</ele>
        <time>2015-10-25T07:50:18Z</time>
      </trkpt>
      <trkpt lat="43.7481" lon="3.46236">
        <ele>768</ele>
        <time>2015-10-25T07:50:20Z</time>
      </trkpt>
      <trkpt lat="43.74812" lon="3.46238">
        <ele>767.5</ele>
        <time>2015-10-25T07:50:21Z</time>
      </trkpt>
      <trkpt lat="43.74814" lon="3.46239">
        <ele>767</ele>
        <time>2015-10-25T07:50:22Z</time>
      </trkpt>
      <trkpt lat="43.74816" lon="3.4624">
        <ele>767</ele>
        <time>2015-10-25T07:50:23Z</time>
      </trkpt>
      <trkpt lat="43.74817" lon="3.46242">
        <ele>766.5</ele>
        <time>2015-10-25T07:50:24Z</time>
      </trkpt>
      <trkpt lat="43.74819" lon="3.46244">
        <ele>765</ele>
        <time>2015-10-25T07:50:25Z</time>
      </trkpt>
      <trkpt lat="43.74825" lon="3.46249">
        <ele>767</ele>
        <time>2015-10-25T07:50:27Z</time>
      </trkpt>
      <trkpt lat="43.74826" lon="3.46249">
        <ele>767.5</ele>
        <time>2015-10-25T07:50:28Z</time>
      </trkpt>
      <trkpt lat="43.74827" lon="3.4625">
        <ele>768</ele>
        <time>2015-10-25T07:50:29Z</time>
      </trkpt>
      <trkpt lat="43.74829" lon="3.46251">
        <ele>769.5</ele>
        <time>2015-10-25T07:50:30Z</time>
      </trkpt>
      <trkpt lat="43.7483" lon="3.46252">
        <ele>770</ele>
        <time>2015-10-25T07:50:31Z</time>
      </trkpt>
      <trkpt lat="43.7483" lon="3.46253">
        <ele>770</ele>
        <time>2015-10-25T07:50:32Z</time>
      </trkpt>
      <trkpt lat="43.74832" lon="3.46254">
        <ele>769.5</ele>
        <time>2015-10-25T07:50:33Z</time>
      </trkpt>
      <trkpt lat="43.74833" lon="3.46256">
        <ele>770</ele>
        <time>2015-10-25T07:50:34Z</time>
      </trkpt>
      <trkpt lat="43.74834" lon="3.46257">
        <ele>770</ele>
        <time>2015-10-25T07:50:35Z</time>
      </trkpt>
      <trkpt lat="43.74836" lon="3.46258">
        <ele>770</ele>
        <time>2015-10-25T07:50:36Z</time>
      </trkpt>
      <trkpt lat="43.74838" lon="3.4626">
        <ele>769.5</ele>
        <time>2015-10-25T07:50:37Z</time>
      </trkpt>
      <trkpt lat="43.74844" lon="3.46266">
        <ele>770.5</ele>
        <time>2015-10-25T07:50:39Z</time>
      </trkpt>
      <trkpt lat="43.74846" lon="3.46267">
        <ele>771.5</ele>
        <time>2015-10-25T07:50:40Z</time>
      </trkpt>
      <trkpt lat="43.74847" lon="3.46268">
        <ele>773</ele>
        <time>2015-10-25T07:50:41Z</time>
      </trkpt>
      <trkpt lat="43.74849" lon="3.4627">
        <ele>772</ele>
        <time>2015-10-25T07:50:42Z</time>
      </trkpt>
      <trkpt lat="43.74853" lon="3.46275">
        <ele>772.5</ele>
        <time>2015-10-25T07:50:44Z</time>
      </trkpt>
      <trkpt lat="43.74855" lon="3.46277">
        <ele>773.5</ele>
        <time>2015-10-25T07:50:45Z</time>
      </trkpt>
      <trkpt lat="43.74858" lon="3.4628">
        <ele>773</ele>
        <time>2015-10-25T07:50:46Z</time>
      </trkpt>
      <trkpt lat="43.7486" lon="3.46282">
        <ele>772.5</ele>
        <time>2015-10-25T07:50:47Z</time>
      </trkpt>
      <trkpt lat="43.74863" lon="3.46284">
        <ele>771.5</ele>
        <time>2015-10-25T07:50:48Z</time>
      </trkpt>
      <trkpt lat="43.74866" lon="3.46286">
        <ele>769.5</ele>
        <time>2015-10-25T07:50:49Z</time>
      </trkpt>
      <trkpt lat="43.74868" lon="3.46285">
        <ele>769.5</ele>
        <time>2015-10-25T07:50:50Z</time>
      </trkpt>
      <trkpt lat="43.7487" lon="3.46284">
        <ele>768.5</ele>
        <time>2015-10-25T07:50:51Z</time>
      </trkpt>
      <trkpt lat="43.74874" lon="3.46283">
        <ele>766.5</ele>
        <time>2015-10-25T07:50:52Z</time>
      </trkpt>
      <trkpt lat="43.74878" lon="3.46284">
        <ele>764.5</ele>
        <time>2015-10-25T07:50:53Z</time>
      </trkpt>
      <trkpt lat="43.74881" lon="3.46284">
        <ele>764</ele>
        <time>2015-10-25T07:50:54Z</time>
      </trkpt>
      <trkpt lat="43.74885" lon="3.46285">
        <ele>765</ele>
        <time>2015-10-25T07:50:55Z</time>
      </trkpt>
      <trkpt lat="43.74889" lon="3.46287">
        <ele>765</ele>
        <time>2015-10-25T07:50:56Z</time>
      </trkpt>
      <trkpt lat="43.74893" lon="3.4629">
        <ele>765.5</ele>
        <time>2015-10-25T07:50:57Z</time>
      </trkpt>
      <trkpt lat="43.74896" lon="3.46292">
        <ele>764.5</ele>
        <time>2015-10-25T07:50:58Z</time>
      </trkpt>
      <trkpt lat="43.749" lon="3.46294">
        <ele>764.5</ele>
        <time>2015-10-25T07:50:59Z</time>
      </trkpt>
      <trkpt lat="43.74907" lon="3.46299">
        <ele>765.5</ele>
        <time>2015-10-25T07:51:01Z</time>
      </trkpt>
      <trkpt lat="43.7491" lon="3.46302">
        <ele>764.5</ele>
        <time>2015-10-25T07:51:02Z</time>
      </trkpt>
      <trkpt lat="43.74912" lon="3.46304">
        <ele>764</ele>
        <time>2015-10-25T07:51:03Z</time>
      </trkpt>
      <trkpt lat="43.74915" lon="3.46306">
        <ele>763.5</ele>
        <time>2015-10-25T07:51:04Z</time>
      </trkpt>
      <trkpt lat="43.74919" lon="3.46309">
        <ele>762.5</ele>
        <time>2015-10-25T07:51:05Z</time>
      </trkpt>
      <trkpt lat="43.74922" lon="3.46313">
        <ele>761.5</ele>
        <time>2015-10-25T07:51:06Z</time>
      </trkpt>
      <trkpt lat="43.7493" lon="3.46318">
        <ele>761</ele>
        <time>2015-10-25T07:51:08Z</time>
      </trkpt>
      <trkpt lat="43.74933" lon="3.46321">
        <ele>761</ele>
        <time>2015-10-25T07:51:09Z</time>
      </trkpt>
      <trkpt lat="43.74936" lon="3.46324">
        <ele>760.5</ele>
        <time>2015-10-25T07:51:10Z</time>
      </trkpt>
      <trkpt lat="43.74938" lon="3.46326">
        <ele>760.5</ele>
        <time>2015-10-25T07:51:11Z</time>
      </trkpt>
      <trkpt lat="43.74942" lon="3.46329">
        <ele>761</ele>
        <time>2015-10-25T07:51:12Z</time>
      </trkpt>
      <trkpt lat="43.74945" lon="3.4633">
        <ele>762</ele>
        <time>2015-10-25T07:51:13Z</time>
      </trkpt>
      <trkpt lat="43.74949" lon="3.46333">
        <ele>762.5</ele>
        <time>2015-10-25T07:51:14Z</time>
      </trkpt>
      <trkpt lat="43.74952" lon="3.46335">
        <ele>761.5</ele>
        <time>2015-10-25T07:51:15Z</time>
      </trkpt>
      <trkpt lat="43.74958" lon="3.46338">
        <ele>762.5</ele>
        <time>2015-10-25T07:51:17Z</time>
      </trkpt>
      <trkpt lat="43.74961" lon="3.46339">
        <ele>762.5</ele>
        <time>2015-10-25T07:51:18Z</time>
      </trkpt>
      <trkpt lat="43.74965" lon="3.46341">
        <ele>762.5</ele>
        <time>2015-10-25T07:51:19Z</time>
      </trkpt>
      <trkpt lat="43.74968" lon="3.46344">
        <ele>762.5</ele>
        <time>2015-10-25T07:51:20Z</time>
      </trkpt>
      <trkpt lat="43.74972" lon="3.46346">
        <ele>761</ele>
        <time>2015-10-25T07:51:21Z</time>
      </trkpt>
      <trkpt lat="43.74975" lon="3.46347">
        <ele>761</ele>
        <time>2015-10-25T07:51:22Z</time>
      </trkpt>
      <trkpt lat="43.74979" lon="3.46349">
        <ele>760.5</ele>
        <time>2015-10-25T07:51:23Z</time>
      </trkpt>
      <trkpt lat="43.74982" lon="3.4635">
        <ele>761</ele>
        <time>2015-10-25T07:51:24Z</time>
      </trkpt>
      <trkpt lat="43.74989" lon="3.46351">
        <ele>763</ele>
        <time>2015-10-25T07:51:26Z</time>
      </trkpt>
      <trkpt lat="43.74992" lon="3.46353">
        <ele>763</ele>
        <time>2015-10-25T07:51:27Z</time>
      </trkpt>
      <trkpt lat="43.74996" lon="3.46355">
        <ele>763</ele>
        <time>2015-10-25T07:51:28Z</time>
      </trkpt>
      <trkpt lat="43.74999" lon="3.46355">
        <ele>763</ele>
        <time>2015-10-25T07:51:29Z</time>
      </trkpt>
      <trkpt lat="43.75003" lon="3.46356">
        <ele>763.5</ele>
        <time>2015-10-25T07:51:30Z</time>
      </trkpt>
      <trkpt lat="43.75006" lon="3.46358">
        <ele>763.5</ele>
        <time>2015-10-25T07:51:31Z</time>
      </trkpt>
      <trkpt lat="43.75012" lon="3.46361">
        <ele>764</ele>
        <time>2015-10-25T07:51:33Z</time>
      </trkpt>
      <trkpt lat="43.75015" lon="3.46362">
        <ele>764</ele>
        <time>2015-10-25T07:51:34Z</time>
      </trkpt>
      <trkpt lat="43.75019" lon="3.46363">
        <ele>764.5</ele>
        <time>2015-10-25T07:51:35Z</time>
      </trkpt>
      <trkpt lat="43.75023" lon="3.46365">
        <ele>763</ele>
        <time>2015-10-25T07:51:36Z</time>
      </trkpt>
      <trkpt lat="43.75027" lon="3.46364">
        <ele>763</ele>
        <time>2015-10-25T07:51:37Z</time>
      </trkpt>
      <trkpt lat="43.75031" lon="3.46363">
        <ele>763.5</ele>
        <time>2015-10-25T07:51:38Z</time>
      </trkpt>
      <trkpt lat="43.75035" lon="3.46362">
        <ele>762.5</ele>
        <time>2015-10-25T07:51:39Z</time>
      </trkpt>
      <trkpt lat="43.75039" lon="3.46359">
        <ele>763</ele>
        <time>2015-10-25T07:51:40Z</time>
      </trkpt>
      <trkpt lat="43.75043" lon="3.46356">
        <ele>763.5</ele>
        <time>2015-10-25T07:51:41Z</time>
      </trkpt>
      <trkpt lat="43.75045" lon="3.46351">
        <ele>763.5</ele>
        <time>2015-10-25T07:51:42Z</time>
      </trkpt>
      <trkpt lat="43.75048" lon="3.46346">
        <ele>763.5</ele>
        <time>2015-10-25T07:51:43Z</time>
      </trkpt>
      <trkpt lat="43.75051" lon="3.46343">
        <ele>763</ele>
        <time>2015-10-25T07:51:44Z</time>
      </trkpt>
      <trkpt lat="43.75054" lon="3.46338">
        <ele>763</ele>
        <time>2015-10-25T07:51:45Z</time>
      </trkpt>
      <trkpt lat="43.75059" lon="3.46334">
        <ele>763</ele>
        <time>2015-10-25T07:51:46Z</time>
      </trkpt>
      <trkpt lat="43.7507" lon="3.46332">
        <ele>763</ele>
        <time>2015-10-25T07:51:48Z</time>
      </trkpt>
      <trkpt lat="43.75076" lon="3.46333">
        <ele>762.5</ele>
        <time>2015-10-25T07:51:49Z</time>
      </trkpt>
      <trkpt lat="43.75081" lon="3.46334">
        <ele>762.5</ele>
        <time>2015-10-25T07:51:50Z</time>
      </trkpt>
      <trkpt lat="43.75086" lon="3.46336">
        <ele>763.5</ele>
        <time>2015-10-25T07:51:51Z</time>
      </trkpt>
      <trkpt lat="43.75096" lon="3.46342">
        <ele>763.5</ele>
        <time>2015-10-25T07:51:53Z</time>
      </trkpt>
      <trkpt lat="43.751" lon="3.46345">
        <ele>763.5</ele>
        <time>2015-10-25T07:51:54Z</time>
      </trkpt>
      <trkpt lat="43.75104" lon="3.46348">
        <ele>763.5</ele>
        <time>2015-10-25T07:51:55Z</time>
      </trkpt>
      <trkpt lat="43.75108" lon="3.46351">
        <ele>763.5</ele>
        <time>2015-10-25T07:51:55Z</time>
      </trkpt>
      <trkpt lat="43.75112" lon="3.46355">
        <ele>763</ele>
        <time>2015-10-25T07:51:57Z</time>
      </trkpt>
      <trkpt lat="43.75115" lon="3.46358">
        <ele>763</ele>
        <time>2015-10-25T07:51:57Z</time>
      </trkpt>
      <trkpt lat="43.7512" lon="3.46361">
        <ele>762.5</ele>
        <time>2015-10-25T07:51:59Z</time>
      </trkpt>
      <trkpt lat="43.75125" lon="3.46365">
        <ele>761.5</ele>
        <time>2015-10-25T07:51:59Z</time>
      </trkpt>
      <trkpt lat="43.75129" lon="3.46367">
        <ele>761.5</ele>
        <time>2015-10-25T07:52:00Z</time>
      </trkpt>
      <trkpt lat="43.75134" lon="3.46368">
        <ele>762.5</ele>
        <time>2015-10-25T07:52:01Z</time>
      </trkpt>
      <trkpt lat="43.75138" lon="3.46369">
        <ele>762</ele>
        <time>2015-10-25T07:52:02Z</time>
      </trkpt>
      <trkpt lat="43.75142" lon="3.46371">
        <ele>762</ele>
        <time>2015-10-25T07:52:03Z</time>
      </trkpt>
      <trkpt lat="43.75146" lon="3.46373">
        <ele>761</ele>
        <time>2015-10-25T07:52:04Z</time>
      </trkpt>
      <trkpt lat="43.7515" lon="3.46374">
        <ele>761.5</ele>
        <time>2015-10-25T07:52:05Z</time>
      </trkpt>
      <trkpt lat="43.75155" lon="3.46376">
        <ele>761.5</ele>
        <time>2015-10-25T07:52:06Z</time>
      </trkpt>
      <trkpt lat="43.7516" lon="3.46378">
        <ele>761.5</ele>
        <time>2015-10-25T07:52:07Z</time>
      </trkpt>
      <trkpt lat="43.75164" lon="3.46379">
        <ele>761.5</ele>
        <time>2015-10-25T07:52:09Z</time>
      </trkpt>
      <trkpt lat="43.75168" lon="3.4638">
        <ele>761</ele>
        <time>2015-10-25T07:52:10Z</time>
      </trkpt>
      <trkpt lat="43.75173" lon="3.46382">
        <ele>760.5</ele>
        <time>2015-10-25T07:52:11Z</time>
      </trkpt>
      <trkpt lat="43.75185" lon="3.46388">
        <ele>757.5</ele>
        <time>2015-10-25T07:52:12Z</time>
      </trkpt>
      <trkpt lat="43.7519" lon="3.4639">
        <ele>756</ele>
        <time>2015-10-25T07:52:13Z</time>
      </trkpt>
      <trkpt lat="43.75196" lon="3.46393">
        <ele>754.5</ele>
        <time>2015-10-25T07:52:15Z</time>
      </trkpt>
      <trkpt lat="43.75201" lon="3.46394">
        <ele>754.5</ele>
        <time>2015-10-25T07:52:16Z</time>
      </trkpt>
      <trkpt lat="43.75207" lon="3.46395">
        <ele>755.5</ele>
        <time>2015-10-25T07:52:16Z</time>
      </trkpt>
      <trkpt lat="43.75211" lon="3.46397">
        <ele>755.5</ele>
        <time>2015-10-25T07:52:17Z</time>
      </trkpt>
      <trkpt lat="43.75215" lon="3.46398">
        <ele>756</ele>
        <time>2015-10-25T07:52:18Z</time>
      </trkpt>
      <trkpt lat="43.75219" lon="3.464">
        <ele>755</ele>
        <time>2015-10-25T07:52:19Z</time>
      </trkpt>
      <trkpt lat="43.75223" lon="3.46401">
        <ele>755.5</ele>
        <time>2015-10-25T07:52:20Z</time>
      </trkpt>
      <trkpt lat="43.75227" lon="3.46402">
        <ele>755.5</ele>
        <time>2015-10-25T07:52:21Z</time>
      </trkpt>
      <trkpt lat="43.75232" lon="3.46405">
        <ele>754</ele>
        <time>2015-10-25T07:52:22Z</time>
      </trkpt>
      <trkpt lat="43.75239" lon="3.4641">
        <ele>754</ele>
        <time>2015-10-25T07:52:24Z</time>
      </trkpt>
      <trkpt lat="43.75242" lon="3.46412">
        <ele>754.5</ele>
        <time>2015-10-25T07:52:25Z</time>
      </trkpt>
      <trkpt lat="43.75244" lon="3.46414">
        <ele>754.5</ele>
        <time>2015-10-25T07:52:27Z</time>
      </trkpt>
      <trkpt lat="43.75248" lon="3.46423">
        <ele>754</ele>
        <time>2015-10-25T07:52:28Z</time>
      </trkpt>
      <trkpt lat="43.7525" lon="3.46429">
        <ele>753.5</ele>
        <time>2015-10-25T07:52:29Z</time>
      </trkpt>
      <trkpt lat="43.75252" lon="3.46436">
        <ele>753</ele>
        <time>2015-10-25T07:52:30Z</time>
      </trkpt>
      <trkpt lat="43.75253" lon="3.46443">
        <ele>752.5</ele>
        <time>2015-10-25T07:52:31Z</time>
      </trkpt>
      <trkpt lat="43.75254" lon="3.4645">
        <ele>752</ele>
        <time>2015-10-25T07:52:32Z</time>
      </trkpt>
      <trkpt lat="43.75255" lon="3.46457">
        <ele>750.5</ele>
        <time>2015-10-25T07:52:33Z</time>
      </trkpt>
      <trkpt lat="43.75257" lon="3.46465">
        <ele>750</ele>
        <time>2015-10-25T07:52:34Z</time>
      </trkpt>
      <trkpt lat="43.75258" lon="3.46473">
        <ele>749</ele>
        <time>2015-10-25T07:52:35Z</time>
      </trkpt>
      <trkpt lat="43.7526" lon="3.4648">
        <ele>748</ele>
        <time>2015-10-25T07:52:36Z</time>
      </trkpt>
      <trkpt lat="43.75261" lon="3.46488">
        <ele>748</ele>
        <time>2015-10-25T07:52:37Z</time>
      </trkpt>
      <trkpt lat="43.75262" lon="3.46496">
        <ele>747.5</ele>
        <time>2015-10-25T07:52:38Z</time>
      </trkpt>
      <trkpt lat="43.75264" lon="3.46504">
        <ele>747.5</ele>
        <time>2015-10-25T07:52:39Z</time>
      </trkpt>
      <trkpt lat="43.75265" lon="3.46512">
        <ele>747</ele>
        <time>2015-10-25T07:52:40Z</time>
      </trkpt>
      <trkpt lat="43.75266" lon="3.4652">
        <ele>747</ele>
        <time>2015-10-25T07:52:41Z</time>
      </trkpt>
      <trkpt lat="43.75267" lon="3.46527">
        <ele>747</ele>
        <time>2015-10-25T07:52:42Z</time>
      </trkpt>
      <trkpt lat="43.75269" lon="3.46534">
        <ele>747.5</ele>
        <time>2015-10-25T07:52:43Z</time>
      </trkpt>
      <trkpt lat="43.7527" lon="3.46541">
        <ele>748</ele>
        <time>2015-10-25T07:52:44Z</time>
      </trkpt>
      <trkpt lat="43.75272" lon="3.46548">
        <ele>748</ele>
        <time>2015-10-25T07:52:45Z</time>
      </trkpt>
      <trkpt lat="43.75273" lon="3.46554">
        <ele>748.5</ele>
        <time>2015-10-25T07:52:46Z</time>
      </trkpt>
      <trkpt lat="43.75274" lon="3.4656">
        <ele>748.5</ele>
        <time>2015-10-25T07:52:47Z</time>
      </trkpt>
      <trkpt lat="43.75275" lon="3.46566">
        <ele>748.5</ele>
        <time>2015-10-25T07:52:48Z</time>
      </trkpt>
      <trkpt lat="43.75276" lon="3.46571">
        <ele>749</ele>
        <time>2015-10-25T07:52:49Z</time>
      </trkpt>
      <trkpt lat="43.75277" lon="3.46577">
        <ele>750</ele>
        <time>2015-10-25T07:52:50Z</time>
      </trkpt>
      <trkpt lat="43.75277" lon="3.46582">
        <ele>749.5</ele>
        <time>2015-10-25T07:52:51Z</time>
      </trkpt>
      <trkpt lat="43.75278" lon="3.46586">
        <ele>749.5</ele>
        <time>2015-10-25T07:52:52Z</time>
      </trkpt>
      <trkpt lat="43.75278" lon="3.46591">
        <ele>749.5</ele>
        <time>2015-10-25T07:52:53Z</time>
      </trkpt>
      <trkpt lat="43.75279" lon="3.46595">
        <ele>750</ele>
        <time>2015-10-25T07:52:54Z</time>
      </trkpt>
      <trkpt lat="43.75279" lon="3.46599">
        <ele>750.5</ele>
        <time>2015-10-25T07:52:55Z</time>
      </trkpt>
      <trkpt lat="43.7528" lon="3.46603">
        <ele>753</ele>
        <time>2015-10-25T07:52:56Z</time>
      </trkpt>
      <trkpt lat="43.7528" lon="3.46608">
        <ele>753.5</ele>
        <time>2015-10-25T07:52:57Z</time>
      </trkpt>
      <trkpt lat="43.75281" lon="3.46612">
        <ele>753.5</ele>
        <time>2015-10-25T07:52:58Z</time>
      </trkpt>
      <trkpt lat="43.75282" lon="3.46617">
        <ele>753.5</ele>
        <time>2015-10-25T07:52:59Z</time>
      </trkpt>
      <trkpt lat="43.75282" lon="3.46621">
        <ele>754</ele>
        <time>2015-10-25T07:53:00Z</time>
      </trkpt>
      <trkpt lat="43.75282" lon="3.46626">
        <ele>754</ele>
        <time>2015-10-25T07:53:01Z</time>
      </trkpt>
      <trkpt lat="43.75283" lon="3.46631">
        <ele>754.5</ele>
        <time>2015-10-25T07:53:02Z</time>
      </trkpt>
      <trkpt lat="43.75284" lon="3.46635">
        <ele>755</ele>
        <time>2015-10-25T07:53:03Z</time>
      </trkpt>
      <trkpt lat="43.75285" lon="3.4664">
        <ele>755</ele>
        <time>2015-10-25T07:53:04Z</time>
      </trkpt>
      <trkpt lat="43.75285" lon="3.46645">
        <ele>754.5</ele>
        <time>2015-10-25T07:53:05Z</time>
      </trkpt>
      <trkpt lat="43.75286" lon="3.46651">
        <ele>754</ele>
        <time>2015-10-25T07:53:06Z</time>
      </trkpt>
      <trkpt lat="43.75286" lon="3.46658">
        <ele>752</ele>
        <time>2015-10-25T07:53:07Z</time>
      </trkpt>
      <trkpt lat="43.7529" lon="3.46665">
        <ele>750.5</ele>
        <time>2015-10-25T07:53:08Z</time>
      </trkpt>
      <trkpt lat="43.75292" lon="3.46674">
        <ele>750</ele>
        <time>2015-10-25T07:53:09Z</time>
      </trkpt>
      <trkpt lat="43.75294" lon="3.46685">
        <ele>750</ele>
        <time>2015-10-25T07:53:10Z</time>
      </trkpt>
      <trkpt lat="43.75296" lon="3.46696">
        <ele>749</ele>
        <time>2015-10-25T07:53:11Z</time>
      </trkpt>
      <trkpt lat="43.75299" lon="3.46707">
        <ele>749</ele>
        <time>2015-10-25T07:53:12Z</time>
      </trkpt>
      <trkpt lat="43.753" lon="3.46718">
        <ele>748.5</ele>
        <time>2015-10-25T07:53:13Z</time>
      </trkpt>
      <trkpt lat="43.75302" lon="3.4673">
        <ele>748.5</ele>
        <time>2015-10-25T07:53:14Z</time>
      </trkpt>
      <trkpt lat="43.75303" lon="3.46741">
        <ele>748.5</ele>
        <time>2015-10-25T07:53:15Z</time>
      </trkpt>
      <trkpt lat="43.75305" lon="3.46753">
        <ele>748.5</ele>
        <time>2015-10-25T07:53:16Z</time>
      </trkpt>
      <trkpt lat="43.75305" lon="3.46764">
        <ele>747.5</ele>
        <time>2015-10-25T07:53:17Z</time>
      </trkpt>
      <trkpt lat="43.75306" lon="3.46777">
        <ele>747.5</ele>
        <time>2015-10-25T07:53:18Z</time>
      </trkpt>
      <trkpt lat="43.75307" lon="3.46789">
        <ele>747.5</ele>
        <time>2015-10-25T07:53:19Z</time>
      </trkpt>
      <trkpt lat="43.75308" lon="3.46814">
        <ele>746.5</ele>
        <time>2015-10-25T07:53:21Z</time>
      </trkpt>
      <trkpt lat="43.75308" lon="3.46827">
        <ele>746</ele>
        <time>2015-10-25T07:53:22Z</time>
      </trkpt>
      <trkpt lat="43.7531" lon="3.46842">
        <ele>747.5</ele>
        <time>2015-10-25T07:53:23Z</time>
      </trkpt>
      <trkpt lat="43.75314" lon="3.46854">
        <ele>747.5</ele>
        <time>2015-10-25T07:53:24Z</time>
      </trkpt>
      <trkpt lat="43.75311" lon="3.46868">
        <ele>747.5</ele>
        <time>2015-10-25T07:53:25Z</time>
      </trkpt>
      <trkpt lat="43.75311" lon="3.46882">
        <ele>748.5</ele>
        <time>2015-10-25T07:53:26Z</time>
      </trkpt>
      <trkpt lat="43.75312" lon="3.46895">
        <ele>749</ele>
        <time>2015-10-25T07:53:27Z</time>
      </trkpt>
      <trkpt lat="43.75312" lon="3.46909">
        <ele>749</ele>
        <time>2015-10-25T07:53:28Z</time>
      </trkpt>
      <trkpt lat="43.75312" lon="3.46922">
        <ele>749</ele>
        <time>2015-10-25T07:53:29Z</time>
      </trkpt>
      <trkpt lat="43.75313" lon="3.46935">
        <ele>748.5</ele>
        <time>2015-10-25T07:53:30Z</time>
      </trkpt>
      <trkpt lat="43.75313" lon="3.46948">
        <ele>748.5</ele>
        <time>2015-10-25T07:53:31Z</time>
      </trkpt>
      <trkpt lat="43.75313" lon="3.46962">
        <ele>749</ele>
        <time>2015-10-25T07:53:32Z</time>
      </trkpt>
      <trkpt lat="43.75313" lon="3.46975">
        <ele>748</ele>
        <time>2015-10-25T07:53:33Z</time>
      </trkpt>
      <trkpt lat="43.75314" lon="3.46988">
        <ele>747</ele>
        <time>2015-10-25T07:53:34Z</time>
      </trkpt>
      <trkpt lat="43.75314" lon="3.47001">
        <ele>746</ele>
        <time>2015-10-25T07:53:35Z</time>
      </trkpt>
      <trkpt lat="43.75314" lon="3.47014">
        <ele>745</ele>
        <time>2015-10-25T07:53:36Z</time>
      </trkpt>
      <trkpt lat="43.75314" lon="3.47027">
        <ele>745</ele>
        <time>2015-10-25T07:53:37Z</time>
      </trkpt>
      <trkpt lat="43.75315" lon="3.4704">
        <ele>745</ele>
        <time>2015-10-25T07:53:38Z</time>
      </trkpt>
      <trkpt lat="43.75315" lon="3.47053">
        <ele>744.5</ele>
        <time>2015-10-25T07:53:39Z</time>
      </trkpt>
      <trkpt lat="43.75315" lon="3.47066">
        <ele>743.5</ele>
        <time>2015-10-25T07:53:40Z</time>
      </trkpt>
      <trkpt lat="43.75316" lon="3.47079">
        <ele>742.5</ele>
        <time>2015-10-25T07:53:41Z</time>
      </trkpt>
      <trkpt lat="43.75316" lon="3.47092">
        <ele>741.5</ele>
        <time>2015-10-25T07:53:42Z</time>
      </trkpt>
      <trkpt lat="43.75316" lon="3.47105">
        <ele>742</ele>
        <time>2015-10-25T07:53:43Z</time>
      </trkpt>
      <trkpt lat="43.75317" lon="3.47119">
        <ele>741</ele>
        <time>2015-10-25T07:53:44Z</time>
      </trkpt>
      <trkpt lat="43.75317" lon="3.47131">
        <ele>740.5</ele>
        <time>2015-10-25T07:53:45Z</time>
      </trkpt>
      <trkpt lat="43.75318" lon="3.47143">
        <ele>739.5</ele>
        <time>2015-10-25T07:53:46Z</time>
      </trkpt>
      <trkpt lat="43.75318" lon="3.47155">
        <ele>739</ele>
        <time>2015-10-25T07:53:47Z</time>
      </trkpt>
      <trkpt lat="43.75318" lon="3.47167">
        <ele>739</ele>
        <time>2015-10-25T07:53:48Z</time>
      </trkpt>
      <trkpt lat="43.75318" lon="3.47178">
        <ele>738.5</ele>
        <time>2015-10-25T07:53:49Z</time>
      </trkpt>
      <trkpt lat="43.75318" lon="3.47189">
        <ele>738</ele>
        <time>2015-10-25T07:53:50Z</time>
      </trkpt>
      <trkpt lat="43.75318" lon="3.47211">
        <ele>737.5</ele>
        <time>2015-10-25T07:53:52Z</time>
      </trkpt>
      <trkpt lat="43.75319" lon="3.47222">
        <ele>737</ele>
        <time>2015-10-25T07:53:53Z</time>
      </trkpt>
      <trkpt lat="43.75319" lon="3.47233">
        <ele>737</ele>
        <time>2015-10-25T07:53:54Z</time>
      </trkpt>
      <trkpt lat="43.75319" lon="3.47244">
        <ele>736.5</ele>
        <time>2015-10-25T07:53:55Z</time>
      </trkpt>
      <trkpt lat="43.75319" lon="3.47254">
        <ele>736</ele>
        <time>2015-10-25T07:53:56Z</time>
      </trkpt>
      <trkpt lat="43.75319" lon="3.47264">
        <ele>736</ele>
        <time>2015-10-25T07:53:57Z</time>
      </trkpt>
      <trkpt lat="43.75319" lon="3.47274">
        <ele>735.5</ele>
        <time>2015-10-25T07:53:58Z</time>
      </trkpt>
      <trkpt lat="43.7532" lon="3.47284">
        <ele>735</ele>
        <time>2015-10-25T07:53:59Z</time>
      </trkpt>
      <trkpt lat="43.7532" lon="3.47294">
        <ele>735</ele>
        <time>2015-10-25T07:54:00Z</time>
      </trkpt>
      <trkpt lat="43.7532" lon="3.47304">
        <ele>734.5</ele>
        <time>2015-10-25T07:54:01Z</time>
      </trkpt>
      <trkpt lat="43.7532" lon="3.47313">
        <ele>734.5</ele>
        <time>2015-10-25T07:54:02Z</time>
      </trkpt>
      <trkpt lat="43.75321" lon="3.47323">
        <ele>734.5</ele>
        <time>2015-10-25T07:54:03Z</time>
      </trkpt>
      <trkpt lat="43.75321" lon="3.47332">
        <ele>734</ele>
        <time>2015-10-25T07:54:04Z</time>
      </trkpt>
      <trkpt lat="43.75321" lon="3.47342">
        <ele>734</ele>
        <time>2015-10-25T07:54:05Z</time>
      </trkpt>
      <trkpt lat="43.75321" lon="3.47352">
        <ele>733.5</ele>
        <time>2015-10-25T07:54:06Z</time>
      </trkpt>
      <trkpt lat="43.7532" lon="3.47361">
        <ele>733.5</ele>
        <time>2015-10-25T07:54:07Z</time>
      </trkpt>
      <trkpt lat="43.7532" lon="3.47371">
        <ele>734</ele>
        <time>2015-10-25T07:54:08Z</time>
      </trkpt>
      <trkpt lat="43.7532" lon="3.47391">
        <ele>733.5</ele>
        <time>2015-10-25T07:54:10Z</time>
      </trkpt>
      <trkpt lat="43.75321" lon="3.474">
        <ele>733.5</ele>
        <time>2015-10-25T07:54:11Z</time>
      </trkpt>
      <trkpt lat="43.75321" lon="3.4741">
        <ele>733.5</ele>
        <time>2015-10-25T07:54:12Z</time>
      </trkpt>
      <trkpt lat="43.75321" lon="3.4742">
        <ele>733</ele>
        <time>2015-10-25T07:54:13Z</time>
      </trkpt>
      <trkpt lat="43.75321" lon="3.47439">
        <ele>732</ele>
        <time>2015-10-25T07:54:15Z</time>
      </trkpt>
      <trkpt lat="43.75321" lon="3.47449">
        <ele>731.5</ele>
        <time>2015-10-25T07:54:16Z</time>
      </trkpt>
      <trkpt lat="43.75321" lon="3.47459">
        <ele>731</ele>
        <time>2015-10-25T07:54:17Z</time>
      </trkpt>
      <trkpt lat="43.75321" lon="3.47469">
        <ele>730.5</ele>
        <time>2015-10-25T07:54:18Z</time>
      </trkpt>
      <trkpt lat="43.75322" lon="3.47479">
        <ele>730.5</ele>
        <time>2015-10-25T07:54:19Z</time>
      </trkpt>
      <trkpt lat="43.75322" lon="3.47489">
        <ele>730.5</ele>
        <time>2015-10-25T07:54:20Z</time>
      </trkpt>
      <trkpt lat="43.75322" lon="3.47499">
        <ele>730</ele>
        <time>2015-10-25T07:54:21Z</time>
      </trkpt>
      <trkpt lat="43.75322" lon="3.47519">
        <ele>729.5</ele>
        <time>2015-10-25T07:54:23Z</time>
      </trkpt>
      <trkpt lat="43.75323" lon="3.47529">
        <ele>729.5</ele>
        <time>2015-10-25T07:54:24Z</time>
      </trkpt>
      <trkpt lat="43.75324" lon="3.47539">
        <ele>729</ele>
        <time>2015-10-25T07:54:25Z</time>
      </trkpt>
      <trkpt lat="43.75324" lon="3.47549">
        <ele>728.5</ele>
        <time>2015-10-25T07:54:26Z</time>
      </trkpt>
      <trkpt lat="43.75325" lon="3.4756">
        <ele>729</ele>
        <time>2015-10-25T07:54:27Z</time>
      </trkpt>
      <trkpt lat="43.75325" lon="3.4757">
        <ele>729</ele>
        <time>2015-10-25T07:54:28Z</time>
      </trkpt>
      <trkpt lat="43.75326" lon="3.4758">
        <ele>728.5</ele>
        <time>2015-10-25T07:54:29Z</time>
      </trkpt>
      <trkpt lat="43.75326" lon="3.47599">
        <ele>728</ele>
        <time>2015-10-25T07:54:31Z</time>
      </trkpt>
      <trkpt lat="43.75327" lon="3.47608">
        <ele>728</ele>
        <time>2015-10-25T07:54:32Z</time>
      </trkpt>
      <trkpt lat="43.75327" lon="3.47617">
        <ele>728</ele>
        <time>2015-10-25T07:54:33Z</time>
      </trkpt>
      <trkpt lat="43.75328" lon="3.47625">
        <ele>728</ele>
        <time>2015-10-25T07:54:34Z</time>
      </trkpt>
      <trkpt lat="43.75328" lon="3.47634">
        <ele>728</ele>
        <time>2015-10-25T07:54:35Z</time>
      </trkpt>
      <trkpt lat="43.75329" lon="3.47642">
        <ele>728</ele>
        <time>2015-10-25T07:54:36Z</time>
      </trkpt>
      <trkpt lat="43.7533" lon="3.47649">
        <ele>728.5</ele>
        <time>2015-10-25T07:54:37Z</time>
      </trkpt>
      <trkpt lat="43.7533" lon="3.47657">
        <ele>728.5</ele>
        <time>2015-10-25T07:54:38Z</time>
      </trkpt>
      <trkpt lat="43.7533" lon="3.47665">
        <ele>729</ele>
        <time>2015-10-25T07:54:39Z</time>
      </trkpt>
      <trkpt lat="43.7533" lon="3.47672">
        <ele>729</ele>
        <time>2015-10-25T07:54:40Z</time>
      </trkpt>
      <trkpt lat="43.7533" lon="3.47679">
        <ele>729</ele>
        <time>2015-10-25T07:54:41Z</time>
      </trkpt>
      <trkpt lat="43.75331" lon="3.47686">
        <ele>729</ele>
        <time>2015-10-25T07:54:42Z</time>
      </trkpt>
      <trkpt lat="43.75332" lon="3.47693">
        <ele>729.5</ele>
        <time>2015-10-25T07:54:43Z</time>
      </trkpt>
      <trkpt lat="43.75332" lon="3.477">
        <ele>730</ele>
        <time>2015-10-25T07:54:44Z</time>
      </trkpt>
      <trkpt lat="43.75332" lon="3.47706">
        <ele>730</ele>
        <time>2015-10-25T07:54:45Z</time>
      </trkpt>
      <trkpt lat="43.75332" lon="3.47712">
        <ele>730.5</ele>
        <time>2015-10-25T07:54:46Z</time>
      </trkpt>
      <trkpt lat="43.7533" lon="3.47724">
        <ele>730.5</ele>
        <time>2015-10-25T07:54:48Z</time>
      </trkpt>
      <trkpt lat="43.75329" lon="3.47729">
        <ele>731</ele>
        <time>2015-10-25T07:54:49Z</time>
      </trkpt>
      <trkpt lat="43.75329" lon="3.47735">
        <ele>731.5</ele>
        <time>2015-10-25T07:54:50Z</time>
      </trkpt>
      <trkpt lat="43.75329" lon="3.47741">
        <ele>731.5</ele>
        <time>2015-10-25T07:54:51Z</time>
      </trkpt>
      <trkpt lat="43.7533" lon="3.47747">
        <ele>731.5</ele>
        <time>2015-10-25T07:54:52Z</time>
      </trkpt>
      <trkpt lat="43.75331" lon="3.47752">
        <ele>732.5</ele>
        <time>2015-10-25T07:54:53Z</time>
      </trkpt>
      <trkpt lat="43.75332" lon="3.47758">
        <ele>733</ele>
        <time>2015-10-25T07:54:54Z</time>
      </trkpt>
      <trkpt lat="43.75332" lon="3.47764">
        <ele>733</ele>
        <time>2015-10-25T07:54:55Z</time>
      </trkpt>
      <trkpt lat="43.75332" lon="3.4777">
        <ele>733.5</ele>
        <time>2015-10-25T07:54:56Z</time>
      </trkpt>
      <trkpt lat="43.75333" lon="3.47776">
        <ele>733.5</ele>
        <time>2015-10-25T07:54:57Z</time>
      </trkpt>
      <trkpt lat="43.75333" lon="3.47783">
        <ele>733.5</ele>
        <time>2015-10-25T07:54:58Z</time>
      </trkpt>
      <trkpt lat="43.75333" lon="3.47789">
        <ele>733.5</ele>
        <time>2015-10-25T07:54:59Z</time>
      </trkpt>
      <trkpt lat="43.75333" lon="3.47795">
        <ele>734</ele>
        <time>2015-10-25T07:55:00Z</time>
      </trkpt>
      <trkpt lat="43.75333" lon="3.47802">
        <ele>733.5</ele>
        <time>2015-10-25T07:55:01Z</time>
      </trkpt>
      <trkpt lat="43.75333" lon="3.47809">
        <ele>734</ele>
        <time>2015-10-25T07:55:02Z</time>
      </trkpt>
      <trkpt lat="43.75333" lon="3.47815">
        <ele>734</ele>
        <time>2015-10-25T07:55:03Z</time>
      </trkpt>
      <trkpt lat="43.75335" lon="3.47822">
        <ele>734.5</ele>
        <time>2015-10-25T07:55:04Z</time>
      </trkpt>
      <trkpt lat="43.75335" lon="3.47828">
        <ele>735</ele>
        <time>2015-10-25T07:55:05Z</time>
      </trkpt>
      <trkpt lat="43.75335" lon="3.47835">
        <ele>735</ele>
        <time>2015-10-25T07:55:06Z</time>
      </trkpt>
      <trkpt lat="43.75336" lon="3.47841">
        <ele>735</ele>
        <time>2015-10-25T07:55:07Z</time>
      </trkpt>
      <trkpt lat="43.75336" lon="3.47848">
        <ele>735</ele>
        <time>2015-10-25T07:55:08Z</time>
      </trkpt>
      <trkpt lat="43.75336" lon="3.47854">
        <ele>735</ele>
        <time>2015-10-25T07:55:09Z</time>
      </trkpt>
      <trkpt lat="43.75336" lon="3.47861">
        <ele>735</ele>
        <time>2015-10-25T07:55:10Z</time>
      </trkpt>
      <trkpt lat="43.75336" lon="3.47868">
        <ele>735</ele>
        <time>2015-10-25T07:55:11Z</time>
      </trkpt>
      <trkpt lat="43.75336" lon="3.47874">
        <ele>735</ele>
        <time>2015-10-25T07:55:12Z</time>
      </trkpt>
      <trkpt lat="43.75337" lon="3.47881">
        <ele>736</ele>
        <time>2015-10-25T07:55:13Z</time>
      </trkpt>
      <trkpt lat="43.75337" lon="3.47888">
        <ele>736.5</ele>
        <time>2015-10-25T07:55:14Z</time>
      </trkpt>
      <trkpt lat="43.75337" lon="3.47895">
        <ele>736.5</ele>
        <time>2015-10-25T07:55:15Z</time>
      </trkpt>
      <trkpt lat="43.75336" lon="3.47902">
        <ele>736.5</ele>
        <time>2015-10-25T07:55:16Z</time>
      </trkpt>
      <trkpt lat="43.75336" lon="3.47908">
        <ele>737</ele>
        <time>2015-10-25T07:55:17Z</time>
      </trkpt>
      <trkpt lat="43.75335" lon="3.47915">
        <ele>737</ele>
        <time>2015-10-25T07:55:18Z</time>
      </trkpt>
      <trkpt lat="43.75335" lon="3.47922">
        <ele>737</ele>
        <time>2015-10-25T07:55:19Z</time>
      </trkpt>
      <trkpt lat="43.75334" lon="3.47928">
        <ele>737</ele>
        <time>2015-10-25T07:55:20Z</time>
      </trkpt>
      <trkpt lat="43.75334" lon="3.47934">
        <ele>738</ele>
        <time>2015-10-25T07:55:21Z</time>
      </trkpt>
      <trkpt lat="43.75333" lon="3.4794">
        <ele>738</ele>
        <time>2015-10-25T07:55:22Z</time>
      </trkpt>
      <trkpt lat="43.75333" lon="3.47946">
        <ele>738</ele>
        <time>2015-10-25T07:55:23Z</time>
      </trkpt>
      <trkpt lat="43.75332" lon="3.47952">
        <ele>738.5</ele>
        <time>2015-10-25T07:55:24Z</time>
      </trkpt>
      <trkpt lat="43.75331" lon="3.47958">
        <ele>738</ele>
        <time>2015-10-25T07:55:25Z</time>
      </trkpt>
      <trkpt lat="43.7533" lon="3.47964">
        <ele>738.5</ele>
        <time>2015-10-25T07:55:26Z</time>
      </trkpt>
      <trkpt lat="43.75329" lon="3.47969">
        <ele>738.5</ele>
        <time>2015-10-25T07:55:27Z</time>
      </trkpt>
      <trkpt lat="43.75327" lon="3.47975">
        <ele>739</ele>
        <time>2015-10-25T07:55:28Z</time>
      </trkpt>
      <trkpt lat="43.75326" lon="3.47981">
        <ele>739</ele>
        <time>2015-10-25T07:55:29Z</time>
      </trkpt>
      <trkpt lat="43.75325" lon="3.47986">
        <ele>739</ele>
        <time>2015-10-25T07:55:29Z</time>
      </trkpt>
      <trkpt lat="43.75324" lon="3.47992">
        <ele>738.5</ele>
        <time>2015-10-25T07:55:31Z</time>
      </trkpt>
      <trkpt lat="43.75323" lon="3.47997">
        <ele>738.5</ele>
        <time>2015-10-25T07:55:31Z</time>
      </trkpt>
      <trkpt lat="43.75321" lon="3.48003">
        <ele>738.5</ele>
        <time>2015-10-25T07:55:32Z</time>
      </trkpt>
      <trkpt lat="43.7532" lon="3.48008">
        <ele>739</ele>
        <time>2015-10-25T07:55:33Z</time>
      </trkpt>
      <trkpt lat="43.75318" lon="3.48014">
        <ele>739</ele>
        <time>2015-10-25T07:55:34Z</time>
      </trkpt>
      <trkpt lat="43.75317" lon="3.4802">
        <ele>739.5</ele>
        <time>2015-10-25T07:55:35Z</time>
      </trkpt>
      <trkpt lat="43.75316" lon="3.48025">
        <ele>740</ele>
        <time>2015-10-25T07:55:36Z</time>
      </trkpt>
      <trkpt lat="43.75314" lon="3.48031">
        <ele>740</ele>
        <time>2015-10-25T07:55:37Z</time>
      </trkpt>
      <trkpt lat="43.75312" lon="3.48037">
        <ele>740</ele>
        <time>2015-10-25T07:55:38Z</time>
      </trkpt>
      <trkpt lat="43.7531" lon="3.48042">
        <ele>740.5</ele>
        <time>2015-10-25T07:55:39Z</time>
      </trkpt>
      <trkpt lat="43.75309" lon="3.48047">
        <ele>740.5</ele>
        <time>2015-10-25T07:55:40Z</time>
      </trkpt>
      <trkpt lat="43.75307" lon="3.48052">
        <ele>740.5</ele>
        <time>2015-10-25T07:55:41Z</time>
      </trkpt>
      <trkpt lat="43.75306" lon="3.48058">
        <ele>741</ele>
        <time>2015-10-25T07:55:42Z</time>
      </trkpt>
      <trkpt lat="43.75304" lon="3.48063">
        <ele>741</ele>
        <time>2015-10-25T07:55:43Z</time>
      </trkpt>
      <trkpt lat="43.75303" lon="3.48068">
        <ele>741</ele>
        <time>2015-10-25T07:55:44Z</time>
      </trkpt>
      <trkpt lat="43.75301" lon="3.48073">
        <ele>741</ele>
        <time>2015-10-25T07:55:45Z</time>
      </trkpt>
      <trkpt lat="43.75299" lon="3.48078">
        <ele>741</ele>
        <time>2015-10-25T07:55:46Z</time>
      </trkpt>
      <trkpt lat="43.75298" lon="3.48083">
        <ele>741</ele>
        <time>2015-10-25T07:55:47Z</time>
      </trkpt>
      <trkpt lat="43.75297" lon="3.48089">
        <ele>741.5</ele>
        <time>2015-10-25T07:55:48Z</time>
      </trkpt>
      <trkpt lat="43.75295" lon="3.48094">
        <ele>741.5</ele>
        <time>2015-10-25T07:55:49Z</time>
      </trkpt>
      <trkpt lat="43.75294" lon="3.481">
        <ele>741.5</ele>
        <time>2015-10-25T07:55:50Z</time>
      </trkpt>
      <trkpt lat="43.75292" lon="3.48105">
        <ele>741.5</ele>
        <time>2015-10-25T07:55:51Z</time>
      </trkpt>
      <trkpt lat="43.7529" lon="3.4811">
        <ele>741.5</ele>
        <time>2015-10-25T07:55:52Z</time>
      </trkpt>
      <trkpt lat="43.75289" lon="3.48115">
        <ele>741</ele>
        <time>2015-10-25T07:55:53Z</time>
      </trkpt>
      <trkpt lat="43.75287" lon="3.48121">
        <ele>741</ele>
        <time>2015-10-25T07:55:54Z</time>
      </trkpt>
      <trkpt lat="43.75284" lon="3.48126">
        <ele>741</ele>
        <time>2015-10-25T07:55:55Z</time>
      </trkpt>
      <trkpt lat="43.75282" lon="3.48132">
        <ele>740.5</ele>
        <time>2015-10-25T07:55:56Z</time>
      </trkpt>
      <trkpt lat="43.75279" lon="3.48137">
        <ele>740.5</ele>
        <time>2015-10-25T07:55:57Z</time>
      </trkpt>
      <trkpt lat="43.75277" lon="3.48142">
        <ele>740</ele>
        <time>2015-10-25T07:55:58Z</time>
      </trkpt>
      <trkpt lat="43.75274" lon="3.48148">
        <ele>740</ele>
        <time>2015-10-25T07:55:59Z</time>
      </trkpt>
      <trkpt lat="43.7527" lon="3.48153">
        <ele>739.5</ele>
        <time>2015-10-25T07:56:00Z</time>
      </trkpt>
      <trkpt lat="43.75267" lon="3.48157">
        <ele>739.5</ele>
        <time>2015-10-25T07:56:01Z</time>
      </trkpt>
      <trkpt lat="43.75263" lon="3.48162">
        <ele>740</ele>
        <time>2015-10-25T07:56:02Z</time>
      </trkpt>
      <trkpt lat="43.75259" lon="3.48166">
        <ele>740</ele>
        <time>2015-10-25T07:56:03Z</time>
      </trkpt>
      <trkpt lat="43.75255" lon="3.4817">
        <ele>740</ele>
        <time>2015-10-25T07:56:04Z</time>
      </trkpt>
      <trkpt lat="43.75251" lon="3.48174">
        <ele>740</ele>
        <time>2015-10-25T07:56:05Z</time>
      </trkpt>
      <trkpt lat="43.75247" lon="3.48177">
        <ele>739.5</ele>
        <time>2015-10-25T07:56:06Z</time>
      </trkpt>
      <trkpt lat="43.75242" lon="3.4818">
        <ele>739.5</ele>
        <time>2015-10-25T07:56:07Z</time>
      </trkpt>
      <trkpt lat="43.75237" lon="3.48183">
        <ele>739.5</ele>
        <time>2015-10-25T07:56:08Z</time>
      </trkpt>
      <trkpt lat="43.75233" lon="3.48185">
        <ele>739.5</ele>
        <time>2015-10-25T07:56:09Z</time>
      </trkpt>
      <trkpt lat="43.75228" lon="3.48187">
        <ele>739</ele>
        <time>2015-10-25T07:56:10Z</time>
      </trkpt>
      <trkpt lat="43.75224" lon="3.48189">
        <ele>739</ele>
        <time>2015-10-25T07:56:11Z</time>
      </trkpt>
      <trkpt lat="43.75219" lon="3.48192">
        <ele>738.5</ele>
        <time>2015-10-25T07:56:12Z</time>
      </trkpt>
      <trkpt lat="43.75215" lon="3.48194">
        <ele>738.5</ele>
        <time>2015-10-25T07:56:13Z</time>
      </trkpt>
      <trkpt lat="43.75211" lon="3.48198">
        <ele>738.5</ele>
        <time>2015-10-25T07:56:14Z</time>
      </trkpt>
      <trkpt lat="43.75207" lon="3.48202">
        <ele>738</ele>
        <time>2015-10-25T07:56:15Z</time>
      </trkpt>
      <trkpt lat="43.75204" lon="3.48207">
        <ele>738</ele>
        <time>2015-10-25T07:56:16Z</time>
      </trkpt>
      <trkpt lat="43.75201" lon="3.48212">
        <ele>738</ele>
        <time>2015-10-25T07:56:17Z</time>
      </trkpt>
      <trkpt lat="43.75199" lon="3.4822">
        <ele>739</ele>
        <time>2015-10-25T07:56:18Z</time>
      </trkpt>
      <trkpt lat="43.75197" lon="3.48227">
        <ele>739.5</ele>
        <time>2015-10-25T07:56:19Z</time>
      </trkpt>
      <trkpt lat="43.75196" lon="3.48233">
        <ele>739.5</ele>
        <time>2015-10-25T07:56:20Z</time>
      </trkpt>
      <trkpt lat="43.75195" lon="3.48241">
        <ele>740</ele>
        <time>2015-10-25T07:56:21Z</time>
      </trkpt>
      <trkpt lat="43.75196" lon="3.48248">
        <ele>740</ele>
        <time>2015-10-25T07:56:22Z</time>
      </trkpt>
      <trkpt lat="43.75197" lon="3.48255">
        <ele>740.5</ele>
        <time>2015-10-25T07:56:23Z</time>
      </trkpt>
      <trkpt lat="43.752" lon="3.48261">
        <ele>740.5</ele>
        <time>2015-10-25T07:56:24Z</time>
      </trkpt>
      <trkpt lat="43.75203" lon="3.48267">
        <ele>741</ele>
        <time>2015-10-25T07:56:25Z</time>
      </trkpt>
      <trkpt lat="43.75205" lon="3.48272">
        <ele>741</ele>
        <time>2015-10-25T07:56:26Z</time>
      </trkpt>
      <trkpt lat="43.75209" lon="3.48277">
        <ele>741</ele>
        <time>2015-10-25T07:56:27Z</time>
      </trkpt>
      <trkpt lat="43.75213" lon="3.48281">
        <ele>741</ele>
        <time>2015-10-25T07:56:28Z</time>
      </trkpt>
      <trkpt lat="43.75217" lon="3.48285">
        <ele>741</ele>
        <time>2015-10-25T07:56:29Z</time>
      </trkpt>
      <trkpt lat="43.75221" lon="3.48289">
        <ele>741</ele>
        <time>2015-10-25T07:56:30Z</time>
      </trkpt>
      <trkpt lat="43.75225" lon="3.48292">
        <ele>741</ele>
        <time>2015-10-25T07:56:31Z</time>
      </trkpt>
      <trkpt lat="43.75228" lon="3.48294">
        <ele>740.5</ele>
        <time>2015-10-25T07:56:32Z</time>
      </trkpt>
      <trkpt lat="43.75232" lon="3.48297">
        <ele>741</ele>
        <time>2015-10-25T07:56:33Z</time>
      </trkpt>
      <trkpt lat="43.75237" lon="3.483">
        <ele>741</ele>
        <time>2015-10-25T07:56:34Z</time>
      </trkpt>
      <trkpt lat="43.7524" lon="3.48302">
        <ele>742.5</ele>
        <time>2015-10-25T07:56:35Z</time>
      </trkpt>
      <trkpt lat="43.75244" lon="3.48304">
        <ele>743.5</ele>
        <time>2015-10-25T07:56:36Z</time>
      </trkpt>
      <trkpt lat="43.75247" lon="3.48307">
        <ele>743.5</ele>
        <time>2015-10-25T07:56:37Z</time>
      </trkpt>
      <trkpt lat="43.7525" lon="3.48311">
        <ele>742</ele>
        <time>2015-10-25T07:56:38Z</time>
      </trkpt>
      <trkpt lat="43.75253" lon="3.48314">
        <ele>742</ele>
        <time>2015-10-25T07:56:39Z</time>
      </trkpt>
      <trkpt lat="43.75256" lon="3.48317">
        <ele>742</ele>
        <time>2015-10-25T07:56:40Z</time>
      </trkpt>
      <trkpt lat="43.75259" lon="3.4832">
        <ele>742.5</ele>
        <time>2015-10-25T07:56:41Z</time>
      </trkpt>
      <trkpt lat="43.75261" lon="3.48321">
        <ele>744</ele>
        <time>2015-10-25T07:56:42Z</time>
      </trkpt>
      <trkpt lat="43.75263" lon="3.48324">
        <ele>745</ele>
        <time>2015-10-25T07:56:43Z</time>
      </trkpt>
      <trkpt lat="43.75265" lon="3.48326">
        <ele>746</ele>
        <time>2015-10-25T07:56:44Z</time>
      </trkpt>
      <trkpt lat="43.75267" lon="3.48329">
        <ele>746.5</ele>
        <time>2015-10-25T07:56:45Z</time>
      </trkpt>
      <trkpt lat="43.7527" lon="3.48332">
        <ele>746.5</ele>
        <time>2015-10-25T07:56:46Z</time>
      </trkpt>
      <trkpt lat="43.75272" lon="3.48335">
        <ele>746</ele>
        <time>2015-10-25T07:56:47Z</time>
      </trkpt>
      <trkpt lat="43.75275" lon="3.48338">
        <ele>747</ele>
        <time>2015-10-25T07:56:48Z</time>
      </trkpt>
      <trkpt lat="43.75277" lon="3.4834">
        <ele>748</ele>
        <time>2015-10-25T07:56:49Z</time>
      </trkpt>
      <trkpt lat="43.75279" lon="3.48342">
        <ele>749.5</ele>
        <time>2015-10-25T07:56:50Z</time>
      </trkpt>
      <trkpt lat="43.75282" lon="3.48346">
        <ele>749.5</ele>
        <time>2015-10-25T07:56:51Z</time>
      </trkpt>
      <trkpt lat="43.75284" lon="3.48349">
        <ele>750</ele>
        <time>2015-10-25T07:56:52Z</time>
      </trkpt>
      <trkpt lat="43.75286" lon="3.48352">
        <ele>751.5</ele>
        <time>2015-10-25T07:56:53Z</time>
      </trkpt>
      <trkpt lat="43.75287" lon="3.48354">
        <ele>751.5</ele>
        <time>2015-10-25T07:56:54Z</time>
      </trkpt>
      <trkpt lat="43.75289" lon="3.48356">
        <ele>753</ele>
        <time>2015-10-25T07:56:55Z</time>
      </trkpt>
      <trkpt lat="43.75291" lon="3.4836">
        <ele>752.5</ele>
        <time>2015-10-25T07:56:56Z</time>
      </trkpt>
      <trkpt lat="43.75293" lon="3.48363">
        <ele>752.5</ele>
        <time>2015-10-25T07:56:57Z</time>
      </trkpt>
      <trkpt lat="43.75295" lon="3.48367">
        <ele>752.5</ele>
        <time>2015-10-25T07:56:58Z</time>
      </trkpt>
      <trkpt lat="43.75298" lon="3.48371">
        <ele>751.5</ele>
        <time>2015-10-25T07:56:59Z</time>
      </trkpt>
      <trkpt lat="43.753" lon="3.48375">
        <ele>751.5</ele>
        <time>2015-10-25T07:57:00Z</time>
      </trkpt>
      <trkpt lat="43.75303" lon="3.48379">
        <ele>751.5</ele>
        <time>2015-10-25T07:57:01Z</time>
      </trkpt>
      <trkpt lat="43.75305" lon="3.48382">
        <ele>752</ele>
        <time>2015-10-25T07:57:02Z</time>
      </trkpt>
      <trkpt lat="43.75307" lon="3.48385">
        <ele>753</ele>
        <time>2015-10-25T07:57:03Z</time>
      </trkpt>
      <trkpt lat="43.75309" lon="3.48389">
        <ele>753</ele>
        <time>2015-10-25T07:57:04Z</time>
      </trkpt>
      <trkpt lat="43.7531" lon="3.48393">
        <ele>752</ele>
        <time>2015-10-25T07:57:05Z</time>
      </trkpt>
      <trkpt lat="43.75312" lon="3.48398">
        <ele>751.5</ele>
        <time>2015-10-25T07:57:06Z</time>
      </trkpt>
      <trkpt lat="43.75314" lon="3.48402">
        <ele>751</ele>
        <time>2015-10-25T07:57:07Z</time>
      </trkpt>
      <trkpt lat="43.75315" lon="3.48406">
        <ele>751.5</ele>
        <time>2015-10-25T07:57:08Z</time>
      </trkpt>
      <trkpt lat="43.75317" lon="3.4841">
        <ele>752</ele>
        <time>2015-10-25T07:57:09Z</time>
      </trkpt>
      <trkpt lat="43.7532" lon="3.48415">
        <ele>751.5</ele>
        <time>2015-10-25T07:57:10Z</time>
      </trkpt>
      <trkpt lat="43.75321" lon="3.48419">
        <ele>751</ele>
        <time>2015-10-25T07:57:11Z</time>
      </trkpt>
      <trkpt lat="43.75323" lon="3.48422">
        <ele>750.5</ele>
        <time>2015-10-25T07:57:12Z</time>
      </trkpt>
      <trkpt lat="43.75324" lon="3.48426">
        <ele>750</ele>
        <time>2015-10-25T07:57:13Z</time>
      </trkpt>
      <trkpt lat="43.75324" lon="3.48429">
        <ele>750</ele>
        <time>2015-10-25T07:57:14Z</time>
      </trkpt>
      <trkpt lat="43.75325" lon="3.48432">
        <ele>750</ele>
        <time>2015-10-25T07:57:15Z</time>
      </trkpt>
      <trkpt lat="43.75326" lon="3.48435">
        <ele>751.5</ele>
        <time>2015-10-25T07:57:16Z</time>
      </trkpt>
      <trkpt lat="43.75328" lon="3.48438">
        <ele>752</ele>
        <time>2015-10-25T07:57:17Z</time>
      </trkpt>
      <trkpt lat="43.75329" lon="3.48442">
        <ele>752</ele>
        <time>2015-10-25T07:57:18Z</time>
      </trkpt>
      <trkpt lat="43.75331" lon="3.48446">
        <ele>752.5</ele>
        <time>2015-10-25T07:57:19Z</time>
      </trkpt>
      <trkpt lat="43.75333" lon="3.4845">
        <ele>754</ele>
        <time>2015-10-25T07:57:20Z</time>
      </trkpt>
      <trkpt lat="43.75334" lon="3.48453">
        <ele>754.5</ele>
        <time>2015-10-25T07:57:21Z</time>
      </trkpt>
      <trkpt lat="43.75335" lon="3.48457">
        <ele>754.5</ele>
        <time>2015-10-25T07:57:22Z</time>
      </trkpt>
      <trkpt lat="43.75337" lon="3.48461">
        <ele>756</ele>
        <time>2015-10-25T07:57:23Z</time>
      </trkpt>
      <trkpt lat="43.75338" lon="3.48465">
        <ele>756.5</ele>
        <time>2015-10-25T07:57:24Z</time>
      </trkpt>
      <trkpt lat="43.75339" lon="3.48469">
        <ele>756.5</ele>
        <time>2015-10-25T07:57:25Z</time>
      </trkpt>
      <trkpt lat="43.7534" lon="3.48472">
        <ele>756</ele>
        <time>2015-10-25T07:57:26Z</time>
      </trkpt>
      <trkpt lat="43.75342" lon="3.48475">
        <ele>755.5</ele>
        <time>2015-10-25T07:57:27Z</time>
      </trkpt>
      <trkpt lat="43.75343" lon="3.4848">
        <ele>756.5</ele>
        <time>2015-10-25T07:57:28Z</time>
      </trkpt>
      <trkpt lat="43.75345" lon="3.48484">
        <ele>756</ele>
        <time>2015-10-25T07:57:29Z</time>
      </trkpt>
      <trkpt lat="43.75346" lon="3.48487">
        <ele>755.5</ele>
        <time>2015-10-25T07:57:30Z</time>
      </trkpt>
      <trkpt lat="43.75348" lon="3.48492">
        <ele>755</ele>
        <time>2015-10-25T07:57:31Z</time>
      </trkpt>
      <trkpt lat="43.75349" lon="3.48495">
        <ele>755</ele>
        <time>2015-10-25T07:57:32Z</time>
      </trkpt>
      <trkpt lat="43.7535" lon="3.48498">
        <ele>753.5</ele>
        <time>2015-10-25T07:57:33Z</time>
      </trkpt>
      <trkpt lat="43.75351" lon="3.48502">
        <ele>753.5</ele>
        <time>2015-10-25T07:57:34Z</time>
      </trkpt>
      <trkpt lat="43.75353" lon="3.48506">
        <ele>753</ele>
        <time>2015-10-25T07:57:35Z</time>
      </trkpt>
      <trkpt lat="43.75353" lon="3.48509">
        <ele>752</ele>
        <time>2015-10-25T07:57:36Z</time>
      </trkpt>
      <trkpt lat="43.75354" lon="3.48512">
        <ele>752</ele>
        <time>2015-10-25T07:57:37Z</time>
      </trkpt>
      <trkpt lat="43.75355" lon="3.48515">
        <ele>752</ele>
        <time>2015-10-25T07:57:38Z</time>
      </trkpt>
      <trkpt lat="43.75355" lon="3.48518">
        <ele>750.5</ele>
        <time>2015-10-25T07:57:39Z</time>
      </trkpt>
      <trkpt lat="43.75356" lon="3.48521">
        <ele>750.5</ele>
        <time>2015-10-25T07:57:40Z</time>
      </trkpt>
      <trkpt lat="43.75358" lon="3.48524">
        <ele>751</ele>
        <time>2015-10-25T07:57:41Z</time>
      </trkpt>
      <trkpt lat="43.75359" lon="3.48527">
        <ele>751.5</ele>
        <time>2015-10-25T07:57:42Z</time>
      </trkpt>
      <trkpt lat="43.75361" lon="3.4853">
        <ele>751.5</ele>
        <time>2015-10-25T07:57:43Z</time>
      </trkpt>
      <trkpt lat="43.75362" lon="3.48534">
        <ele>751.5</ele>
        <time>2015-10-25T07:57:44Z</time>
      </trkpt>
      <trkpt lat="43.75363" lon="3.48537">
        <ele>750.5</ele>
        <time>2015-10-25T07:57:45Z</time>
      </trkpt>
      <trkpt lat="43.75363" lon="3.4854">
        <ele>749.5</ele>
        <time>2015-10-25T07:57:46Z</time>
      </trkpt>
      <trkpt lat="43.75364" lon="3.48543">
        <ele>749.5</ele>
        <time>2015-10-25T07:57:47Z</time>
      </trkpt>
      <trkpt lat="43.75365" lon="3.48546">
        <ele>749.5</ele>
        <time>2015-10-25T07:57:48Z</time>
      </trkpt>
      <trkpt lat="43.75366" lon="3.48549">
        <ele>750.5</ele>
        <time>2015-10-25T07:57:49Z</time>
      </trkpt>
      <trkpt lat="43.75366" lon="3.48552">
        <ele>750.5</ele>
        <time>2015-10-25T07:57:50Z</time>
      </trkpt>
      <trkpt lat="43.75367" lon="3.48555">
        <ele>750</ele>
        <time>2015-10-25T07:57:51Z</time>
      </trkpt>
      <trkpt lat="43.75367" lon="3.48558">
        <ele>750.5</ele>
        <time>2015-10-25T07:57:52Z</time>
      </trkpt>
      <trkpt lat="43.75367" lon="3.48562">
        <ele>750.5</ele>
        <time>2015-10-25T07:57:53Z</time>
      </trkpt>
      <trkpt lat="43.75368" lon="3.48565">
        <ele>750.5</ele>
        <time>2015-10-25T07:57:54Z</time>
      </trkpt>
      <trkpt lat="43.75369" lon="3.48568">
        <ele>751.5</ele>
        <time>2015-10-25T07:57:55Z</time>
      </trkpt>
      <trkpt lat="43.75369" lon="3.48571">
        <ele>752.5</ele>
        <time>2015-10-25T07:57:56Z</time>
      </trkpt>
      <trkpt lat="43.75369" lon="3.48574">
        <ele>752.5</ele>
        <time>2015-10-25T07:57:57Z</time>
      </trkpt>
      <trkpt lat="43.75369" lon="3.48577">
        <ele>753</ele>
        <time>2015-10-25T07:57:58Z</time>
      </trkpt>
      <trkpt lat="43.7537" lon="3.48579">
        <ele>754.5</ele>
        <time>2015-10-25T07:57:59Z</time>
      </trkpt>
      <trkpt lat="43.75369" lon="3.48582">
        <ele>755</ele>
        <time>2015-10-25T07:58:00Z</time>
      </trkpt>
      <trkpt lat="43.75368" lon="3.48585">
        <ele>755.5</ele>
        <time>2015-10-25T07:58:01Z</time>
      </trkpt>
      <trkpt lat="43.75367" lon="3.48588">
        <ele>755</ele>
        <time>2015-10-25T07:58:02Z</time>
      </trkpt>
      <trkpt lat="43.75365" lon="3.48591">
        <ele>754.5</ele>
        <time>2015-10-25T07:58:03Z</time>
      </trkpt>
      <trkpt lat="43.75363" lon="3.48593">
        <ele>754</ele>
        <time>2015-10-25T07:58:04Z</time>
      </trkpt>
      <trkpt lat="43.75361" lon="3.48596">
        <ele>753</ele>
        <time>2015-10-25T07:58:05Z</time>
      </trkpt>
      <trkpt lat="43.75359" lon="3.48598">
        <ele>752</ele>
        <time>2015-10-25T07:58:06Z</time>
      </trkpt>
      <trkpt lat="43.75357" lon="3.48601">
        <ele>751.5</ele>
        <time>2015-10-25T07:58:07Z</time>
      </trkpt>
      <trkpt lat="43.75356" lon="3.48603">
        <ele>751.5</ele>
        <time>2015-10-25T07:58:08Z</time>
      </trkpt>
      <trkpt lat="43.75354" lon="3.48605">
        <ele>751</ele>
        <time>2015-10-25T07:58:09Z</time>
      </trkpt>
      <trkpt lat="43.75352" lon="3.48607">
        <ele>751</ele>
        <time>2015-10-25T07:58:10Z</time>
      </trkpt>
      <trkpt lat="43.7535" lon="3.48609">
        <ele>751</ele>
        <time>2015-10-25T07:58:11Z</time>
      </trkpt>
      <trkpt lat="43.75348" lon="3.48611">
        <ele>751.5</ele>
        <time>2015-10-25T07:58:12Z</time>
      </trkpt>
      <trkpt lat="43.75347" lon="3.48614">
        <ele>751.5</ele>
        <time>2015-10-25T07:58:13Z</time>
      </trkpt>
      <trkpt lat="43.75345" lon="3.48616">
        <ele>751.5</ele>
        <time>2015-10-25T07:58:14Z</time>
      </trkpt>
      <trkpt lat="43.75342" lon="3.48618">
        <ele>751.5</ele>
        <time>2015-10-25T07:58:15Z</time>
      </trkpt>
      <trkpt lat="43.7534" lon="3.48619">
        <ele>751.5</ele>
        <time>2015-10-25T07:58:16Z</time>
      </trkpt>
      <trkpt lat="43.75338" lon="3.48621">
        <ele>751.5</ele>
        <time>2015-10-25T07:58:17Z</time>
      </trkpt>
      <trkpt lat="43.75336" lon="3.48622">
        <ele>751.5</ele>
        <time>2015-10-25T07:58:18Z</time>
      </trkpt>
      <trkpt lat="43.75334" lon="3.48624">
        <ele>752</ele>
        <time>2015-10-25T07:58:19Z</time>
      </trkpt>
      <trkpt lat="43.75331" lon="3.48625">
        <ele>752.5</ele>
        <time>2015-10-25T07:58:20Z</time>
      </trkpt>
      <trkpt lat="43.75329" lon="3.48627">
        <ele>753.5</ele>
        <time>2015-10-25T07:58:21Z</time>
      </trkpt>
      <trkpt lat="43.75327" lon="3.48628">
        <ele>753.5</ele>
        <time>2015-10-25T07:58:22Z</time>
      </trkpt>
      <trkpt lat="43.75325" lon="3.48629">
        <ele>753.5</ele>
        <time>2015-10-25T07:58:23Z</time>
      </trkpt>
      <trkpt lat="43.75322" lon="3.4863">
        <ele>754</ele>
        <time>2015-10-25T07:58:24Z</time>
      </trkpt>
      <trkpt lat="43.7532" lon="3.48631">
        <ele>754.5</ele>
        <time>2015-10-25T07:58:25Z</time>
      </trkpt>
      <trkpt lat="43.75316" lon="3.48632">
        <ele>755</ele>
        <time>2015-10-25T07:58:27Z</time>
      </trkpt>
      <trkpt lat="43.75314" lon="3.48632">
        <ele>754.5</ele>
        <time>2015-10-25T07:58:28Z</time>
      </trkpt>
      <trkpt lat="43.75311" lon="3.48632">
        <ele>754.5</ele>
        <time>2015-10-25T07:58:29Z</time>
      </trkpt>
      <trkpt lat="43.75309" lon="3.48632">
        <ele>755</ele>
        <time>2015-10-25T07:58:30Z</time>
      </trkpt>
      <trkpt lat="43.75307" lon="3.48632">
        <ele>755</ele>
        <time>2015-10-25T07:58:31Z</time>
      </trkpt>
      <trkpt lat="43.75305" lon="3.48632">
        <ele>755</ele>
        <time>2015-10-25T07:58:32Z</time>
      </trkpt>
      <trkpt lat="43.75302" lon="3.48632">
        <ele>755</ele>
        <time>2015-10-25T07:58:33Z</time>
      </trkpt>
      <trkpt lat="43.753" lon="3.48632">
        <ele>755</ele>
        <time>2015-10-25T07:58:34Z</time>
      </trkpt>
      <trkpt lat="43.75298" lon="3.48632">
        <ele>755</ele>
        <time>2015-10-25T07:58:35Z</time>
      </trkpt>
      <trkpt lat="43.75295" lon="3.48632">
        <ele>755</ele>
        <time>2015-10-25T07:58:36Z</time>
      </trkpt>
      <trkpt lat="43.75293" lon="3.48632">
        <ele>755.5</ele>
        <time>2015-10-25T07:58:37Z</time>
      </trkpt>
      <trkpt lat="43.75291" lon="3.48632">
        <ele>755.5</ele>
        <time>2015-10-25T07:58:38Z</time>
      </trkpt>
      <trkpt lat="43.75289" lon="3.48631">
        <ele>755</ele>
        <time>2015-10-25T07:58:39Z</time>
      </trkpt>
      <trkpt lat="43.75286" lon="3.4863">
        <ele>755</ele>
        <time>2015-10-25T07:58:40Z</time>
      </trkpt>
      <trkpt lat="43.75284" lon="3.4863">
        <ele>755</ele>
        <time>2015-10-25T07:58:41Z</time>
      </trkpt>
      <trkpt lat="43.75282" lon="3.48629">
        <ele>754.5</ele>
        <time>2015-10-25T07:58:42Z</time>
      </trkpt>
      <trkpt lat="43.7528" lon="3.48629">
        <ele>755</ele>
        <time>2015-10-25T07:58:43Z</time>
      </trkpt>
      <trkpt lat="43.75278" lon="3.48629">
        <ele>755.5</ele>
        <time>2015-10-25T07:58:44Z</time>
      </trkpt>
      <trkpt lat="43.75275" lon="3.48628">
        <ele>756</ele>
        <time>2015-10-25T07:58:45Z</time>
      </trkpt>
      <trkpt lat="43.75274" lon="3.48628">
        <ele>756.5</ele>
        <time>2015-10-25T07:58:46Z</time>
      </trkpt>
      <trkpt lat="43.75271" lon="3.48627">
        <ele>756.5</ele>
        <time>2015-10-25T07:58:47Z</time>
      </trkpt>
      <trkpt lat="43.75269" lon="3.48626">
        <ele>756.5</ele>
        <time>2015-10-25T07:58:48Z</time>
      </trkpt>
      <trkpt lat="43.75267" lon="3.48625">
        <ele>756.5</ele>
        <time>2015-10-25T07:58:49Z</time>
      </trkpt>
      <trkpt lat="43.75266" lon="3.48623">
        <ele>756.5</ele>
        <time>2015-10-25T07:58:50Z</time>
      </trkpt>
      <trkpt lat="43.75264" lon="3.48622">
        <ele>756</ele>
        <time>2015-10-25T07:58:51Z</time>
      </trkpt>
      <trkpt lat="43.75262" lon="3.4862">
        <ele>755.5</ele>
        <time>2015-10-25T07:58:52Z</time>
      </trkpt>
      <trkpt lat="43.75259" lon="3.48618">
        <ele>755.5</ele>
        <time>2015-10-25T07:58:53Z</time>
      </trkpt>
      <trkpt lat="43.75257" lon="3.48616">
        <ele>755.5</ele>
        <time>2015-10-25T07:58:54Z</time>
      </trkpt>
      <trkpt lat="43.75255" lon="3.48615">
        <ele>756</ele>
        <time>2015-10-25T07:58:55Z</time>
      </trkpt>
      <trkpt lat="43.75253" lon="3.48614">
        <ele>756.5</ele>
        <time>2015-10-25T07:58:56Z</time>
      </trkpt>
      <trkpt lat="43.75251" lon="3.48613">
        <ele>757</ele>
        <time>2015-10-25T07:58:57Z</time>
      </trkpt>
      <trkpt lat="43.75249" lon="3.48611">
        <ele>756.5</ele>
        <time>2015-10-25T07:58:58Z</time>
      </trkpt>
      <trkpt lat="43.75246" lon="3.4861">
        <ele>757.5</ele>
        <time>2015-10-25T07:58:58Z</time>
      </trkpt>
      <trkpt lat="43.75244" lon="3.48609">
        <ele>757.5</ele>
        <time>2015-10-25T07:58:59Z</time>
      </trkpt>
      <trkpt lat="43.75242" lon="3.48608">
        <ele>758</ele>
        <time>2015-10-25T07:59:00Z</time>
      </trkpt>
      <trkpt lat="43.75239" lon="3.48607">
        <ele>758.5</ele>
        <time>2015-10-25T07:59:01Z</time>
      </trkpt>
      <trkpt lat="43.75237" lon="3.48606">
        <ele>759</ele>
        <time>2015-10-25T07:59:02Z</time>
      </trkpt>
      <trkpt lat="43.75234" lon="3.48606">
        <ele>759</ele>
        <time>2015-10-25T07:59:03Z</time>
      </trkpt>
      <trkpt lat="43.75232" lon="3.48606">
        <ele>760</ele>
        <time>2015-10-25T07:59:04Z</time>
      </trkpt>
      <trkpt lat="43.7523" lon="3.48606">
        <ele>760</ele>
        <time>2015-10-25T07:59:05Z</time>
      </trkpt>
      <trkpt lat="43.75227" lon="3.48606">
        <ele>760.5</ele>
        <time>2015-10-25T07:59:06Z</time>
      </trkpt>
      <trkpt lat="43.75224" lon="3.48605">
        <ele>760.5</ele>
        <time>2015-10-25T07:59:07Z</time>
      </trkpt>
      <trkpt lat="43.75222" lon="3.48605">
        <ele>761</ele>
        <time>2015-10-25T07:59:08Z</time>
      </trkpt>
      <trkpt lat="43.75219" lon="3.48605">
        <ele>761</ele>
        <time>2015-10-25T07:59:09Z</time>
      </trkpt>
      <trkpt lat="43.75216" lon="3.48605">
        <ele>761</ele>
        <time>2015-10-25T07:59:10Z</time>
      </trkpt>
      <trkpt lat="43.75213" lon="3.48608">
        <ele>763</ele>
        <time>2015-10-25T07:59:11Z</time>
      </trkpt>
      <trkpt lat="43.75211" lon="3.48608">
        <ele>763</ele>
        <time>2015-10-25T07:59:12Z</time>
      </trkpt>
      <trkpt lat="43.75208" lon="3.48609">
        <ele>763.5</ele>
        <time>2015-10-25T07:59:13Z</time>
      </trkpt>
      <trkpt lat="43.75206" lon="3.4861">
        <ele>764</ele>
        <time>2015-10-25T07:59:14Z</time>
      </trkpt>
      <trkpt lat="43.75203" lon="3.48611">
        <ele>764.5</ele>
        <time>2015-10-25T07:59:15Z</time>
      </trkpt>
      <trkpt lat="43.752" lon="3.48612">
        <ele>765</ele>
        <time>2015-10-25T07:59:16Z</time>
      </trkpt>
      <trkpt lat="43.75198" lon="3.48613">
        <ele>765</ele>
        <time>2015-10-25T07:59:17Z</time>
      </trkpt>
      <trkpt lat="43.75195" lon="3.48614">
        <ele>766.5</ele>
        <time>2015-10-25T07:59:18Z</time>
      </trkpt>
      <trkpt lat="43.75193" lon="3.48615">
        <ele>766</ele>
        <time>2015-10-25T07:59:19Z</time>
      </trkpt>
      <trkpt lat="43.7519" lon="3.48615">
        <ele>766</ele>
        <time>2015-10-25T07:59:20Z</time>
      </trkpt>
      <trkpt lat="43.75188" lon="3.48616">
        <ele>766</ele>
        <time>2015-10-25T07:59:21Z</time>
      </trkpt>
      <trkpt lat="43.75186" lon="3.48617">
        <ele>766.5</ele>
        <time>2015-10-25T07:59:22Z</time>
      </trkpt>
      <trkpt lat="43.75184" lon="3.48618">
        <ele>766.5</ele>
        <time>2015-10-25T07:59:23Z</time>
      </trkpt>
      <trkpt lat="43.75181" lon="3.48618">
        <ele>766.5</ele>
        <time>2015-10-25T07:59:24Z</time>
      </trkpt>
      <trkpt lat="43.75179" lon="3.48619">
        <ele>766.5</ele>
        <time>2015-10-25T07:59:25Z</time>
      </trkpt>
      <trkpt lat="43.75177" lon="3.48619">
        <ele>766.5</ele>
        <time>2015-10-25T07:59:26Z</time>
      </trkpt>
      <trkpt lat="43.75175" lon="3.48619">
        <ele>766.5</ele>
        <time>2015-10-25T07:59:27Z</time>
      </trkpt>
      <trkpt lat="43.75173" lon="3.4862">
        <ele>767</ele>
        <time>2015-10-25T07:59:28Z</time>
      </trkpt>
      <trkpt lat="43.75171" lon="3.48621">
        <ele>767</ele>
        <time>2015-10-25T07:59:29Z</time>
      </trkpt>
      <trkpt lat="43.75169" lon="3.48622">
        <ele>767.5</ele>
        <time>2015-10-25T07:59:30Z</time>
      </trkpt>
      <trkpt lat="43.75167" lon="3.48622">
        <ele>768</ele>
        <time>2015-10-25T07:59:31Z</time>
      </trkpt>
      <trkpt lat="43.75165" lon="3.48624">
        <ele>769</ele>
        <time>2015-10-25T07:59:32Z</time>
      </trkpt>
      <trkpt lat="43.75164" lon="3.48624">
        <ele>769.5</ele>
        <time>2015-10-25T07:59:33Z</time>
      </trkpt>
      <trkpt lat="43.75162" lon="3.48625">
        <ele>770</ele>
        <time>2015-10-25T07:59:34Z</time>
      </trkpt>
      <trkpt lat="43.7516" lon="3.48626">
        <ele>770</ele>
        <time>2015-10-25T07:59:35Z</time>
      </trkpt>
      <trkpt lat="43.75159" lon="3.48626">
        <ele>770.5</ele>
        <time>2015-10-25T07:59:36Z</time>
      </trkpt>
      <trkpt lat="43.75157" lon="3.48627">
        <ele>770.5</ele>
        <time>2015-10-25T07:59:37Z</time>
      </trkpt>
      <trkpt lat="43.75155" lon="3.48627">
        <ele>770.5</ele>
        <time>2015-10-25T07:59:38Z</time>
      </trkpt>
      <trkpt lat="43.75154" lon="3.48628">
        <ele>771</ele>
        <time>2015-10-25T07:59:39Z</time>
      </trkpt>
      <trkpt lat="43.75152" lon="3.4863">
        <ele>772</ele>
        <time>2015-10-25T07:59:40Z</time>
      </trkpt>
      <trkpt lat="43.7515" lon="3.4863">
        <ele>772.5</ele>
        <time>2015-10-25T07:59:41Z</time>
      </trkpt>
      <trkpt lat="43.75148" lon="3.48631">
        <ele>772.5</ele>
        <time>2015-10-25T07:59:42Z</time>
      </trkpt>
      <trkpt lat="43.75146" lon="3.48631">
        <ele>772.5</ele>
        <time>2015-10-25T07:59:43Z</time>
      </trkpt>
      <trkpt lat="43.75145" lon="3.48631">
        <ele>772</ele>
        <time>2015-10-25T07:59:44Z</time>
      </trkpt>
      <trkpt lat="43.75143" lon="3.48631">
        <ele>772</ele>
        <time>2015-10-25T07:59:45Z</time>
      </trkpt>
      <trkpt lat="43.75141" lon="3.48632">
        <ele>772.5</ele>
        <time>2015-10-25T07:59:46Z</time>
      </trkpt>
      <trkpt lat="43.75139" lon="3.48632">
        <ele>772</ele>
        <time>2015-10-25T07:59:47Z</time>
      </trkpt>
      <trkpt lat="43.75138" lon="3.48633">
        <ele>772.5</ele>
        <time>2015-10-25T07:59:48Z</time>
      </trkpt>
      <trkpt lat="43.75136" lon="3.48633">
        <ele>772.5</ele>
        <time>2015-10-25T07:59:49Z</time>
      </trkpt>
      <trkpt lat="43.75134" lon="3.48634">
        <ele>772.5</ele>
        <time>2015-10-25T07:59:50Z</time>
      </trkpt>
      <trkpt lat="43.75132" lon="3.48634">
        <ele>773</ele>
        <time>2015-10-25T07:59:51Z</time>
      </trkpt>
      <trkpt lat="43.75131" lon="3.48634">
        <ele>772.5</ele>
        <time>2015-10-25T07:59:52Z</time>
      </trkpt>
      <trkpt lat="43.75129" lon="3.48634">
        <ele>772.5</ele>
        <time>2015-10-25T07:59:53Z</time>
      </trkpt>
      <trkpt lat="43.75127" lon="3.48635">
        <ele>773</ele>
        <time>2015-10-25T07:59:54Z</time>
      </trkpt>
      <trkpt lat="43.75126" lon="3.48635">
        <ele>773.5</ele>
        <time>2015-10-25T07:59:55Z</time>
      </trkpt>
      <trkpt lat="43.75124" lon="3.48637">
        <ele>774</ele>
        <time>2015-10-25T07:59:56Z</time>
      </trkpt>
      <trkpt lat="43.75122" lon="3.48638">
        <ele>774</ele>
        <time>2015-10-25T07:59:57Z</time>
      </trkpt>
      <trkpt lat="43.75121" lon="3.48639">
        <ele>774.5</ele>
        <time>2015-10-25T07:59:58Z</time>
      </trkpt>
      <trkpt lat="43.75119" lon="3.4864">
        <ele>775</ele>
        <time>2015-10-25T07:59:59Z</time>
      </trkpt>
      <trkpt lat="43.75118" lon="3.48641">
        <ele>775</ele>
        <time>2015-10-25T08:00:00Z</time>
      </trkpt>
      <trkpt lat="43.75116" lon="3.48642">
        <ele>775.5</ele>
        <time>2015-10-25T08:00:01Z</time>
      </trkpt>
      <trkpt lat="43.75115" lon="3.48644">
        <ele>776</ele>
        <time>2015-10-25T08:00:02Z</time>
      </trkpt>
      <trkpt lat="43.75113" lon="3.48645">
        <ele>776</ele>
        <time>2015-10-25T08:00:03Z</time>
      </trkpt>
      <trkpt lat="43.75111" lon="3.48646">
        <ele>776.5</ele>
        <time>2015-10-25T08:00:04Z</time>
      </trkpt>
      <trkpt lat="43.7511" lon="3.48647">
        <ele>776.5</ele>
        <time>2015-10-25T08:00:05Z</time>
      </trkpt>
      <trkpt lat="43.75108" lon="3.48648">
        <ele>777</ele>
        <time>2015-10-25T08:00:06Z</time>
      </trkpt>
      <trkpt lat="43.75106" lon="3.48649">
        <ele>777.5</ele>
        <time>2015-10-25T08:00:07Z</time>
      </trkpt>
      <trkpt lat="43.75104" lon="3.4865">
        <ele>777.5</ele>
        <time>2015-10-25T08:00:08Z</time>
      </trkpt>
      <trkpt lat="43.75103" lon="3.4865">
        <ele>777.5</ele>
        <time>2015-10-25T08:00:09Z</time>
      </trkpt>
      <trkpt lat="43.75101" lon="3.48651">
        <ele>777.5</ele>
        <time>2015-10-25T08:00:10Z</time>
      </trkpt>
      <trkpt lat="43.75099" lon="3.48652">
        <ele>778</ele>
        <time>2015-10-25T08:00:11Z</time>
      </trkpt>
      <trkpt lat="43.75098" lon="3.48653">
        <ele>778</ele>
        <time>2015-10-25T08:00:12Z</time>
      </trkpt>
      <trkpt lat="43.75097" lon="3.48655">
        <ele>778.5</ele>
        <time>2015-10-25T08:00:13Z</time>
      </trkpt>
      <trkpt lat="43.75095" lon="3.48657">
        <ele>779</ele>
        <time>2015-10-25T08:00:14Z</time>
      </trkpt>
      <trkpt lat="43.75094" lon="3.48658">
        <ele>779</ele>
        <time>2015-10-25T08:00:15Z</time>
      </trkpt>
      <trkpt lat="43.75093" lon="3.4866">
        <ele>779.5</ele>
        <time>2015-10-25T08:00:16Z</time>
      </trkpt>
      <trkpt lat="43.75091" lon="3.48662">
        <ele>780</ele>
        <time>2015-10-25T08:00:17Z</time>
      </trkpt>
      <trkpt lat="43.7509" lon="3.48663">
        <ele>780.5</ele>
        <time>2015-10-25T08:00:18Z</time>
      </trkpt>
      <trkpt lat="43.75088" lon="3.48662">
        <ele>779</ele>
        <time>2015-10-25T08:00:19Z</time>
      </trkpt>
      <trkpt lat="43.75087" lon="3.48663">
        <ele>779</ele>
        <time>2015-10-25T08:00:20Z</time>
      </trkpt>
      <trkpt lat="43.75085" lon="3.48664">
        <ele>780</ele>
        <time>2015-10-25T08:00:21Z</time>
      </trkpt>
      <trkpt lat="43.75083" lon="3.48666">
        <ele>781</ele>
        <time>2015-10-25T08:00:22Z</time>
      </trkpt>
      <trkpt lat="43.75082" lon="3.48667">
        <ele>782</ele>
        <time>2015-10-25T08:00:23Z</time>
      </trkpt>
      <trkpt lat="43.75081" lon="3.48668">
        <ele>782.5</ele>
        <time>2015-10-25T08:00:24Z</time>
      </trkpt>
      <trkpt lat="43.75079" lon="3.48669">
        <ele>782.5</ele>
        <time>2015-10-25T08:00:25Z</time>
      </trkpt>
      <trkpt lat="43.75077" lon="3.48669">
        <ele>783</ele>
        <time>2015-10-25T08:00:26Z</time>
      </trkpt>
      <trkpt lat="43.75075" lon="3.4867">
        <ele>783.5</ele>
        <time>2015-10-25T08:00:27Z</time>
      </trkpt>
      <trkpt lat="43.75074" lon="3.48671">
        <ele>783.5</ele>
        <time>2015-10-25T08:00:28Z</time>
      </trkpt>
      <trkpt lat="43.75072" lon="3.48671">
        <ele>783.5</ele>
        <time>2015-10-25T08:00:29Z</time>
      </trkpt>
      <trkpt lat="43.7507" lon="3.48672">
        <ele>784</ele>
        <time>2015-10-25T08:00:30Z</time>
      </trkpt>
      <trkpt lat="43.75069" lon="3.48673">
        <ele>784.5</ele>
        <time>2015-10-25T08:00:31Z</time>
      </trkpt>
      <trkpt lat="43.75067" lon="3.48673">
        <ele>784.5</ele>
        <time>2015-10-25T08:00:32Z</time>
      </trkpt>
      <trkpt lat="43.75065" lon="3.48674">
        <ele>785</ele>
        <time>2015-10-25T08:00:33Z</time>
      </trkpt>
      <trkpt lat="43.75063" lon="3.48674">
        <ele>785</ele>
        <time>2015-10-25T08:00:34Z</time>
      </trkpt>
      <trkpt lat="43.75062" lon="3.48675">
        <ele>785</ele>
        <time>2015-10-25T08:00:35Z</time>
      </trkpt>
      <trkpt lat="43.7506" lon="3.48675">
        <ele>785</ele>
        <time>2015-10-25T08:00:36Z</time>
      </trkpt>
      <trkpt lat="43.75058" lon="3.48675">
        <ele>785</ele>
        <time>2015-10-25T08:00:37Z</time>
      </trkpt>
      <trkpt lat="43.75056" lon="3.48675">
        <ele>785</ele>
        <time>2015-10-25T08:00:38Z</time>
      </trkpt>
      <trkpt lat="43.75054" lon="3.48674">
        <ele>785</ele>
        <time>2015-10-25T08:00:39Z</time>
      </trkpt>
      <trkpt lat="43.75053" lon="3.48674">
        <ele>786</ele>
        <time>2015-10-25T08:00:40Z</time>
      </trkpt>
      <trkpt lat="43.75051" lon="3.48673">
        <ele>786.5</ele>
        <time>2015-10-25T08:00:41Z</time>
      </trkpt>
      <trkpt lat="43.7505" lon="3.48673">
        <ele>786.5</ele>
        <time>2015-10-25T08:00:42Z</time>
      </trkpt>
      <trkpt lat="43.75048" lon="3.48672">
        <ele>787</ele>
        <time>2015-10-25T08:00:43Z</time>
      </trkpt>
      <trkpt lat="43.75047" lon="3.48671">
        <ele>787</ele>
        <time>2015-10-25T08:00:44Z</time>
      </trkpt>
      <trkpt lat="43.75045" lon="3.48671">
        <ele>787.5</ele>
        <time>2015-10-25T08:00:45Z</time>
      </trkpt>
      <trkpt lat="43.75043" lon="3.48671">
        <ele>787.5</ele>
        <time>2015-10-25T08:00:46Z</time>
      </trkpt>
      <trkpt lat="43.75041" lon="3.48671">
        <ele>788</ele>
        <time>2015-10-25T08:00:47Z</time>
      </trkpt>
      <trkpt lat="43.7504" lon="3.48671">
        <ele>788.5</ele>
        <time>2015-10-25T08:00:48Z</time>
      </trkpt>
      <trkpt lat="43.75038" lon="3.48671">
        <ele>789</ele>
        <time>2015-10-25T08:00:49Z</time>
      </trkpt>
      <trkpt lat="43.75036" lon="3.48671">
        <ele>789.5</ele>
        <time>2015-10-25T08:00:50Z</time>
      </trkpt>
      <trkpt lat="43.75034" lon="3.48671">
        <ele>790</ele>
        <time>2015-10-25T08:00:51Z</time>
      </trkpt>
      <trkpt lat="43.75033" lon="3.4867">
        <ele>790</ele>
        <time>2015-10-25T08:00:52Z</time>
      </trkpt>
      <trkpt lat="43.75031" lon="3.48669">
        <ele>790</ele>
        <time>2015-10-25T08:00:53Z</time>
      </trkpt>
      <trkpt lat="43.75029" lon="3.48669">
        <ele>790</ele>
        <time>2015-10-25T08:00:54Z</time>
      </trkpt>
      <trkpt lat="43.75027" lon="3.48669">
        <ele>790.5</ele>
        <time>2015-10-25T08:00:55Z</time>
      </trkpt>
      <trkpt lat="43.75026" lon="3.48669">
        <ele>790.5</ele>
        <time>2015-10-25T08:00:56Z</time>
      </trkpt>
      <trkpt lat="43.75024" lon="3.48669">
        <ele>791</ele>
        <time>2015-10-25T08:00:57Z</time>
      </trkpt>
      <trkpt lat="43.75023" lon="3.48669">
        <ele>792</ele>
        <time>2015-10-25T08:00:58Z</time>
      </trkpt>
      <trkpt lat="43.75021" lon="3.48668">
        <ele>792</ele>
        <time>2015-10-25T08:00:59Z</time>
      </trkpt>
      <trkpt lat="43.75019" lon="3.48668">
        <ele>792</ele>
        <time>2015-10-25T08:01:00Z</time>
      </trkpt>
      <trkpt lat="43.75018" lon="3.48668">
        <ele>792.5</ele>
        <time>2015-10-25T08:01:01Z</time>
      </trkpt>
      <trkpt lat="43.75016" lon="3.48668">
        <ele>793.5</ele>
        <time>2015-10-25T08:01:02Z</time>
      </trkpt>
      <trkpt lat="43.75014" lon="3.48667">
        <ele>794</ele>
        <time>2015-10-25T08:01:03Z</time>
      </trkpt>
      <trkpt lat="43.75012" lon="3.48667">
        <ele>794.5</ele>
        <time>2015-10-25T08:01:04Z</time>
      </trkpt>
      <trkpt lat="43.75011" lon="3.48667">
        <ele>795.5</ele>
        <time>2015-10-25T08:01:05Z</time>
      </trkpt>
      <trkpt lat="43.75009" lon="3.48667">
        <ele>796.5</ele>
        <time>2015-10-25T08:01:06Z</time>
      </trkpt>
      <trkpt lat="43.75007" lon="3.48668">
        <ele>797</ele>
        <time>2015-10-25T08:01:07Z</time>
      </trkpt>
      <trkpt lat="43.75005" lon="3.48668">
        <ele>797.5</ele>
        <time>2015-10-25T08:01:08Z</time>
      </trkpt>
      <trkpt lat="43.75004" lon="3.48668">
        <ele>798</ele>
        <time>2015-10-25T08:01:09Z</time>
      </trkpt>
      <trkpt lat="43.75002" lon="3.48669">
        <ele>798</ele>
        <time>2015-10-25T08:01:10Z</time>
      </trkpt>
      <trkpt lat="43.75" lon="3.48669">
        <ele>798.5</ele>
        <time>2015-10-25T08:01:11Z</time>
      </trkpt>
      <trkpt lat="43.74998" lon="3.48669">
        <ele>798.5</ele>
        <time>2015-10-25T08:01:12Z</time>
      </trkpt>
      <trkpt lat="43.74996" lon="3.4867">
        <ele>799</ele>
        <time>2015-10-25T08:01:13Z</time>
      </trkpt>
      <trkpt lat="43.74994" lon="3.4867">
        <ele>799</ele>
        <time>2015-10-25T08:01:14Z</time>
      </trkpt>
      <trkpt lat="43.74992" lon="3.4867">
        <ele>799.5</ele>
        <time>2015-10-25T08:01:15Z</time>
      </trkpt>
      <trkpt lat="43.7499" lon="3.48671">
        <ele>800</ele>
        <time>2015-10-25T08:01:16Z</time>
      </trkpt>
      <trkpt lat="43.74988" lon="3.48671">
        <ele>800</ele>
        <time>2015-10-25T08:01:17Z</time>
      </trkpt>
      <trkpt lat="43.74987" lon="3.48672">
        <ele>800.5</ele>
        <time>2015-10-25T08:01:18Z</time>
      </trkpt>
      <trkpt lat="43.74985" lon="3.48672">
        <ele>800</ele>
        <time>2015-10-25T08:01:19Z</time>
      </trkpt>
      <trkpt lat="43.74983" lon="3.48672">
        <ele>800.5</ele>
        <time>2015-10-25T08:01:20Z</time>
      </trkpt>
      <trkpt lat="43.74981" lon="3.48672">
        <ele>800</ele>
        <time>2015-10-25T08:01:21Z</time>
      </trkpt>
      <trkpt lat="43.7498" lon="3.48672">
        <ele>799.5</ele>
        <time>2015-10-25T08:01:22Z</time>
      </trkpt>
      <trkpt lat="43.74978" lon="3.48673">
        <ele>799.5</ele>
        <time>2015-10-25T08:01:23Z</time>
      </trkpt>
      <trkpt lat="43.74976" lon="3.48673">
        <ele>799.5</ele>
        <time>2015-10-25T08:01:24Z</time>
      </trkpt>
      <trkpt lat="43.74974" lon="3.48673">
        <ele>799.5</ele>
        <time>2015-10-25T08:01:25Z</time>
      </trkpt>
      <trkpt lat="43.74973" lon="3.48674">
        <ele>799.5</ele>
        <time>2015-10-25T08:01:26Z</time>
      </trkpt>
      <trkpt lat="43.74971" lon="3.48675">
        <ele>799.5</ele>
        <time>2015-10-25T08:01:27Z</time>
      </trkpt>
      <trkpt lat="43.74972" lon="3.48675">
        <ele>801.5</ele>
        <time>2015-10-25T08:01:28Z</time>
      </trkpt>
      <trkpt lat="43.7497" lon="3.48676">
        <ele>801.5</ele>
        <time>2015-10-25T08:01:29Z</time>
      </trkpt>
      <trkpt lat="43.74969" lon="3.48677">
        <ele>801.5</ele>
        <time>2015-10-25T08:01:30Z</time>
      </trkpt>
      <trkpt lat="43.74967" lon="3.48678">
        <ele>801.5</ele>
        <time>2015-10-25T08:01:31Z</time>
      </trkpt>
      <trkpt lat="43.74966" lon="3.48679">
        <ele>801.5</ele>
        <time>2015-10-25T08:01:32Z</time>
      </trkpt>
      <trkpt lat="43.74965" lon="3.4868">
        <ele>802.5</ele>
        <time>2015-10-25T08:01:33Z</time>
      </trkpt>
      <trkpt lat="43.74963" lon="3.48681">
        <ele>802.5</ele>
        <time>2015-10-25T08:01:34Z</time>
      </trkpt>
      <trkpt lat="43.74962" lon="3.48682">
        <ele>803</ele>
        <time>2015-10-25T08:01:35Z</time>
      </trkpt>
      <trkpt lat="43.74961" lon="3.48684">
        <ele>803.5</ele>
        <time>2015-10-25T08:01:36Z</time>
      </trkpt>
      <trkpt lat="43.7496" lon="3.48685">
        <ele>804.5</ele>
        <time>2015-10-25T08:01:37Z</time>
      </trkpt>
      <trkpt lat="43.74959" lon="3.48686">
        <ele>805</ele>
        <time>2015-10-25T08:01:38Z</time>
      </trkpt>
      <trkpt lat="43.74958" lon="3.48688">
        <ele>805</ele>
        <time>2015-10-25T08:01:39Z</time>
      </trkpt>
      <trkpt lat="43.74956" lon="3.48689">
        <ele>805.5</ele>
        <time>2015-10-25T08:01:40Z</time>
      </trkpt>
      <trkpt lat="43.74955" lon="3.4869">
        <ele>805.5</ele>
        <time>2015-10-25T08:01:41Z</time>
      </trkpt>
      <trkpt lat="43.74954" lon="3.48692">
        <ele>806</ele>
        <time>2015-10-25T08:01:42Z</time>
      </trkpt>
      <trkpt lat="43.74953" lon="3.48694">
        <ele>806</ele>
        <time>2015-10-25T08:01:43Z</time>
      </trkpt>
      <trkpt lat="43.74952" lon="3.48696">
        <ele>806.5</ele>
        <time>2015-10-25T08:01:44Z</time>
      </trkpt>
      <trkpt lat="43.74951" lon="3.48698">
        <ele>806.5</ele>
        <time>2015-10-25T08:01:45Z</time>
      </trkpt>
      <trkpt lat="43.74951" lon="3.48699">
        <ele>806.5</ele>
        <time>2015-10-25T08:01:46Z</time>
      </trkpt>
      <trkpt lat="43.7495" lon="3.48701">
        <ele>807</ele>
        <time>2015-10-25T08:01:47Z</time>
      </trkpt>
      <trkpt lat="43.74949" lon="3.48703">
        <ele>806.5</ele>
        <time>2015-10-25T08:01:48Z</time>
      </trkpt>
      <trkpt lat="43.74948" lon="3.48704">
        <ele>806.5</ele>
        <time>2015-10-25T08:01:49Z</time>
      </trkpt>
      <trkpt lat="43.74946" lon="3.48706">
        <ele>806.5</ele>
        <time>2015-10-25T08:01:50Z</time>
      </trkpt>
      <trkpt lat="43.74946" lon="3.48707">
        <ele>807</ele>
        <time>2015-10-25T08:01:51Z</time>
      </trkpt>
      <trkpt lat="43.74945" lon="3.48709">
        <ele>807.5</ele>
        <time>2015-10-25T08:01:52Z</time>
      </trkpt>
      <trkpt lat="43.74944" lon="3.48711">
        <ele>807.5</ele>
        <time>2015-10-25T08:01:53Z</time>
      </trkpt>
      <trkpt lat="43.74944" lon="3.48712">
        <ele>807.5</ele>
        <time>2015-10-25T08:01:54Z</time>
      </trkpt>
      <trkpt lat="43.74942" lon="3.48714">
        <ele>807.5</ele>
        <time>2015-10-25T08:01:55Z</time>
      </trkpt>
      <trkpt lat="43.74941" lon="3.48715">
        <ele>807</ele>
        <time>2015-10-25T08:01:56Z</time>
      </trkpt>
      <trkpt lat="43.7494" lon="3.48716">
        <ele>807</ele>
        <time>2015-10-25T08:01:57Z</time>
      </trkpt>
      <trkpt lat="43.74938" lon="3.48718">
        <ele>807</ele>
        <time>2015-10-25T08:01:58Z</time>
      </trkpt>
      <trkpt lat="43.74937" lon="3.48719">
        <ele>807.5</ele>
        <time>2015-10-25T08:01:59Z</time>
      </trkpt>
      <trkpt lat="43.74937" lon="3.48721">
        <ele>807.5</ele>
        <time>2015-10-25T08:02:00Z</time>
      </trkpt>
      <trkpt lat="43.74936" lon="3.48723">
        <ele>808</ele>
        <time>2015-10-25T08:02:01Z</time>
      </trkpt>
      <trkpt lat="43.74935" lon="3.48725">
        <ele>808.5</ele>
        <time>2015-10-25T08:02:02Z</time>
      </trkpt>
      <trkpt lat="43.74934" lon="3.48727">
        <ele>809</ele>
        <time>2015-10-25T08:02:03Z</time>
      </trkpt>
      <trkpt lat="43.74934" lon="3.48729">
        <ele>809</ele>
        <time>2015-10-25T08:02:04Z</time>
      </trkpt>
      <trkpt lat="43.74933" lon="3.48731">
        <ele>808.5</ele>
        <time>2015-10-25T08:02:05Z</time>
      </trkpt>
      <trkpt lat="43.74932" lon="3.48732">
        <ele>808.5</ele>
        <time>2015-10-25T08:02:06Z</time>
      </trkpt>
      <trkpt lat="43.74931" lon="3.48734">
        <ele>808.5</ele>
        <time>2015-10-25T08:02:07Z</time>
      </trkpt>
      <trkpt lat="43.74931" lon="3.48736">
        <ele>808.5</ele>
        <time>2015-10-25T08:02:07Z</time>
      </trkpt>
      <trkpt lat="43.74931" lon="3.48738">
        <ele>809</ele>
        <time>2015-10-25T08:02:08Z</time>
      </trkpt>
      <trkpt lat="43.74931" lon="3.4874">
        <ele>810</ele>
        <time>2015-10-25T08:02:09Z</time>
      </trkpt>
      <trkpt lat="43.7493" lon="3.48742">
        <ele>810.5</ele>
        <time>2015-10-25T08:02:10Z</time>
      </trkpt>
      <trkpt lat="43.74929" lon="3.48743">
        <ele>810.5</ele>
        <time>2015-10-25T08:02:11Z</time>
      </trkpt>
      <trkpt lat="43.7493" lon="3.48744">
        <ele>810.5</ele>
        <time>2015-10-25T08:02:12Z</time>
      </trkpt>
      <trkpt lat="43.74925" lon="3.48746">
        <ele>810</ele>
        <time>2015-10-25T08:02:14Z</time>
      </trkpt>
      <trkpt lat="43.74924" lon="3.48747">
        <ele>810.5</ele>
        <time>2015-10-25T08:02:15Z</time>
      </trkpt>
      <trkpt lat="43.74923" lon="3.48748">
        <ele>810</ele>
        <time>2015-10-25T08:02:16Z</time>
      </trkpt>
      <trkpt lat="43.74921" lon="3.48749">
        <ele>810</ele>
        <time>2015-10-25T08:02:17Z</time>
      </trkpt>
      <trkpt lat="43.7492" lon="3.48749">
        <ele>810.5</ele>
        <time>2015-10-25T08:02:18Z</time>
      </trkpt>
      <trkpt lat="43.74918" lon="3.4875">
        <ele>811</ele>
        <time>2015-10-25T08:02:19Z</time>
      </trkpt>
      <trkpt lat="43.74917" lon="3.48752">
        <ele>811.5</ele>
        <time>2015-10-25T08:02:20Z</time>
      </trkpt>
      <trkpt lat="43.74915" lon="3.48753">
        <ele>812</ele>
        <time>2015-10-25T08:02:21Z</time>
      </trkpt>
      <trkpt lat="43.74914" lon="3.48753">
        <ele>812.5</ele>
        <time>2015-10-25T08:02:22Z</time>
      </trkpt>
      <trkpt lat="43.74912" lon="3.48754">
        <ele>812.5</ele>
        <time>2015-10-25T08:02:23Z</time>
      </trkpt>
      <trkpt lat="43.7491" lon="3.48755">
        <ele>813</ele>
        <time>2015-10-25T08:02:24Z</time>
      </trkpt>
      <trkpt lat="43.74909" lon="3.48756">
        <ele>813</ele>
        <time>2015-10-25T08:02:25Z</time>
      </trkpt>
      <trkpt lat="43.74907" lon="3.48757">
        <ele>813</ele>
        <time>2015-10-25T08:02:26Z</time>
      </trkpt>
      <trkpt lat="43.74905" lon="3.48758">
        <ele>813.5</ele>
        <time>2015-10-25T08:02:27Z</time>
      </trkpt>
      <trkpt lat="43.74904" lon="3.48759">
        <ele>813.5</ele>
        <time>2015-10-25T08:02:28Z</time>
      </trkpt>
      <trkpt lat="43.74902" lon="3.48759">
        <ele>813.5</ele>
        <time>2015-10-25T08:02:29Z</time>
      </trkpt>
      <trkpt lat="43.749" lon="3.4876">
        <ele>813</ele>
        <time>2015-10-25T08:02:30Z</time>
      </trkpt>
      <trkpt lat="43.74898" lon="3.48761">
        <ele>813</ele>
        <time>2015-10-25T08:02:31Z</time>
      </trkpt>
      <trkpt lat="43.74897" lon="3.48761">
        <ele>812.5</ele>
        <time>2015-10-25T08:02:32Z</time>
      </trkpt>
      <trkpt lat="43.74895" lon="3.48762">
        <ele>812.5</ele>
        <time>2015-10-25T08:02:33Z</time>
      </trkpt>
      <trkpt lat="43.74893" lon="3.48763">
        <ele>812.5</ele>
        <time>2015-10-25T08:02:34Z</time>
      </trkpt>
      <trkpt lat="43.74891" lon="3.48764">
        <ele>812.5</ele>
        <time>2015-10-25T08:02:35Z</time>
      </trkpt>
      <trkpt lat="43.74889" lon="3.48764">
        <ele>812.5</ele>
        <time>2015-10-25T08:02:36Z</time>
      </trkpt>
      <trkpt lat="43.74888" lon="3.48765">
        <ele>813</ele>
        <time>2015-10-25T08:02:37Z</time>
      </trkpt>
      <trkpt lat="43.74886" lon="3.48765">
        <ele>813</ele>
        <time>2015-10-25T08:02:38Z</time>
      </trkpt>
      <trkpt lat="43.74884" lon="3.48765">
        <ele>812.5</ele>
        <time>2015-10-25T08:02:39Z</time>
      </trkpt>
      <trkpt lat="43.74883" lon="3.48766">
        <ele>812</ele>
        <time>2015-10-25T08:02:40Z</time>
      </trkpt>
      <trkpt lat="43.74881" lon="3.48766">
        <ele>812</ele>
        <time>2015-10-25T08:02:41Z</time>
      </trkpt>
      <trkpt lat="43.74879" lon="3.48766">
        <ele>812</ele>
        <time>2015-10-25T08:02:42Z</time>
      </trkpt>
      <trkpt lat="43.74877" lon="3.48767">
        <ele>812.5</ele>
        <time>2015-10-25T08:02:43Z</time>
      </trkpt>
      <trkpt lat="43.74875" lon="3.48766">
        <ele>812</ele>
        <time>2015-10-25T08:02:44Z</time>
      </trkpt>
      <trkpt lat="43.74873" lon="3.48767">
        <ele>813</ele>
        <time>2015-10-25T08:02:45Z</time>
      </trkpt>
      <trkpt lat="43.74872" lon="3.48766">
        <ele>812.5</ele>
        <time>2015-10-25T08:02:46Z</time>
      </trkpt>
      <trkpt lat="43.7487" lon="3.48767">
        <ele>812</ele>
        <time>2015-10-25T08:02:47Z</time>
      </trkpt>
      <trkpt lat="43.74868" lon="3.48766">
        <ele>811.5</ele>
        <time>2015-10-25T08:02:48Z</time>
      </trkpt>
      <trkpt lat="43.74867" lon="3.48766">
        <ele>811</ele>
        <time>2015-10-25T08:02:49Z</time>
      </trkpt>
      <trkpt lat="43.74865" lon="3.48766">
        <ele>810.5</ele>
        <time>2015-10-25T08:02:50Z</time>
      </trkpt>
      <trkpt lat="43.74864" lon="3.48767">
        <ele>810</ele>
        <time>2015-10-25T08:02:51Z</time>
      </trkpt>
      <trkpt lat="43.74862" lon="3.48767">
        <ele>810</ele>
        <time>2015-10-25T08:02:52Z</time>
      </trkpt>
      <trkpt lat="43.74861" lon="3.48768">
        <ele>810</ele>
        <time>2015-10-25T08:02:53Z</time>
      </trkpt>
      <trkpt lat="43.74859" lon="3.48768">
        <ele>810.5</ele>
        <time>2015-10-25T08:02:54Z</time>
      </trkpt>
      <trkpt lat="43.74858" lon="3.48769">
        <ele>810.5</ele>
        <time>2015-10-25T08:02:55Z</time>
      </trkpt>
      <trkpt lat="43.74856" lon="3.48769">
        <ele>810.5</ele>
        <time>2015-10-25T08:02:56Z</time>
      </trkpt>
      <trkpt lat="43.74855" lon="3.4877">
        <ele>810.5</ele>
        <time>2015-10-25T08:02:57Z</time>
      </trkpt>
      <trkpt lat="43.74853" lon="3.4877">
        <ele>810</ele>
        <time>2015-10-25T08:02:58Z</time>
      </trkpt>
      <trkpt lat="43.74852" lon="3.48771">
        <ele>809.5</ele>
        <time>2015-10-25T08:02:59Z</time>
      </trkpt>
      <trkpt lat="43.7485" lon="3.48771">
        <ele>809.5</ele>
        <time>2015-10-25T08:03:00Z</time>
      </trkpt>
      <trkpt lat="43.74849" lon="3.48771">
        <ele>809.5</ele>
        <time>2015-10-25T08:03:01Z</time>
      </trkpt>
      <trkpt lat="43.74847" lon="3.48772">
        <ele>810</ele>
        <time>2015-10-25T08:03:02Z</time>
      </trkpt>
      <trkpt lat="43.74845" lon="3.48772">
        <ele>811</ele>
        <time>2015-10-25T08:03:03Z</time>
      </trkpt>
      <trkpt lat="43.74843" lon="3.48772">
        <ele>811.5</ele>
        <time>2015-10-25T08:03:04Z</time>
      </trkpt>
      <trkpt lat="43.74841" lon="3.48773">
        <ele>812.5</ele>
        <time>2015-10-25T08:03:05Z</time>
      </trkpt>
      <trkpt lat="43.74839" lon="3.48773">
        <ele>813</ele>
        <time>2015-10-25T08:03:06Z</time>
      </trkpt>
      <trkpt lat="43.74837" lon="3.48773">
        <ele>813.5</ele>
        <time>2015-10-25T08:03:07Z</time>
      </trkpt>
      <trkpt lat="43.74835" lon="3.48774">
        <ele>814</ele>
        <time>2015-10-25T08:03:08Z</time>
      </trkpt>
      <trkpt lat="43.74832" lon="3.48774">
        <ele>814</ele>
        <time>2015-10-25T08:03:09Z</time>
      </trkpt>
      <trkpt lat="43.7483" lon="3.48774">
        <ele>814.5</ele>
        <time>2015-10-25T08:03:10Z</time>
      </trkpt>
      <trkpt lat="43.74829" lon="3.48773">
        <ele>814</ele>
        <time>2015-10-25T08:03:11Z</time>
      </trkpt>
      <trkpt lat="43.74827" lon="3.48773">
        <ele>814</ele>
        <time>2015-10-25T08:03:12Z</time>
      </trkpt>
      <trkpt lat="43.74825" lon="3.48773">
        <ele>814</ele>
        <time>2015-10-25T08:03:13Z</time>
      </trkpt>
      <trkpt lat="43.74823" lon="3.48773">
        <ele>814.5</ele>
        <time>2015-10-25T08:03:14Z</time>
      </trkpt>
      <trkpt lat="43.74821" lon="3.48772">
        <ele>814.5</ele>
        <time>2015-10-25T08:03:15Z</time>
      </trkpt>
      <trkpt lat="43.7482" lon="3.48773">
        <ele>815</ele>
        <time>2015-10-25T08:03:16Z</time>
      </trkpt>
      <trkpt lat="43.74818" lon="3.48773">
        <ele>815.5</ele>
        <time>2015-10-25T08:03:17Z</time>
      </trkpt>
      <trkpt lat="43.74816" lon="3.48773">
        <ele>815.5</ele>
        <time>2015-10-25T08:03:18Z</time>
      </trkpt>
      <trkpt lat="43.74814" lon="3.48773">
        <ele>815.5</ele>
        <time>2015-10-25T08:03:19Z</time>
      </trkpt>
      <trkpt lat="43.74812" lon="3.48773">
        <ele>816</ele>
        <time>2015-10-25T08:03:20Z</time>
      </trkpt>
      <trkpt lat="43.74811" lon="3.48773">
        <ele>816</ele>
        <time>2015-10-25T08:03:21Z</time>
      </trkpt>
      <trkpt lat="43.74809" lon="3.48772">
        <ele>816</ele>
        <time>2015-10-25T08:03:22Z</time>
      </trkpt>
      <trkpt lat="43.74807" lon="3.48771">
        <ele>816</ele>
        <time>2015-10-25T08:03:23Z</time>
      </trkpt>
      <trkpt lat="43.74806" lon="3.48771">
        <ele>816.5</ele>
        <time>2015-10-25T08:03:24Z</time>
      </trkpt>
      <trkpt lat="43.74804" lon="3.4877">
        <ele>816.5</ele>
        <time>2015-10-25T08:03:25Z</time>
      </trkpt>
      <trkpt lat="43.74802" lon="3.48769">
        <ele>817</ele>
        <time>2015-10-25T08:03:26Z</time>
      </trkpt>
      <trkpt lat="43.74801" lon="3.48768">
        <ele>817</ele>
        <time>2015-10-25T08:03:27Z</time>
      </trkpt>
      <trkpt lat="43.74799" lon="3.48768">
        <ele>817.5</ele>
        <time>2015-10-25T08:03:28Z</time>
      </trkpt>
      <trkpt lat="43.74797" lon="3.48767">
        <ele>818</ele>
        <time>2015-10-25T08:03:29Z</time>
      </trkpt>
      <trkpt lat="43.74796" lon="3.48766">
        <ele>818</ele>
        <time>2015-10-25T08:03:30Z</time>
      </trkpt>
      <trkpt lat="43.74794" lon="3.48766">
        <ele>818.5</ele>
        <time>2015-10-25T08:03:31Z</time>
      </trkpt>
      <trkpt lat="43.74793" lon="3.48765">
        <ele>819</ele>
        <time>2015-10-25T08:03:32Z</time>
      </trkpt>
      <trkpt lat="43.74791" lon="3.48765">
        <ele>819.5</ele>
        <time>2015-10-25T08:03:33Z</time>
      </trkpt>
      <trkpt lat="43.74789" lon="3.48764">
        <ele>820.5</ele>
        <time>2015-10-25T08:03:34Z</time>
      </trkpt>
      <trkpt lat="43.74787" lon="3.48763">
        <ele>820.5</ele>
        <time>2015-10-25T08:03:35Z</time>
      </trkpt>
      <trkpt lat="43.74786" lon="3.48763">
        <ele>821.5</ele>
        <time>2015-10-25T08:03:36Z</time>
      </trkpt>
      <trkpt lat="43.74784" lon="3.48761">
        <ele>821.5</ele>
        <time>2015-10-25T08:03:37Z</time>
      </trkpt>
      <trkpt lat="43.74783" lon="3.48761">
        <ele>822.5</ele>
        <time>2015-10-25T08:03:38Z</time>
      </trkpt>
      <trkpt lat="43.74781" lon="3.4876">
        <ele>822.5</ele>
        <time>2015-10-25T08:03:39Z</time>
      </trkpt>
      <trkpt lat="43.7478" lon="3.4876">
        <ele>823.5</ele>
        <time>2015-10-25T08:03:40Z</time>
      </trkpt>
      <trkpt lat="43.74778" lon="3.48759">
        <ele>824</ele>
        <time>2015-10-25T08:03:41Z</time>
      </trkpt>
      <trkpt lat="43.74777" lon="3.48758">
        <ele>824</ele>
        <time>2015-10-25T08:03:42Z</time>
      </trkpt>
      <trkpt lat="43.74775" lon="3.48757">
        <ele>824.5</ele>
        <time>2015-10-25T08:03:43Z</time>
      </trkpt>
      <trkpt lat="43.74773" lon="3.48756">
        <ele>825</ele>
        <time>2015-10-25T08:03:44Z</time>
      </trkpt>
      <trkpt lat="43.74772" lon="3.48756">
        <ele>825.5</ele>
        <time>2015-10-25T08:03:45Z</time>
      </trkpt>
      <trkpt lat="43.7477" lon="3.48755">
        <ele>826.5</ele>
        <time>2015-10-25T08:03:46Z</time>
      </trkpt>
      <trkpt lat="43.74768" lon="3.48754">
        <ele>826.5</ele>
        <time>2015-10-25T08:03:47Z</time>
      </trkpt>
      <trkpt lat="43.74767" lon="3.48753">
        <ele>827</ele>
        <time>2015-10-25T08:03:48Z</time>
      </trkpt>
      <trkpt lat="43.74765" lon="3.48752">
        <ele>827.5</ele>
        <time>2015-10-25T08:03:49Z</time>
      </trkpt>
      <trkpt lat="43.74763" lon="3.48751">
        <ele>828.5</ele>
        <time>2015-10-25T08:03:50Z</time>
      </trkpt>
      <trkpt lat="43.74762" lon="3.4875">
        <ele>829</ele>
        <time>2015-10-25T08:03:51Z</time>
      </trkpt>
      <trkpt lat="43.7476" lon="3.48749">
        <ele>829.5</ele>
        <time>2015-10-25T08:03:52Z</time>
      </trkpt>
      <trkpt lat="43.74759" lon="3.48747">
        <ele>829.5</ele>
        <time>2015-10-25T08:03:53Z</time>
      </trkpt>
      <trkpt lat="43.74757" lon="3.48747">
        <ele>830</ele>
        <time>2015-10-25T08:03:54Z</time>
      </trkpt>
      <trkpt lat="43.74755" lon="3.48746">
        <ele>831</ele>
        <time>2015-10-25T08:03:55Z</time>
      </trkpt>
      <trkpt lat="43.74754" lon="3.48745">
        <ele>831.5</ele>
        <time>2015-10-25T08:03:56Z</time>
      </trkpt>
      <trkpt lat="43.74752" lon="3.48744">
        <ele>832</ele>
        <time>2015-10-25T08:03:57Z</time>
      </trkpt>
      <trkpt lat="43.74751" lon="3.48743">
        <ele>833</ele>
        <time>2015-10-25T08:03:58Z</time>
      </trkpt>
      <trkpt lat="43.7475" lon="3.48742">
        <ele>833</ele>
        <time>2015-10-25T08:03:59Z</time>
      </trkpt>
      <trkpt lat="43.74748" lon="3.48741">
        <ele>833.5</ele>
        <time>2015-10-25T08:04:00Z</time>
      </trkpt>
      <trkpt lat="43.74747" lon="3.4874">
        <ele>834.5</ele>
        <time>2015-10-25T08:04:01Z</time>
      </trkpt>
      <trkpt lat="43.74745" lon="3.48739">
        <ele>835.5</ele>
        <time>2015-10-25T08:04:02Z</time>
      </trkpt>
      <trkpt lat="43.74744" lon="3.48738">
        <ele>836</ele>
        <time>2015-10-25T08:04:03Z</time>
      </trkpt>
      <trkpt lat="43.74743" lon="3.48737">
        <ele>836</ele>
        <time>2015-10-25T08:04:04Z</time>
      </trkpt>
      <trkpt lat="43.74741" lon="3.48736">
        <ele>836.5</ele>
        <time>2015-10-25T08:04:05Z</time>
      </trkpt>
      <trkpt lat="43.7474" lon="3.48735">
        <ele>836.5</ele>
        <time>2015-10-25T08:04:06Z</time>
      </trkpt>
      <trkpt lat="43.74738" lon="3.48734">
        <ele>836.5</ele>
        <time>2015-10-25T08:04:07Z</time>
      </trkpt>
      <trkpt lat="43.74737" lon="3.48733">
        <ele>836.5</ele>
        <time>2015-10-25T08:04:08Z</time>
      </trkpt>
      <trkpt lat="43.74735" lon="3.48732">
        <ele>837</ele>
        <time>2015-10-25T08:04:09Z</time>
      </trkpt>
      <trkpt lat="43.74733" lon="3.4873">
        <ele>837</ele>
        <time>2015-10-25T08:04:10Z</time>
      </trkpt>
      <trkpt lat="43.74731" lon="3.48729">
        <ele>837.5</ele>
        <time>2015-10-25T08:04:11Z</time>
      </trkpt>
      <trkpt lat="43.7473" lon="3.48728">
        <ele>838</ele>
        <time>2015-10-25T08:04:12Z</time>
      </trkpt>
      <trkpt lat="43.74728" lon="3.48727">
        <ele>838.5</ele>
        <time>2015-10-25T08:04:13Z</time>
      </trkpt>
      <trkpt lat="43.74727" lon="3.48725">
        <ele>838.5</ele>
        <time>2015-10-25T08:04:14Z</time>
      </trkpt>
      <trkpt lat="43.74725" lon="3.48723">
        <ele>838.5</ele>
        <time>2015-10-25T08:04:15Z</time>
      </trkpt>
      <trkpt lat="43.74724" lon="3.48722">
        <ele>838.5</ele>
        <time>2015-10-25T08:04:16Z</time>
      </trkpt>
      <trkpt lat="43.74722" lon="3.4872">
        <ele>839</ele>
        <time>2015-10-25T08:04:17Z</time>
      </trkpt>
      <trkpt lat="43.74721" lon="3.48719">
        <ele>839</ele>
        <time>2015-10-25T08:04:18Z</time>
      </trkpt>
      <trkpt lat="43.7472" lon="3.48717">
        <ele>839.5</ele>
        <time>2015-10-25T08:04:19Z</time>
      </trkpt>
      <trkpt lat="43.74718" lon="3.48715">
        <ele>840.5</ele>
        <time>2015-10-25T08:04:20Z</time>
      </trkpt>
      <trkpt lat="43.74717" lon="3.48714">
        <ele>841.5</ele>
        <time>2015-10-25T08:04:21Z</time>
      </trkpt>
      <trkpt lat="43.74716" lon="3.48711">
        <ele>841.5</ele>
        <time>2015-10-25T08:04:22Z</time>
      </trkpt>
      <trkpt lat="43.74715" lon="3.48709">
        <ele>841.5</ele>
        <time>2015-10-25T08:04:23Z</time>
      </trkpt>
      <trkpt lat="43.74714" lon="3.48707">
        <ele>842</ele>
        <time>2015-10-25T08:04:24Z</time>
      </trkpt>
      <trkpt lat="43.74714" lon="3.48704">
        <ele>842.5</ele>
        <time>2015-10-25T08:04:25Z</time>
      </trkpt>
      <trkpt lat="43.74714" lon="3.48702">
        <ele>843</ele>
        <time>2015-10-25T08:04:26Z</time>
      </trkpt>
      <trkpt lat="43.74713" lon="3.48699">
        <ele>844</ele>
        <time>2015-10-25T08:04:27Z</time>
      </trkpt>
      <trkpt lat="43.74712" lon="3.48697">
        <ele>845</ele>
        <time>2015-10-25T08:04:28Z</time>
      </trkpt>
      <trkpt lat="43.74711" lon="3.48694">
        <ele>845</ele>
        <time>2015-10-25T08:04:29Z</time>
      </trkpt>
      <trkpt lat="43.74711" lon="3.48692">
        <ele>845.5</ele>
        <time>2015-10-25T08:04:30Z</time>
      </trkpt>
      <trkpt lat="43.7471" lon="3.48689">
        <ele>845</ele>
        <time>2015-10-25T08:04:31Z</time>
      </trkpt>
      <trkpt lat="43.74709" lon="3.48687">
        <ele>845.5</ele>
        <time>2015-10-25T08:04:32Z</time>
      </trkpt>
      <trkpt lat="43.74709" lon="3.48685">
        <ele>846.5</ele>
        <time>2015-10-25T08:04:33Z</time>
      </trkpt>
      <trkpt lat="43.74708" lon="3.48682">
        <ele>847</ele>
        <time>2015-10-25T08:04:34Z</time>
      </trkpt>
      <trkpt lat="43.74707" lon="3.4868">
        <ele>847</ele>
        <time>2015-10-25T08:04:35Z</time>
      </trkpt>
      <trkpt lat="43.74706" lon="3.48679">
        <ele>849.5</ele>
        <time>2015-10-25T08:04:36Z</time>
      </trkpt>
      <trkpt lat="43.74705" lon="3.48677">
        <ele>850</ele>
        <time>2015-10-25T08:04:37Z</time>
      </trkpt>
      <trkpt lat="43.74704" lon="3.48674">
        <ele>850</ele>
        <time>2015-10-25T08:04:38Z</time>
      </trkpt>
      <trkpt lat="43.74703" lon="3.48672">
        <ele>850</ele>
        <time>2015-10-25T08:04:39Z</time>
      </trkpt>
      <trkpt lat="43.74702" lon="3.48669">
        <ele>850.5</ele>
        <time>2015-10-25T08:04:40Z</time>
      </trkpt>
      <trkpt lat="43.74701" lon="3.48667">
        <ele>851</ele>
        <time>2015-10-25T08:04:41Z</time>
      </trkpt>
      <trkpt lat="43.747" lon="3.48665">
        <ele>851</ele>
        <time>2015-10-25T08:04:42Z</time>
      </trkpt>
      <trkpt lat="43.74699" lon="3.48662">
        <ele>851</ele>
        <time>2015-10-25T08:04:43Z</time>
      </trkpt>
      <trkpt lat="43.74698" lon="3.48661">
        <ele>851.5</ele>
        <time>2015-10-25T08:04:44Z</time>
      </trkpt>
      <trkpt lat="43.74696" lon="3.4866">
        <ele>852</ele>
        <time>2015-10-25T08:04:45Z</time>
      </trkpt>
      <trkpt lat="43.74694" lon="3.48659">
        <ele>852.5</ele>
        <time>2015-10-25T08:04:46Z</time>
      </trkpt>
      <trkpt lat="43.74693" lon="3.48657">
        <ele>852.5</ele>
        <time>2015-10-25T08:04:47Z</time>
      </trkpt>
      <trkpt lat="43.74691" lon="3.48656">
        <ele>852.5</ele>
        <time>2015-10-25T08:04:48Z</time>
      </trkpt>
      <trkpt lat="43.74689" lon="3.48655">
        <ele>852.5</ele>
        <time>2015-10-25T08:04:49Z</time>
      </trkpt>
      <trkpt lat="43.74688" lon="3.48653">
        <ele>852.5</ele>
        <time>2015-10-25T08:04:50Z</time>
      </trkpt>
      <trkpt lat="43.74686" lon="3.48652">
        <ele>852.5</ele>
        <time>2015-10-25T08:04:51Z</time>
      </trkpt>
      <trkpt lat="43.74685" lon="3.48651">
        <ele>852.5</ele>
        <time>2015-10-25T08:04:52Z</time>
      </trkpt>
      <trkpt lat="43.74683" lon="3.4865">
        <ele>852.5</ele>
        <time>2015-10-25T08:04:53Z</time>
      </trkpt>
      <trkpt lat="43.74682" lon="3.48649">
        <ele>852.5</ele>
        <time>2015-10-25T08:04:54Z</time>
      </trkpt>
      <trkpt lat="43.7468" lon="3.48647">
        <ele>852</ele>
        <time>2015-10-25T08:04:55Z</time>
      </trkpt>
      <trkpt lat="43.74678" lon="3.48646">
        <ele>852</ele>
        <time>2015-10-25T08:04:56Z</time>
      </trkpt>
      <trkpt lat="43.74676" lon="3.48645">
        <ele>852</ele>
        <time>2015-10-25T08:04:57Z</time>
      </trkpt>
      <trkpt lat="43.74675" lon="3.48644">
        <ele>852</ele>
        <time>2015-10-25T08:04:58Z</time>
      </trkpt>
      <trkpt lat="43.74673" lon="3.48642">
        <ele>852</ele>
        <time>2015-10-25T08:04:59Z</time>
      </trkpt>
      <trkpt lat="43.74671" lon="3.48641">
        <ele>852</ele>
        <time>2015-10-25T08:05:00Z</time>
      </trkpt>
      <trkpt lat="43.7467" lon="3.4864">
        <ele>852</ele>
        <time>2015-10-25T08:05:01Z</time>
      </trkpt>
      <trkpt lat="43.74668" lon="3.48638">
        <ele>851.5</ele>
        <time>2015-10-25T08:05:02Z</time>
      </trkpt>
      <trkpt lat="43.74666" lon="3.48637">
        <ele>852</ele>
        <time>2015-10-25T08:05:03Z</time>
      </trkpt>
      <trkpt lat="43.74665" lon="3.48636">
        <ele>852</ele>
        <time>2015-10-25T08:05:04Z</time>
      </trkpt>
      <trkpt lat="43.74663" lon="3.48634">
        <ele>851.5</ele>
        <time>2015-10-25T08:05:05Z</time>
      </trkpt>
      <trkpt lat="43.74662" lon="3.48633">
        <ele>851.5</ele>
        <time>2015-10-25T08:05:06Z</time>
      </trkpt>
      <trkpt lat="43.7466" lon="3.48632">
        <ele>852</ele>
        <time>2015-10-25T08:05:07Z</time>
      </trkpt>
      <trkpt lat="43.74659" lon="3.4863">
        <ele>852</ele>
        <time>2015-10-25T08:05:08Z</time>
      </trkpt>
      <trkpt lat="43.74658" lon="3.48627">
        <ele>850</ele>
        <time>2015-10-25T08:05:09Z</time>
      </trkpt>
      <trkpt lat="43.74656" lon="3.48626">
        <ele>850</ele>
        <time>2015-10-25T08:05:10Z</time>
      </trkpt>
      <trkpt lat="43.74655" lon="3.48625">
        <ele>850</ele>
        <time>2015-10-25T08:05:11Z</time>
      </trkpt>
      <trkpt lat="43.74653" lon="3.48623">
        <ele>850</ele>
        <time>2015-10-25T08:05:12Z</time>
      </trkpt>
      <trkpt lat="43.74652" lon="3.48622">
        <ele>850</ele>
        <time>2015-10-25T08:05:13Z</time>
      </trkpt>
      <trkpt lat="43.7465" lon="3.4862">
        <ele>850</ele>
        <time>2015-10-25T08:05:14Z</time>
      </trkpt>
      <trkpt lat="43.74649" lon="3.48619">
        <ele>850</ele>
        <time>2015-10-25T08:05:15Z</time>
      </trkpt>
      <trkpt lat="43.74647" lon="3.48618">
        <ele>850</ele>
        <time>2015-10-25T08:05:16Z</time>
      </trkpt>
      <trkpt lat="43.74645" lon="3.48617">
        <ele>850.5</ele>
        <time>2015-10-25T08:05:17Z</time>
      </trkpt>
      <trkpt lat="43.74644" lon="3.48617">
        <ele>851</ele>
        <time>2015-10-25T08:05:18Z</time>
      </trkpt>
      <trkpt lat="43.74642" lon="3.48615">
        <ele>851</ele>
        <time>2015-10-25T08:05:19Z</time>
      </trkpt>
      <trkpt lat="43.74641" lon="3.48614">
        <ele>851.5</ele>
        <time>2015-10-25T08:05:20Z</time>
      </trkpt>
      <trkpt lat="43.74639" lon="3.48612">
        <ele>851.5</ele>
        <time>2015-10-25T08:05:20Z</time>
      </trkpt>
      <trkpt lat="43.74638" lon="3.48611">
        <ele>852</ele>
        <time>2015-10-25T08:05:21Z</time>
      </trkpt>
      <trkpt lat="43.74636" lon="3.48609">
        <ele>852</ele>
        <time>2015-10-25T08:05:22Z</time>
      </trkpt>
      <trkpt lat="43.74635" lon="3.48608">
        <ele>852.5</ele>
        <time>2015-10-25T08:05:23Z</time>
      </trkpt>
      <trkpt lat="43.74633" lon="3.48606">
        <ele>852.5</ele>
        <time>2015-10-25T08:05:24Z</time>
      </trkpt>
      <trkpt lat="43.74632" lon="3.48604">
        <ele>853</ele>
        <time>2015-10-25T08:05:25Z</time>
      </trkpt>
      <trkpt lat="43.7463" lon="3.48602">
        <ele>853</ele>
        <time>2015-10-25T08:05:26Z</time>
      </trkpt>
      <trkpt lat="43.74629" lon="3.48601">
        <ele>853.5</ele>
        <time>2015-10-25T08:05:27Z</time>
      </trkpt>
      <trkpt lat="43.74627" lon="3.48599">
        <ele>853.5</ele>
        <time>2015-10-25T08:05:28Z</time>
      </trkpt>
      <trkpt lat="43.74626" lon="3.48598">
        <ele>854</ele>
        <time>2015-10-25T08:05:29Z</time>
      </trkpt>
      <trkpt lat="43.74624" lon="3.48596">
        <ele>854</ele>
        <time>2015-10-25T08:05:30Z</time>
      </trkpt>
      <trkpt lat="43.74623" lon="3.48595">
        <ele>854.5</ele>
        <time>2015-10-25T08:05:31Z</time>
      </trkpt>
      <trkpt lat="43.74621" lon="3.48594">
        <ele>855</ele>
        <time>2015-10-25T08:05:32Z</time>
      </trkpt>
      <trkpt lat="43.74619" lon="3.48593">
        <ele>855.5</ele>
        <time>2015-10-25T08:05:33Z</time>
      </trkpt>
      <trkpt lat="43.74618" lon="3.48592">
        <ele>855.5</ele>
        <time>2015-10-25T08:05:34Z</time>
      </trkpt>
      <trkpt lat="43.74616" lon="3.48591">
        <ele>856</ele>
        <time>2015-10-25T08:05:35Z</time>
      </trkpt>
      <trkpt lat="43.74614" lon="3.4859">
        <ele>856</ele>
        <time>2015-10-25T08:05:36Z</time>
      </trkpt>
      <trkpt lat="43.74613" lon="3.48589">
        <ele>856</ele>
        <time>2015-10-25T08:05:37Z</time>
      </trkpt>
      <trkpt lat="43.74611" lon="3.48589">
        <ele>856.5</ele>
        <time>2015-10-25T08:05:38Z</time>
      </trkpt>
      <trkpt lat="43.74609" lon="3.48588">
        <ele>857</ele>
        <time>2015-10-25T08:05:39Z</time>
      </trkpt>
      <trkpt lat="43.74607" lon="3.48587">
        <ele>857</ele>
        <time>2015-10-25T08:05:40Z</time>
      </trkpt>
      <trkpt lat="43.74606" lon="3.48587">
        <ele>857.5</ele>
        <time>2015-10-25T08:05:41Z</time>
      </trkpt>
      <trkpt lat="43.74604" lon="3.48586">
        <ele>857</ele>
        <time>2015-10-25T08:05:42Z</time>
      </trkpt>
      <trkpt lat="43.74602" lon="3.48585">
        <ele>857.5</ele>
        <time>2015-10-25T08:05:43Z</time>
      </trkpt>
      <trkpt lat="43.746" lon="3.48584">
        <ele>857.5</ele>
        <time>2015-10-25T08:05:44Z</time>
      </trkpt>
      <trkpt lat="43.74598" lon="3.48584">
        <ele>858</ele>
        <time>2015-10-25T08:05:45Z</time>
      </trkpt>
      <trkpt lat="43.74597" lon="3.48584">
        <ele>858.5</ele>
        <time>2015-10-25T08:05:46Z</time>
      </trkpt>
      <trkpt lat="43.74595" lon="3.48583">
        <ele>858.5</ele>
        <time>2015-10-25T08:05:48Z</time>
      </trkpt>
      <trkpt lat="43.74593" lon="3.48583">
        <ele>858.5</ele>
        <time>2015-10-25T08:05:48Z</time>
      </trkpt>
      <trkpt lat="43.74592" lon="3.48582">
        <ele>858.5</ele>
        <time>2015-10-25T08:05:49Z</time>
      </trkpt>
      <trkpt lat="43.7459" lon="3.48582">
        <ele>859</ele>
        <time>2015-10-25T08:05:50Z</time>
      </trkpt>
      <trkpt lat="43.74588" lon="3.48581">
        <ele>859</ele>
        <time>2015-10-25T08:05:51Z</time>
      </trkpt>
      <trkpt lat="43.74587" lon="3.48581">
        <ele>859.5</ele>
        <time>2015-10-25T08:05:52Z</time>
      </trkpt>
      <trkpt lat="43.74585" lon="3.4858">
        <ele>859.5</ele>
        <time>2015-10-25T08:05:53Z</time>
      </trkpt>
      <trkpt lat="43.74584" lon="3.48579">
        <ele>859.5</ele>
        <time>2015-10-25T08:05:54Z</time>
      </trkpt>
      <trkpt lat="43.74582" lon="3.48579">
        <ele>859.5</ele>
        <time>2015-10-25T08:05:55Z</time>
      </trkpt>
      <trkpt lat="43.74581" lon="3.48578">
        <ele>859.5</ele>
        <time>2015-10-25T08:05:56Z</time>
      </trkpt>
      <trkpt lat="43.74579" lon="3.48578">
        <ele>860</ele>
        <time>2015-10-25T08:05:57Z</time>
      </trkpt>
      <trkpt lat="43.74578" lon="3.48577">
        <ele>859.5</ele>
        <time>2015-10-25T08:05:58Z</time>
      </trkpt>
      <trkpt lat="43.74576" lon="3.48577">
        <ele>860</ele>
        <time>2015-10-25T08:05:59Z</time>
      </trkpt>
      <trkpt lat="43.74575" lon="3.48576">
        <ele>860</ele>
        <time>2015-10-25T08:06:00Z</time>
      </trkpt>
      <trkpt lat="43.74573" lon="3.48576">
        <ele>860</ele>
        <time>2015-10-25T08:06:01Z</time>
      </trkpt>
      <trkpt lat="43.74572" lon="3.48576">
        <ele>860</ele>
        <time>2015-10-25T08:06:02Z</time>
      </trkpt>
      <trkpt lat="43.7457" lon="3.48575">
        <ele>860</ele>
        <time>2015-10-25T08:06:03Z</time>
      </trkpt>
      <trkpt lat="43.74569" lon="3.48575">
        <ele>860.5</ele>
        <time>2015-10-25T08:06:04Z</time>
      </trkpt>
      <trkpt lat="43.74568" lon="3.48574">
        <ele>860</ele>
        <time>2015-10-25T08:06:05Z</time>
      </trkpt>
      <trkpt lat="43.74566" lon="3.48573">
        <ele>860</ele>
        <time>2015-10-25T08:06:06Z</time>
      </trkpt>
      <trkpt lat="43.74565" lon="3.48573">
        <ele>860.5</ele>
        <time>2015-10-25T08:06:07Z</time>
      </trkpt>
      <trkpt lat="43.74563" lon="3.48572">
        <ele>860.5</ele>
        <time>2015-10-25T08:06:08Z</time>
      </trkpt>
      <trkpt lat="43.74562" lon="3.48572">
        <ele>861</ele>
        <time>2015-10-25T08:06:09Z</time>
      </trkpt>
      <trkpt lat="43.74561" lon="3.48571">
        <ele>860.5</ele>
        <time>2015-10-25T08:06:10Z</time>
      </trkpt>
      <trkpt lat="43.74559" lon="3.48571">
        <ele>860.5</ele>
        <time>2015-10-25T08:06:11Z</time>
      </trkpt>
      <trkpt lat="43.74558" lon="3.4857">
        <ele>860.5</ele>
        <time>2015-10-25T08:06:12Z</time>
      </trkpt>
      <trkpt lat="43.74556" lon="3.4857">
        <ele>860.5</ele>
        <time>2015-10-25T08:06:13Z</time>
      </trkpt>
      <trkpt lat="43.74555" lon="3.48569">
        <ele>860.5</ele>
        <time>2015-10-25T08:06:14Z</time>
      </trkpt>
      <trkpt lat="43.74553" lon="3.48569">
        <ele>861</ele>
        <time>2015-10-25T08:06:15Z</time>
      </trkpt>
      <trkpt lat="43.74552" lon="3.48569">
        <ele>861</ele>
        <time>2015-10-25T08:06:16Z</time>
      </trkpt>
      <trkpt lat="43.74551" lon="3.48568">
        <ele>861.5</ele>
        <time>2015-10-25T08:06:17Z</time>
      </trkpt>
      <trkpt lat="43.74549" lon="3.48568">
        <ele>861.5</ele>
        <time>2015-10-25T08:06:18Z</time>
      </trkpt>
      <trkpt lat="43.74548" lon="3.48568">
        <ele>862</ele>
        <time>2015-10-25T08:06:19Z</time>
      </trkpt>
      <trkpt lat="43.74546" lon="3.48567">
        <ele>862.5</ele>
        <time>2015-10-25T08:06:20Z</time>
      </trkpt>
      <trkpt lat="43.74545" lon="3.48567">
        <ele>862.5</ele>
        <time>2015-10-25T08:06:21Z</time>
      </trkpt>
      <trkpt lat="43.74543" lon="3.48566">
        <ele>863</ele>
        <time>2015-10-25T08:06:22Z</time>
      </trkpt>
      <trkpt lat="43.74542" lon="3.48566">
        <ele>863.5</ele>
        <time>2015-10-25T08:06:23Z</time>
      </trkpt>
      <trkpt lat="43.74541" lon="3.48566">
        <ele>864</ele>
        <time>2015-10-25T08:06:24Z</time>
      </trkpt>
      <trkpt lat="43.74539" lon="3.48565">
        <ele>864.5</ele>
        <time>2015-10-25T08:06:25Z</time>
      </trkpt>
      <trkpt lat="43.74538" lon="3.48564">
        <ele>864.5</ele>
        <time>2015-10-25T08:06:26Z</time>
      </trkpt>
      <trkpt lat="43.74536" lon="3.48564">
        <ele>865</ele>
        <time>2015-10-25T08:06:27Z</time>
      </trkpt>
      <trkpt lat="43.74535" lon="3.48563">
        <ele>865</ele>
        <time>2015-10-25T08:06:28Z</time>
      </trkpt>
      <trkpt lat="43.74534" lon="3.48563">
        <ele>865.5</ele>
        <time>2015-10-25T08:06:29Z</time>
      </trkpt>
      <trkpt lat="43.74533" lon="3.48562">
        <ele>866</ele>
        <time>2015-10-25T08:06:30Z</time>
      </trkpt>
      <trkpt lat="43.74531" lon="3.48561">
        <ele>866.5</ele>
        <time>2015-10-25T08:06:31Z</time>
      </trkpt>
      <trkpt lat="43.7453" lon="3.4856">
        <ele>866.5</ele>
        <time>2015-10-25T08:06:32Z</time>
      </trkpt>
      <trkpt lat="43.74529" lon="3.48559">
        <ele>866.5</ele>
        <time>2015-10-25T08:06:33Z</time>
      </trkpt>
      <trkpt lat="43.74527" lon="3.4856">
        <ele>868.5</ele>
        <time>2015-10-25T08:06:34Z</time>
      </trkpt>
      <trkpt lat="43.74526" lon="3.4856">
        <ele>868.5</ele>
        <time>2015-10-25T08:06:35Z</time>
      </trkpt>
      <trkpt lat="43.74525" lon="3.4856">
        <ele>870</ele>
        <time>2015-10-25T08:06:36Z</time>
      </trkpt>
      <trkpt lat="43.74523" lon="3.48558">
        <ele>869.5</ele>
        <time>2015-10-25T08:06:37Z</time>
      </trkpt>
      <trkpt lat="43.74522" lon="3.48557">
        <ele>869</ele>
        <time>2015-10-25T08:06:38Z</time>
      </trkpt>
      <trkpt lat="43.74521" lon="3.48555">
        <ele>869</ele>
        <time>2015-10-25T08:06:39Z</time>
      </trkpt>
      <trkpt lat="43.74519" lon="3.48554">
        <ele>869.5</ele>
        <time>2015-10-25T08:06:40Z</time>
      </trkpt>
      <trkpt lat="43.74518" lon="3.48553">
        <ele>869.5</ele>
        <time>2015-10-25T08:06:41Z</time>
      </trkpt>
      <trkpt lat="43.74516" lon="3.48552">
        <ele>869.5</ele>
        <time>2015-10-25T08:06:42Z</time>
      </trkpt>
      <trkpt lat="43.74515" lon="3.48552">
        <ele>871</ele>
        <time>2015-10-25T08:06:43Z</time>
      </trkpt>
      <trkpt lat="43.74513" lon="3.48552">
        <ele>872</ele>
        <time>2015-10-25T08:06:44Z</time>
      </trkpt>
      <trkpt lat="43.74512" lon="3.48551">
        <ele>872.5</ele>
        <time>2015-10-25T08:06:45Z</time>
      </trkpt>
      <trkpt lat="43.7451" lon="3.4855">
        <ele>872.5</ele>
        <time>2015-10-25T08:06:46Z</time>
      </trkpt>
      <trkpt lat="43.74509" lon="3.48549">
        <ele>873</ele>
        <time>2015-10-25T08:06:47Z</time>
      </trkpt>
      <trkpt lat="43.74507" lon="3.48548">
        <ele>873.5</ele>
        <time>2015-10-25T08:06:48Z</time>
      </trkpt>
      <trkpt lat="43.74506" lon="3.48548">
        <ele>873.5</ele>
        <time>2015-10-25T08:06:49Z</time>
      </trkpt>
      <trkpt lat="43.74505" lon="3.48546">
        <ele>873.5</ele>
        <time>2015-10-25T08:06:50Z</time>
      </trkpt>
      <trkpt lat="43.74503" lon="3.48545">
        <ele>874</ele>
        <time>2015-10-25T08:06:51Z</time>
      </trkpt>
      <trkpt lat="43.74502" lon="3.48544">
        <ele>874</ele>
        <time>2015-10-25T08:06:52Z</time>
      </trkpt>
      <trkpt lat="43.745" lon="3.48543">
        <ele>874</ele>
        <time>2015-10-25T08:06:53Z</time>
      </trkpt>
      <trkpt lat="43.74498" lon="3.48542">
        <ele>874</ele>
        <time>2015-10-25T08:06:54Z</time>
      </trkpt>
      <trkpt lat="43.74496" lon="3.48541">
        <ele>874</ele>
        <time>2015-10-25T08:06:55Z</time>
      </trkpt>
      <trkpt lat="43.74495" lon="3.48541">
        <ele>874.5</ele>
        <time>2015-10-25T08:06:56Z</time>
      </trkpt>
      <trkpt lat="43.74493" lon="3.4854">
        <ele>874.5</ele>
        <time>2015-10-25T08:06:57Z</time>
      </trkpt>
      <trkpt lat="43.74492" lon="3.48539">
        <ele>874</ele>
        <time>2015-10-25T08:06:58Z</time>
      </trkpt>
      <trkpt lat="43.7449" lon="3.48538">
        <ele>874</ele>
        <time>2015-10-25T08:06:59Z</time>
      </trkpt>
      <trkpt lat="43.74488" lon="3.48537">
        <ele>874</ele>
        <time>2015-10-25T08:07:00Z</time>
      </trkpt>
      <trkpt lat="43.74486" lon="3.48537">
        <ele>874</ele>
        <time>2015-10-25T08:07:01Z</time>
      </trkpt>
      <trkpt lat="43.74484" lon="3.48537">
        <ele>874.5</ele>
        <time>2015-10-25T08:07:02Z</time>
      </trkpt>
      <trkpt lat="43.74483" lon="3.48536">
        <ele>874</ele>
        <time>2015-10-25T08:07:03Z</time>
      </trkpt>
      <trkpt lat="43.74481" lon="3.48536">
        <ele>874</ele>
        <time>2015-10-25T08:07:04Z</time>
      </trkpt>
      <trkpt lat="43.74479" lon="3.48536">
        <ele>873.5</ele>
        <time>2015-10-25T08:07:05Z</time>
      </trkpt>
      <trkpt lat="43.74477" lon="3.48536">
        <ele>873.5</ele>
        <time>2015-10-25T08:07:06Z</time>
      </trkpt>
      <trkpt lat="43.74476" lon="3.48536">
        <ele>873.5</ele>
        <time>2015-10-25T08:07:07Z</time>
      </trkpt>
      <trkpt lat="43.74474" lon="3.48537">
        <ele>873</ele>
        <time>2015-10-25T08:07:08Z</time>
      </trkpt>
      <trkpt lat="43.74472" lon="3.48537">
        <ele>873</ele>
        <time>2015-10-25T08:07:09Z</time>
      </trkpt>
      <trkpt lat="43.74471" lon="3.48538">
        <ele>872.5</ele>
        <time>2015-10-25T08:07:10Z</time>
      </trkpt>
      <trkpt lat="43.7447" lon="3.48539">
        <ele>872.5</ele>
        <time>2015-10-25T08:07:11Z</time>
      </trkpt>
      <trkpt lat="43.74468" lon="3.4854">
        <ele>873</ele>
        <time>2015-10-25T08:07:12Z</time>
      </trkpt>
      <trkpt lat="43.74467" lon="3.48541">
        <ele>873</ele>
        <time>2015-10-25T08:07:13Z</time>
      </trkpt>
      <trkpt lat="43.74466" lon="3.48542">
        <ele>872.5</ele>
        <time>2015-10-25T08:07:14Z</time>
      </trkpt>
      <trkpt lat="43.74464" lon="3.48544">
        <ele>872.5</ele>
        <time>2015-10-25T08:07:15Z</time>
      </trkpt>
      <trkpt lat="43.74463" lon="3.48545">
        <ele>872.5</ele>
        <time>2015-10-25T08:07:16Z</time>
      </trkpt>
      <trkpt lat="43.74462" lon="3.48547">
        <ele>872.5</ele>
        <time>2015-10-25T08:07:17Z</time>
      </trkpt>
      <trkpt lat="43.74461" lon="3.48548">
        <ele>872.5</ele>
        <time>2015-10-25T08:07:18Z</time>
      </trkpt>
      <trkpt lat="43.7446" lon="3.4855">
        <ele>872.5</ele>
        <time>2015-10-25T08:07:19Z</time>
      </trkpt>
      <trkpt lat="43.74459" lon="3.48551">
        <ele>872.5</ele>
        <time>2015-10-25T08:07:20Z</time>
      </trkpt>
      <trkpt lat="43.74458" lon="3.48553">
        <ele>872.5</ele>
        <time>2015-10-25T08:07:21Z</time>
      </trkpt>
      <trkpt lat="43.74457" lon="3.48555">
        <ele>873</ele>
        <time>2015-10-25T08:07:22Z</time>
      </trkpt>
      <trkpt lat="43.74457" lon="3.48556">
        <ele>873.5</ele>
        <time>2015-10-25T08:07:23Z</time>
      </trkpt>
      <trkpt lat="43.74456" lon="3.48558">
        <ele>873.5</ele>
        <time>2015-10-25T08:07:24Z</time>
      </trkpt>
      <trkpt lat="43.74455" lon="3.4856">
        <ele>873</ele>
        <time>2015-10-25T08:07:25Z</time>
      </trkpt>
      <trkpt lat="43.74454" lon="3.48562">
        <ele>873</ele>
        <time>2015-10-25T08:07:26Z</time>
      </trkpt>
      <trkpt lat="43.74452" lon="3.48563">
        <ele>873.5</ele>
        <time>2015-10-25T08:07:27Z</time>
      </trkpt>
      <trkpt lat="43.74451" lon="3.48565">
        <ele>874.5</ele>
        <time>2015-10-25T08:07:28Z</time>
      </trkpt>
      <trkpt lat="43.7445" lon="3.48567">
        <ele>875</ele>
        <time>2015-10-25T08:07:29Z</time>
      </trkpt>
      <trkpt lat="43.74449" lon="3.48569">
        <ele>875.5</ele>
        <time>2015-10-25T08:07:30Z</time>
      </trkpt>
      <trkpt lat="43.74447" lon="3.4857">
        <ele>876</ele>
        <time>2015-10-25T08:07:31Z</time>
      </trkpt>
      <trkpt lat="43.74446" lon="3.48571">
        <ele>876</ele>
        <time>2015-10-25T08:07:32Z</time>
      </trkpt>
      <trkpt lat="43.74444" lon="3.48572">
        <ele>876</ele>
        <time>2015-10-25T08:07:33Z</time>
      </trkpt>
      <trkpt lat="43.74442" lon="3.48573">
        <ele>876</ele>
        <time>2015-10-25T08:07:34Z</time>
      </trkpt>
      <trkpt lat="43.74441" lon="3.48573">
        <ele>876.5</ele>
        <time>2015-10-25T08:07:35Z</time>
      </trkpt>
      <trkpt lat="43.74439" lon="3.48574">
        <ele>876.5</ele>
        <time>2015-10-25T08:07:36Z</time>
      </trkpt>
      <trkpt lat="43.74438" lon="3.48574">
        <ele>876.5</ele>
        <time>2015-10-25T08:07:37Z</time>
      </trkpt>
      <trkpt lat="43.74436" lon="3.48575">
        <ele>877</ele>
        <time>2015-10-25T08:07:38Z</time>
      </trkpt>
      <trkpt lat="43.74434" lon="3.48575">
        <ele>877</ele>
        <time>2015-10-25T08:07:39Z</time>
      </trkpt>
      <trkpt lat="43.74432" lon="3.48576">
        <ele>877</ele>
        <time>2015-10-25T08:07:40Z</time>
      </trkpt>
      <trkpt lat="43.7443" lon="3.48576">
        <ele>877</ele>
        <time>2015-10-25T08:07:41Z</time>
      </trkpt>
      <trkpt lat="43.74429" lon="3.48576">
        <ele>877</ele>
        <time>2015-10-25T08:07:42Z</time>
      </trkpt>
      <trkpt lat="43.74427" lon="3.48577">
        <ele>877.5</ele>
        <time>2015-10-25T08:07:43Z</time>
      </trkpt>
      <trkpt lat="43.74424" lon="3.48577">
        <ele>877.5</ele>
        <time>2015-10-25T08:07:44Z</time>
      </trkpt>
      <trkpt lat="43.74422" lon="3.48577">
        <ele>877.5</ele>
        <time>2015-10-25T08:07:45Z</time>
      </trkpt>
      <trkpt lat="43.7442" lon="3.48577">
        <ele>877.5</ele>
        <time>2015-10-25T08:07:46Z</time>
      </trkpt>
      <trkpt lat="43.74418" lon="3.48576">
        <ele>877</ele>
        <time>2015-10-25T08:07:47Z</time>
      </trkpt>
      <trkpt lat="43.74416" lon="3.48576">
        <ele>877.5</ele>
        <time>2015-10-25T08:07:48Z</time>
      </trkpt>
      <trkpt lat="43.74414" lon="3.48575">
        <ele>877.5</ele>
        <time>2015-10-25T08:07:49Z</time>
      </trkpt>
      <trkpt lat="43.74412" lon="3.48576">
        <ele>877.5</ele>
        <time>2015-10-25T08:07:50Z</time>
      </trkpt>
      <trkpt lat="43.7441" lon="3.48575">
        <ele>878</ele>
        <time>2015-10-25T08:07:51Z</time>
      </trkpt>
      <trkpt lat="43.74408" lon="3.48575">
        <ele>877.5</ele>
        <time>2015-10-25T08:07:52Z</time>
      </trkpt>
      <trkpt lat="43.74406" lon="3.48576">
        <ele>878</ele>
        <time>2015-10-25T08:07:53Z</time>
      </trkpt>
      <trkpt lat="43.74405" lon="3.48575">
        <ele>879</ele>
        <time>2015-10-25T08:07:54Z</time>
      </trkpt>
      <trkpt lat="43.74403" lon="3.48574">
        <ele>879</ele>
        <time>2015-10-25T08:07:55Z</time>
      </trkpt>
      <trkpt lat="43.74401" lon="3.48574">
        <ele>879.5</ele>
        <time>2015-10-25T08:07:56Z</time>
      </trkpt>
      <trkpt lat="43.74399" lon="3.48574">
        <ele>880</ele>
        <time>2015-10-25T08:07:57Z</time>
      </trkpt>
      <trkpt lat="43.74397" lon="3.48574">
        <ele>880</ele>
        <time>2015-10-25T08:07:58Z</time>
      </trkpt>
      <trkpt lat="43.74396" lon="3.48574">
        <ele>880</ele>
        <time>2015-10-25T08:07:59Z</time>
      </trkpt>
      <trkpt lat="43.74394" lon="3.48574">
        <ele>880.5</ele>
        <time>2015-10-25T08:08:00Z</time>
      </trkpt>
      <trkpt lat="43.74392" lon="3.48574">
        <ele>881</ele>
        <time>2015-10-25T08:08:01Z</time>
      </trkpt>
      <trkpt lat="43.7439" lon="3.48575">
        <ele>881.5</ele>
        <time>2015-10-25T08:08:02Z</time>
      </trkpt>
      <trkpt lat="43.74388" lon="3.48575">
        <ele>881.5</ele>
        <time>2015-10-25T08:08:03Z</time>
      </trkpt>
      <trkpt lat="43.74386" lon="3.48575">
        <ele>881.5</ele>
        <time>2015-10-25T08:08:04Z</time>
      </trkpt>
      <trkpt lat="43.74385" lon="3.48575">
        <ele>881.5</ele>
        <time>2015-10-25T08:08:05Z</time>
      </trkpt>
      <trkpt lat="43.74383" lon="3.48574">
        <ele>881</ele>
        <time>2015-10-25T08:08:06Z</time>
      </trkpt>
      <trkpt lat="43.74381" lon="3.48574">
        <ele>880.5</ele>
        <time>2015-10-25T08:08:07Z</time>
      </trkpt>
      <trkpt lat="43.74379" lon="3.48574">
        <ele>879.5</ele>
        <time>2015-10-25T08:08:08Z</time>
      </trkpt>
      <trkpt lat="43.74378" lon="3.48575">
        <ele>878.5</ele>
        <time>2015-10-25T08:08:09Z</time>
      </trkpt>
      <trkpt lat="43.74377" lon="3.48575">
        <ele>878</ele>
        <time>2015-10-25T08:08:10Z</time>
      </trkpt>
      <trkpt lat="43.74375" lon="3.48576">
        <ele>878</ele>
        <time>2015-10-25T08:08:11Z</time>
      </trkpt>
      <trkpt lat="43.74374" lon="3.48577">
        <ele>877.5</ele>
        <time>2015-10-25T08:08:12Z</time>
      </trkpt>
      <trkpt lat="43.74372" lon="3.48578">
        <ele>877.5</ele>
        <time>2015-10-25T08:08:13Z</time>
      </trkpt>
      <trkpt lat="43.7437" lon="3.4858">
        <ele>877.5</ele>
        <time>2015-10-25T08:08:14Z</time>
      </trkpt>
      <trkpt lat="43.74369" lon="3.48581">
        <ele>877.5</ele>
        <time>2015-10-25T08:08:15Z</time>
      </trkpt>
      <trkpt lat="43.74368" lon="3.48582">
        <ele>878</ele>
        <time>2015-10-25T08:08:16Z</time>
      </trkpt>
      <trkpt lat="43.74367" lon="3.48583">
        <ele>878</ele>
        <time>2015-10-25T08:08:17Z</time>
      </trkpt>
      <trkpt lat="43.74365" lon="3.48585">
        <ele>878.5</ele>
        <time>2015-10-25T08:08:18Z</time>
      </trkpt>
      <trkpt lat="43.74364" lon="3.48586">
        <ele>878.5</ele>
        <time>2015-10-25T08:08:19Z</time>
      </trkpt>
      <trkpt lat="43.74362" lon="3.48587">
        <ele>878.5</ele>
        <time>2015-10-25T08:08:20Z</time>
      </trkpt>
      <trkpt lat="43.7436" lon="3.48587">
        <ele>878.5</ele>
        <time>2015-10-25T08:08:21Z</time>
      </trkpt>
      <trkpt lat="43.74358" lon="3.48588">
        <ele>878.5</ele>
        <time>2015-10-25T08:08:22Z</time>
      </trkpt>
      <trkpt lat="43.74357" lon="3.48589">
        <ele>879.5</ele>
        <time>2015-10-25T08:08:23Z</time>
      </trkpt>
      <trkpt lat="43.74355" lon="3.4859">
        <ele>880</ele>
        <time>2015-10-25T08:08:24Z</time>
      </trkpt>
      <trkpt lat="43.74353" lon="3.48591">
        <ele>880</ele>
        <time>2015-10-25T08:08:25Z</time>
      </trkpt>
      <trkpt lat="43.74352" lon="3.48591">
        <ele>880</ele>
        <time>2015-10-25T08:08:26Z</time>
      </trkpt>
      <trkpt lat="43.7435" lon="3.48592">
        <ele>880.5</ele>
        <time>2015-10-25T08:08:27Z</time>
      </trkpt>
      <trkpt lat="43.74348" lon="3.48593">
        <ele>881</ele>
        <time>2015-10-25T08:08:28Z</time>
      </trkpt>
      <trkpt lat="43.74347" lon="3.48594">
        <ele>881</ele>
        <time>2015-10-25T08:08:29Z</time>
      </trkpt>
      <trkpt lat="43.74345" lon="3.48594">
        <ele>881.5</ele>
        <time>2015-10-25T08:08:30Z</time>
      </trkpt>
      <trkpt lat="43.74343" lon="3.48595">
        <ele>882</ele>
        <time>2015-10-25T08:08:30Z</time>
      </trkpt>
      <trkpt lat="43.74342" lon="3.48595">
        <ele>882.5</ele>
        <time>2015-10-25T08:08:32Z</time>
      </trkpt>
      <trkpt lat="43.7434" lon="3.48595">
        <ele>882.5</ele>
        <time>2015-10-25T08:08:33Z</time>
      </trkpt>
      <trkpt lat="43.74338" lon="3.48596">
        <ele>883.5</ele>
        <time>2015-10-25T08:08:34Z</time>
      </trkpt>
      <trkpt lat="43.74335" lon="3.48596">
        <ele>884</ele>
        <time>2015-10-25T08:08:36Z</time>
      </trkpt>
      <trkpt lat="43.74333" lon="3.48596">
        <ele>884.5</ele>
        <time>2015-10-25T08:08:36Z</time>
      </trkpt>
      <trkpt lat="43.74331" lon="3.48596">
        <ele>884.5</ele>
        <time>2015-10-25T08:08:37Z</time>
      </trkpt>
      <trkpt lat="43.74329" lon="3.48597">
        <ele>885</ele>
        <time>2015-10-25T08:08:38Z</time>
      </trkpt>
      <trkpt lat="43.74328" lon="3.48598">
        <ele>885.5</ele>
        <time>2015-10-25T08:08:39Z</time>
      </trkpt>
      <trkpt lat="43.74326" lon="3.48599">
        <ele>886</ele>
        <time>2015-10-25T08:08:40Z</time>
      </trkpt>
      <trkpt lat="43.74324" lon="3.48599">
        <ele>886</ele>
        <time>2015-10-25T08:08:41Z</time>
      </trkpt>
      <trkpt lat="43.74322" lon="3.486">
        <ele>886</ele>
        <time>2015-10-25T08:08:43Z</time>
      </trkpt>
      <trkpt lat="43.7432" lon="3.48601">
        <ele>886</ele>
        <time>2015-10-25T08:08:43Z</time>
      </trkpt>
      <trkpt lat="43.74319" lon="3.48602">
        <ele>886</ele>
        <time>2015-10-25T08:08:44Z</time>
      </trkpt>
      <trkpt lat="43.74317" lon="3.48602">
        <ele>885.5</ele>
        <time>2015-10-25T08:08:45Z</time>
      </trkpt>
      <trkpt lat="43.74315" lon="3.48603">
        <ele>885.5</ele>
        <time>2015-10-25T08:08:46Z</time>
      </trkpt>
      <trkpt lat="43.74313" lon="3.48604">
        <ele>886</ele>
        <time>2015-10-25T08:08:47Z</time>
      </trkpt>
      <trkpt lat="43.74313" lon="3.48605">
        <ele>886</ele>
        <time>2015-10-25T08:08:48Z</time>
      </trkpt>
      <trkpt lat="43.74312" lon="3.48607">
        <ele>886.5</ele>
        <time>2015-10-25T08:08:49Z</time>
      </trkpt>
      <trkpt lat="43.74311" lon="3.48608">
        <ele>886</ele>
        <time>2015-10-25T08:08:50Z</time>
      </trkpt>
      <trkpt lat="43.74309" lon="3.4861">
        <ele>885.5</ele>
        <time>2015-10-25T08:08:51Z</time>
      </trkpt>
      <trkpt lat="43.74307" lon="3.4861">
        <ele>884.5</ele>
        <time>2015-10-25T08:08:52Z</time>
      </trkpt>
      <trkpt lat="43.74305" lon="3.48611">
        <ele>885</ele>
        <time>2015-10-25T08:08:53Z</time>
      </trkpt>
      <trkpt lat="43.74304" lon="3.48611">
        <ele>884</ele>
        <time>2015-10-25T08:08:54Z</time>
      </trkpt>
      <trkpt lat="43.74302" lon="3.48611">
        <ele>883.5</ele>
        <time>2015-10-25T08:08:55Z</time>
      </trkpt>
      <trkpt lat="43.743" lon="3.48612">
        <ele>883.5</ele>
        <time>2015-10-25T08:08:56Z</time>
      </trkpt>
      <trkpt lat="43.743" lon="3.48614">
        <ele>883</ele>
        <time>2015-10-25T08:08:58Z</time>
      </trkpt>
      <trkpt lat="43.74299" lon="3.48616">
        <ele>883.5</ele>
        <time>2015-10-25T08:08:58Z</time>
      </trkpt>
      <trkpt lat="43.74299" lon="3.48617">
        <ele>883.5</ele>
        <time>2015-10-25T08:08:59Z</time>
      </trkpt>
      <trkpt lat="43.74298" lon="3.48619">
        <ele>884</ele>
        <time>2015-10-25T08:09:00Z</time>
      </trkpt>
      <trkpt lat="43.74297" lon="3.48619">
        <ele>884.5</ele>
        <time>2015-10-25T08:09:01Z</time>
      </trkpt>
      <trkpt lat="43.74296" lon="3.4862">
        <ele>885</ele>
        <time>2015-10-25T08:09:02Z</time>
      </trkpt>
      <trkpt lat="43.74295" lon="3.48621">
        <ele>885.5</ele>
        <time>2015-10-25T08:09:03Z</time>
      </trkpt>
      <trkpt lat="43.74295" lon="3.48622">
        <ele>885.5</ele>
        <time>2015-10-25T08:09:04Z</time>
      </trkpt>
      <trkpt lat="43.74294" lon="3.48623">
        <ele>888.5</ele>
        <time>2015-10-25T08:09:11Z</time>
      </trkpt>
      <trkpt lat="43.74294" lon="3.48623">
        <ele>890.5</ele>
        <time>2015-10-25T08:09:16Z</time>
      </trkpt>
      <trkpt lat="43.74294" lon="3.48623">
        <ele>890</ele>
        <time>2015-10-25T08:09:18Z</time>
      </trkpt>
      <trkpt lat="43.74294" lon="3.48622">
        <ele>890</ele>
        <time>2015-10-25T08:09:19Z</time>
      </trkpt>
      <trkpt lat="43.74294" lon="3.4862">
        <ele>890.5</ele>
        <time>2015-10-25T08:09:20Z</time>
      </trkpt>
      <trkpt lat="43.74294" lon="3.4862">
        <ele>890.5</ele>
        <time>2015-10-25T08:09:21Z</time>
      </trkpt>
      <trkpt lat="43.74293" lon="3.48621">
        <ele>891</ele>
        <time>2015-10-25T08:09:24Z</time>
      </trkpt>
      <trkpt lat="43.74292" lon="3.48622">
        <ele>891</ele>
        <time>2015-10-25T08:09:26Z</time>
      </trkpt>
      <trkpt lat="43.74291" lon="3.48623">
        <ele>891</ele>
        <time>2015-10-25T08:09:27Z</time>
      </trkpt>
      <trkpt lat="43.74291" lon="3.48623">
        <ele>893</ele>
        <time>2015-10-25T08:09:32Z</time>
      </trkpt>
      <trkpt lat="43.74291" lon="3.48624">
        <ele>893</ele>
        <time>2015-10-25T08:09:34Z</time>
      </trkpt>
      <trkpt lat="43.74291" lon="3.48624">
        <ele>893</ele>
        <time>2015-10-25T08:09:35Z</time>
      </trkpt>
      <trkpt lat="43.74291" lon="3.48625">
        <ele>893</ele>
        <time>2015-10-25T08:09:36Z</time>
      </trkpt>
      <trkpt lat="43.74291" lon="3.48626">
        <ele>893</ele>
        <time>2015-10-25T08:09:37Z</time>
      </trkpt>
      <trkpt lat="43.74291" lon="3.48626">
        <ele>893</ele>
        <time>2015-10-25T08:09:39Z</time>
      </trkpt>
      <trkpt lat="43.74291" lon="3.48626">
        <ele>892.5</ele>
        <time>2015-10-25T08:09:42Z</time>
      </trkpt>
      <trkpt lat="43.7429" lon="3.48625">
        <ele>892.5</ele>
        <time>2015-10-25T08:09:44Z</time>
      </trkpt>
      <trkpt lat="43.7429" lon="3.48624">
        <ele>892.5</ele>
        <time>2015-10-25T08:09:45Z</time>
      </trkpt>
      <trkpt lat="43.74289" lon="3.48625">
        <ele>892.5</ele>
        <time>2015-10-25T08:09:46Z</time>
      </trkpt>
      <trkpt lat="43.74288" lon="3.48626">
        <ele>893</ele>
        <time>2015-10-25T08:09:47Z</time>
      </trkpt>
      <trkpt lat="43.74288" lon="3.48626">
        <ele>892.5</ele>
        <time>2015-10-25T08:09:52Z</time>
      </trkpt>
      <trkpt lat="43.74288" lon="3.48625">
        <ele>892</ele>
        <time>2015-10-25T08:09:54Z</time>
      </trkpt>
      <trkpt lat="43.74288" lon="3.48624">
        <ele>892</ele>
        <time>2015-10-25T08:09:55Z</time>
      </trkpt>
      <trkpt lat="43.74288" lon="3.48624">
        <ele>891.5</ele>
        <time>2015-10-25T08:09:56Z</time>
      </trkpt>
      <trkpt lat="43.74288" lon="3.48624">
        <ele>891.5</ele>
        <time>2015-10-25T08:09:57Z</time>
      </trkpt>
      <trkpt lat="43.74287" lon="3.48624">
        <ele>892.5</ele>
        <time>2015-10-25T08:10:06Z</time>
      </trkpt>
      <trkpt lat="43.74288" lon="3.48624">
        <ele>893</ele>
        <time>2015-10-25T08:10:08Z</time>
      </trkpt>
      <trkpt lat="43.74288" lon="3.48624">
        <ele>893.5</ele>
        <time>2015-10-25T08:10:09Z</time>
      </trkpt>
      <trkpt lat="43.74288" lon="3.48623">
        <ele>894</ele>
        <time>2015-10-25T08:10:11Z</time>
      </trkpt>
      <trkpt lat="43.74288" lon="3.48623">
        <ele>894.5</ele>
        <time>2015-10-25T08:10:15Z</time>
      </trkpt>
      <trkpt lat="43.74288" lon="3.48622">
        <ele>894.5</ele>
        <time>2015-10-25T08:10:17Z</time>
      </trkpt>
      <trkpt lat="43.74288" lon="3.48623">
        <ele>894.5</ele>
        <time>2015-10-25T08:10:18Z</time>
      </trkpt>
      <trkpt lat="43.74288" lon="3.48623">
        <ele>895</ele>
        <time>2015-10-25T08:10:19Z</time>
      </trkpt>
      <trkpt lat="43.74287" lon="3.48623">
        <ele>895</ele>
        <time>2015-10-25T08:10:20Z</time>
      </trkpt>
      <trkpt lat="43.74287" lon="3.48622">
        <ele>895</ele>
        <time>2015-10-25T08:10:21Z</time>
      </trkpt>
      <trkpt lat="43.74287" lon="3.48622">
        <ele>895</ele>
        <time>2015-10-25T08:10:23Z</time>
      </trkpt>
      <trkpt lat="43.74288" lon="3.48622">
        <ele>896</ele>
        <time>2015-10-25T08:10:25Z</time>
      </trkpt>
      <trkpt lat="43.74289" lon="3.48622">
        <ele>896</ele>
        <time>2015-10-25T08:10:26Z</time>
      </trkpt>
      <trkpt lat="43.74289" lon="3.48622">
        <ele>896</ele>
        <time>2015-10-25T08:10:27Z</time>
      </trkpt>
      <trkpt lat="43.7429" lon="3.48622">
        <ele>896</ele>
        <time>2015-10-25T08:10:28Z</time>
      </trkpt>
      <trkpt lat="43.7429" lon="3.48622">
        <ele>896.5</ele>
        <time>2015-10-25T08:10:29Z</time>
      </trkpt>
      <trkpt lat="43.74291" lon="3.48623">
        <ele>897</ele>
        <time>2015-10-25T08:10:30Z</time>
      </trkpt>
      <trkpt lat="43.74291" lon="3.48624">
        <ele>897</ele>
        <time>2015-10-25T08:10:32Z</time>
      </trkpt>
      <trkpt lat="43.7429" lon="3.48624">
        <ele>898</ele>
        <time>2015-10-25T08:10:35Z</time>
      </trkpt>
      <trkpt lat="43.74289" lon="3.48623">
        <ele>899</ele>
        <time>2015-10-25T08:10:46Z</time>
      </trkpt>
      <trkpt lat="43.74289" lon="3.48623">
        <ele>899</ele>
        <time>2015-10-25T08:10:56Z</time>
      </trkpt>
      <trkpt lat="43.74289" lon="3.48622">
        <ele>899.5</ele>
        <time>2015-10-25T08:11:01Z</time>
      </trkpt>
      <trkpt lat="43.74289" lon="3.48622">
        <ele>899.5</ele>
        <time>2015-10-25T08:11:07Z</time>
      </trkpt>
      <trkpt lat="43.74289" lon="3.48622">
        <ele>899</ele>
        <time>2015-10-25T08:11:09Z</time>
      </trkpt>
      <trkpt lat="43.74289" lon="3.48622">
        <ele>898.5</ele>
        <time>2015-10-25T08:11:10Z</time>
      </trkpt>
      <trkpt lat="43.74289" lon="3.48623">
        <ele>898</ele>
        <time>2015-10-25T08:11:14Z</time>
      </trkpt>
      <trkpt lat="43.7429" lon="3.48624">
        <ele>897.5</ele>
        <time>2015-10-25T08:11:17Z</time>
      </trkpt>
      <trkpt lat="43.7429" lon="3.48626">
        <ele>897</ele>
        <time>2015-10-25T08:11:27Z</time>
      </trkpt>
      <trkpt lat="43.7429" lon="3.48626">
        <ele>896.5</ele>
        <time>2015-10-25T08:11:34Z</time>
      </trkpt>
      <trkpt lat="43.74289" lon="3.48626">
        <ele>896.5</ele>
        <time>2015-10-25T08:11:37Z</time>
      </trkpt>
      <trkpt lat="43.74288" lon="3.48625">
        <ele>896.5</ele>
        <time>2015-10-25T08:11:39Z</time>
      </trkpt>
      <trkpt lat="43.74287" lon="3.48625">
        <ele>897</ele>
        <time>2015-10-25T08:11:40Z</time>
      </trkpt>
      <trkpt lat="43.74287" lon="3.48624">
        <ele>896.5</ele>
        <time>2015-10-25T08:11:41Z</time>
      </trkpt>
      <trkpt lat="43.74287" lon="3.48624">
        <ele>896.5</ele>
        <time>2015-10-25T08:11:42Z</time>
      </trkpt>
      <trkpt lat="43.74287" lon="3.48623">
        <ele>896.5</ele>
        <time>2015-10-25T08:11:43Z</time>
      </trkpt>
      <trkpt lat="43.74287" lon="3.48623">
        <ele>896.5</ele>
        <time>2015-10-25T08:11:51Z</time>
      </trkpt>
      <trkpt lat="43.74288" lon="3.48625">
        <ele>897.5</ele>
        <time>2015-10-25T08:11:57Z</time>
      </trkpt>
      <trkpt lat="43.74288" lon="3.48625">
        <ele>897.5</ele>
        <time>2015-10-25T08:11:59Z</time>
      </trkpt>
      <trkpt lat="43.74288" lon="3.48626">
        <ele>897.5</ele>
        <time>2015-10-25T08:12:00Z</time>
      </trkpt>
      <trkpt lat="43.74288" lon="3.48626">
        <ele>897.5</ele>
        <time>2015-10-25T08:12:01Z</time>
      </trkpt>
      <trkpt lat="43.74288" lon="3.48627">
        <ele>897.5</ele>
        <time>2015-10-25T08:12:06Z</time>
      </trkpt>
      <trkpt lat="43.74288" lon="3.48628">
        <ele>896.5</ele>
        <time>2015-10-25T08:12:12Z</time>
      </trkpt>
      <trkpt lat="43.74288" lon="3.48628">
        <ele>896</ele>
        <time>2015-10-25T08:11:45Z</time>
      </trkpt>
      <trkpt lat="43.74288" lon="3.48627">
        <ele>896</ele>
        <time>2015-10-25T08:11:49Z</time>
      </trkpt>
      <trkpt lat="43.74289" lon="3.48626">
        <ele>895.5</ele>
        <time>2015-10-25T08:11:54Z</time>
      </trkpt>
      <trkpt lat="43.7429" lon="3.48627">
        <ele>897.5</ele>
        <time>2015-10-25T08:11:58Z</time>
      </trkpt>
      <trkpt lat="43.74289" lon="3.48626">
        <ele>897</ele>
        <time>2015-10-25T08:12:05Z</time>
      </trkpt>
      <trkpt lat="43.7429" lon="3.48625">
        <ele>896</ele>
        <time>2015-10-25T08:12:09Z</time>
      </trkpt>
      <trkpt lat="43.74289" lon="3.48625">
        <ele>895.5</ele>
        <time>2015-10-25T08:12:29Z</time>
      </trkpt>
      <trkpt lat="43.74287" lon="3.48626">
        <ele>896</ele>
        <time>2015-10-25T08:12:31Z</time>
      </trkpt>
      <trkpt lat="43.74287" lon="3.48625">
        <ele>896</ele>
        <time>2015-10-25T08:12:32Z</time>
      </trkpt>
      <trkpt lat="43.74287" lon="3.48625">
        <ele>896</ele>
        <time>2015-10-25T08:12:42Z</time>
      </trkpt>
      <trkpt lat="43.74287" lon="3.48625">
        <ele>896</ele>
        <time>2015-10-25T08:12:53Z</time>
      </trkpt>
      <trkpt lat="43.74286" lon="3.48625">
        <ele>896</ele>
        <time>2015-10-25T08:13:02Z</time>
      </trkpt>
      <trkpt lat="43.74286" lon="3.48625">
        <ele>895.5</ele>
        <time>2015-10-25T08:13:06Z</time>
      </trkpt>
      <trkpt lat="43.74285" lon="3.48624">
        <ele>897.5</ele>
        <time>2015-10-25T08:13:27Z</time>
      </trkpt>
      <trkpt lat="43.74286" lon="3.48625">
        <ele>897</ele>
        <time>2015-10-25T08:13:48Z</time>
      </trkpt>
      <trkpt lat="43.74286" lon="3.48625">
        <ele>896.5</ele>
        <time>2015-10-25T08:13:50Z</time>
      </trkpt>
      <trkpt lat="43.74286" lon="3.48624">
        <ele>895.5</ele>
        <time>2015-10-25T08:13:52Z</time>
      </trkpt>
      <trkpt lat="43.74287" lon="3.48622">
        <ele>895.5</ele>
        <time>2015-10-25T08:13:55Z</time>
      </trkpt>
      <trkpt lat="43.74287" lon="3.48621">
        <ele>895.5</ele>
        <time>2015-10-25T08:13:57Z</time>
      </trkpt>
      <trkpt lat="43.74287" lon="3.48621">
        <ele>895</ele>
        <time>2015-10-25T08:13:59Z</time>
      </trkpt>
      <trkpt lat="43.74287" lon="3.48623">
        <ele>895.5</ele>
        <time>2015-10-25T08:14:06Z</time>
      </trkpt>
      <trkpt lat="43.74286" lon="3.48623">
        <ele>895</ele>
        <time>2015-10-25T08:14:09Z</time>
      </trkpt>
      <trkpt lat="43.74284" lon="3.48624">
        <ele>894.5</ele>
        <time>2015-10-25T08:14:11Z</time>
      </trkpt>
      <trkpt lat="43.74282" lon="3.48624">
        <ele>894.5</ele>
        <time>2015-10-25T08:14:12Z</time>
      </trkpt>
      <trkpt lat="43.74279" lon="3.48624">
        <ele>894.5</ele>
        <time>2015-10-25T08:14:13Z</time>
      </trkpt>
      <trkpt lat="43.74275" lon="3.48622">
        <ele>894.5</ele>
        <time>2015-10-25T08:14:14Z</time>
      </trkpt>
      <trkpt lat="43.74271" lon="3.48621">
        <ele>894.5</ele>
        <time>2015-10-25T08:14:15Z</time>
      </trkpt>
      <trkpt lat="43.74268" lon="3.4862">
        <ele>895</ele>
        <time>2015-10-25T08:14:16Z</time>
      </trkpt>
      <trkpt lat="43.74266" lon="3.48619">
        <ele>895</ele>
        <time>2015-10-25T08:14:17Z</time>
      </trkpt>
      <trkpt lat="43.74263" lon="3.48618">
        <ele>895</ele>
        <time>2015-10-25T08:14:18Z</time>
      </trkpt>
      <trkpt lat="43.74261" lon="3.48617">
        <ele>895.5</ele>
        <time>2015-10-25T08:14:19Z</time>
      </trkpt>
      <trkpt lat="43.74258" lon="3.48616">
        <ele>896</ele>
        <time>2015-10-25T08:14:20Z</time>
      </trkpt>
      <trkpt lat="43.74256" lon="3.48615">
        <ele>896</ele>
        <time>2015-10-25T08:14:21Z</time>
      </trkpt>
      <trkpt lat="43.74254" lon="3.48614">
        <ele>896.5</ele>
        <time>2015-10-25T08:14:22Z</time>
      </trkpt>
      <trkpt lat="43.74252" lon="3.48613">
        <ele>897</ele>
        <time>2015-10-25T08:14:23Z</time>
      </trkpt>
      <trkpt lat="43.74251" lon="3.48611">
        <ele>897</ele>
        <time>2015-10-25T08:14:24Z</time>
      </trkpt>
      <trkpt lat="43.74249" lon="3.4861">
        <ele>897.5</ele>
        <time>2015-10-25T08:14:25Z</time>
      </trkpt>
      <trkpt lat="43.74248" lon="3.48608">
        <ele>897.5</ele>
        <time>2015-10-25T08:14:26Z</time>
      </trkpt>
      <trkpt lat="43.74247" lon="3.48606">
        <ele>897.5</ele>
        <time>2015-10-25T08:14:27Z</time>
      </trkpt>
      <trkpt lat="43.74246" lon="3.48605">
        <ele>897.5</ele>
        <time>2015-10-25T08:14:28Z</time>
      </trkpt>
      <trkpt lat="43.74244" lon="3.48605">
        <ele>898</ele>
        <time>2015-10-25T08:14:29Z</time>
      </trkpt>
      <trkpt lat="43.74243" lon="3.48604">
        <ele>898</ele>
        <time>2015-10-25T08:14:30Z</time>
      </trkpt>
      <trkpt lat="43.74241" lon="3.48603">
        <ele>898.5</ele>
        <time>2015-10-25T08:14:31Z</time>
      </trkpt>
      <trkpt lat="43.7424" lon="3.48602">
        <ele>898.5</ele>
        <time>2015-10-25T08:14:32Z</time>
      </trkpt>
      <trkpt lat="43.74239" lon="3.48602">
        <ele>899</ele>
        <time>2015-10-25T08:14:33Z</time>
      </trkpt>
      <trkpt lat="43.74238" lon="3.48601">
        <ele>899.5</ele>
        <time>2015-10-25T08:14:34Z</time>
      </trkpt>
      <trkpt lat="43.74237" lon="3.48601">
        <ele>899.5</ele>
        <time>2015-10-25T08:14:35Z</time>
      </trkpt>
      <trkpt lat="43.74236" lon="3.486">
        <ele>900</ele>
        <time>2015-10-25T08:14:36Z</time>
      </trkpt>
      <trkpt lat="43.74234" lon="3.486">
        <ele>900</ele>
        <time>2015-10-25T08:14:37Z</time>
      </trkpt>
      <trkpt lat="43.74233" lon="3.48599">
        <ele>900.5</ele>
        <time>2015-10-25T08:14:38Z</time>
      </trkpt>
      <trkpt lat="43.74231" lon="3.48599">
        <ele>900.5</ele>
        <time>2015-10-25T08:14:39Z</time>
      </trkpt>
      <trkpt lat="43.74229" lon="3.48598">
        <ele>901</ele>
        <time>2015-10-25T08:14:40Z</time>
      </trkpt>
      <trkpt lat="43.74228" lon="3.48597">
        <ele>901</ele>
        <time>2015-10-25T08:14:41Z</time>
      </trkpt>
      <trkpt lat="43.74226" lon="3.48595">
        <ele>901.5</ele>
        <time>2015-10-25T08:14:42Z</time>
      </trkpt>
      <trkpt lat="43.74225" lon="3.48593">
        <ele>902</ele>
        <time>2015-10-25T08:14:43Z</time>
      </trkpt>
      <trkpt lat="43.74224" lon="3.48592">
        <ele>903</ele>
        <time>2015-10-25T08:14:44Z</time>
      </trkpt>
      <trkpt lat="43.74223" lon="3.4859">
        <ele>903</ele>
        <time>2015-10-25T08:14:45Z</time>
      </trkpt>
      <trkpt lat="43.74223" lon="3.48589">
        <ele>903</ele>
        <time>2015-10-25T08:14:46Z</time>
      </trkpt>
      <trkpt lat="43.74223" lon="3.48588">
        <ele>903</ele>
        <time>2015-10-25T08:14:47Z</time>
      </trkpt>
      <trkpt lat="43.74224" lon="3.48588">
        <ele>902</ele>
        <time>2015-10-25T08:14:48Z</time>
      </trkpt>
      <trkpt lat="43.74224" lon="3.48587">
        <ele>902</ele>
        <time>2015-10-25T08:14:52Z</time>
      </trkpt>
      <trkpt lat="43.74223" lon="3.48586">
        <ele>902.5</ele>
        <time>2015-10-25T08:15:07Z</time>
      </trkpt>
      <trkpt lat="43.74223" lon="3.48583">
        <ele>901</ele>
        <time>2015-10-25T08:15:36Z</time>
      </trkpt>
      <trkpt lat="43.74223" lon="3.48583">
        <ele>900.5</ele>
        <time>2015-10-25T08:15:38Z</time>
      </trkpt>
      <trkpt lat="43.74223" lon="3.48582">
        <ele>901.5</ele>
        <time>2015-10-25T08:15:06Z</time>
      </trkpt>
      <trkpt lat="43.74222" lon="3.4858">
        <ele>902</ele>
        <time>2015-10-25T08:15:21Z</time>
      </trkpt>
      <trkpt lat="43.74222" lon="3.4858">
        <ele>902</ele>
        <time>2015-10-25T08:15:23Z</time>
      </trkpt>
      <trkpt lat="43.74221" lon="3.48579">
        <ele>903</ele>
        <time>2015-10-25T08:15:26Z</time>
      </trkpt>
      <trkpt lat="43.74221" lon="3.48578">
        <ele>903.5</ele>
        <time>2015-10-25T08:15:28Z</time>
      </trkpt>
      <trkpt lat="43.7422" lon="3.48577">
        <ele>904</ele>
        <time>2015-10-25T08:15:29Z</time>
      </trkpt>
      <trkpt lat="43.74222" lon="3.48577">
        <ele>905.5</ele>
        <time>2015-10-25T08:15:51Z</time>
      </trkpt>
      <trkpt lat="43.74223" lon="3.48579">
        <ele>905.5</ele>
        <time>2015-10-25T08:15:53Z</time>
      </trkpt>
      <trkpt lat="43.74223" lon="3.4858">
        <ele>905.5</ele>
        <time>2015-10-25T08:15:56Z</time>
      </trkpt>
      <trkpt lat="43.74222" lon="3.48579">
        <ele>905</ele>
        <time>2015-10-25T08:16:04Z</time>
      </trkpt>
      <trkpt lat="43.74223" lon="3.48579">
        <ele>904.5</ele>
        <time>2015-10-25T08:16:11Z</time>
      </trkpt>
      <trkpt lat="43.74225" lon="3.4858">
        <ele>905</ele>
        <time>2015-10-25T08:16:22Z</time>
      </trkpt>
      <trkpt lat="43.74226" lon="3.48581">
        <ele>905.5</ele>
        <time>2015-10-25T08:16:24Z</time>
      </trkpt>
      <trkpt lat="43.74225" lon="3.48579">
        <ele>905.5</ele>
        <time>2015-10-25T08:16:26Z</time>
      </trkpt>
      <trkpt lat="43.74227" lon="3.48577">
        <ele>905.5</ele>
        <time>2015-10-25T08:16:28Z</time>
      </trkpt>
      <trkpt lat="43.74227" lon="3.48576">
        <ele>905.5</ele>
        <time>2015-10-25T08:16:29Z</time>
      </trkpt>
      <trkpt lat="43.74227" lon="3.48574">
        <ele>905</ele>
        <time>2015-10-25T08:16:30Z</time>
      </trkpt>
      <trkpt lat="43.74227" lon="3.48571">
        <ele>904</ele>
        <time>2015-10-25T08:16:31Z</time>
      </trkpt>
      <trkpt lat="43.74227" lon="3.48568">
        <ele>903</ele>
        <time>2015-10-25T08:16:32Z</time>
      </trkpt>
      <trkpt lat="43.74227" lon="3.48565">
        <ele>901.5</ele>
        <time>2015-10-25T08:16:33Z</time>
      </trkpt>
      <trkpt lat="43.74227" lon="3.4856">
        <ele>900</ele>
        <time>2015-10-25T08:16:33Z</time>
      </trkpt>
      <trkpt lat="43.74228" lon="3.48557">
        <ele>899</ele>
        <time>2015-10-25T08:16:35Z</time>
      </trkpt>
      <trkpt lat="43.74228" lon="3.48555">
        <ele>898.5</ele>
        <time>2015-10-25T08:16:35Z</time>
      </trkpt>
      <trkpt lat="43.74228" lon="3.48555">
        <ele>898</ele>
        <time>2015-10-25T08:16:36Z</time>
      </trkpt>
      <trkpt lat="43.74228" lon="3.48553">
        <ele>897</ele>
        <time>2015-10-25T08:16:40Z</time>
      </trkpt>
      <trkpt lat="43.74228" lon="3.48552">
        <ele>896.5</ele>
        <time>2015-10-25T08:16:42Z</time>
      </trkpt>
      <trkpt lat="43.74228" lon="3.48551">
        <ele>896</ele>
        <time>2015-10-25T08:16:44Z</time>
      </trkpt>
      <trkpt lat="43.74229" lon="3.48551">
        <ele>895.5</ele>
        <time>2015-10-25T08:16:44Z</time>
      </trkpt>
      <trkpt lat="43.74229" lon="3.4855">
        <ele>895</ele>
        <time>2015-10-25T08:16:45Z</time>
      </trkpt>
      <trkpt lat="43.74229" lon="3.48548">
        <ele>894.5</ele>
        <time>2015-10-25T08:16:47Z</time>
      </trkpt>
      <trkpt lat="43.74231" lon="3.48547">
        <ele>893</ele>
        <time>2015-10-25T08:16:48Z</time>
      </trkpt>
      <trkpt lat="43.74232" lon="3.48547">
        <ele>892.5</ele>
        <time>2015-10-25T08:16:50Z</time>
      </trkpt>
      <trkpt lat="43.74232" lon="3.48546">
        <ele>892.5</ele>
        <time>2015-10-25T08:16:51Z</time>
      </trkpt>
      <trkpt lat="43.74231" lon="3.48544">
        <ele>892.5</ele>
        <time>2015-10-25T08:16:52Z</time>
      </trkpt>
      <trkpt lat="43.74231" lon="3.48543">
        <ele>892.5</ele>
        <time>2015-10-25T08:16:53Z</time>
      </trkpt>
      <trkpt lat="43.7423" lon="3.48541">
        <ele>892</ele>
        <time>2015-10-25T08:16:58Z</time>
      </trkpt>
      <trkpt lat="43.74229" lon="3.4854">
        <ele>892</ele>
        <time>2015-10-25T08:17:00Z</time>
      </trkpt>
      <trkpt lat="43.74229" lon="3.48539">
        <ele>891.5</ele>
        <time>2015-10-25T08:17:01Z</time>
      </trkpt>
      <trkpt lat="43.7423" lon="3.48538">
        <ele>891</ele>
        <time>2015-10-25T08:17:02Z</time>
      </trkpt>
      <trkpt lat="43.7423" lon="3.48537">
        <ele>890.5</ele>
        <time>2015-10-25T08:17:04Z</time>
      </trkpt>
      <trkpt lat="43.74231" lon="3.48536">
        <ele>890</ele>
        <time>2015-10-25T08:17:05Z</time>
      </trkpt>
      <trkpt lat="43.7423" lon="3.48535">
        <ele>890</ele>
        <time>2015-10-25T08:17:06Z</time>
      </trkpt>
      <trkpt lat="43.7423" lon="3.48534">
        <ele>889.5</ele>
        <time>2015-10-25T08:17:07Z</time>
      </trkpt>
      <trkpt lat="43.7423" lon="3.48533">
        <ele>889.5</ele>
        <time>2015-10-25T08:17:08Z</time>
      </trkpt>
      <trkpt lat="43.7423" lon="3.48532">
        <ele>889.5</ele>
        <time>2015-10-25T08:17:09Z</time>
      </trkpt>
      <trkpt lat="43.7423" lon="3.48531">
        <ele>889.5</ele>
        <time>2015-10-25T08:17:10Z</time>
      </trkpt>
      <trkpt lat="43.74231" lon="3.4853">
        <ele>889.5</ele>
        <time>2015-10-25T08:17:11Z</time>
      </trkpt>
      <trkpt lat="43.74232" lon="3.48529">
        <ele>888.5</ele>
        <time>2015-10-25T08:17:12Z</time>
      </trkpt>
      <trkpt lat="43.74232" lon="3.48528">
        <ele>888.5</ele>
        <time>2015-10-25T08:17:13Z</time>
      </trkpt>
      <trkpt lat="43.74232" lon="3.48528">
        <ele>888.5</ele>
        <time>2015-10-25T08:17:14Z</time>
      </trkpt>
      <trkpt lat="43.74232" lon="3.48527">
        <ele>888.5</ele>
        <time>2015-10-25T08:17:15Z</time>
      </trkpt>
      <trkpt lat="43.74232" lon="3.48527">
        <ele>888.5</ele>
        <time>2015-10-25T08:17:16Z</time>
      </trkpt>
      <trkpt lat="43.74231" lon="3.48527">
        <ele>887</ele>
        <time>2015-10-25T08:17:20Z</time>
      </trkpt>
      <trkpt lat="43.74231" lon="3.48526">
        <ele>887</ele>
        <time>2015-10-25T08:17:29Z</time>
      </trkpt>
      <trkpt lat="43.74229" lon="3.48522">
        <ele>889.5</ele>
        <time>2015-10-25T08:17:42Z</time>
      </trkpt>
      <trkpt lat="43.74232" lon="3.48523">
        <ele>887.5</ele>
        <time>2015-10-25T08:17:48Z</time>
      </trkpt>
      <trkpt lat="43.74232" lon="3.48523">
        <ele>887.5</ele>
        <time>2015-10-25T08:17:51Z</time>
      </trkpt>
      <trkpt lat="43.74234" lon="3.48524">
        <ele>885</ele>
        <time>2015-10-25T08:18:07Z</time>
      </trkpt>
      <trkpt lat="43.74235" lon="3.48524">
        <ele>885</ele>
        <time>2015-10-25T08:18:19Z</time>
      </trkpt>
      <trkpt lat="43.74235" lon="3.48524">
        <ele>885</ele>
        <time>2015-10-25T08:18:22Z</time>
      </trkpt>
      <trkpt lat="43.74235" lon="3.48524">
        <ele>885</ele>
        <time>2015-10-25T08:18:27Z</time>
      </trkpt>
      <trkpt lat="43.74234" lon="3.48524">
        <ele>884.5</ele>
        <time>2015-10-25T08:18:31Z</time>
      </trkpt>
      <trkpt lat="43.74234" lon="3.48523">
        <ele>884</ele>
        <time>2015-10-25T08:18:46Z</time>
      </trkpt>
      <trkpt lat="43.74234" lon="3.48524">
        <ele>883</ele>
        <time>2015-10-25T08:18:48Z</time>
      </trkpt>
      <trkpt lat="43.74233" lon="3.48521">
        <ele>884</ele>
        <time>2015-10-25T08:19:12Z</time>
      </trkpt>
      <trkpt lat="43.74236" lon="3.48517">
        <ele>885.5</ele>
        <time>2015-10-25T08:19:14Z</time>
      </trkpt>
      <trkpt lat="43.74237" lon="3.48516">
        <ele>885</ele>
        <time>2015-10-25T08:19:15Z</time>
      </trkpt>
      <trkpt lat="43.74239" lon="3.48515">
        <ele>884.5</ele>
        <time>2015-10-25T08:19:16Z</time>
      </trkpt>
      <trkpt lat="43.7424" lon="3.48512">
        <ele>884.5</ele>
        <time>2015-10-25T08:19:17Z</time>
      </trkpt>
      <trkpt lat="43.74241" lon="3.48508">
        <ele>883.5</ele>
        <time>2015-10-25T08:19:18Z</time>
      </trkpt>
      <trkpt lat="43.7424" lon="3.48504">
        <ele>883.5</ele>
        <time>2015-10-25T08:19:19Z</time>
      </trkpt>
      <trkpt lat="43.74241" lon="3.48499">
        <ele>883</ele>
        <time>2015-10-25T08:19:20Z</time>
      </trkpt>
      <trkpt lat="43.74242" lon="3.48496">
        <ele>882.5</ele>
        <time>2015-10-25T08:19:21Z</time>
      </trkpt>
      <trkpt lat="43.74246" lon="3.48496">
        <ele>880.5</ele>
        <time>2015-10-25T08:19:22Z</time>
      </trkpt>
      <trkpt lat="43.74247" lon="3.48493">
        <ele>880</ele>
        <time>2015-10-25T08:19:23Z</time>
      </trkpt>
      <trkpt lat="43.74248" lon="3.48491">
        <ele>879</ele>
        <time>2015-10-25T08:19:24Z</time>
      </trkpt>
      <trkpt lat="43.74249" lon="3.48488">
        <ele>878.5</ele>
        <time>2015-10-25T08:19:25Z</time>
      </trkpt>
      <trkpt lat="43.74249" lon="3.48486">
        <ele>878.5</ele>
        <time>2015-10-25T08:19:26Z</time>
      </trkpt>
      <trkpt lat="43.74249" lon="3.48484">
        <ele>878</ele>
        <time>2015-10-25T08:19:27Z</time>
      </trkpt>
      <trkpt lat="43.74249" lon="3.48481">
        <ele>877</ele>
        <time>2015-10-25T08:19:28Z</time>
      </trkpt>
      <trkpt lat="43.74248" lon="3.48477">
        <ele>877</ele>
        <time>2015-10-25T08:19:29Z</time>
      </trkpt>
      <trkpt lat="43.74247" lon="3.48473">
        <ele>877</ele>
        <time>2015-10-25T08:19:30Z</time>
      </trkpt>
      <trkpt lat="43.74244" lon="3.48469">
        <ele>876.5</ele>
        <time>2015-10-25T08:19:31Z</time>
      </trkpt>
      <trkpt lat="43.74242" lon="3.48466">
        <ele>877.5</ele>
        <time>2015-10-25T08:19:32Z</time>
      </trkpt>
      <trkpt lat="43.74242" lon="3.48463">
        <ele>876.5</ele>
        <time>2015-10-25T08:19:33Z</time>
      </trkpt>
      <trkpt lat="43.7424" lon="3.48459">
        <ele>876.5</ele>
        <time>2015-10-25T08:19:34Z</time>
      </trkpt>
      <trkpt lat="43.74239" lon="3.48456">
        <ele>876</ele>
        <time>2015-10-25T08:19:35Z</time>
      </trkpt>
      <trkpt lat="43.74238" lon="3.48454">
        <ele>876</ele>
        <time>2015-10-25T08:19:36Z</time>
      </trkpt>
      <trkpt lat="43.74238" lon="3.48452">
        <ele>875.5</ele>
        <time>2015-10-25T08:19:37Z</time>
      </trkpt>
      <trkpt lat="43.74236" lon="3.4845">
        <ele>876</ele>
        <time>2015-10-25T08:19:38Z</time>
      </trkpt>
      <trkpt lat="43.74234" lon="3.48448">
        <ele>875.5</ele>
        <time>2015-10-25T08:19:40Z</time>
      </trkpt>
      <trkpt lat="43.7423" lon="3.48447">
        <ele>876</ele>
        <time>2015-10-25T08:19:41Z</time>
      </trkpt>
      <trkpt lat="43.74229" lon="3.48448">
        <ele>876.5</ele>
        <time>2015-10-25T08:19:42Z</time>
      </trkpt>
      <trkpt lat="43.74225" lon="3.48449">
        <ele>876.5</ele>
        <time>2015-10-25T08:19:44Z</time>
      </trkpt>
      <trkpt lat="43.74223" lon="3.4845">
        <ele>877.5</ele>
        <time>2015-10-25T08:19:45Z</time>
      </trkpt>
      <trkpt lat="43.74222" lon="3.4845">
        <ele>877.5</ele>
        <time>2015-10-25T08:19:46Z</time>
      </trkpt>
      <trkpt lat="43.7422" lon="3.48451">
        <ele>878.5</ele>
        <time>2015-10-25T08:19:47Z</time>
      </trkpt>
      <trkpt lat="43.74219" lon="3.48451">
        <ele>878.5</ele>
        <time>2015-10-25T08:19:48Z</time>
      </trkpt>
      <trkpt lat="43.74217" lon="3.48451">
        <ele>878.5</ele>
        <time>2015-10-25T08:19:49Z</time>
      </trkpt>
      <trkpt lat="43.74216" lon="3.4845">
        <ele>879</ele>
        <time>2015-10-25T08:19:50Z</time>
      </trkpt>
      <trkpt lat="43.74214" lon="3.4845">
        <ele>879.5</ele>
        <time>2015-10-25T08:19:51Z</time>
      </trkpt>
      <trkpt lat="43.74212" lon="3.48451">
        <ele>880</ele>
        <time>2015-10-25T08:19:52Z</time>
      </trkpt>
      <trkpt lat="43.7421" lon="3.48451">
        <ele>880</ele>
        <time>2015-10-25T08:19:53Z</time>
      </trkpt>
      <trkpt lat="43.74209" lon="3.48451">
        <ele>880</ele>
        <time>2015-10-25T08:19:54Z</time>
      </trkpt>
      <trkpt lat="43.74207" lon="3.48451">
        <ele>879.5</ele>
        <time>2015-10-25T08:19:55Z</time>
      </trkpt>
      <trkpt lat="43.74206" lon="3.48451">
        <ele>879.5</ele>
        <time>2015-10-25T08:19:56Z</time>
      </trkpt>
      <trkpt lat="43.74204" lon="3.48451">
        <ele>879.5</ele>
        <time>2015-10-25T08:19:57Z</time>
      </trkpt>
      <trkpt lat="43.74203" lon="3.48452">
        <ele>879</ele>
        <time>2015-10-25T08:19:58Z</time>
      </trkpt>
      <trkpt lat="43.74202" lon="3.48452">
        <ele>879</ele>
        <time>2015-10-25T08:19:59Z</time>
      </trkpt>
      <trkpt lat="43.74199" lon="3.48454">
        <ele>879</ele>
        <time>2015-10-25T08:20:01Z</time>
      </trkpt>
      <trkpt lat="43.74198" lon="3.48454">
        <ele>879</ele>
        <time>2015-10-25T08:20:02Z</time>
      </trkpt>
      <trkpt lat="43.74197" lon="3.48454">
        <ele>878.5</ele>
        <time>2015-10-25T08:20:03Z</time>
      </trkpt>
      <trkpt lat="43.74195" lon="3.48454">
        <ele>879</ele>
        <time>2015-10-25T08:20:04Z</time>
      </trkpt>
      <trkpt lat="43.74194" lon="3.48454">
        <ele>879</ele>
        <time>2015-10-25T08:20:05Z</time>
      </trkpt>
      <trkpt lat="43.74193" lon="3.48453">
        <ele>879</ele>
        <time>2015-10-25T08:20:06Z</time>
      </trkpt>
      <trkpt lat="43.74191" lon="3.48452">
        <ele>878.5</ele>
        <time>2015-10-25T08:20:07Z</time>
      </trkpt>
      <trkpt lat="43.7419" lon="3.48452">
        <ele>878.5</ele>
        <time>2015-10-25T08:20:08Z</time>
      </trkpt>
      <trkpt lat="43.74188" lon="3.4845">
        <ele>878</ele>
        <time>2015-10-25T08:20:10Z</time>
      </trkpt>
      <trkpt lat="43.74187" lon="3.48448">
        <ele>877.5</ele>
        <time>2015-10-25T08:20:11Z</time>
      </trkpt>
      <trkpt lat="43.74186" lon="3.48446">
        <ele>877</ele>
        <time>2015-10-25T08:20:12Z</time>
      </trkpt>
      <trkpt lat="43.74186" lon="3.48444">
        <ele>877</ele>
        <time>2015-10-25T08:20:13Z</time>
      </trkpt>
      <trkpt lat="43.74185" lon="3.48442">
        <ele>877</ele>
        <time>2015-10-25T08:20:14Z</time>
      </trkpt>
      <trkpt lat="43.74182" lon="3.48441">
        <ele>877.5</ele>
        <time>2015-10-25T08:20:15Z</time>
      </trkpt>
      <trkpt lat="43.7418" lon="3.4844">
        <ele>877</ele>
        <time>2015-10-25T08:20:16Z</time>
      </trkpt>
      <trkpt lat="43.74178" lon="3.48438">
        <ele>877</ele>
        <time>2015-10-25T08:20:17Z</time>
      </trkpt>
      <trkpt lat="43.74176" lon="3.48437">
        <ele>876.5</ele>
        <time>2015-10-25T08:20:18Z</time>
      </trkpt>
      <trkpt lat="43.74175" lon="3.48435">
        <ele>876</ele>
        <time>2015-10-25T08:20:19Z</time>
      </trkpt>
      <trkpt lat="43.74173" lon="3.48434">
        <ele>875.5</ele>
        <time>2015-10-25T08:20:20Z</time>
      </trkpt>
      <trkpt lat="43.74171" lon="3.48432">
        <ele>875.5</ele>
        <time>2015-10-25T08:20:21Z</time>
      </trkpt>
      <trkpt lat="43.7417" lon="3.4843">
        <ele>875.5</ele>
        <time>2015-10-25T08:20:22Z</time>
      </trkpt>
      <trkpt lat="43.74168" lon="3.48429">
        <ele>874</ele>
        <time>2015-10-25T08:20:23Z</time>
      </trkpt>
      <trkpt lat="43.74166" lon="3.48427">
        <ele>873</ele>
        <time>2015-10-25T08:20:24Z</time>
      </trkpt>
      <trkpt lat="43.74164" lon="3.48426">
        <ele>873.5</ele>
        <time>2015-10-25T08:20:25Z</time>
      </trkpt>
      <trkpt lat="43.74163" lon="3.48425">
        <ele>872.5</ele>
        <time>2015-10-25T08:20:26Z</time>
      </trkpt>
      <trkpt lat="43.74161" lon="3.48423">
        <ele>872</ele>
        <time>2015-10-25T08:20:27Z</time>
      </trkpt>
      <trkpt lat="43.74159" lon="3.48422">
        <ele>871.5</ele>
        <time>2015-10-25T08:20:28Z</time>
      </trkpt>
      <trkpt lat="43.74158" lon="3.48421">
        <ele>871.5</ele>
        <time>2015-10-25T08:20:29Z</time>
      </trkpt>
      <trkpt lat="43.74156" lon="3.48418">
        <ele>870.5</ele>
        <time>2015-10-25T08:20:30Z</time>
      </trkpt>
      <trkpt lat="43.74154" lon="3.48416">
        <ele>870</ele>
        <time>2015-10-25T08:20:31Z</time>
      </trkpt>
      <trkpt lat="43.74152" lon="3.48414">
        <ele>869</ele>
        <time>2015-10-25T08:20:32Z</time>
      </trkpt>
      <trkpt lat="43.7415" lon="3.48413">
        <ele>869</ele>
        <time>2015-10-25T08:20:33Z</time>
      </trkpt>
      <trkpt lat="43.74148" lon="3.48411">
        <ele>868.5</ele>
        <time>2015-10-25T08:20:34Z</time>
      </trkpt>
      <trkpt lat="43.74146" lon="3.4841">
        <ele>868</ele>
        <time>2015-10-25T08:20:35Z</time>
      </trkpt>
      <trkpt lat="43.74145" lon="3.48407">
        <ele>867.5</ele>
        <time>2015-10-25T08:20:36Z</time>
      </trkpt>
      <trkpt lat="43.74143" lon="3.48405">
        <ele>867.5</ele>
        <time>2015-10-25T08:20:37Z</time>
      </trkpt>
      <trkpt lat="43.74141" lon="3.48402">
        <ele>867</ele>
        <time>2015-10-25T08:20:38Z</time>
      </trkpt>
      <trkpt lat="43.7414" lon="3.484">
        <ele>866</ele>
        <time>2015-10-25T08:20:39Z</time>
      </trkpt>
      <trkpt lat="43.74138" lon="3.48397">
        <ele>865.5</ele>
        <time>2015-10-25T08:20:40Z</time>
      </trkpt>
      <trkpt lat="43.74136" lon="3.48395">
        <ele>864.5</ele>
        <time>2015-10-25T08:20:41Z</time>
      </trkpt>
      <trkpt lat="43.74132" lon="3.48393">
        <ele>863.5</ele>
        <time>2015-10-25T08:20:42Z</time>
      </trkpt>
      <trkpt lat="43.74129" lon="3.48391">
        <ele>862.5</ele>
        <time>2015-10-25T08:20:43Z</time>
      </trkpt>
      <trkpt lat="43.74127" lon="3.4839">
        <ele>862</ele>
        <time>2015-10-25T08:20:44Z</time>
      </trkpt>
      <trkpt lat="43.74125" lon="3.48388">
        <ele>862</ele>
        <time>2015-10-25T08:20:45Z</time>
      </trkpt>
      <trkpt lat="43.74123" lon="3.48385">
        <ele>861</ele>
        <time>2015-10-25T08:20:46Z</time>
      </trkpt>
      <trkpt lat="43.74121" lon="3.48383">
        <ele>860.5</ele>
        <time>2015-10-25T08:20:47Z</time>
      </trkpt>
      <trkpt lat="43.74119" lon="3.48381">
        <ele>859.5</ele>
        <time>2015-10-25T08:20:48Z</time>
      </trkpt>
      <trkpt lat="43.74116" lon="3.4838">
        <ele>858</ele>
        <time>2015-10-25T08:20:49Z</time>
      </trkpt>
      <trkpt lat="43.74114" lon="3.48379">
        <ele>858</ele>
        <time>2015-10-25T08:20:50Z</time>
      </trkpt>
      <trkpt lat="43.74112" lon="3.48379">
        <ele>858</ele>
        <time>2015-10-25T08:20:51Z</time>
      </trkpt>
      <trkpt lat="43.7411" lon="3.48378">
        <ele>857.5</ele>
        <time>2015-10-25T08:20:52Z</time>
      </trkpt>
      <trkpt lat="43.74109" lon="3.48376">
        <ele>856.5</ele>
        <time>2015-10-25T08:20:53Z</time>
      </trkpt>
      <trkpt lat="43.74107" lon="3.48374">
        <ele>856.5</ele>
        <time>2015-10-25T08:20:54Z</time>
      </trkpt>
      <trkpt lat="43.74106" lon="3.48373">
        <ele>856</ele>
        <time>2015-10-25T08:20:55Z</time>
      </trkpt>
      <trkpt lat="43.74105" lon="3.48372">
        <ele>856</ele>
        <time>2015-10-25T08:20:56Z</time>
      </trkpt>
      <trkpt lat="43.74104" lon="3.4837">
        <ele>855.5</ele>
        <time>2015-10-25T08:20:57Z</time>
      </trkpt>
      <trkpt lat="43.74104" lon="3.48367">
        <ele>854.5</ele>
        <time>2015-10-25T08:20:58Z</time>
      </trkpt>
      <trkpt lat="43.74103" lon="3.48364">
        <ele>853</ele>
        <time>2015-10-25T08:20:59Z</time>
      </trkpt>
      <trkpt lat="43.74102" lon="3.48362">
        <ele>854</ele>
        <time>2015-10-25T08:21:00Z</time>
      </trkpt>
      <trkpt lat="43.74103" lon="3.48363">
        <ele>854</ele>
        <time>2015-10-25T08:21:01Z</time>
      </trkpt>
      <trkpt lat="43.74102" lon="3.48363">
        <ele>853.5</ele>
        <time>2015-10-25T08:21:02Z</time>
      </trkpt>
      <trkpt lat="43.74101" lon="3.48363">
        <ele>853.5</ele>
        <time>2015-10-25T08:21:03Z</time>
      </trkpt>
      <trkpt lat="43.741" lon="3.48362">
        <ele>853.5</ele>
        <time>2015-10-25T08:21:04Z</time>
      </trkpt>
      <trkpt lat="43.74098" lon="3.48362">
        <ele>853</ele>
        <time>2015-10-25T08:21:05Z</time>
      </trkpt>
      <trkpt lat="43.74098" lon="3.48362">
        <ele>852</ele>
        <time>2015-10-25T08:21:06Z</time>
      </trkpt>
      <trkpt lat="43.74097" lon="3.48361">
        <ele>851.5</ele>
        <time>2015-10-25T08:21:07Z</time>
      </trkpt>
      <trkpt lat="43.74096" lon="3.48359">
        <ele>851</ele>
        <time>2015-10-25T08:21:08Z</time>
      </trkpt>
      <trkpt lat="43.74098" lon="3.48358">
        <ele>849</ele>
        <time>2015-10-25T08:21:09Z</time>
      </trkpt>
      <trkpt lat="43.74097" lon="3.48357">
        <ele>848</ele>
        <time>2015-10-25T08:21:14Z</time>
      </trkpt>
      <trkpt lat="43.74098" lon="3.48357">
        <ele>847</ele>
        <time>2015-10-25T08:21:16Z</time>
      </trkpt>
      <trkpt lat="43.74099" lon="3.48357">
        <ele>847</ele>
        <time>2015-10-25T08:21:17Z</time>
      </trkpt>
      <trkpt lat="43.74099" lon="3.48357">
        <ele>846.5</ele>
        <time>2015-10-25T08:21:18Z</time>
      </trkpt>
      <trkpt lat="43.741" lon="3.48357">
        <ele>846</ele>
        <time>2015-10-25T08:21:19Z</time>
      </trkpt>
      <trkpt lat="43.741" lon="3.48358">
        <ele>846</ele>
        <time>2015-10-25T08:21:20Z</time>
      </trkpt>
      <trkpt lat="43.741" lon="3.48357">
        <ele>845</ele>
        <time>2015-10-25T08:21:31Z</time>
      </trkpt>
      <trkpt lat="43.74097" lon="3.48354">
        <ele>845</ele>
        <time>2015-10-25T08:21:33Z</time>
      </trkpt>
      <trkpt lat="43.74096" lon="3.48352">
        <ele>844.5</ele>
        <time>2015-10-25T08:21:34Z</time>
      </trkpt>
      <trkpt lat="43.74094" lon="3.4835">
        <ele>844.5</ele>
        <time>2015-10-25T08:21:35Z</time>
      </trkpt>
      <trkpt lat="43.74092" lon="3.48348">
        <ele>844</ele>
        <time>2015-10-25T08:21:36Z</time>
      </trkpt>
      <trkpt lat="43.7409" lon="3.48345">
        <ele>843</ele>
        <time>2015-10-25T08:21:37Z</time>
      </trkpt>
      <trkpt lat="43.74086" lon="3.48345">
        <ele>843</ele>
        <time>2015-10-25T08:21:38Z</time>
      </trkpt>
      <trkpt lat="43.74083" lon="3.48344">
        <ele>842</ele>
        <time>2015-10-25T08:21:39Z</time>
      </trkpt>
      <trkpt lat="43.7408" lon="3.48342">
        <ele>841.5</ele>
        <time>2015-10-25T08:21:40Z</time>
      </trkpt>
      <trkpt lat="43.74077" lon="3.48339">
        <ele>840</ele>
        <time>2015-10-25T08:21:41Z</time>
      </trkpt>
      <trkpt lat="43.74075" lon="3.48337">
        <ele>839.5</ele>
        <time>2015-10-25T08:21:42Z</time>
      </trkpt>
      <trkpt lat="43.74073" lon="3.48334">
        <ele>837.5</ele>
        <time>2015-10-25T08:21:43Z</time>
      </trkpt>
      <trkpt lat="43.7407" lon="3.48331">
        <ele>837</ele>
        <time>2015-10-25T08:21:44Z</time>
      </trkpt>
      <trkpt lat="43.74068" lon="3.48326">
        <ele>836</ele>
        <time>2015-10-25T08:21:45Z</time>
      </trkpt>
      <trkpt lat="43.74064" lon="3.48321">
        <ele>834.5</ele>
        <time>2015-10-25T08:21:46Z</time>
      </trkpt>
      <trkpt lat="43.74061" lon="3.48317">
        <ele>833.5</ele>
        <time>2015-10-25T08:21:47Z</time>
      </trkpt>
      <trkpt lat="43.74057" lon="3.48314">
        <ele>833</ele>
        <time>2015-10-25T08:21:48Z</time>
      </trkpt>
      <trkpt lat="43.74055" lon="3.48312">
        <ele>832.5</ele>
        <time>2015-10-25T08:21:49Z</time>
      </trkpt>
      <trkpt lat="43.74054" lon="3.48311">
        <ele>832</ele>
        <time>2015-10-25T08:21:51Z</time>
      </trkpt>
      <trkpt lat="43.74056" lon="3.4831">
        <ele>831</ele>
        <time>2015-10-25T08:22:12Z</time>
      </trkpt>
      <trkpt lat="43.74055" lon="3.48308">
        <ele>827</ele>
        <time>2015-10-25T08:21:51Z</time>
      </trkpt>
      <trkpt lat="43.74055" lon="3.48307">
        <ele>827.5</ele>
        <time>2015-10-25T08:21:53Z</time>
      </trkpt>
      <trkpt lat="43.74054" lon="3.48307">
        <ele>827</ele>
        <time>2015-10-25T08:21:54Z</time>
      </trkpt>
      <trkpt lat="43.74054" lon="3.48307">
        <ele>827</ele>
        <time>2015-10-25T08:21:55Z</time>
      </trkpt>
      <trkpt lat="43.74053" lon="3.48307">
        <ele>826</ele>
        <time>2015-10-25T08:21:56Z</time>
      </trkpt>
      <trkpt lat="43.74052" lon="3.48306">
        <ele>824.5</ele>
        <time>2015-10-25T08:21:58Z</time>
      </trkpt>
      <trkpt lat="43.74054" lon="3.48304">
        <ele>824.5</ele>
        <time>2015-10-25T08:22:00Z</time>
      </trkpt>
      <trkpt lat="43.74055" lon="3.48305">
        <ele>823.5</ele>
        <time>2015-10-25T08:22:26Z</time>
      </trkpt>
      <trkpt lat="43.74054" lon="3.48305">
        <ele>823</ele>
        <time>2015-10-25T08:22:28Z</time>
      </trkpt>
      <trkpt lat="43.74055" lon="3.48307">
        <ele>823</ele>
        <time>2015-10-25T08:29:40Z</time>
      </trkpt>
      <trkpt lat="43.74056" lon="3.48308">
        <ele>823.5</ele>
        <time>2015-10-25T08:29:42Z</time>
      </trkpt>
      <trkpt lat="43.74056" lon="3.48308">
        <ele>823.5</ele>
        <time>2015-10-25T08:29:43Z</time>
      </trkpt>
      <trkpt lat="43.74056" lon="3.48308">
        <ele>823.5</ele>
        <time>2015-10-25T08:29:44Z</time>
      </trkpt>
      <trkpt lat="43.74057" lon="3.48308">
        <ele>823.5</ele>
        <time>2015-10-25T08:29:51Z</time>
      </trkpt>
      <trkpt lat="43.74058" lon="3.48309">
        <ele>824.5</ele>
        <time>2015-10-25T08:29:53Z</time>
      </trkpt>
      <trkpt lat="43.74059" lon="3.4831">
        <ele>824.5</ele>
        <time>2015-10-25T08:29:54Z</time>
      </trkpt>
      <trkpt lat="43.7406" lon="3.4831">
        <ele>825</ele>
        <time>2015-10-25T08:29:55Z</time>
      </trkpt>
      <trkpt lat="43.7406" lon="3.48311">
        <ele>825.5</ele>
        <time>2015-10-25T08:29:56Z</time>
      </trkpt>
      <trkpt lat="43.74061" lon="3.48312">
        <ele>825.5</ele>
        <time>2015-10-25T08:29:57Z</time>
      </trkpt>
      <trkpt lat="43.74061" lon="3.48313">
        <ele>826</ele>
        <time>2015-10-25T08:29:58Z</time>
      </trkpt>
      <trkpt lat="43.74062" lon="3.48313">
        <ele>825.5</ele>
        <time>2015-10-25T08:30:02Z</time>
      </trkpt>
      <trkpt lat="43.74063" lon="3.48313">
        <ele>826</ele>
        <time>2015-10-25T08:30:04Z</time>
      </trkpt>
      <trkpt lat="43.74063" lon="3.48313">
        <ele>826</ele>
        <time>2015-10-25T08:30:05Z</time>
      </trkpt>
      <trkpt lat="43.74064" lon="3.48313">
        <ele>826</ele>
        <time>2015-10-25T08:30:06Z</time>
      </trkpt>
      <trkpt lat="43.74065" lon="3.48314">
        <ele>826</ele>
        <time>2015-10-25T08:30:07Z</time>
      </trkpt>
      <trkpt lat="43.74066" lon="3.48314">
        <ele>826.5</ele>
        <time>2015-10-25T08:30:08Z</time>
      </trkpt>
      <trkpt lat="43.74067" lon="3.48314">
        <ele>827</ele>
        <time>2015-10-25T08:30:09Z</time>
      </trkpt>
      <trkpt lat="43.74068" lon="3.48315">
        <ele>827</ele>
        <time>2015-10-25T08:30:10Z</time>
      </trkpt>
      <trkpt lat="43.74068" lon="3.48316">
        <ele>827.5</ele>
        <time>2015-10-25T08:30:11Z</time>
      </trkpt>
      <trkpt lat="43.74069" lon="3.48316">
        <ele>827.5</ele>
        <time>2015-10-25T08:30:12Z</time>
      </trkpt>
      <trkpt lat="43.74069" lon="3.48317">
        <ele>828</ele>
        <time>2015-10-25T08:30:13Z</time>
      </trkpt>
      <trkpt lat="43.7407" lon="3.48317">
        <ele>828.5</ele>
        <time>2015-10-25T08:30:14Z</time>
      </trkpt>
      <trkpt lat="43.7407" lon="3.48318">
        <ele>828.5</ele>
        <time>2015-10-25T08:30:15Z</time>
      </trkpt>
      <trkpt lat="43.74071" lon="3.48319">
        <ele>829</ele>
        <time>2015-10-25T08:30:16Z</time>
      </trkpt>
      <trkpt lat="43.74071" lon="3.4832">
        <ele>829</ele>
        <time>2015-10-25T08:30:17Z</time>
      </trkpt>
      <trkpt lat="43.74071" lon="3.4832">
        <ele>829</ele>
        <time>2015-10-25T08:30:18Z</time>
      </trkpt>
      <trkpt lat="43.74071" lon="3.48321">
        <ele>829.5</ele>
        <time>2015-10-25T08:30:20Z</time>
      </trkpt>
      <trkpt lat="43.74072" lon="3.48321">
        <ele>830</ele>
        <time>2015-10-25T08:30:22Z</time>
      </trkpt>
      <trkpt lat="43.74072" lon="3.48322">
        <ele>830</ele>
        <time>2015-10-25T08:30:23Z</time>
      </trkpt>
      <trkpt lat="43.74072" lon="3.48322">
        <ele>830</ele>
        <time>2015-10-25T08:30:24Z</time>
      </trkpt>
      <trkpt lat="43.74072" lon="3.48323">
        <ele>830</ele>
        <time>2015-10-25T08:30:31Z</time>
      </trkpt>
      <trkpt lat="43.74072" lon="3.48323">
        <ele>830</ele>
        <time>2015-10-25T08:30:36Z</time>
      </trkpt>
      <trkpt lat="43.74073" lon="3.48323">
        <ele>831</ele>
        <time>2015-10-25T08:30:40Z</time>
      </trkpt>
      <trkpt lat="43.74074" lon="3.48323">
        <ele>832.5</ele>
        <time>2015-10-25T08:30:42Z</time>
      </trkpt>
      <trkpt lat="43.74074" lon="3.48324">
        <ele>832.5</ele>
        <time>2015-10-25T08:30:44Z</time>
      </trkpt>
      <trkpt lat="43.74076" lon="3.48325">
        <ele>834</ele>
        <time>2015-10-25T08:30:46Z</time>
      </trkpt>
      <trkpt lat="43.74077" lon="3.48325">
        <ele>834.5</ele>
        <time>2015-10-25T08:30:47Z</time>
      </trkpt>
      <trkpt lat="43.74078" lon="3.48326">
        <ele>834.5</ele>
        <time>2015-10-25T08:30:48Z</time>
      </trkpt>
      <trkpt lat="43.74078" lon="3.48327">
        <ele>834.5</ele>
        <time>2015-10-25T08:30:49Z</time>
      </trkpt>
      <trkpt lat="43.74079" lon="3.48328">
        <ele>834</ele>
        <time>2015-10-25T08:30:50Z</time>
      </trkpt>
      <trkpt lat="43.7408" lon="3.48329">
        <ele>834.5</ele>
        <time>2015-10-25T08:30:51Z</time>
      </trkpt>
      <trkpt lat="43.74081" lon="3.4833">
        <ele>834.5</ele>
        <time>2015-10-25T08:30:52Z</time>
      </trkpt>
      <trkpt lat="43.74082" lon="3.4833">
        <ele>835</ele>
        <time>2015-10-25T08:30:53Z</time>
      </trkpt>
      <trkpt lat="43.74082" lon="3.48331">
        <ele>835</ele>
        <time>2015-10-25T08:30:54Z</time>
      </trkpt>
      <trkpt lat="43.74083" lon="3.48332">
        <ele>835</ele>
        <time>2015-10-25T08:30:55Z</time>
      </trkpt>
      <trkpt lat="43.74084" lon="3.48333">
        <ele>835.5</ele>
        <time>2015-10-25T08:30:56Z</time>
      </trkpt>
      <trkpt lat="43.74085" lon="3.48333">
        <ele>835.5</ele>
        <time>2015-10-25T08:30:57Z</time>
      </trkpt>
      <trkpt lat="43.74086" lon="3.48333">
        <ele>835.5</ele>
        <time>2015-10-25T08:30:59Z</time>
      </trkpt>
      <trkpt lat="43.74087" lon="3.48333">
        <ele>835.5</ele>
        <time>2015-10-25T08:31:00Z</time>
      </trkpt>
      <trkpt lat="43.74088" lon="3.48333">
        <ele>836</ele>
        <time>2015-10-25T08:31:01Z</time>
      </trkpt>
      <trkpt lat="43.74089" lon="3.48334">
        <ele>836</ele>
        <time>2015-10-25T08:31:02Z</time>
      </trkpt>
      <trkpt lat="43.7409" lon="3.48334">
        <ele>836.5</ele>
        <time>2015-10-25T08:31:03Z</time>
      </trkpt>
      <trkpt lat="43.74091" lon="3.48335">
        <ele>836.5</ele>
        <time>2015-10-25T08:31:04Z</time>
      </trkpt>
      <trkpt lat="43.74091" lon="3.48335">
        <ele>837</ele>
        <time>2015-10-25T08:31:05Z</time>
      </trkpt>
      <trkpt lat="43.74092" lon="3.48335">
        <ele>837.5</ele>
        <time>2015-10-25T08:31:06Z</time>
      </trkpt>
      <trkpt lat="43.74092" lon="3.48336">
        <ele>837.5</ele>
        <time>2015-10-25T08:31:07Z</time>
      </trkpt>
      <trkpt lat="43.74092" lon="3.48337">
        <ele>837.5</ele>
        <time>2015-10-25T08:31:08Z</time>
      </trkpt>
      <trkpt lat="43.74093" lon="3.48337">
        <ele>838</ele>
        <time>2015-10-25T08:31:10Z</time>
      </trkpt>
      <trkpt lat="43.74093" lon="3.48338">
        <ele>838</ele>
        <time>2015-10-25T08:31:10Z</time>
      </trkpt>
      <trkpt lat="43.74093" lon="3.48338">
        <ele>838</ele>
        <time>2015-10-25T08:31:11Z</time>
      </trkpt>
      <trkpt lat="43.74094" lon="3.48339">
        <ele>838.5</ele>
        <time>2015-10-25T08:31:12Z</time>
      </trkpt>
      <trkpt lat="43.74094" lon="3.4834">
        <ele>838</ele>
        <time>2015-10-25T08:31:13Z</time>
      </trkpt>
      <trkpt lat="43.74095" lon="3.48341">
        <ele>838.5</ele>
        <time>2015-10-25T08:31:14Z</time>
      </trkpt>
      <trkpt lat="43.74095" lon="3.48342">
        <ele>838.5</ele>
        <time>2015-10-25T08:31:16Z</time>
      </trkpt>
      <trkpt lat="43.74095" lon="3.48344">
        <ele>839</ele>
        <time>2015-10-25T08:31:18Z</time>
      </trkpt>
      <trkpt lat="43.74096" lon="3.48344">
        <ele>839.5</ele>
        <time>2015-10-25T08:31:19Z</time>
      </trkpt>
      <trkpt lat="43.74097" lon="3.48345">
        <ele>839.5</ele>
        <time>2015-10-25T08:31:21Z</time>
      </trkpt>
      <trkpt lat="43.74097" lon="3.48346">
        <ele>840</ele>
        <time>2015-10-25T08:31:23Z</time>
      </trkpt>
      <trkpt lat="43.74098" lon="3.48347">
        <ele>840.5</ele>
        <time>2015-10-25T08:31:24Z</time>
      </trkpt>
      <trkpt lat="43.74098" lon="3.48347">
        <ele>840.5</ele>
        <time>2015-10-25T08:31:25Z</time>
      </trkpt>
      <trkpt lat="43.74099" lon="3.48347">
        <ele>840.5</ele>
        <time>2015-10-25T08:31:26Z</time>
      </trkpt>
      <trkpt lat="43.74099" lon="3.48348">
        <ele>840.5</ele>
        <time>2015-10-25T08:31:27Z</time>
      </trkpt>
      <trkpt lat="43.741" lon="3.48348">
        <ele>841</ele>
        <time>2015-10-25T08:31:28Z</time>
      </trkpt>
      <trkpt lat="43.74101" lon="3.48347">
        <ele>841</ele>
        <time>2015-10-25T08:31:29Z</time>
      </trkpt>
      <trkpt lat="43.74102" lon="3.48348">
        <ele>841</ele>
        <time>2015-10-25T08:31:30Z</time>
      </trkpt>
      <trkpt lat="43.74103" lon="3.48348">
        <ele>842</ele>
        <time>2015-10-25T08:31:33Z</time>
      </trkpt>
      <trkpt lat="43.74104" lon="3.4835">
        <ele>842.5</ele>
        <time>2015-10-25T08:31:35Z</time>
      </trkpt>
      <trkpt lat="43.74104" lon="3.4835">
        <ele>842.5</ele>
        <time>2015-10-25T08:31:36Z</time>
      </trkpt>
      <trkpt lat="43.74104" lon="3.48351">
        <ele>843.5</ele>
        <time>2015-10-25T08:31:37Z</time>
      </trkpt>
      <trkpt lat="43.74104" lon="3.48351">
        <ele>844</ele>
        <time>2015-10-25T08:31:38Z</time>
      </trkpt>
      <trkpt lat="43.74105" lon="3.48352">
        <ele>844.5</ele>
        <time>2015-10-25T08:31:40Z</time>
      </trkpt>
      <trkpt lat="43.74106" lon="3.48353">
        <ele>845.5</ele>
        <time>2015-10-25T08:31:42Z</time>
      </trkpt>
      <trkpt lat="43.74107" lon="3.48353">
        <ele>846</ele>
        <time>2015-10-25T08:31:43Z</time>
      </trkpt>
      <trkpt lat="43.74108" lon="3.48353">
        <ele>846.5</ele>
        <time>2015-10-25T08:31:44Z</time>
      </trkpt>
      <trkpt lat="43.74109" lon="3.48353">
        <ele>846</ele>
        <time>2015-10-25T08:31:45Z</time>
      </trkpt>
      <trkpt lat="43.74109" lon="3.48353">
        <ele>846</ele>
        <time>2015-10-25T08:31:47Z</time>
      </trkpt>
      <trkpt lat="43.7411" lon="3.48354">
        <ele>846</ele>
        <time>2015-10-25T08:31:47Z</time>
      </trkpt>
      <trkpt lat="43.7411" lon="3.48354">
        <ele>846</ele>
        <time>2015-10-25T08:31:48Z</time>
      </trkpt>
      <trkpt lat="43.74111" lon="3.48354">
        <ele>846.5</ele>
        <time>2015-10-25T08:31:51Z</time>
      </trkpt>
      <trkpt lat="43.74111" lon="3.48356">
        <ele>847</ele>
        <time>2015-10-25T08:31:53Z</time>
      </trkpt>
      <trkpt lat="43.7411" lon="3.48357">
        <ele>847</ele>
        <time>2015-10-25T08:31:54Z</time>
      </trkpt>
      <trkpt lat="43.7411" lon="3.48357">
        <ele>846.5</ele>
        <time>2015-10-25T08:31:55Z</time>
      </trkpt>
      <trkpt lat="43.7411" lon="3.48359">
        <ele>846.5</ele>
        <time>2015-10-25T08:31:56Z</time>
      </trkpt>
      <trkpt lat="43.7411" lon="3.4836">
        <ele>846</ele>
        <time>2015-10-25T08:31:57Z</time>
      </trkpt>
      <trkpt lat="43.7411" lon="3.48361">
        <ele>845.5</ele>
        <time>2015-10-25T08:31:58Z</time>
      </trkpt>
      <trkpt lat="43.7411" lon="3.48362">
        <ele>845</ele>
        <time>2015-10-25T08:32:02Z</time>
      </trkpt>
      <trkpt lat="43.74111" lon="3.48365">
        <ele>845</ele>
        <time>2015-10-25T08:32:04Z</time>
      </trkpt>
      <trkpt lat="43.74111" lon="3.48365">
        <ele>845.5</ele>
        <time>2015-10-25T08:32:05Z</time>
      </trkpt>
      <trkpt lat="43.74111" lon="3.48365">
        <ele>845.5</ele>
        <time>2015-10-25T08:32:06Z</time>
      </trkpt>
      <trkpt lat="43.74112" lon="3.48366">
        <ele>846</ele>
        <time>2015-10-25T08:32:09Z</time>
      </trkpt>
      <trkpt lat="43.74113" lon="3.48366">
        <ele>846.5</ele>
        <time>2015-10-25T08:32:11Z</time>
      </trkpt>
      <trkpt lat="43.74114" lon="3.48366">
        <ele>847</ele>
        <time>2015-10-25T08:32:12Z</time>
      </trkpt>
      <trkpt lat="43.74114" lon="3.48366">
        <ele>847</ele>
        <time>2015-10-25T08:32:13Z</time>
      </trkpt>
      <trkpt lat="43.74115" lon="3.48366">
        <ele>847.5</ele>
        <time>2015-10-25T08:32:14Z</time>
      </trkpt>
      <trkpt lat="43.74116" lon="3.48366">
        <ele>848</ele>
        <time>2015-10-25T08:32:15Z</time>
      </trkpt>
      <trkpt lat="43.74117" lon="3.48367">
        <ele>848</ele>
        <time>2015-10-25T08:32:16Z</time>
      </trkpt>
      <trkpt lat="43.74118" lon="3.48367">
        <ele>848</ele>
        <time>2015-10-25T08:32:17Z</time>
      </trkpt>
      <trkpt lat="43.74119" lon="3.48368">
        <ele>848</ele>
        <time>2015-10-25T08:32:18Z</time>
      </trkpt>
      <trkpt lat="43.7412" lon="3.48368">
        <ele>847.5</ele>
        <time>2015-10-25T08:32:19Z</time>
      </trkpt>
      <trkpt lat="43.74121" lon="3.48369">
        <ele>847.5</ele>
        <time>2015-10-25T08:32:20Z</time>
      </trkpt>
      <trkpt lat="43.74121" lon="3.48369">
        <ele>848</ele>
        <time>2015-10-25T08:32:22Z</time>
      </trkpt>
      <trkpt lat="43.74122" lon="3.48369">
        <ele>849</ele>
        <time>2015-10-25T08:32:23Z</time>
      </trkpt>
      <trkpt lat="43.74124" lon="3.48369">
        <ele>849.5</ele>
        <time>2015-10-25T08:32:25Z</time>
      </trkpt>
      <trkpt lat="43.74123" lon="3.48369">
        <ele>850</ele>
        <time>2015-10-25T08:32:29Z</time>
      </trkpt>
      <trkpt lat="43.74125" lon="3.48371">
        <ele>851</ele>
        <time>2015-10-25T08:32:33Z</time>
      </trkpt>
      <trkpt lat="43.74126" lon="3.48373">
        <ele>851.5</ele>
        <time>2015-10-25T08:32:35Z</time>
      </trkpt>
      <trkpt lat="43.74126" lon="3.48374">
        <ele>851.5</ele>
        <time>2015-10-25T08:32:36Z</time>
      </trkpt>
      <trkpt lat="43.74126" lon="3.48374">
        <ele>851</ele>
        <time>2015-10-25T08:32:37Z</time>
      </trkpt>
      <trkpt lat="43.74127" lon="3.48375">
        <ele>851.5</ele>
        <time>2015-10-25T08:32:39Z</time>
      </trkpt>
      <trkpt lat="43.74128" lon="3.48377">
        <ele>852</ele>
        <time>2015-10-25T08:32:42Z</time>
      </trkpt>
      <trkpt lat="43.7413" lon="3.48377">
        <ele>853</ele>
        <time>2015-10-25T08:32:44Z</time>
      </trkpt>
      <trkpt lat="43.74131" lon="3.48378">
        <ele>853.5</ele>
        <time>2015-10-25T08:32:45Z</time>
      </trkpt>
      <trkpt lat="43.74132" lon="3.48379">
        <ele>853</ele>
        <time>2015-10-25T08:32:46Z</time>
      </trkpt>
      <trkpt lat="43.74132" lon="3.48379">
        <ele>853.5</ele>
        <time>2015-10-25T08:32:47Z</time>
      </trkpt>
      <trkpt lat="43.74133" lon="3.48379">
        <ele>854</ele>
        <time>2015-10-25T08:32:50Z</time>
      </trkpt>
      <trkpt lat="43.74135" lon="3.4838">
        <ele>854.5</ele>
        <time>2015-10-25T08:32:51Z</time>
      </trkpt>
      <trkpt lat="43.74135" lon="3.4838">
        <ele>855</ele>
        <time>2015-10-25T08:32:52Z</time>
      </trkpt>
      <trkpt lat="43.74136" lon="3.4838">
        <ele>855.5</ele>
        <time>2015-10-25T08:32:53Z</time>
      </trkpt>
      <trkpt lat="43.74137" lon="3.4838">
        <ele>855.5</ele>
        <time>2015-10-25T08:32:54Z</time>
      </trkpt>
      <trkpt lat="43.74137" lon="3.4838">
        <ele>856</ele>
        <time>2015-10-25T08:32:55Z</time>
      </trkpt>
      <trkpt lat="43.74137" lon="3.4838">
        <ele>856</ele>
        <time>2015-10-25T08:32:56Z</time>
      </trkpt>
      <trkpt lat="43.74138" lon="3.48381">
        <ele>856.5</ele>
        <time>2015-10-25T08:32:57Z</time>
      </trkpt>
      <trkpt lat="43.74138" lon="3.48381">
        <ele>857</ele>
        <time>2015-10-25T08:32:58Z</time>
      </trkpt>
      <trkpt lat="43.74139" lon="3.48382">
        <ele>857</ele>
        <time>2015-10-25T08:32:59Z</time>
      </trkpt>
      <trkpt lat="43.74139" lon="3.48382">
        <ele>857.5</ele>
        <time>2015-10-25T08:33:00Z</time>
      </trkpt>
      <trkpt lat="43.74139" lon="3.48383">
        <ele>857.5</ele>
        <time>2015-10-25T08:33:01Z</time>
      </trkpt>
      <trkpt lat="43.7414" lon="3.48383">
        <ele>858</ele>
        <time>2015-10-25T08:33:02Z</time>
      </trkpt>
      <trkpt lat="43.7414" lon="3.48384">
        <ele>858.5</ele>
        <time>2015-10-25T08:33:03Z</time>
      </trkpt>
      <trkpt lat="43.7414" lon="3.48385">
        <ele>858</ele>
        <time>2015-10-25T08:33:05Z</time>
      </trkpt>
      <trkpt lat="43.7414" lon="3.48385">
        <ele>858</ele>
        <time>2015-10-25T08:33:07Z</time>
      </trkpt>
      <trkpt lat="43.74141" lon="3.48386">
        <ele>858.5</ele>
        <time>2015-10-25T08:33:08Z</time>
      </trkpt>
      <trkpt lat="43.74141" lon="3.48387">
        <ele>858.5</ele>
        <time>2015-10-25T08:33:09Z</time>
      </trkpt>
      <trkpt lat="43.74141" lon="3.48387">
        <ele>859</ele>
        <time>2015-10-25T08:33:10Z</time>
      </trkpt>
      <trkpt lat="43.74142" lon="3.48389">
        <ele>860</ele>
        <time>2015-10-25T08:33:12Z</time>
      </trkpt>
      <trkpt lat="43.74142" lon="3.48389">
        <ele>860.5</ele>
        <time>2015-10-25T08:33:13Z</time>
      </trkpt>
      <trkpt lat="43.74143" lon="3.4839">
        <ele>860.5</ele>
        <time>2015-10-25T08:33:14Z</time>
      </trkpt>
      <trkpt lat="43.74143" lon="3.48391">
        <ele>860.5</ele>
        <time>2015-10-25T08:33:16Z</time>
      </trkpt>
      <trkpt lat="43.74144" lon="3.48391">
        <ele>860.5</ele>
        <time>2015-10-25T08:33:20Z</time>
      </trkpt>
      <trkpt lat="43.74144" lon="3.48392">
        <ele>860</ele>
        <time>2015-10-25T08:33:22Z</time>
      </trkpt>
      <trkpt lat="43.74144" lon="3.48392">
        <ele>860</ele>
        <time>2015-10-25T08:33:23Z</time>
      </trkpt>
      <trkpt lat="43.74145" lon="3.48392">
        <ele>860</ele>
        <time>2015-10-25T08:33:25Z</time>
      </trkpt>
      <trkpt lat="43.74146" lon="3.48393">
        <ele>860</ele>
        <time>2015-10-25T08:33:27Z</time>
      </trkpt>
      <trkpt lat="43.74146" lon="3.48394">
        <ele>860</ele>
        <time>2015-10-25T08:33:28Z</time>
      </trkpt>
      <trkpt lat="43.74147" lon="3.48394">
        <ele>860</ele>
        <time>2015-10-25T08:33:29Z</time>
      </trkpt>
      <trkpt lat="43.74147" lon="3.48395">
        <ele>860</ele>
        <time>2015-10-25T08:33:30Z</time>
      </trkpt>
      <trkpt lat="43.74147" lon="3.48396">
        <ele>860.5</ele>
        <time>2015-10-25T08:33:31Z</time>
      </trkpt>
      <trkpt lat="43.74148" lon="3.48398">
        <ele>861</ele>
        <time>2015-10-25T08:33:34Z</time>
      </trkpt>
      <trkpt lat="43.74148" lon="3.48399">
        <ele>861</ele>
        <time>2015-10-25T08:33:36Z</time>
      </trkpt>
      <trkpt lat="43.74149" lon="3.484">
        <ele>861</ele>
        <time>2015-10-25T08:33:37Z</time>
      </trkpt>
      <trkpt lat="43.74149" lon="3.484">
        <ele>861</ele>
        <time>2015-10-25T08:33:38Z</time>
      </trkpt>
      <trkpt lat="43.74149" lon="3.48401">
        <ele>861</ele>
        <time>2015-10-25T08:33:40Z</time>
      </trkpt>
      <trkpt lat="43.7415" lon="3.48403">
        <ele>861</ele>
        <time>2015-10-25T08:33:45Z</time>
      </trkpt>
      <trkpt lat="43.7415" lon="3.48403">
        <ele>861</ele>
        <time>2015-10-25T08:33:47Z</time>
      </trkpt>
      <trkpt lat="43.74151" lon="3.48404">
        <ele>861.5</ele>
        <time>2015-10-25T08:33:48Z</time>
      </trkpt>
      <trkpt lat="43.74151" lon="3.48404">
        <ele>862</ele>
        <time>2015-10-25T08:33:49Z</time>
      </trkpt>
      <trkpt lat="43.74152" lon="3.48405">
        <ele>862</ele>
        <time>2015-10-25T08:33:50Z</time>
      </trkpt>
      <trkpt lat="43.74153" lon="3.48406">
        <ele>862</ele>
        <time>2015-10-25T08:33:51Z</time>
      </trkpt>
      <trkpt lat="43.74154" lon="3.48406">
        <ele>862.5</ele>
        <time>2015-10-25T08:33:52Z</time>
      </trkpt>
      <trkpt lat="43.74154" lon="3.48407">
        <ele>862.5</ele>
        <time>2015-10-25T08:33:53Z</time>
      </trkpt>
      <trkpt lat="43.74155" lon="3.48408">
        <ele>862.5</ele>
        <time>2015-10-25T08:33:54Z</time>
      </trkpt>
      <trkpt lat="43.74155" lon="3.48409">
        <ele>863</ele>
        <time>2015-10-25T08:33:55Z</time>
      </trkpt>
      <trkpt lat="43.74156" lon="3.48409">
        <ele>863</ele>
        <time>2015-10-25T08:33:56Z</time>
      </trkpt>
      <trkpt lat="43.74156" lon="3.48409">
        <ele>863.5</ele>
        <time>2015-10-25T08:33:57Z</time>
      </trkpt>
      <trkpt lat="43.74157" lon="3.4841">
        <ele>864</ele>
        <time>2015-10-25T08:33:58Z</time>
      </trkpt>
      <trkpt lat="43.74158" lon="3.4841">
        <ele>864.5</ele>
        <time>2015-10-25T08:34:00Z</time>
      </trkpt>
      <trkpt lat="43.74158" lon="3.4841">
        <ele>864.5</ele>
        <time>2015-10-25T08:34:02Z</time>
      </trkpt>
      <trkpt lat="43.74159" lon="3.4841">
        <ele>864.5</ele>
        <time>2015-10-25T08:34:03Z</time>
      </trkpt>
      <trkpt lat="43.74159" lon="3.48411">
        <ele>864.5</ele>
        <time>2015-10-25T08:34:04Z</time>
      </trkpt>
      <trkpt lat="43.74159" lon="3.48411">
        <ele>864</ele>
        <time>2015-10-25T08:34:05Z</time>
      </trkpt>
      <trkpt lat="43.7416" lon="3.48411">
        <ele>864.5</ele>
        <time>2015-10-25T08:34:06Z</time>
      </trkpt>
      <trkpt lat="43.7416" lon="3.48412">
        <ele>864.5</ele>
        <time>2015-10-25T08:34:07Z</time>
      </trkpt>
      <trkpt lat="43.7416" lon="3.48414">
        <ele>864.5</ele>
        <time>2015-10-25T08:34:09Z</time>
      </trkpt>
      <trkpt lat="43.74161" lon="3.48415">
        <ele>865.5</ele>
        <time>2015-10-25T08:34:11Z</time>
      </trkpt>
      <trkpt lat="43.74161" lon="3.48416">
        <ele>865.5</ele>
        <time>2015-10-25T08:34:13Z</time>
      </trkpt>
      <trkpt lat="43.74162" lon="3.48416">
        <ele>866</ele>
        <time>2015-10-25T08:34:15Z</time>
      </trkpt>
      <trkpt lat="43.74163" lon="3.48416">
        <ele>866</ele>
        <time>2015-10-25T08:34:16Z</time>
      </trkpt>
      <trkpt lat="43.74163" lon="3.48416">
        <ele>866</ele>
        <time>2015-10-25T08:34:17Z</time>
      </trkpt>
      <trkpt lat="43.74163" lon="3.48416">
        <ele>866</ele>
        <time>2015-10-25T08:34:18Z</time>
      </trkpt>
      <trkpt lat="43.74163" lon="3.48416">
        <ele>866</ele>
        <time>2015-10-25T08:34:19Z</time>
      </trkpt>
      <trkpt lat="43.74164" lon="3.48416">
        <ele>866</ele>
        <time>2015-10-25T08:34:20Z</time>
      </trkpt>
      <trkpt lat="43.74164" lon="3.48416">
        <ele>866</ele>
        <time>2015-10-25T08:34:21Z</time>
      </trkpt>
      <trkpt lat="43.74165" lon="3.48417">
        <ele>866</ele>
        <time>2015-10-25T08:34:23Z</time>
      </trkpt>
      <trkpt lat="43.74166" lon="3.48418">
        <ele>866.5</ele>
        <time>2015-10-25T08:34:24Z</time>
      </trkpt>
      <trkpt lat="43.74166" lon="3.48418">
        <ele>866.5</ele>
        <time>2015-10-25T08:34:25Z</time>
      </trkpt>
      <trkpt lat="43.74167" lon="3.48419">
        <ele>867</ele>
        <time>2015-10-25T08:34:26Z</time>
      </trkpt>
      <trkpt lat="43.74167" lon="3.4842">
        <ele>867.5</ele>
        <time>2015-10-25T08:34:28Z</time>
      </trkpt>
      <trkpt lat="43.74168" lon="3.48421">
        <ele>868.5</ele>
        <time>2015-10-25T08:34:31Z</time>
      </trkpt>
      <trkpt lat="43.74169" lon="3.48422">
        <ele>869</ele>
        <time>2015-10-25T08:34:33Z</time>
      </trkpt>
      <trkpt lat="43.74169" lon="3.48423">
        <ele>869</ele>
        <time>2015-10-25T08:34:34Z</time>
      </trkpt>
      <trkpt lat="43.74169" lon="3.48423">
        <ele>869</ele>
        <time>2015-10-25T08:34:35Z</time>
      </trkpt>
      <trkpt lat="43.7417" lon="3.48424">
        <ele>869</ele>
        <time>2015-10-25T08:34:36Z</time>
      </trkpt>
      <trkpt lat="43.7417" lon="3.48425">
        <ele>869</ele>
        <time>2015-10-25T08:34:38Z</time>
      </trkpt>
      <trkpt lat="43.7417" lon="3.48425">
        <ele>869</ele>
        <time>2015-10-25T08:34:40Z</time>
      </trkpt>
      <trkpt lat="43.74171" lon="3.48426">
        <ele>869</ele>
        <time>2015-10-25T08:34:42Z</time>
      </trkpt>
      <trkpt lat="43.74172" lon="3.48426">
        <ele>869.5</ele>
        <time>2015-10-25T08:34:44Z</time>
      </trkpt>
      <trkpt lat="43.74173" lon="3.48427">
        <ele>869.5</ele>
        <time>2015-10-25T08:34:45Z</time>
      </trkpt>
      <trkpt lat="43.74173" lon="3.48427">
        <ele>869.5</ele>
        <time>2015-10-25T08:34:46Z</time>
      </trkpt>
      <trkpt lat="43.74173" lon="3.48427">
        <ele>870</ele>
        <time>2015-10-25T08:34:47Z</time>
      </trkpt>
      <trkpt lat="43.74174" lon="3.48428">
        <ele>870</ele>
        <time>2015-10-25T08:34:48Z</time>
      </trkpt>
      <trkpt lat="43.74174" lon="3.48429">
        <ele>869.5</ele>
        <time>2015-10-25T08:34:49Z</time>
      </trkpt>
      <trkpt lat="43.74175" lon="3.48429">
        <ele>869.5</ele>
        <time>2015-10-25T08:34:50Z</time>
      </trkpt>
      <trkpt lat="43.74176" lon="3.4843">
        <ele>870</ele>
        <time>2015-10-25T08:34:51Z</time>
      </trkpt>
      <trkpt lat="43.74177" lon="3.4843">
        <ele>870</ele>
        <time>2015-10-25T08:34:52Z</time>
      </trkpt>
      <trkpt lat="43.74178" lon="3.48431">
        <ele>870.5</ele>
        <time>2015-10-25T08:34:53Z</time>
      </trkpt>
      <trkpt lat="43.74178" lon="3.48431">
        <ele>870.5</ele>
        <time>2015-10-25T08:34:54Z</time>
      </trkpt>
      <trkpt lat="43.74178" lon="3.48432">
        <ele>870.5</ele>
        <time>2015-10-25T08:34:55Z</time>
      </trkpt>
      <trkpt lat="43.74179" lon="3.48432">
        <ele>871</ele>
        <time>2015-10-25T08:34:56Z</time>
      </trkpt>
      <trkpt lat="43.7418" lon="3.48433">
        <ele>871</ele>
        <time>2015-10-25T08:34:58Z</time>
      </trkpt>
      <trkpt lat="43.74181" lon="3.48434">
        <ele>871.5</ele>
        <time>2015-10-25T08:34:59Z</time>
      </trkpt>
      <trkpt lat="43.74181" lon="3.48435">
        <ele>871.5</ele>
        <time>2015-10-25T08:35:00Z</time>
      </trkpt>
      <trkpt lat="43.74181" lon="3.48435">
        <ele>871.5</ele>
        <time>2015-10-25T08:35:01Z</time>
      </trkpt>
      <trkpt lat="43.74182" lon="3.48436">
        <ele>873.5</ele>
        <time>2015-10-25T08:35:04Z</time>
      </trkpt>
      <trkpt lat="43.74183" lon="3.48436">
        <ele>874</ele>
        <time>2015-10-25T08:35:07Z</time>
      </trkpt>
      <trkpt lat="43.74184" lon="3.48438">
        <ele>874.5</ele>
        <time>2015-10-25T08:35:09Z</time>
      </trkpt>
      <trkpt lat="43.74184" lon="3.48439">
        <ele>875</ele>
        <time>2015-10-25T08:35:10Z</time>
      </trkpt>
      <trkpt lat="43.74184" lon="3.4844">
        <ele>875</ele>
        <time>2015-10-25T08:35:11Z</time>
      </trkpt>
      <trkpt lat="43.74185" lon="3.48441">
        <ele>875.5</ele>
        <time>2015-10-25T08:35:13Z</time>
      </trkpt>
      <trkpt lat="43.74186" lon="3.48442">
        <ele>876</ele>
        <time>2015-10-25T08:35:14Z</time>
      </trkpt>
      <trkpt lat="43.74187" lon="3.48443">
        <ele>876.5</ele>
        <time>2015-10-25T08:35:15Z</time>
      </trkpt>
      <trkpt lat="43.74188" lon="3.48443">
        <ele>877</ele>
        <time>2015-10-25T08:35:16Z</time>
      </trkpt>
      <trkpt lat="43.74189" lon="3.48444">
        <ele>877.5</ele>
        <time>2015-10-25T08:35:17Z</time>
      </trkpt>
      <trkpt lat="43.74189" lon="3.48444">
        <ele>877</ele>
        <time>2015-10-25T08:35:18Z</time>
      </trkpt>
      <trkpt lat="43.7419" lon="3.48444">
        <ele>877.5</ele>
        <time>2015-10-25T08:35:19Z</time>
      </trkpt>
      <trkpt lat="43.74191" lon="3.48445">
        <ele>877.5</ele>
        <time>2015-10-25T08:35:20Z</time>
      </trkpt>
      <trkpt lat="43.74191" lon="3.48445">
        <ele>877.5</ele>
        <time>2015-10-25T08:35:21Z</time>
      </trkpt>
      <trkpt lat="43.74193" lon="3.48445">
        <ele>878</ele>
        <time>2015-10-25T08:35:25Z</time>
      </trkpt>
      <trkpt lat="43.74195" lon="3.48446">
        <ele>878.5</ele>
        <time>2015-10-25T08:35:27Z</time>
      </trkpt>
      <trkpt lat="43.74196" lon="3.48446">
        <ele>878.5</ele>
        <time>2015-10-25T08:35:28Z</time>
      </trkpt>
      <trkpt lat="43.74198" lon="3.48446">
        <ele>878.5</ele>
        <time>2015-10-25T08:35:29Z</time>
      </trkpt>
      <trkpt lat="43.742" lon="3.48445">
        <ele>878</ele>
        <time>2015-10-25T08:35:30Z</time>
      </trkpt>
      <trkpt lat="43.74203" lon="3.48444">
        <ele>878</ele>
        <time>2015-10-25T08:35:31Z</time>
      </trkpt>
      <trkpt lat="43.74205" lon="3.48443">
        <ele>877.5</ele>
        <time>2015-10-25T08:35:32Z</time>
      </trkpt>
      <trkpt lat="43.74208" lon="3.48442">
        <ele>877.5</ele>
        <time>2015-10-25T08:35:33Z</time>
      </trkpt>
      <trkpt lat="43.74211" lon="3.48442">
        <ele>877.5</ele>
        <time>2015-10-25T08:35:34Z</time>
      </trkpt>
      <trkpt lat="43.74214" lon="3.48442">
        <ele>877</ele>
        <time>2015-10-25T08:35:35Z</time>
      </trkpt>
      <trkpt lat="43.74218" lon="3.48443">
        <ele>877</ele>
        <time>2015-10-25T08:35:36Z</time>
      </trkpt>
      <trkpt lat="43.74221" lon="3.48442">
        <ele>876.5</ele>
        <time>2015-10-25T08:35:37Z</time>
      </trkpt>
      <trkpt lat="43.74225" lon="3.4844">
        <ele>876.5</ele>
        <time>2015-10-25T08:35:38Z</time>
      </trkpt>
      <trkpt lat="43.74228" lon="3.48438">
        <ele>876.5</ele>
        <time>2015-10-25T08:35:39Z</time>
      </trkpt>
      <trkpt lat="43.74231" lon="3.48437">
        <ele>876</ele>
        <time>2015-10-25T08:35:40Z</time>
      </trkpt>
      <trkpt lat="43.74234" lon="3.48439">
        <ele>875.5</ele>
        <time>2015-10-25T08:35:41Z</time>
      </trkpt>
      <trkpt lat="43.74235" lon="3.48439">
        <ele>876</ele>
        <time>2015-10-25T08:36:03Z</time>
      </trkpt>
      <trkpt lat="43.74235" lon="3.4844">
        <ele>875.5</ele>
        <time>2015-10-25T08:36:04Z</time>
      </trkpt>
      <trkpt lat="43.74235" lon="3.48441">
        <ele>875.5</ele>
        <time>2015-10-25T08:36:05Z</time>
      </trkpt>
      <trkpt lat="43.74235" lon="3.48441">
        <ele>875.5</ele>
        <time>2015-10-25T08:36:06Z</time>
      </trkpt>
      <trkpt lat="43.74236" lon="3.48442">
        <ele>875.5</ele>
        <time>2015-10-25T08:36:07Z</time>
      </trkpt>
      <trkpt lat="43.74236" lon="3.48443">
        <ele>875</ele>
        <time>2015-10-25T08:36:09Z</time>
      </trkpt>
      <trkpt lat="43.74236" lon="3.48443">
        <ele>875</ele>
        <time>2015-10-25T08:36:10Z</time>
      </trkpt>
      <trkpt lat="43.74236" lon="3.48445">
        <ele>874.5</ele>
        <time>2015-10-25T08:36:11Z</time>
      </trkpt>
      <trkpt lat="43.74237" lon="3.48446">
        <ele>874.5</ele>
        <time>2015-10-25T08:36:13Z</time>
      </trkpt>
      <trkpt lat="43.74238" lon="3.48448">
        <ele>874.5</ele>
        <time>2015-10-25T08:36:14Z</time>
      </trkpt>
      <trkpt lat="43.74238" lon="3.48449">
        <ele>874</ele>
        <time>2015-10-25T08:36:15Z</time>
      </trkpt>
      <trkpt lat="43.74239" lon="3.4845">
        <ele>874</ele>
        <time>2015-10-25T08:36:17Z</time>
      </trkpt>
      <trkpt lat="43.74239" lon="3.48451">
        <ele>874.5</ele>
        <time>2015-10-25T08:36:17Z</time>
      </trkpt>
      <trkpt lat="43.7424" lon="3.48452">
        <ele>874.5</ele>
        <time>2015-10-25T08:36:18Z</time>
      </trkpt>
      <trkpt lat="43.7424" lon="3.48453">
        <ele>874.5</ele>
        <time>2015-10-25T08:36:19Z</time>
      </trkpt>
      <trkpt lat="43.7424" lon="3.48454">
        <ele>874.5</ele>
        <time>2015-10-25T08:36:20Z</time>
      </trkpt>
      <trkpt lat="43.74241" lon="3.48455">
        <ele>874.5</ele>
        <time>2015-10-25T08:36:21Z</time>
      </trkpt>
      <trkpt lat="43.74241" lon="3.48456">
        <ele>874.5</ele>
        <time>2015-10-25T08:36:23Z</time>
      </trkpt>
      <trkpt lat="43.74243" lon="3.48458">
        <ele>875</ele>
        <time>2015-10-25T08:36:24Z</time>
      </trkpt>
      <trkpt lat="43.74245" lon="3.48461">
        <ele>875</ele>
        <time>2015-10-25T08:36:25Z</time>
      </trkpt>
      <trkpt lat="43.74245" lon="3.48462">
        <ele>875</ele>
        <time>2015-10-25T08:36:26Z</time>
      </trkpt>
      <trkpt lat="43.74246" lon="3.48463">
        <ele>874.5</ele>
        <time>2015-10-25T08:36:27Z</time>
      </trkpt>
      <trkpt lat="43.74246" lon="3.48464">
        <ele>874.5</ele>
        <time>2015-10-25T08:36:29Z</time>
      </trkpt>
      <trkpt lat="43.74247" lon="3.48465">
        <ele>874.5</ele>
        <time>2015-10-25T08:36:30Z</time>
      </trkpt>
      <trkpt lat="43.74248" lon="3.48468">
        <ele>874.5</ele>
        <time>2015-10-25T08:36:31Z</time>
      </trkpt>
      <trkpt lat="43.74249" lon="3.48469">
        <ele>874.5</ele>
        <time>2015-10-25T08:36:32Z</time>
      </trkpt>
      <trkpt lat="43.74249" lon="3.4847">
        <ele>874.5</ele>
        <time>2015-10-25T08:36:33Z</time>
      </trkpt>
      <trkpt lat="43.74249" lon="3.48471">
        <ele>874.5</ele>
        <time>2015-10-25T08:36:34Z</time>
      </trkpt>
      <trkpt lat="43.74249" lon="3.48472">
        <ele>874.5</ele>
        <time>2015-10-25T08:36:35Z</time>
      </trkpt>
      <trkpt lat="43.74249" lon="3.48473">
        <ele>874.5</ele>
        <time>2015-10-25T08:36:36Z</time>
      </trkpt>
      <trkpt lat="43.74249" lon="3.48473">
        <ele>875</ele>
        <time>2015-10-25T08:36:37Z</time>
      </trkpt>
      <trkpt lat="43.74249" lon="3.48474">
        <ele>875</ele>
        <time>2015-10-25T08:36:38Z</time>
      </trkpt>
      <trkpt lat="43.7425" lon="3.48475">
        <ele>875.5</ele>
        <time>2015-10-25T08:36:39Z</time>
      </trkpt>
      <trkpt lat="43.7425" lon="3.48476">
        <ele>876.5</ele>
        <time>2015-10-25T08:36:40Z</time>
      </trkpt>
      <trkpt lat="43.7425" lon="3.48477">
        <ele>876.5</ele>
        <time>2015-10-25T08:36:41Z</time>
      </trkpt>
      <trkpt lat="43.7425" lon="3.48477">
        <ele>877</ele>
        <time>2015-10-25T08:36:42Z</time>
      </trkpt>
      <trkpt lat="43.7425" lon="3.48478">
        <ele>877</ele>
        <time>2015-10-25T08:36:43Z</time>
      </trkpt>
      <trkpt lat="43.74251" lon="3.48478">
        <ele>878</ele>
        <time>2015-10-25T08:36:44Z</time>
      </trkpt>
      <trkpt lat="43.74251" lon="3.48479">
        <ele>878</ele>
        <time>2015-10-25T08:36:45Z</time>
      </trkpt>
      <trkpt lat="43.74251" lon="3.4848">
        <ele>878.5</ele>
        <time>2015-10-25T08:36:46Z</time>
      </trkpt>
      <trkpt lat="43.74251" lon="3.4848">
        <ele>878.5</ele>
        <time>2015-10-25T08:36:47Z</time>
      </trkpt>
      <trkpt lat="43.74252" lon="3.48481">
        <ele>878.5</ele>
        <time>2015-10-25T08:36:49Z</time>
      </trkpt>
      <trkpt lat="43.74252" lon="3.48483">
        <ele>878.5</ele>
        <time>2015-10-25T08:36:53Z</time>
      </trkpt>
      <trkpt lat="43.74252" lon="3.48484">
        <ele>879</ele>
        <time>2015-10-25T08:36:56Z</time>
      </trkpt>
      <trkpt lat="43.74253" lon="3.48487">
        <ele>879</ele>
        <time>2015-10-25T08:36:57Z</time>
      </trkpt>
      <trkpt lat="43.74254" lon="3.48488">
        <ele>879.5</ele>
        <time>2015-10-25T08:36:58Z</time>
      </trkpt>
      <trkpt lat="43.74255" lon="3.48489">
        <ele>880</ele>
        <time>2015-10-25T08:36:59Z</time>
      </trkpt>
      <trkpt lat="43.74255" lon="3.4849">
        <ele>880.5</ele>
        <time>2015-10-25T08:37:02Z</time>
      </trkpt>
      <trkpt lat="43.74255" lon="3.48493">
        <ele>880.5</ele>
        <time>2015-10-25T08:37:04Z</time>
      </trkpt>
      <trkpt lat="43.74255" lon="3.48495">
        <ele>880.5</ele>
        <time>2015-10-25T08:37:05Z</time>
      </trkpt>
      <trkpt lat="43.74256" lon="3.48497">
        <ele>880.5</ele>
        <time>2015-10-25T08:37:06Z</time>
      </trkpt>
      <trkpt lat="43.74256" lon="3.48499">
        <ele>881</ele>
        <time>2015-10-25T08:37:07Z</time>
      </trkpt>
      <trkpt lat="43.74256" lon="3.485">
        <ele>881</ele>
        <time>2015-10-25T08:37:08Z</time>
      </trkpt>
      <trkpt lat="43.74256" lon="3.48502">
        <ele>881</ele>
        <time>2015-10-25T08:37:09Z</time>
      </trkpt>
      <trkpt lat="43.74257" lon="3.48504">
        <ele>881</ele>
        <time>2015-10-25T08:37:10Z</time>
      </trkpt>
      <trkpt lat="43.74258" lon="3.48506">
        <ele>881</ele>
        <time>2015-10-25T08:37:11Z</time>
      </trkpt>
      <trkpt lat="43.74258" lon="3.48507">
        <ele>881.5</ele>
        <time>2015-10-25T08:37:12Z</time>
      </trkpt>
      <trkpt lat="43.74259" lon="3.48509">
        <ele>881.5</ele>
        <time>2015-10-25T08:37:13Z</time>
      </trkpt>
      <trkpt lat="43.74261" lon="3.4851">
        <ele>881.5</ele>
        <time>2015-10-25T08:37:14Z</time>
      </trkpt>
      <trkpt lat="43.74262" lon="3.48511">
        <ele>882</ele>
        <time>2015-10-25T08:37:15Z</time>
      </trkpt>
      <trkpt lat="43.74263" lon="3.48513">
        <ele>882</ele>
        <time>2015-10-25T08:37:16Z</time>
      </trkpt>
      <trkpt lat="43.74264" lon="3.48514">
        <ele>882</ele>
        <time>2015-10-25T08:37:17Z</time>
      </trkpt>
      <trkpt lat="43.74264" lon="3.48515">
        <ele>882</ele>
        <time>2015-10-25T08:37:18Z</time>
      </trkpt>
      <trkpt lat="43.74265" lon="3.48516">
        <ele>882</ele>
        <time>2015-10-25T08:37:19Z</time>
      </trkpt>
      <trkpt lat="43.74266" lon="3.48516">
        <ele>881.5</ele>
        <time>2015-10-25T08:37:20Z</time>
      </trkpt>
      <trkpt lat="43.74267" lon="3.48517">
        <ele>882</ele>
        <time>2015-10-25T08:37:21Z</time>
      </trkpt>
      <trkpt lat="43.74268" lon="3.48519">
        <ele>882</ele>
        <time>2015-10-25T08:37:22Z</time>
      </trkpt>
      <trkpt lat="43.74269" lon="3.4852">
        <ele>882</ele>
        <time>2015-10-25T08:37:23Z</time>
      </trkpt>
      <trkpt lat="43.7427" lon="3.48522">
        <ele>882.5</ele>
        <time>2015-10-25T08:37:24Z</time>
      </trkpt>
      <trkpt lat="43.74271" lon="3.48523">
        <ele>882.5</ele>
        <time>2015-10-25T08:37:25Z</time>
      </trkpt>
      <trkpt lat="43.74272" lon="3.48524">
        <ele>883</ele>
        <time>2015-10-25T08:37:26Z</time>
      </trkpt>
      <trkpt lat="43.74273" lon="3.48525">
        <ele>883</ele>
        <time>2015-10-25T08:37:27Z</time>
      </trkpt>
      <trkpt lat="43.74274" lon="3.48526">
        <ele>882.5</ele>
        <time>2015-10-25T08:37:29Z</time>
      </trkpt>
      <trkpt lat="43.74274" lon="3.48525">
        <ele>883</ele>
        <time>2015-10-25T08:37:30Z</time>
      </trkpt>
      <trkpt lat="43.74275" lon="3.48525">
        <ele>882.5</ele>
        <time>2015-10-25T08:37:31Z</time>
      </trkpt>
      <trkpt lat="43.74276" lon="3.48526">
        <ele>882.5</ele>
        <time>2015-10-25T08:37:32Z</time>
      </trkpt>
      <trkpt lat="43.74276" lon="3.48527">
        <ele>882</ele>
        <time>2015-10-25T08:37:33Z</time>
      </trkpt>
      <trkpt lat="43.74277" lon="3.48528">
        <ele>881.5</ele>
        <time>2015-10-25T08:37:34Z</time>
      </trkpt>
      <trkpt lat="43.74278" lon="3.48528">
        <ele>881</ele>
        <time>2015-10-25T08:37:35Z</time>
      </trkpt>
      <trkpt lat="43.74279" lon="3.48529">
        <ele>881</ele>
        <time>2015-10-25T08:37:36Z</time>
      </trkpt>
      <trkpt lat="43.74279" lon="3.4853">
        <ele>880.5</ele>
        <time>2015-10-25T08:37:37Z</time>
      </trkpt>
      <trkpt lat="43.7428" lon="3.48531">
        <ele>880.5</ele>
        <time>2015-10-25T08:37:38Z</time>
      </trkpt>
      <trkpt lat="43.74281" lon="3.48531">
        <ele>880.5</ele>
        <time>2015-10-25T08:37:39Z</time>
      </trkpt>
      <trkpt lat="43.74282" lon="3.48532">
        <ele>880.5</ele>
        <time>2015-10-25T08:37:40Z</time>
      </trkpt>
      <trkpt lat="43.74282" lon="3.48532">
        <ele>880.5</ele>
        <time>2015-10-25T08:37:41Z</time>
      </trkpt>
      <trkpt lat="43.74283" lon="3.48533">
        <ele>880.5</ele>
        <time>2015-10-25T08:37:42Z</time>
      </trkpt>
      <trkpt lat="43.74284" lon="3.48533">
        <ele>881</ele>
        <time>2015-10-25T08:37:43Z</time>
      </trkpt>
      <trkpt lat="43.74285" lon="3.48534">
        <ele>881.5</ele>
        <time>2015-10-25T08:37:44Z</time>
      </trkpt>
      <trkpt lat="43.74285" lon="3.48534">
        <ele>881.5</ele>
        <time>2015-10-25T08:37:45Z</time>
      </trkpt>
      <trkpt lat="43.74286" lon="3.48535">
        <ele>881.5</ele>
        <time>2015-10-25T08:37:46Z</time>
      </trkpt>
      <trkpt lat="43.74288" lon="3.48536">
        <ele>881</ele>
        <time>2015-10-25T08:37:47Z</time>
      </trkpt>
      <trkpt lat="43.74288" lon="3.48536">
        <ele>881</ele>
        <time>2015-10-25T08:37:48Z</time>
      </trkpt>
      <trkpt lat="43.74289" lon="3.48536">
        <ele>881</ele>
        <time>2015-10-25T08:37:49Z</time>
      </trkpt>
      <trkpt lat="43.7429" lon="3.48537">
        <ele>881.5</ele>
        <time>2015-10-25T08:37:50Z</time>
      </trkpt>
      <trkpt lat="43.74291" lon="3.48538">
        <ele>881.5</ele>
        <time>2015-10-25T08:37:51Z</time>
      </trkpt>
      <trkpt lat="43.74292" lon="3.48539">
        <ele>881.5</ele>
        <time>2015-10-25T08:37:52Z</time>
      </trkpt>
      <trkpt lat="43.74293" lon="3.4854">
        <ele>881</ele>
        <time>2015-10-25T08:37:53Z</time>
      </trkpt>
      <trkpt lat="43.74294" lon="3.4854">
        <ele>883</ele>
        <time>2015-10-25T08:37:54Z</time>
      </trkpt>
      <trkpt lat="43.74295" lon="3.4854">
        <ele>883.5</ele>
        <time>2015-10-25T08:37:55Z</time>
      </trkpt>
      <trkpt lat="43.74296" lon="3.48541">
        <ele>883.5</ele>
        <time>2015-10-25T08:37:56Z</time>
      </trkpt>
      <trkpt lat="43.74297" lon="3.48541">
        <ele>884</ele>
        <time>2015-10-25T08:37:57Z</time>
      </trkpt>
      <trkpt lat="43.74298" lon="3.48542">
        <ele>884</ele>
        <time>2015-10-25T08:37:58Z</time>
      </trkpt>
      <trkpt lat="43.74299" lon="3.48543">
        <ele>884</ele>
        <time>2015-10-25T08:38:01Z</time>
      </trkpt>
      <trkpt lat="43.74299" lon="3.48544">
        <ele>884.5</ele>
        <time>2015-10-25T08:38:03Z</time>
      </trkpt>
      <trkpt lat="43.743" lon="3.48545">
        <ele>884.5</ele>
        <time>2015-10-25T08:38:04Z</time>
      </trkpt>
      <trkpt lat="43.74301" lon="3.48546">
        <ele>884.5</ele>
        <time>2015-10-25T08:38:06Z</time>
      </trkpt>
      <trkpt lat="43.74303" lon="3.48548">
        <ele>884.5</ele>
        <time>2015-10-25T08:38:08Z</time>
      </trkpt>
      <trkpt lat="43.74304" lon="3.48549">
        <ele>884</ele>
        <time>2015-10-25T08:38:09Z</time>
      </trkpt>
      <trkpt lat="43.74305" lon="3.4855">
        <ele>884</ele>
        <time>2015-10-25T08:38:10Z</time>
      </trkpt>
      <trkpt lat="43.74306" lon="3.48552">
        <ele>884</ele>
        <time>2015-10-25T08:38:11Z</time>
      </trkpt>
      <trkpt lat="43.74308" lon="3.48554">
        <ele>884</ele>
        <time>2015-10-25T08:38:13Z</time>
      </trkpt>
      <trkpt lat="43.74309" lon="3.48555">
        <ele>884</ele>
        <time>2015-10-25T08:38:14Z</time>
      </trkpt>
      <trkpt lat="43.7431" lon="3.48556">
        <ele>884</ele>
        <time>2015-10-25T08:38:15Z</time>
      </trkpt>
      <trkpt lat="43.74311" lon="3.48557">
        <ele>883.5</ele>
        <time>2015-10-25T08:38:16Z</time>
      </trkpt>
      <trkpt lat="43.74311" lon="3.48558">
        <ele>883.5</ele>
        <time>2015-10-25T08:38:17Z</time>
      </trkpt>
      <trkpt lat="43.74313" lon="3.48559">
        <ele>883.5</ele>
        <time>2015-10-25T08:38:18Z</time>
      </trkpt>
      <trkpt lat="43.74315" lon="3.4856">
        <ele>883.5</ele>
        <time>2015-10-25T08:38:20Z</time>
      </trkpt>
      <trkpt lat="43.74316" lon="3.48561">
        <ele>884</ele>
        <time>2015-10-25T08:38:21Z</time>
      </trkpt>
      <trkpt lat="43.74317" lon="3.48562">
        <ele>884.5</ele>
        <time>2015-10-25T08:38:22Z</time>
      </trkpt>
      <trkpt lat="43.74317" lon="3.48563">
        <ele>884.5</ele>
        <time>2015-10-25T08:38:23Z</time>
      </trkpt>
      <trkpt lat="43.74318" lon="3.48563">
        <ele>885</ele>
        <time>2015-10-25T08:38:24Z</time>
      </trkpt>
      <trkpt lat="43.74319" lon="3.48566">
        <ele>885.5</ele>
        <time>2015-10-25T08:38:26Z</time>
      </trkpt>
      <trkpt lat="43.7432" lon="3.48566">
        <ele>886</ele>
        <time>2015-10-25T08:38:27Z</time>
      </trkpt>
      <trkpt lat="43.74321" lon="3.48567">
        <ele>887</ele>
        <time>2015-10-25T08:38:28Z</time>
      </trkpt>
      <trkpt lat="43.74322" lon="3.48567">
        <ele>887.5</ele>
        <time>2015-10-25T08:38:29Z</time>
      </trkpt>
      <trkpt lat="43.74323" lon="3.48567">
        <ele>888</ele>
        <time>2015-10-25T08:38:30Z</time>
      </trkpt>
      <trkpt lat="43.74324" lon="3.48567">
        <ele>888.5</ele>
        <time>2015-10-25T08:38:31Z</time>
      </trkpt>
      <trkpt lat="43.74324" lon="3.48567">
        <ele>888.5</ele>
        <time>2015-10-25T08:38:32Z</time>
      </trkpt>
      <trkpt lat="43.74325" lon="3.48567">
        <ele>888.5</ele>
        <time>2015-10-25T08:38:33Z</time>
      </trkpt>
      <trkpt lat="43.74326" lon="3.48568">
        <ele>888</ele>
        <time>2015-10-25T08:38:34Z</time>
      </trkpt>
      <trkpt lat="43.74327" lon="3.48567">
        <ele>888</ele>
        <time>2015-10-25T08:38:35Z</time>
      </trkpt>
      <trkpt lat="43.74328" lon="3.48568">
        <ele>888</ele>
        <time>2015-10-25T08:38:36Z</time>
      </trkpt>
      <trkpt lat="43.74329" lon="3.48568">
        <ele>888</ele>
        <time>2015-10-25T08:38:37Z</time>
      </trkpt>
      <trkpt lat="43.7433" lon="3.48569">
        <ele>888</ele>
        <time>2015-10-25T08:38:38Z</time>
      </trkpt>
      <trkpt lat="43.74331" lon="3.4857">
        <ele>888.5</ele>
        <time>2015-10-25T08:38:39Z</time>
      </trkpt>
      <trkpt lat="43.74331" lon="3.4857">
        <ele>889</ele>
        <time>2015-10-25T08:38:40Z</time>
      </trkpt>
      <trkpt lat="43.74332" lon="3.48571">
        <ele>889</ele>
        <time>2015-10-25T08:38:41Z</time>
      </trkpt>
      <trkpt lat="43.74333" lon="3.48573">
        <ele>889.5</ele>
        <time>2015-10-25T08:38:43Z</time>
      </trkpt>
      <trkpt lat="43.74334" lon="3.48574">
        <ele>890</ele>
        <time>2015-10-25T08:38:44Z</time>
      </trkpt>
      <trkpt lat="43.74334" lon="3.48574">
        <ele>890.5</ele>
        <time>2015-10-25T08:38:45Z</time>
      </trkpt>
      <trkpt lat="43.74334" lon="3.48575">
        <ele>890.5</ele>
        <time>2015-10-25T08:38:46Z</time>
      </trkpt>
      <trkpt lat="43.74335" lon="3.48576">
        <ele>890.5</ele>
        <time>2015-10-25T08:38:47Z</time>
      </trkpt>
      <trkpt lat="43.74335" lon="3.48577">
        <ele>891</ele>
        <time>2015-10-25T08:38:48Z</time>
      </trkpt>
      <trkpt lat="43.74335" lon="3.48577">
        <ele>891</ele>
        <time>2015-10-25T08:38:49Z</time>
      </trkpt>
      <trkpt lat="43.74337" lon="3.48581">
        <ele>891</ele>
        <time>2015-10-25T08:38:51Z</time>
      </trkpt>
      <trkpt lat="43.74336" lon="3.4858">
        <ele>891.5</ele>
        <time>2015-10-25T08:38:52Z</time>
      </trkpt>
      <trkpt lat="43.74337" lon="3.48581">
        <ele>891.5</ele>
        <time>2015-10-25T08:38:53Z</time>
      </trkpt>
      <trkpt lat="43.74337" lon="3.48582">
        <ele>892</ele>
        <time>2015-10-25T08:38:54Z</time>
      </trkpt>
      <trkpt lat="43.74337" lon="3.48582">
        <ele>892</ele>
        <time>2015-10-25T08:38:55Z</time>
      </trkpt>
      <trkpt lat="43.74337" lon="3.48582">
        <ele>893</ele>
        <time>2015-10-25T08:38:57Z</time>
      </trkpt>
      <trkpt lat="43.74338" lon="3.48584">
        <ele>893.5</ele>
        <time>2015-10-25T08:38:59Z</time>
      </trkpt>
      <trkpt lat="43.74338" lon="3.48584">
        <ele>893.5</ele>
        <time>2015-10-25T08:39:00Z</time>
      </trkpt>
      <trkpt lat="43.74339" lon="3.48585">
        <ele>895</ele>
        <time>2015-10-25T08:39:01Z</time>
      </trkpt>
      <trkpt lat="43.74339" lon="3.48585">
        <ele>895</ele>
        <time>2015-10-25T08:39:02Z</time>
      </trkpt>
      <trkpt lat="43.74341" lon="3.48586">
        <ele>896</ele>
        <time>2015-10-25T08:39:04Z</time>
      </trkpt>
      <trkpt lat="43.74343" lon="3.48586">
        <ele>897</ele>
        <time>2015-10-25T08:39:06Z</time>
      </trkpt>
      <trkpt lat="43.74343" lon="3.48586">
        <ele>897</ele>
        <time>2015-10-25T08:39:07Z</time>
      </trkpt>
      <trkpt lat="43.74343" lon="3.48587">
        <ele>897</ele>
        <time>2015-10-25T08:39:08Z</time>
      </trkpt>
      <trkpt lat="43.74344" lon="3.48587">
        <ele>896.5</ele>
        <time>2015-10-25T08:39:17Z</time>
      </trkpt>
      <trkpt lat="43.74345" lon="3.48589">
        <ele>897</ele>
        <time>2015-10-25T08:39:19Z</time>
      </trkpt>
      <trkpt lat="43.74344" lon="3.48589">
        <ele>896.5</ele>
        <time>2015-10-25T08:39:20Z</time>
      </trkpt>
      <trkpt lat="43.74345" lon="3.48591">
        <ele>895.5</ele>
        <time>2015-10-25T08:39:22Z</time>
      </trkpt>
      <trkpt lat="43.74343" lon="3.48592">
        <ele>894.5</ele>
        <time>2015-10-25T08:39:24Z</time>
      </trkpt>
      <trkpt lat="43.74342" lon="3.48592">
        <ele>894</ele>
        <time>2015-10-25T08:39:25Z</time>
      </trkpt>
      <trkpt lat="43.74342" lon="3.48592">
        <ele>893</ele>
        <time>2015-10-25T08:39:26Z</time>
      </trkpt>
      <trkpt lat="43.74342" lon="3.48591">
        <ele>891.5</ele>
        <time>2015-10-25T08:39:27Z</time>
      </trkpt>
      <trkpt lat="43.74341" lon="3.4859">
        <ele>890.5</ele>
        <time>2015-10-25T08:39:28Z</time>
      </trkpt>
      <trkpt lat="43.74341" lon="3.48591">
        <ele>890.5</ele>
        <time>2015-10-25T08:39:29Z</time>
      </trkpt>
      <trkpt lat="43.7434" lon="3.48591">
        <ele>890</ele>
        <time>2015-10-25T08:39:31Z</time>
      </trkpt>
      <trkpt lat="43.74341" lon="3.48592">
        <ele>890</ele>
        <time>2015-10-25T08:39:33Z</time>
      </trkpt>
      <trkpt lat="43.74341" lon="3.48592">
        <ele>889.5</ele>
        <time>2015-10-25T08:39:34Z</time>
      </trkpt>
      <trkpt lat="43.74341" lon="3.48592">
        <ele>889</ele>
        <time>2015-10-25T08:39:46Z</time>
      </trkpt>
      <trkpt lat="43.74341" lon="3.48591">
        <ele>889.5</ele>
        <time>2015-10-25T08:40:13Z</time>
      </trkpt>
      <trkpt lat="43.74342" lon="3.48591">
        <ele>889.5</ele>
        <time>2015-10-25T08:40:20Z</time>
      </trkpt>
      <trkpt lat="43.74344" lon="3.48591">
        <ele>889.5</ele>
        <time>2015-10-25T08:40:22Z</time>
      </trkpt>
      <trkpt lat="43.74345" lon="3.4859">
        <ele>889.5</ele>
        <time>2015-10-25T08:40:23Z</time>
      </trkpt>
      <trkpt lat="43.74346" lon="3.4859">
        <ele>889.5</ele>
        <time>2015-10-25T08:40:24Z</time>
      </trkpt>
      <trkpt lat="43.74348" lon="3.48589">
        <ele>889.5</ele>
        <time>2015-10-25T08:40:25Z</time>
      </trkpt>
      <trkpt lat="43.74351" lon="3.48589">
        <ele>889.5</ele>
        <time>2015-10-25T08:40:26Z</time>
      </trkpt>
      <trkpt lat="43.74354" lon="3.48589">
        <ele>889</ele>
        <time>2015-10-25T08:40:27Z</time>
      </trkpt>
      <trkpt lat="43.74357" lon="3.48588">
        <ele>889.5</ele>
        <time>2015-10-25T08:40:28Z</time>
      </trkpt>
      <trkpt lat="43.74359" lon="3.48587">
        <ele>890</ele>
        <time>2015-10-25T08:40:29Z</time>
      </trkpt>
      <trkpt lat="43.74361" lon="3.48587">
        <ele>890.5</ele>
        <time>2015-10-25T08:40:30Z</time>
      </trkpt>
      <trkpt lat="43.74362" lon="3.48587">
        <ele>891</ele>
        <time>2015-10-25T08:40:31Z</time>
      </trkpt>
      <trkpt lat="43.74363" lon="3.48587">
        <ele>891.5</ele>
        <time>2015-10-25T08:40:32Z</time>
      </trkpt>
      <trkpt lat="43.74365" lon="3.48587">
        <ele>891.5</ele>
        <time>2015-10-25T08:40:33Z</time>
      </trkpt>
      <trkpt lat="43.74367" lon="3.48588">
        <ele>892.5</ele>
        <time>2015-10-25T08:40:35Z</time>
      </trkpt>
      <trkpt lat="43.74368" lon="3.48588">
        <ele>893.5</ele>
        <time>2015-10-25T08:40:36Z</time>
      </trkpt>
      <trkpt lat="43.74369" lon="3.48589">
        <ele>893.5</ele>
        <time>2015-10-25T08:40:37Z</time>
      </trkpt>
      <trkpt lat="43.74369" lon="3.48589">
        <ele>894</ele>
        <time>2015-10-25T08:40:38Z</time>
      </trkpt>
      <trkpt lat="43.74371" lon="3.48588">
        <ele>894</ele>
        <time>2015-10-25T08:40:39Z</time>
      </trkpt>
      <trkpt lat="43.74373" lon="3.48588">
        <ele>894</ele>
        <time>2015-10-25T08:40:40Z</time>
      </trkpt>
      <trkpt lat="43.74375" lon="3.48588">
        <ele>893.5</ele>
        <time>2015-10-25T08:40:41Z</time>
      </trkpt>
      <trkpt lat="43.74378" lon="3.48588">
        <ele>893.5</ele>
        <time>2015-10-25T08:40:42Z</time>
      </trkpt>
      <trkpt lat="43.74382" lon="3.48589">
        <ele>893</ele>
        <time>2015-10-25T08:40:43Z</time>
      </trkpt>
      <trkpt lat="43.74385" lon="3.4859">
        <ele>892.5</ele>
        <time>2015-10-25T08:40:44Z</time>
      </trkpt>
      <trkpt lat="43.74389" lon="3.48592">
        <ele>892</ele>
        <time>2015-10-25T08:40:45Z</time>
      </trkpt>
      <trkpt lat="43.74392" lon="3.48593">
        <ele>891.5</ele>
        <time>2015-10-25T08:40:46Z</time>
      </trkpt>
      <trkpt lat="43.74395" lon="3.48593">
        <ele>890.5</ele>
        <time>2015-10-25T08:40:47Z</time>
      </trkpt>
      <trkpt lat="43.74397" lon="3.48594">
        <ele>890</ele>
        <time>2015-10-25T08:40:48Z</time>
      </trkpt>
      <trkpt lat="43.744" lon="3.48594">
        <ele>889.5</ele>
        <time>2015-10-25T08:40:49Z</time>
      </trkpt>
      <trkpt lat="43.74403" lon="3.48594">
        <ele>888.5</ele>
        <time>2015-10-25T08:40:50Z</time>
      </trkpt>
      <trkpt lat="43.74405" lon="3.48594">
        <ele>888</ele>
        <time>2015-10-25T08:40:50Z</time>
      </trkpt>
      <trkpt lat="43.74408" lon="3.48596">
        <ele>887</ele>
        <time>2015-10-25T08:40:51Z</time>
      </trkpt>
      <trkpt lat="43.74412" lon="3.48597">
        <ele>886.5</ele>
        <time>2015-10-25T08:40:52Z</time>
      </trkpt>
      <trkpt lat="43.74415" lon="3.48594">
        <ele>886.5</ele>
        <time>2015-10-25T08:40:53Z</time>
      </trkpt>
      <trkpt lat="43.74419" lon="3.48592">
        <ele>885.5</ele>
        <time>2015-10-25T08:40:55Z</time>
      </trkpt>
      <trkpt lat="43.74425" lon="3.48592">
        <ele>884.5</ele>
        <time>2015-10-25T08:40:55Z</time>
      </trkpt>
      <trkpt lat="43.7443" lon="3.48593">
        <ele>884</ele>
        <time>2015-10-25T08:40:56Z</time>
      </trkpt>
      <trkpt lat="43.74436" lon="3.48595">
        <ele>883.5</ele>
        <time>2015-10-25T08:40:57Z</time>
      </trkpt>
      <trkpt lat="43.74441" lon="3.48599">
        <ele>882</ele>
        <time>2015-10-25T08:40:58Z</time>
      </trkpt>
      <trkpt lat="43.74446" lon="3.48603">
        <ele>883</ele>
        <time>2015-10-25T08:41:00Z</time>
      </trkpt>
      <trkpt lat="43.74449" lon="3.48607">
        <ele>883.5</ele>
        <time>2015-10-25T08:41:01Z</time>
      </trkpt>
      <trkpt lat="43.7445" lon="3.48611">
        <ele>883</ele>
        <time>2015-10-25T08:41:02Z</time>
      </trkpt>
      <trkpt lat="43.7445" lon="3.48614">
        <ele>882.5</ele>
        <time>2015-10-25T08:41:04Z</time>
      </trkpt>
      <trkpt lat="43.74451" lon="3.48618">
        <ele>882</ele>
        <time>2015-10-25T08:41:05Z</time>
      </trkpt>
      <trkpt lat="43.74454" lon="3.48625">
        <ele>881</ele>
        <time>2015-10-25T08:41:06Z</time>
      </trkpt>
      <trkpt lat="43.74457" lon="3.48628">
        <ele>881</ele>
        <time>2015-10-25T08:41:07Z</time>
      </trkpt>
      <trkpt lat="43.74459" lon="3.48629">
        <ele>880</ele>
        <time>2015-10-25T08:41:08Z</time>
      </trkpt>
      <trkpt lat="43.74463" lon="3.4863">
        <ele>880</ele>
        <time>2015-10-25T08:41:09Z</time>
      </trkpt>
      <trkpt lat="43.74466" lon="3.48631">
        <ele>880</ele>
        <time>2015-10-25T08:41:10Z</time>
      </trkpt>
      <trkpt lat="43.74469" lon="3.48634">
        <ele>879</ele>
        <time>2015-10-25T08:41:11Z</time>
      </trkpt>
      <trkpt lat="43.74473" lon="3.48636">
        <ele>878</ele>
        <time>2015-10-25T08:41:12Z</time>
      </trkpt>
      <trkpt lat="43.74476" lon="3.48638">
        <ele>878</ele>
        <time>2015-10-25T08:41:13Z</time>
      </trkpt>
      <trkpt lat="43.7448" lon="3.4864">
        <ele>877.5</ele>
        <time>2015-10-25T08:41:14Z</time>
      </trkpt>
      <trkpt lat="43.74484" lon="3.48643">
        <ele>877</ele>
        <time>2015-10-25T08:41:15Z</time>
      </trkpt>
      <trkpt lat="43.74486" lon="3.48644">
        <ele>877.5</ele>
        <time>2015-10-25T08:41:16Z</time>
      </trkpt>
      <trkpt lat="43.74488" lon="3.48647">
        <ele>877</ele>
        <time>2015-10-25T08:41:18Z</time>
      </trkpt>
      <trkpt lat="43.74491" lon="3.4865">
        <ele>877</ele>
        <time>2015-10-25T08:41:18Z</time>
      </trkpt>
      <trkpt lat="43.74493" lon="3.48654">
        <ele>876.5</ele>
        <time>2015-10-25T08:41:19Z</time>
      </trkpt>
      <trkpt lat="43.74495" lon="3.48658">
        <ele>876</ele>
        <time>2015-10-25T08:41:20Z</time>
      </trkpt>
      <trkpt lat="43.74497" lon="3.48662">
        <ele>875.5</ele>
        <time>2015-10-25T08:41:21Z</time>
      </trkpt>
      <trkpt lat="43.74499" lon="3.48666">
        <ele>874.5</ele>
        <time>2015-10-25T08:41:22Z</time>
      </trkpt>
      <trkpt lat="43.74502" lon="3.4867">
        <ele>874</ele>
        <time>2015-10-25T08:41:23Z</time>
      </trkpt>
      <trkpt lat="43.74505" lon="3.48674">
        <ele>873</ele>
        <time>2015-10-25T08:41:24Z</time>
      </trkpt>
      <trkpt lat="43.74507" lon="3.4868">
        <ele>872.5</ele>
        <time>2015-10-25T08:41:25Z</time>
      </trkpt>
      <trkpt lat="43.74509" lon="3.48686">
        <ele>872</ele>
        <time>2015-10-25T08:41:26Z</time>
      </trkpt>
      <trkpt lat="43.7451" lon="3.48693">
        <ele>871.5</ele>
        <time>2015-10-25T08:41:27Z</time>
      </trkpt>
      <trkpt lat="43.74511" lon="3.48699">
        <ele>871.5</ele>
        <time>2015-10-25T08:41:28Z</time>
      </trkpt>
      <trkpt lat="43.74511" lon="3.48705">
        <ele>871.5</ele>
        <time>2015-10-25T08:41:29Z</time>
      </trkpt>
      <trkpt lat="43.74513" lon="3.48711">
        <ele>872.5</ele>
        <time>2015-10-25T08:41:30Z</time>
      </trkpt>
      <trkpt lat="43.74513" lon="3.48716">
        <ele>873.5</ele>
        <time>2015-10-25T08:41:31Z</time>
      </trkpt>
      <trkpt lat="43.74513" lon="3.4872">
        <ele>872.5</ele>
        <time>2015-10-25T08:41:32Z</time>
      </trkpt>
      <trkpt lat="43.74512" lon="3.48725">
        <ele>872.5</ele>
        <time>2015-10-25T08:41:33Z</time>
      </trkpt>
      <trkpt lat="43.74511" lon="3.48731">
        <ele>872</ele>
        <time>2015-10-25T08:41:34Z</time>
      </trkpt>
      <trkpt lat="43.7451" lon="3.48735">
        <ele>871.5</ele>
        <time>2015-10-25T08:41:35Z</time>
      </trkpt>
      <trkpt lat="43.74508" lon="3.48739">
        <ele>872</ele>
        <time>2015-10-25T08:41:36Z</time>
      </trkpt>
      <trkpt lat="43.74507" lon="3.48743">
        <ele>872</ele>
        <time>2015-10-25T08:41:37Z</time>
      </trkpt>
      <trkpt lat="43.74507" lon="3.48747">
        <ele>872</ele>
        <time>2015-10-25T08:41:38Z</time>
      </trkpt>
      <trkpt lat="43.74505" lon="3.48752">
        <ele>872</ele>
        <time>2015-10-25T08:41:39Z</time>
      </trkpt>
      <trkpt lat="43.74504" lon="3.48756">
        <ele>872</ele>
        <time>2015-10-25T08:41:40Z</time>
      </trkpt>
      <trkpt lat="43.74503" lon="3.4876">
        <ele>872</ele>
        <time>2015-10-25T08:41:41Z</time>
      </trkpt>
      <trkpt lat="43.74502" lon="3.48763">
        <ele>872</ele>
        <time>2015-10-25T08:41:42Z</time>
      </trkpt>
      <trkpt lat="43.74499" lon="3.48766">
        <ele>872</ele>
        <time>2015-10-25T08:41:43Z</time>
      </trkpt>
      <trkpt lat="43.74496" lon="3.48768">
        <ele>870.5</ele>
        <time>2015-10-25T08:41:44Z</time>
      </trkpt>
      <trkpt lat="43.74493" lon="3.4877">
        <ele>870</ele>
        <time>2015-10-25T08:41:45Z</time>
      </trkpt>
      <trkpt lat="43.7449" lon="3.48772">
        <ele>870</ele>
        <time>2015-10-25T08:41:46Z</time>
      </trkpt>
      <trkpt lat="43.74487" lon="3.48772">
        <ele>869.5</ele>
        <time>2015-10-25T08:41:47Z</time>
      </trkpt>
      <trkpt lat="43.74483" lon="3.48772">
        <ele>869</ele>
        <time>2015-10-25T08:41:48Z</time>
      </trkpt>
      <trkpt lat="43.7448" lon="3.48772">
        <ele>868.5</ele>
        <time>2015-10-25T08:41:49Z</time>
      </trkpt>
      <trkpt lat="43.74476" lon="3.48772">
        <ele>869</ele>
        <time>2015-10-25T08:41:50Z</time>
      </trkpt>
      <trkpt lat="43.74473" lon="3.48773">
        <ele>868.5</ele>
        <time>2015-10-25T08:41:51Z</time>
      </trkpt>
      <trkpt lat="43.74469" lon="3.48773">
        <ele>868.5</ele>
        <time>2015-10-25T08:41:52Z</time>
      </trkpt>
      <trkpt lat="43.74465" lon="3.48774">
        <ele>867.5</ele>
        <time>2015-10-25T08:41:53Z</time>
      </trkpt>
      <trkpt lat="43.74461" lon="3.48775">
        <ele>867</ele>
        <time>2015-10-25T08:41:54Z</time>
      </trkpt>
      <trkpt lat="43.74457" lon="3.48776">
        <ele>867</ele>
        <time>2015-10-25T08:41:55Z</time>
      </trkpt>
      <trkpt lat="43.74453" lon="3.48776">
        <ele>866.5</ele>
        <time>2015-10-25T08:41:56Z</time>
      </trkpt>
      <trkpt lat="43.74448" lon="3.48777">
        <ele>866</ele>
        <time>2015-10-25T08:41:57Z</time>
      </trkpt>
      <trkpt lat="43.74444" lon="3.48777">
        <ele>866</ele>
        <time>2015-10-25T08:41:58Z</time>
      </trkpt>
      <trkpt lat="43.7444" lon="3.48778">
        <ele>865.5</ele>
        <time>2015-10-25T08:41:59Z</time>
      </trkpt>
      <trkpt lat="43.74437" lon="3.4878">
        <ele>865</ele>
        <time>2015-10-25T08:42:00Z</time>
      </trkpt>
      <trkpt lat="43.74434" lon="3.48781">
        <ele>865.5</ele>
        <time>2015-10-25T08:42:01Z</time>
      </trkpt>
      <trkpt lat="43.74432" lon="3.48781">
        <ele>865.5</ele>
        <time>2015-10-25T08:42:02Z</time>
      </trkpt>
      <trkpt lat="43.74429" lon="3.48781">
        <ele>865</ele>
        <time>2015-10-25T08:42:03Z</time>
      </trkpt>
      <trkpt lat="43.74427" lon="3.4878">
        <ele>865.5</ele>
        <time>2015-10-25T08:42:04Z</time>
      </trkpt>
      <trkpt lat="43.74425" lon="3.4878">
        <ele>866</ele>
        <time>2015-10-25T08:42:05Z</time>
      </trkpt>
      <trkpt lat="43.74422" lon="3.48779">
        <ele>866</ele>
        <time>2015-10-25T08:42:06Z</time>
      </trkpt>
      <trkpt lat="43.7442" lon="3.48778">
        <ele>865.5</ele>
        <time>2015-10-25T08:42:07Z</time>
      </trkpt>
      <trkpt lat="43.74417" lon="3.48778">
        <ele>865.5</ele>
        <time>2015-10-25T08:42:08Z</time>
      </trkpt>
      <trkpt lat="43.74415" lon="3.48779">
        <ele>865.5</ele>
        <time>2015-10-25T08:42:09Z</time>
      </trkpt>
      <trkpt lat="43.74412" lon="3.4878">
        <ele>865.5</ele>
        <time>2015-10-25T08:42:10Z</time>
      </trkpt>
      <trkpt lat="43.74409" lon="3.4878">
        <ele>866</ele>
        <time>2015-10-25T08:42:11Z</time>
      </trkpt>
      <trkpt lat="43.74406" lon="3.48781">
        <ele>866</ele>
        <time>2015-10-25T08:42:12Z</time>
      </trkpt>
      <trkpt lat="43.74403" lon="3.48781">
        <ele>866</ele>
        <time>2015-10-25T08:42:13Z</time>
      </trkpt>
      <trkpt lat="43.744" lon="3.48782">
        <ele>866</ele>
        <time>2015-10-25T08:42:14Z</time>
      </trkpt>
      <trkpt lat="43.74394" lon="3.48787">
        <ele>866</ele>
        <time>2015-10-25T08:42:16Z</time>
      </trkpt>
      <trkpt lat="43.74391" lon="3.48788">
        <ele>866</ele>
        <time>2015-10-25T08:42:17Z</time>
      </trkpt>
      <trkpt lat="43.74389" lon="3.4879">
        <ele>866</ele>
        <time>2015-10-25T08:42:18Z</time>
      </trkpt>
      <trkpt lat="43.74386" lon="3.48792">
        <ele>866.5</ele>
        <time>2015-10-25T08:42:19Z</time>
      </trkpt>
      <trkpt lat="43.74382" lon="3.48796">
        <ele>867</ele>
        <time>2015-10-25T08:42:21Z</time>
      </trkpt>
      <trkpt lat="43.74379" lon="3.48799">
        <ele>867.5</ele>
        <time>2015-10-25T08:42:22Z</time>
      </trkpt>
      <trkpt lat="43.74376" lon="3.48801">
        <ele>867.5</ele>
        <time>2015-10-25T08:42:23Z</time>
      </trkpt>
      <trkpt lat="43.74374" lon="3.48804">
        <ele>868</ele>
        <time>2015-10-25T08:42:24Z</time>
      </trkpt>
      <trkpt lat="43.74372" lon="3.48807">
        <ele>868</ele>
        <time>2015-10-25T08:42:25Z</time>
      </trkpt>
      <trkpt lat="43.74369" lon="3.48809">
        <ele>868</ele>
        <time>2015-10-25T08:42:26Z</time>
      </trkpt>
      <trkpt lat="43.74366" lon="3.48812">
        <ele>868</ele>
        <time>2015-10-25T08:42:27Z</time>
      </trkpt>
      <trkpt lat="43.74365" lon="3.48815">
        <ele>868.5</ele>
        <time>2015-10-25T08:42:28Z</time>
      </trkpt>
      <trkpt lat="43.74363" lon="3.48819">
        <ele>869</ele>
        <time>2015-10-25T08:42:29Z</time>
      </trkpt>
      <trkpt lat="43.74361" lon="3.48822">
        <ele>869</ele>
        <time>2015-10-25T08:42:30Z</time>
      </trkpt>
      <trkpt lat="43.74359" lon="3.48825">
        <ele>869.5</ele>
        <time>2015-10-25T08:42:31Z</time>
      </trkpt>
      <trkpt lat="43.74357" lon="3.48829">
        <ele>869.5</ele>
        <time>2015-10-25T08:42:32Z</time>
      </trkpt>
      <trkpt lat="43.74355" lon="3.48832">
        <ele>870</ele>
        <time>2015-10-25T08:42:33Z</time>
      </trkpt>
      <trkpt lat="43.74354" lon="3.48835">
        <ele>870.5</ele>
        <time>2015-10-25T08:42:34Z</time>
      </trkpt>
      <trkpt lat="43.74354" lon="3.48839">
        <ele>870.5</ele>
        <time>2015-10-25T08:42:35Z</time>
      </trkpt>
      <trkpt lat="43.74354" lon="3.48841">
        <ele>871</ele>
        <time>2015-10-25T08:42:36Z</time>
      </trkpt>
      <trkpt lat="43.74355" lon="3.48844">
        <ele>871</ele>
        <time>2015-10-25T08:42:37Z</time>
      </trkpt>
      <trkpt lat="43.74356" lon="3.48847">
        <ele>871.5</ele>
        <time>2015-10-25T08:42:38Z</time>
      </trkpt>
      <trkpt lat="43.74357" lon="3.4885">
        <ele>872</ele>
        <time>2015-10-25T08:42:39Z</time>
      </trkpt>
      <trkpt lat="43.74358" lon="3.48853">
        <ele>872.5</ele>
        <time>2015-10-25T08:42:40Z</time>
      </trkpt>
      <trkpt lat="43.74359" lon="3.48856">
        <ele>872.5</ele>
        <time>2015-10-25T08:42:41Z</time>
      </trkpt>
      <trkpt lat="43.7436" lon="3.48859">
        <ele>873.5</ele>
        <time>2015-10-25T08:42:43Z</time>
      </trkpt>
      <trkpt lat="43.74361" lon="3.48864">
        <ele>873.5</ele>
        <time>2015-10-25T08:42:45Z</time>
      </trkpt>
      <trkpt lat="43.74362" lon="3.48867">
        <ele>873.5</ele>
        <time>2015-10-25T08:42:46Z</time>
      </trkpt>
      <trkpt lat="43.74363" lon="3.48869">
        <ele>873.5</ele>
        <time>2015-10-25T08:42:47Z</time>
      </trkpt>
      <trkpt lat="43.74364" lon="3.48872">
        <ele>873</ele>
        <time>2015-10-25T08:42:48Z</time>
      </trkpt>
      <trkpt lat="43.74365" lon="3.48875">
        <ele>872.5</ele>
        <time>2015-10-25T08:42:49Z</time>
      </trkpt>
      <trkpt lat="43.74366" lon="3.48879">
        <ele>872</ele>
        <time>2015-10-25T08:42:50Z</time>
      </trkpt>
      <trkpt lat="43.74367" lon="3.48883">
        <ele>871</ele>
        <time>2015-10-25T08:42:51Z</time>
      </trkpt>
      <trkpt lat="43.74369" lon="3.48887">
        <ele>870.5</ele>
        <time>2015-10-25T08:42:52Z</time>
      </trkpt>
      <trkpt lat="43.74371" lon="3.48892">
        <ele>870</ele>
        <time>2015-10-25T08:42:53Z</time>
      </trkpt>
      <trkpt lat="43.74374" lon="3.48896">
        <ele>869.5</ele>
        <time>2015-10-25T08:42:54Z</time>
      </trkpt>
      <trkpt lat="43.74377" lon="3.489">
        <ele>869</ele>
        <time>2015-10-25T08:42:55Z</time>
      </trkpt>
      <trkpt lat="43.7438" lon="3.48904">
        <ele>868.5</ele>
        <time>2015-10-25T08:42:56Z</time>
      </trkpt>
      <trkpt lat="43.74383" lon="3.48908">
        <ele>867.5</ele>
        <time>2015-10-25T08:42:57Z</time>
      </trkpt>
      <trkpt lat="43.74386" lon="3.48914">
        <ele>866.5</ele>
        <time>2015-10-25T08:42:58Z</time>
      </trkpt>
      <trkpt lat="43.7439" lon="3.4892">
        <ele>865.5</ele>
        <time>2015-10-25T08:42:59Z</time>
      </trkpt>
      <trkpt lat="43.74393" lon="3.48927">
        <ele>864.5</ele>
        <time>2015-10-25T08:43:00Z</time>
      </trkpt>
      <trkpt lat="43.74397" lon="3.48934">
        <ele>864</ele>
        <time>2015-10-25T08:43:01Z</time>
      </trkpt>
      <trkpt lat="43.744" lon="3.48941">
        <ele>863</ele>
        <time>2015-10-25T08:43:02Z</time>
      </trkpt>
      <trkpt lat="43.74403" lon="3.48948">
        <ele>862</ele>
        <time>2015-10-25T08:43:03Z</time>
      </trkpt>
      <trkpt lat="43.74406" lon="3.48956">
        <ele>860.5</ele>
        <time>2015-10-25T08:43:04Z</time>
      </trkpt>
      <trkpt lat="43.74409" lon="3.48963">
        <ele>860</ele>
        <time>2015-10-25T08:43:05Z</time>
      </trkpt>
      <trkpt lat="43.74412" lon="3.48968">
        <ele>859.5</ele>
        <time>2015-10-25T08:43:06Z</time>
      </trkpt>
      <trkpt lat="43.74417" lon="3.48972">
        <ele>860.5</ele>
        <time>2015-10-25T08:43:07Z</time>
      </trkpt>
      <trkpt lat="43.74423" lon="3.48978">
        <ele>856.5</ele>
        <time>2015-10-25T08:43:11Z</time>
      </trkpt>
      <trkpt lat="43.74432" lon="3.48991">
        <ele>853.5</ele>
        <time>2015-10-25T08:43:14Z</time>
      </trkpt>
      <trkpt lat="43.7444" lon="3.49006">
        <ele>853</ele>
        <time>2015-10-25T08:43:15Z</time>
      </trkpt>
      <trkpt lat="43.74444" lon="3.49014">
        <ele>853</ele>
        <time>2015-10-25T08:43:16Z</time>
      </trkpt>
      <trkpt lat="43.74447" lon="3.49022">
        <ele>853</ele>
        <time>2015-10-25T08:43:18Z</time>
      </trkpt>
      <trkpt lat="43.74451" lon="3.4903">
        <ele>852</ele>
        <time>2015-10-25T08:43:18Z</time>
      </trkpt>
      <trkpt lat="43.74454" lon="3.49038">
        <ele>851</ele>
        <time>2015-10-25T08:43:19Z</time>
      </trkpt>
      <trkpt lat="43.74457" lon="3.49047">
        <ele>850</ele>
        <time>2015-10-25T08:43:20Z</time>
      </trkpt>
      <trkpt lat="43.7446" lon="3.49056">
        <ele>849.5</ele>
        <time>2015-10-25T08:43:21Z</time>
      </trkpt>
      <trkpt lat="43.74464" lon="3.49065">
        <ele>849</ele>
        <time>2015-10-25T08:43:23Z</time>
      </trkpt>
      <trkpt lat="43.74467" lon="3.49074">
        <ele>848</ele>
        <time>2015-10-25T08:43:23Z</time>
      </trkpt>
      <trkpt lat="43.74471" lon="3.49083">
        <ele>848</ele>
        <time>2015-10-25T08:43:24Z</time>
      </trkpt>
      <trkpt lat="43.74474" lon="3.49092">
        <ele>847.5</ele>
        <time>2015-10-25T08:43:25Z</time>
      </trkpt>
      <trkpt lat="43.74477" lon="3.49101">
        <ele>847.5</ele>
        <time>2015-10-25T08:43:26Z</time>
      </trkpt>
      <trkpt lat="43.74481" lon="3.49109">
        <ele>847</ele>
        <time>2015-10-25T08:43:27Z</time>
      </trkpt>
      <trkpt lat="43.74484" lon="3.49115">
        <ele>847</ele>
        <time>2015-10-25T08:43:28Z</time>
      </trkpt>
      <trkpt lat="43.74491" lon="3.49119">
        <ele>846.5</ele>
        <time>2015-10-25T08:43:30Z</time>
      </trkpt>
      <trkpt lat="43.74494" lon="3.4912">
        <ele>846.5</ele>
        <time>2015-10-25T08:43:31Z</time>
      </trkpt>
      <trkpt lat="43.74497" lon="3.49121">
        <ele>846.5</ele>
        <time>2015-10-25T08:43:32Z</time>
      </trkpt>
      <trkpt lat="43.745" lon="3.4912">
        <ele>846.5</ele>
        <time>2015-10-25T08:43:33Z</time>
      </trkpt>
      <trkpt lat="43.74502" lon="3.49122">
        <ele>846</ele>
        <time>2015-10-25T08:43:34Z</time>
      </trkpt>
      <trkpt lat="43.74505" lon="3.49123">
        <ele>846</ele>
        <time>2015-10-25T08:43:36Z</time>
      </trkpt>
      <trkpt lat="43.74506" lon="3.49124">
        <ele>846</ele>
        <time>2015-10-25T08:43:37Z</time>
      </trkpt>
      <trkpt lat="43.74508" lon="3.49124">
        <ele>846</ele>
        <time>2015-10-25T08:43:38Z</time>
      </trkpt>
      <trkpt lat="43.7451" lon="3.49125">
        <ele>845.5</ele>
        <time>2015-10-25T08:43:39Z</time>
      </trkpt>
      <trkpt lat="43.74513" lon="3.49126">
        <ele>845.5</ele>
        <time>2015-10-25T08:43:40Z</time>
      </trkpt>
      <trkpt lat="43.74515" lon="3.49126">
        <ele>845.5</ele>
        <time>2015-10-25T08:43:41Z</time>
      </trkpt>
      <trkpt lat="43.74519" lon="3.49127">
        <ele>845.5</ele>
        <time>2015-10-25T08:43:42Z</time>
      </trkpt>
      <trkpt lat="43.74522" lon="3.49129">
        <ele>845.5</ele>
        <time>2015-10-25T08:43:43Z</time>
      </trkpt>
      <trkpt lat="43.74525" lon="3.4913">
        <ele>845.5</ele>
        <time>2015-10-25T08:43:44Z</time>
      </trkpt>
      <trkpt lat="43.74529" lon="3.49131">
        <ele>845</ele>
        <time>2015-10-25T08:43:45Z</time>
      </trkpt>
      <trkpt lat="43.74533" lon="3.49133">
        <ele>845</ele>
        <time>2015-10-25T08:43:46Z</time>
      </trkpt>
      <trkpt lat="43.74536" lon="3.49135">
        <ele>844.5</ele>
        <time>2015-10-25T08:43:47Z</time>
      </trkpt>
      <trkpt lat="43.7454" lon="3.49137">
        <ele>844.5</ele>
        <time>2015-10-25T08:43:48Z</time>
      </trkpt>
      <trkpt lat="43.74544" lon="3.49139">
        <ele>844</ele>
        <time>2015-10-25T08:43:49Z</time>
      </trkpt>
      <trkpt lat="43.74548" lon="3.49141">
        <ele>843.5</ele>
        <time>2015-10-25T08:43:50Z</time>
      </trkpt>
      <trkpt lat="43.74552" lon="3.49143">
        <ele>843</ele>
        <time>2015-10-25T08:43:51Z</time>
      </trkpt>
      <trkpt lat="43.74555" lon="3.49143">
        <ele>842.5</ele>
        <time>2015-10-25T08:43:52Z</time>
      </trkpt>
      <trkpt lat="43.74559" lon="3.49143">
        <ele>842.5</ele>
        <time>2015-10-25T08:43:53Z</time>
      </trkpt>
      <trkpt lat="43.74564" lon="3.49143">
        <ele>842.5</ele>
        <time>2015-10-25T08:43:55Z</time>
      </trkpt>
      <trkpt lat="43.74568" lon="3.49142">
        <ele>843</ele>
        <time>2015-10-25T08:43:55Z</time>
      </trkpt>
      <trkpt lat="43.74572" lon="3.49141">
        <ele>843</ele>
        <time>2015-10-25T08:43:56Z</time>
      </trkpt>
      <trkpt lat="43.74577" lon="3.4914">
        <ele>842</ele>
        <time>2015-10-25T08:43:57Z</time>
      </trkpt>
      <trkpt lat="43.74583" lon="3.49141">
        <ele>841.5</ele>
        <time>2015-10-25T08:43:58Z</time>
      </trkpt>
      <trkpt lat="43.74589" lon="3.49143">
        <ele>841</ele>
        <time>2015-10-25T08:43:59Z</time>
      </trkpt>
      <trkpt lat="43.74593" lon="3.49145">
        <ele>842</ele>
        <time>2015-10-25T08:44:00Z</time>
      </trkpt>
      <trkpt lat="43.74597" lon="3.4915">
        <ele>842</ele>
        <time>2015-10-25T08:44:01Z</time>
      </trkpt>
      <trkpt lat="43.74601" lon="3.49154">
        <ele>842.5</ele>
        <time>2015-10-25T08:44:02Z</time>
      </trkpt>
      <trkpt lat="43.74602" lon="3.4916">
        <ele>841</ele>
        <time>2015-10-25T08:44:03Z</time>
      </trkpt>
      <trkpt lat="43.74604" lon="3.49164">
        <ele>840.5</ele>
        <time>2015-10-25T08:44:04Z</time>
      </trkpt>
      <trkpt lat="43.74606" lon="3.49167">
        <ele>841</ele>
        <time>2015-10-25T08:44:05Z</time>
      </trkpt>
      <trkpt lat="43.74609" lon="3.4917">
        <ele>841</ele>
        <time>2015-10-25T08:44:06Z</time>
      </trkpt>
      <trkpt lat="43.74611" lon="3.49173">
        <ele>841.5</ele>
        <time>2015-10-25T08:44:07Z</time>
      </trkpt>
      <trkpt lat="43.74612" lon="3.49175">
        <ele>842</ele>
        <time>2015-10-25T08:44:08Z</time>
      </trkpt>
      <trkpt lat="43.74614" lon="3.49178">
        <ele>842.5</ele>
        <time>2015-10-25T08:44:09Z</time>
      </trkpt>
      <trkpt lat="43.74616" lon="3.4918">
        <ele>842</ele>
        <time>2015-10-25T08:44:10Z</time>
      </trkpt>
      <trkpt lat="43.74619" lon="3.49182">
        <ele>842.5</ele>
        <time>2015-10-25T08:44:11Z</time>
      </trkpt>
      <trkpt lat="43.74624" lon="3.49186">
        <ele>843</ele>
        <time>2015-10-25T08:44:13Z</time>
      </trkpt>
      <trkpt lat="43.74627" lon="3.49189">
        <ele>843</ele>
        <time>2015-10-25T08:44:14Z</time>
      </trkpt>
      <trkpt lat="43.74631" lon="3.49195">
        <ele>842</ele>
        <time>2015-10-25T08:44:16Z</time>
      </trkpt>
      <trkpt lat="43.74633" lon="3.49196">
        <ele>843</ele>
        <time>2015-10-25T08:44:17Z</time>
      </trkpt>
      <trkpt lat="43.74635" lon="3.49199">
        <ele>843</ele>
        <time>2015-10-25T08:44:19Z</time>
      </trkpt>
      <trkpt lat="43.7464" lon="3.49203">
        <ele>843</ele>
        <time>2015-10-25T08:44:20Z</time>
      </trkpt>
      <trkpt lat="43.74642" lon="3.49206">
        <ele>843</ele>
        <time>2015-10-25T08:44:21Z</time>
      </trkpt>
      <trkpt lat="43.74647" lon="3.49209">
        <ele>843.5</ele>
        <time>2015-10-25T08:44:23Z</time>
      </trkpt>
      <trkpt lat="43.7465" lon="3.49211">
        <ele>844</ele>
        <time>2015-10-25T08:44:24Z</time>
      </trkpt>
      <trkpt lat="43.74653" lon="3.49214">
        <ele>844.5</ele>
        <time>2015-10-25T08:44:25Z</time>
      </trkpt>
      <trkpt lat="43.74655" lon="3.49216">
        <ele>844.5</ele>
        <time>2015-10-25T08:44:26Z</time>
      </trkpt>
      <trkpt lat="43.74658" lon="3.49218">
        <ele>844.5</ele>
        <time>2015-10-25T08:44:27Z</time>
      </trkpt>
      <trkpt lat="43.74661" lon="3.49221">
        <ele>844.5</ele>
        <time>2015-10-25T08:44:28Z</time>
      </trkpt>
      <trkpt lat="43.74663" lon="3.49222">
        <ele>845</ele>
        <time>2015-10-25T08:44:29Z</time>
      </trkpt>
      <trkpt lat="43.74665" lon="3.49224">
        <ele>846</ele>
        <time>2015-10-25T08:44:30Z</time>
      </trkpt>
      <trkpt lat="43.74668" lon="3.49226">
        <ele>846</ele>
        <time>2015-10-25T08:44:31Z</time>
      </trkpt>
      <trkpt lat="43.7467" lon="3.49227">
        <ele>846</ele>
        <time>2015-10-25T08:44:32Z</time>
      </trkpt>
      <trkpt lat="43.74673" lon="3.49229">
        <ele>846.5</ele>
        <time>2015-10-25T08:44:33Z</time>
      </trkpt>
      <trkpt lat="43.74678" lon="3.49233">
        <ele>847</ele>
        <time>2015-10-25T08:44:35Z</time>
      </trkpt>
      <trkpt lat="43.7468" lon="3.49236">
        <ele>847</ele>
        <time>2015-10-25T08:44:36Z</time>
      </trkpt>
      <trkpt lat="43.74682" lon="3.49238">
        <ele>847.5</ele>
        <time>2015-10-25T08:44:37Z</time>
      </trkpt>
      <trkpt lat="43.74684" lon="3.4924">
        <ele>847.5</ele>
        <time>2015-10-25T08:44:38Z</time>
      </trkpt>
      <trkpt lat="43.74685" lon="3.49242">
        <ele>847</ele>
        <time>2015-10-25T08:44:39Z</time>
      </trkpt>
      <trkpt lat="43.74687" lon="3.49244">
        <ele>847.5</ele>
        <time>2015-10-25T08:44:40Z</time>
      </trkpt>
      <trkpt lat="43.74689" lon="3.49246">
        <ele>848</ele>
        <time>2015-10-25T08:44:41Z</time>
      </trkpt>
      <trkpt lat="43.74691" lon="3.49248">
        <ele>848.5</ele>
        <time>2015-10-25T08:44:42Z</time>
      </trkpt>
      <trkpt lat="43.74692" lon="3.4925">
        <ele>848.5</ele>
        <time>2015-10-25T08:44:43Z</time>
      </trkpt>
      <trkpt lat="43.74693" lon="3.49252">
        <ele>848.5</ele>
        <time>2015-10-25T08:44:44Z</time>
      </trkpt>
      <trkpt lat="43.74694" lon="3.49255">
        <ele>848.5</ele>
        <time>2015-10-25T08:44:45Z</time>
      </trkpt>
      <trkpt lat="43.74695" lon="3.49258">
        <ele>848.5</ele>
        <time>2015-10-25T08:44:46Z</time>
      </trkpt>
      <trkpt lat="43.74696" lon="3.49261">
        <ele>848.5</ele>
        <time>2015-10-25T08:44:47Z</time>
      </trkpt>
      <trkpt lat="43.74696" lon="3.49264">
        <ele>848.5</ele>
        <time>2015-10-25T08:44:48Z</time>
      </trkpt>
      <trkpt lat="43.74697" lon="3.49267">
        <ele>848.5</ele>
        <time>2015-10-25T08:44:49Z</time>
      </trkpt>
      <trkpt lat="43.74698" lon="3.4927">
        <ele>849</ele>
        <time>2015-10-25T08:44:50Z</time>
      </trkpt>
      <trkpt lat="43.74698" lon="3.49272">
        <ele>848.5</ele>
        <time>2015-10-25T08:44:51Z</time>
      </trkpt>
      <trkpt lat="43.74699" lon="3.49277">
        <ele>848.5</ele>
        <time>2015-10-25T08:44:53Z</time>
      </trkpt>
      <trkpt lat="43.74699" lon="3.4928">
        <ele>848.5</ele>
        <time>2015-10-25T08:44:54Z</time>
      </trkpt>
      <trkpt lat="43.747" lon="3.49284">
        <ele>848</ele>
        <time>2015-10-25T08:44:55Z</time>
      </trkpt>
      <trkpt lat="43.747" lon="3.49287">
        <ele>848</ele>
        <time>2015-10-25T08:44:56Z</time>
      </trkpt>
      <trkpt lat="43.74701" lon="3.49291">
        <ele>848</ele>
        <time>2015-10-25T08:44:57Z</time>
      </trkpt>
      <trkpt lat="43.74701" lon="3.49296">
        <ele>848.5</ele>
        <time>2015-10-25T08:44:58Z</time>
      </trkpt>
      <trkpt lat="43.74701" lon="3.493">
        <ele>848.5</ele>
        <time>2015-10-25T08:44:59Z</time>
      </trkpt>
      <trkpt lat="43.74701" lon="3.49304">
        <ele>848</ele>
        <time>2015-10-25T08:45:00Z</time>
      </trkpt>
      <trkpt lat="43.747" lon="3.49308">
        <ele>848</ele>
        <time>2015-10-25T08:45:01Z</time>
      </trkpt>
      <trkpt lat="43.74701" lon="3.49312">
        <ele>848</ele>
        <time>2015-10-25T08:45:02Z</time>
      </trkpt>
      <trkpt lat="43.74701" lon="3.49315">
        <ele>848.5</ele>
        <time>2015-10-25T08:45:03Z</time>
      </trkpt>
      <trkpt lat="43.74701" lon="3.49317">
        <ele>848.5</ele>
        <time>2015-10-25T08:45:04Z</time>
      </trkpt>
      <trkpt lat="43.74703" lon="3.49321">
        <ele>850</ele>
        <time>2015-10-25T08:45:05Z</time>
      </trkpt>
      <trkpt lat="43.74705" lon="3.49325">
        <ele>850</ele>
        <time>2015-10-25T08:45:06Z</time>
      </trkpt>
      <trkpt lat="43.74707" lon="3.4933">
        <ele>849.5</ele>
        <time>2015-10-25T08:45:07Z</time>
      </trkpt>
      <trkpt lat="43.7471" lon="3.49335">
        <ele>848.5</ele>
        <time>2015-10-25T08:45:08Z</time>
      </trkpt>
      <trkpt lat="43.74713" lon="3.4934">
        <ele>847.5</ele>
        <time>2015-10-25T08:45:09Z</time>
      </trkpt>
      <trkpt lat="43.74717" lon="3.49346">
        <ele>847</ele>
        <time>2015-10-25T08:45:10Z</time>
      </trkpt>
      <trkpt lat="43.74722" lon="3.49351">
        <ele>847</ele>
        <time>2015-10-25T08:45:11Z</time>
      </trkpt>
      <trkpt lat="43.74727" lon="3.49356">
        <ele>846</ele>
        <time>2015-10-25T08:45:12Z</time>
      </trkpt>
      <trkpt lat="43.74733" lon="3.49362">
        <ele>846</ele>
        <time>2015-10-25T08:45:13Z</time>
      </trkpt>
      <trkpt lat="43.74738" lon="3.4937">
        <ele>845</ele>
        <time>2015-10-25T08:45:14Z</time>
      </trkpt>
      <trkpt lat="43.74741" lon="3.49377">
        <ele>845.5</ele>
        <time>2015-10-25T08:45:15Z</time>
      </trkpt>
      <trkpt lat="43.74743" lon="3.49386">
        <ele>845</ele>
        <time>2015-10-25T08:45:16Z</time>
      </trkpt>
      <trkpt lat="43.74746" lon="3.49393">
        <ele>844.5</ele>
        <time>2015-10-25T08:45:17Z</time>
      </trkpt>
      <trkpt lat="43.7475" lon="3.49398">
        <ele>842.5</ele>
        <time>2015-10-25T08:45:18Z</time>
      </trkpt>
      <trkpt lat="43.74754" lon="3.49403">
        <ele>842</ele>
        <time>2015-10-25T08:45:19Z</time>
      </trkpt>
      <trkpt lat="43.74758" lon="3.49409">
        <ele>841.5</ele>
        <time>2015-10-25T08:45:20Z</time>
      </trkpt>
      <trkpt lat="43.74762" lon="3.49414">
        <ele>841.5</ele>
        <time>2015-10-25T08:45:21Z</time>
      </trkpt>
      <trkpt lat="43.74765" lon="3.4942">
        <ele>841.5</ele>
        <time>2015-10-25T08:45:22Z</time>
      </trkpt>
      <trkpt lat="43.74768" lon="3.49426">
        <ele>841.5</ele>
        <time>2015-10-25T08:45:23Z</time>
      </trkpt>
      <trkpt lat="43.74771" lon="3.49432">
        <ele>841.5</ele>
        <time>2015-10-25T08:45:24Z</time>
      </trkpt>
      <trkpt lat="43.74774" lon="3.49438">
        <ele>841.5</ele>
        <time>2015-10-25T08:45:25Z</time>
      </trkpt>
      <trkpt lat="43.74778" lon="3.49444">
        <ele>842</ele>
        <time>2015-10-25T08:45:26Z</time>
      </trkpt>
      <trkpt lat="43.74782" lon="3.49449">
        <ele>842</ele>
        <time>2015-10-25T08:45:27Z</time>
      </trkpt>
      <trkpt lat="43.74785" lon="3.49454">
        <ele>842</ele>
        <time>2015-10-25T08:45:28Z</time>
      </trkpt>
      <trkpt lat="43.74789" lon="3.4946">
        <ele>842</ele>
        <time>2015-10-25T08:45:29Z</time>
      </trkpt>
      <trkpt lat="43.74793" lon="3.49465">
        <ele>842</ele>
        <time>2015-10-25T08:45:30Z</time>
      </trkpt>
      <trkpt lat="43.74796" lon="3.49471">
        <ele>842.5</ele>
        <time>2015-10-25T08:45:31Z</time>
      </trkpt>
      <trkpt lat="43.74798" lon="3.49478">
        <ele>842.5</ele>
        <time>2015-10-25T08:45:32Z</time>
      </trkpt>
      <trkpt lat="43.748" lon="3.49485">
        <ele>842.5</ele>
        <time>2015-10-25T08:45:33Z</time>
      </trkpt>
      <trkpt lat="43.74799" lon="3.49492">
        <ele>843</ele>
        <time>2015-10-25T08:45:34Z</time>
      </trkpt>
      <trkpt lat="43.74798" lon="3.49499">
        <ele>843</ele>
        <time>2015-10-25T08:45:35Z</time>
      </trkpt>
      <trkpt lat="43.74795" lon="3.49506">
        <ele>842.5</ele>
        <time>2015-10-25T08:45:36Z</time>
      </trkpt>
      <trkpt lat="43.74793" lon="3.49514">
        <ele>841.5</ele>
        <time>2015-10-25T08:45:37Z</time>
      </trkpt>
      <trkpt lat="43.74791" lon="3.49521">
        <ele>841</ele>
        <time>2015-10-25T08:45:38Z</time>
      </trkpt>
      <trkpt lat="43.7479" lon="3.49528">
        <ele>841</ele>
        <time>2015-10-25T08:45:39Z</time>
      </trkpt>
      <trkpt lat="43.74789" lon="3.49536">
        <ele>840.5</ele>
        <time>2015-10-25T08:45:40Z</time>
      </trkpt>
      <trkpt lat="43.74788" lon="3.49543">
        <ele>840</ele>
        <time>2015-10-25T08:45:41Z</time>
      </trkpt>
      <trkpt lat="43.74787" lon="3.49551">
        <ele>839</ele>
        <time>2015-10-25T08:45:42Z</time>
      </trkpt>
      <trkpt lat="43.74787" lon="3.49559">
        <ele>838.5</ele>
        <time>2015-10-25T08:45:43Z</time>
      </trkpt>
      <trkpt lat="43.74787" lon="3.49567">
        <ele>837.5</ele>
        <time>2015-10-25T08:45:44Z</time>
      </trkpt>
      <trkpt lat="43.74787" lon="3.49574">
        <ele>838.5</ele>
        <time>2015-10-25T08:45:45Z</time>
      </trkpt>
      <trkpt lat="43.74789" lon="3.49581">
        <ele>839</ele>
        <time>2015-10-25T08:45:46Z</time>
      </trkpt>
      <trkpt lat="43.7479" lon="3.49587">
        <ele>840</ele>
        <time>2015-10-25T08:45:47Z</time>
      </trkpt>
      <trkpt lat="43.74789" lon="3.49594">
        <ele>840</ele>
        <time>2015-10-25T08:45:48Z</time>
      </trkpt>
      <trkpt lat="43.74789" lon="3.496">
        <ele>840</ele>
        <time>2015-10-25T08:45:49Z</time>
      </trkpt>
      <trkpt lat="43.74793" lon="3.49605">
        <ele>840</ele>
        <time>2015-10-25T08:45:50Z</time>
      </trkpt>
      <trkpt lat="43.74795" lon="3.49609">
        <ele>840</ele>
        <time>2015-10-25T08:45:51Z</time>
      </trkpt>
      <trkpt lat="43.74797" lon="3.49614">
        <ele>840</ele>
        <time>2015-10-25T08:45:52Z</time>
      </trkpt>
      <trkpt lat="43.748" lon="3.49618">
        <ele>840</ele>
        <time>2015-10-25T08:45:53Z</time>
      </trkpt>
      <trkpt lat="43.74802" lon="3.49621">
        <ele>840</ele>
        <time>2015-10-25T08:45:54Z</time>
      </trkpt>
      <trkpt lat="43.74804" lon="3.49625">
        <ele>840</ele>
        <time>2015-10-25T08:45:55Z</time>
      </trkpt>
      <trkpt lat="43.74807" lon="3.49629">
        <ele>840</ele>
        <time>2015-10-25T08:45:56Z</time>
      </trkpt>
      <trkpt lat="43.74809" lon="3.49632">
        <ele>840</ele>
        <time>2015-10-25T08:45:57Z</time>
      </trkpt>
      <trkpt lat="43.74812" lon="3.49636">
        <ele>840</ele>
        <time>2015-10-25T08:45:58Z</time>
      </trkpt>
      <trkpt lat="43.74815" lon="3.4964">
        <ele>840</ele>
        <time>2015-10-25T08:45:59Z</time>
      </trkpt>
      <trkpt lat="43.74817" lon="3.49643">
        <ele>840.5</ele>
        <time>2015-10-25T08:46:00Z</time>
      </trkpt>
      <trkpt lat="43.7482" lon="3.49647">
        <ele>840</ele>
        <time>2015-10-25T08:46:01Z</time>
      </trkpt>
      <trkpt lat="43.74823" lon="3.4965">
        <ele>840.5</ele>
        <time>2015-10-25T08:46:02Z</time>
      </trkpt>
      <trkpt lat="43.74826" lon="3.49653">
        <ele>840.5</ele>
        <time>2015-10-25T08:46:03Z</time>
      </trkpt>
      <trkpt lat="43.74829" lon="3.49656">
        <ele>840.5</ele>
        <time>2015-10-25T08:46:04Z</time>
      </trkpt>
      <trkpt lat="43.74832" lon="3.49659">
        <ele>841</ele>
        <time>2015-10-25T08:46:05Z</time>
      </trkpt>
      <trkpt lat="43.74834" lon="3.49662">
        <ele>841.5</ele>
        <time>2015-10-25T08:46:06Z</time>
      </trkpt>
      <trkpt lat="43.74836" lon="3.49665">
        <ele>842</ele>
        <time>2015-10-25T08:46:07Z</time>
      </trkpt>
      <trkpt lat="43.74838" lon="3.4967">
        <ele>841.5</ele>
        <time>2015-10-25T08:46:08Z</time>
      </trkpt>
      <trkpt lat="43.7484" lon="3.49674">
        <ele>841.5</ele>
        <time>2015-10-25T08:46:09Z</time>
      </trkpt>
      <trkpt lat="43.74842" lon="3.49678">
        <ele>841.5</ele>
        <time>2015-10-25T08:46:10Z</time>
      </trkpt>
      <trkpt lat="43.74844" lon="3.49683">
        <ele>841.5</ele>
        <time>2015-10-25T08:46:11Z</time>
      </trkpt>
      <trkpt lat="43.74845" lon="3.49686">
        <ele>842</ele>
        <time>2015-10-25T08:46:12Z</time>
      </trkpt>
      <trkpt lat="43.74847" lon="3.49689">
        <ele>842.5</ele>
        <time>2015-10-25T08:46:13Z</time>
      </trkpt>
      <trkpt lat="43.74849" lon="3.49692">
        <ele>842.5</ele>
        <time>2015-10-25T08:46:14Z</time>
      </trkpt>
      <trkpt lat="43.7485" lon="3.49695">
        <ele>842.5</ele>
        <time>2015-10-25T08:46:15Z</time>
      </trkpt>
      <trkpt lat="43.74852" lon="3.49698">
        <ele>842.5</ele>
        <time>2015-10-25T08:46:16Z</time>
      </trkpt>
      <trkpt lat="43.74853" lon="3.49701">
        <ele>842.5</ele>
        <time>2015-10-25T08:46:17Z</time>
      </trkpt>
      <trkpt lat="43.74854" lon="3.49704">
        <ele>842.5</ele>
        <time>2015-10-25T08:46:18Z</time>
      </trkpt>
      <trkpt lat="43.74855" lon="3.49707">
        <ele>842.5</ele>
        <time>2015-10-25T08:46:19Z</time>
      </trkpt>
      <trkpt lat="43.74856" lon="3.4971">
        <ele>842.5</ele>
        <time>2015-10-25T08:46:20Z</time>
      </trkpt>
      <trkpt lat="43.74857" lon="3.49714">
        <ele>842</ele>
        <time>2015-10-25T08:46:21Z</time>
      </trkpt>
      <trkpt lat="43.74859" lon="3.49718">
        <ele>842</ele>
        <time>2015-10-25T08:46:22Z</time>
      </trkpt>
      <trkpt lat="43.7486" lon="3.49722">
        <ele>842</ele>
        <time>2015-10-25T08:46:23Z</time>
      </trkpt>
      <trkpt lat="43.74861" lon="3.49725">
        <ele>842</ele>
        <time>2015-10-25T08:46:24Z</time>
      </trkpt>
      <trkpt lat="43.74862" lon="3.49729">
        <ele>842</ele>
        <time>2015-10-25T08:46:25Z</time>
      </trkpt>
      <trkpt lat="43.74864" lon="3.49733">
        <ele>842</ele>
        <time>2015-10-25T08:46:26Z</time>
      </trkpt>
      <trkpt lat="43.74865" lon="3.49736">
        <ele>841.5</ele>
        <time>2015-10-25T08:46:27Z</time>
      </trkpt>
      <trkpt lat="43.74867" lon="3.4974">
        <ele>841.5</ele>
        <time>2015-10-25T08:46:28Z</time>
      </trkpt>
      <trkpt lat="43.74868" lon="3.49743">
        <ele>841.5</ele>
        <time>2015-10-25T08:46:29Z</time>
      </trkpt>
      <trkpt lat="43.74871" lon="3.49746">
        <ele>842</ele>
        <time>2015-10-25T08:46:30Z</time>
      </trkpt>
      <trkpt lat="43.74871" lon="3.4975">
        <ele>841</ele>
        <time>2015-10-25T08:46:31Z</time>
      </trkpt>
      <trkpt lat="43.74873" lon="3.49754">
        <ele>840.5</ele>
        <time>2015-10-25T08:46:32Z</time>
      </trkpt>
      <trkpt lat="43.74875" lon="3.49759">
        <ele>840.5</ele>
        <time>2015-10-25T08:46:33Z</time>
      </trkpt>
      <trkpt lat="43.74876" lon="3.49763">
        <ele>840</ele>
        <time>2015-10-25T08:46:34Z</time>
      </trkpt>
      <trkpt lat="43.74879" lon="3.49769">
        <ele>840</ele>
        <time>2015-10-25T08:46:35Z</time>
      </trkpt>
      <trkpt lat="43.74881" lon="3.49774">
        <ele>839.5</ele>
        <time>2015-10-25T08:46:36Z</time>
      </trkpt>
      <trkpt lat="43.74883" lon="3.49779">
        <ele>839.5</ele>
        <time>2015-10-25T08:46:37Z</time>
      </trkpt>
      <trkpt lat="43.74885" lon="3.49783">
        <ele>838.5</ele>
        <time>2015-10-25T08:46:38Z</time>
      </trkpt>
      <trkpt lat="43.74888" lon="3.49786">
        <ele>838</ele>
        <time>2015-10-25T08:46:39Z</time>
      </trkpt>
      <trkpt lat="43.74891" lon="3.49789">
        <ele>838</ele>
        <time>2015-10-25T08:46:40Z</time>
      </trkpt>
      <trkpt lat="43.74893" lon="3.49793">
        <ele>837.5</ele>
        <time>2015-10-25T08:46:41Z</time>
      </trkpt>
      <trkpt lat="43.74896" lon="3.49797">
        <ele>837</ele>
        <time>2015-10-25T08:46:42Z</time>
      </trkpt>
      <trkpt lat="43.74899" lon="3.49803">
        <ele>836</ele>
        <time>2015-10-25T08:46:43Z</time>
      </trkpt>
      <trkpt lat="43.74902" lon="3.4981">
        <ele>834.5</ele>
        <time>2015-10-25T08:46:44Z</time>
      </trkpt>
      <trkpt lat="43.74905" lon="3.49817">
        <ele>833.5</ele>
        <time>2015-10-25T08:46:44Z</time>
      </trkpt>
      <trkpt lat="43.74908" lon="3.49824">
        <ele>832.5</ele>
        <time>2015-10-25T08:46:46Z</time>
      </trkpt>
      <trkpt lat="43.74912" lon="3.4983">
        <ele>832</ele>
        <time>2015-10-25T08:46:46Z</time>
      </trkpt>
      <trkpt lat="43.74915" lon="3.49837">
        <ele>831</ele>
        <time>2015-10-25T08:46:47Z</time>
      </trkpt>
      <trkpt lat="43.7492" lon="3.49844">
        <ele>830.5</ele>
        <time>2015-10-25T08:46:48Z</time>
      </trkpt>
      <trkpt lat="43.74925" lon="3.49852">
        <ele>829.5</ele>
        <time>2015-10-25T08:46:49Z</time>
      </trkpt>
      <trkpt lat="43.7493" lon="3.49861">
        <ele>828.5</ele>
        <time>2015-10-25T08:46:50Z</time>
      </trkpt>
      <trkpt lat="43.74935" lon="3.49869">
        <ele>827.5</ele>
        <time>2015-10-25T08:46:51Z</time>
      </trkpt>
      <trkpt lat="43.7494" lon="3.49876">
        <ele>826.5</ele>
        <time>2015-10-25T08:46:52Z</time>
      </trkpt>
      <trkpt lat="43.74944" lon="3.49883">
        <ele>826</ele>
        <time>2015-10-25T08:46:53Z</time>
      </trkpt>
      <trkpt lat="43.74948" lon="3.49887">
        <ele>826</ele>
        <time>2015-10-25T08:46:54Z</time>
      </trkpt>
      <trkpt lat="43.74953" lon="3.49891">
        <ele>825.5</ele>
        <time>2015-10-25T08:46:55Z</time>
      </trkpt>
      <trkpt lat="43.74957" lon="3.49894">
        <ele>825.5</ele>
        <time>2015-10-25T08:46:56Z</time>
      </trkpt>
      <trkpt lat="43.7496" lon="3.49898">
        <ele>825</ele>
        <time>2015-10-25T08:46:57Z</time>
      </trkpt>
      <trkpt lat="43.74963" lon="3.49902">
        <ele>825</ele>
        <time>2015-10-25T08:46:58Z</time>
      </trkpt>
      <trkpt lat="43.74966" lon="3.49906">
        <ele>824.5</ele>
        <time>2015-10-25T08:46:59Z</time>
      </trkpt>
      <trkpt lat="43.74969" lon="3.49911">
        <ele>824</ele>
        <time>2015-10-25T08:47:00Z</time>
      </trkpt>
      <trkpt lat="43.74971" lon="3.49916">
        <ele>823.5</ele>
        <time>2015-10-25T08:47:01Z</time>
      </trkpt>
      <trkpt lat="43.74974" lon="3.49921">
        <ele>823</ele>
        <time>2015-10-25T08:47:02Z</time>
      </trkpt>
      <trkpt lat="43.74977" lon="3.49926">
        <ele>823</ele>
        <time>2015-10-25T08:47:03Z</time>
      </trkpt>
      <trkpt lat="43.74981" lon="3.49931">
        <ele>822.5</ele>
        <time>2015-10-25T08:47:04Z</time>
      </trkpt>
      <trkpt lat="43.74984" lon="3.49936">
        <ele>821.5</ele>
        <time>2015-10-25T08:47:05Z</time>
      </trkpt>
      <trkpt lat="43.74988" lon="3.49941">
        <ele>821</ele>
        <time>2015-10-25T08:47:06Z</time>
      </trkpt>
      <trkpt lat="43.74992" lon="3.49947">
        <ele>820.5</ele>
        <time>2015-10-25T08:47:07Z</time>
      </trkpt>
      <trkpt lat="43.74995" lon="3.49952">
        <ele>820.5</ele>
        <time>2015-10-25T08:47:08Z</time>
      </trkpt>
      <trkpt lat="43.74999" lon="3.49956">
        <ele>820.5</ele>
        <time>2015-10-25T08:47:09Z</time>
      </trkpt>
      <trkpt lat="43.75003" lon="3.49959">
        <ele>820</ele>
        <time>2015-10-25T08:47:10Z</time>
      </trkpt>
      <trkpt lat="43.75008" lon="3.49961">
        <ele>819.5</ele>
        <time>2015-10-25T08:47:11Z</time>
      </trkpt>
      <trkpt lat="43.75012" lon="3.49963">
        <ele>819.5</ele>
        <time>2015-10-25T08:47:12Z</time>
      </trkpt>
      <trkpt lat="43.75017" lon="3.49965">
        <ele>819</ele>
        <time>2015-10-25T08:47:13Z</time>
      </trkpt>
      <trkpt lat="43.75021" lon="3.49966">
        <ele>818.5</ele>
        <time>2015-10-25T08:47:14Z</time>
      </trkpt>
      <trkpt lat="43.75026" lon="3.49968">
        <ele>818</ele>
        <time>2015-10-25T08:47:15Z</time>
      </trkpt>
      <trkpt lat="43.7503" lon="3.49969">
        <ele>818</ele>
        <time>2015-10-25T08:47:16Z</time>
      </trkpt>
      <trkpt lat="43.75035" lon="3.4997">
        <ele>817.5</ele>
        <time>2015-10-25T08:47:17Z</time>
      </trkpt>
      <trkpt lat="43.75039" lon="3.49969">
        <ele>818</ele>
        <time>2015-10-25T08:47:18Z</time>
      </trkpt>
      <trkpt lat="43.75043" lon="3.49968">
        <ele>818.5</ele>
        <time>2015-10-25T08:47:19Z</time>
      </trkpt>
      <trkpt lat="43.75046" lon="3.49967">
        <ele>819</ele>
        <time>2015-10-25T08:47:20Z</time>
      </trkpt>
      <trkpt lat="43.7505" lon="3.49965">
        <ele>819</ele>
        <time>2015-10-25T08:47:21Z</time>
      </trkpt>
      <trkpt lat="43.75054" lon="3.49963">
        <ele>819.5</ele>
        <time>2015-10-25T08:47:22Z</time>
      </trkpt>
      <trkpt lat="43.75057" lon="3.49959">
        <ele>819.5</ele>
        <time>2015-10-25T08:47:23Z</time>
      </trkpt>
      <trkpt lat="43.75059" lon="3.49955">
        <ele>819</ele>
        <time>2015-10-25T08:47:24Z</time>
      </trkpt>
      <trkpt lat="43.75062" lon="3.4995">
        <ele>819</ele>
        <time>2015-10-25T08:47:25Z</time>
      </trkpt>
      <trkpt lat="43.75064" lon="3.49946">
        <ele>819</ele>
        <time>2015-10-25T08:47:26Z</time>
      </trkpt>
      <trkpt lat="43.75067" lon="3.49942">
        <ele>818.5</ele>
        <time>2015-10-25T08:47:27Z</time>
      </trkpt>
      <trkpt lat="43.7507" lon="3.49938">
        <ele>818.5</ele>
        <time>2015-10-25T08:47:28Z</time>
      </trkpt>
      <trkpt lat="43.75076" lon="3.49939">
        <ele>819.5</ele>
        <time>2015-10-25T08:47:29Z</time>
      </trkpt>
      <trkpt lat="43.75079" lon="3.49939">
        <ele>820</ele>
        <time>2015-10-25T08:47:30Z</time>
      </trkpt>
      <trkpt lat="43.75082" lon="3.49939">
        <ele>820.5</ele>
        <time>2015-10-25T08:47:31Z</time>
      </trkpt>
      <trkpt lat="43.75086" lon="3.4994">
        <ele>820.5</ele>
        <time>2015-10-25T08:47:32Z</time>
      </trkpt>
      <trkpt lat="43.7509" lon="3.49941">
        <ele>820</ele>
        <time>2015-10-25T08:47:33Z</time>
      </trkpt>
      <trkpt lat="43.75094" lon="3.4994">
        <ele>819.5</ele>
        <time>2015-10-25T08:47:34Z</time>
      </trkpt>
      <trkpt lat="43.75098" lon="3.49938">
        <ele>819</ele>
        <time>2015-10-25T08:47:35Z</time>
      </trkpt>
      <trkpt lat="43.75102" lon="3.49934">
        <ele>819</ele>
        <time>2015-10-25T08:47:36Z</time>
      </trkpt>
      <trkpt lat="43.75105" lon="3.49931">
        <ele>819</ele>
        <time>2015-10-25T08:47:37Z</time>
      </trkpt>
      <trkpt lat="43.75109" lon="3.4993">
        <ele>818.5</ele>
        <time>2015-10-25T08:47:38Z</time>
      </trkpt>
      <trkpt lat="43.75113" lon="3.49931">
        <ele>818.5</ele>
        <time>2015-10-25T08:47:39Z</time>
      </trkpt>
      <trkpt lat="43.75115" lon="3.49931">
        <ele>819</ele>
        <time>2015-10-25T08:47:40Z</time>
      </trkpt>
      <trkpt lat="43.75118" lon="3.49934">
        <ele>818.5</ele>
        <time>2015-10-25T08:47:41Z</time>
      </trkpt>
      <trkpt lat="43.75122" lon="3.49937">
        <ele>818</ele>
        <time>2015-10-25T08:47:42Z</time>
      </trkpt>
      <trkpt lat="43.75125" lon="3.49941">
        <ele>817.5</ele>
        <time>2015-10-25T08:47:43Z</time>
      </trkpt>
      <trkpt lat="43.75129" lon="3.49944">
        <ele>817</ele>
        <time>2015-10-25T08:47:44Z</time>
      </trkpt>
      <trkpt lat="43.75133" lon="3.49946">
        <ele>816.5</ele>
        <time>2015-10-25T08:47:45Z</time>
      </trkpt>
      <trkpt lat="43.75137" lon="3.49947">
        <ele>816</ele>
        <time>2015-10-25T08:47:46Z</time>
      </trkpt>
      <trkpt lat="43.75141" lon="3.49947">
        <ele>815.5</ele>
        <time>2015-10-25T08:47:47Z</time>
      </trkpt>
      <trkpt lat="43.75146" lon="3.49947">
        <ele>815</ele>
        <time>2015-10-25T08:47:48Z</time>
      </trkpt>
      <trkpt lat="43.7515" lon="3.49949">
        <ele>814.5</ele>
        <time>2015-10-25T08:47:49Z</time>
      </trkpt>
      <trkpt lat="43.75154" lon="3.4995">
        <ele>815</ele>
        <time>2015-10-25T08:47:50Z</time>
      </trkpt>
      <trkpt lat="43.75157" lon="3.4995">
        <ele>816</ele>
        <time>2015-10-25T08:47:51Z</time>
      </trkpt>
      <trkpt lat="43.7516" lon="3.49954">
        <ele>816</ele>
        <time>2015-10-25T08:47:52Z</time>
      </trkpt>
      <trkpt lat="43.75164" lon="3.49957">
        <ele>815</ele>
        <time>2015-10-25T08:47:53Z</time>
      </trkpt>
      <trkpt lat="43.75168" lon="3.4996">
        <ele>815</ele>
        <time>2015-10-25T08:47:54Z</time>
      </trkpt>
      <trkpt lat="43.75172" lon="3.49963">
        <ele>815</ele>
        <time>2015-10-25T08:47:55Z</time>
      </trkpt>
      <trkpt lat="43.75177" lon="3.49967">
        <ele>814</ele>
        <time>2015-10-25T08:47:56Z</time>
      </trkpt>
      <trkpt lat="43.75182" lon="3.49971">
        <ele>813.5</ele>
        <time>2015-10-25T08:47:57Z</time>
      </trkpt>
      <trkpt lat="43.75187" lon="3.49973">
        <ele>813.5</ele>
        <time>2015-10-25T08:47:58Z</time>
      </trkpt>
      <trkpt lat="43.75192" lon="3.49976">
        <ele>813</ele>
        <time>2015-10-25T08:47:59Z</time>
      </trkpt>
      <trkpt lat="43.75197" lon="3.49977">
        <ele>813</ele>
        <time>2015-10-25T08:48:00Z</time>
      </trkpt>
      <trkpt lat="43.75202" lon="3.49979">
        <ele>812.5</ele>
        <time>2015-10-25T08:48:01Z</time>
      </trkpt>
      <trkpt lat="43.75207" lon="3.49981">
        <ele>812.5</ele>
        <time>2015-10-25T08:48:02Z</time>
      </trkpt>
      <trkpt lat="43.75211" lon="3.49983">
        <ele>813</ele>
        <time>2015-10-25T08:48:03Z</time>
      </trkpt>
      <trkpt lat="43.75216" lon="3.49986">
        <ele>812.5</ele>
        <time>2015-10-25T08:48:04Z</time>
      </trkpt>
      <trkpt lat="43.7522" lon="3.49988">
        <ele>812.5</ele>
        <time>2015-10-25T08:48:05Z</time>
      </trkpt>
      <trkpt lat="43.75224" lon="3.49992">
        <ele>812.5</ele>
        <time>2015-10-25T08:48:06Z</time>
      </trkpt>
      <trkpt lat="43.75229" lon="3.49996">
        <ele>812</ele>
        <time>2015-10-25T08:48:07Z</time>
      </trkpt>
      <trkpt lat="43.75233" lon="3.49998">
        <ele>812</ele>
        <time>2015-10-25T08:48:08Z</time>
      </trkpt>
      <trkpt lat="43.75238" lon="3.5">
        <ele>811</ele>
        <time>2015-10-25T08:48:09Z</time>
      </trkpt>
      <trkpt lat="43.75242" lon="3.5">
        <ele>811</ele>
        <time>2015-10-25T08:48:10Z</time>
      </trkpt>
      <trkpt lat="43.75245" lon="3.49996">
        <ele>811</ele>
        <time>2015-10-25T08:48:11Z</time>
      </trkpt>
      <trkpt lat="43.75247" lon="3.49991">
        <ele>810</ele>
        <time>2015-10-25T08:48:12Z</time>
      </trkpt>
      <trkpt lat="43.75248" lon="3.49987">
        <ele>810</ele>
        <time>2015-10-25T08:48:13Z</time>
      </trkpt>
      <trkpt lat="43.7525" lon="3.49983">
        <ele>810</ele>
        <time>2015-10-25T08:48:14Z</time>
      </trkpt>
      <trkpt lat="43.75251" lon="3.4998">
        <ele>810</ele>
        <time>2015-10-25T08:48:15Z</time>
      </trkpt>
      <trkpt lat="43.75253" lon="3.49978">
        <ele>810</ele>
        <time>2015-10-25T08:48:16Z</time>
      </trkpt>
      <trkpt lat="43.75255" lon="3.49976">
        <ele>811</ele>
        <time>2015-10-25T08:48:17Z</time>
      </trkpt>
      <trkpt lat="43.75257" lon="3.49974">
        <ele>811</ele>
        <time>2015-10-25T08:48:18Z</time>
      </trkpt>
      <trkpt lat="43.75259" lon="3.49971">
        <ele>811</ele>
        <time>2015-10-25T08:48:19Z</time>
      </trkpt>
      <trkpt lat="43.75262" lon="3.49969">
        <ele>810.5</ele>
        <time>2015-10-25T08:48:20Z</time>
      </trkpt>
      <trkpt lat="43.75265" lon="3.49968">
        <ele>809.5</ele>
        <time>2015-10-25T08:48:21Z</time>
      </trkpt>
      <trkpt lat="43.75268" lon="3.49966">
        <ele>809.5</ele>
        <time>2015-10-25T08:48:22Z</time>
      </trkpt>
      <trkpt lat="43.75271" lon="3.49967">
        <ele>811</ele>
        <time>2015-10-25T08:48:23Z</time>
      </trkpt>
      <trkpt lat="43.75275" lon="3.49968">
        <ele>810.5</ele>
        <time>2015-10-25T08:48:24Z</time>
      </trkpt>
      <trkpt lat="43.75278" lon="3.4997">
        <ele>809.5</ele>
        <time>2015-10-25T08:48:25Z</time>
      </trkpt>
      <trkpt lat="43.75282" lon="3.49973">
        <ele>808.5</ele>
        <time>2015-10-25T08:48:26Z</time>
      </trkpt>
      <trkpt lat="43.75283" lon="3.4997">
        <ele>806.5</ele>
        <time>2015-10-25T08:48:27Z</time>
      </trkpt>
      <trkpt lat="43.75292" lon="3.49965">
        <ele>806.5</ele>
        <time>2015-10-25T08:48:29Z</time>
      </trkpt>
      <trkpt lat="43.75296" lon="3.49964">
        <ele>806</ele>
        <time>2015-10-25T08:48:30Z</time>
      </trkpt>
      <trkpt lat="43.75301" lon="3.49964">
        <ele>805</ele>
        <time>2015-10-25T08:48:31Z</time>
      </trkpt>
      <trkpt lat="43.75306" lon="3.49963">
        <ele>804.5</ele>
        <time>2015-10-25T08:48:32Z</time>
      </trkpt>
      <trkpt lat="43.7531" lon="3.49961">
        <ele>804.5</ele>
        <time>2015-10-25T08:48:33Z</time>
      </trkpt>
      <trkpt lat="43.75314" lon="3.49958">
        <ele>804</ele>
        <time>2015-10-25T08:48:34Z</time>
      </trkpt>
      <trkpt lat="43.75317" lon="3.49954">
        <ele>804</ele>
        <time>2015-10-25T08:48:35Z</time>
      </trkpt>
      <trkpt lat="43.75319" lon="3.49951">
        <ele>803.5</ele>
        <time>2015-10-25T08:48:36Z</time>
      </trkpt>
      <trkpt lat="43.75322" lon="3.49946">
        <ele>803</ele>
        <time>2015-10-25T08:48:37Z</time>
      </trkpt>
      <trkpt lat="43.75325" lon="3.49944">
        <ele>803</ele>
        <time>2015-10-25T08:48:38Z</time>
      </trkpt>
      <trkpt lat="43.75331" lon="3.49945">
        <ele>804.5</ele>
        <time>2015-10-25T08:48:39Z</time>
      </trkpt>
      <trkpt lat="43.75335" lon="3.49947">
        <ele>803</ele>
        <time>2015-10-25T08:48:40Z</time>
      </trkpt>
      <trkpt lat="43.7534" lon="3.49949">
        <ele>802.5</ele>
        <time>2015-10-25T08:48:41Z</time>
      </trkpt>
      <trkpt lat="43.75344" lon="3.49951">
        <ele>802</ele>
        <time>2015-10-25T08:48:42Z</time>
      </trkpt>
      <trkpt lat="43.7535" lon="3.49953">
        <ele>801</ele>
        <time>2015-10-25T08:48:43Z</time>
      </trkpt>
      <trkpt lat="43.75355" lon="3.49954">
        <ele>800.5</ele>
        <time>2015-10-25T08:48:44Z</time>
      </trkpt>
      <trkpt lat="43.7536" lon="3.49955">
        <ele>799.5</ele>
        <time>2015-10-25T08:48:45Z</time>
      </trkpt>
      <trkpt lat="43.75366" lon="3.49957">
        <ele>799.5</ele>
        <time>2015-10-25T08:48:46Z</time>
      </trkpt>
      <trkpt lat="43.7537" lon="3.4996">
        <ele>799</ele>
        <time>2015-10-25T08:48:47Z</time>
      </trkpt>
      <trkpt lat="43.75375" lon="3.49962">
        <ele>799</ele>
        <time>2015-10-25T08:48:48Z</time>
      </trkpt>
      <trkpt lat="43.75379" lon="3.49966">
        <ele>798.5</ele>
        <time>2015-10-25T08:48:49Z</time>
      </trkpt>
      <trkpt lat="43.75384" lon="3.4997">
        <ele>798</ele>
        <time>2015-10-25T08:48:50Z</time>
      </trkpt>
      <trkpt lat="43.75389" lon="3.49974">
        <ele>797.5</ele>
        <time>2015-10-25T08:48:51Z</time>
      </trkpt>
      <trkpt lat="43.75394" lon="3.49978">
        <ele>797</ele>
        <time>2015-10-25T08:48:52Z</time>
      </trkpt>
      <trkpt lat="43.754" lon="3.49981">
        <ele>796</ele>
        <time>2015-10-25T08:48:53Z</time>
      </trkpt>
      <trkpt lat="43.75406" lon="3.49985">
        <ele>794.5</ele>
        <time>2015-10-25T08:48:54Z</time>
      </trkpt>
      <trkpt lat="43.75411" lon="3.49988">
        <ele>793.5</ele>
        <time>2015-10-25T08:48:55Z</time>
      </trkpt>
      <trkpt lat="43.75416" lon="3.49991">
        <ele>793</ele>
        <time>2015-10-25T08:48:56Z</time>
      </trkpt>
      <trkpt lat="43.75422" lon="3.49992">
        <ele>792.5</ele>
        <time>2015-10-25T08:48:57Z</time>
      </trkpt>
      <trkpt lat="43.75426" lon="3.49988">
        <ele>791</ele>
        <time>2015-10-25T08:48:58Z</time>
      </trkpt>
      <trkpt lat="43.7543" lon="3.49985">
        <ele>791.5</ele>
        <time>2015-10-25T08:48:59Z</time>
      </trkpt>
      <trkpt lat="43.75434" lon="3.49983">
        <ele>791</ele>
        <time>2015-10-25T08:49:00Z</time>
      </trkpt>
      <trkpt lat="43.75438" lon="3.49981">
        <ele>791.5</ele>
        <time>2015-10-25T08:49:01Z</time>
      </trkpt>
      <trkpt lat="43.75442" lon="3.49982">
        <ele>791</ele>
        <time>2015-10-25T08:49:02Z</time>
      </trkpt>
      <trkpt lat="43.75447" lon="3.49984">
        <ele>790.5</ele>
        <time>2015-10-25T08:49:03Z</time>
      </trkpt>
      <trkpt lat="43.75451" lon="3.49988">
        <ele>790</ele>
        <time>2015-10-25T08:49:04Z</time>
      </trkpt>
      <trkpt lat="43.75456" lon="3.49991">
        <ele>789.5</ele>
        <time>2015-10-25T08:49:05Z</time>
      </trkpt>
      <trkpt lat="43.75461" lon="3.49994">
        <ele>788.5</ele>
        <time>2015-10-25T08:49:06Z</time>
      </trkpt>
      <trkpt lat="43.75467" lon="3.49997">
        <ele>788.5</ele>
        <time>2015-10-25T08:49:07Z</time>
      </trkpt>
      <trkpt lat="43.75472" lon="3.50001">
        <ele>788</ele>
        <time>2015-10-25T08:49:08Z</time>
      </trkpt>
      <trkpt lat="43.75477" lon="3.50004">
        <ele>788</ele>
        <time>2015-10-25T08:49:09Z</time>
      </trkpt>
      <trkpt lat="43.75482" lon="3.50008">
        <ele>788.5</ele>
        <time>2015-10-25T08:49:10Z</time>
      </trkpt>
      <trkpt lat="43.75486" lon="3.50011">
        <ele>788.5</ele>
        <time>2015-10-25T08:49:11Z</time>
      </trkpt>
      <trkpt lat="43.75489" lon="3.50016">
        <ele>788.5</ele>
        <time>2015-10-25T08:49:12Z</time>
      </trkpt>
      <trkpt lat="43.75493" lon="3.50021">
        <ele>788.5</ele>
        <time>2015-10-25T08:49:13Z</time>
      </trkpt>
      <trkpt lat="43.75497" lon="3.50025">
        <ele>788</ele>
        <time>2015-10-25T08:49:14Z</time>
      </trkpt>
      <trkpt lat="43.75501" lon="3.50028">
        <ele>788</ele>
        <time>2015-10-25T08:49:15Z</time>
      </trkpt>
      <trkpt lat="43.75505" lon="3.50031">
        <ele>787.5</ele>
        <time>2015-10-25T08:49:16Z</time>
      </trkpt>
      <trkpt lat="43.7551" lon="3.50034">
        <ele>787.5</ele>
        <time>2015-10-25T08:49:17Z</time>
      </trkpt>
      <trkpt lat="43.75514" lon="3.50036">
        <ele>787.5</ele>
        <time>2015-10-25T08:49:18Z</time>
      </trkpt>
      <trkpt lat="43.75517" lon="3.50038">
        <ele>786.5</ele>
        <time>2015-10-25T08:49:19Z</time>
      </trkpt>
      <trkpt lat="43.7552" lon="3.50041">
        <ele>786</ele>
        <time>2015-10-25T08:49:20Z</time>
      </trkpt>
      <trkpt lat="43.75523" lon="3.50043">
        <ele>786</ele>
        <time>2015-10-25T08:49:21Z</time>
      </trkpt>
      <trkpt lat="43.75525" lon="3.50045">
        <ele>786</ele>
        <time>2015-10-25T08:49:22Z</time>
      </trkpt>
      <trkpt lat="43.75527" lon="3.50047">
        <ele>785.5</ele>
        <time>2015-10-25T08:49:23Z</time>
      </trkpt>
      <trkpt lat="43.75528" lon="3.50049">
        <ele>785.5</ele>
        <time>2015-10-25T08:49:24Z</time>
      </trkpt>
      <trkpt lat="43.75528" lon="3.50051">
        <ele>785.5</ele>
        <time>2015-10-25T08:49:25Z</time>
      </trkpt>
      <trkpt lat="43.75529" lon="3.50052">
        <ele>786</ele>
        <time>2015-10-25T08:49:46Z</time>
      </trkpt>
      <trkpt lat="43.75528" lon="3.50054">
        <ele>785</ele>
        <time>2015-10-25T08:50:02Z</time>
      </trkpt>
      <trkpt lat="43.75529" lon="3.50054">
        <ele>784</ele>
        <time>2015-10-25T08:50:17Z</time>
      </trkpt>
      <trkpt lat="43.75531" lon="3.50054">
        <ele>785</ele>
        <time>2015-10-25T08:50:24Z</time>
      </trkpt>
      <trkpt lat="43.75531" lon="3.50054">
        <ele>785</ele>
        <time>2015-10-25T08:50:26Z</time>
      </trkpt>
      <trkpt lat="43.75531" lon="3.50055">
        <ele>785</ele>
        <time>2015-10-25T08:50:43Z</time>
      </trkpt>
      <trkpt lat="43.75532" lon="3.50057">
        <ele>784.5</ele>
        <time>2015-10-25T08:50:24Z</time>
      </trkpt>
      <trkpt lat="43.75532" lon="3.50058">
        <ele>784.5</ele>
        <time>2015-10-25T08:50:26Z</time>
      </trkpt>
      <trkpt lat="43.75531" lon="3.50059">
        <ele>785</ele>
        <time>2015-10-25T08:50:33Z</time>
      </trkpt>
      <trkpt lat="43.75529" lon="3.50062">
        <ele>784.5</ele>
        <time>2015-10-25T08:50:35Z</time>
      </trkpt>
      <trkpt lat="43.75527" lon="3.50064">
        <ele>786</ele>
        <time>2015-10-25T08:50:36Z</time>
      </trkpt>
      <trkpt lat="43.75524" lon="3.50065">
        <ele>785.5</ele>
        <time>2015-10-25T08:50:37Z</time>
      </trkpt>
      <trkpt lat="43.75522" lon="3.50066">
        <ele>785</ele>
        <time>2015-10-25T08:50:38Z</time>
      </trkpt>
      <trkpt lat="43.75519" lon="3.50066">
        <ele>784</ele>
        <time>2015-10-25T08:50:39Z</time>
      </trkpt>
      <trkpt lat="43.75516" lon="3.50065">
        <ele>783.5</ele>
        <time>2015-10-25T08:50:40Z</time>
      </trkpt>
      <trkpt lat="43.75513" lon="3.50064">
        <ele>783.5</ele>
        <time>2015-10-25T08:50:41Z</time>
      </trkpt>
      <trkpt lat="43.75509" lon="3.50062">
        <ele>784.5</ele>
        <time>2015-10-25T08:50:42Z</time>
      </trkpt>
      <trkpt lat="43.75507" lon="3.50063">
        <ele>785</ele>
        <time>2015-10-25T08:50:43Z</time>
      </trkpt>
      <trkpt lat="43.75503" lon="3.50066">
        <ele>784.5</ele>
        <time>2015-10-25T08:50:44Z</time>
      </trkpt>
      <trkpt lat="43.75499" lon="3.50069">
        <ele>784</ele>
        <time>2015-10-25T08:50:45Z</time>
      </trkpt>
      <trkpt lat="43.75494" lon="3.50073">
        <ele>783.5</ele>
        <time>2015-10-25T08:50:46Z</time>
      </trkpt>
      <trkpt lat="43.7549" lon="3.50077">
        <ele>783.5</ele>
        <time>2015-10-25T08:50:47Z</time>
      </trkpt>
      <trkpt lat="43.75487" lon="3.50082">
        <ele>784</ele>
        <time>2015-10-25T08:50:49Z</time>
      </trkpt>
      <trkpt lat="43.75488" lon="3.50084">
        <ele>784.5</ele>
        <time>2015-10-25T08:50:50Z</time>
      </trkpt>
      <trkpt lat="43.75489" lon="3.50088">
        <ele>783.5</ele>
        <time>2015-10-25T08:50:51Z</time>
      </trkpt>
      <trkpt lat="43.7549" lon="3.50093">
        <ele>782.5</ele>
        <time>2015-10-25T08:50:52Z</time>
      </trkpt>
      <trkpt lat="43.75492" lon="3.50097">
        <ele>782.5</ele>
        <time>2015-10-25T08:50:53Z</time>
      </trkpt>
      <trkpt lat="43.75493" lon="3.50102">
        <ele>782</ele>
        <time>2015-10-25T08:50:54Z</time>
      </trkpt>
      <trkpt lat="43.75493" lon="3.50107">
        <ele>781</ele>
        <time>2015-10-25T08:50:55Z</time>
      </trkpt>
      <trkpt lat="43.75494" lon="3.50113">
        <ele>781</ele>
        <time>2015-10-25T08:50:56Z</time>
      </trkpt>
      <trkpt lat="43.75495" lon="3.50119">
        <ele>780</ele>
        <time>2015-10-25T08:50:57Z</time>
      </trkpt>
      <trkpt lat="43.75497" lon="3.50125">
        <ele>779.5</ele>
        <time>2015-10-25T08:50:58Z</time>
      </trkpt>
      <trkpt lat="43.75498" lon="3.50131">
        <ele>779</ele>
        <time>2015-10-25T08:50:59Z</time>
      </trkpt>
      <trkpt lat="43.75498" lon="3.50136">
        <ele>778.5</ele>
        <time>2015-10-25T08:51:00Z</time>
      </trkpt>
      <trkpt lat="43.75497" lon="3.50139">
        <ele>778.5</ele>
        <time>2015-10-25T08:51:01Z</time>
      </trkpt>
      <trkpt lat="43.75496" lon="3.50143">
        <ele>777.5</ele>
        <time>2015-10-25T08:51:02Z</time>
      </trkpt>
      <trkpt lat="43.75495" lon="3.50147">
        <ele>776</ele>
        <time>2015-10-25T08:51:03Z</time>
      </trkpt>
      <trkpt lat="43.75493" lon="3.50152">
        <ele>776</ele>
        <time>2015-10-25T08:51:04Z</time>
      </trkpt>
      <trkpt lat="43.75491" lon="3.50156">
        <ele>775</ele>
        <time>2015-10-25T08:51:05Z</time>
      </trkpt>
      <trkpt lat="43.75489" lon="3.50158">
        <ele>774.5</ele>
        <time>2015-10-25T08:51:06Z</time>
      </trkpt>
      <trkpt lat="43.75486" lon="3.50161">
        <ele>773.5</ele>
        <time>2015-10-25T08:51:07Z</time>
      </trkpt>
      <trkpt lat="43.75485" lon="3.50164">
        <ele>774</ele>
        <time>2015-10-25T08:51:08Z</time>
      </trkpt>
      <trkpt lat="43.75486" lon="3.50169">
        <ele>773.5</ele>
        <time>2015-10-25T08:51:09Z</time>
      </trkpt>
      <trkpt lat="43.75487" lon="3.50174">
        <ele>773.5</ele>
        <time>2015-10-25T08:51:10Z</time>
      </trkpt>
      <trkpt lat="43.75489" lon="3.50179">
        <ele>774.5</ele>
        <time>2015-10-25T08:51:11Z</time>
      </trkpt>
      <trkpt lat="43.7549" lon="3.50185">
        <ele>774</ele>
        <time>2015-10-25T08:51:12Z</time>
      </trkpt>
      <trkpt lat="43.75492" lon="3.50191">
        <ele>773.5</ele>
        <time>2015-10-25T08:51:13Z</time>
      </trkpt>
      <trkpt lat="43.75493" lon="3.50197">
        <ele>773</ele>
        <time>2015-10-25T08:51:14Z</time>
      </trkpt>
      <trkpt lat="43.75493" lon="3.50203">
        <ele>772</ele>
        <time>2015-10-25T08:51:15Z</time>
      </trkpt>
      <trkpt lat="43.75494" lon="3.50208">
        <ele>771</ele>
        <time>2015-10-25T08:51:16Z</time>
      </trkpt>
      <trkpt lat="43.75492" lon="3.50213">
        <ele>769.5</ele>
        <time>2015-10-25T08:51:17Z</time>
      </trkpt>
      <trkpt lat="43.75491" lon="3.50219">
        <ele>768</ele>
        <time>2015-10-25T08:51:18Z</time>
      </trkpt>
      <trkpt lat="43.75486" lon="3.50235">
        <ele>766.5</ele>
        <time>2015-10-25T08:51:20Z</time>
      </trkpt>
      <trkpt lat="43.75485" lon="3.50244">
        <ele>765.5</ele>
        <time>2015-10-25T08:51:21Z</time>
      </trkpt>
      <trkpt lat="43.75484" lon="3.50254">
        <ele>764</ele>
        <time>2015-10-25T08:51:22Z</time>
      </trkpt>
      <trkpt lat="43.75484" lon="3.50264">
        <ele>763</ele>
        <time>2015-10-25T08:51:23Z</time>
      </trkpt>
      <trkpt lat="43.75484" lon="3.50273">
        <ele>762</ele>
        <time>2015-10-25T08:51:24Z</time>
      </trkpt>
      <trkpt lat="43.75483" lon="3.50282">
        <ele>761</ele>
        <time>2015-10-25T08:51:25Z</time>
      </trkpt>
      <trkpt lat="43.75482" lon="3.50289">
        <ele>760.5</ele>
        <time>2015-10-25T08:51:26Z</time>
      </trkpt>
      <trkpt lat="43.75481" lon="3.50295">
        <ele>759.5</ele>
        <time>2015-10-25T08:51:27Z</time>
      </trkpt>
      <trkpt lat="43.75479" lon="3.50302">
        <ele>759</ele>
        <time>2015-10-25T08:51:28Z</time>
      </trkpt>
      <trkpt lat="43.75476" lon="3.50307">
        <ele>759</ele>
        <time>2015-10-25T08:51:29Z</time>
      </trkpt>
      <trkpt lat="43.75474" lon="3.50313">
        <ele>759</ele>
        <time>2015-10-25T08:51:30Z</time>
      </trkpt>
      <trkpt lat="43.75473" lon="3.50318">
        <ele>758.5</ele>
        <time>2015-10-25T08:51:31Z</time>
      </trkpt>
      <trkpt lat="43.75471" lon="3.50323">
        <ele>758.5</ele>
        <time>2015-10-25T08:51:32Z</time>
      </trkpt>
      <trkpt lat="43.75468" lon="3.50325">
        <ele>757</ele>
        <time>2015-10-25T08:51:34Z</time>
      </trkpt>
      <trkpt lat="43.75466" lon="3.50325">
        <ele>756.5</ele>
        <time>2015-10-25T08:51:35Z</time>
      </trkpt>
      <trkpt lat="43.75464" lon="3.50325">
        <ele>756.5</ele>
        <time>2015-10-25T08:51:36Z</time>
      </trkpt>
      <trkpt lat="43.75461" lon="3.50326">
        <ele>756</ele>
        <time>2015-10-25T08:51:37Z</time>
      </trkpt>
      <trkpt lat="43.7546" lon="3.50327">
        <ele>756.5</ele>
        <time>2015-10-25T08:51:38Z</time>
      </trkpt>
      <trkpt lat="43.75459" lon="3.50327">
        <ele>757</ele>
        <time>2015-10-25T08:51:39Z</time>
      </trkpt>
      <trkpt lat="43.75458" lon="3.50328">
        <ele>754.5</ele>
        <time>2015-10-25T08:51:44Z</time>
      </trkpt>
      <trkpt lat="43.75455" lon="3.5033">
        <ele>757</ele>
        <time>2015-10-25T08:51:46Z</time>
      </trkpt>
      <trkpt lat="43.75454" lon="3.50332">
        <ele>758</ele>
        <time>2015-10-25T08:51:47Z</time>
      </trkpt>
      <trkpt lat="43.75452" lon="3.50335">
        <ele>759.5</ele>
        <time>2015-10-25T08:51:48Z</time>
      </trkpt>
      <trkpt lat="43.75452" lon="3.50338">
        <ele>762</ele>
        <time>2015-10-25T08:51:49Z</time>
      </trkpt>
      <trkpt lat="43.75451" lon="3.5034">
        <ele>760</ele>
        <time>2015-10-25T08:51:50Z</time>
      </trkpt>
      <trkpt lat="43.75449" lon="3.50344">
        <ele>759</ele>
        <time>2015-10-25T08:51:51Z</time>
      </trkpt>
      <trkpt lat="43.75449" lon="3.50347">
        <ele>759</ele>
        <time>2015-10-25T08:51:52Z</time>
      </trkpt>
      <trkpt lat="43.75447" lon="3.50351">
        <ele>760.5</ele>
        <time>2015-10-25T08:51:53Z</time>
      </trkpt>
      <trkpt lat="43.75445" lon="3.50353">
        <ele>760.5</ele>
        <time>2015-10-25T08:51:54Z</time>
      </trkpt>
      <trkpt lat="43.75443" lon="3.50354">
        <ele>761.5</ele>
        <time>2015-10-25T08:51:55Z</time>
      </trkpt>
      <trkpt lat="43.75441" lon="3.50355">
        <ele>763</ele>
        <time>2015-10-25T08:51:56Z</time>
      </trkpt>
      <trkpt lat="43.7544" lon="3.50357">
        <ele>765</ele>
        <time>2015-10-25T08:51:57Z</time>
      </trkpt>
      <trkpt lat="43.75439" lon="3.50361">
        <ele>767</ele>
        <time>2015-10-25T08:51:58Z</time>
      </trkpt>
      <trkpt lat="43.75433" lon="3.50368">
        <ele>768.5</ele>
        <time>2015-10-25T08:52:00Z</time>
      </trkpt>
      <trkpt lat="43.75431" lon="3.50372">
        <ele>768.5</ele>
        <time>2015-10-25T08:52:01Z</time>
      </trkpt>
      <trkpt lat="43.75429" lon="3.50376">
        <ele>769</ele>
        <time>2015-10-25T08:52:02Z</time>
      </trkpt>
      <trkpt lat="43.75428" lon="3.5038">
        <ele>770</ele>
        <time>2015-10-25T08:52:03Z</time>
      </trkpt>
      <trkpt lat="43.75424" lon="3.50384">
        <ele>769</ele>
        <time>2015-10-25T08:52:04Z</time>
      </trkpt>
      <trkpt lat="43.75422" lon="3.50388">
        <ele>768.5</ele>
        <time>2015-10-25T08:52:05Z</time>
      </trkpt>
      <trkpt lat="43.75419" lon="3.50393">
        <ele>768</ele>
        <time>2015-10-25T08:52:06Z</time>
      </trkpt>
      <trkpt lat="43.75415" lon="3.50399">
        <ele>767.5</ele>
        <time>2015-10-25T08:52:07Z</time>
      </trkpt>
      <trkpt lat="43.75412" lon="3.50405">
        <ele>767.5</ele>
        <time>2015-10-25T08:52:08Z</time>
      </trkpt>
      <trkpt lat="43.75408" lon="3.50412">
        <ele>766.5</ele>
        <time>2015-10-25T08:52:09Z</time>
      </trkpt>
      <trkpt lat="43.75405" lon="3.50419">
        <ele>766</ele>
        <time>2015-10-25T08:52:10Z</time>
      </trkpt>
      <trkpt lat="43.75401" lon="3.50427">
        <ele>765.5</ele>
        <time>2015-10-25T08:52:11Z</time>
      </trkpt>
      <trkpt lat="43.75397" lon="3.50432">
        <ele>764</ele>
        <time>2015-10-25T08:52:12Z</time>
      </trkpt>
      <trkpt lat="43.75395" lon="3.50437">
        <ele>765</ele>
        <time>2015-10-25T08:52:13Z</time>
      </trkpt>
      <trkpt lat="43.75393" lon="3.50442">
        <ele>764.5</ele>
        <time>2015-10-25T08:52:14Z</time>
      </trkpt>
      <trkpt lat="43.75391" lon="3.50447">
        <ele>765</ele>
        <time>2015-10-25T08:52:15Z</time>
      </trkpt>
      <trkpt lat="43.75388" lon="3.50451">
        <ele>765</ele>
        <time>2015-10-25T08:52:16Z</time>
      </trkpt>
      <trkpt lat="43.75386" lon="3.50454">
        <ele>764</ele>
        <time>2015-10-25T08:52:17Z</time>
      </trkpt>
      <trkpt lat="43.75385" lon="3.50458">
        <ele>765</ele>
        <time>2015-10-25T08:52:18Z</time>
      </trkpt>
      <trkpt lat="43.75383" lon="3.50463">
        <ele>764.5</ele>
        <time>2015-10-25T08:52:19Z</time>
      </trkpt>
      <trkpt lat="43.7538" lon="3.50468">
        <ele>763.5</ele>
        <time>2015-10-25T08:52:20Z</time>
      </trkpt>
      <trkpt lat="43.75379" lon="3.50473">
        <ele>762</ele>
        <time>2015-10-25T08:52:21Z</time>
      </trkpt>
      <trkpt lat="43.75377" lon="3.50478">
        <ele>761.5</ele>
        <time>2015-10-25T08:52:22Z</time>
      </trkpt>
      <trkpt lat="43.75377" lon="3.50482">
        <ele>760.5</ele>
        <time>2015-10-25T08:52:23Z</time>
      </trkpt>
      <trkpt lat="43.75376" lon="3.50487">
        <ele>760</ele>
        <time>2015-10-25T08:52:24Z</time>
      </trkpt>
      <trkpt lat="43.75375" lon="3.50491">
        <ele>759.5</ele>
        <time>2015-10-25T08:52:25Z</time>
      </trkpt>
      <trkpt lat="43.75372" lon="3.50495">
        <ele>761</ele>
        <time>2015-10-25T08:52:26Z</time>
      </trkpt>
      <trkpt lat="43.75369" lon="3.50499">
        <ele>762</ele>
        <time>2015-10-25T08:52:27Z</time>
      </trkpt>
      <trkpt lat="43.75367" lon="3.50513">
        <ele>763</ele>
        <time>2015-10-25T08:52:29Z</time>
      </trkpt>
      <trkpt lat="43.75365" lon="3.50521">
        <ele>762</ele>
        <time>2015-10-25T08:52:30Z</time>
      </trkpt>
      <trkpt lat="43.75364" lon="3.50528">
        <ele>761</ele>
        <time>2015-10-25T08:52:31Z</time>
      </trkpt>
      <trkpt lat="43.75363" lon="3.50535">
        <ele>760</ele>
        <time>2015-10-25T08:52:32Z</time>
      </trkpt>
      <trkpt lat="43.75361" lon="3.50543">
        <ele>759</ele>
        <time>2015-10-25T08:52:33Z</time>
      </trkpt>
      <trkpt lat="43.75359" lon="3.5055">
        <ele>758.5</ele>
        <time>2015-10-25T08:52:34Z</time>
      </trkpt>
      <trkpt lat="43.75357" lon="3.50556">
        <ele>758</ele>
        <time>2015-10-25T08:52:35Z</time>
      </trkpt>
      <trkpt lat="43.75356" lon="3.50562">
        <ele>757.5</ele>
        <time>2015-10-25T08:52:36Z</time>
      </trkpt>
      <trkpt lat="43.75352" lon="3.50566">
        <ele>755.5</ele>
        <time>2015-10-25T08:52:37Z</time>
      </trkpt>
      <trkpt lat="43.7535" lon="3.5057">
        <ele>754.5</ele>
        <time>2015-10-25T08:52:38Z</time>
      </trkpt>
      <trkpt lat="43.75348" lon="3.50575">
        <ele>754</ele>
        <time>2015-10-25T08:52:39Z</time>
      </trkpt>
      <trkpt lat="43.75346" lon="3.50579">
        <ele>753.5</ele>
        <time>2015-10-25T08:52:40Z</time>
      </trkpt>
      <trkpt lat="43.75345" lon="3.50583">
        <ele>752.5</ele>
        <time>2015-10-25T08:52:41Z</time>
      </trkpt>
      <trkpt lat="43.75344" lon="3.50587">
        <ele>752.5</ele>
        <time>2015-10-25T08:52:42Z</time>
      </trkpt>
      <trkpt lat="43.75343" lon="3.50592">
        <ele>752</ele>
        <time>2015-10-25T08:52:43Z</time>
      </trkpt>
      <trkpt lat="43.75341" lon="3.50596">
        <ele>751.5</ele>
        <time>2015-10-25T08:52:44Z</time>
      </trkpt>
      <trkpt lat="43.7534" lon="3.50602">
        <ele>751.5</ele>
        <time>2015-10-25T08:52:45Z</time>
      </trkpt>
      <trkpt lat="43.75339" lon="3.50607">
        <ele>751</ele>
        <time>2015-10-25T08:52:46Z</time>
      </trkpt>
      <trkpt lat="43.75338" lon="3.50612">
        <ele>751</ele>
        <time>2015-10-25T08:52:47Z</time>
      </trkpt>
      <trkpt lat="43.75337" lon="3.50618">
        <ele>750.5</ele>
        <time>2015-10-25T08:52:48Z</time>
      </trkpt>
      <trkpt lat="43.75336" lon="3.50623">
        <ele>750.5</ele>
        <time>2015-10-25T08:52:49Z</time>
      </trkpt>
      <trkpt lat="43.75333" lon="3.50629">
        <ele>750</ele>
        <time>2015-10-25T08:52:50Z</time>
      </trkpt>
      <trkpt lat="43.75331" lon="3.50636">
        <ele>749.5</ele>
        <time>2015-10-25T08:52:51Z</time>
      </trkpt>
      <trkpt lat="43.75328" lon="3.50643">
        <ele>749.5</ele>
        <time>2015-10-25T08:52:52Z</time>
      </trkpt>
      <trkpt lat="43.75325" lon="3.50649">
        <ele>749</ele>
        <time>2015-10-25T08:52:53Z</time>
      </trkpt>
      <trkpt lat="43.75322" lon="3.50656">
        <ele>748.5</ele>
        <time>2015-10-25T08:52:54Z</time>
      </trkpt>
      <trkpt lat="43.75319" lon="3.50661">
        <ele>747.5</ele>
        <time>2015-10-25T08:52:55Z</time>
      </trkpt>
      <trkpt lat="43.75316" lon="3.50666">
        <ele>747</ele>
        <time>2015-10-25T08:52:56Z</time>
      </trkpt>
      <trkpt lat="43.75314" lon="3.5067">
        <ele>746.5</ele>
        <time>2015-10-25T08:52:57Z</time>
      </trkpt>
      <trkpt lat="43.75313" lon="3.50674">
        <ele>745.5</ele>
        <time>2015-10-25T08:52:58Z</time>
      </trkpt>
      <trkpt lat="43.75312" lon="3.50678">
        <ele>744.5</ele>
        <time>2015-10-25T08:52:59Z</time>
      </trkpt>
      <trkpt lat="43.75312" lon="3.50682">
        <ele>743.5</ele>
        <time>2015-10-25T08:53:00Z</time>
      </trkpt>
      <trkpt lat="43.75312" lon="3.50685">
        <ele>742.5</ele>
        <time>2015-10-25T08:53:00Z</time>
      </trkpt>
      <trkpt lat="43.75312" lon="3.50686">
        <ele>742</ele>
        <time>2015-10-25T08:53:02Z</time>
      </trkpt>
      <trkpt lat="43.75311" lon="3.50688">
        <ele>741</ele>
        <time>2015-10-25T08:53:02Z</time>
      </trkpt>
      <trkpt lat="43.75311" lon="3.50688">
        <ele>740</ele>
        <time>2015-10-25T08:53:08Z</time>
      </trkpt>
      <trkpt lat="43.75309" lon="3.50689">
        <ele>737.5</ele>
        <time>2015-10-25T08:53:33Z</time>
      </trkpt>
      <trkpt lat="43.75307" lon="3.50691">
        <ele>736</ele>
        <time>2015-10-25T08:53:35Z</time>
      </trkpt>
      <trkpt lat="43.75307" lon="3.50691">
        <ele>735.5</ele>
        <time>2015-10-25T08:53:36Z</time>
      </trkpt>
      <trkpt lat="43.75307" lon="3.50692">
        <ele>735.5</ele>
        <time>2015-10-25T08:53:37Z</time>
      </trkpt>
      <trkpt lat="43.75307" lon="3.50693">
        <ele>735.5</ele>
        <time>2015-10-25T08:53:38Z</time>
      </trkpt>
      <trkpt lat="43.75306" lon="3.50694">
        <ele>735.5</ele>
        <time>2015-10-25T08:53:39Z</time>
      </trkpt>
      <trkpt lat="43.75306" lon="3.50694">
        <ele>735.5</ele>
        <time>2015-10-25T08:53:41Z</time>
      </trkpt>
      <trkpt lat="43.75306" lon="3.50695">
        <ele>735</ele>
        <time>2015-10-25T08:53:41Z</time>
      </trkpt>
      <trkpt lat="43.75306" lon="3.50695">
        <ele>735</ele>
        <time>2015-10-25T08:53:42Z</time>
      </trkpt>
      <trkpt lat="43.75306" lon="3.50697">
        <ele>734</ele>
        <time>2015-10-25T08:53:45Z</time>
      </trkpt>
      <trkpt lat="43.75305" lon="3.50699">
        <ele>732.5</ele>
        <time>2015-10-25T08:54:04Z</time>
      </trkpt>
      <trkpt lat="43.75305" lon="3.507">
        <ele>731</ele>
        <time>2015-10-25T08:54:06Z</time>
      </trkpt>
      <trkpt lat="43.75305" lon="3.50701">
        <ele>730.5</ele>
        <time>2015-10-25T08:54:07Z</time>
      </trkpt>
      <trkpt lat="43.75305" lon="3.50701">
        <ele>730</ele>
        <time>2015-10-25T08:54:09Z</time>
      </trkpt>
      <trkpt lat="43.75305" lon="3.50702">
        <ele>729.5</ele>
        <time>2015-10-25T08:54:15Z</time>
      </trkpt>
      <trkpt lat="43.75306" lon="3.50704">
        <ele>730</ele>
        <time>2015-10-25T08:54:19Z</time>
      </trkpt>
      <trkpt lat="43.75306" lon="3.50705">
        <ele>729.5</ele>
        <time>2015-10-25T08:54:21Z</time>
      </trkpt>
      <trkpt lat="43.75306" lon="3.50706">
        <ele>729.5</ele>
        <time>2015-10-25T08:54:22Z</time>
      </trkpt>
      <trkpt lat="43.75306" lon="3.50706">
        <ele>730</ele>
        <time>2015-10-25T08:54:23Z</time>
      </trkpt>
      <trkpt lat="43.75306" lon="3.50707">
        <ele>729.5</ele>
        <time>2015-10-25T08:54:25Z</time>
      </trkpt>
      <trkpt lat="43.75306" lon="3.50708">
        <ele>730</ele>
        <time>2015-10-25T08:54:25Z</time>
      </trkpt>
      <trkpt lat="43.75305" lon="3.50709">
        <ele>730</ele>
        <time>2015-10-25T08:54:26Z</time>
      </trkpt>
      <trkpt lat="43.75305" lon="3.5071">
        <ele>729.5</ele>
        <time>2015-10-25T08:54:28Z</time>
      </trkpt>
      <trkpt lat="43.75304" lon="3.50711">
        <ele>729.5</ele>
        <time>2015-10-25T08:54:28Z</time>
      </trkpt>
      <trkpt lat="43.75304" lon="3.50712">
        <ele>729.5</ele>
        <time>2015-10-25T08:54:29Z</time>
      </trkpt>
      <trkpt lat="43.75304" lon="3.50713">
        <ele>729.5</ele>
        <time>2015-10-25T08:54:30Z</time>
      </trkpt>
      <trkpt lat="43.75304" lon="3.50714">
        <ele>729.5</ele>
        <time>2015-10-25T08:54:31Z</time>
      </trkpt>
      <trkpt lat="43.75303" lon="3.50714">
        <ele>729.5</ele>
        <time>2015-10-25T08:54:32Z</time>
      </trkpt>
      <trkpt lat="43.75303" lon="3.50715">
        <ele>729.5</ele>
        <time>2015-10-25T08:54:33Z</time>
      </trkpt>
      <trkpt lat="43.75303" lon="3.50716">
        <ele>729.5</ele>
        <time>2015-10-25T08:54:34Z</time>
      </trkpt>
      <trkpt lat="43.75303" lon="3.50717">
        <ele>729</ele>
        <time>2015-10-25T08:54:35Z</time>
      </trkpt>
      <trkpt lat="43.75303" lon="3.50718">
        <ele>729</ele>
        <time>2015-10-25T08:54:36Z</time>
      </trkpt>
      <trkpt lat="43.75303" lon="3.50719">
        <ele>728.5</ele>
        <time>2015-10-25T08:54:37Z</time>
      </trkpt>
      <trkpt lat="43.75303" lon="3.50719">
        <ele>728.5</ele>
        <time>2015-10-25T08:54:38Z</time>
      </trkpt>
      <trkpt lat="43.75303" lon="3.5072">
        <ele>728</ele>
        <time>2015-10-25T08:54:40Z</time>
      </trkpt>
      <trkpt lat="43.75303" lon="3.50721">
        <ele>727.5</ele>
        <time>2015-10-25T08:54:42Z</time>
      </trkpt>
      <trkpt lat="43.75301" lon="3.50723">
        <ele>725</ele>
        <time>2015-10-25T08:55:01Z</time>
      </trkpt>
      <trkpt lat="43.753" lon="3.50725">
        <ele>724.5</ele>
        <time>2015-10-25T08:55:03Z</time>
      </trkpt>
      <trkpt lat="43.753" lon="3.50725">
        <ele>724.5</ele>
        <time>2015-10-25T08:55:04Z</time>
      </trkpt>
      <trkpt lat="43.753" lon="3.50726">
        <ele>724</ele>
        <time>2015-10-25T08:55:07Z</time>
      </trkpt>
      <trkpt lat="43.753" lon="3.50729">
        <ele>723.5</ele>
        <time>2015-10-25T08:55:10Z</time>
      </trkpt>
      <trkpt lat="43.75302" lon="3.50735">
        <ele>723.5</ele>
        <time>2015-10-25T08:55:12Z</time>
      </trkpt>
      <trkpt lat="43.75303" lon="3.50739">
        <ele>723.5</ele>
        <time>2015-10-25T08:55:13Z</time>
      </trkpt>
      <trkpt lat="43.75303" lon="3.50743">
        <ele>723</ele>
        <time>2015-10-25T08:55:14Z</time>
      </trkpt>
      <trkpt lat="43.75304" lon="3.50749">
        <ele>722.5</ele>
        <time>2015-10-25T08:55:15Z</time>
      </trkpt>
      <trkpt lat="43.75304" lon="3.50755">
        <ele>721.5</ele>
        <time>2015-10-25T08:55:16Z</time>
      </trkpt>
      <trkpt lat="43.75304" lon="3.50763">
        <ele>720.5</ele>
        <time>2015-10-25T08:55:17Z</time>
      </trkpt>
      <trkpt lat="43.75304" lon="3.5077">
        <ele>720</ele>
        <time>2015-10-25T08:55:18Z</time>
      </trkpt>
      <trkpt lat="43.75304" lon="3.50778">
        <ele>719</ele>
        <time>2015-10-25T08:55:19Z</time>
      </trkpt>
      <trkpt lat="43.75304" lon="3.50786">
        <ele>718</ele>
        <time>2015-10-25T08:55:20Z</time>
      </trkpt>
      <trkpt lat="43.75303" lon="3.50793">
        <ele>716.5</ele>
        <time>2015-10-25T08:55:21Z</time>
      </trkpt>
      <trkpt lat="43.75301" lon="3.50801">
        <ele>715.5</ele>
        <time>2015-10-25T08:55:22Z</time>
      </trkpt>
      <trkpt lat="43.753" lon="3.50809">
        <ele>714</ele>
        <time>2015-10-25T08:55:24Z</time>
      </trkpt>
      <trkpt lat="43.75299" lon="3.50816">
        <ele>713</ele>
        <time>2015-10-25T08:55:24Z</time>
      </trkpt>
      <trkpt lat="43.75297" lon="3.50822">
        <ele>712</ele>
        <time>2015-10-25T08:55:25Z</time>
      </trkpt>
      <trkpt lat="43.75295" lon="3.50827">
        <ele>711</ele>
        <time>2015-10-25T08:55:26Z</time>
      </trkpt>
      <trkpt lat="43.75294" lon="3.50832">
        <ele>710</ele>
        <time>2015-10-25T08:55:27Z</time>
      </trkpt>
      <trkpt lat="43.75293" lon="3.50837">
        <ele>708.5</ele>
        <time>2015-10-25T08:55:28Z</time>
      </trkpt>
      <trkpt lat="43.75292" lon="3.50842">
        <ele>707.5</ele>
        <time>2015-10-25T08:55:29Z</time>
      </trkpt>
      <trkpt lat="43.7529" lon="3.50847">
        <ele>707.5</ele>
        <time>2015-10-25T08:55:30Z</time>
      </trkpt>
      <trkpt lat="43.75287" lon="3.5085">
        <ele>707</ele>
        <time>2015-10-25T08:55:31Z</time>
      </trkpt>
      <trkpt lat="43.75285" lon="3.50853">
        <ele>707</ele>
        <time>2015-10-25T08:55:32Z</time>
      </trkpt>
      <trkpt lat="43.75284" lon="3.50857">
        <ele>707</ele>
        <time>2015-10-25T08:55:33Z</time>
      </trkpt>
      <trkpt lat="43.75283" lon="3.50862">
        <ele>706.5</ele>
        <time>2015-10-25T08:55:34Z</time>
      </trkpt>
      <trkpt lat="43.7528" lon="3.50867">
        <ele>706</ele>
        <time>2015-10-25T08:55:35Z</time>
      </trkpt>
      <trkpt lat="43.75274" lon="3.50873">
        <ele>704</ele>
        <time>2015-10-25T08:55:36Z</time>
      </trkpt>
      <trkpt lat="43.75269" lon="3.50878">
        <ele>703</ele>
        <time>2015-10-25T08:55:37Z</time>
      </trkpt>
      <trkpt lat="43.75263" lon="3.50884">
        <ele>702.5</ele>
        <time>2015-10-25T08:55:38Z</time>
      </trkpt>
      <trkpt lat="43.75256" lon="3.50889">
        <ele>700.5</ele>
        <time>2015-10-25T08:55:39Z</time>
      </trkpt>
      <trkpt lat="43.7525" lon="3.50895">
        <ele>699.5</ele>
        <time>2015-10-25T08:55:40Z</time>
      </trkpt>
      <trkpt lat="43.75243" lon="3.50901">
        <ele>698.5</ele>
        <time>2015-10-25T08:55:41Z</time>
      </trkpt>
      <trkpt lat="43.75237" lon="3.50908">
        <ele>696.5</ele>
        <time>2015-10-25T08:55:42Z</time>
      </trkpt>
      <trkpt lat="43.75231" lon="3.50913">
        <ele>695.5</ele>
        <time>2015-10-25T08:55:43Z</time>
      </trkpt>
      <trkpt lat="43.75225" lon="3.50917">
        <ele>694</ele>
        <time>2015-10-25T08:55:44Z</time>
      </trkpt>
      <trkpt lat="43.75219" lon="3.50921">
        <ele>693</ele>
        <time>2015-10-25T08:55:45Z</time>
      </trkpt>
      <trkpt lat="43.75212" lon="3.50925">
        <ele>692</ele>
        <time>2015-10-25T08:55:46Z</time>
      </trkpt>
      <trkpt lat="43.75206" lon="3.50928">
        <ele>690.5</ele>
        <time>2015-10-25T08:55:47Z</time>
      </trkpt>
      <trkpt lat="43.752" lon="3.50929">
        <ele>689.5</ele>
        <time>2015-10-25T08:55:48Z</time>
      </trkpt>
      <trkpt lat="43.75194" lon="3.5093">
        <ele>688.5</ele>
        <time>2015-10-25T08:55:49Z</time>
      </trkpt>
      <trkpt lat="43.75187" lon="3.5093">
        <ele>688</ele>
        <time>2015-10-25T08:55:50Z</time>
      </trkpt>
      <trkpt lat="43.75182" lon="3.50927">
        <ele>687.5</ele>
        <time>2015-10-25T08:55:51Z</time>
      </trkpt>
      <trkpt lat="43.75178" lon="3.50924">
        <ele>687.5</ele>
        <time>2015-10-25T08:55:52Z</time>
      </trkpt>
      <trkpt lat="43.75174" lon="3.5092">
        <ele>686.5</ele>
        <time>2015-10-25T08:55:53Z</time>
      </trkpt>
      <trkpt lat="43.75171" lon="3.50918">
        <ele>685.5</ele>
        <time>2015-10-25T08:55:54Z</time>
      </trkpt>
      <trkpt lat="43.75166" lon="3.50916">
        <ele>685</ele>
        <time>2015-10-25T08:55:55Z</time>
      </trkpt>
      <trkpt lat="43.75162" lon="3.50915">
        <ele>685</ele>
        <time>2015-10-25T08:55:56Z</time>
      </trkpt>
      <trkpt lat="43.75158" lon="3.50913">
        <ele>684.5</ele>
        <time>2015-10-25T08:55:57Z</time>
      </trkpt>
      <trkpt lat="43.75154" lon="3.50913">
        <ele>684</ele>
        <time>2015-10-25T08:55:58Z</time>
      </trkpt>
      <trkpt lat="43.7515" lon="3.50912">
        <ele>683.5</ele>
        <time>2015-10-25T08:55:59Z</time>
      </trkpt>
      <trkpt lat="43.75146" lon="3.5091">
        <ele>683.5</ele>
        <time>2015-10-25T08:56:00Z</time>
      </trkpt>
      <trkpt lat="43.75142" lon="3.50906">
        <ele>682.5</ele>
        <time>2015-10-25T08:56:01Z</time>
      </trkpt>
      <trkpt lat="43.7514" lon="3.50902">
        <ele>681.5</ele>
        <time>2015-10-25T08:56:02Z</time>
      </trkpt>
      <trkpt lat="43.75137" lon="3.50899">
        <ele>682</ele>
        <time>2015-10-25T08:56:03Z</time>
      </trkpt>
      <trkpt lat="43.75135" lon="3.50898">
        <ele>682.5</ele>
        <time>2015-10-25T08:56:04Z</time>
      </trkpt>
      <trkpt lat="43.75132" lon="3.50897">
        <ele>683</ele>
        <time>2015-10-25T08:56:05Z</time>
      </trkpt>
      <trkpt lat="43.7513" lon="3.50896">
        <ele>682.5</ele>
        <time>2015-10-25T08:56:06Z</time>
      </trkpt>
      <trkpt lat="43.75127" lon="3.50894">
        <ele>681.5</ele>
        <time>2015-10-25T08:56:07Z</time>
      </trkpt>
      <trkpt lat="43.75124" lon="3.50892">
        <ele>680.5</ele>
        <time>2015-10-25T08:56:08Z</time>
      </trkpt>
      <trkpt lat="43.75122" lon="3.5089">
        <ele>680</ele>
        <time>2015-10-25T08:56:09Z</time>
      </trkpt>
      <trkpt lat="43.7512" lon="3.50889">
        <ele>680</ele>
        <time>2015-10-25T08:56:10Z</time>
      </trkpt>
      <trkpt lat="43.75118" lon="3.50888">
        <ele>680</ele>
        <time>2015-10-25T08:56:11Z</time>
      </trkpt>
      <trkpt lat="43.75117" lon="3.50886">
        <ele>678.5</ele>
        <time>2015-10-25T08:56:12Z</time>
      </trkpt>
      <trkpt lat="43.75115" lon="3.50889">
        <ele>681</ele>
        <time>2015-10-25T08:56:00Z</time>
      </trkpt>
      <trkpt lat="43.75113" lon="3.50887">
        <ele>681</ele>
        <time>2015-10-25T08:56:01Z</time>
      </trkpt>
      <trkpt lat="43.75111" lon="3.50886">
        <ele>679.5</ele>
        <time>2015-10-25T08:56:02Z</time>
      </trkpt>
      <trkpt lat="43.75109" lon="3.50884">
        <ele>679</ele>
        <time>2015-10-25T08:56:04Z</time>
      </trkpt>
      <trkpt lat="43.75106" lon="3.50882">
        <ele>678.5</ele>
        <time>2015-10-25T08:56:04Z</time>
      </trkpt>
      <trkpt lat="43.75103" lon="3.5088">
        <ele>677</ele>
        <time>2015-10-25T08:56:05Z</time>
      </trkpt>
      <trkpt lat="43.751" lon="3.50878">
        <ele>677.5</ele>
        <time>2015-10-25T08:56:06Z</time>
      </trkpt>
      <trkpt lat="43.75096" lon="3.50875">
        <ele>678.5</ele>
        <time>2015-10-25T08:56:07Z</time>
      </trkpt>
      <trkpt lat="43.75092" lon="3.50873">
        <ele>678.5</ele>
        <time>2015-10-25T08:56:08Z</time>
      </trkpt>
      <trkpt lat="43.75088" lon="3.5087">
        <ele>678</ele>
        <time>2015-10-25T08:56:09Z</time>
      </trkpt>
      <trkpt lat="43.75085" lon="3.50868">
        <ele>678</ele>
        <time>2015-10-25T08:56:10Z</time>
      </trkpt>
      <trkpt lat="43.75082" lon="3.50865">
        <ele>678.5</ele>
        <time>2015-10-25T08:56:11Z</time>
      </trkpt>
      <trkpt lat="43.75079" lon="3.50863">
        <ele>678.5</ele>
        <time>2015-10-25T08:56:12Z</time>
      </trkpt>
      <trkpt lat="43.75076" lon="3.5086">
        <ele>679</ele>
        <time>2015-10-25T08:56:13Z</time>
      </trkpt>
      <trkpt lat="43.75072" lon="3.50858">
        <ele>679</ele>
        <time>2015-10-25T08:56:14Z</time>
      </trkpt>
      <trkpt lat="43.75069" lon="3.50856">
        <ele>678.5</ele>
        <time>2015-10-25T08:56:15Z</time>
      </trkpt>
      <trkpt lat="43.75066" lon="3.50853">
        <ele>679.5</ele>
        <time>2015-10-25T08:56:16Z</time>
      </trkpt>
      <trkpt lat="43.75063" lon="3.50851">
        <ele>678.5</ele>
        <time>2015-10-25T08:56:17Z</time>
      </trkpt>
      <trkpt lat="43.7506" lon="3.50849">
        <ele>679.5</ele>
        <time>2015-10-25T08:56:18Z</time>
      </trkpt>
      <trkpt lat="43.75057" lon="3.50846">
        <ele>679.5</ele>
        <time>2015-10-25T08:56:19Z</time>
      </trkpt>
      <trkpt lat="43.75054" lon="3.50844">
        <ele>679.5</ele>
        <time>2015-10-25T08:56:20Z</time>
      </trkpt>
      <trkpt lat="43.7505" lon="3.50841">
        <ele>678.5</ele>
        <time>2015-10-25T08:56:21Z</time>
      </trkpt>
      <trkpt lat="43.75045" lon="3.50837">
        <ele>677.5</ele>
        <time>2015-10-25T08:56:22Z</time>
      </trkpt>
      <trkpt lat="43.75041" lon="3.50835">
        <ele>678</ele>
        <time>2015-10-25T08:56:23Z</time>
      </trkpt>
      <trkpt lat="43.75038" lon="3.50832">
        <ele>678.5</ele>
        <time>2015-10-25T08:56:24Z</time>
      </trkpt>
      <trkpt lat="43.75034" lon="3.50829">
        <ele>679</ele>
        <time>2015-10-25T08:56:25Z</time>
      </trkpt>
      <trkpt lat="43.75031" lon="3.50827">
        <ele>678.5</ele>
        <time>2015-10-25T08:56:26Z</time>
      </trkpt>
      <trkpt lat="43.75027" lon="3.50824">
        <ele>678</ele>
        <time>2015-10-25T08:56:27Z</time>
      </trkpt>
      <trkpt lat="43.75022" lon="3.50821">
        <ele>678.5</ele>
        <time>2015-10-25T08:56:28Z</time>
      </trkpt>
      <trkpt lat="43.75019" lon="3.50817">
        <ele>678</ele>
        <time>2015-10-25T08:56:29Z</time>
      </trkpt>
      <trkpt lat="43.75016" lon="3.50814">
        <ele>677</ele>
        <time>2015-10-25T08:56:31Z</time>
      </trkpt>
      <trkpt lat="43.75013" lon="3.5081">
        <ele>676</ele>
        <time>2015-10-25T08:56:31Z</time>
      </trkpt>
      <trkpt lat="43.75009" lon="3.50808">
        <ele>675.5</ele>
        <time>2015-10-25T08:56:32Z</time>
      </trkpt>
      <trkpt lat="43.75005" lon="3.50804">
        <ele>674.5</ele>
        <time>2015-10-25T08:56:33Z</time>
      </trkpt>
      <trkpt lat="43.75" lon="3.50803">
        <ele>676</ele>
        <time>2015-10-25T08:56:34Z</time>
      </trkpt>
      <trkpt lat="43.74995" lon="3.50801">
        <ele>676.5</ele>
        <time>2015-10-25T08:56:35Z</time>
      </trkpt>
      <trkpt lat="43.74991" lon="3.50796">
        <ele>676.5</ele>
        <time>2015-10-25T08:56:36Z</time>
      </trkpt>
      <trkpt lat="43.74987" lon="3.50795">
        <ele>677.5</ele>
        <time>2015-10-25T08:56:37Z</time>
      </trkpt>
      <trkpt lat="43.74983" lon="3.50791">
        <ele>677</ele>
        <time>2015-10-25T08:56:38Z</time>
      </trkpt>
      <trkpt lat="43.74979" lon="3.50788">
        <ele>676.5</ele>
        <time>2015-10-25T08:56:39Z</time>
      </trkpt>
      <trkpt lat="43.74976" lon="3.50784">
        <ele>675</ele>
        <time>2015-10-25T08:56:40Z</time>
      </trkpt>
      <trkpt lat="43.74972" lon="3.50782">
        <ele>675</ele>
        <time>2015-10-25T08:56:41Z</time>
      </trkpt>
      <trkpt lat="43.74968" lon="3.50779">
        <ele>674.5</ele>
        <time>2015-10-25T08:56:42Z</time>
      </trkpt>
      <trkpt lat="43.74965" lon="3.50776">
        <ele>674.5</ele>
        <time>2015-10-25T08:56:43Z</time>
      </trkpt>
      <trkpt lat="43.74962" lon="3.50772">
        <ele>673.5</ele>
        <time>2015-10-25T08:56:44Z</time>
      </trkpt>
      <trkpt lat="43.74958" lon="3.50769">
        <ele>672.5</ele>
        <time>2015-10-25T08:56:45Z</time>
      </trkpt>
      <trkpt lat="43.74954" lon="3.50766">
        <ele>670.5</ele>
        <time>2015-10-25T08:56:46Z</time>
      </trkpt>
      <trkpt lat="43.7495" lon="3.50763">
        <ele>670</ele>
        <time>2015-10-25T08:56:47Z</time>
      </trkpt>
      <trkpt lat="43.74945" lon="3.50758">
        <ele>669.5</ele>
        <time>2015-10-25T08:56:48Z</time>
      </trkpt>
      <trkpt lat="43.74942" lon="3.50754">
        <ele>669</ele>
        <time>2015-10-25T08:56:49Z</time>
      </trkpt>
      <trkpt lat="43.74938" lon="3.5075">
        <ele>666.5</ele>
        <time>2015-10-25T08:56:50Z</time>
      </trkpt>
      <trkpt lat="43.74936" lon="3.50746">
        <ele>664.5</ele>
        <time>2015-10-25T08:56:51Z</time>
      </trkpt>
      <trkpt lat="43.74933" lon="3.50745">
        <ele>663</ele>
        <time>2015-10-25T08:56:52Z</time>
      </trkpt>
      <trkpt lat="43.74933" lon="3.50744">
        <ele>662</ele>
        <time>2015-10-25T08:56:53Z</time>
      </trkpt>
      <trkpt lat="43.74932" lon="3.50744">
        <ele>663</ele>
        <time>2015-10-25T08:56:54Z</time>
      </trkpt>
      <trkpt lat="43.74932" lon="3.50745">
        <ele>661</ele>
        <time>2015-10-25T08:56:56Z</time>
      </trkpt>
      <trkpt lat="43.74933" lon="3.50748">
        <ele>661</ele>
        <time>2015-10-25T08:56:58Z</time>
      </trkpt>
      <trkpt lat="43.74933" lon="3.5075">
        <ele>661</ele>
        <time>2015-10-25T08:56:59Z</time>
      </trkpt>
      <trkpt lat="43.74934" lon="3.50752">
        <ele>660.5</ele>
        <time>2015-10-25T08:57:00Z</time>
      </trkpt>
      <trkpt lat="43.74934" lon="3.50754">
        <ele>659.5</ele>
        <time>2015-10-25T08:57:01Z</time>
      </trkpt>
      <trkpt lat="43.74934" lon="3.50755">
        <ele>659</ele>
        <time>2015-10-25T08:57:02Z</time>
      </trkpt>
      <trkpt lat="43.74935" lon="3.50757">
        <ele>657.5</ele>
        <time>2015-10-25T08:57:03Z</time>
      </trkpt>
      <trkpt lat="43.74934" lon="3.50758">
        <ele>657</ele>
        <time>2015-10-25T08:57:04Z</time>
      </trkpt>
      <trkpt lat="43.74933" lon="3.50757">
        <ele>657</ele>
        <time>2015-10-25T08:57:05Z</time>
      </trkpt>
      <trkpt lat="43.74931" lon="3.50755">
        <ele>655</ele>
        <time>2015-10-25T08:57:06Z</time>
      </trkpt>
      <trkpt lat="43.74929" lon="3.50752">
        <ele>654.5</ele>
        <time>2015-10-25T08:57:07Z</time>
      </trkpt>
      <trkpt lat="43.74927" lon="3.5075">
        <ele>654.5</ele>
        <time>2015-10-25T08:57:08Z</time>
      </trkpt>
      <trkpt lat="43.74925" lon="3.50748">
        <ele>654</ele>
        <time>2015-10-25T08:57:09Z</time>
      </trkpt>
      <trkpt lat="43.7492" lon="3.50748">
        <ele>654</ele>
        <time>2015-10-25T08:57:10Z</time>
      </trkpt>
      <trkpt lat="43.74915" lon="3.50748">
        <ele>653</ele>
        <time>2015-10-25T08:57:11Z</time>
      </trkpt>
      <trkpt lat="43.7491" lon="3.50746">
        <ele>652</ele>
        <time>2015-10-25T08:57:12Z</time>
      </trkpt>
      <trkpt lat="43.74905" lon="3.50745">
        <ele>650</ele>
        <time>2015-10-25T08:57:13Z</time>
      </trkpt>
      <trkpt lat="43.74899" lon="3.50745">
        <ele>648.5</ele>
        <time>2015-10-25T08:57:14Z</time>
      </trkpt>
      <trkpt lat="43.74894" lon="3.50744">
        <ele>646.5</ele>
        <time>2015-10-25T08:57:15Z</time>
      </trkpt>
      <trkpt lat="43.74889" lon="3.50743">
        <ele>644</ele>
        <time>2015-10-25T08:57:16Z</time>
      </trkpt>
      <trkpt lat="43.74885" lon="3.50741">
        <ele>643</ele>
        <time>2015-10-25T08:57:17Z</time>
      </trkpt>
      <trkpt lat="43.74881" lon="3.50741">
        <ele>643</ele>
        <time>2015-10-25T08:57:18Z</time>
      </trkpt>
      <trkpt lat="43.74877" lon="3.50739">
        <ele>642.5</ele>
        <time>2015-10-25T08:57:19Z</time>
      </trkpt>
      <trkpt lat="43.74873" lon="3.50737">
        <ele>641.5</ele>
        <time>2015-10-25T08:57:20Z</time>
      </trkpt>
      <trkpt lat="43.74869" lon="3.50736">
        <ele>641</ele>
        <time>2015-10-25T08:57:21Z</time>
      </trkpt>
      <trkpt lat="43.74865" lon="3.50735">
        <ele>641</ele>
        <time>2015-10-25T08:57:22Z</time>
      </trkpt>
      <trkpt lat="43.74862" lon="3.50733">
        <ele>639.5</ele>
        <time>2015-10-25T08:57:23Z</time>
      </trkpt>
      <trkpt lat="43.74859" lon="3.50731">
        <ele>638.5</ele>
        <time>2015-10-25T08:57:24Z</time>
      </trkpt>
      <trkpt lat="43.74857" lon="3.50729">
        <ele>638</ele>
        <time>2015-10-25T08:57:25Z</time>
      </trkpt>
      <trkpt lat="43.74855" lon="3.50726">
        <ele>636.5</ele>
        <time>2015-10-25T08:57:26Z</time>
      </trkpt>
      <trkpt lat="43.74854" lon="3.50725">
        <ele>635.5</ele>
        <time>2015-10-25T08:57:27Z</time>
      </trkpt>
      <trkpt lat="43.74852" lon="3.50726">
        <ele>636.5</ele>
        <time>2015-10-25T08:57:28Z</time>
      </trkpt>
      <trkpt lat="43.74853" lon="3.50728">
        <ele>638</ele>
        <time>2015-10-25T08:57:29Z</time>
      </trkpt>
      <trkpt lat="43.74853" lon="3.5073">
        <ele>638</ele>
        <time>2015-10-25T08:57:30Z</time>
      </trkpt>
      <trkpt lat="43.74854" lon="3.50732">
        <ele>637.5</ele>
        <time>2015-10-25T08:57:31Z</time>
      </trkpt>
      <trkpt lat="43.74856" lon="3.50735">
        <ele>638.5</ele>
        <time>2015-10-25T08:57:32Z</time>
      </trkpt>
      <trkpt lat="43.74858" lon="3.50738">
        <ele>636</ele>
        <time>2015-10-25T08:57:33Z</time>
      </trkpt>
      <trkpt lat="43.74863" lon="3.50749">
        <ele>634.5</ele>
        <time>2015-10-25T08:57:35Z</time>
      </trkpt>
      <trkpt lat="43.74865" lon="3.50753">
        <ele>632</ele>
        <time>2015-10-25T08:57:36Z</time>
      </trkpt>
      <trkpt lat="43.74867" lon="3.50755">
        <ele>629</ele>
        <time>2015-10-25T08:57:37Z</time>
      </trkpt>
      <trkpt lat="43.74869" lon="3.50757">
        <ele>627.5</ele>
        <time>2015-10-25T08:57:38Z</time>
      </trkpt>
      <trkpt lat="43.74869" lon="3.50759">
        <ele>628</ele>
        <time>2015-10-25T08:57:39Z</time>
      </trkpt>
      <trkpt lat="43.74868" lon="3.5076">
        <ele>628</ele>
        <time>2015-10-25T08:57:40Z</time>
      </trkpt>
      <trkpt lat="43.74865" lon="3.5076">
        <ele>629.5</ele>
        <time>2015-10-25T08:57:41Z</time>
      </trkpt>
      <trkpt lat="43.74863" lon="3.50758">
        <ele>629</ele>
        <time>2015-10-25T08:57:42Z</time>
      </trkpt>
      <trkpt lat="43.74859" lon="3.50756">
        <ele>628.5</ele>
        <time>2015-10-25T08:57:43Z</time>
      </trkpt>
      <trkpt lat="43.74853" lon="3.50755">
        <ele>629.5</ele>
        <time>2015-10-25T08:57:44Z</time>
      </trkpt>
      <trkpt lat="43.74848" lon="3.50752">
        <ele>628</ele>
        <time>2015-10-25T08:57:45Z</time>
      </trkpt>
      <trkpt lat="43.74844" lon="3.50749">
        <ele>627</ele>
        <time>2015-10-25T08:57:46Z</time>
      </trkpt>
      <trkpt lat="43.7484" lon="3.50747">
        <ele>627</ele>
        <time>2015-10-25T08:57:47Z</time>
      </trkpt>
      <trkpt lat="43.74836" lon="3.50745">
        <ele>626</ele>
        <time>2015-10-25T08:57:48Z</time>
      </trkpt>
      <trkpt lat="43.74832" lon="3.50743">
        <ele>625.5</ele>
        <time>2015-10-25T08:57:49Z</time>
      </trkpt>
      <trkpt lat="43.74829" lon="3.50739">
        <ele>625</ele>
        <time>2015-10-25T08:57:50Z</time>
      </trkpt>
      <trkpt lat="43.74825" lon="3.50736">
        <ele>624</ele>
        <time>2015-10-25T08:57:51Z</time>
      </trkpt>
      <trkpt lat="43.74818" lon="3.50728">
        <ele>622</ele>
        <time>2015-10-25T08:57:53Z</time>
      </trkpt>
      <trkpt lat="43.74814" lon="3.50723">
        <ele>621.5</ele>
        <time>2015-10-25T08:57:54Z</time>
      </trkpt>
      <trkpt lat="43.7481" lon="3.50716">
        <ele>621.5</ele>
        <time>2015-10-25T08:57:56Z</time>
      </trkpt>
      <trkpt lat="43.74808" lon="3.50713">
        <ele>621</ele>
        <time>2015-10-25T08:57:57Z</time>
      </trkpt>
      <trkpt lat="43.74807" lon="3.50712">
        <ele>620.5</ele>
        <time>2015-10-25T08:57:58Z</time>
      </trkpt>
      <trkpt lat="43.74807" lon="3.50714">
        <ele>620</ele>
        <time>2015-10-25T08:57:59Z</time>
      </trkpt>
      <trkpt lat="43.74807" lon="3.50715">
        <ele>620</ele>
        <time>2015-10-25T08:58:00Z</time>
      </trkpt>
      <trkpt lat="43.74807" lon="3.50717">
        <ele>619.5</ele>
        <time>2015-10-25T08:58:01Z</time>
      </trkpt>
      <trkpt lat="43.74808" lon="3.5072">
        <ele>619</ele>
        <time>2015-10-25T08:58:02Z</time>
      </trkpt>
      <trkpt lat="43.74808" lon="3.50723">
        <ele>619</ele>
        <time>2015-10-25T08:58:03Z</time>
      </trkpt>
      <trkpt lat="43.74809" lon="3.50725">
        <ele>618</ele>
        <time>2015-10-25T08:58:04Z</time>
      </trkpt>
      <trkpt lat="43.74809" lon="3.50727">
        <ele>618</ele>
        <time>2015-10-25T08:58:05Z</time>
      </trkpt>
      <trkpt lat="43.74808" lon="3.50726">
        <ele>617.5</ele>
        <time>2015-10-25T08:58:06Z</time>
      </trkpt>
      <trkpt lat="43.74807" lon="3.50727">
        <ele>618</ele>
        <time>2015-10-25T08:58:07Z</time>
      </trkpt>
      <trkpt lat="43.74806" lon="3.50727">
        <ele>616.5</ele>
        <time>2015-10-25T08:58:08Z</time>
      </trkpt>
      <trkpt lat="43.74805" lon="3.50725">
        <ele>616</ele>
        <time>2015-10-25T08:58:09Z</time>
      </trkpt>
      <trkpt lat="43.74804" lon="3.50722">
        <ele>615.5</ele>
        <time>2015-10-25T08:58:10Z</time>
      </trkpt>
      <trkpt lat="43.74802" lon="3.50719">
        <ele>615.5</ele>
        <time>2015-10-25T08:58:11Z</time>
      </trkpt>
      <trkpt lat="43.74799" lon="3.50715">
        <ele>614.5</ele>
        <time>2015-10-25T08:58:12Z</time>
      </trkpt>
      <trkpt lat="43.74796" lon="3.5071">
        <ele>613.5</ele>
        <time>2015-10-25T08:58:13Z</time>
      </trkpt>
      <trkpt lat="43.74794" lon="3.50705">
        <ele>612</ele>
        <time>2015-10-25T08:58:14Z</time>
      </trkpt>
      <trkpt lat="43.74787" lon="3.50695">
        <ele>609</ele>
        <time>2015-10-25T08:58:16Z</time>
      </trkpt>
      <trkpt lat="43.74783" lon="3.50689">
        <ele>608</ele>
        <time>2015-10-25T08:58:17Z</time>
      </trkpt>
      <trkpt lat="43.74779" lon="3.50685">
        <ele>607</ele>
        <time>2015-10-25T08:58:18Z</time>
      </trkpt>
      <trkpt lat="43.74774" lon="3.50683">
        <ele>607.5</ele>
        <time>2015-10-25T08:58:19Z</time>
      </trkpt>
      <trkpt lat="43.74768" lon="3.50682">
        <ele>606</ele>
        <time>2015-10-25T08:58:20Z</time>
      </trkpt>
      <trkpt lat="43.74762" lon="3.5068">
        <ele>604.5</ele>
        <time>2015-10-25T08:58:21Z</time>
      </trkpt>
      <trkpt lat="43.74757" lon="3.50679">
        <ele>605</ele>
        <time>2015-10-25T08:58:22Z</time>
      </trkpt>
      <trkpt lat="43.74753" lon="3.50677">
        <ele>605</ele>
        <time>2015-10-25T08:58:23Z</time>
      </trkpt>
      <trkpt lat="43.74749" lon="3.50675">
        <ele>605</ele>
        <time>2015-10-25T08:58:24Z</time>
      </trkpt>
      <trkpt lat="43.74745" lon="3.5067">
        <ele>605</ele>
        <time>2015-10-25T08:58:25Z</time>
      </trkpt>
      <trkpt lat="43.74741" lon="3.50667">
        <ele>604.5</ele>
        <time>2015-10-25T08:58:26Z</time>
      </trkpt>
      <trkpt lat="43.74736" lon="3.50665">
        <ele>603.5</ele>
        <time>2015-10-25T08:58:27Z</time>
      </trkpt>
      <trkpt lat="43.74731" lon="3.50663">
        <ele>601.5</ele>
        <time>2015-10-25T08:58:28Z</time>
      </trkpt>
      <trkpt lat="43.74728" lon="3.50659">
        <ele>599.5</ele>
        <time>2015-10-25T08:58:29Z</time>
      </trkpt>
      <trkpt lat="43.74725" lon="3.50656">
        <ele>598.5</ele>
        <time>2015-10-25T08:58:30Z</time>
      </trkpt>
      <trkpt lat="43.74722" lon="3.50654">
        <ele>597.5</ele>
        <time>2015-10-25T08:58:31Z</time>
      </trkpt>
      <trkpt lat="43.74719" lon="3.50652">
        <ele>596.5</ele>
        <time>2015-10-25T08:58:32Z</time>
      </trkpt>
      <trkpt lat="43.74716" lon="3.5065">
        <ele>595</ele>
        <time>2015-10-25T08:58:33Z</time>
      </trkpt>
      <trkpt lat="43.74709" lon="3.50646">
        <ele>593</ele>
        <time>2015-10-25T08:58:35Z</time>
      </trkpt>
      <trkpt lat="43.74704" lon="3.50645">
        <ele>592</ele>
        <time>2015-10-25T08:58:36Z</time>
      </trkpt>
      <trkpt lat="43.74699" lon="3.50644">
        <ele>590</ele>
        <time>2015-10-25T08:58:37Z</time>
      </trkpt>
      <trkpt lat="43.74695" lon="3.50642">
        <ele>590</ele>
        <time>2015-10-25T08:58:38Z</time>
      </trkpt>
      <trkpt lat="43.74691" lon="3.5064">
        <ele>589.5</ele>
        <time>2015-10-25T08:58:39Z</time>
      </trkpt>
      <trkpt lat="43.74687" lon="3.50638">
        <ele>589.5</ele>
        <time>2015-10-25T08:58:40Z</time>
      </trkpt>
      <trkpt lat="43.74684" lon="3.50635">
        <ele>590</ele>
        <time>2015-10-25T08:58:41Z</time>
      </trkpt>
      <trkpt lat="43.74681" lon="3.50632">
        <ele>589</ele>
        <time>2015-10-25T08:58:42Z</time>
      </trkpt>
      <trkpt lat="43.7468" lon="3.50632">
        <ele>588.5</ele>
        <time>2015-10-25T08:58:43Z</time>
      </trkpt>
      <trkpt lat="43.74678" lon="3.50632">
        <ele>589</ele>
        <time>2015-10-25T08:58:44Z</time>
      </trkpt>
      <trkpt lat="43.74678" lon="3.50631">
        <ele>588</ele>
        <time>2015-10-25T08:58:48Z</time>
      </trkpt>
      <trkpt lat="43.74678" lon="3.50631">
        <ele>586.5</ele>
        <time>2015-10-25T08:58:51Z</time>
      </trkpt>
      <trkpt lat="43.74677" lon="3.50633">
        <ele>588.5</ele>
        <time>2015-10-25T08:58:58Z</time>
      </trkpt>
      <trkpt lat="43.74675" lon="3.50631">
        <ele>586.5</ele>
        <time>2015-10-25T08:59:00Z</time>
      </trkpt>
      <trkpt lat="43.74675" lon="3.50629">
        <ele>586.5</ele>
        <time>2015-10-25T08:59:01Z</time>
      </trkpt>
      <trkpt lat="43.74674" lon="3.50629">
        <ele>586.5</ele>
        <time>2015-10-25T08:59:05Z</time>
      </trkpt>
      <trkpt lat="43.74673" lon="3.50626">
        <ele>585.5</ele>
        <time>2015-10-25T08:59:07Z</time>
      </trkpt>
      <trkpt lat="43.74672" lon="3.50624">
        <ele>585.5</ele>
        <time>2015-10-25T08:59:08Z</time>
      </trkpt>
      <trkpt lat="43.74671" lon="3.50622">
        <ele>584.5</ele>
        <time>2015-10-25T08:59:09Z</time>
      </trkpt>
      <trkpt lat="43.74669" lon="3.5062">
        <ele>583.5</ele>
        <time>2015-10-25T08:59:10Z</time>
      </trkpt>
      <trkpt lat="43.74667" lon="3.50617">
        <ele>581.5</ele>
        <time>2015-10-25T08:59:11Z</time>
      </trkpt>
      <trkpt lat="43.74664" lon="3.50614">
        <ele>579.5</ele>
        <time>2015-10-25T08:59:12Z</time>
      </trkpt>
      <trkpt lat="43.74661" lon="3.50611">
        <ele>578</ele>
        <time>2015-10-25T08:59:13Z</time>
      </trkpt>
      <trkpt lat="43.74657" lon="3.50607">
        <ele>577</ele>
        <time>2015-10-25T08:59:14Z</time>
      </trkpt>
      <trkpt lat="43.74653" lon="3.50604">
        <ele>575.5</ele>
        <time>2015-10-25T08:59:15Z</time>
      </trkpt>
      <trkpt lat="43.7465" lon="3.506">
        <ele>573.5</ele>
        <time>2015-10-25T08:59:16Z</time>
      </trkpt>
      <trkpt lat="43.74646" lon="3.50596">
        <ele>572</ele>
        <time>2015-10-25T08:59:17Z</time>
      </trkpt>
      <trkpt lat="43.74642" lon="3.50591">
        <ele>570.5</ele>
        <time>2015-10-25T08:59:18Z</time>
      </trkpt>
      <trkpt lat="43.74637" lon="3.50586">
        <ele>570</ele>
        <time>2015-10-25T08:59:19Z</time>
      </trkpt>
      <trkpt lat="43.74632" lon="3.50581">
        <ele>569</ele>
        <time>2015-10-25T08:59:20Z</time>
      </trkpt>
      <trkpt lat="43.74628" lon="3.50575">
        <ele>569</ele>
        <time>2015-10-25T08:59:21Z</time>
      </trkpt>
      <trkpt lat="43.74624" lon="3.50568">
        <ele>568</ele>
        <time>2015-10-25T08:59:22Z</time>
      </trkpt>
      <trkpt lat="43.74621" lon="3.50561">
        <ele>567.5</ele>
        <time>2015-10-25T08:59:23Z</time>
      </trkpt>
      <trkpt lat="43.7462" lon="3.50554">
        <ele>567</ele>
        <time>2015-10-25T08:59:24Z</time>
      </trkpt>
      <trkpt lat="43.74619" lon="3.50548">
        <ele>567.5</ele>
        <time>2015-10-25T08:59:25Z</time>
      </trkpt>
      <trkpt lat="43.74617" lon="3.50542">
        <ele>566.5</ele>
        <time>2015-10-25T08:59:26Z</time>
      </trkpt>
      <trkpt lat="43.74613" lon="3.50538">
        <ele>566.5</ele>
        <time>2015-10-25T08:59:27Z</time>
      </trkpt>
      <trkpt lat="43.74607" lon="3.50536">
        <ele>566.5</ele>
        <time>2015-10-25T08:59:28Z</time>
      </trkpt>
      <trkpt lat="43.74602" lon="3.50533">
        <ele>566</ele>
        <time>2015-10-25T08:59:29Z</time>
      </trkpt>
      <trkpt lat="43.74597" lon="3.50531">
        <ele>565.5</ele>
        <time>2015-10-25T08:59:30Z</time>
      </trkpt>
      <trkpt lat="43.74592" lon="3.50531">
        <ele>566.5</ele>
        <time>2015-10-25T08:59:32Z</time>
      </trkpt>
      <trkpt lat="43.74592" lon="3.50533">
        <ele>567</ele>
        <time>2015-10-25T08:59:33Z</time>
      </trkpt>
      <trkpt lat="43.74592" lon="3.50534">
        <ele>566.5</ele>
        <time>2015-10-25T08:59:34Z</time>
      </trkpt>
      <trkpt lat="43.74592" lon="3.50536">
        <ele>566.5</ele>
        <time>2015-10-25T08:59:35Z</time>
      </trkpt>
      <trkpt lat="43.74593" lon="3.50538">
        <ele>566.5</ele>
        <time>2015-10-25T08:59:36Z</time>
      </trkpt>
      <trkpt lat="43.74596" lon="3.50545">
        <ele>567</ele>
        <time>2015-10-25T08:59:38Z</time>
      </trkpt>
      <trkpt lat="43.74598" lon="3.50557">
        <ele>566</ele>
        <time>2015-10-25T08:59:40Z</time>
      </trkpt>
      <trkpt lat="43.74598" lon="3.50562">
        <ele>564</ele>
        <time>2015-10-25T08:59:41Z</time>
      </trkpt>
      <trkpt lat="43.74598" lon="3.50568">
        <ele>563.5</ele>
        <time>2015-10-25T08:59:42Z</time>
      </trkpt>
      <trkpt lat="43.74598" lon="3.50573">
        <ele>561.5</ele>
        <time>2015-10-25T08:59:43Z</time>
      </trkpt>
      <trkpt lat="43.74597" lon="3.50579">
        <ele>560.5</ele>
        <time>2015-10-25T08:59:44Z</time>
      </trkpt>
      <trkpt lat="43.74599" lon="3.50583">
        <ele>560</ele>
        <time>2015-10-25T08:59:45Z</time>
      </trkpt>
      <trkpt lat="43.74601" lon="3.50589">
        <ele>560</ele>
        <time>2015-10-25T08:59:46Z</time>
      </trkpt>
      <trkpt lat="43.74602" lon="3.50596">
        <ele>561</ele>
        <time>2015-10-25T08:59:46Z</time>
      </trkpt>
      <trkpt lat="43.74604" lon="3.506">
        <ele>560.5</ele>
        <time>2015-10-25T08:59:47Z</time>
      </trkpt>
      <trkpt lat="43.74605" lon="3.50606">
        <ele>560</ele>
        <time>2015-10-25T08:59:48Z</time>
      </trkpt>
      <trkpt lat="43.74607" lon="3.5061">
        <ele>558.5</ele>
        <time>2015-10-25T08:59:49Z</time>
      </trkpt>
      <trkpt lat="43.74609" lon="3.50614">
        <ele>558</ele>
        <time>2015-10-25T08:59:50Z</time>
      </trkpt>
      <trkpt lat="43.74611" lon="3.50618">
        <ele>557</ele>
        <time>2015-10-25T08:59:51Z</time>
      </trkpt>
      <trkpt lat="43.74612" lon="3.50621">
        <ele>555.5</ele>
        <time>2015-10-25T08:59:53Z</time>
      </trkpt>
      <trkpt lat="43.74613" lon="3.50625">
        <ele>554.5</ele>
        <time>2015-10-25T08:59:53Z</time>
      </trkpt>
      <trkpt lat="43.74615" lon="3.50629">
        <ele>552.5</ele>
        <time>2015-10-25T08:59:54Z</time>
      </trkpt>
      <trkpt lat="43.74617" lon="3.50634">
        <ele>552</ele>
        <time>2015-10-25T08:59:55Z</time>
      </trkpt>
      <trkpt lat="43.74619" lon="3.50638">
        <ele>551.5</ele>
        <time>2015-10-25T08:59:56Z</time>
      </trkpt>
      <trkpt lat="43.7462" lon="3.50641">
        <ele>551.5</ele>
        <time>2015-10-25T08:59:57Z</time>
      </trkpt>
      <trkpt lat="43.74618" lon="3.50643">
        <ele>551</ele>
        <time>2015-10-25T08:59:59Z</time>
      </trkpt>
      <trkpt lat="43.74616" lon="3.50643">
        <ele>550</ele>
        <time>2015-10-25T09:00:00Z</time>
      </trkpt>
      <trkpt lat="43.74613" lon="3.50642">
        <ele>549.5</ele>
        <time>2015-10-25T09:00:01Z</time>
      </trkpt>
      <trkpt lat="43.74609" lon="3.5064">
        <ele>548.5</ele>
        <time>2015-10-25T09:00:02Z</time>
      </trkpt>
      <trkpt lat="43.74604" lon="3.50638">
        <ele>548</ele>
        <time>2015-10-25T09:00:03Z</time>
      </trkpt>
      <trkpt lat="43.746" lon="3.50634">
        <ele>548.5</ele>
        <time>2015-10-25T09:00:04Z</time>
      </trkpt>
      <trkpt lat="43.74597" lon="3.5063">
        <ele>548</ele>
        <time>2015-10-25T09:00:05Z</time>
      </trkpt>
      <trkpt lat="43.74595" lon="3.50631">
        <ele>546.5</ele>
        <time>2015-10-25T09:02:23Z</time>
      </trkpt>
      <trkpt lat="43.74594" lon="3.50634">
        <ele>546.5</ele>
        <time>2015-10-25T09:02:24Z</time>
      </trkpt>
      <trkpt lat="43.74594" lon="3.50639">
        <ele>545</ele>
        <time>2015-10-25T09:02:25Z</time>
      </trkpt>
      <trkpt lat="43.74594" lon="3.50644">
        <ele>545</ele>
        <time>2015-10-25T09:02:26Z</time>
      </trkpt>
      <trkpt lat="43.74594" lon="3.50649">
        <ele>545</ele>
        <time>2015-10-25T09:02:27Z</time>
      </trkpt>
      <trkpt lat="43.74593" lon="3.5065">
        <ele>545.5</ele>
        <time>2015-10-25T09:02:28Z</time>
      </trkpt>
      <trkpt lat="43.7459" lon="3.50649">
        <ele>544.5</ele>
        <time>2015-10-25T09:02:29Z</time>
      </trkpt>
      <trkpt lat="43.74582" lon="3.50642">
        <ele>544</ele>
        <time>2015-10-25T09:02:31Z</time>
      </trkpt>
      <trkpt lat="43.74578" lon="3.50639">
        <ele>544</ele>
        <time>2015-10-25T09:02:33Z</time>
      </trkpt>
      <trkpt lat="43.74574" lon="3.50636">
        <ele>545</ele>
        <time>2015-10-25T09:02:33Z</time>
      </trkpt>
      <trkpt lat="43.74571" lon="3.50636">
        <ele>547</ele>
        <time>2015-10-25T09:02:36Z</time>
      </trkpt>
      <trkpt lat="43.74571" lon="3.50638">
        <ele>546.5</ele>
        <time>2015-10-25T09:02:37Z</time>
      </trkpt>
      <trkpt lat="43.7457" lon="3.50642">
        <ele>544.5</ele>
        <time>2015-10-25T09:02:38Z</time>
      </trkpt>
      <trkpt lat="43.74569" lon="3.50647">
        <ele>544</ele>
        <time>2015-10-25T09:02:39Z</time>
      </trkpt>
      <trkpt lat="43.74569" lon="3.50653">
        <ele>544</ele>
        <time>2015-10-25T09:02:40Z</time>
      </trkpt>
      <trkpt lat="43.74571" lon="3.50657">
        <ele>545</ele>
        <time>2015-10-25T09:02:41Z</time>
      </trkpt>
      <trkpt lat="43.74572" lon="3.50659">
        <ele>544.5</ele>
        <time>2015-10-25T09:02:43Z</time>
      </trkpt>
      <trkpt lat="43.74572" lon="3.50658">
        <ele>545.5</ele>
        <time>2015-10-25T09:02:43Z</time>
      </trkpt>
      <trkpt lat="43.74572" lon="3.50659">
        <ele>544</ele>
        <time>2015-10-25T09:02:48Z</time>
      </trkpt>
      <trkpt lat="43.74573" lon="3.50661">
        <ele>542.5</ele>
        <time>2015-10-25T09:02:51Z</time>
      </trkpt>
      <trkpt lat="43.74574" lon="3.50663">
        <ele>541.5</ele>
        <time>2015-10-25T09:02:53Z</time>
      </trkpt>
      <trkpt lat="43.74574" lon="3.50664">
        <ele>541</ele>
        <time>2015-10-25T09:02:54Z</time>
      </trkpt>
      <trkpt lat="43.74574" lon="3.50665">
        <ele>540.5</ele>
        <time>2015-10-25T09:02:55Z</time>
      </trkpt>
      <trkpt lat="43.74574" lon="3.50665">
        <ele>539.5</ele>
        <time>2015-10-25T09:02:56Z</time>
      </trkpt>
      <trkpt lat="43.74573" lon="3.50666">
        <ele>539.5</ele>
        <time>2015-10-25T09:02:57Z</time>
      </trkpt>
      <trkpt lat="43.74573" lon="3.50665">
        <ele>538</ele>
        <time>2015-10-25T09:02:59Z</time>
      </trkpt>
      <trkpt lat="43.74572" lon="3.50666">
        <ele>537</ele>
        <time>2015-10-25T09:02:59Z</time>
      </trkpt>
      <trkpt lat="43.74572" lon="3.50666">
        <ele>538</ele>
        <time>2015-10-25T09:03:00Z</time>
      </trkpt>
      <trkpt lat="43.74571" lon="3.50667">
        <ele>536</ele>
        <time>2015-10-25T09:03:02Z</time>
      </trkpt>
      <trkpt lat="43.74569" lon="3.50666">
        <ele>534.5</ele>
        <time>2015-10-25T09:03:04Z</time>
      </trkpt>
      <trkpt lat="43.74568" lon="3.50667">
        <ele>534.5</ele>
        <time>2015-10-25T09:03:05Z</time>
      </trkpt>
      <trkpt lat="43.74567" lon="3.50668">
        <ele>533.5</ele>
        <time>2015-10-25T09:03:06Z</time>
      </trkpt>
      <trkpt lat="43.74568" lon="3.5067">
        <ele>533.5</ele>
        <time>2015-10-25T09:03:07Z</time>
      </trkpt>
      <trkpt lat="43.74568" lon="3.50672">
        <ele>532</ele>
        <time>2015-10-25T09:03:08Z</time>
      </trkpt>
      <trkpt lat="43.74569" lon="3.50672">
        <ele>531</ele>
        <time>2015-10-25T09:03:09Z</time>
      </trkpt>
      <trkpt lat="43.74569" lon="3.50673">
        <ele>530.5</ele>
        <time>2015-10-25T09:03:10Z</time>
      </trkpt>
      <trkpt lat="43.74568" lon="3.50673">
        <ele>530</ele>
        <time>2015-10-25T09:03:22Z</time>
      </trkpt>
      <trkpt lat="43.7457" lon="3.50675">
        <ele>529.5</ele>
        <time>2015-10-25T09:03:30Z</time>
      </trkpt>
      <trkpt lat="43.7457" lon="3.50675">
        <ele>529</ele>
        <time>2015-10-25T09:03:32Z</time>
      </trkpt>
      <trkpt lat="43.7457" lon="3.50675">
        <ele>529.5</ele>
        <time>2015-10-25T09:03:34Z</time>
      </trkpt>
      <trkpt lat="43.7457" lon="3.50675">
        <ele>527.5</ele>
        <time>2015-10-25T09:03:43Z</time>
      </trkpt>
      <trkpt lat="43.74571" lon="3.50676">
        <ele>525.5</ele>
        <time>2015-10-25T09:03:56Z</time>
      </trkpt>
      <trkpt lat="43.7457" lon="3.50677">
        <ele>525.5</ele>
        <time>2015-10-25T09:03:58Z</time>
      </trkpt>
      <trkpt lat="43.74569" lon="3.50678">
        <ele>525.5</ele>
        <time>2015-10-25T09:04:09Z</time>
      </trkpt>
      <trkpt lat="43.74569" lon="3.50679">
        <ele>531.5</ele>
        <time>2015-10-25T09:04:12Z</time>
      </trkpt>
      <trkpt lat="43.7457" lon="3.5068">
        <ele>533.5</ele>
        <time>2015-10-25T09:04:15Z</time>
      </trkpt>
      <trkpt lat="43.74568" lon="3.5068">
        <ele>534.5</ele>
        <time>2015-10-25T09:04:17Z</time>
      </trkpt>
      <trkpt lat="43.74567" lon="3.5068">
        <ele>535</ele>
        <time>2015-10-25T09:04:18Z</time>
      </trkpt>
      <trkpt lat="43.74566" lon="3.5068">
        <ele>535.5</ele>
        <time>2015-10-25T09:04:22Z</time>
      </trkpt>
      <trkpt lat="43.74567" lon="3.50679">
        <ele>534.5</ele>
        <time>2015-10-25T09:04:27Z</time>
      </trkpt>
      <trkpt lat="43.74569" lon="3.50679">
        <ele>532.5</ele>
        <time>2015-10-25T09:04:48Z</time>
      </trkpt>
      <trkpt lat="43.74571" lon="3.50684">
        <ele>534</ele>
        <time>2015-10-25T09:04:50Z</time>
      </trkpt>
      <trkpt lat="43.74573" lon="3.50685">
        <ele>535</ele>
        <time>2015-10-25T09:04:51Z</time>
      </trkpt>
      <trkpt lat="43.74573" lon="3.50686">
        <ele>534.5</ele>
        <time>2015-10-25T09:04:52Z</time>
      </trkpt>
      <trkpt lat="43.74574" lon="3.50687">
        <ele>535.5</ele>
        <time>2015-10-25T09:04:54Z</time>
      </trkpt>
      <trkpt lat="43.74574" lon="3.50688">
        <ele>535.5</ele>
        <time>2015-10-25T09:04:55Z</time>
      </trkpt>
      <trkpt lat="43.74574" lon="3.50688">
        <ele>534.5</ele>
        <time>2015-10-25T09:04:56Z</time>
      </trkpt>
      <trkpt lat="43.74573" lon="3.50689">
        <ele>533.5</ele>
        <time>2015-10-25T09:04:57Z</time>
      </trkpt>
      <trkpt lat="43.74573" lon="3.50689">
        <ele>533</ele>
        <time>2015-10-25T09:04:58Z</time>
      </trkpt>
      <trkpt lat="43.74572" lon="3.50688">
        <ele>531.5</ele>
        <time>2015-10-25T09:04:59Z</time>
      </trkpt>
      <trkpt lat="43.74572" lon="3.50688">
        <ele>531</ele>
        <time>2015-10-25T09:05:00Z</time>
      </trkpt>
      <trkpt lat="43.74572" lon="3.50688">
        <ele>530.5</ele>
        <time>2015-10-25T09:05:01Z</time>
      </trkpt>
      <trkpt lat="43.74571" lon="3.50687">
        <ele>528.5</ele>
        <time>2015-10-25T09:05:02Z</time>
      </trkpt>
      <trkpt lat="43.74571" lon="3.50687">
        <ele>528</ele>
        <time>2015-10-25T09:05:03Z</time>
      </trkpt>
      <trkpt lat="43.7457" lon="3.50687">
        <ele>528</ele>
        <time>2015-10-25T09:05:04Z</time>
      </trkpt>
      <trkpt lat="43.74569" lon="3.50687">
        <ele>528.5</ele>
        <time>2015-10-25T09:05:05Z</time>
      </trkpt>
      <trkpt lat="43.74568" lon="3.50686">
        <ele>527.5</ele>
        <time>2015-10-25T09:05:06Z</time>
      </trkpt>
      <trkpt lat="43.74568" lon="3.50686">
        <ele>528</ele>
        <time>2015-10-25T09:05:07Z</time>
      </trkpt>
      <trkpt lat="43.74568" lon="3.50686">
        <ele>527.5</ele>
        <time>2015-10-25T09:05:08Z</time>
      </trkpt>
      <trkpt lat="43.74567" lon="3.50685">
        <ele>525.5</ele>
        <time>2015-10-25T09:05:15Z</time>
      </trkpt>
      <trkpt lat="43.74564" lon="3.50688">
        <ele>523.5</ele>
        <time>2015-10-25T09:04:46Z</time>
      </trkpt>
      <trkpt lat="43.74562" lon="3.5069">
        <ele>524.5</ele>
        <time>2015-10-25T09:04:48Z</time>
      </trkpt>
      <trkpt lat="43.74561" lon="3.50692">
        <ele>524</ele>
        <time>2015-10-25T09:04:49Z</time>
      </trkpt>
      <trkpt lat="43.74562" lon="3.50694">
        <ele>522</ele>
        <time>2015-10-25T09:04:50Z</time>
      </trkpt>
      <trkpt lat="43.74562" lon="3.50696">
        <ele>521</ele>
        <time>2015-10-25T09:04:51Z</time>
      </trkpt>
      <trkpt lat="43.74563" lon="3.50698">
        <ele>521.5</ele>
        <time>2015-10-25T09:04:52Z</time>
      </trkpt>
      <trkpt lat="43.74563" lon="3.507">
        <ele>521</ele>
        <time>2015-10-25T09:04:53Z</time>
      </trkpt>
      <trkpt lat="43.74564" lon="3.50701">
        <ele>521</ele>
        <time>2015-10-25T09:04:54Z</time>
      </trkpt>
      <trkpt lat="43.74565" lon="3.50703">
        <ele>520.5</ele>
        <time>2015-10-25T09:04:55Z</time>
      </trkpt>
      <trkpt lat="43.74565" lon="3.50706">
        <ele>522</ele>
        <time>2015-10-25T09:04:56Z</time>
      </trkpt>
      <trkpt lat="43.74564" lon="3.50709">
        <ele>523.5</ele>
        <time>2015-10-25T09:04:57Z</time>
      </trkpt>
      <trkpt lat="43.74563" lon="3.50709">
        <ele>522.5</ele>
        <time>2015-10-25T09:04:58Z</time>
      </trkpt>
      <trkpt lat="43.74562" lon="3.50708">
        <ele>523</ele>
        <time>2015-10-25T09:04:59Z</time>
      </trkpt>
      <trkpt lat="43.74562" lon="3.50708">
        <ele>523</ele>
        <time>2015-10-25T09:05:00Z</time>
      </trkpt>
      <trkpt lat="43.74562" lon="3.50709">
        <ele>523</ele>
        <time>2015-10-25T09:05:01Z</time>
      </trkpt>
      <trkpt lat="43.74562" lon="3.5071">
        <ele>524</ele>
        <time>2015-10-25T09:05:10Z</time>
      </trkpt>
      <trkpt lat="43.74558" lon="3.50716">
        <ele>524.5</ele>
        <time>2015-10-25T09:05:12Z</time>
      </trkpt>
      <trkpt lat="43.74558" lon="3.50718">
        <ele>528</ele>
        <time>2015-10-25T09:05:40Z</time>
      </trkpt>
      <trkpt lat="43.74559" lon="3.50716">
        <ele>515.5</ele>
        <time>2015-10-25T09:05:39Z</time>
      </trkpt>
      <trkpt lat="43.74559" lon="3.50716">
        <ele>512.5</ele>
        <time>2015-10-25T09:06:00Z</time>
      </trkpt>
      <trkpt lat="43.74559" lon="3.50715">
        <ele>512.5</ele>
        <time>2015-10-25T09:06:02Z</time>
      </trkpt>
      <trkpt lat="43.74559" lon="3.50715">
        <ele>513.5</ele>
        <time>2015-10-25T09:06:04Z</time>
      </trkpt>
      <trkpt lat="43.74559" lon="3.50714">
        <ele>512.5</ele>
        <time>2015-10-25T09:06:06Z</time>
      </trkpt>
      <trkpt lat="43.74559" lon="3.5071">
        <ele>514</ele>
        <time>2015-10-25T09:06:21Z</time>
      </trkpt>
      <trkpt lat="43.74556" lon="3.50704">
        <ele>514.5</ele>
        <time>2015-10-25T09:06:25Z</time>
      </trkpt>
      <trkpt lat="43.74557" lon="3.50701">
        <ele>518.5</ele>
        <time>2015-10-25T09:06:35Z</time>
      </trkpt>
      <trkpt lat="43.74557" lon="3.50701">
        <ele>518.5</ele>
        <time>2015-10-25T09:06:36Z</time>
      </trkpt>
      <trkpt lat="43.74557" lon="3.50701">
        <ele>518.5</ele>
        <time>2015-10-25T09:06:37Z</time>
      </trkpt>
      <trkpt lat="43.74556" lon="3.50704">
        <ele>513</ele>
        <time>2015-10-25T09:06:57Z</time>
      </trkpt>
      <trkpt lat="43.74556" lon="3.50706">
        <ele>508.5</ele>
        <time>2015-10-25T09:07:18Z</time>
      </trkpt>
      <trkpt lat="43.74556" lon="3.50706">
        <ele>508</ele>
        <time>2015-10-25T09:07:19Z</time>
      </trkpt>
      <trkpt lat="43.74555" lon="3.50703">
        <ele>509</ele>
        <time>2015-10-25T09:07:22Z</time>
      </trkpt>
      <trkpt lat="43.74555" lon="3.50704">
        <ele>509</ele>
        <time>2015-10-25T09:07:23Z</time>
      </trkpt>
      <trkpt lat="43.74556" lon="3.50704">
        <ele>507</ele>
        <time>2015-10-25T09:07:26Z</time>
      </trkpt>
      <trkpt lat="43.74556" lon="3.50705">
        <ele>508</ele>
        <time>2015-10-25T09:07:27Z</time>
      </trkpt>
      <trkpt lat="43.74555" lon="3.50704">
        <ele>507</ele>
        <time>2015-10-25T09:07:30Z</time>
      </trkpt>
      <trkpt lat="43.74553" lon="3.50704">
        <ele>506.5</ele>
        <time>2015-10-25T09:07:31Z</time>
      </trkpt>
      <trkpt lat="43.74552" lon="3.50703">
        <ele>507</ele>
        <time>2015-10-25T09:07:32Z</time>
      </trkpt>
      <trkpt lat="43.74551" lon="3.50702">
        <ele>506.5</ele>
        <time>2015-10-25T09:07:33Z</time>
      </trkpt>
      <trkpt lat="43.74549" lon="3.50702">
        <ele>506.5</ele>
        <time>2015-10-25T09:07:34Z</time>
      </trkpt>
      <trkpt lat="43.74548" lon="3.50702">
        <ele>506.5</ele>
        <time>2015-10-25T09:07:35Z</time>
      </trkpt>
      <trkpt lat="43.74546" lon="3.50701">
        <ele>506.5</ele>
        <time>2015-10-25T09:07:36Z</time>
      </trkpt>
      <trkpt lat="43.74543" lon="3.50701">
        <ele>506.5</ele>
        <time>2015-10-25T09:07:37Z</time>
      </trkpt>
      <trkpt lat="43.74541" lon="3.507">
        <ele>506</ele>
        <time>2015-10-25T09:07:38Z</time>
      </trkpt>
      <trkpt lat="43.74538" lon="3.50698">
        <ele>508</ele>
        <time>2015-10-25T09:07:39Z</time>
      </trkpt>
      <trkpt lat="43.74535" lon="3.50697">
        <ele>508</ele>
        <time>2015-10-25T09:07:40Z</time>
      </trkpt>
      <trkpt lat="43.74532" lon="3.50696">
        <ele>507.5</ele>
        <time>2015-10-25T09:07:41Z</time>
      </trkpt>
      <trkpt lat="43.74529" lon="3.50694">
        <ele>507.5</ele>
        <time>2015-10-25T09:07:42Z</time>
      </trkpt>
      <trkpt lat="43.74526" lon="3.50696">
        <ele>509</ele>
        <time>2015-10-25T09:07:43Z</time>
      </trkpt>
      <trkpt lat="43.74523" lon="3.50694">
        <ele>509</ele>
        <time>2015-10-25T09:07:44Z</time>
      </trkpt>
      <trkpt lat="43.7452" lon="3.50693">
        <ele>510.5</ele>
        <time>2015-10-25T09:07:45Z</time>
      </trkpt>
      <trkpt lat="43.74517" lon="3.50692">
        <ele>510</ele>
        <time>2015-10-25T09:07:46Z</time>
      </trkpt>
      <trkpt lat="43.74514" lon="3.5069">
        <ele>510</ele>
        <time>2015-10-25T09:07:47Z</time>
      </trkpt>
      <trkpt lat="43.74511" lon="3.50688">
        <ele>510.5</ele>
        <time>2015-10-25T09:07:48Z</time>
      </trkpt>
      <trkpt lat="43.74508" lon="3.50687">
        <ele>511</ele>
        <time>2015-10-25T09:07:49Z</time>
      </trkpt>
      <trkpt lat="43.74505" lon="3.50685">
        <ele>511</ele>
        <time>2015-10-25T09:07:50Z</time>
      </trkpt>
      <trkpt lat="43.74502" lon="3.50684">
        <ele>512</ele>
        <time>2015-10-25T09:07:51Z</time>
      </trkpt>
      <trkpt lat="43.745" lon="3.50683">
        <ele>512</ele>
        <time>2015-10-25T09:07:52Z</time>
      </trkpt>
      <trkpt lat="43.74497" lon="3.50681">
        <ele>513.5</ele>
        <time>2015-10-25T09:07:53Z</time>
      </trkpt>
      <trkpt lat="43.74494" lon="3.50679">
        <ele>513.5</ele>
        <time>2015-10-25T09:07:54Z</time>
      </trkpt>
      <trkpt lat="43.74491" lon="3.50675">
        <ele>513.5</ele>
        <time>2015-10-25T09:07:55Z</time>
      </trkpt>
      <trkpt lat="43.74487" lon="3.50672">
        <ele>513.5</ele>
        <time>2015-10-25T09:07:56Z</time>
      </trkpt>
      <trkpt lat="43.74483" lon="3.5067">
        <ele>514.5</ele>
        <time>2015-10-25T09:07:57Z</time>
      </trkpt>
      <trkpt lat="43.74479" lon="3.50666">
        <ele>514</ele>
        <time>2015-10-25T09:07:58Z</time>
      </trkpt>
      <trkpt lat="43.74475" lon="3.50663">
        <ele>514.5</ele>
        <time>2015-10-25T09:07:59Z</time>
      </trkpt>
      <trkpt lat="43.74471" lon="3.50659">
        <ele>514.5</ele>
        <time>2015-10-25T09:08:00Z</time>
      </trkpt>
      <trkpt lat="43.74467" lon="3.50655">
        <ele>514</ele>
        <time>2015-10-25T09:08:01Z</time>
      </trkpt>
      <trkpt lat="43.74463" lon="3.5065">
        <ele>515</ele>
        <time>2015-10-25T09:08:02Z</time>
      </trkpt>
      <trkpt lat="43.74459" lon="3.50645">
        <ele>514.5</ele>
        <time>2015-10-25T09:08:03Z</time>
      </trkpt>
      <trkpt lat="43.74455" lon="3.50639">
        <ele>515</ele>
        <time>2015-10-25T09:08:04Z</time>
      </trkpt>
      <trkpt lat="43.74452" lon="3.50634">
        <ele>514.5</ele>
        <time>2015-10-25T09:08:05Z</time>
      </trkpt>
      <trkpt lat="43.7445" lon="3.50628">
        <ele>515</ele>
        <time>2015-10-25T09:08:06Z</time>
      </trkpt>
      <trkpt lat="43.74448" lon="3.50622">
        <ele>515</ele>
        <time>2015-10-25T09:08:07Z</time>
      </trkpt>
      <trkpt lat="43.74446" lon="3.50617">
        <ele>515.5</ele>
        <time>2015-10-25T09:08:08Z</time>
      </trkpt>
      <trkpt lat="43.74445" lon="3.50611">
        <ele>515.5</ele>
        <time>2015-10-25T09:08:09Z</time>
      </trkpt>
      <trkpt lat="43.74444" lon="3.50606">
        <ele>515.5</ele>
        <time>2015-10-25T09:08:10Z</time>
      </trkpt>
      <trkpt lat="43.74443" lon="3.50601">
        <ele>515.5</ele>
        <time>2015-10-25T09:08:11Z</time>
      </trkpt>
      <trkpt lat="43.74441" lon="3.50596">
        <ele>515.5</ele>
        <time>2015-10-25T09:08:12Z</time>
      </trkpt>
      <trkpt lat="43.74441" lon="3.50591">
        <ele>514.5</ele>
        <time>2015-10-25T09:08:13Z</time>
      </trkpt>
      <trkpt lat="43.7444" lon="3.50587">
        <ele>514</ele>
        <time>2015-10-25T09:08:14Z</time>
      </trkpt>
      <trkpt lat="43.74439" lon="3.50582">
        <ele>514</ele>
        <time>2015-10-25T09:08:15Z</time>
      </trkpt>
      <trkpt lat="43.74438" lon="3.50577">
        <ele>514</ele>
        <time>2015-10-25T09:08:16Z</time>
      </trkpt>
      <trkpt lat="43.74437" lon="3.50572">
        <ele>514</ele>
        <time>2015-10-25T09:08:17Z</time>
      </trkpt>
      <trkpt lat="43.74436" lon="3.50567">
        <ele>515</ele>
        <time>2015-10-25T09:08:18Z</time>
      </trkpt>
      <trkpt lat="43.74435" lon="3.50562">
        <ele>515</ele>
        <time>2015-10-25T09:08:19Z</time>
      </trkpt>
      <trkpt lat="43.74434" lon="3.50558">
        <ele>515</ele>
        <time>2015-10-25T09:08:20Z</time>
      </trkpt>
      <trkpt lat="43.74434" lon="3.50553">
        <ele>514.5</ele>
        <time>2015-10-25T09:08:21Z</time>
      </trkpt>
      <trkpt lat="43.74433" lon="3.5055">
        <ele>515</ele>
        <time>2015-10-25T09:08:22Z</time>
      </trkpt>
      <trkpt lat="43.74432" lon="3.50546">
        <ele>516</ele>
        <time>2015-10-25T09:08:23Z</time>
      </trkpt>
      <trkpt lat="43.74431" lon="3.50543">
        <ele>518</ele>
        <time>2015-10-25T09:08:24Z</time>
      </trkpt>
      <trkpt lat="43.7443" lon="3.50539">
        <ele>518</ele>
        <time>2015-10-25T09:08:25Z</time>
      </trkpt>
      <trkpt lat="43.74428" lon="3.50536">
        <ele>518</ele>
        <time>2015-10-25T09:08:26Z</time>
      </trkpt>
      <trkpt lat="43.74428" lon="3.50532">
        <ele>519</ele>
        <time>2015-10-25T09:08:27Z</time>
      </trkpt>
      <trkpt lat="43.74427" lon="3.50528">
        <ele>519</ele>
        <time>2015-10-25T09:08:28Z</time>
      </trkpt>
      <trkpt lat="43.74425" lon="3.50525">
        <ele>521</ele>
        <time>2015-10-25T09:08:29Z</time>
      </trkpt>
      <trkpt lat="43.74424" lon="3.50522">
        <ele>522</ele>
        <time>2015-10-25T09:08:30Z</time>
      </trkpt>
      <trkpt lat="43.74422" lon="3.50519">
        <ele>522.5</ele>
        <time>2015-10-25T09:08:31Z</time>
      </trkpt>
      <trkpt lat="43.7442" lon="3.50517">
        <ele>523.5</ele>
        <time>2015-10-25T09:08:32Z</time>
      </trkpt>
      <trkpt lat="43.74418" lon="3.50514">
        <ele>524</ele>
        <time>2015-10-25T09:08:33Z</time>
      </trkpt>
      <trkpt lat="43.74416" lon="3.50511">
        <ele>524.5</ele>
        <time>2015-10-25T09:08:34Z</time>
      </trkpt>
      <trkpt lat="43.74414" lon="3.50508">
        <ele>524</ele>
        <time>2015-10-25T09:08:35Z</time>
      </trkpt>
      <trkpt lat="43.74412" lon="3.50506">
        <ele>525</ele>
        <time>2015-10-25T09:08:36Z</time>
      </trkpt>
      <trkpt lat="43.74409" lon="3.50504">
        <ele>525</ele>
        <time>2015-10-25T09:08:37Z</time>
      </trkpt>
      <trkpt lat="43.74407" lon="3.50503">
        <ele>525.5</ele>
        <time>2015-10-25T09:08:38Z</time>
      </trkpt>
      <trkpt lat="43.74404" lon="3.50501">
        <ele>525.5</ele>
        <time>2015-10-25T09:08:39Z</time>
      </trkpt>
      <trkpt lat="43.74402" lon="3.50501">
        <ele>525.5</ele>
        <time>2015-10-25T09:08:40Z</time>
      </trkpt>
      <trkpt lat="43.74399" lon="3.505">
        <ele>525.5</ele>
        <time>2015-10-25T09:08:41Z</time>
      </trkpt>
      <trkpt lat="43.74396" lon="3.50499">
        <ele>525.5</ele>
        <time>2015-10-25T09:08:42Z</time>
      </trkpt>
      <trkpt lat="43.74393" lon="3.50497">
        <ele>524</ele>
        <time>2015-10-25T09:08:43Z</time>
      </trkpt>
      <trkpt lat="43.74389" lon="3.50497">
        <ele>523</ele>
        <time>2015-10-25T09:08:44Z</time>
      </trkpt>
      <trkpt lat="43.74386" lon="3.50495">
        <ele>522</ele>
        <time>2015-10-25T09:08:45Z</time>
      </trkpt>
      <trkpt lat="43.7438" lon="3.50494">
        <ele>522</ele>
        <time>2015-10-25T09:08:46Z</time>
      </trkpt>
      <trkpt lat="43.74375" lon="3.50491">
        <ele>522</ele>
        <time>2015-10-25T09:08:47Z</time>
      </trkpt>
      <trkpt lat="43.74371" lon="3.50488">
        <ele>522</ele>
        <time>2015-10-25T09:08:48Z</time>
      </trkpt>
      <trkpt lat="43.74366" lon="3.50484">
        <ele>522.5</ele>
        <time>2015-10-25T09:08:49Z</time>
      </trkpt>
      <trkpt lat="43.74362" lon="3.5048">
        <ele>522.5</ele>
        <time>2015-10-25T09:08:50Z</time>
      </trkpt>
      <trkpt lat="43.74357" lon="3.50475">
        <ele>521</ele>
        <time>2015-10-25T09:08:51Z</time>
      </trkpt>
      <trkpt lat="43.74352" lon="3.50471">
        <ele>521.5</ele>
        <time>2015-10-25T09:08:52Z</time>
      </trkpt>
      <trkpt lat="43.74347" lon="3.50466">
        <ele>521.5</ele>
        <time>2015-10-25T09:08:52Z</time>
      </trkpt>
      <trkpt lat="43.74341" lon="3.50462">
        <ele>521.5</ele>
        <time>2015-10-25T09:08:53Z</time>
      </trkpt>
      <trkpt lat="43.74336" lon="3.50457">
        <ele>521.5</ele>
        <time>2015-10-25T09:08:54Z</time>
      </trkpt>
      <trkpt lat="43.7433" lon="3.50453">
        <ele>523</ele>
        <time>2015-10-25T09:08:55Z</time>
      </trkpt>
      <trkpt lat="43.74324" lon="3.50448">
        <ele>523</ele>
        <time>2015-10-25T09:08:56Z</time>
      </trkpt>
      <trkpt lat="43.74319" lon="3.50443">
        <ele>521.5</ele>
        <time>2015-10-25T09:08:57Z</time>
      </trkpt>
      <trkpt lat="43.74314" lon="3.50437">
        <ele>521</ele>
        <time>2015-10-25T09:08:58Z</time>
      </trkpt>
      <trkpt lat="43.74308" lon="3.5043">
        <ele>520.5</ele>
        <time>2015-10-25T09:08:59Z</time>
      </trkpt>
      <trkpt lat="43.74303" lon="3.50423">
        <ele>520</ele>
        <time>2015-10-25T09:09:00Z</time>
      </trkpt>
      <trkpt lat="43.74299" lon="3.50416">
        <ele>520</ele>
        <time>2015-10-25T09:09:01Z</time>
      </trkpt>
      <trkpt lat="43.74295" lon="3.50409">
        <ele>520</ele>
        <time>2015-10-25T09:09:02Z</time>
      </trkpt>
      <trkpt lat="43.74289" lon="3.50403">
        <ele>522</ele>
        <time>2015-10-25T09:09:03Z</time>
      </trkpt>
      <trkpt lat="43.74284" lon="3.50397">
        <ele>522</ele>
        <time>2015-10-25T09:09:04Z</time>
      </trkpt>
      <trkpt lat="43.74279" lon="3.50394">
        <ele>522</ele>
        <time>2015-10-25T09:09:05Z</time>
      </trkpt>
      <trkpt lat="43.74276" lon="3.50391">
        <ele>522</ele>
        <time>2015-10-25T09:09:06Z</time>
      </trkpt>
      <trkpt lat="43.74271" lon="3.5039">
        <ele>522</ele>
        <time>2015-10-25T09:09:07Z</time>
      </trkpt>
      <trkpt lat="43.74267" lon="3.50387">
        <ele>523</ele>
        <time>2015-10-25T09:09:08Z</time>
      </trkpt>
      <trkpt lat="43.74264" lon="3.50382">
        <ele>524</ele>
        <time>2015-10-25T09:09:09Z</time>
      </trkpt>
      <trkpt lat="43.7426" lon="3.50377">
        <ele>524</ele>
        <time>2015-10-25T09:09:10Z</time>
      </trkpt>
      <trkpt lat="43.74257" lon="3.50372">
        <ele>524.5</ele>
        <time>2015-10-25T09:09:11Z</time>
      </trkpt>
      <trkpt lat="43.74254" lon="3.50367">
        <ele>524.5</ele>
        <time>2015-10-25T09:09:12Z</time>
      </trkpt>
      <trkpt lat="43.7425" lon="3.50363">
        <ele>526</ele>
        <time>2015-10-25T09:09:13Z</time>
      </trkpt>
      <trkpt lat="43.74247" lon="3.50359">
        <ele>526</ele>
        <time>2015-10-25T09:09:14Z</time>
      </trkpt>
      <trkpt lat="43.74243" lon="3.50355">
        <ele>526.5</ele>
        <time>2015-10-25T09:09:15Z</time>
      </trkpt>
      <trkpt lat="43.74239" lon="3.50352">
        <ele>527</ele>
        <time>2015-10-25T09:09:16Z</time>
      </trkpt>
      <trkpt lat="43.74235" lon="3.50349">
        <ele>527</ele>
        <time>2015-10-25T09:09:17Z</time>
      </trkpt>
      <trkpt lat="43.74232" lon="3.50346">
        <ele>526.5</ele>
        <time>2015-10-25T09:09:18Z</time>
      </trkpt>
      <trkpt lat="43.74228" lon="3.50344">
        <ele>526.5</ele>
        <time>2015-10-25T09:09:19Z</time>
      </trkpt>
      <trkpt lat="43.74225" lon="3.50341">
        <ele>526.5</ele>
        <time>2015-10-25T09:09:20Z</time>
      </trkpt>
      <trkpt lat="43.74221" lon="3.50339">
        <ele>527.5</ele>
        <time>2015-10-25T09:09:21Z</time>
      </trkpt>
      <trkpt lat="43.74218" lon="3.50336">
        <ele>528</ele>
        <time>2015-10-25T09:09:22Z</time>
      </trkpt>
      <trkpt lat="43.74215" lon="3.50334">
        <ele>528</ele>
        <time>2015-10-25T09:09:23Z</time>
      </trkpt>
      <trkpt lat="43.74211" lon="3.50333">
        <ele>528</ele>
        <time>2015-10-25T09:09:24Z</time>
      </trkpt>
      <trkpt lat="43.74207" lon="3.50334">
        <ele>528</ele>
        <time>2015-10-25T09:09:25Z</time>
      </trkpt>
      <trkpt lat="43.74204" lon="3.50336">
        <ele>529.5</ele>
        <time>2015-10-25T09:09:26Z</time>
      </trkpt>
      <trkpt lat="43.74201" lon="3.50338">
        <ele>530.5</ele>
        <time>2015-10-25T09:09:27Z</time>
      </trkpt>
      <trkpt lat="43.74198" lon="3.5034">
        <ele>530.5</ele>
        <time>2015-10-25T09:09:28Z</time>
      </trkpt>
      <trkpt lat="43.74195" lon="3.50342">
        <ele>529.5</ele>
        <time>2015-10-25T09:09:29Z</time>
      </trkpt>
      <trkpt lat="43.74193" lon="3.50345">
        <ele>529.5</ele>
        <time>2015-10-25T09:09:30Z</time>
      </trkpt>
      <trkpt lat="43.74189" lon="3.50347">
        <ele>529.5</ele>
        <time>2015-10-25T09:09:31Z</time>
      </trkpt>
      <trkpt lat="43.74185" lon="3.50347">
        <ele>530.5</ele>
        <time>2015-10-25T09:09:32Z</time>
      </trkpt>
      <trkpt lat="43.74181" lon="3.50346">
        <ele>531</ele>
        <time>2015-10-25T09:09:33Z</time>
      </trkpt>
      <trkpt lat="43.74177" lon="3.50345">
        <ele>531.5</ele>
        <time>2015-10-25T09:09:34Z</time>
      </trkpt>
      <trkpt lat="43.74174" lon="3.50342">
        <ele>531.5</ele>
        <time>2015-10-25T09:09:35Z</time>
      </trkpt>
      <trkpt lat="43.74171" lon="3.50338">
        <ele>531.5</ele>
        <time>2015-10-25T09:09:36Z</time>
      </trkpt>
      <trkpt lat="43.74168" lon="3.50334">
        <ele>531.5</ele>
        <time>2015-10-25T09:09:37Z</time>
      </trkpt>
      <trkpt lat="43.74165" lon="3.5033">
        <ele>530.5</ele>
        <time>2015-10-25T09:09:38Z</time>
      </trkpt>
      <trkpt lat="43.74163" lon="3.50326">
        <ele>530.5</ele>
        <time>2015-10-25T09:09:39Z</time>
      </trkpt>
      <trkpt lat="43.7416" lon="3.50321">
        <ele>530</ele>
        <time>2015-10-25T09:09:40Z</time>
      </trkpt>
      <trkpt lat="43.74158" lon="3.50316">
        <ele>529</ele>
        <time>2015-10-25T09:09:41Z</time>
      </trkpt>
      <trkpt lat="43.74156" lon="3.50311">
        <ele>528.5</ele>
        <time>2015-10-25T09:09:42Z</time>
      </trkpt>
      <trkpt lat="43.74154" lon="3.50306">
        <ele>528</ele>
        <time>2015-10-25T09:09:43Z</time>
      </trkpt>
      <trkpt lat="43.74152" lon="3.50301">
        <ele>527.5</ele>
        <time>2015-10-25T09:09:44Z</time>
      </trkpt>
      <trkpt lat="43.7415" lon="3.50295">
        <ele>527.5</ele>
        <time>2015-10-25T09:09:45Z</time>
      </trkpt>
      <trkpt lat="43.74148" lon="3.5029">
        <ele>527</ele>
        <time>2015-10-25T09:09:46Z</time>
      </trkpt>
      <trkpt lat="43.74146" lon="3.50284">
        <ele>526</ele>
        <time>2015-10-25T09:09:47Z</time>
      </trkpt>
      <trkpt lat="43.74144" lon="3.50277">
        <ele>525.5</ele>
        <time>2015-10-25T09:09:48Z</time>
      </trkpt>
      <trkpt lat="43.74142" lon="3.50271">
        <ele>524.5</ele>
        <time>2015-10-25T09:09:49Z</time>
      </trkpt>
      <trkpt lat="43.74141" lon="3.50264">
        <ele>524.5</ele>
        <time>2015-10-25T09:09:50Z</time>
      </trkpt>
      <trkpt lat="43.74141" lon="3.50258">
        <ele>524</ele>
        <time>2015-10-25T09:09:51Z</time>
      </trkpt>
      <trkpt lat="43.7414" lon="3.5025">
        <ele>523.5</ele>
        <time>2015-10-25T09:09:52Z</time>
      </trkpt>
      <trkpt lat="43.7414" lon="3.50243">
        <ele>524</ele>
        <time>2015-10-25T09:09:53Z</time>
      </trkpt>
      <trkpt lat="43.7414" lon="3.50237">
        <ele>523.5</ele>
        <time>2015-10-25T09:09:54Z</time>
      </trkpt>
      <trkpt lat="43.74139" lon="3.5023">
        <ele>523.5</ele>
        <time>2015-10-25T09:09:55Z</time>
      </trkpt>
      <trkpt lat="43.74138" lon="3.50223">
        <ele>522.5</ele>
        <time>2015-10-25T09:09:56Z</time>
      </trkpt>
      <trkpt lat="43.74136" lon="3.50217">
        <ele>522</ele>
        <time>2015-10-25T09:09:57Z</time>
      </trkpt>
      <trkpt lat="43.74133" lon="3.50211">
        <ele>521.5</ele>
        <time>2015-10-25T09:09:58Z</time>
      </trkpt>
      <trkpt lat="43.74131" lon="3.50206">
        <ele>521</ele>
        <time>2015-10-25T09:09:59Z</time>
      </trkpt>
      <trkpt lat="43.74129" lon="3.50201">
        <ele>520</ele>
        <time>2015-10-25T09:10:00Z</time>
      </trkpt>
      <trkpt lat="43.74127" lon="3.50195">
        <ele>520.5</ele>
        <time>2015-10-25T09:10:01Z</time>
      </trkpt>
      <trkpt lat="43.74124" lon="3.50189">
        <ele>520</ele>
        <time>2015-10-25T09:10:02Z</time>
      </trkpt>
      <trkpt lat="43.74121" lon="3.50184">
        <ele>520</ele>
        <time>2015-10-25T09:10:03Z</time>
      </trkpt>
      <trkpt lat="43.74117" lon="3.50181">
        <ele>521</ele>
        <time>2015-10-25T09:10:04Z</time>
      </trkpt>
      <trkpt lat="43.74113" lon="3.50176">
        <ele>520</ele>
        <time>2015-10-25T09:10:05Z</time>
      </trkpt>
      <trkpt lat="43.74109" lon="3.50172">
        <ele>520</ele>
        <time>2015-10-25T09:10:06Z</time>
      </trkpt>
      <trkpt lat="43.74105" lon="3.50167">
        <ele>519.5</ele>
        <time>2015-10-25T09:10:07Z</time>
      </trkpt>
      <trkpt lat="43.74101" lon="3.50161">
        <ele>519</ele>
        <time>2015-10-25T09:10:08Z</time>
      </trkpt>
      <trkpt lat="43.74098" lon="3.50156">
        <ele>519</ele>
        <time>2015-10-25T09:10:09Z</time>
      </trkpt>
      <trkpt lat="43.74095" lon="3.5015">
        <ele>518.5</ele>
        <time>2015-10-25T09:10:10Z</time>
      </trkpt>
      <trkpt lat="43.74093" lon="3.50143">
        <ele>518.5</ele>
        <time>2015-10-25T09:10:11Z</time>
      </trkpt>
      <trkpt lat="43.74091" lon="3.50136">
        <ele>518.5</ele>
        <time>2015-10-25T09:10:12Z</time>
      </trkpt>
      <trkpt lat="43.74089" lon="3.50129">
        <ele>518</ele>
        <time>2015-10-25T09:10:13Z</time>
      </trkpt>
      <trkpt lat="43.74087" lon="3.50123">
        <ele>518</ele>
        <time>2015-10-25T09:10:14Z</time>
      </trkpt>
      <trkpt lat="43.74085" lon="3.50116">
        <ele>518</ele>
        <time>2015-10-25T09:10:15Z</time>
      </trkpt>
      <trkpt lat="43.74081" lon="3.5011">
        <ele>520</ele>
        <time>2015-10-25T09:10:16Z</time>
      </trkpt>
      <trkpt lat="43.74076" lon="3.50104">
        <ele>517.5</ele>
        <time>2015-10-25T09:10:17Z</time>
      </trkpt>
      <trkpt lat="43.74069" lon="3.50101">
        <ele>517.5</ele>
        <time>2015-10-25T09:10:18Z</time>
      </trkpt>
      <trkpt lat="43.74063" lon="3.50096">
        <ele>517.5</ele>
        <time>2015-10-25T09:10:19Z</time>
      </trkpt>
      <trkpt lat="43.74057" lon="3.50093">
        <ele>515.5</ele>
        <time>2015-10-25T09:10:20Z</time>
      </trkpt>
      <trkpt lat="43.74052" lon="3.50091">
        <ele>515.5</ele>
        <time>2015-10-25T09:10:21Z</time>
      </trkpt>
      <trkpt lat="43.74047" lon="3.50093">
        <ele>516.5</ele>
        <time>2015-10-25T09:10:22Z</time>
      </trkpt>
      <trkpt lat="43.74031" lon="3.5012">
        <ele>516.5</ele>
        <time>2015-10-25T09:12:37Z</time>
      </trkpt>
      <trkpt lat="43.74028" lon="3.50124">
        <ele>517</ele>
        <time>2015-10-25T09:12:38Z</time>
      </trkpt>
      <trkpt lat="43.74024" lon="3.50126">
        <ele>517</ele>
        <time>2015-10-25T09:12:39Z</time>
      </trkpt>
      <trkpt lat="43.74019" lon="3.50128">
        <ele>517</ele>
        <time>2015-10-25T09:12:40Z</time>
      </trkpt>
      <trkpt lat="43.74014" lon="3.50129">
        <ele>517</ele>
        <time>2015-10-25T09:12:41Z</time>
      </trkpt>
      <trkpt lat="43.7401" lon="3.5013">
        <ele>516.5</ele>
        <time>2015-10-25T09:12:42Z</time>
      </trkpt>
      <trkpt lat="43.74005" lon="3.50131">
        <ele>515.5</ele>
        <time>2015-10-25T09:12:43Z</time>
      </trkpt>
      <trkpt lat="43.74001" lon="3.50134">
        <ele>515.5</ele>
        <time>2015-10-25T09:12:44Z</time>
      </trkpt>
      <trkpt lat="43.73998" lon="3.50138">
        <ele>515</ele>
        <time>2015-10-25T09:12:45Z</time>
      </trkpt>
      <trkpt lat="43.73995" lon="3.50142">
        <ele>514.5</ele>
        <time>2015-10-25T09:12:46Z</time>
      </trkpt>
      <trkpt lat="43.7399" lon="3.50147">
        <ele>514.5</ele>
        <time>2015-10-25T09:12:47Z</time>
      </trkpt>
      <trkpt lat="43.73986" lon="3.50149">
        <ele>514</ele>
        <time>2015-10-25T09:12:48Z</time>
      </trkpt>
      <trkpt lat="43.73981" lon="3.50148">
        <ele>513.5</ele>
        <time>2015-10-25T09:12:49Z</time>
      </trkpt>
      <trkpt lat="43.73979" lon="3.50141">
        <ele>513.5</ele>
        <time>2015-10-25T09:12:50Z</time>
      </trkpt>
      <trkpt lat="43.73977" lon="3.50136">
        <ele>511.5</ele>
        <time>2015-10-25T09:12:51Z</time>
      </trkpt>
      <trkpt lat="43.73975" lon="3.5013">
        <ele>510.5</ele>
        <time>2015-10-25T09:12:52Z</time>
      </trkpt>
      <trkpt lat="43.73973" lon="3.50124">
        <ele>510</ele>
        <time>2015-10-25T09:12:53Z</time>
      </trkpt>
      <trkpt lat="43.73972" lon="3.50117">
        <ele>508.5</ele>
        <time>2015-10-25T09:12:54Z</time>
      </trkpt>
      <trkpt lat="43.73971" lon="3.50112">
        <ele>508</ele>
        <time>2015-10-25T09:12:55Z</time>
      </trkpt>
      <trkpt lat="43.7397" lon="3.50106">
        <ele>508</ele>
        <time>2015-10-25T09:12:56Z</time>
      </trkpt>
      <trkpt lat="43.7397" lon="3.501">
        <ele>507.5</ele>
        <time>2015-10-25T09:12:57Z</time>
      </trkpt>
      <trkpt lat="43.73971" lon="3.50094">
        <ele>508</ele>
        <time>2015-10-25T09:12:58Z</time>
      </trkpt>
      <trkpt lat="43.73972" lon="3.50089">
        <ele>507.5</ele>
        <time>2015-10-25T09:12:59Z</time>
      </trkpt>
      <trkpt lat="43.73974" lon="3.50084">
        <ele>507</ele>
        <time>2015-10-25T09:13:00Z</time>
      </trkpt>
      <trkpt lat="43.73977" lon="3.5008">
        <ele>506.5</ele>
        <time>2015-10-25T09:13:01Z</time>
      </trkpt>
      <trkpt lat="43.7398" lon="3.50075">
        <ele>506</ele>
        <time>2015-10-25T09:13:02Z</time>
      </trkpt>
      <trkpt lat="43.73983" lon="3.5007">
        <ele>505.5</ele>
        <time>2015-10-25T09:13:03Z</time>
      </trkpt>
      <trkpt lat="43.73985" lon="3.50066">
        <ele>505</ele>
        <time>2015-10-25T09:13:04Z</time>
      </trkpt>
      <trkpt lat="43.73987" lon="3.50061">
        <ele>505</ele>
        <time>2015-10-25T09:13:05Z</time>
      </trkpt>
      <trkpt lat="43.73988" lon="3.50055">
        <ele>505.5</ele>
        <time>2015-10-25T09:13:06Z</time>
      </trkpt>
      <trkpt lat="43.73989" lon="3.5005">
        <ele>505.5</ele>
        <time>2015-10-25T09:13:07Z</time>
      </trkpt>
      <trkpt lat="43.73991" lon="3.50046">
        <ele>505.5</ele>
        <time>2015-10-25T09:13:08Z</time>
      </trkpt>
      <trkpt lat="43.73992" lon="3.5004">
        <ele>505.5</ele>
        <time>2015-10-25T09:13:09Z</time>
      </trkpt>
      <trkpt lat="43.73992" lon="3.50034">
        <ele>505</ele>
        <time>2015-10-25T09:13:10Z</time>
      </trkpt>
      <trkpt lat="43.73991" lon="3.50028">
        <ele>504.5</ele>
        <time>2015-10-25T09:13:11Z</time>
      </trkpt>
      <trkpt lat="43.73987" lon="3.50023">
        <ele>504</ele>
        <time>2015-10-25T09:13:12Z</time>
      </trkpt>
      <trkpt lat="43.73981" lon="3.5002">
        <ele>505</ele>
        <time>2015-10-25T09:13:13Z</time>
      </trkpt>
      <trkpt lat="43.73977" lon="3.5002">
        <ele>504.5</ele>
        <time>2015-10-25T09:13:14Z</time>
      </trkpt>
      <trkpt lat="43.73972" lon="3.5002">
        <ele>504</ele>
        <time>2015-10-25T09:13:15Z</time>
      </trkpt>
      <trkpt lat="43.73966" lon="3.50019">
        <ele>504</ele>
        <time>2015-10-25T09:13:16Z</time>
      </trkpt>
      <trkpt lat="43.73961" lon="3.50019">
        <ele>503.5</ele>
        <time>2015-10-25T09:13:17Z</time>
      </trkpt>
      <trkpt lat="43.73956" lon="3.50017">
        <ele>503.5</ele>
        <time>2015-10-25T09:13:18Z</time>
      </trkpt>
      <trkpt lat="43.73951" lon="3.50014">
        <ele>503.5</ele>
        <time>2015-10-25T09:13:19Z</time>
      </trkpt>
      <trkpt lat="43.73946" lon="3.50009">
        <ele>504.5</ele>
        <time>2015-10-25T09:13:20Z</time>
      </trkpt>
      <trkpt lat="43.73943" lon="3.50004">
        <ele>504.5</ele>
        <time>2015-10-25T09:13:21Z</time>
      </trkpt>
      <trkpt lat="43.73941" lon="3.49998">
        <ele>504.5</ele>
        <time>2015-10-25T09:13:22Z</time>
      </trkpt>
      <trkpt lat="43.73939" lon="3.49991">
        <ele>504.5</ele>
        <time>2015-10-25T09:13:23Z</time>
      </trkpt>
      <trkpt lat="43.73938" lon="3.49984">
        <ele>504.5</ele>
        <time>2015-10-25T09:13:24Z</time>
      </trkpt>
      <trkpt lat="43.73937" lon="3.49978">
        <ele>504</ele>
        <time>2015-10-25T09:13:25Z</time>
      </trkpt>
      <trkpt lat="43.73935" lon="3.49971">
        <ele>503.5</ele>
        <time>2015-10-25T09:13:26Z</time>
      </trkpt>
      <trkpt lat="43.73934" lon="3.49965">
        <ele>503</ele>
        <time>2015-10-25T09:13:27Z</time>
      </trkpt>
      <trkpt lat="43.73932" lon="3.4996">
        <ele>503.5</ele>
        <time>2015-10-25T09:13:28Z</time>
      </trkpt>
      <trkpt lat="43.73929" lon="3.49955">
        <ele>503</ele>
        <time>2015-10-25T09:13:29Z</time>
      </trkpt>
      <trkpt lat="43.73926" lon="3.49951">
        <ele>503.5</ele>
        <time>2015-10-25T09:13:30Z</time>
      </trkpt>
      <trkpt lat="43.73923" lon="3.49948">
        <ele>505</ele>
        <time>2015-10-25T09:13:31Z</time>
      </trkpt>
      <trkpt lat="43.73918" lon="3.49948">
        <ele>504</ele>
        <time>2015-10-25T09:13:32Z</time>
      </trkpt>
      <trkpt lat="43.73913" lon="3.49949">
        <ele>504.5</ele>
        <time>2015-10-25T09:13:33Z</time>
      </trkpt>
      <trkpt lat="43.73909" lon="3.4995">
        <ele>504</ele>
        <time>2015-10-25T09:13:34Z</time>
      </trkpt>
      <trkpt lat="43.73905" lon="3.49951">
        <ele>503.5</ele>
        <time>2015-10-25T09:13:35Z</time>
      </trkpt>
      <trkpt lat="43.73901" lon="3.49952">
        <ele>503.5</ele>
        <time>2015-10-25T09:13:36Z</time>
      </trkpt>
      <trkpt lat="43.73897" lon="3.49953">
        <ele>503.5</ele>
        <time>2015-10-25T09:13:37Z</time>
      </trkpt>
      <trkpt lat="43.73893" lon="3.49952">
        <ele>502.5</ele>
        <time>2015-10-25T09:13:38Z</time>
      </trkpt>
      <trkpt lat="43.73889" lon="3.49948">
        <ele>502.5</ele>
        <time>2015-10-25T09:13:39Z</time>
      </trkpt>
      <trkpt lat="43.73885" lon="3.49943">
        <ele>502.5</ele>
        <time>2015-10-25T09:13:40Z</time>
      </trkpt>
      <trkpt lat="43.73882" lon="3.49938">
        <ele>502.5</ele>
        <time>2015-10-25T09:13:41Z</time>
      </trkpt>
      <trkpt lat="43.73879" lon="3.49934">
        <ele>502.5</ele>
        <time>2015-10-25T09:13:42Z</time>
      </trkpt>
      <trkpt lat="43.73876" lon="3.49929">
        <ele>503</ele>
        <time>2015-10-25T09:13:43Z</time>
      </trkpt>
      <trkpt lat="43.73872" lon="3.49924">
        <ele>502.5</ele>
        <time>2015-10-25T09:13:44Z</time>
      </trkpt>
      <trkpt lat="43.73869" lon="3.49918">
        <ele>502</ele>
        <time>2015-10-25T09:13:45Z</time>
      </trkpt>
      <trkpt lat="43.73865" lon="3.49913">
        <ele>501.5</ele>
        <time>2015-10-25T09:13:46Z</time>
      </trkpt>
      <trkpt lat="43.73862" lon="3.49908">
        <ele>501.5</ele>
        <time>2015-10-25T09:13:47Z</time>
      </trkpt>
      <trkpt lat="43.73859" lon="3.49904">
        <ele>501.5</ele>
        <time>2015-10-25T09:13:48Z</time>
      </trkpt>
      <trkpt lat="43.73856" lon="3.499">
        <ele>501</ele>
        <time>2015-10-25T09:13:49Z</time>
      </trkpt>
      <trkpt lat="43.73854" lon="3.49895">
        <ele>501</ele>
        <time>2015-10-25T09:13:50Z</time>
      </trkpt>
      <trkpt lat="43.73851" lon="3.4989">
        <ele>501.5</ele>
        <time>2015-10-25T09:13:51Z</time>
      </trkpt>
      <trkpt lat="43.73851" lon="3.49885">
        <ele>501.5</ele>
        <time>2015-10-25T09:13:52Z</time>
      </trkpt>
      <trkpt lat="43.73851" lon="3.49879">
        <ele>501.5</ele>
        <time>2015-10-25T09:13:53Z</time>
      </trkpt>
      <trkpt lat="43.73851" lon="3.49873">
        <ele>500.5</ele>
        <time>2015-10-25T09:13:54Z</time>
      </trkpt>
      <trkpt lat="43.73853" lon="3.49867">
        <ele>501</ele>
        <time>2015-10-25T09:13:55Z</time>
      </trkpt>
      <trkpt lat="43.73854" lon="3.4986">
        <ele>501.5</ele>
        <time>2015-10-25T09:13:56Z</time>
      </trkpt>
      <trkpt lat="43.73856" lon="3.49853">
        <ele>501</ele>
        <time>2015-10-25T09:13:57Z</time>
      </trkpt>
      <trkpt lat="43.73858" lon="3.49844">
        <ele>501</ele>
        <time>2015-10-25T09:13:58Z</time>
      </trkpt>
      <trkpt lat="43.73861" lon="3.49835">
        <ele>501</ele>
        <time>2015-10-25T09:13:59Z</time>
      </trkpt>
      <trkpt lat="43.7386" lon="3.49825">
        <ele>502</ele>
        <time>2015-10-25T09:14:00Z</time>
      </trkpt>
      <trkpt lat="43.73858" lon="3.49814">
        <ele>502</ele>
        <time>2015-10-25T09:14:01Z</time>
      </trkpt>
      <trkpt lat="43.73853" lon="3.49807">
        <ele>502</ele>
        <time>2015-10-25T09:14:02Z</time>
      </trkpt>
      <trkpt lat="43.73847" lon="3.49799">
        <ele>502</ele>
        <time>2015-10-25T09:14:03Z</time>
      </trkpt>
      <trkpt lat="43.73841" lon="3.49792">
        <ele>501</ele>
        <time>2015-10-25T09:14:04Z</time>
      </trkpt>
      <trkpt lat="43.73835" lon="3.49783">
        <ele>500.5</ele>
        <time>2015-10-25T09:14:05Z</time>
      </trkpt>
      <trkpt lat="43.7383" lon="3.49774">
        <ele>500</ele>
        <time>2015-10-25T09:14:06Z</time>
      </trkpt>
      <trkpt lat="43.73826" lon="3.49763">
        <ele>499.5</ele>
        <time>2015-10-25T09:14:07Z</time>
      </trkpt>
      <trkpt lat="43.73822" lon="3.49752">
        <ele>499</ele>
        <time>2015-10-25T09:14:08Z</time>
      </trkpt>
      <trkpt lat="43.73817" lon="3.49742">
        <ele>499</ele>
        <time>2015-10-25T09:14:09Z</time>
      </trkpt>
      <trkpt lat="43.73812" lon="3.49732">
        <ele>498.5</ele>
        <time>2015-10-25T09:14:10Z</time>
      </trkpt>
      <trkpt lat="43.73805" lon="3.49724">
        <ele>498</ele>
        <time>2015-10-25T09:14:11Z</time>
      </trkpt>
      <trkpt lat="43.73798" lon="3.49715">
        <ele>497.5</ele>
        <time>2015-10-25T09:14:12Z</time>
      </trkpt>
      <trkpt lat="43.73792" lon="3.49706">
        <ele>497.5</ele>
        <time>2015-10-25T09:14:13Z</time>
      </trkpt>
      <trkpt lat="43.73786" lon="3.49696">
        <ele>497</ele>
        <time>2015-10-25T09:14:14Z</time>
      </trkpt>
      <trkpt lat="43.7378" lon="3.49686">
        <ele>496</ele>
        <time>2015-10-25T09:14:15Z</time>
      </trkpt>
      <trkpt lat="43.73774" lon="3.49676">
        <ele>495</ele>
        <time>2015-10-25T09:14:16Z</time>
      </trkpt>
      <trkpt lat="43.73769" lon="3.49665">
        <ele>494</ele>
        <time>2015-10-25T09:14:17Z</time>
      </trkpt>
      <trkpt lat="43.73763" lon="3.49656">
        <ele>493</ele>
        <time>2015-10-25T09:14:18Z</time>
      </trkpt>
      <trkpt lat="43.73758" lon="3.49647">
        <ele>492</ele>
        <time>2015-10-25T09:14:19Z</time>
      </trkpt>
      <trkpt lat="43.73752" lon="3.49638">
        <ele>491.5</ele>
        <time>2015-10-25T09:14:20Z</time>
      </trkpt>
      <trkpt lat="43.73746" lon="3.49629">
        <ele>491</ele>
        <time>2015-10-25T09:14:21Z</time>
      </trkpt>
      <trkpt lat="43.73741" lon="3.4962">
        <ele>490.5</ele>
        <time>2015-10-25T09:14:22Z</time>
      </trkpt>
      <trkpt lat="43.73735" lon="3.49611">
        <ele>490.5</ele>
        <time>2015-10-25T09:14:23Z</time>
      </trkpt>
      <trkpt lat="43.73729" lon="3.49601">
        <ele>489.5</ele>
        <time>2015-10-25T09:14:24Z</time>
      </trkpt>
      <trkpt lat="43.73723" lon="3.49593">
        <ele>488</ele>
        <time>2015-10-25T09:14:25Z</time>
      </trkpt>
      <trkpt lat="43.73716" lon="3.49585">
        <ele>487</ele>
        <time>2015-10-25T09:14:26Z</time>
      </trkpt>
      <trkpt lat="43.73702" lon="3.49571">
        <ele>485.5</ele>
        <time>2015-10-25T09:14:28Z</time>
      </trkpt>
      <trkpt lat="43.73695" lon="3.49565">
        <ele>485</ele>
        <time>2015-10-25T09:14:29Z</time>
      </trkpt>
      <trkpt lat="43.73689" lon="3.49555">
        <ele>485.5</ele>
        <time>2015-10-25T09:14:30Z</time>
      </trkpt>
      <trkpt lat="43.73681" lon="3.49547">
        <ele>485</ele>
        <time>2015-10-25T09:14:31Z</time>
      </trkpt>
      <trkpt lat="43.73674" lon="3.4954">
        <ele>484</ele>
        <time>2015-10-25T09:14:32Z</time>
      </trkpt>
      <trkpt lat="43.73667" lon="3.49531">
        <ele>483</ele>
        <time>2015-10-25T09:14:33Z</time>
      </trkpt>
      <trkpt lat="43.7366" lon="3.49524">
        <ele>481.5</ele>
        <time>2015-10-25T09:14:34Z</time>
      </trkpt>
      <trkpt lat="43.73653" lon="3.49516">
        <ele>479.5</ele>
        <time>2015-10-25T09:14:35Z</time>
      </trkpt>
      <trkpt lat="43.73646" lon="3.49509">
        <ele>478.5</ele>
        <time>2015-10-25T09:14:36Z</time>
      </trkpt>
      <trkpt lat="43.73639" lon="3.49502">
        <ele>476.5</ele>
        <time>2015-10-25T09:14:37Z</time>
      </trkpt>
      <trkpt lat="43.73633" lon="3.49493">
        <ele>475.5</ele>
        <time>2015-10-25T09:14:38Z</time>
      </trkpt>
      <trkpt lat="43.73631" lon="3.49481">
        <ele>475</ele>
        <time>2015-10-25T09:14:39Z</time>
      </trkpt>
      <trkpt lat="43.73628" lon="3.4947">
        <ele>474</ele>
        <time>2015-10-25T09:14:40Z</time>
      </trkpt>
      <trkpt lat="43.73627" lon="3.49458">
        <ele>473.5</ele>
        <time>2015-10-25T09:14:41Z</time>
      </trkpt>
      <trkpt lat="43.73626" lon="3.49445">
        <ele>473</ele>
        <time>2015-10-25T09:14:42Z</time>
      </trkpt>
      <trkpt lat="43.73621" lon="3.49435">
        <ele>472.5</ele>
        <time>2015-10-25T09:14:43Z</time>
      </trkpt>
      <trkpt lat="43.73614" lon="3.49427">
        <ele>472.5</ele>
        <time>2015-10-25T09:14:44Z</time>
      </trkpt>
      <trkpt lat="43.73607" lon="3.49417">
        <ele>471.5</ele>
        <time>2015-10-25T09:14:45Z</time>
      </trkpt>
      <trkpt lat="43.73601" lon="3.49407">
        <ele>471.5</ele>
        <time>2015-10-25T09:14:46Z</time>
      </trkpt>
      <trkpt lat="43.73595" lon="3.49395">
        <ele>470.5</ele>
        <time>2015-10-25T09:14:47Z</time>
      </trkpt>
      <trkpt lat="43.7359" lon="3.49383">
        <ele>468.5</ele>
        <time>2015-10-25T09:14:48Z</time>
      </trkpt>
      <trkpt lat="43.73585" lon="3.4937">
        <ele>468</ele>
        <time>2015-10-25T09:14:49Z</time>
      </trkpt>
      <trkpt lat="43.73579" lon="3.4936">
        <ele>468</ele>
        <time>2015-10-25T09:14:50Z</time>
      </trkpt>
      <trkpt lat="43.73572" lon="3.49352">
        <ele>467.5</ele>
        <time>2015-10-25T09:14:51Z</time>
      </trkpt>
      <trkpt lat="43.73563" lon="3.49349">
        <ele>467</ele>
        <time>2015-10-25T09:14:52Z</time>
      </trkpt>
      <trkpt lat="43.73556" lon="3.49344">
        <ele>466</ele>
        <time>2015-10-25T09:14:53Z</time>
      </trkpt>
      <trkpt lat="43.73549" lon="3.49336">
        <ele>465.5</ele>
        <time>2015-10-25T09:14:54Z</time>
      </trkpt>
      <trkpt lat="43.73542" lon="3.49328">
        <ele>465</ele>
        <time>2015-10-25T09:14:55Z</time>
      </trkpt>
      <trkpt lat="43.73535" lon="3.49319">
        <ele>465</ele>
        <time>2015-10-25T09:14:56Z</time>
      </trkpt>
      <trkpt lat="43.73528" lon="3.49309">
        <ele>464.5</ele>
        <time>2015-10-25T09:14:57Z</time>
      </trkpt>
      <trkpt lat="43.7352" lon="3.493">
        <ele>464</ele>
        <time>2015-10-25T09:14:58Z</time>
      </trkpt>
      <trkpt lat="43.73513" lon="3.4929">
        <ele>462.5</ele>
        <time>2015-10-25T09:14:59Z</time>
      </trkpt>
      <trkpt lat="43.73506" lon="3.4928">
        <ele>460.5</ele>
        <time>2015-10-25T09:15:00Z</time>
      </trkpt>
      <trkpt lat="43.73499" lon="3.4927">
        <ele>459</ele>
        <time>2015-10-25T09:15:01Z</time>
      </trkpt>
      <trkpt lat="43.73493" lon="3.49259">
        <ele>458.5</ele>
        <time>2015-10-25T09:15:02Z</time>
      </trkpt>
      <trkpt lat="43.73485" lon="3.4925">
        <ele>458.5</ele>
        <time>2015-10-25T09:15:03Z</time>
      </trkpt>
      <trkpt lat="43.73478" lon="3.49239">
        <ele>458</ele>
        <time>2015-10-25T09:15:04Z</time>
      </trkpt>
      <trkpt lat="43.73472" lon="3.49228">
        <ele>457.5</ele>
        <time>2015-10-25T09:15:05Z</time>
      </trkpt>
      <trkpt lat="43.73465" lon="3.49217">
        <ele>456.5</ele>
        <time>2015-10-25T09:15:06Z</time>
      </trkpt>
      <trkpt lat="43.73458" lon="3.49205">
        <ele>454.5</ele>
        <time>2015-10-25T09:15:07Z</time>
      </trkpt>
      <trkpt lat="43.73451" lon="3.49195">
        <ele>453</ele>
        <time>2015-10-25T09:15:08Z</time>
      </trkpt>
      <trkpt lat="43.73444" lon="3.49184">
        <ele>452.5</ele>
        <time>2015-10-25T09:15:09Z</time>
      </trkpt>
      <trkpt lat="43.73436" lon="3.49172">
        <ele>451.5</ele>
        <time>2015-10-25T09:15:10Z</time>
      </trkpt>
      <trkpt lat="43.73427" lon="3.49162">
        <ele>451.5</ele>
        <time>2015-10-25T09:15:11Z</time>
      </trkpt>
      <trkpt lat="43.73417" lon="3.49154">
        <ele>451</ele>
        <time>2015-10-25T09:15:12Z</time>
      </trkpt>
      <trkpt lat="43.73406" lon="3.49147">
        <ele>451</ele>
        <time>2015-10-25T09:15:13Z</time>
      </trkpt>
      <trkpt lat="43.73395" lon="3.49139">
        <ele>451</ele>
        <time>2015-10-25T09:15:14Z</time>
      </trkpt>
      <trkpt lat="43.73384" lon="3.49131">
        <ele>450.5</ele>
        <time>2015-10-25T09:15:15Z</time>
      </trkpt>
      <trkpt lat="43.73373" lon="3.49123">
        <ele>449</ele>
        <time>2015-10-25T09:15:16Z</time>
      </trkpt>
      <trkpt lat="43.73362" lon="3.49115">
        <ele>447.5</ele>
        <time>2015-10-25T09:15:17Z</time>
      </trkpt>
      <trkpt lat="43.73352" lon="3.49108">
        <ele>446</ele>
        <time>2015-10-25T09:15:18Z</time>
      </trkpt>
      <trkpt lat="43.73342" lon="3.49101">
        <ele>444.5</ele>
        <time>2015-10-25T09:15:19Z</time>
      </trkpt>
      <trkpt lat="43.73333" lon="3.49095">
        <ele>444</ele>
        <time>2015-10-25T09:15:20Z</time>
      </trkpt>
      <trkpt lat="43.73314" lon="3.49073">
        <ele>441</ele>
        <time>2015-10-25T09:15:22Z</time>
      </trkpt>
      <trkpt lat="43.73305" lon="3.49062">
        <ele>441</ele>
        <time>2015-10-25T09:15:23Z</time>
      </trkpt>
      <trkpt lat="43.73296" lon="3.4905">
        <ele>438.5</ele>
        <time>2015-10-25T09:15:24Z</time>
      </trkpt>
      <trkpt lat="43.73287" lon="3.49038">
        <ele>437.5</ele>
        <time>2015-10-25T09:15:25Z</time>
      </trkpt>
      <trkpt lat="43.73273" lon="3.49018">
        <ele>436</ele>
        <time>2015-10-25T09:15:27Z</time>
      </trkpt>
      <trkpt lat="43.73268" lon="3.49009">
        <ele>434.5</ele>
        <time>2015-10-25T09:15:28Z</time>
      </trkpt>
      <trkpt lat="43.73259" lon="3.49003">
        <ele>434</ele>
        <time>2015-10-25T09:15:30Z</time>
      </trkpt>
      <trkpt lat="43.73255" lon="3.49006">
        <ele>434</ele>
        <time>2015-10-25T09:15:31Z</time>
      </trkpt>
      <trkpt lat="43.73254" lon="3.49012">
        <ele>433.5</ele>
        <time>2015-10-25T09:15:32Z</time>
      </trkpt>
      <trkpt lat="43.73254" lon="3.4902">
        <ele>433</ele>
        <time>2015-10-25T09:15:33Z</time>
      </trkpt>
      <trkpt lat="43.73255" lon="3.49029">
        <ele>432.5</ele>
        <time>2015-10-25T09:15:34Z</time>
      </trkpt>
      <trkpt lat="43.73256" lon="3.49038">
        <ele>432</ele>
        <time>2015-10-25T09:15:35Z</time>
      </trkpt>
      <trkpt lat="43.73256" lon="3.4905">
        <ele>432</ele>
        <time>2015-10-25T09:15:36Z</time>
      </trkpt>
      <trkpt lat="43.73257" lon="3.49061">
        <ele>432</ele>
        <time>2015-10-25T09:15:37Z</time>
      </trkpt>
      <trkpt lat="43.73259" lon="3.49071">
        <ele>432</ele>
        <time>2015-10-25T09:15:38Z</time>
      </trkpt>
      <trkpt lat="43.7326" lon="3.49081">
        <ele>432</ele>
        <time>2015-10-25T09:15:39Z</time>
      </trkpt>
      <trkpt lat="43.73261" lon="3.49091">
        <ele>431.5</ele>
        <time>2015-10-25T09:15:40Z</time>
      </trkpt>
      <trkpt lat="43.73262" lon="3.49101">
        <ele>433</ele>
        <time>2015-10-25T09:15:41Z</time>
      </trkpt>
      <trkpt lat="43.73265" lon="3.49113">
        <ele>434</ele>
        <time>2015-10-25T09:15:43Z</time>
      </trkpt>
      <trkpt lat="43.73267" lon="3.49119">
        <ele>436</ele>
        <time>2015-10-25T09:15:44Z</time>
      </trkpt>
      <trkpt lat="43.73273" lon="3.49137">
        <ele>433.5</ele>
        <time>2015-10-25T09:15:46Z</time>
      </trkpt>
      <trkpt lat="43.73276" lon="3.49146">
        <ele>433</ele>
        <time>2015-10-25T09:15:47Z</time>
      </trkpt>
      <trkpt lat="43.7328" lon="3.49156">
        <ele>432</ele>
        <time>2015-10-25T09:15:48Z</time>
      </trkpt>
      <trkpt lat="43.7328" lon="3.49167">
        <ele>431.5</ele>
        <time>2015-10-25T09:15:49Z</time>
      </trkpt>
      <trkpt lat="43.7328" lon="3.49179">
        <ele>431.5</ele>
        <time>2015-10-25T09:15:50Z</time>
      </trkpt>
      <trkpt lat="43.73279" lon="3.4919">
        <ele>430.5</ele>
        <time>2015-10-25T09:15:51Z</time>
      </trkpt>
      <trkpt lat="43.73278" lon="3.49202">
        <ele>428.5</ele>
        <time>2015-10-25T09:15:51Z</time>
      </trkpt>
      <trkpt lat="43.73276" lon="3.49214">
        <ele>427.5</ele>
        <time>2015-10-25T09:15:52Z</time>
      </trkpt>
      <trkpt lat="43.73271" lon="3.49225">
        <ele>426.5</ele>
        <time>2015-10-25T09:15:53Z</time>
      </trkpt>
      <trkpt lat="43.73262" lon="3.49238">
        <ele>425.5</ele>
        <time>2015-10-25T09:15:55Z</time>
      </trkpt>
      <trkpt lat="43.73256" lon="3.49239">
        <ele>424.5</ele>
        <time>2015-10-25T09:15:56Z</time>
      </trkpt>
      <trkpt lat="43.73249" lon="3.49236">
        <ele>424.5</ele>
        <time>2015-10-25T09:15:57Z</time>
      </trkpt>
      <trkpt lat="43.7324" lon="3.49227">
        <ele>424</ele>
        <time>2015-10-25T09:15:59Z</time>
      </trkpt>
      <trkpt lat="43.73235" lon="3.49223">
        <ele>425</ele>
        <time>2015-10-25T09:16:00Z</time>
      </trkpt>
      <trkpt lat="43.7323" lon="3.49219">
        <ele>425</ele>
        <time>2015-10-25T09:16:01Z</time>
      </trkpt>
      <trkpt lat="43.73225" lon="3.49216">
        <ele>425.5</ele>
        <time>2015-10-25T09:16:02Z</time>
      </trkpt>
      <trkpt lat="43.7322" lon="3.49212">
        <ele>424.5</ele>
        <time>2015-10-25T09:16:03Z</time>
      </trkpt>
      <trkpt lat="43.73216" lon="3.49207">
        <ele>423.5</ele>
        <time>2015-10-25T09:16:04Z</time>
      </trkpt>
      <trkpt lat="43.73211" lon="3.49201">
        <ele>423.5</ele>
        <time>2015-10-25T09:16:05Z</time>
      </trkpt>
      <trkpt lat="43.7321" lon="3.49192">
        <ele>423</ele>
        <time>2015-10-25T09:16:06Z</time>
      </trkpt>
      <trkpt lat="43.73209" lon="3.49179">
        <ele>423.5</ele>
        <time>2015-10-25T09:16:08Z</time>
      </trkpt>
      <trkpt lat="43.73208" lon="3.49172">
        <ele>424</ele>
        <time>2015-10-25T09:16:09Z</time>
      </trkpt>
      <trkpt lat="43.73206" lon="3.49165">
        <ele>425</ele>
        <time>2015-10-25T09:16:10Z</time>
      </trkpt>
      <trkpt lat="43.73203" lon="3.4916">
        <ele>425</ele>
        <time>2015-10-25T09:16:11Z</time>
      </trkpt>
      <trkpt lat="43.732" lon="3.49157">
        <ele>426</ele>
        <time>2015-10-25T09:16:12Z</time>
      </trkpt>
      <trkpt lat="43.73196" lon="3.49153">
        <ele>426.5</ele>
        <time>2015-10-25T09:16:13Z</time>
      </trkpt>
      <trkpt lat="43.73193" lon="3.49148">
        <ele>426</ele>
        <time>2015-10-25T09:16:14Z</time>
      </trkpt>
      <trkpt lat="43.7319" lon="3.49144">
        <ele>426</ele>
        <time>2015-10-25T09:16:15Z</time>
      </trkpt>
      <trkpt lat="43.73187" lon="3.49138">
        <ele>426.5</ele>
        <time>2015-10-25T09:16:16Z</time>
      </trkpt>
      <trkpt lat="43.73186" lon="3.49133">
        <ele>426.5</ele>
        <time>2015-10-25T09:16:17Z</time>
      </trkpt>
      <trkpt lat="43.73185" lon="3.49128">
        <ele>426.5</ele>
        <time>2015-10-25T09:16:18Z</time>
      </trkpt>
      <trkpt lat="43.73183" lon="3.49123">
        <ele>427</ele>
        <time>2015-10-25T09:16:19Z</time>
      </trkpt>
      <trkpt lat="43.73182" lon="3.49119">
        <ele>428</ele>
        <time>2015-10-25T09:16:20Z</time>
      </trkpt>
      <trkpt lat="43.7318" lon="3.49114">
        <ele>427.5</ele>
        <time>2015-10-25T09:16:21Z</time>
      </trkpt>
      <trkpt lat="43.73177" lon="3.49109">
        <ele>427.5</ele>
        <time>2015-10-25T09:16:22Z</time>
      </trkpt>
      <trkpt lat="43.73175" lon="3.49105">
        <ele>427</ele>
        <time>2015-10-25T09:16:23Z</time>
      </trkpt>
      <trkpt lat="43.73172" lon="3.49099">
        <ele>427.5</ele>
        <time>2015-10-25T09:16:24Z</time>
      </trkpt>
      <trkpt lat="43.73169" lon="3.49095">
        <ele>427.5</ele>
        <time>2015-10-25T09:16:25Z</time>
      </trkpt>
      <trkpt lat="43.73166" lon="3.49092">
        <ele>428</ele>
        <time>2015-10-25T09:16:26Z</time>
      </trkpt>
      <trkpt lat="43.73162" lon="3.49089">
        <ele>428</ele>
        <time>2015-10-25T09:16:27Z</time>
      </trkpt>
      <trkpt lat="43.73159" lon="3.49086">
        <ele>429</ele>
        <time>2015-10-25T09:16:28Z</time>
      </trkpt>
      <trkpt lat="43.73155" lon="3.49083">
        <ele>429.5</ele>
        <time>2015-10-25T09:16:29Z</time>
      </trkpt>
      <trkpt lat="43.73152" lon="3.4908">
        <ele>431</ele>
        <time>2015-10-25T09:16:30Z</time>
      </trkpt>
      <trkpt lat="43.7315" lon="3.49077">
        <ele>432.5</ele>
        <time>2015-10-25T09:16:31Z</time>
      </trkpt>
      <trkpt lat="43.73147" lon="3.49075">
        <ele>433.5</ele>
        <time>2015-10-25T09:16:32Z</time>
      </trkpt>
      <trkpt lat="43.73144" lon="3.49074">
        <ele>435</ele>
        <time>2015-10-25T09:16:33Z</time>
      </trkpt>
      <trkpt lat="43.73141" lon="3.49071">
        <ele>434.5</ele>
        <time>2015-10-25T09:16:34Z</time>
      </trkpt>
      <trkpt lat="43.73138" lon="3.49069">
        <ele>434</ele>
        <time>2015-10-25T09:16:35Z</time>
      </trkpt>
      <trkpt lat="43.73135" lon="3.49067">
        <ele>434</ele>
        <time>2015-10-25T09:16:36Z</time>
      </trkpt>
      <trkpt lat="43.73132" lon="3.49065">
        <ele>433.5</ele>
        <time>2015-10-25T09:16:37Z</time>
      </trkpt>
      <trkpt lat="43.73128" lon="3.49063">
        <ele>433</ele>
        <time>2015-10-25T09:16:38Z</time>
      </trkpt>
      <trkpt lat="43.73124" lon="3.49061">
        <ele>432.5</ele>
        <time>2015-10-25T09:16:39Z</time>
      </trkpt>
      <trkpt lat="43.7312" lon="3.49059">
        <ele>432.5</ele>
        <time>2015-10-25T09:16:40Z</time>
      </trkpt>
      <trkpt lat="43.73115" lon="3.49057">
        <ele>432.5</ele>
        <time>2015-10-25T09:16:41Z</time>
      </trkpt>
      <trkpt lat="43.73111" lon="3.49055">
        <ele>432</ele>
        <time>2015-10-25T09:16:42Z</time>
      </trkpt>
      <trkpt lat="43.73105" lon="3.49054">
        <ele>431</ele>
        <time>2015-10-25T09:16:43Z</time>
      </trkpt>
      <trkpt lat="43.731" lon="3.49053">
        <ele>430.5</ele>
        <time>2015-10-25T09:16:44Z</time>
      </trkpt>
      <trkpt lat="43.73095" lon="3.49053">
        <ele>429.5</ele>
        <time>2015-10-25T09:16:45Z</time>
      </trkpt>
      <trkpt lat="43.7309" lon="3.49054">
        <ele>430</ele>
        <time>2015-10-25T09:16:46Z</time>
      </trkpt>
      <trkpt lat="43.73086" lon="3.49057">
        <ele>429.5</ele>
        <time>2015-10-25T09:16:47Z</time>
      </trkpt>
      <trkpt lat="43.7308" lon="3.4906">
        <ele>428.5</ele>
        <time>2015-10-25T09:16:48Z</time>
      </trkpt>
      <trkpt lat="43.73075" lon="3.49063">
        <ele>428.5</ele>
        <time>2015-10-25T09:16:49Z</time>
      </trkpt>
      <trkpt lat="43.73069" lon="3.49065">
        <ele>427.5</ele>
        <time>2015-10-25T09:16:50Z</time>
      </trkpt>
      <trkpt lat="43.73064" lon="3.49068">
        <ele>427.5</ele>
        <time>2015-10-25T09:16:51Z</time>
      </trkpt>
      <trkpt lat="43.73058" lon="3.49071">
        <ele>427</ele>
        <time>2015-10-25T09:16:52Z</time>
      </trkpt>
      <trkpt lat="43.73053" lon="3.49074">
        <ele>426.5</ele>
        <time>2015-10-25T09:16:53Z</time>
      </trkpt>
      <trkpt lat="43.73047" lon="3.49076">
        <ele>426.5</ele>
        <time>2015-10-25T09:16:54Z</time>
      </trkpt>
      <trkpt lat="43.73042" lon="3.49079">
        <ele>426.5</ele>
        <time>2015-10-25T09:16:55Z</time>
      </trkpt>
      <trkpt lat="43.73037" lon="3.49082">
        <ele>427</ele>
        <time>2015-10-25T09:16:56Z</time>
      </trkpt>
      <trkpt lat="43.73031" lon="3.49084">
        <ele>426.5</ele>
        <time>2015-10-25T09:16:57Z</time>
      </trkpt>
      <trkpt lat="43.73026" lon="3.49087">
        <ele>425</ele>
        <time>2015-10-25T09:16:58Z</time>
      </trkpt>
      <trkpt lat="43.73021" lon="3.49091">
        <ele>425</ele>
        <time>2015-10-25T09:16:59Z</time>
      </trkpt>
      <trkpt lat="43.73017" lon="3.49095">
        <ele>423.5</ele>
        <time>2015-10-25T09:17:00Z</time>
      </trkpt>
      <trkpt lat="43.73013" lon="3.49101">
        <ele>423.5</ele>
        <time>2015-10-25T09:17:01Z</time>
      </trkpt>
      <trkpt lat="43.7301" lon="3.49107">
        <ele>423.5</ele>
        <time>2015-10-25T09:17:02Z</time>
      </trkpt>
      <trkpt lat="43.73005" lon="3.49113">
        <ele>423</ele>
        <time>2015-10-25T09:17:03Z</time>
      </trkpt>
      <trkpt lat="43.73002" lon="3.49119">
        <ele>423</ele>
        <time>2015-10-25T09:17:04Z</time>
      </trkpt>
      <trkpt lat="43.72998" lon="3.49126">
        <ele>422.5</ele>
        <time>2015-10-25T09:17:05Z</time>
      </trkpt>
      <trkpt lat="43.72995" lon="3.49132">
        <ele>422</ele>
        <time>2015-10-25T09:17:06Z</time>
      </trkpt>
      <trkpt lat="43.72993" lon="3.4914">
        <ele>422.5</ele>
        <time>2015-10-25T09:17:07Z</time>
      </trkpt>
      <trkpt lat="43.72992" lon="3.49147">
        <ele>422.5</ele>
        <time>2015-10-25T09:17:08Z</time>
      </trkpt>
      <trkpt lat="43.7299" lon="3.49154">
        <ele>422.5</ele>
        <time>2015-10-25T09:17:09Z</time>
      </trkpt>
      <trkpt lat="43.72988" lon="3.49161">
        <ele>422</ele>
        <time>2015-10-25T09:17:10Z</time>
      </trkpt>
      <trkpt lat="43.72987" lon="3.49169">
        <ele>422</ele>
        <time>2015-10-25T09:17:11Z</time>
      </trkpt>
      <trkpt lat="43.72985" lon="3.49177">
        <ele>421.5</ele>
        <time>2015-10-25T09:17:12Z</time>
      </trkpt>
      <trkpt lat="43.72979" lon="3.49182">
        <ele>422</ele>
        <time>2015-10-25T09:17:13Z</time>
      </trkpt>
      <trkpt lat="43.72968" lon="3.49184">
        <ele>421.5</ele>
        <time>2015-10-25T09:17:15Z</time>
      </trkpt>
      <trkpt lat="43.72959" lon="3.4918">
        <ele>420.5</ele>
        <time>2015-10-25T09:17:17Z</time>
      </trkpt>
      <trkpt lat="43.72953" lon="3.49178">
        <ele>420.5</ele>
        <time>2015-10-25T09:17:18Z</time>
      </trkpt>
      <trkpt lat="43.72947" lon="3.49176">
        <ele>419.5</ele>
        <time>2015-10-25T09:17:19Z</time>
      </trkpt>
      <trkpt lat="43.72941" lon="3.49173">
        <ele>419</ele>
        <time>2015-10-25T09:17:20Z</time>
      </trkpt>
      <trkpt lat="43.72934" lon="3.49171">
        <ele>417</ele>
        <time>2015-10-25T09:17:21Z</time>
      </trkpt>
      <trkpt lat="43.72928" lon="3.49164">
        <ele>416.5</ele>
        <time>2015-10-25T09:17:22Z</time>
      </trkpt>
      <trkpt lat="43.72924" lon="3.49157">
        <ele>417</ele>
        <time>2015-10-25T09:17:23Z</time>
      </trkpt>
      <trkpt lat="43.72921" lon="3.49149">
        <ele>416</ele>
        <time>2015-10-25T09:17:24Z</time>
      </trkpt>
      <trkpt lat="43.72916" lon="3.49142">
        <ele>415.5</ele>
        <time>2015-10-25T09:17:25Z</time>
      </trkpt>
      <trkpt lat="43.72911" lon="3.49136">
        <ele>415.5</ele>
        <time>2015-10-25T09:17:26Z</time>
      </trkpt>
      <trkpt lat="43.72905" lon="3.49135">
        <ele>415</ele>
        <time>2015-10-25T09:17:27Z</time>
      </trkpt>
      <trkpt lat="43.72898" lon="3.49132">
        <ele>414.5</ele>
        <time>2015-10-25T09:17:28Z</time>
      </trkpt>
      <trkpt lat="43.72892" lon="3.49129">
        <ele>414.5</ele>
        <time>2015-10-25T09:17:29Z</time>
      </trkpt>
      <trkpt lat="43.72885" lon="3.49126">
        <ele>414.5</ele>
        <time>2015-10-25T09:17:30Z</time>
      </trkpt>
      <trkpt lat="43.72877" lon="3.49123">
        <ele>414.5</ele>
        <time>2015-10-25T09:17:31Z</time>
      </trkpt>
      <trkpt lat="43.72871" lon="3.49119">
        <ele>413.5</ele>
        <time>2015-10-25T09:17:32Z</time>
      </trkpt>
      <trkpt lat="43.72864" lon="3.49115">
        <ele>412.5</ele>
        <time>2015-10-25T09:17:33Z</time>
      </trkpt>
      <trkpt lat="43.72858" lon="3.49111">
        <ele>412.5</ele>
        <time>2015-10-25T09:17:34Z</time>
      </trkpt>
      <trkpt lat="43.72852" lon="3.49106">
        <ele>411.5</ele>
        <time>2015-10-25T09:17:35Z</time>
      </trkpt>
      <trkpt lat="43.72846" lon="3.49101">
        <ele>411</ele>
        <time>2015-10-25T09:17:36Z</time>
      </trkpt>
      <trkpt lat="43.72841" lon="3.49095">
        <ele>411</ele>
        <time>2015-10-25T09:17:37Z</time>
      </trkpt>
      <trkpt lat="43.72836" lon="3.49091">
        <ele>411</ele>
        <time>2015-10-25T09:17:38Z</time>
      </trkpt>
      <trkpt lat="43.72831" lon="3.49089">
        <ele>411</ele>
        <time>2015-10-25T09:17:39Z</time>
      </trkpt>
      <trkpt lat="43.72827" lon="3.49084">
        <ele>411.5</ele>
        <time>2015-10-25T09:17:40Z</time>
      </trkpt>
      <trkpt lat="43.72823" lon="3.49082">
        <ele>411.5</ele>
        <time>2015-10-25T09:17:41Z</time>
      </trkpt>
      <trkpt lat="43.72819" lon="3.4908">
        <ele>413</ele>
        <time>2015-10-25T09:17:42Z</time>
      </trkpt>
      <trkpt lat="43.72815" lon="3.49081">
        <ele>413.5</ele>
        <time>2015-10-25T09:17:43Z</time>
      </trkpt>
      <trkpt lat="43.72811" lon="3.49082">
        <ele>413.5</ele>
        <time>2015-10-25T09:17:44Z</time>
      </trkpt>
      <trkpt lat="43.72807" lon="3.49082">
        <ele>414.5</ele>
        <time>2015-10-25T09:17:45Z</time>
      </trkpt>
      <trkpt lat="43.72802" lon="3.49082">
        <ele>414</ele>
        <time>2015-10-25T09:17:46Z</time>
      </trkpt>
      <trkpt lat="43.72798" lon="3.49081">
        <ele>414</ele>
        <time>2015-10-25T09:17:47Z</time>
      </trkpt>
      <trkpt lat="43.72794" lon="3.4908">
        <ele>414</ele>
        <time>2015-10-25T09:17:48Z</time>
      </trkpt>
      <trkpt lat="43.7279" lon="3.4908">
        <ele>413</ele>
        <time>2015-10-25T09:17:49Z</time>
      </trkpt>
      <trkpt lat="43.72786" lon="3.49079">
        <ele>411.5</ele>
        <time>2015-10-25T09:17:50Z</time>
      </trkpt>
      <trkpt lat="43.72781" lon="3.49078">
        <ele>410.5</ele>
        <time>2015-10-25T09:17:51Z</time>
      </trkpt>
      <trkpt lat="43.72775" lon="3.49077">
        <ele>410</ele>
        <time>2015-10-25T09:17:52Z</time>
      </trkpt>
      <trkpt lat="43.7277" lon="3.49072">
        <ele>409.5</ele>
        <time>2015-10-25T09:17:53Z</time>
      </trkpt>
      <trkpt lat="43.72767" lon="3.49067">
        <ele>409</ele>
        <time>2015-10-25T09:17:54Z</time>
      </trkpt>
      <trkpt lat="43.72763" lon="3.49061">
        <ele>409.5</ele>
        <time>2015-10-25T09:17:55Z</time>
      </trkpt>
      <trkpt lat="43.7276" lon="3.49056">
        <ele>409.5</ele>
        <time>2015-10-25T09:17:56Z</time>
      </trkpt>
      <trkpt lat="43.72757" lon="3.49051">
        <ele>408.5</ele>
        <time>2015-10-25T09:17:57Z</time>
      </trkpt>
      <trkpt lat="43.72753" lon="3.49045">
        <ele>408</ele>
        <time>2015-10-25T09:17:58Z</time>
      </trkpt>
      <trkpt lat="43.7275" lon="3.4904">
        <ele>407</ele>
        <time>2015-10-25T09:17:59Z</time>
      </trkpt>
      <trkpt lat="43.72746" lon="3.49034">
        <ele>406.5</ele>
        <time>2015-10-25T09:18:00Z</time>
      </trkpt>
      <trkpt lat="43.72742" lon="3.49029">
        <ele>406.5</ele>
        <time>2015-10-25T09:18:01Z</time>
      </trkpt>
      <trkpt lat="43.72736" lon="3.49027">
        <ele>406</ele>
        <time>2015-10-25T09:18:02Z</time>
      </trkpt>
      <trkpt lat="43.72729" lon="3.49027">
        <ele>407.5</ele>
        <time>2015-10-25T09:18:03Z</time>
      </trkpt>
      <trkpt lat="43.72724" lon="3.49029">
        <ele>408</ele>
        <time>2015-10-25T09:18:04Z</time>
      </trkpt>
      <trkpt lat="43.72716" lon="3.49031">
        <ele>407.5</ele>
        <time>2015-10-25T09:18:05Z</time>
      </trkpt>
      <trkpt lat="43.72703" lon="3.49033">
        <ele>408.5</ele>
        <time>2015-10-25T09:18:07Z</time>
      </trkpt>
      <trkpt lat="43.72697" lon="3.49031">
        <ele>408.5</ele>
        <time>2015-10-25T09:18:08Z</time>
      </trkpt>
      <trkpt lat="43.72691" lon="3.49027">
        <ele>408.5</ele>
        <time>2015-10-25T09:18:09Z</time>
      </trkpt>
      <trkpt lat="43.72685" lon="3.49023">
        <ele>408.5</ele>
        <time>2015-10-25T09:18:10Z</time>
      </trkpt>
      <trkpt lat="43.72679" lon="3.49019">
        <ele>409</ele>
        <time>2015-10-25T09:18:11Z</time>
      </trkpt>
      <trkpt lat="43.72673" lon="3.49017">
        <ele>409.5</ele>
        <time>2015-10-25T09:18:12Z</time>
      </trkpt>
      <trkpt lat="43.72667" lon="3.49013">
        <ele>409</ele>
        <time>2015-10-25T09:18:13Z</time>
      </trkpt>
      <trkpt lat="43.72661" lon="3.49008">
        <ele>408.5</ele>
        <time>2015-10-25T09:18:14Z</time>
      </trkpt>
      <trkpt lat="43.72655" lon="3.49004">
        <ele>407.5</ele>
        <time>2015-10-25T09:18:15Z</time>
      </trkpt>
      <trkpt lat="43.72648" lon="3.48998">
        <ele>407.5</ele>
        <time>2015-10-25T09:18:16Z</time>
      </trkpt>
      <trkpt lat="43.72642" lon="3.48992">
        <ele>407</ele>
        <time>2015-10-25T09:18:17Z</time>
      </trkpt>
      <trkpt lat="43.72636" lon="3.48984">
        <ele>408</ele>
        <time>2015-10-25T09:18:18Z</time>
      </trkpt>
      <trkpt lat="43.72629" lon="3.48978">
        <ele>408.5</ele>
        <time>2015-10-25T09:18:19Z</time>
      </trkpt>
      <trkpt lat="43.72622" lon="3.48975">
        <ele>408.5</ele>
        <time>2015-10-25T09:18:20Z</time>
      </trkpt>
      <trkpt lat="43.72616" lon="3.48972">
        <ele>408.5</ele>
        <time>2015-10-25T09:18:21Z</time>
      </trkpt>
      <trkpt lat="43.72609" lon="3.4897">
        <ele>408.5</ele>
        <time>2015-10-25T09:18:22Z</time>
      </trkpt>
      <trkpt lat="43.72603" lon="3.48971">
        <ele>408</ele>
        <time>2015-10-25T09:18:23Z</time>
      </trkpt>
      <trkpt lat="43.72597" lon="3.48973">
        <ele>409</ele>
        <time>2015-10-25T09:18:24Z</time>
      </trkpt>
      <trkpt lat="43.72591" lon="3.48974">
        <ele>410.5</ele>
        <time>2015-10-25T09:18:25Z</time>
      </trkpt>
      <trkpt lat="43.72585" lon="3.48976">
        <ele>410.5</ele>
        <time>2015-10-25T09:18:26Z</time>
      </trkpt>
      <trkpt lat="43.7258" lon="3.48978">
        <ele>411</ele>
        <time>2015-10-25T09:18:27Z</time>
      </trkpt>
      <trkpt lat="43.72575" lon="3.48979">
        <ele>410.5</ele>
        <time>2015-10-25T09:18:28Z</time>
      </trkpt>
      <trkpt lat="43.72571" lon="3.48982">
        <ele>409.5</ele>
        <time>2015-10-25T09:18:29Z</time>
      </trkpt>
      <trkpt lat="43.72566" lon="3.48985">
        <ele>409.5</ele>
        <time>2015-10-25T09:18:30Z</time>
      </trkpt>
      <trkpt lat="43.72561" lon="3.48988">
        <ele>408</ele>
        <time>2015-10-25T09:18:31Z</time>
      </trkpt>
      <trkpt lat="43.72557" lon="3.48993">
        <ele>409</ele>
        <time>2015-10-25T09:18:32Z</time>
      </trkpt>
      <trkpt lat="43.72552" lon="3.48997">
        <ele>409</ele>
        <time>2015-10-25T09:18:33Z</time>
      </trkpt>
      <trkpt lat="43.72547" lon="3.49">
        <ele>409</ele>
        <time>2015-10-25T09:18:34Z</time>
      </trkpt>
      <trkpt lat="43.72542" lon="3.49004">
        <ele>409</ele>
        <time>2015-10-25T09:18:35Z</time>
      </trkpt>
      <trkpt lat="43.72539" lon="3.49007">
        <ele>410.5</ele>
        <time>2015-10-25T09:18:36Z</time>
      </trkpt>
      <trkpt lat="43.72528" lon="3.49008">
        <ele>411</ele>
        <time>2015-10-25T09:18:38Z</time>
      </trkpt>
      <trkpt lat="43.72522" lon="3.49008">
        <ele>410.5</ele>
        <time>2015-10-25T09:18:39Z</time>
      </trkpt>
      <trkpt lat="43.72517" lon="3.4901">
        <ele>410.5</ele>
        <time>2015-10-25T09:18:40Z</time>
      </trkpt>
      <trkpt lat="43.72512" lon="3.49017">
        <ele>411.5</ele>
        <time>2015-10-25T09:18:41Z</time>
      </trkpt>
      <trkpt lat="43.72509" lon="3.49024">
        <ele>411.5</ele>
        <time>2015-10-25T09:18:42Z</time>
      </trkpt>
      <trkpt lat="43.72505" lon="3.49031">
        <ele>411</ele>
        <time>2015-10-25T09:18:43Z</time>
      </trkpt>
      <trkpt lat="43.72501" lon="3.49039">
        <ele>410.5</ele>
        <time>2015-10-25T09:18:44Z</time>
      </trkpt>
      <trkpt lat="43.72495" lon="3.49045">
        <ele>410</ele>
        <time>2015-10-25T09:18:45Z</time>
      </trkpt>
      <trkpt lat="43.72489" lon="3.49048">
        <ele>409</ele>
        <time>2015-10-25T09:18:46Z</time>
      </trkpt>
      <trkpt lat="43.72481" lon="3.49048">
        <ele>409</ele>
        <time>2015-10-25T09:18:47Z</time>
      </trkpt>
      <trkpt lat="43.72474" lon="3.49046">
        <ele>409</ele>
        <time>2015-10-25T09:18:48Z</time>
      </trkpt>
      <trkpt lat="43.72462" lon="3.49042">
        <ele>410</ele>
        <time>2015-10-25T09:18:50Z</time>
      </trkpt>
      <trkpt lat="43.72454" lon="3.49043">
        <ele>410</ele>
        <time>2015-10-25T09:18:51Z</time>
      </trkpt>
      <trkpt lat="43.72447" lon="3.49042">
        <ele>410</ele>
        <time>2015-10-25T09:18:52Z</time>
      </trkpt>
      <trkpt lat="43.72439" lon="3.4904">
        <ele>409.5</ele>
        <time>2015-10-25T09:18:53Z</time>
      </trkpt>
      <trkpt lat="43.72431" lon="3.49039">
        <ele>409</ele>
        <time>2015-10-25T09:18:54Z</time>
      </trkpt>
      <trkpt lat="43.72424" lon="3.49038">
        <ele>408</ele>
        <time>2015-10-25T09:18:55Z</time>
      </trkpt>
      <trkpt lat="43.72416" lon="3.49037">
        <ele>408</ele>
        <time>2015-10-25T09:18:56Z</time>
      </trkpt>
      <trkpt lat="43.72409" lon="3.49036">
        <ele>408</ele>
        <time>2015-10-25T09:18:57Z</time>
      </trkpt>
      <trkpt lat="43.72401" lon="3.49035">
        <ele>408</ele>
        <time>2015-10-25T09:18:58Z</time>
      </trkpt>
      <trkpt lat="43.72394" lon="3.49033">
        <ele>407.5</ele>
        <time>2015-10-25T09:18:59Z</time>
      </trkpt>
      <trkpt lat="43.72387" lon="3.49033">
        <ele>406.5</ele>
        <time>2015-10-25T09:19:00Z</time>
      </trkpt>
      <trkpt lat="43.72378" lon="3.49033">
        <ele>406</ele>
        <time>2015-10-25T09:19:01Z</time>
      </trkpt>
      <trkpt lat="43.72369" lon="3.49034">
        <ele>405.5</ele>
        <time>2015-10-25T09:19:02Z</time>
      </trkpt>
      <trkpt lat="43.7236" lon="3.49037">
        <ele>404.5</ele>
        <time>2015-10-25T09:19:03Z</time>
      </trkpt>
      <trkpt lat="43.72351" lon="3.49041">
        <ele>404</ele>
        <time>2015-10-25T09:19:04Z</time>
      </trkpt>
      <trkpt lat="43.72342" lon="3.49046">
        <ele>403</ele>
        <time>2015-10-25T09:19:05Z</time>
      </trkpt>
      <trkpt lat="43.72333" lon="3.49052">
        <ele>401</ele>
        <time>2015-10-25T09:19:06Z</time>
      </trkpt>
      <trkpt lat="43.72323" lon="3.49058">
        <ele>401</ele>
        <time>2015-10-25T09:19:07Z</time>
      </trkpt>
      <trkpt lat="43.72313" lon="3.49065">
        <ele>400</ele>
        <time>2015-10-25T09:19:08Z</time>
      </trkpt>
      <trkpt lat="43.72302" lon="3.49071">
        <ele>398.5</ele>
        <time>2015-10-25T09:19:09Z</time>
      </trkpt>
      <trkpt lat="43.72291" lon="3.49077">
        <ele>397.5</ele>
        <time>2015-10-25T09:19:10Z</time>
      </trkpt>
      <trkpt lat="43.7228" lon="3.49084">
        <ele>396</ele>
        <time>2015-10-25T09:19:11Z</time>
      </trkpt>
      <trkpt lat="43.72269" lon="3.49091">
        <ele>395</ele>
        <time>2015-10-25T09:19:12Z</time>
      </trkpt>
      <trkpt lat="43.72257" lon="3.49099">
        <ele>393.5</ele>
        <time>2015-10-25T09:19:13Z</time>
      </trkpt>
      <trkpt lat="43.72245" lon="3.49106">
        <ele>392</ele>
        <time>2015-10-25T09:19:14Z</time>
      </trkpt>
      <trkpt lat="43.72233" lon="3.49113">
        <ele>391</ele>
        <time>2015-10-25T09:19:15Z</time>
      </trkpt>
      <trkpt lat="43.72221" lon="3.49121">
        <ele>389.5</ele>
        <time>2015-10-25T09:19:16Z</time>
      </trkpt>
      <trkpt lat="43.72209" lon="3.49129">
        <ele>388.5</ele>
        <time>2015-10-25T09:19:17Z</time>
      </trkpt>
      <trkpt lat="43.72197" lon="3.49136">
        <ele>387.5</ele>
        <time>2015-10-25T09:19:18Z</time>
      </trkpt>
      <trkpt lat="43.72185" lon="3.49144">
        <ele>386.5</ele>
        <time>2015-10-25T09:19:19Z</time>
      </trkpt>
      <trkpt lat="43.72173" lon="3.49152">
        <ele>384.5</ele>
        <time>2015-10-25T09:19:20Z</time>
      </trkpt>
      <trkpt lat="43.72161" lon="3.49159">
        <ele>383.5</ele>
        <time>2015-10-25T09:19:21Z</time>
      </trkpt>
      <trkpt lat="43.72148" lon="3.49167">
        <ele>382</ele>
        <time>2015-10-25T09:19:22Z</time>
      </trkpt>
      <trkpt lat="43.72136" lon="3.49174">
        <ele>380.5</ele>
        <time>2015-10-25T09:19:23Z</time>
      </trkpt>
      <trkpt lat="43.72124" lon="3.49182">
        <ele>379.5</ele>
        <time>2015-10-25T09:19:24Z</time>
      </trkpt>
      <trkpt lat="43.72111" lon="3.4919">
        <ele>378.5</ele>
        <time>2015-10-25T09:19:25Z</time>
      </trkpt>
      <trkpt lat="43.72099" lon="3.49198">
        <ele>378</ele>
        <time>2015-10-25T09:19:26Z</time>
      </trkpt>
      <trkpt lat="43.72087" lon="3.49206">
        <ele>376</ele>
        <time>2015-10-25T09:19:27Z</time>
      </trkpt>
      <trkpt lat="43.72075" lon="3.49214">
        <ele>375.5</ele>
        <time>2015-10-25T09:19:28Z</time>
      </trkpt>
      <trkpt lat="43.72062" lon="3.49222">
        <ele>374</ele>
        <time>2015-10-25T09:19:29Z</time>
      </trkpt>
      <trkpt lat="43.7205" lon="3.4923">
        <ele>372.5</ele>
        <time>2015-10-25T09:19:30Z</time>
      </trkpt>
      <trkpt lat="43.72038" lon="3.49237">
        <ele>371</ele>
        <time>2015-10-25T09:19:31Z</time>
      </trkpt>
      <trkpt lat="43.72026" lon="3.49245">
        <ele>369.5</ele>
        <time>2015-10-25T09:19:32Z</time>
      </trkpt>
      <trkpt lat="43.72014" lon="3.49251">
        <ele>369.5</ele>
        <time>2015-10-25T09:19:33Z</time>
      </trkpt>
      <trkpt lat="43.72003" lon="3.49259">
        <ele>369.5</ele>
        <time>2015-10-25T09:19:34Z</time>
      </trkpt>
      <trkpt lat="43.71992" lon="3.49265">
        <ele>368.5</ele>
        <time>2015-10-25T09:19:35Z</time>
      </trkpt>
      <trkpt lat="43.71974" lon="3.49277">
        <ele>369</ele>
        <time>2015-10-25T09:19:37Z</time>
      </trkpt>
      <trkpt lat="43.71966" lon="3.49282">
        <ele>368.5</ele>
        <time>2015-10-25T09:19:38Z</time>
      </trkpt>
      <trkpt lat="43.71957" lon="3.49287">
        <ele>368.5</ele>
        <time>2015-10-25T09:19:39Z</time>
      </trkpt>
      <trkpt lat="43.71949" lon="3.49292">
        <ele>368</ele>
        <time>2015-10-25T09:19:40Z</time>
      </trkpt>
      <trkpt lat="43.71941" lon="3.49297">
        <ele>368</ele>
        <time>2015-10-25T09:19:41Z</time>
      </trkpt>
      <trkpt lat="43.71934" lon="3.49302">
        <ele>367.5</ele>
        <time>2015-10-25T09:19:42Z</time>
      </trkpt>
      <trkpt lat="43.71926" lon="3.49307">
        <ele>367</ele>
        <time>2015-10-25T09:19:43Z</time>
      </trkpt>
      <trkpt lat="43.71919" lon="3.49311">
        <ele>366.5</ele>
        <time>2015-10-25T09:19:44Z</time>
      </trkpt>
      <trkpt lat="43.71912" lon="3.49316">
        <ele>366</ele>
        <time>2015-10-25T09:19:44Z</time>
      </trkpt>
      <trkpt lat="43.71904" lon="3.49321">
        <ele>365.5</ele>
        <time>2015-10-25T09:19:45Z</time>
      </trkpt>
      <trkpt lat="43.71897" lon="3.49325">
        <ele>365.5</ele>
        <time>2015-10-25T09:19:47Z</time>
      </trkpt>
      <trkpt lat="43.7189" lon="3.49329">
        <ele>365.5</ele>
        <time>2015-10-25T09:19:47Z</time>
      </trkpt>
      <trkpt lat="43.71883" lon="3.49334">
        <ele>365.5</ele>
        <time>2015-10-25T09:19:48Z</time>
      </trkpt>
      <trkpt lat="43.71876" lon="3.49339">
        <ele>365.5</ele>
        <time>2015-10-25T09:19:49Z</time>
      </trkpt>
      <trkpt lat="43.71869" lon="3.49344">
        <ele>365.5</ele>
        <time>2015-10-25T09:19:50Z</time>
      </trkpt>
      <trkpt lat="43.71862" lon="3.49348">
        <ele>365.5</ele>
        <time>2015-10-25T09:19:51Z</time>
      </trkpt>
      <trkpt lat="43.71855" lon="3.49353">
        <ele>365</ele>
        <time>2015-10-25T09:19:52Z</time>
      </trkpt>
      <trkpt lat="43.71847" lon="3.49358">
        <ele>365</ele>
        <time>2015-10-25T09:19:53Z</time>
      </trkpt>
      <trkpt lat="43.71841" lon="3.49363">
        <ele>365</ele>
        <time>2015-10-25T09:19:54Z</time>
      </trkpt>
      <trkpt lat="43.71835" lon="3.49368">
        <ele>364.5</ele>
        <time>2015-10-25T09:19:55Z</time>
      </trkpt>
      <trkpt lat="43.71828" lon="3.49372">
        <ele>364.5</ele>
        <time>2015-10-25T09:19:56Z</time>
      </trkpt>
      <trkpt lat="43.71821" lon="3.49375">
        <ele>364</ele>
        <time>2015-10-25T09:19:57Z</time>
      </trkpt>
      <trkpt lat="43.71815" lon="3.49378">
        <ele>363.5</ele>
        <time>2015-10-25T09:19:58Z</time>
      </trkpt>
      <trkpt lat="43.71811" lon="3.4938">
        <ele>363.5</ele>
        <time>2015-10-25T09:19:59Z</time>
      </trkpt>
      <trkpt lat="43.71806" lon="3.49382">
        <ele>362.5</ele>
        <time>2015-10-25T09:20:00Z</time>
      </trkpt>
      <trkpt lat="43.718" lon="3.49384">
        <ele>362.5</ele>
        <time>2015-10-25T09:20:01Z</time>
      </trkpt>
      <trkpt lat="43.71795" lon="3.49385">
        <ele>362</ele>
        <time>2015-10-25T09:20:02Z</time>
      </trkpt>
      <trkpt lat="43.71789" lon="3.49386">
        <ele>362</ele>
        <time>2015-10-25T09:20:03Z</time>
      </trkpt>
      <trkpt lat="43.71782" lon="3.49387">
        <ele>362</ele>
        <time>2015-10-25T09:20:04Z</time>
      </trkpt>
      <trkpt lat="43.71776" lon="3.49387">
        <ele>362</ele>
        <time>2015-10-25T09:20:05Z</time>
      </trkpt>
      <trkpt lat="43.7177" lon="3.49388">
        <ele>362</ele>
        <time>2015-10-25T09:20:06Z</time>
      </trkpt>
      <trkpt lat="43.71764" lon="3.49388">
        <ele>363</ele>
        <time>2015-10-25T09:20:07Z</time>
      </trkpt>
      <trkpt lat="43.71758" lon="3.49388">
        <ele>363</ele>
        <time>2015-10-25T09:20:08Z</time>
      </trkpt>
      <trkpt lat="43.71752" lon="3.49387">
        <ele>362.5</ele>
        <time>2015-10-25T09:20:10Z</time>
      </trkpt>
      <trkpt lat="43.71745" lon="3.49387">
        <ele>362</ele>
        <time>2015-10-25T09:20:11Z</time>
      </trkpt>
      <trkpt lat="43.71739" lon="3.49386">
        <ele>362</ele>
        <time>2015-10-25T09:20:11Z</time>
      </trkpt>
      <trkpt lat="43.71732" lon="3.49386">
        <ele>361</ele>
        <time>2015-10-25T09:20:12Z</time>
      </trkpt>
      <trkpt lat="43.71725" lon="3.49385">
        <ele>359.5</ele>
        <time>2015-10-25T09:20:13Z</time>
      </trkpt>
      <trkpt lat="43.71717" lon="3.49385">
        <ele>358.5</ele>
        <time>2015-10-25T09:20:14Z</time>
      </trkpt>
      <trkpt lat="43.71709" lon="3.49385">
        <ele>358</ele>
        <time>2015-10-25T09:20:15Z</time>
      </trkpt>
      <trkpt lat="43.71701" lon="3.49384">
        <ele>356.5</ele>
        <time>2015-10-25T09:20:16Z</time>
      </trkpt>
      <trkpt lat="43.71692" lon="3.49384">
        <ele>356</ele>
        <time>2015-10-25T09:20:17Z</time>
      </trkpt>
      <trkpt lat="43.71684" lon="3.49384">
        <ele>354.5</ele>
        <time>2015-10-25T09:20:18Z</time>
      </trkpt>
      <trkpt lat="43.71675" lon="3.49385">
        <ele>354.5</ele>
        <time>2015-10-25T09:20:19Z</time>
      </trkpt>
      <trkpt lat="43.71668" lon="3.49385">
        <ele>354.5</ele>
        <time>2015-10-25T09:20:20Z</time>
      </trkpt>
      <trkpt lat="43.7166" lon="3.49385">
        <ele>354</ele>
        <time>2015-10-25T09:20:21Z</time>
      </trkpt>
      <trkpt lat="43.71652" lon="3.49385">
        <ele>354</ele>
        <time>2015-10-25T09:20:22Z</time>
      </trkpt>
      <trkpt lat="43.71645" lon="3.49385">
        <ele>354</ele>
        <time>2015-10-25T09:20:23Z</time>
      </trkpt>
      <trkpt lat="43.71637" lon="3.49385">
        <ele>352.5</ele>
        <time>2015-10-25T09:20:24Z</time>
      </trkpt>
      <trkpt lat="43.71629" lon="3.49384">
        <ele>351.5</ele>
        <time>2015-10-25T09:20:25Z</time>
      </trkpt>
      <trkpt lat="43.71622" lon="3.49383">
        <ele>352</ele>
        <time>2015-10-25T09:20:26Z</time>
      </trkpt>
      <trkpt lat="43.71615" lon="3.49382">
        <ele>351.5</ele>
        <time>2015-10-25T09:20:27Z</time>
      </trkpt>
      <trkpt lat="43.71608" lon="3.49382">
        <ele>351</ele>
        <time>2015-10-25T09:20:28Z</time>
      </trkpt>
      <trkpt lat="43.71602" lon="3.49382">
        <ele>351</ele>
        <time>2015-10-25T09:20:29Z</time>
      </trkpt>
      <trkpt lat="43.71597" lon="3.49381">
        <ele>351</ele>
        <time>2015-10-25T09:20:30Z</time>
      </trkpt>
      <trkpt lat="43.71593" lon="3.4938">
        <ele>351</ele>
        <time>2015-10-25T09:20:31Z</time>
      </trkpt>
      <trkpt lat="43.71589" lon="3.49379">
        <ele>351</ele>
        <time>2015-10-25T09:20:32Z</time>
      </trkpt>
      <trkpt lat="43.71586" lon="3.49378">
        <ele>351.5</ele>
        <time>2015-10-25T09:20:33Z</time>
      </trkpt>
      <trkpt lat="43.71583" lon="3.49376">
        <ele>350.5</ele>
        <time>2015-10-25T09:20:34Z</time>
      </trkpt>
      <trkpt lat="43.71581" lon="3.49375">
        <ele>350</ele>
        <time>2015-10-25T09:20:35Z</time>
      </trkpt>
      <trkpt lat="43.71579" lon="3.49375">
        <ele>350</ele>
        <time>2015-10-25T09:20:36Z</time>
      </trkpt>
      <trkpt lat="43.71576" lon="3.49374">
        <ele>351</ele>
        <time>2015-10-25T09:20:37Z</time>
      </trkpt>
      <trkpt lat="43.71574" lon="3.49374">
        <ele>351.5</ele>
        <time>2015-10-25T09:20:38Z</time>
      </trkpt>
      <trkpt lat="43.71572" lon="3.49373">
        <ele>352</ele>
        <time>2015-10-25T09:20:39Z</time>
      </trkpt>
      <trkpt lat="43.71569" lon="3.49371">
        <ele>352</ele>
        <time>2015-10-25T09:20:40Z</time>
      </trkpt>
      <trkpt lat="43.71567" lon="3.49369">
        <ele>352</ele>
        <time>2015-10-25T09:20:41Z</time>
      </trkpt>
      <trkpt lat="43.71565" lon="3.49367">
        <ele>351.5</ele>
        <time>2015-10-25T09:20:42Z</time>
      </trkpt>
      <trkpt lat="43.71563" lon="3.49365">
        <ele>352</ele>
        <time>2015-10-25T09:20:43Z</time>
      </trkpt>
      <trkpt lat="43.71561" lon="3.49363">
        <ele>352</ele>
        <time>2015-10-25T09:20:44Z</time>
      </trkpt>
      <trkpt lat="43.7156" lon="3.49361">
        <ele>351</ele>
        <time>2015-10-25T09:20:45Z</time>
      </trkpt>
      <trkpt lat="43.71558" lon="3.49359">
        <ele>350.5</ele>
        <time>2015-10-25T09:20:46Z</time>
      </trkpt>
      <trkpt lat="43.71557" lon="3.49357">
        <ele>350</ele>
        <time>2015-10-25T09:20:47Z</time>
      </trkpt>
      <trkpt lat="43.71555" lon="3.49355">
        <ele>350</ele>
        <time>2015-10-25T09:20:48Z</time>
      </trkpt>
      <trkpt lat="43.71553" lon="3.49353">
        <ele>349</ele>
        <time>2015-10-25T09:20:49Z</time>
      </trkpt>
      <trkpt lat="43.71552" lon="3.49349">
        <ele>348.5</ele>
        <time>2015-10-25T09:20:50Z</time>
      </trkpt>
      <trkpt lat="43.71551" lon="3.49346">
        <ele>348</ele>
        <time>2015-10-25T09:20:51Z</time>
      </trkpt>
      <trkpt lat="43.71549" lon="3.49344">
        <ele>347</ele>
        <time>2015-10-25T09:20:52Z</time>
      </trkpt>
      <trkpt lat="43.71548" lon="3.49342">
        <ele>346</ele>
        <time>2015-10-25T09:20:53Z</time>
      </trkpt>
      <trkpt lat="43.71547" lon="3.49342">
        <ele>346</ele>
        <time>2015-10-25T09:20:54Z</time>
      </trkpt>
      <trkpt lat="43.71547" lon="3.49341">
        <ele>345.5</ele>
        <time>2015-10-25T09:20:55Z</time>
      </trkpt>
      <trkpt lat="43.71547" lon="3.49342">
        <ele>345.5</ele>
        <time>2015-10-25T09:21:02Z</time>
      </trkpt>
      <trkpt lat="43.71547" lon="3.49342">
        <ele>347.5</ele>
        <time>2015-10-25T09:21:16Z</time>
      </trkpt>
      <trkpt lat="43.71547" lon="3.49342">
        <ele>346</ele>
        <time>2015-10-25T09:21:45Z</time>
      </trkpt>
      <trkpt lat="43.71546" lon="3.49343">
        <ele>345</ele>
        <time>2015-10-25T09:21:43Z</time>
      </trkpt>
      <trkpt lat="43.71545" lon="3.49343">
        <ele>346</ele>
        <time>2015-10-25T09:21:51Z</time>
      </trkpt>
      <trkpt lat="43.71545" lon="3.49342">
        <ele>348</ele>
        <time>2015-10-25T09:22:15Z</time>
      </trkpt>
      <trkpt lat="43.71544" lon="3.49344">
        <ele>348</ele>
        <time>2015-10-25T09:22:17Z</time>
      </trkpt>
      <trkpt lat="43.71544" lon="3.49344">
        <ele>348</ele>
        <time>2015-10-25T09:22:19Z</time>
      </trkpt>
      <trkpt lat="43.71544" lon="3.49344">
        <ele>348</ele>
        <time>2015-10-25T09:22:21Z</time>
      </trkpt>
      <trkpt lat="43.71545" lon="3.49346">
        <ele>348</ele>
        <time>2015-10-25T09:22:25Z</time>
      </trkpt>
      <trkpt lat="43.71544" lon="3.49345">
        <ele>347.5</ele>
        <time>2015-10-25T09:22:27Z</time>
      </trkpt>
      <trkpt lat="43.71543" lon="3.49344">
        <ele>346</ele>
        <time>2015-10-25T09:22:28Z</time>
      </trkpt>
      <trkpt lat="43.71541" lon="3.49341">
        <ele>343.5</ele>
        <time>2015-10-25T09:22:49Z</time>
      </trkpt>
      <trkpt lat="43.71541" lon="3.49342">
        <ele>343.5</ele>
        <time>2015-10-25T09:22:51Z</time>
      </trkpt>
      <trkpt lat="43.71542" lon="3.49342">
        <ele>344</ele>
        <time>2015-10-25T09:22:52Z</time>
      </trkpt>
      <trkpt lat="43.71542" lon="3.49341">
        <ele>342.5</ele>
        <time>2015-10-25T09:22:53Z</time>
      </trkpt>
      <trkpt lat="43.71542" lon="3.49338">
        <ele>342</ele>
        <time>2015-10-25T09:22:59Z</time>
      </trkpt>
      <trkpt lat="43.71543" lon="3.49339">
        <ele>343</ele>
        <time>2015-10-25T09:23:29Z</time>
      </trkpt>
      <trkpt lat="43.71542" lon="3.49338">
        <ele>341</ele>
        <time>2015-10-25T09:23:53Z</time>
      </trkpt>
      <trkpt lat="43.71541" lon="3.49338">
        <ele>341.5</ele>
        <time>2015-10-25T09:23:55Z</time>
      </trkpt>
      <trkpt lat="43.71541" lon="3.49338">
        <ele>342</ele>
        <time>2015-10-25T09:23:57Z</time>
      </trkpt>
      <trkpt lat="43.71542" lon="3.49339">
        <ele>346</ele>
        <time>2015-10-25T09:24:16Z</time>
      </trkpt>
      <trkpt lat="43.71543" lon="3.49339">
        <ele>343</ele>
        <time>2015-10-25T09:24:26Z</time>
      </trkpt>
      <trkpt lat="43.71543" lon="3.49339">
        <ele>342</ele>
        <time>2015-10-25T09:24:42Z</time>
      </trkpt>
      <trkpt lat="43.71543" lon="3.4934">
        <ele>342</ele>
        <time>2015-10-25T09:24:44Z</time>
      </trkpt>
      <trkpt lat="43.71543" lon="3.4934">
        <ele>341</ele>
        <time>2015-10-25T09:24:54Z</time>
      </trkpt>
      <trkpt lat="43.71543" lon="3.49341">
        <ele>341.5</ele>
        <time>2015-10-25T09:24:58Z</time>
      </trkpt>
      <trkpt lat="43.71544" lon="3.4934">
        <ele>342</ele>
        <time>2015-10-25T09:25:00Z</time>
      </trkpt>
      <trkpt lat="43.71544" lon="3.4934">
        <ele>342</ele>
        <time>2015-10-25T09:25:01Z</time>
      </trkpt>
      <trkpt lat="43.71544" lon="3.4934">
        <ele>342.5</ele>
        <time>2015-10-25T09:25:02Z</time>
      </trkpt>
      <trkpt lat="43.71543" lon="3.49341">
        <ele>342.5</ele>
        <time>2015-10-25T09:25:03Z</time>
      </trkpt>
      <trkpt lat="43.71543" lon="3.4934">
        <ele>342.5</ele>
        <time>2015-10-25T09:25:04Z</time>
      </trkpt>
      <trkpt lat="43.71542" lon="3.49339">
        <ele>343</ele>
        <time>2015-10-25T09:25:05Z</time>
      </trkpt>
      <trkpt lat="43.71543" lon="3.49339">
        <ele>342.5</ele>
        <time>2015-10-25T09:25:13Z</time>
      </trkpt>
      <trkpt lat="43.71542" lon="3.49338">
        <ele>343.5</ele>
        <time>2015-10-25T09:25:15Z</time>
      </trkpt>
      <trkpt lat="43.71544" lon="3.49339">
        <ele>345</ele>
        <time>2015-10-25T09:28:23Z</time>
      </trkpt>
      <trkpt lat="43.71543" lon="3.49339">
        <ele>344.5</ele>
        <time>2015-10-25T09:28:27Z</time>
      </trkpt>
      <trkpt lat="43.71543" lon="3.4934">
        <ele>343</ele>
        <time>2015-10-25T09:28:29Z</time>
      </trkpt>
      <trkpt lat="43.71542" lon="3.49338">
        <ele>345.5</ele>
        <time>2015-10-25T09:28:36Z</time>
      </trkpt>
      <trkpt lat="43.7154" lon="3.49335">
        <ele>345.5</ele>
        <time>2015-10-25T09:28:38Z</time>
      </trkpt>
      <trkpt lat="43.71539" lon="3.49333">
        <ele>345.5</ele>
        <time>2015-10-25T09:28:39Z</time>
      </trkpt>
      <trkpt lat="43.71537" lon="3.4933">
        <ele>345.5</ele>
        <time>2015-10-25T09:28:40Z</time>
      </trkpt>
      <trkpt lat="43.71535" lon="3.49325">
        <ele>345</ele>
        <time>2015-10-25T09:28:41Z</time>
      </trkpt>
      <trkpt lat="43.71533" lon="3.49321">
        <ele>344.5</ele>
        <time>2015-10-25T09:28:42Z</time>
      </trkpt>
      <trkpt lat="43.71529" lon="3.49316">
        <ele>344.5</ele>
        <time>2015-10-25T09:28:43Z</time>
      </trkpt>
      <trkpt lat="43.71525" lon="3.49311">
        <ele>346</ele>
        <time>2015-10-25T09:28:44Z</time>
      </trkpt>
      <trkpt lat="43.71521" lon="3.49305">
        <ele>346</ele>
        <time>2015-10-25T09:28:45Z</time>
      </trkpt>
      <trkpt lat="43.71517" lon="3.49299">
        <ele>347.5</ele>
        <time>2015-10-25T09:28:46Z</time>
      </trkpt>
      <trkpt lat="43.71511" lon="3.49297">
        <ele>348.5</ele>
        <time>2015-10-25T09:28:47Z</time>
      </trkpt>
      <trkpt lat="43.71506" lon="3.49294">
        <ele>348.5</ele>
        <time>2015-10-25T09:28:48Z</time>
      </trkpt>
      <trkpt lat="43.71501" lon="3.49292">
        <ele>348.5</ele>
        <time>2015-10-25T09:28:49Z</time>
      </trkpt>
      <trkpt lat="43.71497" lon="3.49287">
        <ele>347.5</ele>
        <time>2015-10-25T09:28:50Z</time>
      </trkpt>
      <trkpt lat="43.71494" lon="3.49281">
        <ele>346</ele>
        <time>2015-10-25T09:28:51Z</time>
      </trkpt>
      <trkpt lat="43.71493" lon="3.49274">
        <ele>346</ele>
        <time>2015-10-25T09:28:52Z</time>
      </trkpt>
      <trkpt lat="43.7149" lon="3.4927">
        <ele>346</ele>
        <time>2015-10-25T09:28:53Z</time>
      </trkpt>
      <trkpt lat="43.71485" lon="3.49268">
        <ele>346.5</ele>
        <time>2015-10-25T09:28:54Z</time>
      </trkpt>
      <trkpt lat="43.7148" lon="3.49266">
        <ele>346.5</ele>
        <time>2015-10-25T09:28:55Z</time>
      </trkpt>
      <trkpt lat="43.71474" lon="3.49266">
        <ele>347.5</ele>
        <time>2015-10-25T09:28:56Z</time>
      </trkpt>
      <trkpt lat="43.71468" lon="3.49265">
        <ele>347</ele>
        <time>2015-10-25T09:28:57Z</time>
      </trkpt>
      <trkpt lat="43.71461" lon="3.49266">
        <ele>345.5</ele>
        <time>2015-10-25T09:28:58Z</time>
      </trkpt>
      <trkpt lat="43.71455" lon="3.49266">
        <ele>343.5</ele>
        <time>2015-10-25T09:28:59Z</time>
      </trkpt>
      <trkpt lat="43.71448" lon="3.49264">
        <ele>344.5</ele>
        <time>2015-10-25T09:29:00Z</time>
      </trkpt>
      <trkpt lat="43.71436" lon="3.49256">
        <ele>343</ele>
        <time>2015-10-25T09:29:02Z</time>
      </trkpt>
      <trkpt lat="43.7143" lon="3.49252">
        <ele>342</ele>
        <time>2015-10-25T09:29:03Z</time>
      </trkpt>
      <trkpt lat="43.71424" lon="3.49246">
        <ele>340.5</ele>
        <time>2015-10-25T09:29:04Z</time>
      </trkpt>
      <trkpt lat="43.7142" lon="3.49239">
        <ele>339.5</ele>
        <time>2015-10-25T09:29:05Z</time>
      </trkpt>
      <trkpt lat="43.71416" lon="3.49232">
        <ele>338</ele>
        <time>2015-10-25T09:29:06Z</time>
      </trkpt>
      <trkpt lat="43.71412" lon="3.49226">
        <ele>337.5</ele>
        <time>2015-10-25T09:29:07Z</time>
      </trkpt>
      <trkpt lat="43.71409" lon="3.49218">
        <ele>337</ele>
        <time>2015-10-25T09:29:08Z</time>
      </trkpt>
      <trkpt lat="43.71407" lon="3.49213">
        <ele>338</ele>
        <time>2015-10-25T09:29:09Z</time>
      </trkpt>
      <trkpt lat="43.71404" lon="3.49207">
        <ele>338</ele>
        <time>2015-10-25T09:29:10Z</time>
      </trkpt>
      <trkpt lat="43.71402" lon="3.492">
        <ele>337</ele>
        <time>2015-10-25T09:29:11Z</time>
      </trkpt>
      <trkpt lat="43.714" lon="3.49197">
        <ele>336.5</ele>
        <time>2015-10-25T09:29:12Z</time>
      </trkpt>
      <trkpt lat="43.71396" lon="3.49194">
        <ele>335.5</ele>
        <time>2015-10-25T09:29:13Z</time>
      </trkpt>
      <trkpt lat="43.71393" lon="3.49191">
        <ele>337</ele>
        <time>2015-10-25T09:29:14Z</time>
      </trkpt>
      <trkpt lat="43.71388" lon="3.49189">
        <ele>338.5</ele>
        <time>2015-10-25T09:29:15Z</time>
      </trkpt>
      <trkpt lat="43.71384" lon="3.49188">
        <ele>336.5</ele>
        <time>2015-10-25T09:29:16Z</time>
      </trkpt>
      <trkpt lat="43.71378" lon="3.49185">
        <ele>334.5</ele>
        <time>2015-10-25T09:29:17Z</time>
      </trkpt>
      <trkpt lat="43.71373" lon="3.49182">
        <ele>333.5</ele>
        <time>2015-10-25T09:29:18Z</time>
      </trkpt>
      <trkpt lat="43.71368" lon="3.49179">
        <ele>333</ele>
        <time>2015-10-25T09:29:19Z</time>
      </trkpt>
      <trkpt lat="43.71364" lon="3.49174">
        <ele>333.5</ele>
        <time>2015-10-25T09:29:20Z</time>
      </trkpt>
      <trkpt lat="43.71359" lon="3.4917">
        <ele>333.5</ele>
        <time>2015-10-25T09:29:21Z</time>
      </trkpt>
      <trkpt lat="43.71353" lon="3.49168">
        <ele>333</ele>
        <time>2015-10-25T09:29:23Z</time>
      </trkpt>
      <trkpt lat="43.71349" lon="3.49166">
        <ele>332</ele>
        <time>2015-10-25T09:29:24Z</time>
      </trkpt>
      <trkpt lat="43.71344" lon="3.49165">
        <ele>330.5</ele>
        <time>2015-10-25T09:29:25Z</time>
      </trkpt>
      <trkpt lat="43.7134" lon="3.49165">
        <ele>328.5</ele>
        <time>2015-10-25T09:29:26Z</time>
      </trkpt>
      <trkpt lat="43.71335" lon="3.49166">
        <ele>326</ele>
        <time>2015-10-25T09:29:27Z</time>
      </trkpt>
      <trkpt lat="43.71331" lon="3.49167">
        <ele>324</ele>
        <time>2015-10-25T09:29:28Z</time>
      </trkpt>
      <trkpt lat="43.71326" lon="3.49167">
        <ele>321.5</ele>
        <time>2015-10-25T09:29:29Z</time>
      </trkpt>
      <trkpt lat="43.71322" lon="3.49168">
        <ele>319.5</ele>
        <time>2015-10-25T09:29:30Z</time>
      </trkpt>
      <trkpt lat="43.71318" lon="3.49171">
        <ele>318</ele>
        <time>2015-10-25T09:29:31Z</time>
      </trkpt>
      <trkpt lat="43.71313" lon="3.49173">
        <ele>316.5</ele>
        <time>2015-10-25T09:29:32Z</time>
      </trkpt>
      <trkpt lat="43.71309" lon="3.49177">
        <ele>314.5</ele>
        <time>2015-10-25T09:29:33Z</time>
      </trkpt>
      <trkpt lat="43.71303" lon="3.49181">
        <ele>312.5</ele>
        <time>2015-10-25T09:29:34Z</time>
      </trkpt>
      <trkpt lat="43.71298" lon="3.49186">
        <ele>311.5</ele>
        <time>2015-10-25T09:29:35Z</time>
      </trkpt>
      <trkpt lat="43.71295" lon="3.49193">
        <ele>309.5</ele>
        <time>2015-10-25T09:29:36Z</time>
      </trkpt>
      <trkpt lat="43.71292" lon="3.49198">
        <ele>308.5</ele>
        <time>2015-10-25T09:29:37Z</time>
      </trkpt>
      <trkpt lat="43.71288" lon="3.49202">
        <ele>307</ele>
        <time>2015-10-25T09:29:38Z</time>
      </trkpt>
      <trkpt lat="43.71285" lon="3.49207">
        <ele>305.5</ele>
        <time>2015-10-25T09:29:39Z</time>
      </trkpt>
      <trkpt lat="43.71281" lon="3.49212">
        <ele>304.5</ele>
        <time>2015-10-25T09:29:40Z</time>
      </trkpt>
      <trkpt lat="43.71279" lon="3.49219">
        <ele>304.5</ele>
        <time>2015-10-25T09:29:41Z</time>
      </trkpt>
      <trkpt lat="43.71276" lon="3.49223">
        <ele>305</ele>
        <time>2015-10-25T09:29:42Z</time>
      </trkpt>
      <trkpt lat="43.71271" lon="3.49226">
        <ele>304</ele>
        <time>2015-10-25T09:29:43Z</time>
      </trkpt>
      <trkpt lat="43.71266" lon="3.49228">
        <ele>304</ele>
        <time>2015-10-25T09:29:44Z</time>
      </trkpt>
      <trkpt lat="43.71261" lon="3.49229">
        <ele>302.5</ele>
        <time>2015-10-25T09:29:45Z</time>
      </trkpt>
      <trkpt lat="43.71256" lon="3.49232">
        <ele>303.5</ele>
        <time>2015-10-25T09:29:46Z</time>
      </trkpt>
      <trkpt lat="43.71251" lon="3.49233">
        <ele>303.5</ele>
        <time>2015-10-25T09:29:47Z</time>
      </trkpt>
      <trkpt lat="43.7124" lon="3.49236">
        <ele>302</ele>
        <time>2015-10-25T09:29:49Z</time>
      </trkpt>
      <trkpt lat="43.71234" lon="3.49237">
        <ele>301</ele>
        <time>2015-10-25T09:29:50Z</time>
      </trkpt>
      <trkpt lat="43.71228" lon="3.49236">
        <ele>301.5</ele>
        <time>2015-10-25T09:29:51Z</time>
      </trkpt>
      <trkpt lat="43.71223" lon="3.49235">
        <ele>301.5</ele>
        <time>2015-10-25T09:29:52Z</time>
      </trkpt>
      <trkpt lat="43.71217" lon="3.49233">
        <ele>300.5</ele>
        <time>2015-10-25T09:29:53Z</time>
      </trkpt>
      <trkpt lat="43.71212" lon="3.49232">
        <ele>299</ele>
        <time>2015-10-25T09:29:54Z</time>
      </trkpt>
      <trkpt lat="43.71206" lon="3.4923">
        <ele>296.5</ele>
        <time>2015-10-25T09:29:55Z</time>
      </trkpt>
      <trkpt lat="43.712" lon="3.4923">
        <ele>296</ele>
        <time>2015-10-25T09:29:56Z</time>
      </trkpt>
      <trkpt lat="43.71195" lon="3.49228">
        <ele>295</ele>
        <time>2015-10-25T09:29:57Z</time>
      </trkpt>
      <trkpt lat="43.71183" lon="3.49228">
        <ele>295</ele>
        <time>2015-10-25T09:29:59Z</time>
      </trkpt>
      <trkpt lat="43.71176" lon="3.49228">
        <ele>294.5</ele>
        <time>2015-10-25T09:30:00Z</time>
      </trkpt>
      <trkpt lat="43.7117" lon="3.49228">
        <ele>294</ele>
        <time>2015-10-25T09:30:01Z</time>
      </trkpt>
      <trkpt lat="43.71163" lon="3.49227">
        <ele>294</ele>
        <time>2015-10-25T09:30:02Z</time>
      </trkpt>
      <trkpt lat="43.71157" lon="3.49226">
        <ele>293.5</ele>
        <time>2015-10-25T09:30:03Z</time>
      </trkpt>
      <trkpt lat="43.7115" lon="3.49224">
        <ele>292.5</ele>
        <time>2015-10-25T09:30:04Z</time>
      </trkpt>
      <trkpt lat="43.71142" lon="3.49222">
        <ele>293</ele>
        <time>2015-10-25T09:30:05Z</time>
      </trkpt>
      <trkpt lat="43.71134" lon="3.4922">
        <ele>291.5</ele>
        <time>2015-10-25T09:30:06Z</time>
      </trkpt>
      <trkpt lat="43.71126" lon="3.49218">
        <ele>290</ele>
        <time>2015-10-25T09:30:07Z</time>
      </trkpt>
      <trkpt lat="43.71118" lon="3.49215">
        <ele>289</ele>
        <time>2015-10-25T09:30:08Z</time>
      </trkpt>
      <trkpt lat="43.7111" lon="3.49212">
        <ele>288.5</ele>
        <time>2015-10-25T09:30:09Z</time>
      </trkpt>
      <trkpt lat="43.71094" lon="3.49208">
        <ele>286.5</ele>
        <time>2015-10-25T09:30:11Z</time>
      </trkpt>
      <trkpt lat="43.71085" lon="3.49205">
        <ele>286.5</ele>
        <time>2015-10-25T09:30:12Z</time>
      </trkpt>
      <trkpt lat="43.71078" lon="3.49202">
        <ele>284.5</ele>
        <time>2015-10-25T09:30:13Z</time>
      </trkpt>
      <trkpt lat="43.71071" lon="3.492">
        <ele>284.5</ele>
        <time>2015-10-25T09:30:14Z</time>
      </trkpt>
      <trkpt lat="43.71066" lon="3.49196">
        <ele>283.5</ele>
        <time>2015-10-25T09:30:15Z</time>
      </trkpt>
      <trkpt lat="43.71061" lon="3.4919">
        <ele>283</ele>
        <time>2015-10-25T09:30:16Z</time>
      </trkpt>
      <trkpt lat="43.71056" lon="3.49185">
        <ele>283</ele>
        <time>2015-10-25T09:30:17Z</time>
      </trkpt>
      <trkpt lat="43.71052" lon="3.49179">
        <ele>284.5</ele>
        <time>2015-10-25T09:30:18Z</time>
      </trkpt>
      <trkpt lat="43.71048" lon="3.49172">
        <ele>284</ele>
        <time>2015-10-25T09:30:19Z</time>
      </trkpt>
      <trkpt lat="43.71044" lon="3.49165">
        <ele>284</ele>
        <time>2015-10-25T09:30:20Z</time>
      </trkpt>
      <trkpt lat="43.7104" lon="3.49157">
        <ele>283.5</ele>
        <time>2015-10-25T09:30:21Z</time>
      </trkpt>
      <trkpt lat="43.71035" lon="3.49149">
        <ele>282.5</ele>
        <time>2015-10-25T09:30:22Z</time>
      </trkpt>
      <trkpt lat="43.71032" lon="3.4914">
        <ele>283</ele>
        <time>2015-10-25T09:30:23Z</time>
      </trkpt>
      <trkpt lat="43.71031" lon="3.4913">
        <ele>282.5</ele>
        <time>2015-10-25T09:30:24Z</time>
      </trkpt>
      <trkpt lat="43.7103" lon="3.49121">
        <ele>282.5</ele>
        <time>2015-10-25T09:30:25Z</time>
      </trkpt>
      <trkpt lat="43.7103" lon="3.49112">
        <ele>281.5</ele>
        <time>2015-10-25T09:30:26Z</time>
      </trkpt>
      <trkpt lat="43.71027" lon="3.49105">
        <ele>282</ele>
        <time>2015-10-25T09:30:27Z</time>
      </trkpt>
      <trkpt lat="43.71027" lon="3.49097">
        <ele>281.5</ele>
        <time>2015-10-25T09:30:27Z</time>
      </trkpt>
      <trkpt lat="43.71031" lon="3.49091">
        <ele>282.5</ele>
        <time>2015-10-25T09:30:29Z</time>
      </trkpt>
      <trkpt lat="43.71033" lon="3.49085">
        <ele>281.5</ele>
        <time>2015-10-25T09:30:29Z</time>
      </trkpt>
      <trkpt lat="43.71032" lon="3.49076">
        <ele>279</ele>
        <time>2015-10-25T09:30:31Z</time>
      </trkpt>
      <trkpt lat="43.7103" lon="3.49069">
        <ele>277.5</ele>
        <time>2015-10-25T09:30:32Z</time>
      </trkpt>
      <trkpt lat="43.71031" lon="3.49062">
        <ele>276.5</ele>
        <time>2015-10-25T09:30:32Z</time>
      </trkpt>
      <trkpt lat="43.71033" lon="3.49056">
        <ele>277.5</ele>
        <time>2015-10-25T09:30:33Z</time>
      </trkpt>
      <trkpt lat="43.71036" lon="3.49054">
        <ele>277</ele>
        <time>2015-10-25T09:30:34Z</time>
      </trkpt>
      <trkpt lat="43.71039" lon="3.4905">
        <ele>276.5</ele>
        <time>2015-10-25T09:30:36Z</time>
      </trkpt>
      <trkpt lat="43.71041" lon="3.49048">
        <ele>276</ele>
        <time>2015-10-25T09:30:36Z</time>
      </trkpt>
      <trkpt lat="43.71043" lon="3.49045">
        <ele>275.5</ele>
        <time>2015-10-25T09:30:37Z</time>
      </trkpt>
      <trkpt lat="43.71045" lon="3.49043">
        <ele>275.5</ele>
        <time>2015-10-25T09:30:38Z</time>
      </trkpt>
      <trkpt lat="43.71047" lon="3.49041">
        <ele>275.5</ele>
        <time>2015-10-25T09:30:39Z</time>
      </trkpt>
      <trkpt lat="43.71048" lon="3.49038">
        <ele>275</ele>
        <time>2015-10-25T09:30:40Z</time>
      </trkpt>
      <trkpt lat="43.7105" lon="3.49036">
        <ele>274.5</ele>
        <time>2015-10-25T09:30:41Z</time>
      </trkpt>
      <trkpt lat="43.71052" lon="3.49034">
        <ele>274.5</ele>
        <time>2015-10-25T09:30:42Z</time>
      </trkpt>
      <trkpt lat="43.71054" lon="3.49032">
        <ele>274.5</ele>
        <time>2015-10-25T09:30:43Z</time>
      </trkpt>
      <trkpt lat="43.71055" lon="3.4903">
        <ele>274.5</ele>
        <time>2015-10-25T09:30:44Z</time>
      </trkpt>
      <trkpt lat="43.71057" lon="3.49028">
        <ele>275</ele>
        <time>2015-10-25T09:30:45Z</time>
      </trkpt>
      <trkpt lat="43.71059" lon="3.49026">
        <ele>275</ele>
        <time>2015-10-25T09:30:46Z</time>
      </trkpt>
      <trkpt lat="43.7106" lon="3.49025">
        <ele>275</ele>
        <time>2015-10-25T09:30:47Z</time>
      </trkpt>
      <trkpt lat="43.71061" lon="3.49024">
        <ele>275</ele>
        <time>2015-10-25T09:30:48Z</time>
      </trkpt>
      <trkpt lat="43.71061" lon="3.49024">
        <ele>275</ele>
        <time>2015-10-25T09:30:49Z</time>
      </trkpt>
      <trkpt lat="43.71062" lon="3.49023">
        <ele>274</ele>
        <time>2015-10-25T09:30:52Z</time>
      </trkpt>
      <trkpt lat="43.71063" lon="3.4902">
        <ele>273.5</ele>
        <time>2015-10-25T09:30:54Z</time>
      </trkpt>
      <trkpt lat="43.71064" lon="3.49019">
        <ele>273.5</ele>
        <time>2015-10-25T09:30:55Z</time>
      </trkpt>
      <trkpt lat="43.71066" lon="3.49017">
        <ele>273.5</ele>
        <time>2015-10-25T09:30:56Z</time>
      </trkpt>
      <trkpt lat="43.71067" lon="3.49016">
        <ele>273.5</ele>
        <time>2015-10-25T09:30:57Z</time>
      </trkpt>
      <trkpt lat="43.71068" lon="3.49014">
        <ele>273.5</ele>
        <time>2015-10-25T09:30:58Z</time>
      </trkpt>
      <trkpt lat="43.71069" lon="3.49012">
        <ele>273.5</ele>
        <time>2015-10-25T09:30:59Z</time>
      </trkpt>
      <trkpt lat="43.7107" lon="3.49009">
        <ele>273.5</ele>
        <time>2015-10-25T09:31:00Z</time>
      </trkpt>
      <trkpt lat="43.71072" lon="3.49007">
        <ele>273.5</ele>
        <time>2015-10-25T09:31:01Z</time>
      </trkpt>
      <trkpt lat="43.71072" lon="3.49005">
        <ele>273.5</ele>
        <time>2015-10-25T09:31:02Z</time>
      </trkpt>
      <trkpt lat="43.71073" lon="3.49002">
        <ele>273.5</ele>
        <time>2015-10-25T09:31:03Z</time>
      </trkpt>
      <trkpt lat="43.71073" lon="3.48999">
        <ele>273.5</ele>
        <time>2015-10-25T09:31:04Z</time>
      </trkpt>
      <trkpt lat="43.71073" lon="3.48996">
        <ele>273.5</ele>
        <time>2015-10-25T09:31:05Z</time>
      </trkpt>
      <trkpt lat="43.71073" lon="3.48994">
        <ele>273.5</ele>
        <time>2015-10-25T09:31:06Z</time>
      </trkpt>
      <trkpt lat="43.71072" lon="3.48991">
        <ele>273.5</ele>
        <time>2015-10-25T09:31:07Z</time>
      </trkpt>
      <trkpt lat="43.71071" lon="3.48989">
        <ele>273</ele>
        <time>2015-10-25T09:31:08Z</time>
      </trkpt>
      <trkpt lat="43.71071" lon="3.48987">
        <ele>273</ele>
        <time>2015-10-25T09:31:09Z</time>
      </trkpt>
      <trkpt lat="43.7107" lon="3.48986">
        <ele>272</ele>
        <time>2015-10-25T09:31:10Z</time>
      </trkpt>
      <trkpt lat="43.71069" lon="3.48984">
        <ele>271.5</ele>
        <time>2015-10-25T09:31:11Z</time>
      </trkpt>
      <trkpt lat="43.71068" lon="3.48983">
        <ele>271.5</ele>
        <time>2015-10-25T09:31:12Z</time>
      </trkpt>
      <trkpt lat="43.71066" lon="3.48981">
        <ele>271</ele>
        <time>2015-10-25T09:31:13Z</time>
      </trkpt>
      <trkpt lat="43.71065" lon="3.4898">
        <ele>271</ele>
        <time>2015-10-25T09:31:14Z</time>
      </trkpt>
      <trkpt lat="43.71064" lon="3.48978">
        <ele>270.5</ele>
        <time>2015-10-25T09:31:15Z</time>
      </trkpt>
      <trkpt lat="43.71062" lon="3.48977">
        <ele>270</ele>
        <time>2015-10-25T09:31:16Z</time>
      </trkpt>
      <trkpt lat="43.71061" lon="3.48976">
        <ele>270</ele>
        <time>2015-10-25T09:31:17Z</time>
      </trkpt>
      <trkpt lat="43.71059" lon="3.48974">
        <ele>269.5</ele>
        <time>2015-10-25T09:31:18Z</time>
      </trkpt>
      <trkpt lat="43.71058" lon="3.48972">
        <ele>269.5</ele>
        <time>2015-10-25T09:31:19Z</time>
      </trkpt>
      <trkpt lat="43.71057" lon="3.4897">
        <ele>269.5</ele>
        <time>2015-10-25T09:31:20Z</time>
      </trkpt>
      <trkpt lat="43.71055" lon="3.48968">
        <ele>269</ele>
        <time>2015-10-25T09:31:21Z</time>
      </trkpt>
      <trkpt lat="43.71054" lon="3.48966">
        <ele>269</ele>
        <time>2015-10-25T09:31:22Z</time>
      </trkpt>
      <trkpt lat="43.71053" lon="3.48964">
        <ele>268.5</ele>
        <time>2015-10-25T09:31:23Z</time>
      </trkpt>
      <trkpt lat="43.71051" lon="3.48962">
        <ele>268.5</ele>
        <time>2015-10-25T09:31:24Z</time>
      </trkpt>
      <trkpt lat="43.7105" lon="3.4896">
        <ele>268.5</ele>
        <time>2015-10-25T09:31:25Z</time>
      </trkpt>
      <trkpt lat="43.71048" lon="3.48958">
        <ele>268</ele>
        <time>2015-10-25T09:31:26Z</time>
      </trkpt>
      <trkpt lat="43.71047" lon="3.48956">
        <ele>268.5</ele>
        <time>2015-10-25T09:31:27Z</time>
      </trkpt>
      <trkpt lat="43.71046" lon="3.48954">
        <ele>268</ele>
        <time>2015-10-25T09:31:28Z</time>
      </trkpt>
      <trkpt lat="43.71044" lon="3.48952">
        <ele>268.5</ele>
        <time>2015-10-25T09:31:29Z</time>
      </trkpt>
      <trkpt lat="43.71043" lon="3.48949">
        <ele>268.5</ele>
        <time>2015-10-25T09:31:30Z</time>
      </trkpt>
      <trkpt lat="43.71042" lon="3.48947">
        <ele>268.5</ele>
        <time>2015-10-25T09:31:31Z</time>
      </trkpt>
      <trkpt lat="43.71041" lon="3.48944">
        <ele>269</ele>
        <time>2015-10-25T09:31:32Z</time>
      </trkpt>
      <trkpt lat="43.7104" lon="3.48942">
        <ele>269</ele>
        <time>2015-10-25T09:31:33Z</time>
      </trkpt>
      <trkpt lat="43.7104" lon="3.48939">
        <ele>269</ele>
        <time>2015-10-25T09:31:34Z</time>
      </trkpt>
      <trkpt lat="43.7104" lon="3.48936">
        <ele>269.5</ele>
        <time>2015-10-25T09:31:35Z</time>
      </trkpt>
      <trkpt lat="43.7104" lon="3.48933">
        <ele>269.5</ele>
        <time>2015-10-25T09:31:36Z</time>
      </trkpt>
      <trkpt lat="43.7104" lon="3.48931">
        <ele>270</ele>
        <time>2015-10-25T09:31:37Z</time>
      </trkpt>
      <trkpt lat="43.71041" lon="3.48929">
        <ele>269.5</ele>
        <time>2015-10-25T09:31:38Z</time>
      </trkpt>
      <trkpt lat="43.71042" lon="3.48927">
        <ele>270</ele>
        <time>2015-10-25T09:31:39Z</time>
      </trkpt>
      <trkpt lat="43.71043" lon="3.48925">
        <ele>269.5</ele>
        <time>2015-10-25T09:31:40Z</time>
      </trkpt>
      <trkpt lat="43.71043" lon="3.48924">
        <ele>269.5</ele>
        <time>2015-10-25T09:31:41Z</time>
      </trkpt>
      <trkpt lat="43.71044" lon="3.48923">
        <ele>269</ele>
        <time>2015-10-25T09:31:42Z</time>
      </trkpt>
      <trkpt lat="43.71045" lon="3.48922">
        <ele>269</ele>
        <time>2015-10-25T09:31:43Z</time>
      </trkpt>
      <trkpt lat="43.71046" lon="3.48921">
        <ele>269.5</ele>
        <time>2015-10-25T09:31:44Z</time>
      </trkpt>
      <trkpt lat="43.71047" lon="3.4892">
        <ele>269.5</ele>
        <time>2015-10-25T09:31:45Z</time>
      </trkpt>
      <trkpt lat="43.71048" lon="3.4892">
        <ele>268.5</ele>
        <time>2015-10-25T09:31:54Z</time>
      </trkpt>
      <trkpt lat="43.71049" lon="3.48921">
        <ele>268.5</ele>
        <time>2015-10-25T09:31:59Z</time>
      </trkpt>
      <trkpt lat="43.7105" lon="3.48922">
        <ele>268</ele>
        <time>2015-10-25T09:32:02Z</time>
      </trkpt>
      <trkpt lat="43.71052" lon="3.48921">
        <ele>269</ele>
        <time>2015-10-25T09:32:05Z</time>
      </trkpt>
      <trkpt lat="43.71052" lon="3.48919">
        <ele>270.5</ele>
        <time>2015-10-25T09:32:07Z</time>
      </trkpt>
      <trkpt lat="43.71053" lon="3.48918">
        <ele>270.5</ele>
        <time>2015-10-25T09:32:08Z</time>
      </trkpt>
      <trkpt lat="43.71053" lon="3.48917">
        <ele>270.5</ele>
        <time>2015-10-25T09:32:11Z</time>
      </trkpt>
      <trkpt lat="43.71053" lon="3.48917">
        <ele>269.5</ele>
        <time>2015-10-25T09:32:19Z</time>
      </trkpt>
      <trkpt lat="43.71052" lon="3.48917">
        <ele>270</ele>
        <time>2015-10-25T09:32:21Z</time>
      </trkpt>
      <trkpt lat="43.71051" lon="3.48918">
        <ele>270</ele>
        <time>2015-10-25T09:32:22Z</time>
      </trkpt>
      <trkpt lat="43.71051" lon="3.48919">
        <ele>269.5</ele>
        <time>2015-10-25T09:32:23Z</time>
      </trkpt>
      <trkpt lat="43.71051" lon="3.48919">
        <ele>269.5</ele>
        <time>2015-10-25T09:32:24Z</time>
      </trkpt>
      <trkpt lat="43.71054" lon="3.48924">
        <ele>271</ele>
        <time>2015-10-25T09:32:56Z</time>
      </trkpt>
      <trkpt lat="43.71053" lon="3.48922">
        <ele>272</ele>
        <time>2015-10-25T09:32:58Z</time>
      </trkpt>
      <trkpt lat="43.71054" lon="3.48921">
        <ele>272.5</ele>
        <time>2015-10-25T09:32:59Z</time>
      </trkpt>
      <trkpt lat="43.71054" lon="3.4892">
        <ele>273</ele>
        <time>2015-10-25T09:33:00Z</time>
      </trkpt>
      <trkpt lat="43.71054" lon="3.4892">
        <ele>272.5</ele>
        <time>2015-10-25T09:33:01Z</time>
      </trkpt>
      <trkpt lat="43.71053" lon="3.48919">
        <ele>272.5</ele>
        <time>2015-10-25T09:33:02Z</time>
      </trkpt>
      <trkpt lat="43.71053" lon="3.48919">
        <ele>272.5</ele>
        <time>2015-10-25T09:33:03Z</time>
      </trkpt>
      <trkpt lat="43.71053" lon="3.48918">
        <ele>272.5</ele>
        <time>2015-10-25T09:33:05Z</time>
      </trkpt>
      <trkpt lat="43.71052" lon="3.48919">
        <ele>274</ele>
        <time>2015-10-25T09:33:07Z</time>
      </trkpt>
      <trkpt lat="43.71052" lon="3.48918">
        <ele>273.5</ele>
        <time>2015-10-25T09:33:09Z</time>
      </trkpt>
      <trkpt lat="43.71052" lon="3.48918">
        <ele>274</ele>
        <time>2015-10-25T09:33:13Z</time>
      </trkpt>
      <trkpt lat="43.71051" lon="3.4892">
        <ele>273.5</ele>
        <time>2015-10-25T09:33:20Z</time>
      </trkpt>
      <trkpt lat="43.7105" lon="3.48921">
        <ele>272.5</ele>
        <time>2015-10-25T09:33:22Z</time>
      </trkpt>
      <trkpt lat="43.71051" lon="3.48921">
        <ele>272.5</ele>
        <time>2015-10-25T09:33:23Z</time>
      </trkpt>
      <trkpt lat="43.71052" lon="3.4892">
        <ele>271.5</ele>
        <time>2015-10-25T09:33:39Z</time>
      </trkpt>
      <trkpt lat="43.71053" lon="3.48921">
        <ele>271.5</ele>
        <time>2015-10-25T09:33:41Z</time>
      </trkpt>
      <trkpt lat="43.71054" lon="3.4892">
        <ele>272</ele>
        <time>2015-10-25T09:33:42Z</time>
      </trkpt>
      <trkpt lat="43.71054" lon="3.48921">
        <ele>272</ele>
        <time>2015-10-25T09:33:43Z</time>
      </trkpt>
      <trkpt lat="43.71054" lon="3.48918">
        <ele>272</ele>
        <time>2015-10-25T09:33:50Z</time>
      </trkpt>
      <trkpt lat="43.71054" lon="3.48916">
        <ele>272.5</ele>
        <time>2015-10-25T09:33:52Z</time>
      </trkpt>
      <trkpt lat="43.71054" lon="3.48915">
        <ele>273</ele>
        <time>2015-10-25T09:33:53Z</time>
      </trkpt>
      <trkpt lat="43.71053" lon="3.48914">
        <ele>274</ele>
        <time>2015-10-25T09:33:54Z</time>
      </trkpt>
      <trkpt lat="43.71054" lon="3.48914">
        <ele>273.5</ele>
        <time>2015-10-25T09:33:55Z</time>
      </trkpt>
      <trkpt lat="43.71055" lon="3.48914">
        <ele>276</ele>
        <time>2015-10-25T09:34:05Z</time>
      </trkpt>
      <trkpt lat="43.71054" lon="3.48912">
        <ele>277</ele>
        <time>2015-10-25T09:34:14Z</time>
      </trkpt>
      <trkpt lat="43.71055" lon="3.48912">
        <ele>277.5</ele>
        <time>2015-10-25T09:34:16Z</time>
      </trkpt>
      <trkpt lat="43.71055" lon="3.48912">
        <ele>278</ele>
        <time>2015-10-25T09:34:17Z</time>
      </trkpt>
      <trkpt lat="43.7106" lon="3.48913">
        <ele>277.5</ele>
        <time>2015-10-25T09:34:02Z</time>
      </trkpt>
      <trkpt lat="43.71059" lon="3.48912">
        <ele>277.5</ele>
        <time>2015-10-25T09:34:04Z</time>
      </trkpt>
      <trkpt lat="43.7106" lon="3.48912">
        <ele>278</ele>
        <time>2015-10-25T09:34:11Z</time>
      </trkpt>
      <trkpt lat="43.7106" lon="3.48913">
        <ele>278</ele>
        <time>2015-10-25T09:34:13Z</time>
      </trkpt>
      <trkpt lat="43.71059" lon="3.48912">
        <ele>278</ele>
        <time>2015-10-25T09:34:14Z</time>
      </trkpt>
      <trkpt lat="43.71062" lon="3.48914">
        <ele>276.5</ele>
        <time>2015-10-25T09:34:19Z</time>
      </trkpt>
      <trkpt lat="43.71061" lon="3.48914">
        <ele>277</ele>
        <time>2015-10-25T09:34:23Z</time>
      </trkpt>
      <trkpt lat="43.71061" lon="3.48914">
        <ele>276.5</ele>
        <time>2015-10-25T09:34:25Z</time>
      </trkpt>
      <trkpt lat="43.7106" lon="3.48915">
        <ele>276</ele>
        <time>2015-10-25T09:34:26Z</time>
      </trkpt>
      <trkpt lat="43.71062" lon="3.48915">
        <ele>276</ele>
        <time>2015-10-25T09:34:27Z</time>
      </trkpt>
      <trkpt lat="43.71064" lon="3.48915">
        <ele>275.5</ele>
        <time>2015-10-25T09:34:28Z</time>
      </trkpt>
      <trkpt lat="43.71066" lon="3.48915">
        <ele>275.5</ele>
        <time>2015-10-25T09:34:29Z</time>
      </trkpt>
      <trkpt lat="43.71064" lon="3.48915">
        <ele>275</ele>
        <time>2015-10-25T09:34:33Z</time>
      </trkpt>
      <trkpt lat="43.71064" lon="3.48917">
        <ele>273.5</ele>
        <time>2015-10-25T09:34:38Z</time>
      </trkpt>
      <trkpt lat="43.71061" lon="3.48918">
        <ele>272</ele>
        <time>2015-10-25T09:34:41Z</time>
      </trkpt>
      <trkpt lat="43.7106" lon="3.48919">
        <ele>271.5</ele>
        <time>2015-10-25T09:34:43Z</time>
      </trkpt>
      <trkpt lat="43.71061" lon="3.48919">
        <ele>271</ele>
        <time>2015-10-25T09:34:45Z</time>
      </trkpt>
      <trkpt lat="43.71061" lon="3.4892">
        <ele>271</ele>
        <time>2015-10-25T09:34:45Z</time>
      </trkpt>
      <trkpt lat="43.71058" lon="3.48917">
        <ele>269</ele>
        <time>2015-10-25T09:34:58Z</time>
      </trkpt>
      <trkpt lat="43.71058" lon="3.48914">
        <ele>268.5</ele>
        <time>2015-10-25T09:35:01Z</time>
      </trkpt>
      <trkpt lat="43.71059" lon="3.48913">
        <ele>268</ele>
        <time>2015-10-25T09:35:02Z</time>
      </trkpt>
      <trkpt lat="43.7106" lon="3.48912">
        <ele>269</ele>
        <time>2015-10-25T09:35:02Z</time>
      </trkpt>
      <trkpt lat="43.71061" lon="3.48911">
        <ele>269.5</ele>
        <time>2015-10-25T09:35:03Z</time>
      </trkpt>
      <trkpt lat="43.71062" lon="3.4891">
        <ele>270</ele>
        <time>2015-10-25T09:35:04Z</time>
      </trkpt>
      <trkpt lat="43.71063" lon="3.48909">
        <ele>270</ele>
        <time>2015-10-25T09:35:05Z</time>
      </trkpt>
      <trkpt lat="43.71064" lon="3.48908">
        <ele>270.5</ele>
        <time>2015-10-25T09:35:06Z</time>
      </trkpt>
      <trkpt lat="43.71066" lon="3.48907">
        <ele>270.5</ele>
        <time>2015-10-25T09:35:07Z</time>
      </trkpt>
      <trkpt lat="43.71068" lon="3.48905">
        <ele>270.5</ele>
        <time>2015-10-25T09:35:08Z</time>
      </trkpt>
      <trkpt lat="43.7107" lon="3.48904">
        <ele>270.5</ele>
        <time>2015-10-25T09:35:09Z</time>
      </trkpt>
      <trkpt lat="43.71071" lon="3.48903">
        <ele>271</ele>
        <time>2015-10-25T09:35:10Z</time>
      </trkpt>
      <trkpt lat="43.71073" lon="3.48902">
        <ele>271.5</ele>
        <time>2015-10-25T09:35:11Z</time>
      </trkpt>
      <trkpt lat="43.71075" lon="3.48901">
        <ele>272</ele>
        <time>2015-10-25T09:35:12Z</time>
      </trkpt>
      <trkpt lat="43.71077" lon="3.48899">
        <ele>272</ele>
        <time>2015-10-25T09:35:13Z</time>
      </trkpt>
      <trkpt lat="43.71079" lon="3.48898">
        <ele>272</ele>
        <time>2015-10-25T09:35:14Z</time>
      </trkpt>
      <trkpt lat="43.71081" lon="3.48897">
        <ele>272.5</ele>
        <time>2015-10-25T09:35:15Z</time>
      </trkpt>
      <trkpt lat="43.71083" lon="3.48896">
        <ele>272.5</ele>
        <time>2015-10-25T09:35:16Z</time>
      </trkpt>
      <trkpt lat="43.71085" lon="3.48895">
        <ele>273</ele>
        <time>2015-10-25T09:35:17Z</time>
      </trkpt>
      <trkpt lat="43.71088" lon="3.48894">
        <ele>273</ele>
        <time>2015-10-25T09:35:18Z</time>
      </trkpt>
      <trkpt lat="43.7109" lon="3.48893">
        <ele>273.5</ele>
        <time>2015-10-25T09:35:19Z</time>
      </trkpt>
      <trkpt lat="43.71091" lon="3.48891">
        <ele>274</ele>
        <time>2015-10-25T09:35:20Z</time>
      </trkpt>
      <trkpt lat="43.71094" lon="3.4889">
        <ele>274.5</ele>
        <time>2015-10-25T09:35:21Z</time>
      </trkpt>
      <trkpt lat="43.71096" lon="3.48888">
        <ele>274.5</ele>
        <time>2015-10-25T09:35:22Z</time>
      </trkpt>
      <trkpt lat="43.71098" lon="3.48887">
        <ele>274</ele>
        <time>2015-10-25T09:35:23Z</time>
      </trkpt>
      <trkpt lat="43.711" lon="3.48885">
        <ele>274</ele>
        <time>2015-10-25T09:35:24Z</time>
      </trkpt>
      <trkpt lat="43.71102" lon="3.48884">
        <ele>274</ele>
        <time>2015-10-25T09:35:25Z</time>
      </trkpt>
      <trkpt lat="43.71105" lon="3.48882">
        <ele>273.5</ele>
        <time>2015-10-25T09:35:26Z</time>
      </trkpt>
      <trkpt lat="43.71107" lon="3.4888">
        <ele>273</ele>
        <time>2015-10-25T09:35:27Z</time>
      </trkpt>
      <trkpt lat="43.71109" lon="3.48877">
        <ele>273</ele>
        <time>2015-10-25T09:35:28Z</time>
      </trkpt>
      <trkpt lat="43.7111" lon="3.48874">
        <ele>272.5</ele>
        <time>2015-10-25T09:35:29Z</time>
      </trkpt>
      <trkpt lat="43.71112" lon="3.48871">
        <ele>273</ele>
        <time>2015-10-25T09:35:30Z</time>
      </trkpt>
      <trkpt lat="43.71114" lon="3.48867">
        <ele>273</ele>
        <time>2015-10-25T09:35:31Z</time>
      </trkpt>
      <trkpt lat="43.71115" lon="3.48864">
        <ele>273</ele>
        <time>2015-10-25T09:35:32Z</time>
      </trkpt>
      <trkpt lat="43.71115" lon="3.4886">
        <ele>273.5</ele>
        <time>2015-10-25T09:35:33Z</time>
      </trkpt>
      <trkpt lat="43.71113" lon="3.48856">
        <ele>274.5</ele>
        <time>2015-10-25T09:35:34Z</time>
      </trkpt>
      <trkpt lat="43.71111" lon="3.48852">
        <ele>274.5</ele>
        <time>2015-10-25T09:35:35Z</time>
      </trkpt>
      <trkpt lat="43.71108" lon="3.48849">
        <ele>274.5</ele>
        <time>2015-10-25T09:35:36Z</time>
      </trkpt>
      <trkpt lat="43.71104" lon="3.48845">
        <ele>274.5</ele>
        <time>2015-10-25T09:35:37Z</time>
      </trkpt>
      <trkpt lat="43.711" lon="3.48841">
        <ele>274.5</ele>
        <time>2015-10-25T09:35:38Z</time>
      </trkpt>
      <trkpt lat="43.71095" lon="3.4884">
        <ele>274.5</ele>
        <time>2015-10-25T09:35:39Z</time>
      </trkpt>
      <trkpt lat="43.71089" lon="3.48842">
        <ele>274.5</ele>
        <time>2015-10-25T09:35:40Z</time>
      </trkpt>
      <trkpt lat="43.71084" lon="3.48842">
        <ele>273</ele>
        <time>2015-10-25T09:35:41Z</time>
      </trkpt>
      <trkpt lat="43.71077" lon="3.48843">
        <ele>273</ele>
        <time>2015-10-25T09:35:42Z</time>
      </trkpt>
      <trkpt lat="43.71071" lon="3.48844">
        <ele>272.5</ele>
        <time>2015-10-25T09:35:43Z</time>
      </trkpt>
      <trkpt lat="43.71064" lon="3.48845">
        <ele>272</ele>
        <time>2015-10-25T09:35:44Z</time>
      </trkpt>
      <trkpt lat="43.71056" lon="3.48844">
        <ele>273.5</ele>
        <time>2015-10-25T09:35:45Z</time>
      </trkpt>
      <trkpt lat="43.71048" lon="3.48843">
        <ele>273</ele>
        <time>2015-10-25T09:35:46Z</time>
      </trkpt>
      <trkpt lat="43.71041" lon="3.48841">
        <ele>272</ele>
        <time>2015-10-25T09:35:47Z</time>
      </trkpt>
      <trkpt lat="43.71033" lon="3.48839">
        <ele>271.5</ele>
        <time>2015-10-25T09:35:48Z</time>
      </trkpt>
      <trkpt lat="43.71025" lon="3.48836">
        <ele>271</ele>
        <time>2015-10-25T09:35:49Z</time>
      </trkpt>
      <trkpt lat="43.71018" lon="3.48832">
        <ele>270.5</ele>
        <time>2015-10-25T09:35:50Z</time>
      </trkpt>
      <trkpt lat="43.7101" lon="3.48828">
        <ele>269.5</ele>
        <time>2015-10-25T09:35:51Z</time>
      </trkpt>
      <trkpt lat="43.71002" lon="3.48823">
        <ele>268.5</ele>
        <time>2015-10-25T09:35:52Z</time>
      </trkpt>
      <trkpt lat="43.70995" lon="3.48818">
        <ele>268</ele>
        <time>2015-10-25T09:35:53Z</time>
      </trkpt>
      <trkpt lat="43.70987" lon="3.48813">
        <ele>267.5</ele>
        <time>2015-10-25T09:35:54Z</time>
      </trkpt>
      <trkpt lat="43.70979" lon="3.48807">
        <ele>267</ele>
        <time>2015-10-25T09:35:55Z</time>
      </trkpt>
      <trkpt lat="43.70972" lon="3.488">
        <ele>266</ele>
        <time>2015-10-25T09:35:56Z</time>
      </trkpt>
      <trkpt lat="43.70964" lon="3.48793">
        <ele>265</ele>
        <time>2015-10-25T09:35:57Z</time>
      </trkpt>
      <trkpt lat="43.70958" lon="3.48785">
        <ele>264.5</ele>
        <time>2015-10-25T09:35:58Z</time>
      </trkpt>
      <trkpt lat="43.70951" lon="3.48776">
        <ele>263.5</ele>
        <time>2015-10-25T09:35:59Z</time>
      </trkpt>
      <trkpt lat="43.70944" lon="3.48768">
        <ele>262.5</ele>
        <time>2015-10-25T09:36:00Z</time>
      </trkpt>
      <trkpt lat="43.70937" lon="3.48759">
        <ele>261.5</ele>
        <time>2015-10-25T09:36:01Z</time>
      </trkpt>
      <trkpt lat="43.70929" lon="3.48751">
        <ele>261</ele>
        <time>2015-10-25T09:36:02Z</time>
      </trkpt>
      <trkpt lat="43.70922" lon="3.48742">
        <ele>260</ele>
        <time>2015-10-25T09:36:03Z</time>
      </trkpt>
      <trkpt lat="43.70915" lon="3.48734">
        <ele>259</ele>
        <time>2015-10-25T09:36:04Z</time>
      </trkpt>
      <trkpt lat="43.70907" lon="3.48725">
        <ele>258.5</ele>
        <time>2015-10-25T09:36:05Z</time>
      </trkpt>
      <trkpt lat="43.709" lon="3.48716">
        <ele>258</ele>
        <time>2015-10-25T09:36:06Z</time>
      </trkpt>
      <trkpt lat="43.70893" lon="3.48707">
        <ele>257.5</ele>
        <time>2015-10-25T09:36:07Z</time>
      </trkpt>
      <trkpt lat="43.70886" lon="3.48698">
        <ele>256.5</ele>
        <time>2015-10-25T09:36:08Z</time>
      </trkpt>
      <trkpt lat="43.70879" lon="3.4869">
        <ele>255.5</ele>
        <time>2015-10-25T09:36:09Z</time>
      </trkpt>
      <trkpt lat="43.70872" lon="3.48681">
        <ele>254.5</ele>
        <time>2015-10-25T09:36:10Z</time>
      </trkpt>
      <trkpt lat="43.70865" lon="3.48672">
        <ele>254</ele>
        <time>2015-10-25T09:36:11Z</time>
      </trkpt>
      <trkpt lat="43.70858" lon="3.48664">
        <ele>254</ele>
        <time>2015-10-25T09:36:12Z</time>
      </trkpt>
      <trkpt lat="43.70844" lon="3.48647">
        <ele>253.5</ele>
        <time>2015-10-25T09:36:14Z</time>
      </trkpt>
      <trkpt lat="43.70837" lon="3.48637">
        <ele>252.5</ele>
        <time>2015-10-25T09:36:15Z</time>
      </trkpt>
      <trkpt lat="43.7083" lon="3.48628">
        <ele>252</ele>
        <time>2015-10-25T09:36:16Z</time>
      </trkpt>
      <trkpt lat="43.70823" lon="3.4862">
        <ele>251.5</ele>
        <time>2015-10-25T09:36:17Z</time>
      </trkpt>
      <trkpt lat="43.70816" lon="3.48612">
        <ele>251</ele>
        <time>2015-10-25T09:36:18Z</time>
      </trkpt>
      <trkpt lat="43.70809" lon="3.48604">
        <ele>249.5</ele>
        <time>2015-10-25T09:36:19Z</time>
      </trkpt>
      <trkpt lat="43.70802" lon="3.48596">
        <ele>249</ele>
        <time>2015-10-25T09:36:20Z</time>
      </trkpt>
      <trkpt lat="43.70796" lon="3.48588">
        <ele>248.5</ele>
        <time>2015-10-25T09:36:21Z</time>
      </trkpt>
      <trkpt lat="43.70789" lon="3.4858">
        <ele>248</ele>
        <time>2015-10-25T09:36:22Z</time>
      </trkpt>
      <trkpt lat="43.70782" lon="3.48572">
        <ele>247.5</ele>
        <time>2015-10-25T09:36:23Z</time>
      </trkpt>
      <trkpt lat="43.70776" lon="3.48564">
        <ele>247</ele>
        <time>2015-10-25T09:36:24Z</time>
      </trkpt>
      <trkpt lat="43.70769" lon="3.48557">
        <ele>246.5</ele>
        <time>2015-10-25T09:36:25Z</time>
      </trkpt>
      <trkpt lat="43.70763" lon="3.48549">
        <ele>246.5</ele>
        <time>2015-10-25T09:36:26Z</time>
      </trkpt>
      <trkpt lat="43.70757" lon="3.48541">
        <ele>246</ele>
        <time>2015-10-25T09:36:27Z</time>
      </trkpt>
      <trkpt lat="43.7075" lon="3.48533">
        <ele>245.5</ele>
        <time>2015-10-25T09:36:28Z</time>
      </trkpt>
      <trkpt lat="43.70744" lon="3.48526">
        <ele>244.5</ele>
        <time>2015-10-25T09:36:29Z</time>
      </trkpt>
      <trkpt lat="43.70738" lon="3.48518">
        <ele>244.5</ele>
        <time>2015-10-25T09:36:30Z</time>
      </trkpt>
      <trkpt lat="43.70732" lon="3.4851">
        <ele>244</ele>
        <time>2015-10-25T09:36:31Z</time>
      </trkpt>
      <trkpt lat="43.70726" lon="3.48502">
        <ele>243</ele>
        <time>2015-10-25T09:36:32Z</time>
      </trkpt>
      <trkpt lat="43.70721" lon="3.48495">
        <ele>242.5</ele>
        <time>2015-10-25T09:36:33Z</time>
      </trkpt>
      <trkpt lat="43.70715" lon="3.48487">
        <ele>242.5</ele>
        <time>2015-10-25T09:36:34Z</time>
      </trkpt>
      <trkpt lat="43.70709" lon="3.48479">
        <ele>242.5</ele>
        <time>2015-10-25T09:36:35Z</time>
      </trkpt>
      <trkpt lat="43.70703" lon="3.48472">
        <ele>242</ele>
        <time>2015-10-25T09:36:36Z</time>
      </trkpt>
      <trkpt lat="43.70697" lon="3.48464">
        <ele>241.5</ele>
        <time>2015-10-25T09:36:37Z</time>
      </trkpt>
      <trkpt lat="43.70692" lon="3.48456">
        <ele>241</ele>
        <time>2015-10-25T09:36:38Z</time>
      </trkpt>
      <trkpt lat="43.70686" lon="3.48448">
        <ele>240.5</ele>
        <time>2015-10-25T09:36:39Z</time>
      </trkpt>
      <trkpt lat="43.7068" lon="3.48439">
        <ele>240</ele>
        <time>2015-10-25T09:36:40Z</time>
      </trkpt>
      <trkpt lat="43.70675" lon="3.48431">
        <ele>240</ele>
        <time>2015-10-25T09:36:41Z</time>
      </trkpt>
      <trkpt lat="43.70669" lon="3.48423">
        <ele>239.5</ele>
        <time>2015-10-25T09:36:42Z</time>
      </trkpt>
      <trkpt lat="43.70663" lon="3.48415">
        <ele>239</ele>
        <time>2015-10-25T09:36:43Z</time>
      </trkpt>
      <trkpt lat="43.70657" lon="3.48407">
        <ele>238.5</ele>
        <time>2015-10-25T09:36:44Z</time>
      </trkpt>
      <trkpt lat="43.70652" lon="3.48399">
        <ele>238</ele>
        <time>2015-10-25T09:36:45Z</time>
      </trkpt>
      <trkpt lat="43.70646" lon="3.4839">
        <ele>237.5</ele>
        <time>2015-10-25T09:36:46Z</time>
      </trkpt>
      <trkpt lat="43.7064" lon="3.48382">
        <ele>237.5</ele>
        <time>2015-10-25T09:36:47Z</time>
      </trkpt>
      <trkpt lat="43.70634" lon="3.48375">
        <ele>237</ele>
        <time>2015-10-25T09:36:48Z</time>
      </trkpt>
      <trkpt lat="43.70627" lon="3.48367">
        <ele>236.5</ele>
        <time>2015-10-25T09:36:49Z</time>
      </trkpt>
      <trkpt lat="43.70621" lon="3.48361">
        <ele>236.5</ele>
        <time>2015-10-25T09:36:50Z</time>
      </trkpt>
      <trkpt lat="43.70614" lon="3.48355">
        <ele>236</ele>
        <time>2015-10-25T09:36:51Z</time>
      </trkpt>
      <trkpt lat="43.70608" lon="3.48349">
        <ele>235.5</ele>
        <time>2015-10-25T09:36:52Z</time>
      </trkpt>
      <trkpt lat="43.70602" lon="3.48344">
        <ele>235.5</ele>
        <time>2015-10-25T09:36:53Z</time>
      </trkpt>
      <trkpt lat="43.70596" lon="3.48339">
        <ele>235.5</ele>
        <time>2015-10-25T09:36:54Z</time>
      </trkpt>
      <trkpt lat="43.70589" lon="3.48332">
        <ele>235.5</ele>
        <time>2015-10-25T09:36:56Z</time>
      </trkpt>
      <trkpt lat="43.70586" lon="3.48329">
        <ele>235.5</ele>
        <time>2015-10-25T09:36:57Z</time>
      </trkpt>
      <trkpt lat="43.70584" lon="3.48326">
        <ele>235</ele>
        <time>2015-10-25T09:36:58Z</time>
      </trkpt>
      <trkpt lat="43.70583" lon="3.48324">
        <ele>235</ele>
        <time>2015-10-25T09:36:59Z</time>
      </trkpt>
      <trkpt lat="43.70582" lon="3.4832">
        <ele>235</ele>
        <time>2015-10-25T09:37:00Z</time>
      </trkpt>
      <trkpt lat="43.70581" lon="3.48317">
        <ele>235</ele>
        <time>2015-10-25T09:37:01Z</time>
      </trkpt>
      <trkpt lat="43.7058" lon="3.48312">
        <ele>233.5</ele>
        <time>2015-10-25T09:37:02Z</time>
      </trkpt>
      <trkpt lat="43.70578" lon="3.48307">
        <ele>233</ele>
        <time>2015-10-25T09:37:03Z</time>
      </trkpt>
      <trkpt lat="43.70576" lon="3.48304">
        <ele>233.5</ele>
        <time>2015-10-25T09:37:04Z</time>
      </trkpt>
      <trkpt lat="43.70573" lon="3.48298">
        <ele>233</ele>
        <time>2015-10-25T09:37:05Z</time>
      </trkpt>
      <trkpt lat="43.70568" lon="3.48293">
        <ele>231.5</ele>
        <time>2015-10-25T09:37:06Z</time>
      </trkpt>
      <trkpt lat="43.70563" lon="3.48289">
        <ele>231</ele>
        <time>2015-10-25T09:37:07Z</time>
      </trkpt>
      <trkpt lat="43.70558" lon="3.48284">
        <ele>231</ele>
        <time>2015-10-25T09:37:08Z</time>
      </trkpt>
      <trkpt lat="43.70553" lon="3.48279">
        <ele>229.5</ele>
        <time>2015-10-25T09:37:09Z</time>
      </trkpt>
      <trkpt lat="43.70547" lon="3.48276">
        <ele>228.5</ele>
        <time>2015-10-25T09:37:10Z</time>
      </trkpt>
      <trkpt lat="43.70542" lon="3.48271">
        <ele>228</ele>
        <time>2015-10-25T09:37:11Z</time>
      </trkpt>
      <trkpt lat="43.70537" lon="3.48267">
        <ele>227</ele>
        <time>2015-10-25T09:37:12Z</time>
      </trkpt>
      <trkpt lat="43.70532" lon="3.48261">
        <ele>226</ele>
        <time>2015-10-25T09:37:13Z</time>
      </trkpt>
      <trkpt lat="43.70528" lon="3.48257">
        <ele>224.5</ele>
        <time>2015-10-25T09:37:14Z</time>
      </trkpt>
      <trkpt lat="43.70523" lon="3.48252">
        <ele>224</ele>
        <time>2015-10-25T09:37:15Z</time>
      </trkpt>
      <trkpt lat="43.70519" lon="3.48248">
        <ele>223</ele>
        <time>2015-10-25T09:37:16Z</time>
      </trkpt>
      <trkpt lat="43.70516" lon="3.48244">
        <ele>224</ele>
        <time>2015-10-25T09:37:17Z</time>
      </trkpt>
      <trkpt lat="43.70513" lon="3.48238">
        <ele>222.5</ele>
        <time>2015-10-25T09:37:19Z</time>
      </trkpt>
      <trkpt lat="43.70512" lon="3.48235">
        <ele>222.5</ele>
        <time>2015-10-25T09:37:20Z</time>
      </trkpt>
      <trkpt lat="43.70507" lon="3.48226">
        <ele>223</ele>
        <time>2015-10-25T09:37:22Z</time>
      </trkpt>
      <trkpt lat="43.70506" lon="3.48222">
        <ele>223</ele>
        <time>2015-10-25T09:37:23Z</time>
      </trkpt>
      <trkpt lat="43.70504" lon="3.48221">
        <ele>221</ele>
        <time>2015-10-25T09:37:25Z</time>
      </trkpt>
      <trkpt lat="43.70503" lon="3.4822">
        <ele>221</ele>
        <time>2015-10-25T09:37:26Z</time>
      </trkpt>
      <trkpt lat="43.70502" lon="3.4822">
        <ele>221</ele>
        <time>2015-10-25T09:37:27Z</time>
      </trkpt>
      <trkpt lat="43.70501" lon="3.48219">
        <ele>221.5</ele>
        <time>2015-10-25T09:37:28Z</time>
      </trkpt>
      <trkpt lat="43.705" lon="3.48219">
        <ele>221.5</ele>
        <time>2015-10-25T09:37:29Z</time>
      </trkpt>
      <trkpt lat="43.70499" lon="3.48219">
        <ele>221.5</ele>
        <time>2015-10-25T09:37:30Z</time>
      </trkpt>
      <trkpt lat="43.70499" lon="3.48219">
        <ele>221.5</ele>
        <time>2015-10-25T09:37:31Z</time>
      </trkpt>
      <trkpt lat="43.70498" lon="3.48219">
        <ele>222.5</ele>
        <time>2015-10-25T09:37:32Z</time>
      </trkpt>
      <trkpt lat="43.70498" lon="3.48219">
        <ele>222.5</ele>
        <time>2015-10-25T09:37:33Z</time>
      </trkpt>
      <trkpt lat="43.70497" lon="3.48219">
        <ele>222.5</ele>
        <time>2015-10-25T09:37:34Z</time>
      </trkpt>
      <trkpt lat="43.70496" lon="3.48218">
        <ele>223</ele>
        <time>2015-10-25T09:37:35Z</time>
      </trkpt>
      <trkpt lat="43.70496" lon="3.48217">
        <ele>222.5</ele>
        <time>2015-10-25T09:37:36Z</time>
      </trkpt>
      <trkpt lat="43.70494" lon="3.48216">
        <ele>223</ele>
        <time>2015-10-25T09:37:38Z</time>
      </trkpt>
      <trkpt lat="43.70494" lon="3.48215">
        <ele>223</ele>
        <time>2015-10-25T09:37:39Z</time>
      </trkpt>
      <trkpt lat="43.70494" lon="3.48212">
        <ele>223</ele>
        <time>2015-10-25T09:37:40Z</time>
      </trkpt>
      <trkpt lat="43.70492" lon="3.48208">
        <ele>223</ele>
        <time>2015-10-25T09:37:41Z</time>
      </trkpt>
      <trkpt lat="43.7049" lon="3.48206">
        <ele>223</ele>
        <time>2015-10-25T09:37:42Z</time>
      </trkpt>
      <trkpt lat="43.70489" lon="3.48203">
        <ele>222.5</ele>
        <time>2015-10-25T09:37:43Z</time>
      </trkpt>
      <trkpt lat="43.70487" lon="3.48197">
        <ele>221</ele>
        <time>2015-10-25T09:37:45Z</time>
      </trkpt>
      <trkpt lat="43.70487" lon="3.48195">
        <ele>219.5</ele>
        <time>2015-10-25T09:37:46Z</time>
      </trkpt>
      <trkpt lat="43.70485" lon="3.48192">
        <ele>219</ele>
        <time>2015-10-25T09:37:47Z</time>
      </trkpt>
      <trkpt lat="43.70481" lon="3.48189">
        <ele>219</ele>
        <time>2015-10-25T09:37:48Z</time>
      </trkpt>
      <trkpt lat="43.7048" lon="3.48186">
        <ele>219</ele>
        <time>2015-10-25T09:37:49Z</time>
      </trkpt>
      <trkpt lat="43.7048" lon="3.48184">
        <ele>218.5</ele>
        <time>2015-10-25T09:37:50Z</time>
      </trkpt>
      <trkpt lat="43.70482" lon="3.48183">
        <ele>218.5</ele>
        <time>2015-10-25T09:37:51Z</time>
      </trkpt>
      <trkpt lat="43.70483" lon="3.48182">
        <ele>218</ele>
        <time>2015-10-25T09:37:52Z</time>
      </trkpt>
      <trkpt lat="43.70485" lon="3.48173">
        <ele>217.5</ele>
        <time>2015-10-25T09:37:54Z</time>
      </trkpt>
      <trkpt lat="43.70482" lon="3.48169">
        <ele>218.5</ele>
        <time>2015-10-25T09:37:55Z</time>
      </trkpt>
      <trkpt lat="43.70478" lon="3.48164">
        <ele>218.5</ele>
        <time>2015-10-25T09:37:56Z</time>
      </trkpt>
      <trkpt lat="43.70475" lon="3.48159">
        <ele>219</ele>
        <time>2015-10-25T09:37:57Z</time>
      </trkpt>
      <trkpt lat="43.70473" lon="3.48153">
        <ele>219</ele>
        <time>2015-10-25T09:37:58Z</time>
      </trkpt>
      <trkpt lat="43.70471" lon="3.48147">
        <ele>219</ele>
        <time>2015-10-25T09:37:59Z</time>
      </trkpt>
      <trkpt lat="43.70469" lon="3.4814">
        <ele>219</ele>
        <time>2015-10-25T09:38:00Z</time>
      </trkpt>
      <trkpt lat="43.70467" lon="3.48134">
        <ele>218.5</ele>
        <time>2015-10-25T09:38:01Z</time>
      </trkpt>
      <trkpt lat="43.70465" lon="3.48128">
        <ele>218.5</ele>
        <time>2015-10-25T09:38:02Z</time>
      </trkpt>
      <trkpt lat="43.70463" lon="3.48123">
        <ele>219</ele>
        <time>2015-10-25T09:38:03Z</time>
      </trkpt>
      <trkpt lat="43.70462" lon="3.48119">
        <ele>219.5</ele>
        <time>2015-10-25T09:38:04Z</time>
      </trkpt>
      <trkpt lat="43.70461" lon="3.48115">
        <ele>219.5</ele>
        <time>2015-10-25T09:38:05Z</time>
      </trkpt>
      <trkpt lat="43.70459" lon="3.48111">
        <ele>219.5</ele>
        <time>2015-10-25T09:38:06Z</time>
      </trkpt>
      <trkpt lat="43.70457" lon="3.48108">
        <ele>219.5</ele>
        <time>2015-10-25T09:38:07Z</time>
      </trkpt>
      <trkpt lat="43.70457" lon="3.48104">
        <ele>220</ele>
        <time>2015-10-25T09:38:08Z</time>
      </trkpt>
      <trkpt lat="43.70456" lon="3.48101">
        <ele>220.5</ele>
        <time>2015-10-25T09:38:09Z</time>
      </trkpt>
      <trkpt lat="43.70454" lon="3.48099">
        <ele>221</ele>
        <time>2015-10-25T09:38:10Z</time>
      </trkpt>
      <trkpt lat="43.70452" lon="3.48096">
        <ele>221.5</ele>
        <time>2015-10-25T09:38:11Z</time>
      </trkpt>
      <trkpt lat="43.70451" lon="3.48093">
        <ele>221.5</ele>
        <time>2015-10-25T09:38:12Z</time>
      </trkpt>
      <trkpt lat="43.70449" lon="3.48091">
        <ele>221.5</ele>
        <time>2015-10-25T09:38:13Z</time>
      </trkpt>
      <trkpt lat="43.70448" lon="3.48089">
        <ele>221.5</ele>
        <time>2015-10-25T09:38:14Z</time>
      </trkpt>
      <trkpt lat="43.70446" lon="3.48087">
        <ele>222</ele>
        <time>2015-10-25T09:38:15Z</time>
      </trkpt>
      <trkpt lat="43.70444" lon="3.48085">
        <ele>222.5</ele>
        <time>2015-10-25T09:38:16Z</time>
      </trkpt>
      <trkpt lat="43.70442" lon="3.48082">
        <ele>222.5</ele>
        <time>2015-10-25T09:38:17Z</time>
      </trkpt>
      <trkpt lat="43.7044" lon="3.4808">
        <ele>222.5</ele>
        <time>2015-10-25T09:38:18Z</time>
      </trkpt>
      <trkpt lat="43.70439" lon="3.48077">
        <ele>222.5</ele>
        <time>2015-10-25T09:38:18Z</time>
      </trkpt>
      <trkpt lat="43.70437" lon="3.48075">
        <ele>223</ele>
        <time>2015-10-25T09:38:19Z</time>
      </trkpt>
      <trkpt lat="43.70435" lon="3.48073">
        <ele>223</ele>
        <time>2015-10-25T09:38:20Z</time>
      </trkpt>
      <trkpt lat="43.70433" lon="3.4807">
        <ele>223</ele>
        <time>2015-10-25T09:38:21Z</time>
      </trkpt>
      <trkpt lat="43.70431" lon="3.48068">
        <ele>223.5</ele>
        <time>2015-10-25T09:38:22Z</time>
      </trkpt>
      <trkpt lat="43.70429" lon="3.48065">
        <ele>223</ele>
        <time>2015-10-25T09:38:23Z</time>
      </trkpt>
      <trkpt lat="43.70427" lon="3.48063">
        <ele>223</ele>
        <time>2015-10-25T09:38:24Z</time>
      </trkpt>
      <trkpt lat="43.70425" lon="3.4806">
        <ele>223</ele>
        <time>2015-10-25T09:38:25Z</time>
      </trkpt>
      <trkpt lat="43.70423" lon="3.48058">
        <ele>223</ele>
        <time>2015-10-25T09:38:26Z</time>
      </trkpt>
      <trkpt lat="43.70421" lon="3.48056">
        <ele>223</ele>
        <time>2015-10-25T09:38:27Z</time>
      </trkpt>
      <trkpt lat="43.70418" lon="3.48055">
        <ele>223.5</ele>
        <time>2015-10-25T09:38:28Z</time>
      </trkpt>
      <trkpt lat="43.70416" lon="3.48053">
        <ele>224</ele>
        <time>2015-10-25T09:38:29Z</time>
      </trkpt>
      <trkpt lat="43.70414" lon="3.48051">
        <ele>224</ele>
        <time>2015-10-25T09:38:30Z</time>
      </trkpt>
      <trkpt lat="43.70412" lon="3.4805">
        <ele>224</ele>
        <time>2015-10-25T09:38:31Z</time>
      </trkpt>
      <trkpt lat="43.7041" lon="3.48048">
        <ele>224</ele>
        <time>2015-10-25T09:38:32Z</time>
      </trkpt>
      <trkpt lat="43.70407" lon="3.48047">
        <ele>224.5</ele>
        <time>2015-10-25T09:38:33Z</time>
      </trkpt>
      <trkpt lat="43.70405" lon="3.48045">
        <ele>225</ele>
        <time>2015-10-25T09:38:34Z</time>
      </trkpt>
      <trkpt lat="43.70403" lon="3.48043">
        <ele>225</ele>
        <time>2015-10-25T09:38:36Z</time>
      </trkpt>
      <trkpt lat="43.70401" lon="3.48041">
        <ele>225</ele>
        <time>2015-10-25T09:38:36Z</time>
      </trkpt>
      <trkpt lat="43.70399" lon="3.48038">
        <ele>224.5</ele>
        <time>2015-10-25T09:38:37Z</time>
      </trkpt>
      <trkpt lat="43.70398" lon="3.48035">
        <ele>224.5</ele>
        <time>2015-10-25T09:38:38Z</time>
      </trkpt>
      <trkpt lat="43.70397" lon="3.48033">
        <ele>224</ele>
        <time>2015-10-25T09:38:40Z</time>
      </trkpt>
      <trkpt lat="43.70395" lon="3.4803">
        <ele>224</ele>
        <time>2015-10-25T09:38:40Z</time>
      </trkpt>
      <trkpt lat="43.70394" lon="3.48028">
        <ele>224</ele>
        <time>2015-10-25T09:38:41Z</time>
      </trkpt>
      <trkpt lat="43.70393" lon="3.48026">
        <ele>223.5</ele>
        <time>2015-10-25T09:38:42Z</time>
      </trkpt>
      <trkpt lat="43.70391" lon="3.48024">
        <ele>223.5</ele>
        <time>2015-10-25T09:38:43Z</time>
      </trkpt>
      <trkpt lat="43.7039" lon="3.48022">
        <ele>223.5</ele>
        <time>2015-10-25T09:38:44Z</time>
      </trkpt>
      <trkpt lat="43.70388" lon="3.4802">
        <ele>223.5</ele>
        <time>2015-10-25T09:38:45Z</time>
      </trkpt>
      <trkpt lat="43.70387" lon="3.48018">
        <ele>224</ele>
        <time>2015-10-25T09:38:46Z</time>
      </trkpt>
      <trkpt lat="43.70383" lon="3.48014">
        <ele>224</ele>
        <time>2015-10-25T09:38:49Z</time>
      </trkpt>
      <trkpt lat="43.70382" lon="3.48012">
        <ele>224</ele>
        <time>2015-10-25T09:38:49Z</time>
      </trkpt>
      <trkpt lat="43.7038" lon="3.4801">
        <ele>224</ele>
        <time>2015-10-25T09:38:50Z</time>
      </trkpt>
      <trkpt lat="43.70378" lon="3.48008">
        <ele>224</ele>
        <time>2015-10-25T09:38:51Z</time>
      </trkpt>
      <trkpt lat="43.70377" lon="3.48006">
        <ele>224</ele>
        <time>2015-10-25T09:38:52Z</time>
      </trkpt>
      <trkpt lat="43.70375" lon="3.48004">
        <ele>223.5</ele>
        <time>2015-10-25T09:38:53Z</time>
      </trkpt>
      <trkpt lat="43.70373" lon="3.48002">
        <ele>223.5</ele>
        <time>2015-10-25T09:38:54Z</time>
      </trkpt>
      <trkpt lat="43.70371" lon="3.48001">
        <ele>223.5</ele>
        <time>2015-10-25T09:38:55Z</time>
      </trkpt>
      <trkpt lat="43.70369" lon="3.47999">
        <ele>224</ele>
        <time>2015-10-25T09:38:56Z</time>
      </trkpt>
      <trkpt lat="43.70368" lon="3.47998">
        <ele>224</ele>
        <time>2015-10-25T09:38:57Z</time>
      </trkpt>
      <trkpt lat="43.70366" lon="3.47996">
        <ele>224.5</ele>
        <time>2015-10-25T09:38:58Z</time>
      </trkpt>
      <trkpt lat="43.70364" lon="3.47994">
        <ele>224.5</ele>
        <time>2015-10-25T09:39:00Z</time>
      </trkpt>
      <trkpt lat="43.70362" lon="3.47992">
        <ele>224.5</ele>
        <time>2015-10-25T09:39:00Z</time>
      </trkpt>
      <trkpt lat="43.7036" lon="3.4799">
        <ele>224.5</ele>
        <time>2015-10-25T09:39:01Z</time>
      </trkpt>
      <trkpt lat="43.70358" lon="3.47989">
        <ele>225</ele>
        <time>2015-10-25T09:39:02Z</time>
      </trkpt>
      <trkpt lat="43.70356" lon="3.47987">
        <ele>225</ele>
        <time>2015-10-25T09:39:03Z</time>
      </trkpt>
      <trkpt lat="43.70355" lon="3.47985">
        <ele>225.5</ele>
        <time>2015-10-25T09:39:04Z</time>
      </trkpt>
      <trkpt lat="43.70353" lon="3.47983">
        <ele>225</ele>
        <time>2015-10-25T09:39:05Z</time>
      </trkpt>
      <trkpt lat="43.70351" lon="3.47981">
        <ele>225</ele>
        <time>2015-10-25T09:39:06Z</time>
      </trkpt>
      <trkpt lat="43.7035" lon="3.47979">
        <ele>225.5</ele>
        <time>2015-10-25T09:39:07Z</time>
      </trkpt>
      <trkpt lat="43.70348" lon="3.47977">
        <ele>225</ele>
        <time>2015-10-25T09:39:08Z</time>
      </trkpt>
      <trkpt lat="43.70347" lon="3.47974">
        <ele>225</ele>
        <time>2015-10-25T09:39:09Z</time>
      </trkpt>
      <trkpt lat="43.70347" lon="3.47972">
        <ele>225.5</ele>
        <time>2015-10-25T09:39:10Z</time>
      </trkpt>
      <trkpt lat="43.70347" lon="3.47969">
        <ele>225.5</ele>
        <time>2015-10-25T09:39:11Z</time>
      </trkpt>
      <trkpt lat="43.70347" lon="3.47967">
        <ele>225.5</ele>
        <time>2015-10-25T09:39:12Z</time>
      </trkpt>
      <trkpt lat="43.70348" lon="3.47965">
        <ele>226.5</ele>
        <time>2015-10-25T09:39:13Z</time>
      </trkpt>
      <trkpt lat="43.70349" lon="3.47963">
        <ele>227</ele>
        <time>2015-10-25T09:39:14Z</time>
      </trkpt>
      <trkpt lat="43.70351" lon="3.47961">
        <ele>227</ele>
        <time>2015-10-25T09:39:15Z</time>
      </trkpt>
      <trkpt lat="43.70353" lon="3.4796">
        <ele>226.5</ele>
        <time>2015-10-25T09:39:16Z</time>
      </trkpt>
      <trkpt lat="43.70354" lon="3.47958">
        <ele>227</ele>
        <time>2015-10-25T09:39:17Z</time>
      </trkpt>
      <trkpt lat="43.70356" lon="3.47958">
        <ele>226.5</ele>
        <time>2015-10-25T09:39:18Z</time>
      </trkpt>
      <trkpt lat="43.70358" lon="3.47956">
        <ele>226.5</ele>
        <time>2015-10-25T09:39:19Z</time>
      </trkpt>
      <trkpt lat="43.7036" lon="3.47955">
        <ele>226.5</ele>
        <time>2015-10-25T09:39:20Z</time>
      </trkpt>
      <trkpt lat="43.70363" lon="3.47954">
        <ele>226.5</ele>
        <time>2015-10-25T09:39:21Z</time>
      </trkpt>
      <trkpt lat="43.70365" lon="3.47953">
        <ele>226.5</ele>
        <time>2015-10-25T09:39:22Z</time>
      </trkpt>
      <trkpt lat="43.70367" lon="3.47952">
        <ele>226.5</ele>
        <time>2015-10-25T09:39:23Z</time>
      </trkpt>
      <trkpt lat="43.70369" lon="3.47951">
        <ele>226</ele>
        <time>2015-10-25T09:39:24Z</time>
      </trkpt>
      <trkpt lat="43.70371" lon="3.4795">
        <ele>226.5</ele>
        <time>2015-10-25T09:39:25Z</time>
      </trkpt>
      <trkpt lat="43.70373" lon="3.47949">
        <ele>226.5</ele>
        <time>2015-10-25T09:39:26Z</time>
      </trkpt>
      <trkpt lat="43.70376" lon="3.47948">
        <ele>226</ele>
        <time>2015-10-25T09:39:27Z</time>
      </trkpt>
      <trkpt lat="43.70378" lon="3.47947">
        <ele>227</ele>
        <time>2015-10-25T09:39:28Z</time>
      </trkpt>
      <trkpt lat="43.7038" lon="3.47947">
        <ele>227.5</ele>
        <time>2015-10-25T09:39:29Z</time>
      </trkpt>
      <trkpt lat="43.70382" lon="3.47946">
        <ele>227.5</ele>
        <time>2015-10-25T09:39:30Z</time>
      </trkpt>
      <trkpt lat="43.70384" lon="3.47946">
        <ele>227.5</ele>
        <time>2015-10-25T09:39:31Z</time>
      </trkpt>
      <trkpt lat="43.70386" lon="3.47946">
        <ele>227.5</ele>
        <time>2015-10-25T09:39:32Z</time>
      </trkpt>
      <trkpt lat="43.70389" lon="3.47946">
        <ele>227.5</ele>
        <time>2015-10-25T09:39:33Z</time>
      </trkpt>
      <trkpt lat="43.70391" lon="3.47946">
        <ele>227.5</ele>
        <time>2015-10-25T09:39:34Z</time>
      </trkpt>
      <trkpt lat="43.70393" lon="3.47946">
        <ele>227.5</ele>
        <time>2015-10-25T09:39:35Z</time>
      </trkpt>
      <trkpt lat="43.70395" lon="3.47946">
        <ele>227.5</ele>
        <time>2015-10-25T09:39:36Z</time>
      </trkpt>
      <trkpt lat="43.70397" lon="3.47945">
        <ele>228</ele>
        <time>2015-10-25T09:39:37Z</time>
      </trkpt>
      <trkpt lat="43.70399" lon="3.47945">
        <ele>228</ele>
        <time>2015-10-25T09:39:38Z</time>
      </trkpt>
      <trkpt lat="43.70401" lon="3.47946">
        <ele>228</ele>
        <time>2015-10-25T09:39:39Z</time>
      </trkpt>
      <trkpt lat="43.70403" lon="3.47946">
        <ele>228</ele>
        <time>2015-10-25T09:39:40Z</time>
      </trkpt>
      <trkpt lat="43.70405" lon="3.47946">
        <ele>228.5</ele>
        <time>2015-10-25T09:39:41Z</time>
      </trkpt>
      <trkpt lat="43.70407" lon="3.47946">
        <ele>228.5</ele>
        <time>2015-10-25T09:39:42Z</time>
      </trkpt>
      <trkpt lat="43.70409" lon="3.47946">
        <ele>228.5</ele>
        <time>2015-10-25T09:39:43Z</time>
      </trkpt>
      <trkpt lat="43.70411" lon="3.47945">
        <ele>228.5</ele>
        <time>2015-10-25T09:39:44Z</time>
      </trkpt>
      <trkpt lat="43.70413" lon="3.47945">
        <ele>228.5</ele>
        <time>2015-10-25T09:39:45Z</time>
      </trkpt>
      <trkpt lat="43.70415" lon="3.47944">
        <ele>229</ele>
        <time>2015-10-25T09:39:46Z</time>
      </trkpt>
      <trkpt lat="43.70417" lon="3.47944">
        <ele>229</ele>
        <time>2015-10-25T09:39:47Z</time>
      </trkpt>
      <trkpt lat="43.70419" lon="3.47944">
        <ele>229</ele>
        <time>2015-10-25T09:39:48Z</time>
      </trkpt>
      <trkpt lat="43.70421" lon="3.47943">
        <ele>229.5</ele>
        <time>2015-10-25T09:39:49Z</time>
      </trkpt>
      <trkpt lat="43.70423" lon="3.47943">
        <ele>229.5</ele>
        <time>2015-10-25T09:39:50Z</time>
      </trkpt>
      <trkpt lat="43.70425" lon="3.47942">
        <ele>230</ele>
        <time>2015-10-25T09:39:51Z</time>
      </trkpt>
      <trkpt lat="43.70428" lon="3.47942">
        <ele>230.5</ele>
        <time>2015-10-25T09:39:52Z</time>
      </trkpt>
      <trkpt lat="43.7043" lon="3.47941">
        <ele>230.5</ele>
        <time>2015-10-25T09:39:53Z</time>
      </trkpt>
      <trkpt lat="43.70432" lon="3.47941">
        <ele>230.5</ele>
        <time>2015-10-25T09:39:54Z</time>
      </trkpt>
      <trkpt lat="43.70434" lon="3.47941">
        <ele>230.5</ele>
        <time>2015-10-25T09:39:55Z</time>
      </trkpt>
      <trkpt lat="43.70436" lon="3.47941">
        <ele>231</ele>
        <time>2015-10-25T09:39:56Z</time>
      </trkpt>
      <trkpt lat="43.7044" lon="3.4794">
        <ele>231</ele>
        <time>2015-10-25T09:39:57Z</time>
      </trkpt>
      <trkpt lat="43.70443" lon="3.47938">
        <ele>231</ele>
        <time>2015-10-25T09:39:59Z</time>
      </trkpt>
      <trkpt lat="43.70445" lon="3.47937">
        <ele>231.5</ele>
        <time>2015-10-25T09:40:00Z</time>
      </trkpt>
      <trkpt lat="43.70447" lon="3.47935">
        <ele>232</ele>
        <time>2015-10-25T09:40:01Z</time>
      </trkpt>
      <trkpt lat="43.70448" lon="3.47933">
        <ele>232.5</ele>
        <time>2015-10-25T09:40:02Z</time>
      </trkpt>
      <trkpt lat="43.70449" lon="3.47932">
        <ele>233</ele>
        <time>2015-10-25T09:40:03Z</time>
      </trkpt>
      <trkpt lat="43.7045" lon="3.4793">
        <ele>232.5</ele>
        <time>2015-10-25T09:40:04Z</time>
      </trkpt>
      <trkpt lat="43.70451" lon="3.47929">
        <ele>233</ele>
        <time>2015-10-25T09:40:05Z</time>
      </trkpt>
      <trkpt lat="43.70452" lon="3.47927">
        <ele>233</ele>
        <time>2015-10-25T09:40:06Z</time>
      </trkpt>
      <trkpt lat="43.70453" lon="3.47926">
        <ele>233</ele>
        <time>2015-10-25T09:40:07Z</time>
      </trkpt>
      <trkpt lat="43.70454" lon="3.47924">
        <ele>233.5</ele>
        <time>2015-10-25T09:40:08Z</time>
      </trkpt>
      <trkpt lat="43.70455" lon="3.47922">
        <ele>233.5</ele>
        <time>2015-10-25T09:40:09Z</time>
      </trkpt>
      <trkpt lat="43.70456" lon="3.4792">
        <ele>233.5</ele>
        <time>2015-10-25T09:40:10Z</time>
      </trkpt>
      <trkpt lat="43.70457" lon="3.47918">
        <ele>234</ele>
        <time>2015-10-25T09:40:11Z</time>
      </trkpt>
      <trkpt lat="43.70458" lon="3.47917">
        <ele>235</ele>
        <time>2015-10-25T09:40:12Z</time>
      </trkpt>
      <trkpt lat="43.70458" lon="3.47915">
        <ele>235</ele>
        <time>2015-10-25T09:40:13Z</time>
      </trkpt>
      <trkpt lat="43.70459" lon="3.47913">
        <ele>234.5</ele>
        <time>2015-10-25T09:40:14Z</time>
      </trkpt>
      <trkpt lat="43.70459" lon="3.47912">
        <ele>235</ele>
        <time>2015-10-25T09:40:15Z</time>
      </trkpt>
      <trkpt lat="43.70459" lon="3.47911">
        <ele>235</ele>
        <time>2015-10-25T09:40:16Z</time>
      </trkpt>
      <trkpt lat="43.7046" lon="3.47909">
        <ele>234.5</ele>
        <time>2015-10-25T09:40:17Z</time>
      </trkpt>
      <trkpt lat="43.7046" lon="3.47907">
        <ele>234.5</ele>
        <time>2015-10-25T09:40:18Z</time>
      </trkpt>
      <trkpt lat="43.7046" lon="3.47905">
        <ele>234.5</ele>
        <time>2015-10-25T09:40:19Z</time>
      </trkpt>
      <trkpt lat="43.7046" lon="3.47903">
        <ele>234.5</ele>
        <time>2015-10-25T09:40:20Z</time>
      </trkpt>
      <trkpt lat="43.70459" lon="3.47901">
        <ele>235</ele>
        <time>2015-10-25T09:40:21Z</time>
      </trkpt>
      <trkpt lat="43.70459" lon="3.47899">
        <ele>235</ele>
        <time>2015-10-25T09:40:22Z</time>
      </trkpt>
      <trkpt lat="43.70459" lon="3.47897">
        <ele>235</ele>
        <time>2015-10-25T09:40:23Z</time>
      </trkpt>
      <trkpt lat="43.70458" lon="3.47894">
        <ele>236.5</ele>
        <time>2015-10-25T09:40:24Z</time>
      </trkpt>
      <trkpt lat="43.70458" lon="3.47892">
        <ele>236.5</ele>
        <time>2015-10-25T09:40:25Z</time>
      </trkpt>
      <trkpt lat="43.70458" lon="3.4789">
        <ele>237</ele>
        <time>2015-10-25T09:40:26Z</time>
      </trkpt>
      <trkpt lat="43.70457" lon="3.47888">
        <ele>237</ele>
        <time>2015-10-25T09:40:27Z</time>
      </trkpt>
      <trkpt lat="43.70457" lon="3.47885">
        <ele>237</ele>
        <time>2015-10-25T09:40:28Z</time>
      </trkpt>
      <trkpt lat="43.70457" lon="3.47883">
        <ele>237</ele>
        <time>2015-10-25T09:40:29Z</time>
      </trkpt>
      <trkpt lat="43.70457" lon="3.4788">
        <ele>237</ele>
        <time>2015-10-25T09:40:30Z</time>
      </trkpt>
      <trkpt lat="43.70457" lon="3.47879">
        <ele>237.5</ele>
        <time>2015-10-25T09:40:31Z</time>
      </trkpt>
      <trkpt lat="43.70457" lon="3.47877">
        <ele>237.5</ele>
        <time>2015-10-25T09:40:32Z</time>
      </trkpt>
      <trkpt lat="43.70457" lon="3.47875">
        <ele>237.5</ele>
        <time>2015-10-25T09:40:33Z</time>
      </trkpt>
      <trkpt lat="43.70457" lon="3.47873">
        <ele>237.5</ele>
        <time>2015-10-25T09:40:34Z</time>
      </trkpt>
      <trkpt lat="43.70457" lon="3.47871">
        <ele>237.5</ele>
        <time>2015-10-25T09:40:35Z</time>
      </trkpt>
      <trkpt lat="43.70457" lon="3.47869">
        <ele>237</ele>
        <time>2015-10-25T09:40:36Z</time>
      </trkpt>
      <trkpt lat="43.70457" lon="3.47866">
        <ele>237</ele>
        <time>2015-10-25T09:40:37Z</time>
      </trkpt>
      <trkpt lat="43.70457" lon="3.47864">
        <ele>237.5</ele>
        <time>2015-10-25T09:40:38Z</time>
      </trkpt>
      <trkpt lat="43.70458" lon="3.47861">
        <ele>237.5</ele>
        <time>2015-10-25T09:40:39Z</time>
      </trkpt>
      <trkpt lat="43.70458" lon="3.47859">
        <ele>237</ele>
        <time>2015-10-25T09:40:40Z</time>
      </trkpt>
      <trkpt lat="43.70458" lon="3.47856">
        <ele>237</ele>
        <time>2015-10-25T09:40:41Z</time>
      </trkpt>
      <trkpt lat="43.70458" lon="3.47853">
        <ele>237</ele>
        <time>2015-10-25T09:40:42Z</time>
      </trkpt>
      <trkpt lat="43.70458" lon="3.47851">
        <ele>237.5</ele>
        <time>2015-10-25T09:40:43Z</time>
      </trkpt>
      <trkpt lat="43.70458" lon="3.47849">
        <ele>238.5</ele>
        <time>2015-10-25T09:40:44Z</time>
      </trkpt>
      <trkpt lat="43.70458" lon="3.47846">
        <ele>239</ele>
        <time>2015-10-25T09:40:45Z</time>
      </trkpt>
      <trkpt lat="43.70457" lon="3.47843">
        <ele>239</ele>
        <time>2015-10-25T09:40:46Z</time>
      </trkpt>
      <trkpt lat="43.70458" lon="3.4784">
        <ele>239</ele>
        <time>2015-10-25T09:40:47Z</time>
      </trkpt>
      <trkpt lat="43.70458" lon="3.47837">
        <ele>239.5</ele>
        <time>2015-10-25T09:40:48Z</time>
      </trkpt>
      <trkpt lat="43.70458" lon="3.47836">
        <ele>239</ele>
        <time>2015-10-25T09:40:49Z</time>
      </trkpt>
      <trkpt lat="43.70458" lon="3.47834">
        <ele>240</ele>
        <time>2015-10-25T09:40:50Z</time>
      </trkpt>
      <trkpt lat="43.70457" lon="3.47833">
        <ele>241</ele>
        <time>2015-10-25T09:40:51Z</time>
      </trkpt>
      <trkpt lat="43.70456" lon="3.47832">
        <ele>241.5</ele>
        <time>2015-10-25T09:40:52Z</time>
      </trkpt>
      <trkpt lat="43.70456" lon="3.4783">
        <ele>241.5</ele>
        <time>2015-10-25T09:40:53Z</time>
      </trkpt>
      <trkpt lat="43.70455" lon="3.47829">
        <ele>242.5</ele>
        <time>2015-10-25T09:40:54Z</time>
      </trkpt>
      <trkpt lat="43.70456" lon="3.47828">
        <ele>243</ele>
        <time>2015-10-25T09:40:55Z</time>
      </trkpt>
      <trkpt lat="43.70457" lon="3.47827">
        <ele>243</ele>
        <time>2015-10-25T09:40:56Z</time>
      </trkpt>
      <trkpt lat="43.70458" lon="3.47825">
        <ele>243.5</ele>
        <time>2015-10-25T09:40:57Z</time>
      </trkpt>
      <trkpt lat="43.70458" lon="3.47823">
        <ele>245</ele>
        <time>2015-10-25T09:40:58Z</time>
      </trkpt>
      <trkpt lat="43.70459" lon="3.47822">
        <ele>244.5</ele>
        <time>2015-10-25T09:40:59Z</time>
      </trkpt>
      <trkpt lat="43.7046" lon="3.4782">
        <ele>244.5</ele>
        <time>2015-10-25T09:41:00Z</time>
      </trkpt>
      <trkpt lat="43.70461" lon="3.47819">
        <ele>244.5</ele>
        <time>2015-10-25T09:41:01Z</time>
      </trkpt>
      <trkpt lat="43.70461" lon="3.47816">
        <ele>245.5</ele>
        <time>2015-10-25T09:41:02Z</time>
      </trkpt>
      <trkpt lat="43.70462" lon="3.47814">
        <ele>246</ele>
        <time>2015-10-25T09:41:03Z</time>
      </trkpt>
      <trkpt lat="43.70463" lon="3.47812">
        <ele>246</ele>
        <time>2015-10-25T09:41:04Z</time>
      </trkpt>
      <trkpt lat="43.70463" lon="3.4781">
        <ele>246</ele>
        <time>2015-10-25T09:41:05Z</time>
      </trkpt>
      <trkpt lat="43.70464" lon="3.47807">
        <ele>245.5</ele>
        <time>2015-10-25T09:41:24Z</time>
      </trkpt>
      <trkpt lat="43.70466" lon="3.47806">
        <ele>246</ele>
        <time>2015-10-25T09:41:26Z</time>
      </trkpt>
      <trkpt lat="43.70467" lon="3.47805">
        <ele>246.5</ele>
        <time>2015-10-25T09:41:27Z</time>
      </trkpt>
      <trkpt lat="43.70468" lon="3.47803">
        <ele>246.5</ele>
        <time>2015-10-25T09:41:28Z</time>
      </trkpt>
      <trkpt lat="43.70469" lon="3.478">
        <ele>247</ele>
        <time>2015-10-25T09:41:29Z</time>
      </trkpt>
      <trkpt lat="43.7047" lon="3.47798">
        <ele>247.5</ele>
        <time>2015-10-25T09:41:30Z</time>
      </trkpt>
      <trkpt lat="43.70471" lon="3.47796">
        <ele>247.5</ele>
        <time>2015-10-25T09:41:31Z</time>
      </trkpt>
      <trkpt lat="43.70472" lon="3.47793">
        <ele>248</ele>
        <time>2015-10-25T09:41:32Z</time>
      </trkpt>
      <trkpt lat="43.70474" lon="3.47791">
        <ele>248.5</ele>
        <time>2015-10-25T09:41:33Z</time>
      </trkpt>
      <trkpt lat="43.70476" lon="3.47789">
        <ele>248.5</ele>
        <time>2015-10-25T09:41:34Z</time>
      </trkpt>
      <trkpt lat="43.70477" lon="3.47786">
        <ele>248.5</ele>
        <time>2015-10-25T09:41:35Z</time>
      </trkpt>
      <trkpt lat="43.70479" lon="3.47784">
        <ele>249</ele>
        <time>2015-10-25T09:41:36Z</time>
      </trkpt>
      <trkpt lat="43.70481" lon="3.47781">
        <ele>249</ele>
        <time>2015-10-25T09:41:37Z</time>
      </trkpt>
      <trkpt lat="43.70482" lon="3.47779">
        <ele>248.5</ele>
        <time>2015-10-25T09:41:38Z</time>
      </trkpt>
      <trkpt lat="43.70486" lon="3.47774">
        <ele>248.5</ele>
        <time>2015-10-25T09:41:40Z</time>
      </trkpt>
      <trkpt lat="43.70488" lon="3.47772">
        <ele>248.5</ele>
        <time>2015-10-25T09:41:41Z</time>
      </trkpt>
      <trkpt lat="43.7049" lon="3.4777">
        <ele>249</ele>
        <time>2015-10-25T09:41:42Z</time>
      </trkpt>
      <trkpt lat="43.70492" lon="3.47767">
        <ele>250</ele>
        <time>2015-10-25T09:41:43Z</time>
      </trkpt>
      <trkpt lat="43.70494" lon="3.47766">
        <ele>250.5</ele>
        <time>2015-10-25T09:41:44Z</time>
      </trkpt>
      <trkpt lat="43.70497" lon="3.47764">
        <ele>250.5</ele>
        <time>2015-10-25T09:41:45Z</time>
      </trkpt>
      <trkpt lat="43.70501" lon="3.47762">
        <ele>250</ele>
        <time>2015-10-25T09:41:46Z</time>
      </trkpt>
      <trkpt lat="43.70505" lon="3.47761">
        <ele>249</ele>
        <time>2015-10-25T09:41:47Z</time>
      </trkpt>
      <trkpt lat="43.70509" lon="3.4776">
        <ele>248</ele>
        <time>2015-10-25T09:41:48Z</time>
      </trkpt>
      <trkpt lat="43.70512" lon="3.47757">
        <ele>248</ele>
        <time>2015-10-25T09:41:49Z</time>
      </trkpt>
      <trkpt lat="43.70516" lon="3.47754">
        <ele>248.5</ele>
        <time>2015-10-25T09:41:50Z</time>
      </trkpt>
      <trkpt lat="43.70519" lon="3.4775">
        <ele>248.5</ele>
        <time>2015-10-25T09:41:51Z</time>
      </trkpt>
      <trkpt lat="43.70521" lon="3.47745">
        <ele>250.5</ele>
        <time>2015-10-25T09:41:52Z</time>
      </trkpt>
      <trkpt lat="43.70524" lon="3.47741">
        <ele>250.5</ele>
        <time>2015-10-25T09:41:53Z</time>
      </trkpt>
      <trkpt lat="43.70524" lon="3.47737">
        <ele>252.5</ele>
        <time>2015-10-25T09:41:54Z</time>
      </trkpt>
      <trkpt lat="43.70525" lon="3.47733">
        <ele>253.5</ele>
        <time>2015-10-25T09:41:55Z</time>
      </trkpt>
      <trkpt lat="43.70525" lon="3.47729">
        <ele>254.5</ele>
        <time>2015-10-25T09:41:56Z</time>
      </trkpt>
      <trkpt lat="43.70525" lon="3.47724">
        <ele>255</ele>
        <time>2015-10-25T09:41:57Z</time>
      </trkpt>
      <trkpt lat="43.70526" lon="3.4772">
        <ele>255.5</ele>
        <time>2015-10-25T09:41:58Z</time>
      </trkpt>
      <trkpt lat="43.70527" lon="3.47716">
        <ele>256</ele>
        <time>2015-10-25T09:41:59Z</time>
      </trkpt>
      <trkpt lat="43.70528" lon="3.47713">
        <ele>255.5</ele>
        <time>2015-10-25T09:42:00Z</time>
      </trkpt>
      <trkpt lat="43.7053" lon="3.4771">
        <ele>255.5</ele>
        <time>2015-10-25T09:42:01Z</time>
      </trkpt>
      <trkpt lat="43.70533" lon="3.47708">
        <ele>255</ele>
        <time>2015-10-25T09:42:02Z</time>
      </trkpt>
      <trkpt lat="43.70535" lon="3.47706">
        <ele>255</ele>
        <time>2015-10-25T09:42:03Z</time>
      </trkpt>
      <trkpt lat="43.70539" lon="3.47705">
        <ele>254.5</ele>
        <time>2015-10-25T09:42:04Z</time>
      </trkpt>
      <trkpt lat="43.70542" lon="3.47704">
        <ele>254</ele>
        <time>2015-10-25T09:42:05Z</time>
      </trkpt>
      <trkpt lat="43.70545" lon="3.47703">
        <ele>253.5</ele>
        <time>2015-10-25T09:42:06Z</time>
      </trkpt>
      <trkpt lat="43.70548" lon="3.47701">
        <ele>253</ele>
        <time>2015-10-25T09:42:07Z</time>
      </trkpt>
      <trkpt lat="43.70551" lon="3.477">
        <ele>253</ele>
        <time>2015-10-25T09:42:08Z</time>
      </trkpt>
      <trkpt lat="43.70554" lon="3.47698">
        <ele>253</ele>
        <time>2015-10-25T09:42:09Z</time>
      </trkpt>
      <trkpt lat="43.70558" lon="3.47696">
        <ele>253.5</ele>
        <time>2015-10-25T09:42:10Z</time>
      </trkpt>
      <trkpt lat="43.70562" lon="3.47694">
        <ele>252.5</ele>
        <time>2015-10-25T09:42:11Z</time>
      </trkpt>
      <trkpt lat="43.70565" lon="3.47692">
        <ele>252.5</ele>
        <time>2015-10-25T09:42:12Z</time>
      </trkpt>
      <trkpt lat="43.70568" lon="3.47691">
        <ele>252</ele>
        <time>2015-10-25T09:42:13Z</time>
      </trkpt>
      <trkpt lat="43.70571" lon="3.4769">
        <ele>252</ele>
        <time>2015-10-25T09:42:14Z</time>
      </trkpt>
      <trkpt lat="43.70577" lon="3.47689">
        <ele>251.5</ele>
        <time>2015-10-25T09:42:15Z</time>
      </trkpt>
      <trkpt lat="43.70581" lon="3.47689">
        <ele>251.5</ele>
        <time>2015-10-25T09:42:17Z</time>
      </trkpt>
      <trkpt lat="43.70588" lon="3.47688">
        <ele>251</ele>
        <time>2015-10-25T09:42:18Z</time>
      </trkpt>
      <trkpt lat="43.70591" lon="3.47688">
        <ele>251</ele>
        <time>2015-10-25T09:42:20Z</time>
      </trkpt>
      <trkpt lat="43.70595" lon="3.47687">
        <ele>250.5</ele>
        <time>2015-10-25T09:42:20Z</time>
      </trkpt>
      <trkpt lat="43.70599" lon="3.47688">
        <ele>250</ele>
        <time>2015-10-25T09:42:21Z</time>
      </trkpt>
      <trkpt lat="43.70604" lon="3.47688">
        <ele>249.5</ele>
        <time>2015-10-25T09:42:23Z</time>
      </trkpt>
      <trkpt lat="43.70607" lon="3.47688">
        <ele>249</ele>
        <time>2015-10-25T09:42:23Z</time>
      </trkpt>
      <trkpt lat="43.70611" lon="3.47688">
        <ele>248.5</ele>
        <time>2015-10-25T09:42:24Z</time>
      </trkpt>
      <trkpt lat="43.70615" lon="3.47688">
        <ele>249</ele>
        <time>2015-10-25T09:42:26Z</time>
      </trkpt>
      <trkpt lat="43.70619" lon="3.47688">
        <ele>249.5</ele>
        <time>2015-10-25T09:42:26Z</time>
      </trkpt>
      <trkpt lat="43.70623" lon="3.47689">
        <ele>249.5</ele>
        <time>2015-10-25T09:42:27Z</time>
      </trkpt>
      <trkpt lat="43.70627" lon="3.47689">
        <ele>249.5</ele>
        <time>2015-10-25T09:42:28Z</time>
      </trkpt>
      <trkpt lat="43.70631" lon="3.47689">
        <ele>249</ele>
        <time>2015-10-25T09:42:30Z</time>
      </trkpt>
      <trkpt lat="43.70636" lon="3.47689">
        <ele>248.5</ele>
        <time>2015-10-25T09:42:30Z</time>
      </trkpt>
      <trkpt lat="43.7064" lon="3.47689">
        <ele>249</ele>
        <time>2015-10-25T09:42:31Z</time>
      </trkpt>
      <trkpt lat="43.70644" lon="3.47688">
        <ele>249.5</ele>
        <time>2015-10-25T09:42:32Z</time>
      </trkpt>
      <trkpt lat="43.70647" lon="3.47687">
        <ele>250.5</ele>
        <time>2015-10-25T09:42:34Z</time>
      </trkpt>
      <trkpt lat="43.70654" lon="3.47684">
        <ele>251</ele>
        <time>2015-10-25T09:42:35Z</time>
      </trkpt>
      <trkpt lat="43.70658" lon="3.47683">
        <ele>251</ele>
        <time>2015-10-25T09:42:37Z</time>
      </trkpt>
      <trkpt lat="43.70661" lon="3.47682">
        <ele>250</ele>
        <time>2015-10-25T09:42:37Z</time>
      </trkpt>
      <trkpt lat="43.70665" lon="3.47682">
        <ele>250</ele>
        <time>2015-10-25T09:42:38Z</time>
      </trkpt>
      <trkpt lat="43.70668" lon="3.47681">
        <ele>250.5</ele>
        <time>2015-10-25T09:42:40Z</time>
      </trkpt>
      <trkpt lat="43.70672" lon="3.47681">
        <ele>251.5</ele>
        <time>2015-10-25T09:42:40Z</time>
      </trkpt>
      <trkpt lat="43.70676" lon="3.47681">
        <ele>252.5</ele>
        <time>2015-10-25T09:42:41Z</time>
      </trkpt>
      <trkpt lat="43.70679" lon="3.4768">
        <ele>253</ele>
        <time>2015-10-25T09:42:42Z</time>
      </trkpt>
      <trkpt lat="43.70683" lon="3.4768">
        <ele>253</ele>
        <time>2015-10-25T09:42:43Z</time>
      </trkpt>
      <trkpt lat="43.70687" lon="3.47679">
        <ele>253</ele>
        <time>2015-10-25T09:42:44Z</time>
      </trkpt>
      <trkpt lat="43.70691" lon="3.47678">
        <ele>253</ele>
        <time>2015-10-25T09:42:45Z</time>
      </trkpt>
      <trkpt lat="43.70694" lon="3.47678">
        <ele>252.5</ele>
        <time>2015-10-25T09:42:47Z</time>
      </trkpt>
      <trkpt lat="43.70698" lon="3.47676">
        <ele>251.5</ele>
        <time>2015-10-25T09:42:47Z</time>
      </trkpt>
      <trkpt lat="43.70701" lon="3.47675">
        <ele>252.5</ele>
        <time>2015-10-25T09:42:48Z</time>
      </trkpt>
      <trkpt lat="43.70705" lon="3.47674">
        <ele>252</ele>
        <time>2015-10-25T09:42:49Z</time>
      </trkpt>
      <trkpt lat="43.70709" lon="3.47674">
        <ele>252.5</ele>
        <time>2015-10-25T09:42:50Z</time>
      </trkpt>
      <trkpt lat="43.70712" lon="3.47673">
        <ele>253</ele>
        <time>2015-10-25T09:42:51Z</time>
      </trkpt>
      <trkpt lat="43.70716" lon="3.47672">
        <ele>253</ele>
        <time>2015-10-25T09:42:52Z</time>
      </trkpt>
      <trkpt lat="43.7072" lon="3.47672">
        <ele>253.5</ele>
        <time>2015-10-25T09:42:53Z</time>
      </trkpt>
      <trkpt lat="43.70724" lon="3.47672">
        <ele>254</ele>
        <time>2015-10-25T09:42:54Z</time>
      </trkpt>
      <trkpt lat="43.70726" lon="3.47671">
        <ele>254.5</ele>
        <time>2015-10-25T09:42:55Z</time>
      </trkpt>
      <trkpt lat="43.70729" lon="3.47671">
        <ele>254.5</ele>
        <time>2015-10-25T09:42:56Z</time>
      </trkpt>
      <trkpt lat="43.70733" lon="3.47671">
        <ele>254</ele>
        <time>2015-10-25T09:42:57Z</time>
      </trkpt>
      <trkpt lat="43.70736" lon="3.47667">
        <ele>254</ele>
        <time>2015-10-25T09:42:59Z</time>
      </trkpt>
      <trkpt lat="43.7074" lon="3.47666">
        <ele>254</ele>
        <time>2015-10-25T09:42:59Z</time>
      </trkpt>
      <trkpt lat="43.70744" lon="3.47666">
        <ele>254</ele>
        <time>2015-10-25T09:43:00Z</time>
      </trkpt>
      <trkpt lat="43.70748" lon="3.47666">
        <ele>254</ele>
        <time>2015-10-25T09:43:01Z</time>
      </trkpt>
      <trkpt lat="43.70752" lon="3.47667">
        <ele>254</ele>
        <time>2015-10-25T09:43:02Z</time>
      </trkpt>
      <trkpt lat="43.70755" lon="3.47667">
        <ele>254.5</ele>
        <time>2015-10-25T09:43:03Z</time>
      </trkpt>
      <trkpt lat="43.70758" lon="3.47668">
        <ele>254.5</ele>
        <time>2015-10-25T09:43:05Z</time>
      </trkpt>
      <trkpt lat="43.70761" lon="3.47668">
        <ele>254.5</ele>
        <time>2015-10-25T09:43:05Z</time>
      </trkpt>
      <trkpt lat="43.70765" lon="3.47668">
        <ele>254.5</ele>
        <time>2015-10-25T09:43:06Z</time>
      </trkpt>
      <trkpt lat="43.70768" lon="3.47669">
        <ele>254.5</ele>
        <time>2015-10-25T09:43:08Z</time>
      </trkpt>
      <trkpt lat="43.70772" lon="3.4767">
        <ele>255.5</ele>
        <time>2015-10-25T09:43:08Z</time>
      </trkpt>
      <trkpt lat="43.70774" lon="3.4767">
        <ele>255.5</ele>
        <time>2015-10-25T09:43:09Z</time>
      </trkpt>
      <trkpt lat="43.70778" lon="3.47672">
        <ele>255.5</ele>
        <time>2015-10-25T09:43:10Z</time>
      </trkpt>
      <trkpt lat="43.70781" lon="3.47672">
        <ele>256</ele>
        <time>2015-10-25T09:43:11Z</time>
      </trkpt>
      <trkpt lat="43.70783" lon="3.47673">
        <ele>256.5</ele>
        <time>2015-10-25T09:43:12Z</time>
      </trkpt>
      <trkpt lat="43.70789" lon="3.47675">
        <ele>256.5</ele>
        <time>2015-10-25T09:43:15Z</time>
      </trkpt>
      <trkpt lat="43.70792" lon="3.47675">
        <ele>257</ele>
        <time>2015-10-25T09:43:15Z</time>
      </trkpt>
      <trkpt lat="43.70795" lon="3.47675">
        <ele>256.5</ele>
        <time>2015-10-25T09:43:16Z</time>
      </trkpt>
      <trkpt lat="43.70798" lon="3.47674">
        <ele>256</ele>
        <time>2015-10-25T09:43:17Z</time>
      </trkpt>
      <trkpt lat="43.70801" lon="3.47674">
        <ele>255.5</ele>
        <time>2015-10-25T09:43:18Z</time>
      </trkpt>
      <trkpt lat="43.70804" lon="3.47674">
        <ele>256</ele>
        <time>2015-10-25T09:43:19Z</time>
      </trkpt>
      <trkpt lat="43.70807" lon="3.47674">
        <ele>256.5</ele>
        <time>2015-10-25T09:43:20Z</time>
      </trkpt>
      <trkpt lat="43.70811" lon="3.47674">
        <ele>256.5</ele>
        <time>2015-10-25T09:43:21Z</time>
      </trkpt>
      <trkpt lat="43.70814" lon="3.47674">
        <ele>256</ele>
        <time>2015-10-25T09:43:22Z</time>
      </trkpt>
      <trkpt lat="43.70818" lon="3.47674">
        <ele>255.5</ele>
        <time>2015-10-25T09:43:23Z</time>
      </trkpt>
      <trkpt lat="43.70821" lon="3.47675">
        <ele>256</ele>
        <time>2015-10-25T09:43:24Z</time>
      </trkpt>
      <trkpt lat="43.70824" lon="3.47675">
        <ele>256</ele>
        <time>2015-10-25T09:43:25Z</time>
      </trkpt>
      <trkpt lat="43.70826" lon="3.47675">
        <ele>256</ele>
        <time>2015-10-25T09:43:26Z</time>
      </trkpt>
      <trkpt lat="43.70829" lon="3.47675">
        <ele>256</ele>
        <time>2015-10-25T09:43:27Z</time>
      </trkpt>
      <trkpt lat="43.70832" lon="3.47675">
        <ele>256.5</ele>
        <time>2015-10-25T09:43:28Z</time>
      </trkpt>
      <trkpt lat="43.70834" lon="3.47675">
        <ele>256.5</ele>
        <time>2015-10-25T09:43:29Z</time>
      </trkpt>
      <trkpt lat="43.70837" lon="3.47674">
        <ele>257</ele>
        <time>2015-10-25T09:43:30Z</time>
      </trkpt>
      <trkpt lat="43.7084" lon="3.47674">
        <ele>257.5</ele>
        <time>2015-10-25T09:43:31Z</time>
      </trkpt>
      <trkpt lat="43.70843" lon="3.47674">
        <ele>257.5</ele>
        <time>2015-10-25T09:43:32Z</time>
      </trkpt>
      <trkpt lat="43.70847" lon="3.47673">
        <ele>259</ele>
        <time>2015-10-25T09:43:33Z</time>
      </trkpt>
      <trkpt lat="43.7085" lon="3.47673">
        <ele>260</ele>
        <time>2015-10-25T09:43:34Z</time>
      </trkpt>
      <trkpt lat="43.70853" lon="3.47672">
        <ele>260.5</ele>
        <time>2015-10-25T09:43:35Z</time>
      </trkpt>
      <trkpt lat="43.70855" lon="3.47671">
        <ele>262</ele>
        <time>2015-10-25T09:43:36Z</time>
      </trkpt>
      <trkpt lat="43.70858" lon="3.47671">
        <ele>262.5</ele>
        <time>2015-10-25T09:43:37Z</time>
      </trkpt>
      <trkpt lat="43.70863" lon="3.47671">
        <ele>263</ele>
        <time>2015-10-25T09:43:39Z</time>
      </trkpt>
      <trkpt lat="43.70866" lon="3.47672">
        <ele>263</ele>
        <time>2015-10-25T09:43:40Z</time>
      </trkpt>
      <trkpt lat="43.70869" lon="3.47673">
        <ele>263</ele>
        <time>2015-10-25T09:43:41Z</time>
      </trkpt>
      <trkpt lat="43.70872" lon="3.47673">
        <ele>264</ele>
        <time>2015-10-25T09:43:42Z</time>
      </trkpt>
      <trkpt lat="43.70875" lon="3.47675">
        <ele>264.5</ele>
        <time>2015-10-25T09:43:43Z</time>
      </trkpt>
      <trkpt lat="43.70878" lon="3.47675">
        <ele>264.5</ele>
        <time>2015-10-25T09:43:44Z</time>
      </trkpt>
      <trkpt lat="43.70881" lon="3.47677">
        <ele>264</ele>
        <time>2015-10-25T09:43:45Z</time>
      </trkpt>
      <trkpt lat="43.70883" lon="3.47679">
        <ele>264</ele>
        <time>2015-10-25T09:43:46Z</time>
      </trkpt>
      <trkpt lat="43.70888" lon="3.47681">
        <ele>263</ele>
        <time>2015-10-25T09:43:48Z</time>
      </trkpt>
      <trkpt lat="43.70891" lon="3.47682">
        <ele>263</ele>
        <time>2015-10-25T09:43:49Z</time>
      </trkpt>
      <trkpt lat="43.70893" lon="3.47681">
        <ele>264</ele>
        <time>2015-10-25T09:43:50Z</time>
      </trkpt>
      <trkpt lat="43.70895" lon="3.4768">
        <ele>265</ele>
        <time>2015-10-25T09:43:51Z</time>
      </trkpt>
      <trkpt lat="43.70897" lon="3.47679">
        <ele>265.5</ele>
        <time>2015-10-25T09:43:52Z</time>
      </trkpt>
      <trkpt lat="43.709" lon="3.47677">
        <ele>266.5</ele>
        <time>2015-10-25T09:43:53Z</time>
      </trkpt>
      <trkpt lat="43.70902" lon="3.47675">
        <ele>267</ele>
        <time>2015-10-25T09:43:54Z</time>
      </trkpt>
      <trkpt lat="43.70905" lon="3.47672">
        <ele>267</ele>
        <time>2015-10-25T09:43:55Z</time>
      </trkpt>
      <trkpt lat="43.70908" lon="3.47668">
        <ele>267.5</ele>
        <time>2015-10-25T09:43:56Z</time>
      </trkpt>
      <trkpt lat="43.70912" lon="3.47666">
        <ele>267.5</ele>
        <time>2015-10-25T09:43:57Z</time>
      </trkpt>
      <trkpt lat="43.70915" lon="3.47664">
        <ele>267.5</ele>
        <time>2015-10-25T09:43:58Z</time>
      </trkpt>
      <trkpt lat="43.70919" lon="3.47662">
        <ele>267</ele>
        <time>2015-10-25T09:43:59Z</time>
      </trkpt>
      <trkpt lat="43.70922" lon="3.47661">
        <ele>267</ele>
        <time>2015-10-25T09:44:00Z</time>
      </trkpt>
      <trkpt lat="43.70926" lon="3.47659">
        <ele>267</ele>
        <time>2015-10-25T09:44:01Z</time>
      </trkpt>
      <trkpt lat="43.70929" lon="3.47658">
        <ele>267</ele>
        <time>2015-10-25T09:44:02Z</time>
      </trkpt>
      <trkpt lat="43.70932" lon="3.47657">
        <ele>267</ele>
        <time>2015-10-25T09:44:03Z</time>
      </trkpt>
      <trkpt lat="43.70934" lon="3.47655">
        <ele>267.5</ele>
        <time>2015-10-25T09:44:04Z</time>
      </trkpt>
      <trkpt lat="43.70935" lon="3.47652">
        <ele>267</ele>
        <time>2015-10-25T09:44:05Z</time>
      </trkpt>
      <trkpt lat="43.70937" lon="3.4765">
        <ele>267</ele>
        <time>2015-10-25T09:44:06Z</time>
      </trkpt>
      <trkpt lat="43.7094" lon="3.47648">
        <ele>266</ele>
        <time>2015-10-25T09:44:07Z</time>
      </trkpt>
      <trkpt lat="43.70942" lon="3.47645">
        <ele>265.5</ele>
        <time>2015-10-25T09:44:08Z</time>
      </trkpt>
      <trkpt lat="43.70945" lon="3.47643">
        <ele>265</ele>
        <time>2015-10-25T09:44:09Z</time>
      </trkpt>
      <trkpt lat="43.70946" lon="3.4764">
        <ele>264.5</ele>
        <time>2015-10-25T09:44:10Z</time>
      </trkpt>
      <trkpt lat="43.70948" lon="3.47637">
        <ele>264.5</ele>
        <time>2015-10-25T09:44:11Z</time>
      </trkpt>
      <trkpt lat="43.7095" lon="3.47633">
        <ele>264.5</ele>
        <time>2015-10-25T09:44:12Z</time>
      </trkpt>
      <trkpt lat="43.70951" lon="3.4763">
        <ele>265</ele>
        <time>2015-10-25T09:44:13Z</time>
      </trkpt>
      <trkpt lat="43.70954" lon="3.47629">
        <ele>265</ele>
        <time>2015-10-25T09:44:14Z</time>
      </trkpt>
      <trkpt lat="43.70957" lon="3.47627">
        <ele>264.5</ele>
        <time>2015-10-25T09:44:15Z</time>
      </trkpt>
      <trkpt lat="43.7096" lon="3.47626">
        <ele>264.5</ele>
        <time>2015-10-25T09:44:16Z</time>
      </trkpt>
      <trkpt lat="43.70962" lon="3.47625">
        <ele>264.5</ele>
        <time>2015-10-25T09:44:17Z</time>
      </trkpt>
      <trkpt lat="43.70965" lon="3.47625">
        <ele>264.5</ele>
        <time>2015-10-25T09:44:18Z</time>
      </trkpt>
      <trkpt lat="43.70967" lon="3.47625">
        <ele>264.5</ele>
        <time>2015-10-25T09:44:19Z</time>
      </trkpt>
      <trkpt lat="43.7097" lon="3.47625">
        <ele>264.5</ele>
        <time>2015-10-25T09:44:20Z</time>
      </trkpt>
      <trkpt lat="43.70973" lon="3.47626">
        <ele>264.5</ele>
        <time>2015-10-25T09:44:21Z</time>
      </trkpt>
      <trkpt lat="43.70978" lon="3.47627">
        <ele>265</ele>
        <time>2015-10-25T09:44:23Z</time>
      </trkpt>
      <trkpt lat="43.70981" lon="3.47628">
        <ele>265</ele>
        <time>2015-10-25T09:44:24Z</time>
      </trkpt>
      <trkpt lat="43.70984" lon="3.47627">
        <ele>266.5</ele>
        <time>2015-10-25T09:44:25Z</time>
      </trkpt>
      <trkpt lat="43.70986" lon="3.47626">
        <ele>267.5</ele>
        <time>2015-10-25T09:44:26Z</time>
      </trkpt>
      <trkpt lat="43.70989" lon="3.47625">
        <ele>267.5</ele>
        <time>2015-10-25T09:44:27Z</time>
      </trkpt>
      <trkpt lat="43.70992" lon="3.47624">
        <ele>267.5</ele>
        <time>2015-10-25T09:44:29Z</time>
      </trkpt>
      <trkpt lat="43.70995" lon="3.47623">
        <ele>266.5</ele>
        <time>2015-10-25T09:44:30Z</time>
      </trkpt>
      <trkpt lat="43.70998" lon="3.47621">
        <ele>266</ele>
        <time>2015-10-25T09:44:31Z</time>
      </trkpt>
      <trkpt lat="43.71" lon="3.47619">
        <ele>265</ele>
        <time>2015-10-25T09:44:32Z</time>
      </trkpt>
      <trkpt lat="43.71003" lon="3.47618">
        <ele>264.5</ele>
        <time>2015-10-25T09:44:33Z</time>
      </trkpt>
      <trkpt lat="43.71005" lon="3.47615">
        <ele>264.5</ele>
        <time>2015-10-25T09:44:34Z</time>
      </trkpt>
      <trkpt lat="43.71007" lon="3.47612">
        <ele>266.5</ele>
        <time>2015-10-25T09:44:35Z</time>
      </trkpt>
      <trkpt lat="43.7101" lon="3.47609">
        <ele>266</ele>
        <time>2015-10-25T09:44:37Z</time>
      </trkpt>
      <trkpt lat="43.71012" lon="3.47606">
        <ele>265.5</ele>
        <time>2015-10-25T09:44:38Z</time>
      </trkpt>
      <trkpt lat="43.71015" lon="3.47604">
        <ele>265.5</ele>
        <time>2015-10-25T09:44:39Z</time>
      </trkpt>
      <trkpt lat="43.71017" lon="3.47602">
        <ele>267.5</ele>
        <time>2015-10-25T09:44:40Z</time>
      </trkpt>
      <trkpt lat="43.7102" lon="3.476">
        <ele>268</ele>
        <time>2015-10-25T09:44:41Z</time>
      </trkpt>
      <trkpt lat="43.71022" lon="3.47597">
        <ele>267.5</ele>
        <time>2015-10-25T09:44:42Z</time>
      </trkpt>
      <trkpt lat="43.71025" lon="3.47595">
        <ele>267.5</ele>
        <time>2015-10-25T09:44:43Z</time>
      </trkpt>
      <trkpt lat="43.71027" lon="3.47592">
        <ele>269</ele>
        <time>2015-10-25T09:44:44Z</time>
      </trkpt>
      <trkpt lat="43.7103" lon="3.47591">
        <ele>269.5</ele>
        <time>2015-10-25T09:44:45Z</time>
      </trkpt>
      <trkpt lat="43.71032" lon="3.47589">
        <ele>269.5</ele>
        <time>2015-10-25T09:44:46Z</time>
      </trkpt>
      <trkpt lat="43.71035" lon="3.47588">
        <ele>269</ele>
        <time>2015-10-25T09:44:47Z</time>
      </trkpt>
      <trkpt lat="43.71037" lon="3.47585">
        <ele>268.5</ele>
        <time>2015-10-25T09:44:48Z</time>
      </trkpt>
      <trkpt lat="43.7104" lon="3.47583">
        <ele>268.5</ele>
        <time>2015-10-25T09:44:49Z</time>
      </trkpt>
      <trkpt lat="43.71043" lon="3.47581">
        <ele>268.5</ele>
        <time>2015-10-25T09:44:50Z</time>
      </trkpt>
      <trkpt lat="43.71046" lon="3.47579">
        <ele>267.5</ele>
        <time>2015-10-25T09:44:51Z</time>
      </trkpt>
      <trkpt lat="43.71049" lon="3.47577">
        <ele>266</ele>
        <time>2015-10-25T09:44:52Z</time>
      </trkpt>
      <trkpt lat="43.71051" lon="3.47575">
        <ele>266</ele>
        <time>2015-10-25T09:44:53Z</time>
      </trkpt>
      <trkpt lat="43.71054" lon="3.47573">
        <ele>266</ele>
        <time>2015-10-25T09:44:54Z</time>
      </trkpt>
      <trkpt lat="43.71057" lon="3.4757">
        <ele>266</ele>
        <time>2015-10-25T09:44:55Z</time>
      </trkpt>
      <trkpt lat="43.7106" lon="3.47568">
        <ele>267</ele>
        <time>2015-10-25T09:44:56Z</time>
      </trkpt>
      <trkpt lat="43.71063" lon="3.47566">
        <ele>266.5</ele>
        <time>2015-10-25T09:44:57Z</time>
      </trkpt>
      <trkpt lat="43.71066" lon="3.47563">
        <ele>264</ele>
        <time>2015-10-25T09:44:58Z</time>
      </trkpt>
      <trkpt lat="43.71068" lon="3.47561">
        <ele>266</ele>
        <time>2015-10-25T09:44:59Z</time>
      </trkpt>
      <trkpt lat="43.7107" lon="3.47559">
        <ele>266.5</ele>
        <time>2015-10-25T09:45:00Z</time>
      </trkpt>
      <trkpt lat="43.71072" lon="3.47556">
        <ele>266</ele>
        <time>2015-10-25T09:45:01Z</time>
      </trkpt>
      <trkpt lat="43.71074" lon="3.47554">
        <ele>268.5</ele>
        <time>2015-10-25T09:45:02Z</time>
      </trkpt>
      <trkpt lat="43.71076" lon="3.47551">
        <ele>268</ele>
        <time>2015-10-25T09:45:03Z</time>
      </trkpt>
      <trkpt lat="43.71078" lon="3.47549">
        <ele>269</ele>
        <time>2015-10-25T09:45:04Z</time>
      </trkpt>
      <trkpt lat="43.7108" lon="3.47546">
        <ele>269</ele>
        <time>2015-10-25T09:45:05Z</time>
      </trkpt>
      <trkpt lat="43.71083" lon="3.47542">
        <ele>268.5</ele>
        <time>2015-10-25T09:45:06Z</time>
      </trkpt>
      <trkpt lat="43.71085" lon="3.47539">
        <ele>268.5</ele>
        <time>2015-10-25T09:45:07Z</time>
      </trkpt>
      <trkpt lat="43.71086" lon="3.47537">
        <ele>267.5</ele>
        <time>2015-10-25T09:45:08Z</time>
      </trkpt>
      <trkpt lat="43.71088" lon="3.47535">
        <ele>266.5</ele>
        <time>2015-10-25T09:45:09Z</time>
      </trkpt>
      <trkpt lat="43.71089" lon="3.47532">
        <ele>266</ele>
        <time>2015-10-25T09:45:10Z</time>
      </trkpt>
      <trkpt lat="43.71091" lon="3.4753">
        <ele>266.5</ele>
        <time>2015-10-25T09:45:11Z</time>
      </trkpt>
      <trkpt lat="43.71092" lon="3.47528">
        <ele>266</ele>
        <time>2015-10-25T09:45:12Z</time>
      </trkpt>
      <trkpt lat="43.71095" lon="3.47525">
        <ele>266</ele>
        <time>2015-10-25T09:45:13Z</time>
      </trkpt>
      <trkpt lat="43.71097" lon="3.47523">
        <ele>265.5</ele>
        <time>2015-10-25T09:45:14Z</time>
      </trkpt>
      <trkpt lat="43.71097" lon="3.47519">
        <ele>265.5</ele>
        <time>2015-10-25T09:45:15Z</time>
      </trkpt>
      <trkpt lat="43.711" lon="3.47518">
        <ele>266.5</ele>
        <time>2015-10-25T09:45:16Z</time>
      </trkpt>
      <trkpt lat="43.71102" lon="3.47515">
        <ele>265.5</ele>
        <time>2015-10-25T09:45:17Z</time>
      </trkpt>
      <trkpt lat="43.71104" lon="3.47513">
        <ele>265.5</ele>
        <time>2015-10-25T09:45:18Z</time>
      </trkpt>
      <trkpt lat="43.71105" lon="3.4751">
        <ele>265</ele>
        <time>2015-10-25T09:45:19Z</time>
      </trkpt>
      <trkpt lat="43.71107" lon="3.47508">
        <ele>265.5</ele>
        <time>2015-10-25T09:45:20Z</time>
      </trkpt>
      <trkpt lat="43.71109" lon="3.47505">
        <ele>265.5</ele>
        <time>2015-10-25T09:45:21Z</time>
      </trkpt>
      <trkpt lat="43.7111" lon="3.47503">
        <ele>265.5</ele>
        <time>2015-10-25T09:45:22Z</time>
      </trkpt>
      <trkpt lat="43.71112" lon="3.475">
        <ele>265</ele>
        <time>2015-10-25T09:45:23Z</time>
      </trkpt>
      <trkpt lat="43.71114" lon="3.47498">
        <ele>265</ele>
        <time>2015-10-25T09:45:24Z</time>
      </trkpt>
      <trkpt lat="43.71116" lon="3.47496">
        <ele>265</ele>
        <time>2015-10-25T09:45:25Z</time>
      </trkpt>
      <trkpt lat="43.71118" lon="3.47493">
        <ele>265</ele>
        <time>2015-10-25T09:45:26Z</time>
      </trkpt>
      <trkpt lat="43.7112" lon="3.47491">
        <ele>264.5</ele>
        <time>2015-10-25T09:45:27Z</time>
      </trkpt>
      <trkpt lat="43.71122" lon="3.47488">
        <ele>264.5</ele>
        <time>2015-10-25T09:45:28Z</time>
      </trkpt>
      <trkpt lat="43.71125" lon="3.47485">
        <ele>264</ele>
        <time>2015-10-25T09:45:29Z</time>
      </trkpt>
      <trkpt lat="43.71126" lon="3.47483">
        <ele>263.5</ele>
        <time>2015-10-25T09:45:30Z</time>
      </trkpt>
      <trkpt lat="43.71128" lon="3.47481">
        <ele>263.5</ele>
        <time>2015-10-25T09:45:31Z</time>
      </trkpt>
      <trkpt lat="43.71131" lon="3.47478">
        <ele>264.5</ele>
        <time>2015-10-25T09:45:32Z</time>
      </trkpt>
      <trkpt lat="43.71133" lon="3.47475">
        <ele>264</ele>
        <time>2015-10-25T09:45:33Z</time>
      </trkpt>
      <trkpt lat="43.71136" lon="3.47472">
        <ele>264</ele>
        <time>2015-10-25T09:45:34Z</time>
      </trkpt>
      <trkpt lat="43.71138" lon="3.47469">
        <ele>264.5</ele>
        <time>2015-10-25T09:45:35Z</time>
      </trkpt>
      <trkpt lat="43.7114" lon="3.47466">
        <ele>264</ele>
        <time>2015-10-25T09:45:36Z</time>
      </trkpt>
      <trkpt lat="43.71141" lon="3.47464">
        <ele>264.5</ele>
        <time>2015-10-25T09:45:37Z</time>
      </trkpt>
      <trkpt lat="43.71143" lon="3.47461">
        <ele>265.5</ele>
        <time>2015-10-25T09:45:38Z</time>
      </trkpt>
      <trkpt lat="43.71145" lon="3.47459">
        <ele>265</ele>
        <time>2015-10-25T09:45:39Z</time>
      </trkpt>
      <trkpt lat="43.71147" lon="3.47457">
        <ele>265.5</ele>
        <time>2015-10-25T09:45:40Z</time>
      </trkpt>
      <trkpt lat="43.71149" lon="3.47454">
        <ele>265.5</ele>
        <time>2015-10-25T09:45:41Z</time>
      </trkpt>
      <trkpt lat="43.7115" lon="3.47452">
        <ele>265.5</ele>
        <time>2015-10-25T09:45:42Z</time>
      </trkpt>
      <trkpt lat="43.71152" lon="3.47449">
        <ele>266</ele>
        <time>2015-10-25T09:45:43Z</time>
      </trkpt>
      <trkpt lat="43.71154" lon="3.47447">
        <ele>266.5</ele>
        <time>2015-10-25T09:45:44Z</time>
      </trkpt>
      <trkpt lat="43.71157" lon="3.47446">
        <ele>265.5</ele>
        <time>2015-10-25T09:45:45Z</time>
      </trkpt>
      <trkpt lat="43.7116" lon="3.47445">
        <ele>265</ele>
        <time>2015-10-25T09:45:46Z</time>
      </trkpt>
      <trkpt lat="43.71163" lon="3.47444">
        <ele>266</ele>
        <time>2015-10-25T09:45:47Z</time>
      </trkpt>
      <trkpt lat="43.71166" lon="3.47444">
        <ele>266</ele>
        <time>2015-10-25T09:45:48Z</time>
      </trkpt>
      <trkpt lat="43.71168" lon="3.47443">
        <ele>266</ele>
        <time>2015-10-25T09:45:49Z</time>
      </trkpt>
      <trkpt lat="43.7117" lon="3.47443">
        <ele>266</ele>
        <time>2015-10-25T09:45:50Z</time>
      </trkpt>
      <trkpt lat="43.71173" lon="3.47442">
        <ele>266.5</ele>
        <time>2015-10-25T09:45:51Z</time>
      </trkpt>
      <trkpt lat="43.71175" lon="3.4744">
        <ele>267.5</ele>
        <time>2015-10-25T09:45:52Z</time>
      </trkpt>
      <trkpt lat="43.71181" lon="3.47436">
        <ele>269</ele>
        <time>2015-10-25T09:45:54Z</time>
      </trkpt>
      <trkpt lat="43.71183" lon="3.47434">
        <ele>269.5</ele>
        <time>2015-10-25T09:45:55Z</time>
      </trkpt>
      <trkpt lat="43.71186" lon="3.47432">
        <ele>268.5</ele>
        <time>2015-10-25T09:45:56Z</time>
      </trkpt>
      <trkpt lat="43.71191" lon="3.47428">
        <ele>268</ele>
        <time>2015-10-25T09:45:58Z</time>
      </trkpt>
      <trkpt lat="43.71192" lon="3.47424">
        <ele>268</ele>
        <time>2015-10-25T09:45:59Z</time>
      </trkpt>
      <trkpt lat="43.71193" lon="3.47419">
        <ele>268</ele>
        <time>2015-10-25T09:46:00Z</time>
      </trkpt>
      <trkpt lat="43.71192" lon="3.47417">
        <ele>267.5</ele>
        <time>2015-10-25T09:46:01Z</time>
      </trkpt>
      <trkpt lat="43.71188" lon="3.47417">
        <ele>267.5</ele>
        <time>2015-10-25T09:46:03Z</time>
      </trkpt>
      <trkpt lat="43.71186" lon="3.47419">
        <ele>268.5</ele>
        <time>2015-10-25T09:46:04Z</time>
      </trkpt>
      <trkpt lat="43.71184" lon="3.47419">
        <ele>268</ele>
        <time>2015-10-25T09:46:05Z</time>
      </trkpt>
      <trkpt lat="43.71182" lon="3.47419">
        <ele>268</ele>
        <time>2015-10-25T09:46:06Z</time>
      </trkpt>
      <trkpt lat="43.7118" lon="3.47419">
        <ele>268.5</ele>
        <time>2015-10-25T09:46:07Z</time>
      </trkpt>
      <trkpt lat="43.71178" lon="3.4742">
        <ele>269</ele>
        <time>2015-10-25T09:46:08Z</time>
      </trkpt>
      <trkpt lat="43.71176" lon="3.4742">
        <ele>270</ele>
        <time>2015-10-25T09:46:09Z</time>
      </trkpt>
      <trkpt lat="43.71174" lon="3.4742">
        <ele>271</ele>
        <time>2015-10-25T09:46:10Z</time>
      </trkpt>
      <trkpt lat="43.71172" lon="3.47419">
        <ele>271</ele>
        <time>2015-10-25T09:46:11Z</time>
      </trkpt>
      <trkpt lat="43.7117" lon="3.47419">
        <ele>272</ele>
        <time>2015-10-25T09:46:12Z</time>
      </trkpt>
      <trkpt lat="43.71168" lon="3.47419">
        <ele>272</ele>
        <time>2015-10-25T09:46:12Z</time>
      </trkpt>
      <trkpt lat="43.71166" lon="3.47419">
        <ele>273</ele>
        <time>2015-10-25T09:46:14Z</time>
      </trkpt>
      <trkpt lat="43.71165" lon="3.47418">
        <ele>273</ele>
        <time>2015-10-25T09:46:15Z</time>
      </trkpt>
      <trkpt lat="43.71163" lon="3.47418">
        <ele>273</ele>
        <time>2015-10-25T09:46:16Z</time>
      </trkpt>
      <trkpt lat="43.71161" lon="3.47418">
        <ele>274</ele>
        <time>2015-10-25T09:46:18Z</time>
      </trkpt>
      <trkpt lat="43.7116" lon="3.47418">
        <ele>274</ele>
        <time>2015-10-25T09:46:19Z</time>
      </trkpt>
      <trkpt lat="43.71158" lon="3.47418">
        <ele>274</ele>
        <time>2015-10-25T09:46:20Z</time>
      </trkpt>
      <trkpt lat="43.71155" lon="3.47418">
        <ele>273.5</ele>
        <time>2015-10-25T09:46:20Z</time>
      </trkpt>
      <trkpt lat="43.71153" lon="3.47419">
        <ele>276</ele>
        <time>2015-10-25T09:46:22Z</time>
      </trkpt>
      <trkpt lat="43.71151" lon="3.4742">
        <ele>276.5</ele>
        <time>2015-10-25T09:46:23Z</time>
      </trkpt>
      <trkpt lat="43.71149" lon="3.4742">
        <ele>276.5</ele>
        <time>2015-10-25T09:46:23Z</time>
      </trkpt>
      <trkpt lat="43.71148" lon="3.47422">
        <ele>277.5</ele>
        <time>2015-10-25T09:46:24Z</time>
      </trkpt>
      <trkpt lat="43.71147" lon="3.47424">
        <ele>278</ele>
        <time>2015-10-25T09:46:25Z</time>
      </trkpt>
      <trkpt lat="43.71145" lon="3.47426">
        <ele>278.5</ele>
        <time>2015-10-25T09:46:26Z</time>
      </trkpt>
      <trkpt lat="43.71144" lon="3.47428">
        <ele>279</ele>
        <time>2015-10-25T09:46:27Z</time>
      </trkpt>
      <trkpt lat="43.71143" lon="3.4743">
        <ele>279.5</ele>
        <time>2015-10-25T09:46:28Z</time>
      </trkpt>
      <trkpt lat="43.71142" lon="3.47432">
        <ele>280</ele>
        <time>2015-10-25T09:46:30Z</time>
      </trkpt>
      <trkpt lat="43.71141" lon="3.47434">
        <ele>280.5</ele>
        <time>2015-10-25T09:46:31Z</time>
      </trkpt>
      <trkpt lat="43.7114" lon="3.47436">
        <ele>280.5</ele>
        <time>2015-10-25T09:46:31Z</time>
      </trkpt>
      <trkpt lat="43.71139" lon="3.47438">
        <ele>280.5</ele>
        <time>2015-10-25T09:46:32Z</time>
      </trkpt>
      <trkpt lat="43.71138" lon="3.4744">
        <ele>281</ele>
        <time>2015-10-25T09:46:33Z</time>
      </trkpt>
      <trkpt lat="43.71136" lon="3.47442">
        <ele>281</ele>
        <time>2015-10-25T09:46:34Z</time>
      </trkpt>
      <trkpt lat="43.71135" lon="3.47443">
        <ele>281.5</ele>
        <time>2015-10-25T09:46:35Z</time>
      </trkpt>
      <trkpt lat="43.71133" lon="3.47444">
        <ele>282.5</ele>
        <time>2015-10-25T09:46:36Z</time>
      </trkpt>
      <trkpt lat="43.71131" lon="3.47444">
        <ele>283</ele>
        <time>2015-10-25T09:46:37Z</time>
      </trkpt>
      <trkpt lat="43.71129" lon="3.47444">
        <ele>284.5</ele>
        <time>2015-10-25T09:46:38Z</time>
      </trkpt>
      <trkpt lat="43.71128" lon="3.47443">
        <ele>285</ele>
        <time>2015-10-25T09:46:39Z</time>
      </trkpt>
      <trkpt lat="43.71127" lon="3.47441">
        <ele>285.5</ele>
        <time>2015-10-25T09:46:40Z</time>
      </trkpt>
      <trkpt lat="43.71127" lon="3.47439">
        <ele>285.5</ele>
        <time>2015-10-25T09:46:41Z</time>
      </trkpt>
      <trkpt lat="43.71127" lon="3.47437">
        <ele>285</ele>
        <time>2015-10-25T09:46:42Z</time>
      </trkpt>
      <trkpt lat="43.71127" lon="3.47434">
        <ele>285.5</ele>
        <time>2015-10-25T09:46:43Z</time>
      </trkpt>
      <trkpt lat="43.71128" lon="3.47432">
        <ele>285</ele>
        <time>2015-10-25T09:46:44Z</time>
      </trkpt>
      <trkpt lat="43.71128" lon="3.47429">
        <ele>284.5</ele>
        <time>2015-10-25T09:46:45Z</time>
      </trkpt>
      <trkpt lat="43.71128" lon="3.47426">
        <ele>284.5</ele>
        <time>2015-10-25T09:46:46Z</time>
      </trkpt>
      <trkpt lat="43.71129" lon="3.47423">
        <ele>283.5</ele>
        <time>2015-10-25T09:46:48Z</time>
      </trkpt>
      <trkpt lat="43.71129" lon="3.4742">
        <ele>283</ele>
        <time>2015-10-25T09:46:48Z</time>
      </trkpt>
      <trkpt lat="43.71129" lon="3.47417">
        <ele>283</ele>
        <time>2015-10-25T09:46:49Z</time>
      </trkpt>
      <trkpt lat="43.7113" lon="3.47415">
        <ele>282.5</ele>
        <time>2015-10-25T09:46:50Z</time>
      </trkpt>
      <trkpt lat="43.7113" lon="3.47412">
        <ele>282</ele>
        <time>2015-10-25T09:46:51Z</time>
      </trkpt>
      <trkpt lat="43.71131" lon="3.4741">
        <ele>282</ele>
        <time>2015-10-25T09:46:52Z</time>
      </trkpt>
      <trkpt lat="43.71131" lon="3.47408">
        <ele>282</ele>
        <time>2015-10-25T09:46:53Z</time>
      </trkpt>
      <trkpt lat="43.71131" lon="3.47407">
        <ele>281</ele>
        <time>2015-10-25T09:46:54Z</time>
      </trkpt>
      <trkpt lat="43.71132" lon="3.47405">
        <ele>281.5</ele>
        <time>2015-10-25T09:46:55Z</time>
      </trkpt>
      <trkpt lat="43.71132" lon="3.47403">
        <ele>282</ele>
        <time>2015-10-25T09:46:56Z</time>
      </trkpt>
      <trkpt lat="43.71132" lon="3.47402">
        <ele>282</ele>
        <time>2015-10-25T09:46:57Z</time>
      </trkpt>
      <trkpt lat="43.71133" lon="3.474">
        <ele>282</ele>
        <time>2015-10-25T09:46:58Z</time>
      </trkpt>
      <trkpt lat="43.71133" lon="3.47398">
        <ele>282</ele>
        <time>2015-10-25T09:46:59Z</time>
      </trkpt>
      <trkpt lat="43.71134" lon="3.47396">
        <ele>282.5</ele>
        <time>2015-10-25T09:47:00Z</time>
      </trkpt>
      <trkpt lat="43.71135" lon="3.47394">
        <ele>282</ele>
        <time>2015-10-25T09:47:01Z</time>
      </trkpt>
      <trkpt lat="43.71135" lon="3.47392">
        <ele>282</ele>
        <time>2015-10-25T09:47:02Z</time>
      </trkpt>
      <trkpt lat="43.71136" lon="3.4739">
        <ele>282</ele>
        <time>2015-10-25T09:47:03Z</time>
      </trkpt>
      <trkpt lat="43.71137" lon="3.47389">
        <ele>282</ele>
        <time>2015-10-25T09:47:04Z</time>
      </trkpt>
      <trkpt lat="43.71138" lon="3.47387">
        <ele>282</ele>
        <time>2015-10-25T09:47:05Z</time>
      </trkpt>
      <trkpt lat="43.71139" lon="3.47385">
        <ele>282.5</ele>
        <time>2015-10-25T09:47:06Z</time>
      </trkpt>
      <trkpt lat="43.7114" lon="3.47383">
        <ele>283</ele>
        <time>2015-10-25T09:47:07Z</time>
      </trkpt>
      <trkpt lat="43.71141" lon="3.47381">
        <ele>283</ele>
        <time>2015-10-25T09:47:08Z</time>
      </trkpt>
      <trkpt lat="43.71143" lon="3.47379">
        <ele>283</ele>
        <time>2015-10-25T09:47:10Z</time>
      </trkpt>
      <trkpt lat="43.71145" lon="3.47376">
        <ele>283.5</ele>
        <time>2015-10-25T09:47:11Z</time>
      </trkpt>
      <trkpt lat="43.71147" lon="3.47375">
        <ele>283.5</ele>
        <time>2015-10-25T09:47:12Z</time>
      </trkpt>
      <trkpt lat="43.71148" lon="3.47373">
        <ele>283.5</ele>
        <time>2015-10-25T09:47:13Z</time>
      </trkpt>
      <trkpt lat="43.71149" lon="3.47371">
        <ele>283.5</ele>
        <time>2015-10-25T09:47:14Z</time>
      </trkpt>
      <trkpt lat="43.71151" lon="3.4737">
        <ele>284</ele>
        <time>2015-10-25T09:47:15Z</time>
      </trkpt>
      <trkpt lat="43.71152" lon="3.47368">
        <ele>284.5</ele>
        <time>2015-10-25T09:47:16Z</time>
      </trkpt>
      <trkpt lat="43.71153" lon="3.47367">
        <ele>285</ele>
        <time>2015-10-25T09:47:17Z</time>
      </trkpt>
      <trkpt lat="43.71154" lon="3.47365">
        <ele>285.5</ele>
        <time>2015-10-25T09:47:18Z</time>
      </trkpt>
      <trkpt lat="43.71156" lon="3.47364">
        <ele>285.5</ele>
        <time>2015-10-25T09:47:19Z</time>
      </trkpt>
      <trkpt lat="43.71157" lon="3.47363">
        <ele>286</ele>
        <time>2015-10-25T09:47:20Z</time>
      </trkpt>
      <trkpt lat="43.71159" lon="3.47362">
        <ele>286</ele>
        <time>2015-10-25T09:47:21Z</time>
      </trkpt>
      <trkpt lat="43.7116" lon="3.47361">
        <ele>287</ele>
        <time>2015-10-25T09:47:22Z</time>
      </trkpt>
      <trkpt lat="43.71162" lon="3.4736">
        <ele>287.5</ele>
        <time>2015-10-25T09:47:23Z</time>
      </trkpt>
      <trkpt lat="43.71164" lon="3.47359">
        <ele>287.5</ele>
        <time>2015-10-25T09:47:24Z</time>
      </trkpt>
      <trkpt lat="43.71166" lon="3.47357">
        <ele>287</ele>
        <time>2015-10-25T09:47:25Z</time>
      </trkpt>
      <trkpt lat="43.71167" lon="3.47356">
        <ele>287</ele>
        <time>2015-10-25T09:47:26Z</time>
      </trkpt>
      <trkpt lat="43.71169" lon="3.47355">
        <ele>287</ele>
        <time>2015-10-25T09:47:27Z</time>
      </trkpt>
      <trkpt lat="43.71171" lon="3.47354">
        <ele>287</ele>
        <time>2015-10-25T09:47:28Z</time>
      </trkpt>
      <trkpt lat="43.71173" lon="3.47353">
        <ele>287.5</ele>
        <time>2015-10-25T09:47:29Z</time>
      </trkpt>
      <trkpt lat="43.71175" lon="3.47351">
        <ele>288</ele>
        <time>2015-10-25T09:47:30Z</time>
      </trkpt>
      <trkpt lat="43.71177" lon="3.4735">
        <ele>287.5</ele>
        <time>2015-10-25T09:47:31Z</time>
      </trkpt>
      <trkpt lat="43.71179" lon="3.47349">
        <ele>288</ele>
        <time>2015-10-25T09:47:32Z</time>
      </trkpt>
      <trkpt lat="43.71181" lon="3.47348">
        <ele>288.5</ele>
        <time>2015-10-25T09:47:33Z</time>
      </trkpt>
      <trkpt lat="43.71183" lon="3.47348">
        <ele>289</ele>
        <time>2015-10-25T09:47:34Z</time>
      </trkpt>
      <trkpt lat="43.71184" lon="3.47347">
        <ele>289</ele>
        <time>2015-10-25T09:47:35Z</time>
      </trkpt>
      <trkpt lat="43.71187" lon="3.47346">
        <ele>289</ele>
        <time>2015-10-25T09:47:36Z</time>
      </trkpt>
      <trkpt lat="43.71188" lon="3.47344">
        <ele>290</ele>
        <time>2015-10-25T09:47:37Z</time>
      </trkpt>
      <trkpt lat="43.7119" lon="3.47343">
        <ele>290.5</ele>
        <time>2015-10-25T09:47:38Z</time>
      </trkpt>
      <trkpt lat="43.71192" lon="3.47342">
        <ele>290.5</ele>
        <time>2015-10-25T09:47:39Z</time>
      </trkpt>
      <trkpt lat="43.71193" lon="3.47341">
        <ele>291</ele>
        <time>2015-10-25T09:47:40Z</time>
      </trkpt>
      <trkpt lat="43.71195" lon="3.47339">
        <ele>292</ele>
        <time>2015-10-25T09:47:41Z</time>
      </trkpt>
      <trkpt lat="43.71196" lon="3.47338">
        <ele>293</ele>
        <time>2015-10-25T09:47:42Z</time>
      </trkpt>
      <trkpt lat="43.71198" lon="3.47337">
        <ele>293</ele>
        <time>2015-10-25T09:47:43Z</time>
      </trkpt>
      <trkpt lat="43.712" lon="3.47336">
        <ele>293</ele>
        <time>2015-10-25T09:47:44Z</time>
      </trkpt>
      <trkpt lat="43.71202" lon="3.47335">
        <ele>294</ele>
        <time>2015-10-25T09:47:45Z</time>
      </trkpt>
      <trkpt lat="43.71203" lon="3.47334">
        <ele>294.5</ele>
        <time>2015-10-25T09:47:46Z</time>
      </trkpt>
      <trkpt lat="43.71205" lon="3.47333">
        <ele>294.5</ele>
        <time>2015-10-25T09:47:47Z</time>
      </trkpt>
      <trkpt lat="43.71207" lon="3.47332">
        <ele>295</ele>
        <time>2015-10-25T09:47:48Z</time>
      </trkpt>
      <trkpt lat="43.71208" lon="3.4733">
        <ele>296</ele>
        <time>2015-10-25T09:47:49Z</time>
      </trkpt>
      <trkpt lat="43.7121" lon="3.47329">
        <ele>296</ele>
        <time>2015-10-25T09:47:50Z</time>
      </trkpt>
      <trkpt lat="43.71212" lon="3.47328">
        <ele>296</ele>
        <time>2015-10-25T09:47:51Z</time>
      </trkpt>
      <trkpt lat="43.71213" lon="3.47327">
        <ele>295.5</ele>
        <time>2015-10-25T09:47:52Z</time>
      </trkpt>
      <trkpt lat="43.71215" lon="3.47327">
        <ele>295</ele>
        <time>2015-10-25T09:47:53Z</time>
      </trkpt>
      <trkpt lat="43.71216" lon="3.47326">
        <ele>294.5</ele>
        <time>2015-10-25T09:47:54Z</time>
      </trkpt>
      <trkpt lat="43.71218" lon="3.47325">
        <ele>295</ele>
        <time>2015-10-25T09:47:55Z</time>
      </trkpt>
      <trkpt lat="43.71219" lon="3.47324">
        <ele>296</ele>
        <time>2015-10-25T09:47:56Z</time>
      </trkpt>
      <trkpt lat="43.71221" lon="3.47323">
        <ele>296</ele>
        <time>2015-10-25T09:47:57Z</time>
      </trkpt>
      <trkpt lat="43.71225" lon="3.4732">
        <ele>297</ele>
        <time>2015-10-25T09:47:59Z</time>
      </trkpt>
      <trkpt lat="43.71227" lon="3.47319">
        <ele>297.5</ele>
        <time>2015-10-25T09:48:00Z</time>
      </trkpt>
      <trkpt lat="43.71229" lon="3.47318">
        <ele>298.5</ele>
        <time>2015-10-25T09:48:01Z</time>
      </trkpt>
      <trkpt lat="43.71231" lon="3.47317">
        <ele>299.5</ele>
        <time>2015-10-25T09:48:02Z</time>
      </trkpt>
      <trkpt lat="43.71233" lon="3.47316">
        <ele>300</ele>
        <time>2015-10-25T09:48:03Z</time>
      </trkpt>
      <trkpt lat="43.71235" lon="3.47315">
        <ele>300</ele>
        <time>2015-10-25T09:48:04Z</time>
      </trkpt>
      <trkpt lat="43.71238" lon="3.47315">
        <ele>300.5</ele>
        <time>2015-10-25T09:48:05Z</time>
      </trkpt>
      <trkpt lat="43.7124" lon="3.47314">
        <ele>300</ele>
        <time>2015-10-25T09:48:06Z</time>
      </trkpt>
      <trkpt lat="43.71242" lon="3.47314">
        <ele>300.5</ele>
        <time>2015-10-25T09:48:07Z</time>
      </trkpt>
      <trkpt lat="43.71244" lon="3.47313">
        <ele>301</ele>
        <time>2015-10-25T09:48:08Z</time>
      </trkpt>
      <trkpt lat="43.71246" lon="3.47313">
        <ele>301</ele>
        <time>2015-10-25T09:48:09Z</time>
      </trkpt>
      <trkpt lat="43.71249" lon="3.47313">
        <ele>301</ele>
        <time>2015-10-25T09:48:10Z</time>
      </trkpt>
      <trkpt lat="43.71251" lon="3.47312">
        <ele>301.5</ele>
        <time>2015-10-25T09:48:11Z</time>
      </trkpt>
      <trkpt lat="43.71253" lon="3.47312">
        <ele>302.5</ele>
        <time>2015-10-25T09:48:12Z</time>
      </trkpt>
      <trkpt lat="43.71255" lon="3.47311">
        <ele>302.5</ele>
        <time>2015-10-25T09:48:13Z</time>
      </trkpt>
      <trkpt lat="43.71257" lon="3.4731">
        <ele>302</ele>
        <time>2015-10-25T09:48:14Z</time>
      </trkpt>
      <trkpt lat="43.7126" lon="3.47309">
        <ele>302</ele>
        <time>2015-10-25T09:48:15Z</time>
      </trkpt>
      <trkpt lat="43.7126" lon="3.47307">
        <ele>302</ele>
        <time>2015-10-25T09:48:16Z</time>
      </trkpt>
      <trkpt lat="43.71264" lon="3.47304">
        <ele>302.5</ele>
        <time>2015-10-25T09:48:18Z</time>
      </trkpt>
      <trkpt lat="43.71265" lon="3.47302">
        <ele>303</ele>
        <time>2015-10-25T09:48:19Z</time>
      </trkpt>
      <trkpt lat="43.71267" lon="3.473">
        <ele>302.5</ele>
        <time>2015-10-25T09:48:20Z</time>
      </trkpt>
      <trkpt lat="43.71268" lon="3.47298">
        <ele>303</ele>
        <time>2015-10-25T09:48:21Z</time>
      </trkpt>
      <trkpt lat="43.7127" lon="3.47296">
        <ele>302.5</ele>
        <time>2015-10-25T09:48:22Z</time>
      </trkpt>
      <trkpt lat="43.71271" lon="3.47295">
        <ele>303</ele>
        <time>2015-10-25T09:48:23Z</time>
      </trkpt>
      <trkpt lat="43.71274" lon="3.47291">
        <ele>304</ele>
        <time>2015-10-25T09:48:25Z</time>
      </trkpt>
      <trkpt lat="43.71275" lon="3.47289">
        <ele>304</ele>
        <time>2015-10-25T09:48:26Z</time>
      </trkpt>
      <trkpt lat="43.71277" lon="3.47287">
        <ele>304</ele>
        <time>2015-10-25T09:48:27Z</time>
      </trkpt>
      <trkpt lat="43.71279" lon="3.47285">
        <ele>304</ele>
        <time>2015-10-25T09:48:28Z</time>
      </trkpt>
      <trkpt lat="43.7128" lon="3.47283">
        <ele>304</ele>
        <time>2015-10-25T09:48:29Z</time>
      </trkpt>
      <trkpt lat="43.71282" lon="3.47281">
        <ele>305.5</ele>
        <time>2015-10-25T09:48:30Z</time>
      </trkpt>
      <trkpt lat="43.71283" lon="3.4728">
        <ele>305.5</ele>
        <time>2015-10-25T09:48:31Z</time>
      </trkpt>
      <trkpt lat="43.71285" lon="3.47278">
        <ele>305.5</ele>
        <time>2015-10-25T09:48:32Z</time>
      </trkpt>
      <trkpt lat="43.71287" lon="3.47277">
        <ele>305.5</ele>
        <time>2015-10-25T09:48:33Z</time>
      </trkpt>
      <trkpt lat="43.7129" lon="3.47276">
        <ele>306</ele>
        <time>2015-10-25T09:48:34Z</time>
      </trkpt>
      <trkpt lat="43.71292" lon="3.47275">
        <ele>306</ele>
        <time>2015-10-25T09:48:35Z</time>
      </trkpt>
      <trkpt lat="43.71294" lon="3.47273">
        <ele>307.5</ele>
        <time>2015-10-25T09:48:36Z</time>
      </trkpt>
      <trkpt lat="43.71296" lon="3.47272">
        <ele>309</ele>
        <time>2015-10-25T09:48:37Z</time>
      </trkpt>
      <trkpt lat="43.71297" lon="3.47271">
        <ele>309.5</ele>
        <time>2015-10-25T09:48:38Z</time>
      </trkpt>
      <trkpt lat="43.71299" lon="3.47269">
        <ele>310</ele>
        <time>2015-10-25T09:48:39Z</time>
      </trkpt>
      <trkpt lat="43.71301" lon="3.47268">
        <ele>311</ele>
        <time>2015-10-25T09:48:40Z</time>
      </trkpt>
      <trkpt lat="43.71303" lon="3.47267">
        <ele>311.5</ele>
        <time>2015-10-25T09:48:41Z</time>
      </trkpt>
      <trkpt lat="43.71306" lon="3.47266">
        <ele>312.5</ele>
        <time>2015-10-25T09:48:42Z</time>
      </trkpt>
      <trkpt lat="43.71307" lon="3.47265">
        <ele>313</ele>
        <time>2015-10-25T09:48:43Z</time>
      </trkpt>
      <trkpt lat="43.71309" lon="3.47263">
        <ele>313.5</ele>
        <time>2015-10-25T09:48:44Z</time>
      </trkpt>
      <trkpt lat="43.71311" lon="3.47262">
        <ele>314</ele>
        <time>2015-10-25T09:48:45Z</time>
      </trkpt>
      <trkpt lat="43.71313" lon="3.47259">
        <ele>315</ele>
        <time>2015-10-25T09:48:46Z</time>
      </trkpt>
      <trkpt lat="43.71315" lon="3.47258">
        <ele>315.5</ele>
        <time>2015-10-25T09:48:47Z</time>
      </trkpt>
      <trkpt lat="43.71317" lon="3.47256">
        <ele>316</ele>
        <time>2015-10-25T09:48:48Z</time>
      </trkpt>
      <trkpt lat="43.71319" lon="3.47253">
        <ele>316</ele>
        <time>2015-10-25T09:48:49Z</time>
      </trkpt>
      <trkpt lat="43.71321" lon="3.47251">
        <ele>316</ele>
        <time>2015-10-25T09:48:50Z</time>
      </trkpt>
      <trkpt lat="43.71323" lon="3.47248">
        <ele>315.5</ele>
        <time>2015-10-25T09:48:51Z</time>
      </trkpt>
      <trkpt lat="43.71325" lon="3.47246">
        <ele>315</ele>
        <time>2015-10-25T09:48:52Z</time>
      </trkpt>
      <trkpt lat="43.71327" lon="3.47244">
        <ele>314</ele>
        <time>2015-10-25T09:48:53Z</time>
      </trkpt>
      <trkpt lat="43.7133" lon="3.47242">
        <ele>313.5</ele>
        <time>2015-10-25T09:48:54Z</time>
      </trkpt>
      <trkpt lat="43.71332" lon="3.47239">
        <ele>313</ele>
        <time>2015-10-25T09:48:55Z</time>
      </trkpt>
      <trkpt lat="43.71334" lon="3.47237">
        <ele>312.5</ele>
        <time>2015-10-25T09:48:56Z</time>
      </trkpt>
      <trkpt lat="43.71336" lon="3.47234">
        <ele>312.5</ele>
        <time>2015-10-25T09:48:57Z</time>
      </trkpt>
      <trkpt lat="43.71338" lon="3.47231">
        <ele>311</ele>
        <time>2015-10-25T09:48:58Z</time>
      </trkpt>
      <trkpt lat="43.7134" lon="3.47228">
        <ele>310</ele>
        <time>2015-10-25T09:48:59Z</time>
      </trkpt>
      <trkpt lat="43.71341" lon="3.47225">
        <ele>312</ele>
        <time>2015-10-25T09:49:00Z</time>
      </trkpt>
      <trkpt lat="43.71343" lon="3.47222">
        <ele>313</ele>
        <time>2015-10-25T09:49:01Z</time>
      </trkpt>
      <trkpt lat="43.71345" lon="3.47219">
        <ele>312</ele>
        <time>2015-10-25T09:49:02Z</time>
      </trkpt>
      <trkpt lat="43.71347" lon="3.47216">
        <ele>312</ele>
        <time>2015-10-25T09:49:03Z</time>
      </trkpt>
      <trkpt lat="43.71349" lon="3.47213">
        <ele>312</ele>
        <time>2015-10-25T09:49:04Z</time>
      </trkpt>
      <trkpt lat="43.71351" lon="3.47211">
        <ele>312</ele>
        <time>2015-10-25T09:49:05Z</time>
      </trkpt>
      <trkpt lat="43.71352" lon="3.47208">
        <ele>312.5</ele>
        <time>2015-10-25T09:49:06Z</time>
      </trkpt>
      <trkpt lat="43.71354" lon="3.47205">
        <ele>312</ele>
        <time>2015-10-25T09:49:07Z</time>
      </trkpt>
      <trkpt lat="43.71356" lon="3.47202">
        <ele>311.5</ele>
        <time>2015-10-25T09:49:08Z</time>
      </trkpt>
      <trkpt lat="43.71358" lon="3.47199">
        <ele>311</ele>
        <time>2015-10-25T09:49:09Z</time>
      </trkpt>
      <trkpt lat="43.7136" lon="3.47196">
        <ele>311</ele>
        <time>2015-10-25T09:49:10Z</time>
      </trkpt>
      <trkpt lat="43.71361" lon="3.47194">
        <ele>311.5</ele>
        <time>2015-10-25T09:49:11Z</time>
      </trkpt>
      <trkpt lat="43.71363" lon="3.47191">
        <ele>311</ele>
        <time>2015-10-25T09:49:12Z</time>
      </trkpt>
      <trkpt lat="43.71364" lon="3.47188">
        <ele>311</ele>
        <time>2015-10-25T09:49:13Z</time>
      </trkpt>
      <trkpt lat="43.71366" lon="3.47185">
        <ele>311</ele>
        <time>2015-10-25T09:49:14Z</time>
      </trkpt>
      <trkpt lat="43.71367" lon="3.47182">
        <ele>311</ele>
        <time>2015-10-25T09:49:15Z</time>
      </trkpt>
      <trkpt lat="43.71369" lon="3.4718">
        <ele>311</ele>
        <time>2015-10-25T09:49:16Z</time>
      </trkpt>
      <trkpt lat="43.7137" lon="3.47177">
        <ele>311</ele>
        <time>2015-10-25T09:49:17Z</time>
      </trkpt>
      <trkpt lat="43.71371" lon="3.47175">
        <ele>310</ele>
        <time>2015-10-25T09:49:18Z</time>
      </trkpt>
      <trkpt lat="43.71372" lon="3.47173">
        <ele>310</ele>
        <time>2015-10-25T09:49:19Z</time>
      </trkpt>
      <trkpt lat="43.71373" lon="3.4717">
        <ele>310</ele>
        <time>2015-10-25T09:49:20Z</time>
      </trkpt>
      <trkpt lat="43.71374" lon="3.47167">
        <ele>310.5</ele>
        <time>2015-10-25T09:49:21Z</time>
      </trkpt>
      <trkpt lat="43.71376" lon="3.47164">
        <ele>310.5</ele>
        <time>2015-10-25T09:49:22Z</time>
      </trkpt>
      <trkpt lat="43.71378" lon="3.47161">
        <ele>310.5</ele>
        <time>2015-10-25T09:49:23Z</time>
      </trkpt>
      <trkpt lat="43.71379" lon="3.47158">
        <ele>310</ele>
        <time>2015-10-25T09:49:24Z</time>
      </trkpt>
      <trkpt lat="43.71381" lon="3.47155">
        <ele>310</ele>
        <time>2015-10-25T09:49:25Z</time>
      </trkpt>
      <trkpt lat="43.71382" lon="3.47153">
        <ele>310</ele>
        <time>2015-10-25T09:49:26Z</time>
      </trkpt>
      <trkpt lat="43.71384" lon="3.4715">
        <ele>309.5</ele>
        <time>2015-10-25T09:49:27Z</time>
      </trkpt>
      <trkpt lat="43.71385" lon="3.47148">
        <ele>309.5</ele>
        <time>2015-10-25T09:49:28Z</time>
      </trkpt>
      <trkpt lat="43.71386" lon="3.47145">
        <ele>311</ele>
        <time>2015-10-25T09:49:29Z</time>
      </trkpt>
      <trkpt lat="43.71388" lon="3.47143">
        <ele>310.5</ele>
        <time>2015-10-25T09:49:30Z</time>
      </trkpt>
      <trkpt lat="43.71389" lon="3.4714">
        <ele>311</ele>
        <time>2015-10-25T09:49:31Z</time>
      </trkpt>
      <trkpt lat="43.71391" lon="3.47138">
        <ele>311</ele>
        <time>2015-10-25T09:49:32Z</time>
      </trkpt>
      <trkpt lat="43.71392" lon="3.47136">
        <ele>311</ele>
        <time>2015-10-25T09:49:33Z</time>
      </trkpt>
      <trkpt lat="43.71393" lon="3.47134">
        <ele>311</ele>
        <time>2015-10-25T09:49:34Z</time>
      </trkpt>
      <trkpt lat="43.71395" lon="3.47132">
        <ele>310.5</ele>
        <time>2015-10-25T09:49:35Z</time>
      </trkpt>
      <trkpt lat="43.71396" lon="3.4713">
        <ele>310</ele>
        <time>2015-10-25T09:49:36Z</time>
      </trkpt>
      <trkpt lat="43.71397" lon="3.47127">
        <ele>310.5</ele>
        <time>2015-10-25T09:49:37Z</time>
      </trkpt>
      <trkpt lat="43.71399" lon="3.47126">
        <ele>311</ele>
        <time>2015-10-25T09:49:38Z</time>
      </trkpt>
      <trkpt lat="43.714" lon="3.47124">
        <ele>311.5</ele>
        <time>2015-10-25T09:49:39Z</time>
      </trkpt>
      <trkpt lat="43.71401" lon="3.47122">
        <ele>311.5</ele>
        <time>2015-10-25T09:49:40Z</time>
      </trkpt>
      <trkpt lat="43.71403" lon="3.4712">
        <ele>311.5</ele>
        <time>2015-10-25T09:49:41Z</time>
      </trkpt>
      <trkpt lat="43.71404" lon="3.47118">
        <ele>312</ele>
        <time>2015-10-25T09:49:42Z</time>
      </trkpt>
      <trkpt lat="43.71405" lon="3.47116">
        <ele>312</ele>
        <time>2015-10-25T09:49:43Z</time>
      </trkpt>
      <trkpt lat="43.71407" lon="3.47114">
        <ele>311.5</ele>
        <time>2015-10-25T09:49:44Z</time>
      </trkpt>
      <trkpt lat="43.71408" lon="3.47113">
        <ele>311.5</ele>
        <time>2015-10-25T09:49:45Z</time>
      </trkpt>
      <trkpt lat="43.7141" lon="3.4711">
        <ele>311</ele>
        <time>2015-10-25T09:49:46Z</time>
      </trkpt>
      <trkpt lat="43.71411" lon="3.47108">
        <ele>311</ele>
        <time>2015-10-25T09:49:47Z</time>
      </trkpt>
      <trkpt lat="43.71412" lon="3.47107">
        <ele>310</ele>
        <time>2015-10-25T09:49:48Z</time>
      </trkpt>
      <trkpt lat="43.71414" lon="3.47105">
        <ele>310</ele>
        <time>2015-10-25T09:49:49Z</time>
      </trkpt>
      <trkpt lat="43.71415" lon="3.47101">
        <ele>310</ele>
        <time>2015-10-25T09:49:51Z</time>
      </trkpt>
      <trkpt lat="43.71417" lon="3.47095">
        <ele>310</ele>
        <time>2015-10-25T09:49:54Z</time>
      </trkpt>
      <trkpt lat="43.71418" lon="3.4709">
        <ele>311</ele>
        <time>2015-10-25T09:49:56Z</time>
      </trkpt>
      <trkpt lat="43.71418" lon="3.47088">
        <ele>311.5</ele>
        <time>2015-10-25T09:49:57Z</time>
      </trkpt>
      <trkpt lat="43.71419" lon="3.47086">
        <ele>311.5</ele>
        <time>2015-10-25T09:49:58Z</time>
      </trkpt>
      <trkpt lat="43.71419" lon="3.47083">
        <ele>311</ele>
        <time>2015-10-25T09:49:59Z</time>
      </trkpt>
      <trkpt lat="43.71419" lon="3.47081">
        <ele>311</ele>
        <time>2015-10-25T09:50:00Z</time>
      </trkpt>
      <trkpt lat="43.7142" lon="3.47078">
        <ele>311</ele>
        <time>2015-10-25T09:50:01Z</time>
      </trkpt>
      <trkpt lat="43.7142" lon="3.47076">
        <ele>311</ele>
        <time>2015-10-25T09:50:02Z</time>
      </trkpt>
      <trkpt lat="43.71419" lon="3.4707">
        <ele>311.5</ele>
        <time>2015-10-25T09:50:04Z</time>
      </trkpt>
      <trkpt lat="43.71419" lon="3.47067">
        <ele>311.5</ele>
        <time>2015-10-25T09:50:05Z</time>
      </trkpt>
      <trkpt lat="43.71419" lon="3.47064">
        <ele>312.5</ele>
        <time>2015-10-25T09:50:06Z</time>
      </trkpt>
      <trkpt lat="43.71419" lon="3.47062">
        <ele>314</ele>
        <time>2015-10-25T09:50:07Z</time>
      </trkpt>
      <trkpt lat="43.71419" lon="3.47059">
        <ele>314.5</ele>
        <time>2015-10-25T09:50:08Z</time>
      </trkpt>
      <trkpt lat="43.71419" lon="3.47057">
        <ele>315</ele>
        <time>2015-10-25T09:50:09Z</time>
      </trkpt>
      <trkpt lat="43.71419" lon="3.47052">
        <ele>316</ele>
        <time>2015-10-25T09:50:11Z</time>
      </trkpt>
      <trkpt lat="43.71419" lon="3.47049">
        <ele>316</ele>
        <time>2015-10-25T09:50:12Z</time>
      </trkpt>
      <trkpt lat="43.7142" lon="3.47046">
        <ele>316</ele>
        <time>2015-10-25T09:50:13Z</time>
      </trkpt>
      <trkpt lat="43.7142" lon="3.47044">
        <ele>316.5</ele>
        <time>2015-10-25T09:50:14Z</time>
      </trkpt>
      <trkpt lat="43.71421" lon="3.47041">
        <ele>316</ele>
        <time>2015-10-25T09:50:15Z</time>
      </trkpt>
      <trkpt lat="43.71422" lon="3.47039">
        <ele>316</ele>
        <time>2015-10-25T09:50:16Z</time>
      </trkpt>
      <trkpt lat="43.71422" lon="3.47036">
        <ele>316</ele>
        <time>2015-10-25T09:50:17Z</time>
      </trkpt>
      <trkpt lat="43.71423" lon="3.47034">
        <ele>316</ele>
        <time>2015-10-25T09:50:18Z</time>
      </trkpt>
      <trkpt lat="43.71424" lon="3.47032">
        <ele>315.5</ele>
        <time>2015-10-25T09:50:19Z</time>
      </trkpt>
      <trkpt lat="43.71426" lon="3.4703">
        <ele>315.5</ele>
        <time>2015-10-25T09:50:20Z</time>
      </trkpt>
      <trkpt lat="43.71427" lon="3.47028">
        <ele>316</ele>
        <time>2015-10-25T09:50:21Z</time>
      </trkpt>
      <trkpt lat="43.71428" lon="3.47026">
        <ele>315.5</ele>
        <time>2015-10-25T09:50:21Z</time>
      </trkpt>
      <trkpt lat="43.7143" lon="3.47024">
        <ele>316</ele>
        <time>2015-10-25T09:50:23Z</time>
      </trkpt>
      <trkpt lat="43.71431" lon="3.47022">
        <ele>316</ele>
        <time>2015-10-25T09:50:23Z</time>
      </trkpt>
      <trkpt lat="43.71431" lon="3.47019">
        <ele>316</ele>
        <time>2015-10-25T09:50:24Z</time>
      </trkpt>
      <trkpt lat="43.71432" lon="3.47017">
        <ele>316</ele>
        <time>2015-10-25T09:50:25Z</time>
      </trkpt>
      <trkpt lat="43.71433" lon="3.47015">
        <ele>316</ele>
        <time>2015-10-25T09:50:27Z</time>
      </trkpt>
      <trkpt lat="43.71433" lon="3.47013">
        <ele>316</ele>
        <time>2015-10-25T09:50:28Z</time>
      </trkpt>
      <trkpt lat="43.71434" lon="3.47011">
        <ele>316.5</ele>
        <time>2015-10-25T09:50:28Z</time>
      </trkpt>
      <trkpt lat="43.71434" lon="3.47009">
        <ele>316.5</ele>
        <time>2015-10-25T09:50:29Z</time>
      </trkpt>
      <trkpt lat="43.71435" lon="3.47007">
        <ele>316.5</ele>
        <time>2015-10-25T09:50:31Z</time>
      </trkpt>
      <trkpt lat="43.71435" lon="3.47005">
        <ele>317</ele>
        <time>2015-10-25T09:50:31Z</time>
      </trkpt>
      <trkpt lat="43.71435" lon="3.47004">
        <ele>317</ele>
        <time>2015-10-25T09:50:32Z</time>
      </trkpt>
      <trkpt lat="43.71435" lon="3.47002">
        <ele>317</ele>
        <time>2015-10-25T09:50:33Z</time>
      </trkpt>
      <trkpt lat="43.71435" lon="3.47">
        <ele>316.5</ele>
        <time>2015-10-25T09:50:34Z</time>
      </trkpt>
      <trkpt lat="43.71435" lon="3.46998">
        <ele>316.5</ele>
        <time>2015-10-25T09:50:35Z</time>
      </trkpt>
      <trkpt lat="43.71435" lon="3.46996">
        <ele>316</ele>
        <time>2015-10-25T09:50:36Z</time>
      </trkpt>
      <trkpt lat="43.71436" lon="3.46993">
        <ele>316</ele>
        <time>2015-10-25T09:50:37Z</time>
      </trkpt>
      <trkpt lat="43.71436" lon="3.4699">
        <ele>315.5</ele>
        <time>2015-10-25T09:50:38Z</time>
      </trkpt>
      <trkpt lat="43.71437" lon="3.46987">
        <ele>315.5</ele>
        <time>2015-10-25T09:50:39Z</time>
      </trkpt>
      <trkpt lat="43.71437" lon="3.46986">
        <ele>316.5</ele>
        <time>2015-10-25T09:50:40Z</time>
      </trkpt>
      <trkpt lat="43.71438" lon="3.46981">
        <ele>317.5</ele>
        <time>2015-10-25T09:50:42Z</time>
      </trkpt>
      <trkpt lat="43.71439" lon="3.46979">
        <ele>318</ele>
        <time>2015-10-25T09:50:43Z</time>
      </trkpt>
      <trkpt lat="43.71439" lon="3.46977">
        <ele>318</ele>
        <time>2015-10-25T09:50:44Z</time>
      </trkpt>
      <trkpt lat="43.7144" lon="3.46975">
        <ele>318</ele>
        <time>2015-10-25T09:50:46Z</time>
      </trkpt>
      <trkpt lat="43.71441" lon="3.46973">
        <ele>318</ele>
        <time>2015-10-25T09:50:47Z</time>
      </trkpt>
      <trkpt lat="43.71442" lon="3.46971">
        <ele>317.5</ele>
        <time>2015-10-25T09:50:47Z</time>
      </trkpt>
      <trkpt lat="43.71442" lon="3.46969">
        <ele>317</ele>
        <time>2015-10-25T09:50:48Z</time>
      </trkpt>
      <trkpt lat="43.71442" lon="3.46967">
        <ele>317.5</ele>
        <time>2015-10-25T09:50:49Z</time>
      </trkpt>
      <trkpt lat="43.71442" lon="3.46965">
        <ele>318</ele>
        <time>2015-10-25T09:50:50Z</time>
      </trkpt>
      <trkpt lat="43.71443" lon="3.46962">
        <ele>317.5</ele>
        <time>2015-10-25T09:50:51Z</time>
      </trkpt>
      <trkpt lat="43.71443" lon="3.46961">
        <ele>318.5</ele>
        <time>2015-10-25T09:50:52Z</time>
      </trkpt>
      <trkpt lat="43.71442" lon="3.46959">
        <ele>319</ele>
        <time>2015-10-25T09:50:53Z</time>
      </trkpt>
      <trkpt lat="43.71442" lon="3.46958">
        <ele>319</ele>
        <time>2015-10-25T09:50:54Z</time>
      </trkpt>
      <trkpt lat="43.7144" lon="3.46957">
        <ele>319.5</ele>
        <time>2015-10-25T09:50:55Z</time>
      </trkpt>
      <trkpt lat="43.71439" lon="3.46958">
        <ele>320</ele>
        <time>2015-10-25T09:50:56Z</time>
      </trkpt>
      <trkpt lat="43.71438" lon="3.4696">
        <ele>320</ele>
        <time>2015-10-25T09:50:57Z</time>
      </trkpt>
      <trkpt lat="43.71437" lon="3.46963">
        <ele>320</ele>
        <time>2015-10-25T09:50:58Z</time>
      </trkpt>
      <trkpt lat="43.71437" lon="3.46965">
        <ele>320</ele>
        <time>2015-10-25T09:50:59Z</time>
      </trkpt>
      <trkpt lat="43.71436" lon="3.46968">
        <ele>320.5</ele>
        <time>2015-10-25T09:51:00Z</time>
      </trkpt>
      <trkpt lat="43.71435" lon="3.46971">
        <ele>320.5</ele>
        <time>2015-10-25T09:51:01Z</time>
      </trkpt>
      <trkpt lat="43.71435" lon="3.46973">
        <ele>320.5</ele>
        <time>2015-10-25T09:51:02Z</time>
      </trkpt>
      <trkpt lat="43.71434" lon="3.46975">
        <ele>320.5</ele>
        <time>2015-10-25T09:51:03Z</time>
      </trkpt>
      <trkpt lat="43.71434" lon="3.46978">
        <ele>321</ele>
        <time>2015-10-25T09:51:04Z</time>
      </trkpt>
      <trkpt lat="43.71432" lon="3.46981">
        <ele>321</ele>
        <time>2015-10-25T09:51:05Z</time>
      </trkpt>
      <trkpt lat="43.71432" lon="3.46983">
        <ele>321.5</ele>
        <time>2015-10-25T09:51:06Z</time>
      </trkpt>
      <trkpt lat="43.71433" lon="3.46985">
        <ele>322.5</ele>
        <time>2015-10-25T09:51:07Z</time>
      </trkpt>
      <trkpt lat="43.71433" lon="3.46988">
        <ele>324</ele>
        <time>2015-10-25T09:51:08Z</time>
      </trkpt>
      <trkpt lat="43.71432" lon="3.4699">
        <ele>324.5</ele>
        <time>2015-10-25T09:51:09Z</time>
      </trkpt>
      <trkpt lat="43.71431" lon="3.46992">
        <ele>325</ele>
        <time>2015-10-25T09:51:10Z</time>
      </trkpt>
      <trkpt lat="43.7143" lon="3.46993">
        <ele>325.5</ele>
        <time>2015-10-25T09:51:12Z</time>
      </trkpt>
      <trkpt lat="43.7143" lon="3.46995">
        <ele>326.5</ele>
        <time>2015-10-25T09:51:12Z</time>
      </trkpt>
      <trkpt lat="43.71429" lon="3.46996">
        <ele>326.5</ele>
        <time>2015-10-25T09:51:13Z</time>
      </trkpt>
      <trkpt lat="43.71428" lon="3.46998">
        <ele>327</ele>
        <time>2015-10-25T09:51:14Z</time>
      </trkpt>
      <trkpt lat="43.71426" lon="3.46999">
        <ele>327</ele>
        <time>2015-10-25T09:51:15Z</time>
      </trkpt>
      <trkpt lat="43.71424" lon="3.47">
        <ele>328</ele>
        <time>2015-10-25T09:51:16Z</time>
      </trkpt>
      <trkpt lat="43.71423" lon="3.47001">
        <ele>328.5</ele>
        <time>2015-10-25T09:51:17Z</time>
      </trkpt>
      <trkpt lat="43.71422" lon="3.47003">
        <ele>328.5</ele>
        <time>2015-10-25T09:51:18Z</time>
      </trkpt>
      <trkpt lat="43.7142" lon="3.47005">
        <ele>329.5</ele>
        <time>2015-10-25T09:51:19Z</time>
      </trkpt>
      <trkpt lat="43.71419" lon="3.47006">
        <ele>330</ele>
        <time>2015-10-25T09:51:20Z</time>
      </trkpt>
      <trkpt lat="43.71418" lon="3.47007">
        <ele>331</ele>
        <time>2015-10-25T09:51:21Z</time>
      </trkpt>
      <trkpt lat="43.71417" lon="3.47009">
        <ele>332</ele>
        <time>2015-10-25T09:51:22Z</time>
      </trkpt>
      <trkpt lat="43.71416" lon="3.47011">
        <ele>332.5</ele>
        <time>2015-10-25T09:51:23Z</time>
      </trkpt>
      <trkpt lat="43.71415" lon="3.47013">
        <ele>333.5</ele>
        <time>2015-10-25T09:51:24Z</time>
      </trkpt>
      <trkpt lat="43.71414" lon="3.47015">
        <ele>335</ele>
        <time>2015-10-25T09:51:25Z</time>
      </trkpt>
      <trkpt lat="43.71413" lon="3.47018">
        <ele>335.5</ele>
        <time>2015-10-25T09:51:26Z</time>
      </trkpt>
      <trkpt lat="43.71412" lon="3.4702">
        <ele>336</ele>
        <time>2015-10-25T09:51:27Z</time>
      </trkpt>
      <trkpt lat="43.71411" lon="3.47023">
        <ele>336.5</ele>
        <time>2015-10-25T09:51:28Z</time>
      </trkpt>
      <trkpt lat="43.7141" lon="3.47025">
        <ele>336.5</ele>
        <time>2015-10-25T09:51:29Z</time>
      </trkpt>
      <trkpt lat="43.71409" lon="3.47027">
        <ele>337</ele>
        <time>2015-10-25T09:51:30Z</time>
      </trkpt>
      <trkpt lat="43.71408" lon="3.47029">
        <ele>337.5</ele>
        <time>2015-10-25T09:51:31Z</time>
      </trkpt>
      <trkpt lat="43.71408" lon="3.47032">
        <ele>338</ele>
        <time>2015-10-25T09:51:32Z</time>
      </trkpt>
      <trkpt lat="43.71407" lon="3.47036">
        <ele>338</ele>
        <time>2015-10-25T09:51:33Z</time>
      </trkpt>
      <trkpt lat="43.71406" lon="3.47039">
        <ele>338</ele>
        <time>2015-10-25T09:51:34Z</time>
      </trkpt>
      <trkpt lat="43.71406" lon="3.47042">
        <ele>338</ele>
        <time>2015-10-25T09:51:35Z</time>
      </trkpt>
      <trkpt lat="43.71405" lon="3.47045">
        <ele>338</ele>
        <time>2015-10-25T09:51:36Z</time>
      </trkpt>
      <trkpt lat="43.71405" lon="3.47048">
        <ele>338.5</ele>
        <time>2015-10-25T09:51:37Z</time>
      </trkpt>
      <trkpt lat="43.71402" lon="3.4705">
        <ele>337.5</ele>
        <time>2015-10-25T09:51:38Z</time>
      </trkpt>
      <trkpt lat="43.714" lon="3.47053">
        <ele>338</ele>
        <time>2015-10-25T09:51:39Z</time>
      </trkpt>
      <trkpt lat="43.71399" lon="3.47056">
        <ele>338</ele>
        <time>2015-10-25T09:51:40Z</time>
      </trkpt>
      <trkpt lat="43.71398" lon="3.47059">
        <ele>338</ele>
        <time>2015-10-25T09:51:41Z</time>
      </trkpt>
      <trkpt lat="43.71398" lon="3.47062">
        <ele>338.5</ele>
        <time>2015-10-25T09:51:42Z</time>
      </trkpt>
      <trkpt lat="43.71396" lon="3.47065">
        <ele>338.5</ele>
        <time>2015-10-25T09:51:43Z</time>
      </trkpt>
      <trkpt lat="43.71395" lon="3.47068">
        <ele>338.5</ele>
        <time>2015-10-25T09:51:44Z</time>
      </trkpt>
      <trkpt lat="43.71397" lon="3.4707">
        <ele>339.5</ele>
        <time>2015-10-25T09:51:45Z</time>
      </trkpt>
      <trkpt lat="43.71395" lon="3.47073">
        <ele>339.5</ele>
        <time>2015-10-25T09:51:46Z</time>
      </trkpt>
      <trkpt lat="43.71394" lon="3.47075">
        <ele>340</ele>
        <time>2015-10-25T09:51:47Z</time>
      </trkpt>
      <trkpt lat="43.71392" lon="3.47078">
        <ele>340</ele>
        <time>2015-10-25T09:51:48Z</time>
      </trkpt>
      <trkpt lat="43.7139" lon="3.47081">
        <ele>340</ele>
        <time>2015-10-25T09:51:49Z</time>
      </trkpt>
      <trkpt lat="43.71388" lon="3.47084">
        <ele>339.5</ele>
        <time>2015-10-25T09:51:50Z</time>
      </trkpt>
      <trkpt lat="43.71386" lon="3.47088">
        <ele>340</ele>
        <time>2015-10-25T09:51:51Z</time>
      </trkpt>
      <trkpt lat="43.71385" lon="3.4709">
        <ele>340</ele>
        <time>2015-10-25T09:51:52Z</time>
      </trkpt>
      <trkpt lat="43.71383" lon="3.47093">
        <ele>340</ele>
        <time>2015-10-25T09:51:53Z</time>
      </trkpt>
      <trkpt lat="43.71381" lon="3.47096">
        <ele>340</ele>
        <time>2015-10-25T09:51:54Z</time>
      </trkpt>
      <trkpt lat="43.71379" lon="3.47099">
        <ele>340.5</ele>
        <time>2015-10-25T09:51:55Z</time>
      </trkpt>
      <trkpt lat="43.71377" lon="3.47102">
        <ele>340</ele>
        <time>2015-10-25T09:51:56Z</time>
      </trkpt>
      <trkpt lat="43.71375" lon="3.47104">
        <ele>340.5</ele>
        <time>2015-10-25T09:51:57Z</time>
      </trkpt>
      <trkpt lat="43.71373" lon="3.47107">
        <ele>340.5</ele>
        <time>2015-10-25T09:51:58Z</time>
      </trkpt>
      <trkpt lat="43.71372" lon="3.4711">
        <ele>341.5</ele>
        <time>2015-10-25T09:51:59Z</time>
      </trkpt>
      <trkpt lat="43.71371" lon="3.47112">
        <ele>341.5</ele>
        <time>2015-10-25T09:52:00Z</time>
      </trkpt>
      <trkpt lat="43.7137" lon="3.47114">
        <ele>342</ele>
        <time>2015-10-25T09:52:01Z</time>
      </trkpt>
      <trkpt lat="43.71369" lon="3.47117">
        <ele>342.5</ele>
        <time>2015-10-25T09:52:02Z</time>
      </trkpt>
      <trkpt lat="43.71368" lon="3.4712">
        <ele>343</ele>
        <time>2015-10-25T09:52:03Z</time>
      </trkpt>
      <trkpt lat="43.71366" lon="3.47122">
        <ele>343</ele>
        <time>2015-10-25T09:52:04Z</time>
      </trkpt>
      <trkpt lat="43.71364" lon="3.47126">
        <ele>343</ele>
        <time>2015-10-25T09:52:05Z</time>
      </trkpt>
      <trkpt lat="43.71362" lon="3.47128">
        <ele>343.5</ele>
        <time>2015-10-25T09:52:06Z</time>
      </trkpt>
      <trkpt lat="43.71361" lon="3.47131">
        <ele>344</ele>
        <time>2015-10-25T09:52:07Z</time>
      </trkpt>
      <trkpt lat="43.71355" lon="3.47136">
        <ele>344</ele>
        <time>2015-10-25T09:52:09Z</time>
      </trkpt>
      <trkpt lat="43.71354" lon="3.47139">
        <ele>344</ele>
        <time>2015-10-25T09:52:10Z</time>
      </trkpt>
      <trkpt lat="43.71352" lon="3.47141">
        <ele>344.5</ele>
        <time>2015-10-25T09:52:11Z</time>
      </trkpt>
      <trkpt lat="43.7135" lon="3.47144">
        <ele>345</ele>
        <time>2015-10-25T09:52:12Z</time>
      </trkpt>
      <trkpt lat="43.71349" lon="3.47147">
        <ele>345</ele>
        <time>2015-10-25T09:52:13Z</time>
      </trkpt>
      <trkpt lat="43.71347" lon="3.47149">
        <ele>344.5</ele>
        <time>2015-10-25T09:52:14Z</time>
      </trkpt>
      <trkpt lat="43.71345" lon="3.47151">
        <ele>344.5</ele>
        <time>2015-10-25T09:52:15Z</time>
      </trkpt>
      <trkpt lat="43.71343" lon="3.47154">
        <ele>344.5</ele>
        <time>2015-10-25T09:52:16Z</time>
      </trkpt>
      <trkpt lat="43.71341" lon="3.47156">
        <ele>344.5</ele>
        <time>2015-10-25T09:52:17Z</time>
      </trkpt>
      <trkpt lat="43.71339" lon="3.47158">
        <ele>344.5</ele>
        <time>2015-10-25T09:52:18Z</time>
      </trkpt>
      <trkpt lat="43.71337" lon="3.4716">
        <ele>344</ele>
        <time>2015-10-25T09:52:19Z</time>
      </trkpt>
      <trkpt lat="43.71335" lon="3.47162">
        <ele>344.5</ele>
        <time>2015-10-25T09:52:20Z</time>
      </trkpt>
      <trkpt lat="43.71333" lon="3.47165">
        <ele>345.5</ele>
        <time>2015-10-25T09:52:21Z</time>
      </trkpt>
      <trkpt lat="43.71331" lon="3.47167">
        <ele>344.5</ele>
        <time>2015-10-25T09:52:22Z</time>
      </trkpt>
      <trkpt lat="43.71328" lon="3.47169">
        <ele>344</ele>
        <time>2015-10-25T09:52:23Z</time>
      </trkpt>
      <trkpt lat="43.71326" lon="3.47171">
        <ele>344</ele>
        <time>2015-10-25T09:52:24Z</time>
      </trkpt>
      <trkpt lat="43.71324" lon="3.47173">
        <ele>344</ele>
        <time>2015-10-25T09:52:25Z</time>
      </trkpt>
      <trkpt lat="43.71322" lon="3.47175">
        <ele>343.5</ele>
        <time>2015-10-25T09:52:26Z</time>
      </trkpt>
      <trkpt lat="43.7132" lon="3.47177">
        <ele>343.5</ele>
        <time>2015-10-25T09:52:27Z</time>
      </trkpt>
      <trkpt lat="43.71317" lon="3.47179">
        <ele>344</ele>
        <time>2015-10-25T09:52:28Z</time>
      </trkpt>
      <trkpt lat="43.71315" lon="3.47181">
        <ele>344.5</ele>
        <time>2015-10-25T09:52:29Z</time>
      </trkpt>
      <trkpt lat="43.71313" lon="3.47183">
        <ele>345</ele>
        <time>2015-10-25T09:52:30Z</time>
      </trkpt>
      <trkpt lat="43.71311" lon="3.47185">
        <ele>345.5</ele>
        <time>2015-10-25T09:52:31Z</time>
      </trkpt>
      <trkpt lat="43.71308" lon="3.47187">
        <ele>345.5</ele>
        <time>2015-10-25T09:52:32Z</time>
      </trkpt>
      <trkpt lat="43.71305" lon="3.47188">
        <ele>345</ele>
        <time>2015-10-25T09:52:33Z</time>
      </trkpt>
      <trkpt lat="43.71303" lon="3.4719">
        <ele>345</ele>
        <time>2015-10-25T09:52:34Z</time>
      </trkpt>
      <trkpt lat="43.713" lon="3.47191">
        <ele>344.5</ele>
        <time>2015-10-25T09:52:35Z</time>
      </trkpt>
      <trkpt lat="43.71296" lon="3.47193">
        <ele>344</ele>
        <time>2015-10-25T09:52:36Z</time>
      </trkpt>
      <trkpt lat="43.71293" lon="3.47194">
        <ele>344</ele>
        <time>2015-10-25T09:52:37Z</time>
      </trkpt>
      <trkpt lat="43.7129" lon="3.47196">
        <ele>344</ele>
        <time>2015-10-25T09:52:38Z</time>
      </trkpt>
      <trkpt lat="43.71287" lon="3.47197">
        <ele>344</ele>
        <time>2015-10-25T09:52:39Z</time>
      </trkpt>
      <trkpt lat="43.71284" lon="3.47198">
        <ele>344</ele>
        <time>2015-10-25T09:52:40Z</time>
      </trkpt>
      <trkpt lat="43.71281" lon="3.47199">
        <ele>344.5</ele>
        <time>2015-10-25T09:52:41Z</time>
      </trkpt>
      <trkpt lat="43.71279" lon="3.47201">
        <ele>344.5</ele>
        <time>2015-10-25T09:52:42Z</time>
      </trkpt>
      <trkpt lat="43.71276" lon="3.47202">
        <ele>345</ele>
        <time>2015-10-25T09:52:43Z</time>
      </trkpt>
      <trkpt lat="43.7127" lon="3.47204">
        <ele>345.5</ele>
        <time>2015-10-25T09:52:45Z</time>
      </trkpt>
      <trkpt lat="43.71267" lon="3.47204">
        <ele>345.5</ele>
        <time>2015-10-25T09:52:46Z</time>
      </trkpt>
      <trkpt lat="43.71265" lon="3.47206">
        <ele>347</ele>
        <time>2015-10-25T09:52:47Z</time>
      </trkpt>
      <trkpt lat="43.71262" lon="3.47206">
        <ele>347.5</ele>
        <time>2015-10-25T09:52:48Z</time>
      </trkpt>
      <trkpt lat="43.71259" lon="3.47207">
        <ele>347.5</ele>
        <time>2015-10-25T09:52:49Z</time>
      </trkpt>
      <trkpt lat="43.71256" lon="3.47207">
        <ele>347.5</ele>
        <time>2015-10-25T09:52:50Z</time>
      </trkpt>
      <trkpt lat="43.71253" lon="3.47207">
        <ele>347</ele>
        <time>2015-10-25T09:52:51Z</time>
      </trkpt>
      <trkpt lat="43.7125" lon="3.47207">
        <ele>347</ele>
        <time>2015-10-25T09:52:52Z</time>
      </trkpt>
      <trkpt lat="43.71247" lon="3.47206">
        <ele>346</ele>
        <time>2015-10-25T09:52:53Z</time>
      </trkpt>
      <trkpt lat="43.71244" lon="3.47206">
        <ele>346</ele>
        <time>2015-10-25T09:52:54Z</time>
      </trkpt>
      <trkpt lat="43.71241" lon="3.47206">
        <ele>346.5</ele>
        <time>2015-10-25T09:52:55Z</time>
      </trkpt>
      <trkpt lat="43.71239" lon="3.47206">
        <ele>346.5</ele>
        <time>2015-10-25T09:52:56Z</time>
      </trkpt>
      <trkpt lat="43.71236" lon="3.47206">
        <ele>347</ele>
        <time>2015-10-25T09:52:57Z</time>
      </trkpt>
      <trkpt lat="43.71234" lon="3.47206">
        <ele>347.5</ele>
        <time>2015-10-25T09:52:58Z</time>
      </trkpt>
      <trkpt lat="43.71231" lon="3.47207">
        <ele>347.5</ele>
        <time>2015-10-25T09:52:59Z</time>
      </trkpt>
      <trkpt lat="43.71228" lon="3.47208">
        <ele>348.5</ele>
        <time>2015-10-25T09:53:00Z</time>
      </trkpt>
      <trkpt lat="43.71225" lon="3.47208">
        <ele>348.5</ele>
        <time>2015-10-25T09:53:01Z</time>
      </trkpt>
      <trkpt lat="43.71222" lon="3.47209">
        <ele>348.5</ele>
        <time>2015-10-25T09:53:02Z</time>
      </trkpt>
      <trkpt lat="43.7122" lon="3.4721">
        <ele>349</ele>
        <time>2015-10-25T09:53:03Z</time>
      </trkpt>
      <trkpt lat="43.71217" lon="3.4721">
        <ele>349</ele>
        <time>2015-10-25T09:53:04Z</time>
      </trkpt>
      <trkpt lat="43.71214" lon="3.47212">
        <ele>349.5</ele>
        <time>2015-10-25T09:53:05Z</time>
      </trkpt>
      <trkpt lat="43.71211" lon="3.47213">
        <ele>349.5</ele>
        <time>2015-10-25T09:53:06Z</time>
      </trkpt>
      <trkpt lat="43.71208" lon="3.47214">
        <ele>349.5</ele>
        <time>2015-10-25T09:53:07Z</time>
      </trkpt>
      <trkpt lat="43.71206" lon="3.47215">
        <ele>350</ele>
        <time>2015-10-25T09:53:08Z</time>
      </trkpt>
      <trkpt lat="43.71203" lon="3.47216">
        <ele>349.5</ele>
        <time>2015-10-25T09:53:09Z</time>
      </trkpt>
      <trkpt lat="43.712" lon="3.47217">
        <ele>349.5</ele>
        <time>2015-10-25T09:53:10Z</time>
      </trkpt>
      <trkpt lat="43.71197" lon="3.47218">
        <ele>349.5</ele>
        <time>2015-10-25T09:53:11Z</time>
      </trkpt>
      <trkpt lat="43.71194" lon="3.47219">
        <ele>349.5</ele>
        <time>2015-10-25T09:53:12Z</time>
      </trkpt>
      <trkpt lat="43.7119" lon="3.4722">
        <ele>349.5</ele>
        <time>2015-10-25T09:53:13Z</time>
      </trkpt>
      <trkpt lat="43.71187" lon="3.47221">
        <ele>350</ele>
        <time>2015-10-25T09:53:14Z</time>
      </trkpt>
      <trkpt lat="43.71184" lon="3.47222">
        <ele>350.5</ele>
        <time>2015-10-25T09:53:15Z</time>
      </trkpt>
      <trkpt lat="43.71181" lon="3.47221">
        <ele>350</ele>
        <time>2015-10-25T09:53:16Z</time>
      </trkpt>
      <trkpt lat="43.71177" lon="3.47222">
        <ele>350</ele>
        <time>2015-10-25T09:53:17Z</time>
      </trkpt>
      <trkpt lat="43.71174" lon="3.47222">
        <ele>350.5</ele>
        <time>2015-10-25T09:53:18Z</time>
      </trkpt>
      <trkpt lat="43.71171" lon="3.47223">
        <ele>351</ele>
        <time>2015-10-25T09:53:19Z</time>
      </trkpt>
      <trkpt lat="43.71167" lon="3.47223">
        <ele>351.5</ele>
        <time>2015-10-25T09:53:20Z</time>
      </trkpt>
      <trkpt lat="43.71165" lon="3.47222">
        <ele>351</ele>
        <time>2015-10-25T09:53:21Z</time>
      </trkpt>
      <trkpt lat="43.71162" lon="3.47221">
        <ele>350.5</ele>
        <time>2015-10-25T09:53:22Z</time>
      </trkpt>
      <trkpt lat="43.71159" lon="3.47222">
        <ele>350</ele>
        <time>2015-10-25T09:53:23Z</time>
      </trkpt>
      <trkpt lat="43.71154" lon="3.47223">
        <ele>350</ele>
        <time>2015-10-25T09:53:24Z</time>
      </trkpt>
      <trkpt lat="43.7115" lon="3.47223">
        <ele>349.5</ele>
        <time>2015-10-25T09:53:25Z</time>
      </trkpt>
      <trkpt lat="43.71147" lon="3.47224">
        <ele>350</ele>
        <time>2015-10-25T09:53:26Z</time>
      </trkpt>
      <trkpt lat="43.71143" lon="3.47225">
        <ele>350</ele>
        <time>2015-10-25T09:53:27Z</time>
      </trkpt>
      <trkpt lat="43.7114" lon="3.47226">
        <ele>350</ele>
        <time>2015-10-25T09:53:28Z</time>
      </trkpt>
      <trkpt lat="43.71136" lon="3.47227">
        <ele>350</ele>
        <time>2015-10-25T09:53:29Z</time>
      </trkpt>
      <trkpt lat="43.71133" lon="3.47228">
        <ele>350</ele>
        <time>2015-10-25T09:53:30Z</time>
      </trkpt>
      <trkpt lat="43.7113" lon="3.47229">
        <ele>350</ele>
        <time>2015-10-25T09:53:31Z</time>
      </trkpt>
      <trkpt lat="43.71127" lon="3.4723">
        <ele>350</ele>
        <time>2015-10-25T09:53:32Z</time>
      </trkpt>
      <trkpt lat="43.71123" lon="3.47231">
        <ele>350.5</ele>
        <time>2015-10-25T09:53:33Z</time>
      </trkpt>
      <trkpt lat="43.7112" lon="3.47233">
        <ele>350.5</ele>
        <time>2015-10-25T09:53:34Z</time>
      </trkpt>
      <trkpt lat="43.71116" lon="3.47234">
        <ele>350.5</ele>
        <time>2015-10-25T09:53:34Z</time>
      </trkpt>
      <trkpt lat="43.71113" lon="3.47235">
        <ele>350.5</ele>
        <time>2015-10-25T09:53:36Z</time>
      </trkpt>
      <trkpt lat="43.71109" lon="3.47238">
        <ele>351.5</ele>
        <time>2015-10-25T09:53:37Z</time>
      </trkpt>
      <trkpt lat="43.71105" lon="3.4724">
        <ele>351.5</ele>
        <time>2015-10-25T09:53:37Z</time>
      </trkpt>
      <trkpt lat="43.71102" lon="3.47241">
        <ele>351.5</ele>
        <time>2015-10-25T09:53:39Z</time>
      </trkpt>
      <trkpt lat="43.71098" lon="3.47243">
        <ele>352</ele>
        <time>2015-10-25T09:53:40Z</time>
      </trkpt>
      <trkpt lat="43.71095" lon="3.47244">
        <ele>352</ele>
        <time>2015-10-25T09:53:40Z</time>
      </trkpt>
      <trkpt lat="43.71092" lon="3.47245">
        <ele>352</ele>
        <time>2015-10-25T09:53:42Z</time>
      </trkpt>
      <trkpt lat="43.71088" lon="3.47246">
        <ele>352</ele>
        <time>2015-10-25T09:53:42Z</time>
      </trkpt>
      <trkpt lat="43.71085" lon="3.47248">
        <ele>352</ele>
        <time>2015-10-25T09:53:43Z</time>
      </trkpt>
      <trkpt lat="43.71082" lon="3.47249">
        <ele>352</ele>
        <time>2015-10-25T09:53:44Z</time>
      </trkpt>
      <trkpt lat="43.71078" lon="3.47251">
        <ele>353</ele>
        <time>2015-10-25T09:53:45Z</time>
      </trkpt>
      <trkpt lat="43.71075" lon="3.47253">
        <ele>353.5</ele>
        <time>2015-10-25T09:53:47Z</time>
      </trkpt>
      <trkpt lat="43.71068" lon="3.47256">
        <ele>353.5</ele>
        <time>2015-10-25T09:53:48Z</time>
      </trkpt>
      <trkpt lat="43.71064" lon="3.47257">
        <ele>353.5</ele>
        <time>2015-10-25T09:53:50Z</time>
      </trkpt>
      <trkpt lat="43.7106" lon="3.47259">
        <ele>354.5</ele>
        <time>2015-10-25T09:53:50Z</time>
      </trkpt>
      <trkpt lat="43.71057" lon="3.4726">
        <ele>354.5</ele>
        <time>2015-10-25T09:53:51Z</time>
      </trkpt>
      <trkpt lat="43.71054" lon="3.47261">
        <ele>355</ele>
        <time>2015-10-25T09:53:53Z</time>
      </trkpt>
      <trkpt lat="43.71047" lon="3.47264">
        <ele>355</ele>
        <time>2015-10-25T09:53:54Z</time>
      </trkpt>
      <trkpt lat="43.71044" lon="3.47265">
        <ele>355.5</ele>
        <time>2015-10-25T09:53:55Z</time>
      </trkpt>
      <trkpt lat="43.71041" lon="3.47266">
        <ele>355</ele>
        <time>2015-10-25T09:53:56Z</time>
      </trkpt>
      <trkpt lat="43.71038" lon="3.47267">
        <ele>355</ele>
        <time>2015-10-25T09:53:57Z</time>
      </trkpt>
      <trkpt lat="43.71035" lon="3.47268">
        <ele>355</ele>
        <time>2015-10-25T09:53:58Z</time>
      </trkpt>
      <trkpt lat="43.71032" lon="3.47269">
        <ele>355</ele>
        <time>2015-10-25T09:53:59Z</time>
      </trkpt>
      <trkpt lat="43.71029" lon="3.4727">
        <ele>355</ele>
        <time>2015-10-25T09:54:00Z</time>
      </trkpt>
      <trkpt lat="43.71026" lon="3.47271">
        <ele>355</ele>
        <time>2015-10-25T09:54:01Z</time>
      </trkpt>
      <trkpt lat="43.71024" lon="3.47272">
        <ele>355.5</ele>
        <time>2015-10-25T09:54:02Z</time>
      </trkpt>
      <trkpt lat="43.71021" lon="3.47273">
        <ele>356</ele>
        <time>2015-10-25T09:54:03Z</time>
      </trkpt>
      <trkpt lat="43.71019" lon="3.47274">
        <ele>356.5</ele>
        <time>2015-10-25T09:54:04Z</time>
      </trkpt>
      <trkpt lat="43.71016" lon="3.47274">
        <ele>356.5</ele>
        <time>2015-10-25T09:54:05Z</time>
      </trkpt>
      <trkpt lat="43.71014" lon="3.47275">
        <ele>356.5</ele>
        <time>2015-10-25T09:54:06Z</time>
      </trkpt>
      <trkpt lat="43.71011" lon="3.47276">
        <ele>356.5</ele>
        <time>2015-10-25T09:54:08Z</time>
      </trkpt>
      <trkpt lat="43.71009" lon="3.47276">
        <ele>356.5</ele>
        <time>2015-10-25T09:54:08Z</time>
      </trkpt>
      <trkpt lat="43.71006" lon="3.47277">
        <ele>356</ele>
        <time>2015-10-25T09:54:09Z</time>
      </trkpt>
      <trkpt lat="43.71002" lon="3.47278">
        <ele>355</ele>
        <time>2015-10-25T09:54:10Z</time>
      </trkpt>
      <trkpt lat="43.70999" lon="3.47279">
        <ele>354.5</ele>
        <time>2015-10-25T09:54:11Z</time>
      </trkpt>
      <trkpt lat="43.70996" lon="3.47279">
        <ele>353.5</ele>
        <time>2015-10-25T09:54:12Z</time>
      </trkpt>
      <trkpt lat="43.70993" lon="3.4728">
        <ele>352.5</ele>
        <time>2015-10-25T09:54:13Z</time>
      </trkpt>
      <trkpt lat="43.70991" lon="3.4728">
        <ele>352</ele>
        <time>2015-10-25T09:54:14Z</time>
      </trkpt>
      <trkpt lat="43.70988" lon="3.4728">
        <ele>351</ele>
        <time>2015-10-25T09:54:15Z</time>
      </trkpt>
      <trkpt lat="43.70986" lon="3.47281">
        <ele>351.5</ele>
        <time>2015-10-25T09:54:17Z</time>
      </trkpt>
      <trkpt lat="43.70981" lon="3.47283">
        <ele>352</ele>
        <time>2015-10-25T09:54:18Z</time>
      </trkpt>
      <trkpt lat="43.70979" lon="3.47283">
        <ele>352</ele>
        <time>2015-10-25T09:54:19Z</time>
      </trkpt>
      <trkpt lat="43.70976" lon="3.47284">
        <ele>352</ele>
        <time>2015-10-25T09:54:20Z</time>
      </trkpt>
      <trkpt lat="43.70971" lon="3.47282">
        <ele>352.5</ele>
        <time>2015-10-25T09:54:22Z</time>
      </trkpt>
      <trkpt lat="43.70968" lon="3.4728">
        <ele>352.5</ele>
        <time>2015-10-25T09:54:23Z</time>
      </trkpt>
      <trkpt lat="43.70966" lon="3.47277">
        <ele>351.5</ele>
        <time>2015-10-25T09:54:24Z</time>
      </trkpt>
      <trkpt lat="43.70964" lon="3.47274">
        <ele>351</ele>
        <time>2015-10-25T09:54:25Z</time>
      </trkpt>
      <trkpt lat="43.70962" lon="3.4727">
        <ele>350.5</ele>
        <time>2015-10-25T09:54:26Z</time>
      </trkpt>
      <trkpt lat="43.70961" lon="3.47265">
        <ele>349.5</ele>
        <time>2015-10-25T09:54:27Z</time>
      </trkpt>
      <trkpt lat="43.70961" lon="3.47259">
        <ele>349.5</ele>
        <time>2015-10-25T09:54:28Z</time>
      </trkpt>
      <trkpt lat="43.70962" lon="3.47254">
        <ele>349.5</ele>
        <time>2015-10-25T09:54:29Z</time>
      </trkpt>
      <trkpt lat="43.70963" lon="3.47248">
        <ele>348.5</ele>
        <time>2015-10-25T09:54:30Z</time>
      </trkpt>
      <trkpt lat="43.70965" lon="3.47242">
        <ele>348.5</ele>
        <time>2015-10-25T09:54:31Z</time>
      </trkpt>
      <trkpt lat="43.70967" lon="3.47236">
        <ele>348.5</ele>
        <time>2015-10-25T09:54:32Z</time>
      </trkpt>
      <trkpt lat="43.70968" lon="3.4723">
        <ele>348</ele>
        <time>2015-10-25T09:54:33Z</time>
      </trkpt>
      <trkpt lat="43.70969" lon="3.47225">
        <ele>347.5</ele>
        <time>2015-10-25T09:54:34Z</time>
      </trkpt>
      <trkpt lat="43.70969" lon="3.47219">
        <ele>348</ele>
        <time>2015-10-25T09:54:35Z</time>
      </trkpt>
      <trkpt lat="43.70968" lon="3.47214">
        <ele>348.5</ele>
        <time>2015-10-25T09:54:36Z</time>
      </trkpt>
      <trkpt lat="43.70965" lon="3.4721">
        <ele>347.5</ele>
        <time>2015-10-25T09:54:37Z</time>
      </trkpt>
      <trkpt lat="43.70962" lon="3.47209">
        <ele>347.5</ele>
        <time>2015-10-25T09:54:38Z</time>
      </trkpt>
      <trkpt lat="43.70959" lon="3.47211">
        <ele>346.5</ele>
        <time>2015-10-25T09:54:39Z</time>
      </trkpt>
      <trkpt lat="43.70955" lon="3.47212">
        <ele>346.5</ele>
        <time>2015-10-25T09:54:40Z</time>
      </trkpt>
      <trkpt lat="43.70951" lon="3.47214">
        <ele>347</ele>
        <time>2015-10-25T09:54:41Z</time>
      </trkpt>
      <trkpt lat="43.70948" lon="3.47215">
        <ele>347</ele>
        <time>2015-10-25T09:54:42Z</time>
      </trkpt>
      <trkpt lat="43.70943" lon="3.47217">
        <ele>347</ele>
        <time>2015-10-25T09:54:43Z</time>
      </trkpt>
      <trkpt lat="43.70938" lon="3.4722">
        <ele>347</ele>
        <time>2015-10-25T09:54:45Z</time>
      </trkpt>
      <trkpt lat="43.70926" lon="3.47224">
        <ele>347</ele>
        <time>2015-10-25T09:54:46Z</time>
      </trkpt>
      <trkpt lat="43.7092" lon="3.47225">
        <ele>347.5</ele>
        <time>2015-10-25T09:54:47Z</time>
      </trkpt>
      <trkpt lat="43.70913" lon="3.47226">
        <ele>348</ele>
        <time>2015-10-25T09:54:48Z</time>
      </trkpt>
      <trkpt lat="43.70907" lon="3.47227">
        <ele>348.5</ele>
        <time>2015-10-25T09:54:49Z</time>
      </trkpt>
      <trkpt lat="43.70901" lon="3.47227">
        <ele>348.5</ele>
        <time>2015-10-25T09:54:50Z</time>
      </trkpt>
      <trkpt lat="43.70894" lon="3.47227">
        <ele>348.5</ele>
        <time>2015-10-25T09:54:51Z</time>
      </trkpt>
      <trkpt lat="43.70888" lon="3.47226">
        <ele>348.5</ele>
        <time>2015-10-25T09:54:52Z</time>
      </trkpt>
      <trkpt lat="43.70882" lon="3.47225">
        <ele>348.5</ele>
        <time>2015-10-25T09:54:54Z</time>
      </trkpt>
      <trkpt lat="43.70869" lon="3.47224">
        <ele>349</ele>
        <time>2015-10-25T09:54:55Z</time>
      </trkpt>
      <trkpt lat="43.70862" lon="3.47223">
        <ele>349</ele>
        <time>2015-10-25T09:54:56Z</time>
      </trkpt>
      <trkpt lat="43.70856" lon="3.47223">
        <ele>349</ele>
        <time>2015-10-25T09:54:57Z</time>
      </trkpt>
      <trkpt lat="43.7085" lon="3.47223">
        <ele>349</ele>
        <time>2015-10-25T09:54:58Z</time>
      </trkpt>
      <trkpt lat="43.70844" lon="3.47222">
        <ele>348.5</ele>
        <time>2015-10-25T09:54:59Z</time>
      </trkpt>
      <trkpt lat="43.70838" lon="3.47222">
        <ele>348.5</ele>
        <time>2015-10-25T09:55:00Z</time>
      </trkpt>
      <trkpt lat="43.70832" lon="3.47223">
        <ele>348.5</ele>
        <time>2015-10-25T09:55:01Z</time>
      </trkpt>
      <trkpt lat="43.70826" lon="3.47222">
        <ele>348.5</ele>
        <time>2015-10-25T09:55:02Z</time>
      </trkpt>
      <trkpt lat="43.7082" lon="3.47222">
        <ele>348.5</ele>
        <time>2015-10-25T09:55:03Z</time>
      </trkpt>
      <trkpt lat="43.70814" lon="3.4722">
        <ele>348.5</ele>
        <time>2015-10-25T09:55:04Z</time>
      </trkpt>
      <trkpt lat="43.70808" lon="3.47218">
        <ele>348</ele>
        <time>2015-10-25T09:55:05Z</time>
      </trkpt>
      <trkpt lat="43.70802" lon="3.47215">
        <ele>347.5</ele>
        <time>2015-10-25T09:55:06Z</time>
      </trkpt>
      <trkpt lat="43.70796" lon="3.47212">
        <ele>348</ele>
        <time>2015-10-25T09:55:07Z</time>
      </trkpt>
      <trkpt lat="43.70791" lon="3.47208">
        <ele>347.5</ele>
        <time>2015-10-25T09:55:08Z</time>
      </trkpt>
      <trkpt lat="43.70785" lon="3.47205">
        <ele>347.5</ele>
        <time>2015-10-25T09:55:09Z</time>
      </trkpt>
      <trkpt lat="43.70779" lon="3.47202">
        <ele>347.5</ele>
        <time>2015-10-25T09:55:10Z</time>
      </trkpt>
      <trkpt lat="43.70768" lon="3.47197">
        <ele>348.5</ele>
        <time>2015-10-25T09:55:12Z</time>
      </trkpt>
      <trkpt lat="43.70763" lon="3.47193">
        <ele>348.5</ele>
        <time>2015-10-25T09:55:13Z</time>
      </trkpt>
      <trkpt lat="43.70758" lon="3.4719">
        <ele>348.5</ele>
        <time>2015-10-25T09:55:14Z</time>
      </trkpt>
      <trkpt lat="43.70754" lon="3.47187">
        <ele>348.5</ele>
        <time>2015-10-25T09:55:15Z</time>
      </trkpt>
      <trkpt lat="43.70748" lon="3.47184">
        <ele>348.5</ele>
        <time>2015-10-25T09:55:16Z</time>
      </trkpt>
      <trkpt lat="43.70743" lon="3.47182">
        <ele>349.5</ele>
        <time>2015-10-25T09:55:17Z</time>
      </trkpt>
      <trkpt lat="43.70739" lon="3.47179">
        <ele>349.5</ele>
        <time>2015-10-25T09:55:18Z</time>
      </trkpt>
      <trkpt lat="43.70734" lon="3.47176">
        <ele>349</ele>
        <time>2015-10-25T09:55:19Z</time>
      </trkpt>
      <trkpt lat="43.70729" lon="3.47174">
        <ele>349</ele>
        <time>2015-10-25T09:55:20Z</time>
      </trkpt>
      <trkpt lat="43.70724" lon="3.47171">
        <ele>349</ele>
        <time>2015-10-25T09:55:21Z</time>
      </trkpt>
      <trkpt lat="43.70719" lon="3.47168">
        <ele>348.5</ele>
        <time>2015-10-25T09:55:22Z</time>
      </trkpt>
      <trkpt lat="43.70715" lon="3.47165">
        <ele>348.5</ele>
        <time>2015-10-25T09:55:23Z</time>
      </trkpt>
      <trkpt lat="43.7071" lon="3.47163">
        <ele>348.5</ele>
        <time>2015-10-25T09:55:24Z</time>
      </trkpt>
      <trkpt lat="43.70705" lon="3.4716">
        <ele>349</ele>
        <time>2015-10-25T09:55:25Z</time>
      </trkpt>
      <trkpt lat="43.707" lon="3.47158">
        <ele>348.5</ele>
        <time>2015-10-25T09:55:26Z</time>
      </trkpt>
      <trkpt lat="43.70695" lon="3.47156">
        <ele>347.5</ele>
        <time>2015-10-25T09:55:27Z</time>
      </trkpt>
      <trkpt lat="43.7069" lon="3.47153">
        <ele>347</ele>
        <time>2015-10-25T09:55:28Z</time>
      </trkpt>
      <trkpt lat="43.70685" lon="3.47151">
        <ele>347</ele>
        <time>2015-10-25T09:55:29Z</time>
      </trkpt>
      <trkpt lat="43.7068" lon="3.4715">
        <ele>347</ele>
        <time>2015-10-25T09:55:30Z</time>
      </trkpt>
      <trkpt lat="43.70674" lon="3.47148">
        <ele>347</ele>
        <time>2015-10-25T09:55:31Z</time>
      </trkpt>
      <trkpt lat="43.70669" lon="3.47147">
        <ele>347</ele>
        <time>2015-10-25T09:55:32Z</time>
      </trkpt>
      <trkpt lat="43.70657" lon="3.47145">
        <ele>347</ele>
        <time>2015-10-25T09:55:34Z</time>
      </trkpt>
      <trkpt lat="43.70651" lon="3.47144">
        <ele>347.5</ele>
        <time>2015-10-25T09:55:35Z</time>
      </trkpt>
      <trkpt lat="43.70646" lon="3.47142">
        <ele>347</ele>
        <time>2015-10-25T09:55:36Z</time>
      </trkpt>
      <trkpt lat="43.70641" lon="3.47138">
        <ele>347</ele>
        <time>2015-10-25T09:55:37Z</time>
      </trkpt>
      <trkpt lat="43.70637" lon="3.47133">
        <ele>347.5</ele>
        <time>2015-10-25T09:55:38Z</time>
      </trkpt>
      <trkpt lat="43.70635" lon="3.47126">
        <ele>347</ele>
        <time>2015-10-25T09:55:39Z</time>
      </trkpt>
      <trkpt lat="43.70636" lon="3.47119">
        <ele>347</ele>
        <time>2015-10-25T09:55:40Z</time>
      </trkpt>
      <trkpt lat="43.70638" lon="3.47112">
        <ele>346.5</ele>
        <time>2015-10-25T09:55:41Z</time>
      </trkpt>
      <trkpt lat="43.70642" lon="3.47106">
        <ele>346.5</ele>
        <time>2015-10-25T09:55:42Z</time>
      </trkpt>
      <trkpt lat="43.70645" lon="3.471">
        <ele>346.5</ele>
        <time>2015-10-25T09:55:43Z</time>
      </trkpt>
      <trkpt lat="43.70648" lon="3.47093">
        <ele>346</ele>
        <time>2015-10-25T09:55:44Z</time>
      </trkpt>
      <trkpt lat="43.7065" lon="3.47086">
        <ele>346</ele>
        <time>2015-10-25T09:55:45Z</time>
      </trkpt>
      <trkpt lat="43.70652" lon="3.4708">
        <ele>345</ele>
        <time>2015-10-25T09:55:46Z</time>
      </trkpt>
      <trkpt lat="43.70653" lon="3.47071">
        <ele>344.5</ele>
        <time>2015-10-25T09:55:47Z</time>
      </trkpt>
      <trkpt lat="43.70653" lon="3.47064">
        <ele>344.5</ele>
        <time>2015-10-25T09:55:48Z</time>
      </trkpt>
      <trkpt lat="43.70653" lon="3.47056">
        <ele>344</ele>
        <time>2015-10-25T09:55:49Z</time>
      </trkpt>
      <trkpt lat="43.70653" lon="3.47049">
        <ele>344</ele>
        <time>2015-10-25T09:55:50Z</time>
      </trkpt>
      <trkpt lat="43.70652" lon="3.47042">
        <ele>343.5</ele>
        <time>2015-10-25T09:55:51Z</time>
      </trkpt>
      <trkpt lat="43.70652" lon="3.47034">
        <ele>343.5</ele>
        <time>2015-10-25T09:55:52Z</time>
      </trkpt>
      <trkpt lat="43.70651" lon="3.47027">
        <ele>343</ele>
        <time>2015-10-25T09:55:53Z</time>
      </trkpt>
      <trkpt lat="43.70651" lon="3.4702">
        <ele>343</ele>
        <time>2015-10-25T09:55:54Z</time>
      </trkpt>
      <trkpt lat="43.70651" lon="3.47012">
        <ele>342.5</ele>
        <time>2015-10-25T09:55:55Z</time>
      </trkpt>
      <trkpt lat="43.7065" lon="3.47005">
        <ele>342.5</ele>
        <time>2015-10-25T09:55:56Z</time>
      </trkpt>
      <trkpt lat="43.7065" lon="3.46998">
        <ele>342.5</ele>
        <time>2015-10-25T09:55:57Z</time>
      </trkpt>
      <trkpt lat="43.7065" lon="3.4699">
        <ele>342</ele>
        <time>2015-10-25T09:55:58Z</time>
      </trkpt>
      <trkpt lat="43.70652" lon="3.46982">
        <ele>342</ele>
        <time>2015-10-25T09:55:59Z</time>
      </trkpt>
      <trkpt lat="43.70653" lon="3.46974">
        <ele>341.5</ele>
        <time>2015-10-25T09:56:00Z</time>
      </trkpt>
      <trkpt lat="43.70655" lon="3.46967">
        <ele>341.5</ele>
        <time>2015-10-25T09:56:01Z</time>
      </trkpt>
      <trkpt lat="43.70656" lon="3.46959">
        <ele>342</ele>
        <time>2015-10-25T09:56:02Z</time>
      </trkpt>
      <trkpt lat="43.70659" lon="3.46952">
        <ele>342</ele>
        <time>2015-10-25T09:56:03Z</time>
      </trkpt>
      <trkpt lat="43.70661" lon="3.46945">
        <ele>342.5</ele>
        <time>2015-10-25T09:56:04Z</time>
      </trkpt>
      <trkpt lat="43.70664" lon="3.46938">
        <ele>342.5</ele>
        <time>2015-10-25T09:56:05Z</time>
      </trkpt>
      <trkpt lat="43.70666" lon="3.46932">
        <ele>342</ele>
        <time>2015-10-25T09:56:06Z</time>
      </trkpt>
      <trkpt lat="43.70669" lon="3.46925">
        <ele>342.5</ele>
        <time>2015-10-25T09:56:07Z</time>
      </trkpt>
      <trkpt lat="43.70672" lon="3.46918">
        <ele>342.5</ele>
        <time>2015-10-25T09:56:08Z</time>
      </trkpt>
      <trkpt lat="43.70675" lon="3.46912">
        <ele>341</ele>
        <time>2015-10-25T09:56:09Z</time>
      </trkpt>
      <trkpt lat="43.70678" lon="3.46906">
        <ele>341.5</ele>
        <time>2015-10-25T09:56:10Z</time>
      </trkpt>
      <trkpt lat="43.70681" lon="3.46899">
        <ele>342</ele>
        <time>2015-10-25T09:56:11Z</time>
      </trkpt>
      <trkpt lat="43.70683" lon="3.46892">
        <ele>342</ele>
        <time>2015-10-25T09:56:12Z</time>
      </trkpt>
      <trkpt lat="43.70686" lon="3.46886">
        <ele>342</ele>
        <time>2015-10-25T09:56:13Z</time>
      </trkpt>
      <trkpt lat="43.70689" lon="3.4688">
        <ele>344</ele>
        <time>2015-10-25T09:56:14Z</time>
      </trkpt>
      <trkpt lat="43.70692" lon="3.46874">
        <ele>344</ele>
        <time>2015-10-25T09:56:15Z</time>
      </trkpt>
      <trkpt lat="43.70695" lon="3.46868">
        <ele>344</ele>
        <time>2015-10-25T09:56:16Z</time>
      </trkpt>
      <trkpt lat="43.707" lon="3.46863">
        <ele>344</ele>
        <time>2015-10-25T09:56:17Z</time>
      </trkpt>
      <trkpt lat="43.70704" lon="3.46857">
        <ele>342.5</ele>
        <time>2015-10-25T09:56:18Z</time>
      </trkpt>
      <trkpt lat="43.70708" lon="3.46853">
        <ele>341.5</ele>
        <time>2015-10-25T09:56:19Z</time>
      </trkpt>
      <trkpt lat="43.70712" lon="3.46849">
        <ele>341.5</ele>
        <time>2015-10-25T09:56:20Z</time>
      </trkpt>
      <trkpt lat="43.70717" lon="3.46844">
        <ele>341.5</ele>
        <time>2015-10-25T09:56:21Z</time>
      </trkpt>
      <trkpt lat="43.70721" lon="3.4684">
        <ele>341</ele>
        <time>2015-10-25T09:56:22Z</time>
      </trkpt>
      <trkpt lat="43.70725" lon="3.46836">
        <ele>341</ele>
        <time>2015-10-25T09:56:23Z</time>
      </trkpt>
      <trkpt lat="43.70729" lon="3.46833">
        <ele>341</ele>
        <time>2015-10-25T09:56:24Z</time>
      </trkpt>
      <trkpt lat="43.70733" lon="3.4683">
        <ele>340.5</ele>
        <time>2015-10-25T09:56:25Z</time>
      </trkpt>
      <trkpt lat="43.70741" lon="3.46824">
        <ele>340</ele>
        <time>2015-10-25T09:56:27Z</time>
      </trkpt>
      <trkpt lat="43.70745" lon="3.46822">
        <ele>340.5</ele>
        <time>2015-10-25T09:56:28Z</time>
      </trkpt>
      <trkpt lat="43.70748" lon="3.4682">
        <ele>341</ele>
        <time>2015-10-25T09:56:29Z</time>
      </trkpt>
      <trkpt lat="43.70751" lon="3.46818">
        <ele>342</ele>
        <time>2015-10-25T09:56:30Z</time>
      </trkpt>
      <trkpt lat="43.70753" lon="3.4682">
        <ele>342.5</ele>
        <time>2015-10-25T09:56:31Z</time>
      </trkpt>
      <trkpt lat="43.70755" lon="3.46822">
        <ele>344</ele>
        <time>2015-10-25T09:56:32Z</time>
      </trkpt>
      <trkpt lat="43.70755" lon="3.46824">
        <ele>344</ele>
        <time>2015-10-25T09:56:33Z</time>
      </trkpt>
      <trkpt lat="43.7075" lon="3.46832">
        <ele>344</ele>
        <time>2015-10-25T09:56:35Z</time>
      </trkpt>
      <trkpt lat="43.70747" lon="3.46834">
        <ele>344</ele>
        <time>2015-10-25T09:56:36Z</time>
      </trkpt>
      <trkpt lat="43.70745" lon="3.46835">
        <ele>344</ele>
        <time>2015-10-25T09:56:37Z</time>
      </trkpt>
      <trkpt lat="43.70743" lon="3.46837">
        <ele>344</ele>
        <time>2015-10-25T09:56:38Z</time>
      </trkpt>
      <trkpt lat="43.70742" lon="3.4684">
        <ele>345.5</ele>
        <time>2015-10-25T09:56:39Z</time>
      </trkpt>
      <trkpt lat="43.70739" lon="3.46841">
        <ele>345.5</ele>
        <time>2015-10-25T09:56:40Z</time>
      </trkpt>
      <trkpt lat="43.70737" lon="3.46843">
        <ele>345.5</ele>
        <time>2015-10-25T09:56:41Z</time>
      </trkpt>
      <trkpt lat="43.70734" lon="3.46845">
        <ele>345.5</ele>
        <time>2015-10-25T09:56:42Z</time>
      </trkpt>
      <trkpt lat="43.70732" lon="3.46847">
        <ele>345.5</ele>
        <time>2015-10-25T09:56:43Z</time>
      </trkpt>
      <trkpt lat="43.7073" lon="3.46849">
        <ele>346</ele>
        <time>2015-10-25T09:56:44Z</time>
      </trkpt>
      <trkpt lat="43.70728" lon="3.46851">
        <ele>346</ele>
        <time>2015-10-25T09:56:45Z</time>
      </trkpt>
      <trkpt lat="43.70727" lon="3.46854">
        <ele>347.5</ele>
        <time>2015-10-25T09:56:46Z</time>
      </trkpt>
      <trkpt lat="43.70725" lon="3.46856">
        <ele>348</ele>
        <time>2015-10-25T09:56:47Z</time>
      </trkpt>
      <trkpt lat="43.70723" lon="3.46859">
        <ele>348.5</ele>
        <time>2015-10-25T09:56:48Z</time>
      </trkpt>
      <trkpt lat="43.70722" lon="3.46861">
        <ele>349</ele>
        <time>2015-10-25T09:56:49Z</time>
      </trkpt>
      <trkpt lat="43.70721" lon="3.46864">
        <ele>349</ele>
        <time>2015-10-25T09:56:50Z</time>
      </trkpt>
      <trkpt lat="43.7072" lon="3.46867">
        <ele>349.5</ele>
        <time>2015-10-25T09:56:51Z</time>
      </trkpt>
      <trkpt lat="43.70719" lon="3.46869">
        <ele>349.5</ele>
        <time>2015-10-25T09:56:52Z</time>
      </trkpt>
      <trkpt lat="43.70719" lon="3.46872">
        <ele>349.5</ele>
        <time>2015-10-25T09:56:53Z</time>
      </trkpt>
      <trkpt lat="43.70718" lon="3.46874">
        <ele>349.5</ele>
        <time>2015-10-25T09:56:54Z</time>
      </trkpt>
      <trkpt lat="43.70717" lon="3.46877">
        <ele>349</ele>
        <time>2015-10-25T09:56:55Z</time>
      </trkpt>
      <trkpt lat="43.70715" lon="3.46879">
        <ele>349</ele>
        <time>2015-10-25T09:56:56Z</time>
      </trkpt>
      <trkpt lat="43.70715" lon="3.46882">
        <ele>349</ele>
        <time>2015-10-25T09:56:57Z</time>
      </trkpt>
      <trkpt lat="43.70714" lon="3.46884">
        <ele>348.5</ele>
        <time>2015-10-25T09:56:58Z</time>
      </trkpt>
      <trkpt lat="43.70713" lon="3.46886">
        <ele>348.5</ele>
        <time>2015-10-25T09:56:59Z</time>
      </trkpt>
      <trkpt lat="43.70712" lon="3.46888">
        <ele>348.5</ele>
        <time>2015-10-25T09:57:00Z</time>
      </trkpt>
      <trkpt lat="43.70711" lon="3.46891">
        <ele>348</ele>
        <time>2015-10-25T09:57:01Z</time>
      </trkpt>
      <trkpt lat="43.7071" lon="3.46893">
        <ele>348</ele>
        <time>2015-10-25T09:57:02Z</time>
      </trkpt>
      <trkpt lat="43.70712" lon="3.46895">
        <ele>347.5</ele>
        <time>2015-10-25T09:57:03Z</time>
      </trkpt>
      <trkpt lat="43.70712" lon="3.46898">
        <ele>347</ele>
        <time>2015-10-25T09:57:04Z</time>
      </trkpt>
      <trkpt lat="43.70711" lon="3.469">
        <ele>347</ele>
        <time>2015-10-25T09:57:05Z</time>
      </trkpt>
      <trkpt lat="43.7071" lon="3.46903">
        <ele>347</ele>
        <time>2015-10-25T09:57:06Z</time>
      </trkpt>
      <trkpt lat="43.70709" lon="3.46905">
        <ele>346.5</ele>
        <time>2015-10-25T09:57:07Z</time>
      </trkpt>
      <trkpt lat="43.70708" lon="3.46907">
        <ele>346.5</ele>
        <time>2015-10-25T09:57:08Z</time>
      </trkpt>
      <trkpt lat="43.70707" lon="3.4691">
        <ele>346.5</ele>
        <time>2015-10-25T09:57:09Z</time>
      </trkpt>
      <trkpt lat="43.70707" lon="3.46912">
        <ele>347</ele>
        <time>2015-10-25T09:57:10Z</time>
      </trkpt>
      <trkpt lat="43.70706" lon="3.46915">
        <ele>347.5</ele>
        <time>2015-10-25T09:57:11Z</time>
      </trkpt>
      <trkpt lat="43.70705" lon="3.46917">
        <ele>347</ele>
        <time>2015-10-25T09:57:12Z</time>
      </trkpt>
      <trkpt lat="43.70704" lon="3.4692">
        <ele>346.5</ele>
        <time>2015-10-25T09:57:13Z</time>
      </trkpt>
      <trkpt lat="43.70703" lon="3.46922">
        <ele>346.5</ele>
        <time>2015-10-25T09:57:14Z</time>
      </trkpt>
      <trkpt lat="43.70702" lon="3.46925">
        <ele>346.5</ele>
        <time>2015-10-25T09:57:15Z</time>
      </trkpt>
      <trkpt lat="43.70701" lon="3.46927">
        <ele>346.5</ele>
        <time>2015-10-25T09:57:16Z</time>
      </trkpt>
      <trkpt lat="43.707" lon="3.4693">
        <ele>346</ele>
        <time>2015-10-25T09:57:17Z</time>
      </trkpt>
      <trkpt lat="43.70699" lon="3.46933">
        <ele>346</ele>
        <time>2015-10-25T09:57:18Z</time>
      </trkpt>
      <trkpt lat="43.70698" lon="3.46936">
        <ele>346</ele>
        <time>2015-10-25T09:57:19Z</time>
      </trkpt>
      <trkpt lat="43.70697" lon="3.46939">
        <ele>346</ele>
        <time>2015-10-25T09:57:20Z</time>
      </trkpt>
      <trkpt lat="43.70696" lon="3.46942">
        <ele>346</ele>
        <time>2015-10-25T09:57:21Z</time>
      </trkpt>
      <trkpt lat="43.70694" lon="3.46945">
        <ele>346</ele>
        <time>2015-10-25T09:57:22Z</time>
      </trkpt>
      <trkpt lat="43.70693" lon="3.46949">
        <ele>346.5</ele>
        <time>2015-10-25T09:57:23Z</time>
      </trkpt>
      <trkpt lat="43.70692" lon="3.46953">
        <ele>346.5</ele>
        <time>2015-10-25T09:57:24Z</time>
      </trkpt>
      <trkpt lat="43.70691" lon="3.46956">
        <ele>347</ele>
        <time>2015-10-25T09:57:25Z</time>
      </trkpt>
      <trkpt lat="43.70691" lon="3.46959">
        <ele>347</ele>
        <time>2015-10-25T09:57:26Z</time>
      </trkpt>
      <trkpt lat="43.7069" lon="3.46962">
        <ele>347.5</ele>
        <time>2015-10-25T09:57:26Z</time>
      </trkpt>
      <trkpt lat="43.70689" lon="3.46965">
        <ele>347.5</ele>
        <time>2015-10-25T09:57:27Z</time>
      </trkpt>
      <trkpt lat="43.70689" lon="3.46968">
        <ele>348</ele>
        <time>2015-10-25T09:57:28Z</time>
      </trkpt>
      <trkpt lat="43.70689" lon="3.46971">
        <ele>348.5</ele>
        <time>2015-10-25T09:57:29Z</time>
      </trkpt>
      <trkpt lat="43.70689" lon="3.46975">
        <ele>348.5</ele>
        <time>2015-10-25T09:57:30Z</time>
      </trkpt>
      <trkpt lat="43.70688" lon="3.46978">
        <ele>349</ele>
        <time>2015-10-25T09:57:31Z</time>
      </trkpt>
      <trkpt lat="43.70688" lon="3.46981">
        <ele>349.5</ele>
        <time>2015-10-25T09:57:32Z</time>
      </trkpt>
      <trkpt lat="43.70688" lon="3.46985">
        <ele>350</ele>
        <time>2015-10-25T09:57:33Z</time>
      </trkpt>
      <trkpt lat="43.70688" lon="3.46988">
        <ele>350</ele>
        <time>2015-10-25T09:57:34Z</time>
      </trkpt>
      <trkpt lat="43.70688" lon="3.46991">
        <ele>350.5</ele>
        <time>2015-10-25T09:57:35Z</time>
      </trkpt>
      <trkpt lat="43.70687" lon="3.46995">
        <ele>350.5</ele>
        <time>2015-10-25T09:57:37Z</time>
      </trkpt>
      <trkpt lat="43.70687" lon="3.46998">
        <ele>350.5</ele>
        <time>2015-10-25T09:57:38Z</time>
      </trkpt>
      <trkpt lat="43.70687" lon="3.47001">
        <ele>351</ele>
        <time>2015-10-25T09:57:38Z</time>
      </trkpt>
      <trkpt lat="43.70688" lon="3.47003">
        <ele>351.5</ele>
        <time>2015-10-25T09:57:39Z</time>
      </trkpt>
      <trkpt lat="43.70688" lon="3.47006">
        <ele>351.5</ele>
        <time>2015-10-25T09:57:40Z</time>
      </trkpt>
      <trkpt lat="43.70688" lon="3.47009">
        <ele>352</ele>
        <time>2015-10-25T09:57:41Z</time>
      </trkpt>
      <trkpt lat="43.70689" lon="3.47012">
        <ele>352.5</ele>
        <time>2015-10-25T09:57:42Z</time>
      </trkpt>
      <trkpt lat="43.70689" lon="3.47015">
        <ele>353</ele>
        <time>2015-10-25T09:57:43Z</time>
      </trkpt>
      <trkpt lat="43.7069" lon="3.47017">
        <ele>353</ele>
        <time>2015-10-25T09:57:44Z</time>
      </trkpt>
      <trkpt lat="43.7069" lon="3.4702">
        <ele>353.5</ele>
        <time>2015-10-25T09:57:45Z</time>
      </trkpt>
      <trkpt lat="43.70691" lon="3.47022">
        <ele>354</ele>
        <time>2015-10-25T09:57:46Z</time>
      </trkpt>
      <trkpt lat="43.70691" lon="3.47025">
        <ele>354.5</ele>
        <time>2015-10-25T09:57:47Z</time>
      </trkpt>
      <trkpt lat="43.70692" lon="3.47027">
        <ele>354.5</ele>
        <time>2015-10-25T09:57:48Z</time>
      </trkpt>
      <trkpt lat="43.70692" lon="3.4703">
        <ele>355</ele>
        <time>2015-10-25T09:57:49Z</time>
      </trkpt>
      <trkpt lat="43.70693" lon="3.47033">
        <ele>355</ele>
        <time>2015-10-25T09:57:50Z</time>
      </trkpt>
      <trkpt lat="43.70694" lon="3.47035">
        <ele>355.5</ele>
        <time>2015-10-25T09:57:51Z</time>
      </trkpt>
      <trkpt lat="43.70694" lon="3.47037">
        <ele>356</ele>
        <time>2015-10-25T09:57:52Z</time>
      </trkpt>
      <trkpt lat="43.70695" lon="3.4704">
        <ele>356</ele>
        <time>2015-10-25T09:57:53Z</time>
      </trkpt>
      <trkpt lat="43.70696" lon="3.47043">
        <ele>356</ele>
        <time>2015-10-25T09:57:54Z</time>
      </trkpt>
      <trkpt lat="43.70696" lon="3.47045">
        <ele>356.5</ele>
        <time>2015-10-25T09:57:55Z</time>
      </trkpt>
      <trkpt lat="43.70697" lon="3.47048">
        <ele>356.5</ele>
        <time>2015-10-25T09:57:57Z</time>
      </trkpt>
      <trkpt lat="43.70698" lon="3.47051">
        <ele>357</ele>
        <time>2015-10-25T09:57:58Z</time>
      </trkpt>
      <trkpt lat="43.70699" lon="3.47053">
        <ele>358</ele>
        <time>2015-10-25T09:57:59Z</time>
      </trkpt>
      <trkpt lat="43.707" lon="3.47054">
        <ele>358</ele>
        <time>2015-10-25T09:58:00Z</time>
      </trkpt>
      <trkpt lat="43.707" lon="3.47055">
        <ele>358.5</ele>
        <time>2015-10-25T09:58:01Z</time>
      </trkpt>
      <trkpt lat="43.70701" lon="3.47057">
        <ele>359</ele>
        <time>2015-10-25T09:58:02Z</time>
      </trkpt>
      <trkpt lat="43.70703" lon="3.47059">
        <ele>359.5</ele>
        <time>2015-10-25T09:58:03Z</time>
      </trkpt>
      <trkpt lat="43.70704" lon="3.4706">
        <ele>359.5</ele>
        <time>2015-10-25T09:58:04Z</time>
      </trkpt>
      <trkpt lat="43.70705" lon="3.47062">
        <ele>360</ele>
        <time>2015-10-25T09:58:05Z</time>
      </trkpt>
      <trkpt lat="43.70706" lon="3.47064">
        <ele>360</ele>
        <time>2015-10-25T09:58:06Z</time>
      </trkpt>
      <trkpt lat="43.70706" lon="3.47066">
        <ele>360.5</ele>
        <time>2015-10-25T09:58:07Z</time>
      </trkpt>
      <trkpt lat="43.70706" lon="3.47068">
        <ele>361</ele>
        <time>2015-10-25T09:58:08Z</time>
      </trkpt>
      <trkpt lat="43.70707" lon="3.4707">
        <ele>361</ele>
        <time>2015-10-25T09:58:09Z</time>
      </trkpt>
      <trkpt lat="43.70708" lon="3.47071">
        <ele>361</ele>
        <time>2015-10-25T09:58:10Z</time>
      </trkpt>
      <trkpt lat="43.7071" lon="3.47073">
        <ele>361.5</ele>
        <time>2015-10-25T09:58:11Z</time>
      </trkpt>
      <trkpt lat="43.70711" lon="3.47074">
        <ele>361.5</ele>
        <time>2015-10-25T09:58:12Z</time>
      </trkpt>
      <trkpt lat="43.70712" lon="3.47076">
        <ele>361.5</ele>
        <time>2015-10-25T09:58:13Z</time>
      </trkpt>
      <trkpt lat="43.70713" lon="3.47078">
        <ele>361.5</ele>
        <time>2015-10-25T09:58:14Z</time>
      </trkpt>
      <trkpt lat="43.70714" lon="3.4708">
        <ele>361.5</ele>
        <time>2015-10-25T09:58:15Z</time>
      </trkpt>
      <trkpt lat="43.70716" lon="3.47081">
        <ele>361.5</ele>
        <time>2015-10-25T09:58:16Z</time>
      </trkpt>
      <trkpt lat="43.70717" lon="3.47082">
        <ele>361.5</ele>
        <time>2015-10-25T09:58:17Z</time>
      </trkpt>
      <trkpt lat="43.70719" lon="3.47084">
        <ele>361.5</ele>
        <time>2015-10-25T09:58:18Z</time>
      </trkpt>
      <trkpt lat="43.7072" lon="3.47085">
        <ele>361.5</ele>
        <time>2015-10-25T09:58:19Z</time>
      </trkpt>
      <trkpt lat="43.70722" lon="3.47087">
        <ele>361.5</ele>
        <time>2015-10-25T09:58:20Z</time>
      </trkpt>
      <trkpt lat="43.70723" lon="3.47089">
        <ele>361</ele>
        <time>2015-10-25T09:58:21Z</time>
      </trkpt>
      <trkpt lat="43.70725" lon="3.47089">
        <ele>362.5</ele>
        <time>2015-10-25T09:58:22Z</time>
      </trkpt>
      <trkpt lat="43.70726" lon="3.4709">
        <ele>363.5</ele>
        <time>2015-10-25T09:58:23Z</time>
      </trkpt>
      <trkpt lat="43.70728" lon="3.47091">
        <ele>363.5</ele>
        <time>2015-10-25T09:58:24Z</time>
      </trkpt>
      <trkpt lat="43.7073" lon="3.47093">
        <ele>362</ele>
        <time>2015-10-25T09:58:25Z</time>
      </trkpt>
      <trkpt lat="43.70731" lon="3.47094">
        <ele>363</ele>
        <time>2015-10-25T09:58:26Z</time>
      </trkpt>
      <trkpt lat="43.70733" lon="3.47094">
        <ele>364.5</ele>
        <time>2015-10-25T09:58:27Z</time>
      </trkpt>
      <trkpt lat="43.70735" lon="3.47095">
        <ele>364.5</ele>
        <time>2015-10-25T09:58:28Z</time>
      </trkpt>
      <trkpt lat="43.70736" lon="3.47095">
        <ele>366.5</ele>
        <time>2015-10-25T09:58:29Z</time>
      </trkpt>
      <trkpt lat="43.70737" lon="3.47096">
        <ele>368</ele>
        <time>2015-10-25T09:58:30Z</time>
      </trkpt>
      <trkpt lat="43.70739" lon="3.47097">
        <ele>368</ele>
        <time>2015-10-25T09:58:31Z</time>
      </trkpt>
      <trkpt lat="43.7074" lon="3.47098">
        <ele>368</ele>
        <time>2015-10-25T09:58:32Z</time>
      </trkpt>
      <trkpt lat="43.70742" lon="3.47099">
        <ele>368</ele>
        <time>2015-10-25T09:58:33Z</time>
      </trkpt>
      <trkpt lat="43.70744" lon="3.47099">
        <ele>368.5</ele>
        <time>2015-10-25T09:58:34Z</time>
      </trkpt>
      <trkpt lat="43.70746" lon="3.471">
        <ele>368.5</ele>
        <time>2015-10-25T09:58:35Z</time>
      </trkpt>
      <trkpt lat="43.70747" lon="3.47099">
        <ele>369.5</ele>
        <time>2015-10-25T09:58:36Z</time>
      </trkpt>
      <trkpt lat="43.70749" lon="3.47099">
        <ele>369.5</ele>
        <time>2015-10-25T09:58:37Z</time>
      </trkpt>
      <trkpt lat="43.70751" lon="3.471">
        <ele>369</ele>
        <time>2015-10-25T09:58:38Z</time>
      </trkpt>
      <trkpt lat="43.70752" lon="3.47099">
        <ele>370</ele>
        <time>2015-10-25T09:58:39Z</time>
      </trkpt>
      <trkpt lat="43.70754" lon="3.471">
        <ele>369.5</ele>
        <time>2015-10-25T09:58:40Z</time>
      </trkpt>
      <trkpt lat="43.70756" lon="3.47101">
        <ele>368.5</ele>
        <time>2015-10-25T09:58:41Z</time>
      </trkpt>
      <trkpt lat="43.70758" lon="3.47102">
        <ele>368</ele>
        <time>2015-10-25T09:58:42Z</time>
      </trkpt>
      <trkpt lat="43.70759" lon="3.47102">
        <ele>367.5</ele>
        <time>2015-10-25T09:58:43Z</time>
      </trkpt>
      <trkpt lat="43.70761" lon="3.47102">
        <ele>368</ele>
        <time>2015-10-25T09:58:44Z</time>
      </trkpt>
      <trkpt lat="43.70763" lon="3.47102">
        <ele>371</ele>
        <time>2015-10-25T09:58:45Z</time>
      </trkpt>
      <trkpt lat="43.70764" lon="3.47102">
        <ele>372</ele>
        <time>2015-10-25T09:58:46Z</time>
      </trkpt>
      <trkpt lat="43.70767" lon="3.47102">
        <ele>374</ele>
        <time>2015-10-25T09:58:48Z</time>
      </trkpt>
      <trkpt lat="43.70768" lon="3.47101">
        <ele>377</ele>
        <time>2015-10-25T09:58:49Z</time>
      </trkpt>
      <trkpt lat="43.7077" lon="3.47101">
        <ele>378</ele>
        <time>2015-10-25T09:58:50Z</time>
      </trkpt>
      <trkpt lat="43.70772" lon="3.47102">
        <ele>377.5</ele>
        <time>2015-10-25T09:58:51Z</time>
      </trkpt>
      <trkpt lat="43.70774" lon="3.47102">
        <ele>377.5</ele>
        <time>2015-10-25T09:58:52Z</time>
      </trkpt>
      <trkpt lat="43.70776" lon="3.47103">
        <ele>377</ele>
        <time>2015-10-25T09:58:53Z</time>
      </trkpt>
      <trkpt lat="43.70777" lon="3.47102">
        <ele>378.5</ele>
        <time>2015-10-25T09:58:54Z</time>
      </trkpt>
      <trkpt lat="43.70779" lon="3.47103">
        <ele>377.5</ele>
        <time>2015-10-25T09:58:55Z</time>
      </trkpt>
      <trkpt lat="43.70782" lon="3.47104">
        <ele>375.5</ele>
        <time>2015-10-25T09:58:56Z</time>
      </trkpt>
      <trkpt lat="43.70784" lon="3.47105">
        <ele>375.5</ele>
        <time>2015-10-25T09:58:57Z</time>
      </trkpt>
      <trkpt lat="43.70785" lon="3.47103">
        <ele>375.5</ele>
        <time>2015-10-25T09:58:58Z</time>
      </trkpt>
      <trkpt lat="43.70787" lon="3.47103">
        <ele>376</ele>
        <time>2015-10-25T09:58:59Z</time>
      </trkpt>
      <trkpt lat="43.70789" lon="3.47104">
        <ele>375.5</ele>
        <time>2015-10-25T09:59:00Z</time>
      </trkpt>
      <trkpt lat="43.70791" lon="3.47104">
        <ele>375.5</ele>
        <time>2015-10-25T09:59:01Z</time>
      </trkpt>
      <trkpt lat="43.70793" lon="3.47104">
        <ele>375.5</ele>
        <time>2015-10-25T09:59:02Z</time>
      </trkpt>
      <trkpt lat="43.70795" lon="3.47104">
        <ele>375.5</ele>
        <time>2015-10-25T09:59:03Z</time>
      </trkpt>
      <trkpt lat="43.70797" lon="3.47104">
        <ele>375.5</ele>
        <time>2015-10-25T09:59:04Z</time>
      </trkpt>
      <trkpt lat="43.70799" lon="3.47106">
        <ele>373.5</ele>
        <time>2015-10-25T09:59:05Z</time>
      </trkpt>
      <trkpt lat="43.70801" lon="3.47106">
        <ele>374</ele>
        <time>2015-10-25T09:59:06Z</time>
      </trkpt>
      <trkpt lat="43.70803" lon="3.47106">
        <ele>374</ele>
        <time>2015-10-25T09:59:07Z</time>
      </trkpt>
      <trkpt lat="43.70805" lon="3.47105">
        <ele>374.5</ele>
        <time>2015-10-25T09:59:08Z</time>
      </trkpt>
      <trkpt lat="43.70807" lon="3.47105">
        <ele>375.5</ele>
        <time>2015-10-25T09:59:09Z</time>
      </trkpt>
      <trkpt lat="43.70808" lon="3.47106">
        <ele>375.5</ele>
        <time>2015-10-25T09:59:10Z</time>
      </trkpt>
      <trkpt lat="43.7081" lon="3.47106">
        <ele>375.5</ele>
        <time>2015-10-25T09:59:11Z</time>
      </trkpt>
      <trkpt lat="43.70812" lon="3.47106">
        <ele>376</ele>
        <time>2015-10-25T09:59:12Z</time>
      </trkpt>
      <trkpt lat="43.70814" lon="3.47106">
        <ele>376</ele>
        <time>2015-10-25T09:59:13Z</time>
      </trkpt>
      <trkpt lat="43.70816" lon="3.47106">
        <ele>376</ele>
        <time>2015-10-25T09:59:14Z</time>
      </trkpt>
      <trkpt lat="43.70818" lon="3.47106">
        <ele>376</ele>
        <time>2015-10-25T09:59:15Z</time>
      </trkpt>
      <trkpt lat="43.7082" lon="3.47107">
        <ele>375.5</ele>
        <time>2015-10-25T09:59:16Z</time>
      </trkpt>
      <trkpt lat="43.70822" lon="3.47107">
        <ele>376.5</ele>
        <time>2015-10-25T09:59:17Z</time>
      </trkpt>
      <trkpt lat="43.70824" lon="3.47108">
        <ele>376</ele>
        <time>2015-10-25T09:59:18Z</time>
      </trkpt>
      <trkpt lat="43.70826" lon="3.47108">
        <ele>376</ele>
        <time>2015-10-25T09:59:19Z</time>
      </trkpt>
      <trkpt lat="43.70828" lon="3.47108">
        <ele>376</ele>
        <time>2015-10-25T09:59:20Z</time>
      </trkpt>
      <trkpt lat="43.70829" lon="3.47107">
        <ele>375.5</ele>
        <time>2015-10-25T09:59:21Z</time>
      </trkpt>
      <trkpt lat="43.70831" lon="3.47107">
        <ele>375.5</ele>
        <time>2015-10-25T09:59:22Z</time>
      </trkpt>
      <trkpt lat="43.70832" lon="3.47107">
        <ele>377</ele>
        <time>2015-10-25T09:59:23Z</time>
      </trkpt>
      <trkpt lat="43.70834" lon="3.47107">
        <ele>376</ele>
        <time>2015-10-25T09:59:24Z</time>
      </trkpt>
      <trkpt lat="43.70836" lon="3.47107">
        <ele>377.5</ele>
        <time>2015-10-25T09:59:25Z</time>
      </trkpt>
      <trkpt lat="43.70838" lon="3.47107">
        <ele>377.5</ele>
        <time>2015-10-25T09:59:26Z</time>
      </trkpt>
      <trkpt lat="43.7084" lon="3.47107">
        <ele>377</ele>
        <time>2015-10-25T09:59:27Z</time>
      </trkpt>
      <trkpt lat="43.70842" lon="3.47107">
        <ele>376.5</ele>
        <time>2015-10-25T09:59:28Z</time>
      </trkpt>
      <trkpt lat="43.70844" lon="3.47107">
        <ele>377</ele>
        <time>2015-10-25T09:59:29Z</time>
      </trkpt>
      <trkpt lat="43.70846" lon="3.47108">
        <ele>376</ele>
        <time>2015-10-25T09:59:30Z</time>
      </trkpt>
      <trkpt lat="43.70848" lon="3.47108">
        <ele>376</ele>
        <time>2015-10-25T09:59:31Z</time>
      </trkpt>
      <trkpt lat="43.7085" lon="3.47107">
        <ele>376.5</ele>
        <time>2015-10-25T09:59:32Z</time>
      </trkpt>
      <trkpt lat="43.70852" lon="3.47107">
        <ele>376</ele>
        <time>2015-10-25T09:59:33Z</time>
      </trkpt>
      <trkpt lat="43.70854" lon="3.47108">
        <ele>374.5</ele>
        <time>2015-10-25T09:59:34Z</time>
      </trkpt>
      <trkpt lat="43.70856" lon="3.47108">
        <ele>374</ele>
        <time>2015-10-25T09:59:35Z</time>
      </trkpt>
      <trkpt lat="43.70858" lon="3.47107">
        <ele>375.5</ele>
        <time>2015-10-25T09:59:36Z</time>
      </trkpt>
      <trkpt lat="43.7086" lon="3.47107">
        <ele>376</ele>
        <time>2015-10-25T09:59:37Z</time>
      </trkpt>
      <trkpt lat="43.70862" lon="3.47107">
        <ele>376.5</ele>
        <time>2015-10-25T09:59:38Z</time>
      </trkpt>
      <trkpt lat="43.70864" lon="3.47106">
        <ele>376.5</ele>
        <time>2015-10-25T09:59:39Z</time>
      </trkpt>
      <trkpt lat="43.70866" lon="3.47105">
        <ele>378</ele>
        <time>2015-10-25T09:59:40Z</time>
      </trkpt>
      <trkpt lat="43.70868" lon="3.47104">
        <ele>378.5</ele>
        <time>2015-10-25T09:59:41Z</time>
      </trkpt>
      <trkpt lat="43.7087" lon="3.47104">
        <ele>378.5</ele>
        <time>2015-10-25T09:59:42Z</time>
      </trkpt>
      <trkpt lat="43.70873" lon="3.47104">
        <ele>377.5</ele>
        <time>2015-10-25T09:59:43Z</time>
      </trkpt>
      <trkpt lat="43.70875" lon="3.47104">
        <ele>378</ele>
        <time>2015-10-25T09:59:44Z</time>
      </trkpt>
      <trkpt lat="43.70878" lon="3.47104">
        <ele>378.5</ele>
        <time>2015-10-25T09:59:45Z</time>
      </trkpt>
      <trkpt lat="43.70879" lon="3.47103">
        <ele>379.5</ele>
        <time>2015-10-25T09:59:46Z</time>
      </trkpt>
      <trkpt lat="43.70881" lon="3.47102">
        <ele>380.5</ele>
        <time>2015-10-25T09:59:47Z</time>
      </trkpt>
      <trkpt lat="43.70884" lon="3.47102">
        <ele>380</ele>
        <time>2015-10-25T09:59:48Z</time>
      </trkpt>
      <trkpt lat="43.70888" lon="3.47101">
        <ele>380</ele>
        <time>2015-10-25T09:59:50Z</time>
      </trkpt>
      <trkpt lat="43.7089" lon="3.47101">
        <ele>380.5</ele>
        <time>2015-10-25T09:59:51Z</time>
      </trkpt>
      <trkpt lat="43.70892" lon="3.47101">
        <ele>380</ele>
        <time>2015-10-25T09:59:52Z</time>
      </trkpt>
      <trkpt lat="43.70894" lon="3.471">
        <ele>380.5</ele>
        <time>2015-10-25T09:59:53Z</time>
      </trkpt>
      <trkpt lat="43.70896" lon="3.471">
        <ele>381</ele>
        <time>2015-10-25T09:59:54Z</time>
      </trkpt>
      <trkpt lat="43.70898" lon="3.471">
        <ele>381.5</ele>
        <time>2015-10-25T09:59:55Z</time>
      </trkpt>
      <trkpt lat="43.709" lon="3.471">
        <ele>380.5</ele>
        <time>2015-10-25T09:59:56Z</time>
      </trkpt>
      <trkpt lat="43.70902" lon="3.47099">
        <ele>380.5</ele>
        <time>2015-10-25T09:59:57Z</time>
      </trkpt>
      <trkpt lat="43.70906" lon="3.47098">
        <ele>380</ele>
        <time>2015-10-25T09:59:59Z</time>
      </trkpt>
      <trkpt lat="43.70908" lon="3.47097">
        <ele>380</ele>
        <time>2015-10-25T10:00:00Z</time>
      </trkpt>
      <trkpt lat="43.70911" lon="3.47096">
        <ele>379.5</ele>
        <time>2015-10-25T10:00:01Z</time>
      </trkpt>
      <trkpt lat="43.70912" lon="3.47096">
        <ele>379.5</ele>
        <time>2015-10-25T10:00:02Z</time>
      </trkpt>
      <trkpt lat="43.70914" lon="3.47094">
        <ele>380.5</ele>
        <time>2015-10-25T10:00:03Z</time>
      </trkpt>
      <trkpt lat="43.70916" lon="3.47092">
        <ele>381.5</ele>
        <time>2015-10-25T10:00:04Z</time>
      </trkpt>
      <trkpt lat="43.70917" lon="3.47091">
        <ele>381.5</ele>
        <time>2015-10-25T10:00:05Z</time>
      </trkpt>
      <trkpt lat="43.7092" lon="3.47091">
        <ele>380.5</ele>
        <time>2015-10-25T10:00:06Z</time>
      </trkpt>
      <trkpt lat="43.70921" lon="3.4709">
        <ele>381</ele>
        <time>2015-10-25T10:00:07Z</time>
      </trkpt>
      <trkpt lat="43.70923" lon="3.47089">
        <ele>381</ele>
        <time>2015-10-25T10:00:08Z</time>
      </trkpt>
      <trkpt lat="43.70925" lon="3.47088">
        <ele>381</ele>
        <time>2015-10-25T10:00:09Z</time>
      </trkpt>
      <trkpt lat="43.70927" lon="3.47087">
        <ele>381.5</ele>
        <time>2015-10-25T10:00:10Z</time>
      </trkpt>
      <trkpt lat="43.70929" lon="3.47086">
        <ele>382</ele>
        <time>2015-10-25T10:00:11Z</time>
      </trkpt>
      <trkpt lat="43.7093" lon="3.47084">
        <ele>382</ele>
        <time>2015-10-25T10:00:12Z</time>
      </trkpt>
      <trkpt lat="43.70932" lon="3.47082">
        <ele>383</ele>
        <time>2015-10-25T10:00:13Z</time>
      </trkpt>
      <trkpt lat="43.70934" lon="3.47081">
        <ele>383.5</ele>
        <time>2015-10-25T10:00:14Z</time>
      </trkpt>
      <trkpt lat="43.70935" lon="3.4708">
        <ele>384.5</ele>
        <time>2015-10-25T10:00:15Z</time>
      </trkpt>
      <trkpt lat="43.70937" lon="3.47078">
        <ele>385.5</ele>
        <time>2015-10-25T10:00:16Z</time>
      </trkpt>
      <trkpt lat="43.70939" lon="3.47076">
        <ele>386.5</ele>
        <time>2015-10-25T10:00:17Z</time>
      </trkpt>
      <trkpt lat="43.70941" lon="3.47073">
        <ele>388</ele>
        <time>2015-10-25T10:00:19Z</time>
      </trkpt>
      <trkpt lat="43.70943" lon="3.47071">
        <ele>388.5</ele>
        <time>2015-10-25T10:00:20Z</time>
      </trkpt>
      <trkpt lat="43.70945" lon="3.4707">
        <ele>388.5</ele>
        <time>2015-10-25T10:00:21Z</time>
      </trkpt>
      <trkpt lat="43.70946" lon="3.47069">
        <ele>388.5</ele>
        <time>2015-10-25T10:00:22Z</time>
      </trkpt>
      <trkpt lat="43.70948" lon="3.47067">
        <ele>388.5</ele>
        <time>2015-10-25T10:00:23Z</time>
      </trkpt>
      <trkpt lat="43.7095" lon="3.47066">
        <ele>388.5</ele>
        <time>2015-10-25T10:00:24Z</time>
      </trkpt>
      <trkpt lat="43.70951" lon="3.47064">
        <ele>389</ele>
        <time>2015-10-25T10:00:25Z</time>
      </trkpt>
      <trkpt lat="43.70953" lon="3.47063">
        <ele>389</ele>
        <time>2015-10-25T10:00:26Z</time>
      </trkpt>
      <trkpt lat="43.70955" lon="3.47061">
        <ele>389</ele>
        <time>2015-10-25T10:00:27Z</time>
      </trkpt>
      <trkpt lat="43.70956" lon="3.4706">
        <ele>389</ele>
        <time>2015-10-25T10:00:28Z</time>
      </trkpt>
      <trkpt lat="43.70958" lon="3.47058">
        <ele>389</ele>
        <time>2015-10-25T10:00:29Z</time>
      </trkpt>
      <trkpt lat="43.7096" lon="3.47056">
        <ele>388.5</ele>
        <time>2015-10-25T10:00:30Z</time>
      </trkpt>
      <trkpt lat="43.70962" lon="3.47055">
        <ele>388.5</ele>
        <time>2015-10-25T10:00:31Z</time>
      </trkpt>
      <trkpt lat="43.70963" lon="3.47053">
        <ele>389</ele>
        <time>2015-10-25T10:00:32Z</time>
      </trkpt>
      <trkpt lat="43.70965" lon="3.47052">
        <ele>389</ele>
        <time>2015-10-25T10:00:33Z</time>
      </trkpt>
      <trkpt lat="43.70967" lon="3.4705">
        <ele>389</ele>
        <time>2015-10-25T10:00:34Z</time>
      </trkpt>
      <trkpt lat="43.70969" lon="3.47049">
        <ele>388.5</ele>
        <time>2015-10-25T10:00:35Z</time>
      </trkpt>
      <trkpt lat="43.7097" lon="3.47047">
        <ele>389</ele>
        <time>2015-10-25T10:00:36Z</time>
      </trkpt>
      <trkpt lat="43.70972" lon="3.47045">
        <ele>389</ele>
        <time>2015-10-25T10:00:37Z</time>
      </trkpt>
      <trkpt lat="43.70973" lon="3.47043">
        <ele>389.5</ele>
        <time>2015-10-25T10:00:38Z</time>
      </trkpt>
      <trkpt lat="43.70975" lon="3.47041">
        <ele>390</ele>
        <time>2015-10-25T10:00:39Z</time>
      </trkpt>
      <trkpt lat="43.70975" lon="3.4704">
        <ele>391.5</ele>
        <time>2015-10-25T10:00:40Z</time>
      </trkpt>
      <trkpt lat="43.70979" lon="3.47037">
        <ele>390.5</ele>
        <time>2015-10-25T10:00:42Z</time>
      </trkpt>
      <trkpt lat="43.70981" lon="3.47035">
        <ele>391</ele>
        <time>2015-10-25T10:00:43Z</time>
      </trkpt>
      <trkpt lat="43.70982" lon="3.47034">
        <ele>392</ele>
        <time>2015-10-25T10:00:44Z</time>
      </trkpt>
      <trkpt lat="43.70984" lon="3.47032">
        <ele>391.5</ele>
        <time>2015-10-25T10:00:45Z</time>
      </trkpt>
      <trkpt lat="43.70985" lon="3.47031">
        <ele>391</ele>
        <time>2015-10-25T10:00:46Z</time>
      </trkpt>
      <trkpt lat="43.70987" lon="3.4703">
        <ele>389</ele>
        <time>2015-10-25T10:00:47Z</time>
      </trkpt>
      <trkpt lat="43.70989" lon="3.47029">
        <ele>389</ele>
        <time>2015-10-25T10:00:48Z</time>
      </trkpt>
      <trkpt lat="43.7099" lon="3.47028">
        <ele>388.5</ele>
        <time>2015-10-25T10:00:49Z</time>
      </trkpt>
      <trkpt lat="43.70992" lon="3.47026">
        <ele>388</ele>
        <time>2015-10-25T10:00:50Z</time>
      </trkpt>
      <trkpt lat="43.70994" lon="3.47025">
        <ele>388</ele>
        <time>2015-10-25T10:00:51Z</time>
      </trkpt>
      <trkpt lat="43.70995" lon="3.47023">
        <ele>387.5</ele>
        <time>2015-10-25T10:00:52Z</time>
      </trkpt>
      <trkpt lat="43.70996" lon="3.47022">
        <ele>388</ele>
        <time>2015-10-25T10:00:53Z</time>
      </trkpt>
      <trkpt lat="43.70997" lon="3.4702">
        <ele>388</ele>
        <time>2015-10-25T10:00:54Z</time>
      </trkpt>
      <trkpt lat="43.70998" lon="3.47018">
        <ele>388</ele>
        <time>2015-10-25T10:00:55Z</time>
      </trkpt>
      <trkpt lat="43.71" lon="3.47017">
        <ele>387.5</ele>
        <time>2015-10-25T10:00:56Z</time>
      </trkpt>
      <trkpt lat="43.71001" lon="3.47015">
        <ele>386.5</ele>
        <time>2015-10-25T10:00:56Z</time>
      </trkpt>
      <trkpt lat="43.71003" lon="3.47013">
        <ele>386</ele>
        <time>2015-10-25T10:00:57Z</time>
      </trkpt>
      <trkpt lat="43.71005" lon="3.47011">
        <ele>387</ele>
        <time>2015-10-25T10:00:58Z</time>
      </trkpt>
      <trkpt lat="43.71006" lon="3.4701">
        <ele>387</ele>
        <time>2015-10-25T10:00:59Z</time>
      </trkpt>
      <trkpt lat="43.71007" lon="3.47007">
        <ele>388.5</ele>
        <time>2015-10-25T10:01:01Z</time>
      </trkpt>
      <trkpt lat="43.71009" lon="3.47006">
        <ele>388.5</ele>
        <time>2015-10-25T10:01:01Z</time>
      </trkpt>
      <trkpt lat="43.7101" lon="3.47004">
        <ele>389.5</ele>
        <time>2015-10-25T10:01:03Z</time>
      </trkpt>
      <trkpt lat="43.71012" lon="3.47002">
        <ele>389.5</ele>
        <time>2015-10-25T10:01:03Z</time>
      </trkpt>
      <trkpt lat="43.71013" lon="3.47">
        <ele>389</ele>
        <time>2015-10-25T10:01:05Z</time>
      </trkpt>
      <trkpt lat="43.71015" lon="3.46998">
        <ele>389.5</ele>
        <time>2015-10-25T10:01:06Z</time>
      </trkpt>
      <trkpt lat="43.71016" lon="3.46996">
        <ele>389</ele>
        <time>2015-10-25T10:01:06Z</time>
      </trkpt>
      <trkpt lat="43.71018" lon="3.46994">
        <ele>390</ele>
        <time>2015-10-25T10:01:08Z</time>
      </trkpt>
      <trkpt lat="43.71019" lon="3.46992">
        <ele>390</ele>
        <time>2015-10-25T10:01:08Z</time>
      </trkpt>
      <trkpt lat="43.71021" lon="3.4699">
        <ele>390</ele>
        <time>2015-10-25T10:01:09Z</time>
      </trkpt>
      <trkpt lat="43.71024" lon="3.46989">
        <ele>390</ele>
        <time>2015-10-25T10:01:10Z</time>
      </trkpt>
      <trkpt lat="43.71025" lon="3.46987">
        <ele>391.5</ele>
        <time>2015-10-25T10:01:11Z</time>
      </trkpt>
      <trkpt lat="43.71027" lon="3.46986">
        <ele>390.5</ele>
        <time>2015-10-25T10:01:12Z</time>
      </trkpt>
      <trkpt lat="43.71029" lon="3.46984">
        <ele>390.5</ele>
        <time>2015-10-25T10:01:13Z</time>
      </trkpt>
      <trkpt lat="43.71031" lon="3.46982">
        <ele>390.5</ele>
        <time>2015-10-25T10:01:14Z</time>
      </trkpt>
      <trkpt lat="43.71033" lon="3.4698">
        <ele>390.5</ele>
        <time>2015-10-25T10:01:16Z</time>
      </trkpt>
      <trkpt lat="43.71035" lon="3.46979">
        <ele>390.5</ele>
        <time>2015-10-25T10:01:16Z</time>
      </trkpt>
      <trkpt lat="43.71037" lon="3.46978">
        <ele>390.5</ele>
        <time>2015-10-25T10:01:17Z</time>
      </trkpt>
      <trkpt lat="43.71039" lon="3.46976">
        <ele>390</ele>
        <time>2015-10-25T10:01:18Z</time>
      </trkpt>
      <trkpt lat="43.7104" lon="3.46974">
        <ele>390.5</ele>
        <time>2015-10-25T10:01:19Z</time>
      </trkpt>
      <trkpt lat="43.71042" lon="3.46972">
        <ele>390.5</ele>
        <time>2015-10-25T10:01:20Z</time>
      </trkpt>
      <trkpt lat="43.71044" lon="3.46971">
        <ele>391</ele>
        <time>2015-10-25T10:01:22Z</time>
      </trkpt>
      <trkpt lat="43.71048" lon="3.46969">
        <ele>392</ele>
        <time>2015-10-25T10:01:23Z</time>
      </trkpt>
      <trkpt lat="43.7105" lon="3.46968">
        <ele>391.5</ele>
        <time>2015-10-25T10:01:24Z</time>
      </trkpt>
      <trkpt lat="43.71052" lon="3.46967">
        <ele>391.5</ele>
        <time>2015-10-25T10:01:25Z</time>
      </trkpt>
      <trkpt lat="43.71053" lon="3.46965">
        <ele>392.5</ele>
        <time>2015-10-25T10:01:26Z</time>
      </trkpt>
      <trkpt lat="43.71055" lon="3.46964">
        <ele>393</ele>
        <time>2015-10-25T10:01:27Z</time>
      </trkpt>
      <trkpt lat="43.71057" lon="3.46963">
        <ele>394</ele>
        <time>2015-10-25T10:01:28Z</time>
      </trkpt>
      <trkpt lat="43.71059" lon="3.46962">
        <ele>394.5</ele>
        <time>2015-10-25T10:01:29Z</time>
      </trkpt>
      <trkpt lat="43.71061" lon="3.46961">
        <ele>395</ele>
        <time>2015-10-25T10:01:30Z</time>
      </trkpt>
      <trkpt lat="43.71063" lon="3.4696">
        <ele>394.5</ele>
        <time>2015-10-25T10:01:32Z</time>
      </trkpt>
      <trkpt lat="43.71066" lon="3.4696">
        <ele>393.5</ele>
        <time>2015-10-25T10:01:33Z</time>
      </trkpt>
      <trkpt lat="43.71068" lon="3.46959">
        <ele>394</ele>
        <time>2015-10-25T10:01:33Z</time>
      </trkpt>
      <trkpt lat="43.7107" lon="3.46959">
        <ele>394</ele>
        <time>2015-10-25T10:01:34Z</time>
      </trkpt>
      <trkpt lat="43.71072" lon="3.46958">
        <ele>393.5</ele>
        <time>2015-10-25T10:01:35Z</time>
      </trkpt>
      <trkpt lat="43.71074" lon="3.46957">
        <ele>393.5</ele>
        <time>2015-10-25T10:01:36Z</time>
      </trkpt>
      <trkpt lat="43.71076" lon="3.46957">
        <ele>394</ele>
        <time>2015-10-25T10:01:37Z</time>
      </trkpt>
      <trkpt lat="43.71078" lon="3.46956">
        <ele>394.5</ele>
        <time>2015-10-25T10:01:38Z</time>
      </trkpt>
      <trkpt lat="43.7108" lon="3.46955">
        <ele>395</ele>
        <time>2015-10-25T10:01:39Z</time>
      </trkpt>
      <trkpt lat="43.71082" lon="3.46955">
        <ele>395.5</ele>
        <time>2015-10-25T10:01:40Z</time>
      </trkpt>
      <trkpt lat="43.71084" lon="3.46954">
        <ele>395.5</ele>
        <time>2015-10-25T10:01:41Z</time>
      </trkpt>
      <trkpt lat="43.71086" lon="3.46953">
        <ele>396</ele>
        <time>2015-10-25T10:01:42Z</time>
      </trkpt>
      <trkpt lat="43.71088" lon="3.46952">
        <ele>396</ele>
        <time>2015-10-25T10:01:43Z</time>
      </trkpt>
      <trkpt lat="43.7109" lon="3.46952">
        <ele>396</ele>
        <time>2015-10-25T10:01:44Z</time>
      </trkpt>
      <trkpt lat="43.71092" lon="3.46951">
        <ele>396</ele>
        <time>2015-10-25T10:01:45Z</time>
      </trkpt>
      <trkpt lat="43.71094" lon="3.4695">
        <ele>396</ele>
        <time>2015-10-25T10:01:47Z</time>
      </trkpt>
      <trkpt lat="43.71096" lon="3.4695">
        <ele>395.5</ele>
        <time>2015-10-25T10:01:47Z</time>
      </trkpt>
      <trkpt lat="43.71099" lon="3.4695">
        <ele>394.5</ele>
        <time>2015-10-25T10:01:48Z</time>
      </trkpt>
      <trkpt lat="43.71101" lon="3.4695">
        <ele>394</ele>
        <time>2015-10-25T10:01:49Z</time>
      </trkpt>
      <trkpt lat="43.71103" lon="3.4695">
        <ele>394.5</ele>
        <time>2015-10-25T10:01:51Z</time>
      </trkpt>
      <trkpt lat="43.71105" lon="3.46949">
        <ele>394.5</ele>
        <time>2015-10-25T10:01:51Z</time>
      </trkpt>
      <trkpt lat="43.71107" lon="3.46949">
        <ele>394.5</ele>
        <time>2015-10-25T10:01:53Z</time>
      </trkpt>
      <trkpt lat="43.71112" lon="3.46948">
        <ele>394</ele>
        <time>2015-10-25T10:01:54Z</time>
      </trkpt>
      <trkpt lat="43.71114" lon="3.46948">
        <ele>394</ele>
        <time>2015-10-25T10:01:56Z</time>
      </trkpt>
      <trkpt lat="43.71116" lon="3.46947">
        <ele>395.5</ele>
        <time>2015-10-25T10:01:56Z</time>
      </trkpt>
      <trkpt lat="43.71118" lon="3.46946">
        <ele>395.5</ele>
        <time>2015-10-25T10:01:57Z</time>
      </trkpt>
      <trkpt lat="43.7112" lon="3.46945">
        <ele>397</ele>
        <time>2015-10-25T10:01:58Z</time>
      </trkpt>
      <trkpt lat="43.71122" lon="3.46946">
        <ele>396</ele>
        <time>2015-10-25T10:01:59Z</time>
      </trkpt>
      <trkpt lat="43.71124" lon="3.46945">
        <ele>396.5</ele>
        <time>2015-10-25T10:02:00Z</time>
      </trkpt>
      <trkpt lat="43.71126" lon="3.46944">
        <ele>397</ele>
        <time>2015-10-25T10:02:01Z</time>
      </trkpt>
      <trkpt lat="43.71128" lon="3.46943">
        <ele>398</ele>
        <time>2015-10-25T10:02:02Z</time>
      </trkpt>
      <trkpt lat="43.7113" lon="3.46943">
        <ele>398</ele>
        <time>2015-10-25T10:02:03Z</time>
      </trkpt>
      <trkpt lat="43.71132" lon="3.46942">
        <ele>398</ele>
        <time>2015-10-25T10:02:04Z</time>
      </trkpt>
      <trkpt lat="43.71134" lon="3.46942">
        <ele>398</ele>
        <time>2015-10-25T10:02:05Z</time>
      </trkpt>
      <trkpt lat="43.71136" lon="3.46941">
        <ele>398.5</ele>
        <time>2015-10-25T10:02:06Z</time>
      </trkpt>
      <trkpt lat="43.71138" lon="3.4694">
        <ele>400</ele>
        <time>2015-10-25T10:02:07Z</time>
      </trkpt>
      <trkpt lat="43.7114" lon="3.46939">
        <ele>401</ele>
        <time>2015-10-25T10:02:08Z</time>
      </trkpt>
      <trkpt lat="43.71142" lon="3.46939">
        <ele>400.5</ele>
        <time>2015-10-25T10:02:09Z</time>
      </trkpt>
      <trkpt lat="43.71144" lon="3.46938">
        <ele>401</ele>
        <time>2015-10-25T10:02:10Z</time>
      </trkpt>
      <trkpt lat="43.71146" lon="3.46938">
        <ele>401</ele>
        <time>2015-10-25T10:02:11Z</time>
      </trkpt>
      <trkpt lat="43.71148" lon="3.46937">
        <ele>401.5</ele>
        <time>2015-10-25T10:02:12Z</time>
      </trkpt>
      <trkpt lat="43.7115" lon="3.46937">
        <ele>401.5</ele>
        <time>2015-10-25T10:02:13Z</time>
      </trkpt>
      <trkpt lat="43.71152" lon="3.46936">
        <ele>402</ele>
        <time>2015-10-25T10:02:14Z</time>
      </trkpt>
      <trkpt lat="43.71155" lon="3.46936">
        <ele>401.5</ele>
        <time>2015-10-25T10:02:15Z</time>
      </trkpt>
      <trkpt lat="43.71156" lon="3.46936">
        <ele>401</ele>
        <time>2015-10-25T10:02:16Z</time>
      </trkpt>
      <trkpt lat="43.71158" lon="3.46935">
        <ele>401.5</ele>
        <time>2015-10-25T10:02:17Z</time>
      </trkpt>
      <trkpt lat="43.7116" lon="3.46935">
        <ele>402.5</ele>
        <time>2015-10-25T10:02:18Z</time>
      </trkpt>
      <trkpt lat="43.71162" lon="3.46934">
        <ele>402.5</ele>
        <time>2015-10-25T10:02:19Z</time>
      </trkpt>
      <trkpt lat="43.71164" lon="3.46934">
        <ele>402.5</ele>
        <time>2015-10-25T10:02:20Z</time>
      </trkpt>
      <trkpt lat="43.71166" lon="3.46933">
        <ele>403</ele>
        <time>2015-10-25T10:02:21Z</time>
      </trkpt>
      <trkpt lat="43.71168" lon="3.46932">
        <ele>404</ele>
        <time>2015-10-25T10:02:22Z</time>
      </trkpt>
      <trkpt lat="43.7117" lon="3.46931">
        <ele>405.5</ele>
        <time>2015-10-25T10:02:23Z</time>
      </trkpt>
      <trkpt lat="43.71172" lon="3.4693">
        <ele>405.5</ele>
        <time>2015-10-25T10:02:24Z</time>
      </trkpt>
      <trkpt lat="43.71173" lon="3.46929">
        <ele>405.5</ele>
        <time>2015-10-25T10:02:25Z</time>
      </trkpt>
      <trkpt lat="43.71175" lon="3.46929">
        <ele>406</ele>
        <time>2015-10-25T10:02:26Z</time>
      </trkpt>
      <trkpt lat="43.71177" lon="3.46929">
        <ele>407</ele>
        <time>2015-10-25T10:02:27Z</time>
      </trkpt>
      <trkpt lat="43.71179" lon="3.46929">
        <ele>407.5</ele>
        <time>2015-10-25T10:02:28Z</time>
      </trkpt>
      <trkpt lat="43.71181" lon="3.46928">
        <ele>407.5</ele>
        <time>2015-10-25T10:02:29Z</time>
      </trkpt>
      <trkpt lat="43.71183" lon="3.46928">
        <ele>407.5</ele>
        <time>2015-10-25T10:02:30Z</time>
      </trkpt>
      <trkpt lat="43.71185" lon="3.46927">
        <ele>409</ele>
        <time>2015-10-25T10:02:31Z</time>
      </trkpt>
      <trkpt lat="43.71187" lon="3.46927">
        <ele>412</ele>
        <time>2015-10-25T10:02:32Z</time>
      </trkpt>
      <trkpt lat="43.71189" lon="3.46927">
        <ele>412</ele>
        <time>2015-10-25T10:02:33Z</time>
      </trkpt>
      <trkpt lat="43.71191" lon="3.46927">
        <ele>412.5</ele>
        <time>2015-10-25T10:02:34Z</time>
      </trkpt>
      <trkpt lat="43.71193" lon="3.46927">
        <ele>412.5</ele>
        <time>2015-10-25T10:02:35Z</time>
      </trkpt>
      <trkpt lat="43.71195" lon="3.46926">
        <ele>414</ele>
        <time>2015-10-25T10:02:36Z</time>
      </trkpt>
      <trkpt lat="43.71197" lon="3.46926">
        <ele>415.5</ele>
        <time>2015-10-25T10:02:37Z</time>
      </trkpt>
      <trkpt lat="43.71199" lon="3.46926">
        <ele>415.5</ele>
        <time>2015-10-25T10:02:38Z</time>
      </trkpt>
      <trkpt lat="43.71201" lon="3.46926">
        <ele>415.5</ele>
        <time>2015-10-25T10:02:39Z</time>
      </trkpt>
      <trkpt lat="43.71204" lon="3.46926">
        <ele>415.5</ele>
        <time>2015-10-25T10:02:40Z</time>
      </trkpt>
      <trkpt lat="43.71206" lon="3.46925">
        <ele>415.5</ele>
        <time>2015-10-25T10:02:41Z</time>
      </trkpt>
      <trkpt lat="43.71208" lon="3.46926">
        <ele>415</ele>
        <time>2015-10-25T10:02:42Z</time>
      </trkpt>
      <trkpt lat="43.7121" lon="3.46928">
        <ele>415</ele>
        <time>2015-10-25T10:02:43Z</time>
      </trkpt>
      <trkpt lat="43.71212" lon="3.46929">
        <ele>415.5</ele>
        <time>2015-10-25T10:02:44Z</time>
      </trkpt>
      <trkpt lat="43.71213" lon="3.46929">
        <ele>416</ele>
        <time>2015-10-25T10:02:45Z</time>
      </trkpt>
      <trkpt lat="43.71215" lon="3.46931">
        <ele>416</ele>
        <time>2015-10-25T10:02:46Z</time>
      </trkpt>
      <trkpt lat="43.71217" lon="3.46933">
        <ele>417</ele>
        <time>2015-10-25T10:02:48Z</time>
      </trkpt>
      <trkpt lat="43.71219" lon="3.46935">
        <ele>416.5</ele>
        <time>2015-10-25T10:02:49Z</time>
      </trkpt>
      <trkpt lat="43.7122" lon="3.46938">
        <ele>416.5</ele>
        <time>2015-10-25T10:02:50Z</time>
      </trkpt>
      <trkpt lat="43.71221" lon="3.46941">
        <ele>416.5</ele>
        <time>2015-10-25T10:02:51Z</time>
      </trkpt>
      <trkpt lat="43.71223" lon="3.46947">
        <ele>417.5</ele>
        <time>2015-10-25T10:02:53Z</time>
      </trkpt>
      <trkpt lat="43.71224" lon="3.46951">
        <ele>417</ele>
        <time>2015-10-25T10:02:54Z</time>
      </trkpt>
      <trkpt lat="43.71225" lon="3.46954">
        <ele>416</ele>
        <time>2015-10-25T10:02:55Z</time>
      </trkpt>
      <trkpt lat="43.71226" lon="3.46957">
        <ele>416.5</ele>
        <time>2015-10-25T10:02:56Z</time>
      </trkpt>
      <trkpt lat="43.71227" lon="3.46961">
        <ele>415.5</ele>
        <time>2015-10-25T10:02:57Z</time>
      </trkpt>
      <trkpt lat="43.71228" lon="3.46964">
        <ele>414.5</ele>
        <time>2015-10-25T10:02:58Z</time>
      </trkpt>
      <trkpt lat="43.71229" lon="3.46967">
        <ele>414</ele>
        <time>2015-10-25T10:02:59Z</time>
      </trkpt>
      <trkpt lat="43.7123" lon="3.4697">
        <ele>413.5</ele>
        <time>2015-10-25T10:03:00Z</time>
      </trkpt>
      <trkpt lat="43.71231" lon="3.46973">
        <ele>415</ele>
        <time>2015-10-25T10:03:01Z</time>
      </trkpt>
      <trkpt lat="43.71233" lon="3.46975">
        <ele>415</ele>
        <time>2015-10-25T10:03:02Z</time>
      </trkpt>
      <trkpt lat="43.71236" lon="3.46979">
        <ele>414</ele>
        <time>2015-10-25T10:03:03Z</time>
      </trkpt>
      <trkpt lat="43.71238" lon="3.46981">
        <ele>415</ele>
        <time>2015-10-25T10:03:04Z</time>
      </trkpt>
      <trkpt lat="43.7124" lon="3.46982">
        <ele>415</ele>
        <time>2015-10-25T10:03:05Z</time>
      </trkpt>
      <trkpt lat="43.71242" lon="3.46983">
        <ele>415.5</ele>
        <time>2015-10-25T10:03:06Z</time>
      </trkpt>
      <trkpt lat="43.71245" lon="3.46984">
        <ele>415</ele>
        <time>2015-10-25T10:03:07Z</time>
      </trkpt>
      <trkpt lat="43.71248" lon="3.46982">
        <ele>414.5</ele>
        <time>2015-10-25T10:03:08Z</time>
      </trkpt>
      <trkpt lat="43.71251" lon="3.4698">
        <ele>414.5</ele>
        <time>2015-10-25T10:03:09Z</time>
      </trkpt>
      <trkpt lat="43.71252" lon="3.46976">
        <ele>415</ele>
        <time>2015-10-25T10:03:10Z</time>
      </trkpt>
      <trkpt lat="43.71253" lon="3.46973">
        <ele>415.5</ele>
        <time>2015-10-25T10:03:11Z</time>
      </trkpt>
      <trkpt lat="43.71255" lon="3.4697">
        <ele>415</ele>
        <time>2015-10-25T10:03:12Z</time>
      </trkpt>
      <trkpt lat="43.71256" lon="3.46966">
        <ele>415</ele>
        <time>2015-10-25T10:03:13Z</time>
      </trkpt>
      <trkpt lat="43.71257" lon="3.46963">
        <ele>415</ele>
        <time>2015-10-25T10:03:14Z</time>
      </trkpt>
      <trkpt lat="43.71259" lon="3.4696">
        <ele>414</ele>
        <time>2015-10-25T10:03:15Z</time>
      </trkpt>
      <trkpt lat="43.7126" lon="3.46957">
        <ele>413.5</ele>
        <time>2015-10-25T10:03:16Z</time>
      </trkpt>
      <trkpt lat="43.71261" lon="3.46954">
        <ele>413</ele>
        <time>2015-10-25T10:03:17Z</time>
      </trkpt>
      <trkpt lat="43.71262" lon="3.4695">
        <ele>412.5</ele>
        <time>2015-10-25T10:03:18Z</time>
      </trkpt>
      <trkpt lat="43.71263" lon="3.46947">
        <ele>412.5</ele>
        <time>2015-10-25T10:03:19Z</time>
      </trkpt>
      <trkpt lat="43.71264" lon="3.46944">
        <ele>412.5</ele>
        <time>2015-10-25T10:03:20Z</time>
      </trkpt>
      <trkpt lat="43.71265" lon="3.46941">
        <ele>413</ele>
        <time>2015-10-25T10:03:21Z</time>
      </trkpt>
      <trkpt lat="43.71266" lon="3.46937">
        <ele>413.5</ele>
        <time>2015-10-25T10:03:22Z</time>
      </trkpt>
      <trkpt lat="43.71266" lon="3.46934">
        <ele>415</ele>
        <time>2015-10-25T10:03:23Z</time>
      </trkpt>
      <trkpt lat="43.71267" lon="3.4693">
        <ele>415</ele>
        <time>2015-10-25T10:03:24Z</time>
      </trkpt>
      <trkpt lat="43.71267" lon="3.46927">
        <ele>416.5</ele>
        <time>2015-10-25T10:03:25Z</time>
      </trkpt>
      <trkpt lat="43.71268" lon="3.46924">
        <ele>417.5</ele>
        <time>2015-10-25T10:03:26Z</time>
      </trkpt>
      <trkpt lat="43.71269" lon="3.46922">
        <ele>418</ele>
        <time>2015-10-25T10:03:27Z</time>
      </trkpt>
      <trkpt lat="43.7127" lon="3.4692">
        <ele>418.5</ele>
        <time>2015-10-25T10:03:28Z</time>
      </trkpt>
      <trkpt lat="43.7127" lon="3.46917">
        <ele>419</ele>
        <time>2015-10-25T10:03:29Z</time>
      </trkpt>
      <trkpt lat="43.71271" lon="3.46915">
        <ele>419.5</ele>
        <time>2015-10-25T10:03:30Z</time>
      </trkpt>
      <trkpt lat="43.71273" lon="3.46912">
        <ele>419.5</ele>
        <time>2015-10-25T10:03:31Z</time>
      </trkpt>
      <trkpt lat="43.71274" lon="3.46909">
        <ele>419</ele>
        <time>2015-10-25T10:03:32Z</time>
      </trkpt>
      <trkpt lat="43.71276" lon="3.46907">
        <ele>418.5</ele>
        <time>2015-10-25T10:03:33Z</time>
      </trkpt>
      <trkpt lat="43.71278" lon="3.46904">
        <ele>418.5</ele>
        <time>2015-10-25T10:03:34Z</time>
      </trkpt>
      <trkpt lat="43.71278" lon="3.46903">
        <ele>417</ele>
        <time>2015-10-25T10:03:35Z</time>
      </trkpt>
      <trkpt lat="43.71283" lon="3.46897">
        <ele>417</ele>
        <time>2015-10-25T10:03:37Z</time>
      </trkpt>
      <trkpt lat="43.71284" lon="3.46893">
        <ele>417.5</ele>
        <time>2015-10-25T10:03:38Z</time>
      </trkpt>
      <trkpt lat="43.71286" lon="3.46892">
        <ele>416</ele>
        <time>2015-10-25T10:03:39Z</time>
      </trkpt>
      <trkpt lat="43.71288" lon="3.46889">
        <ele>416</ele>
        <time>2015-10-25T10:03:40Z</time>
      </trkpt>
      <trkpt lat="43.71289" lon="3.46886">
        <ele>416.5</ele>
        <time>2015-10-25T10:03:41Z</time>
      </trkpt>
      <trkpt lat="43.71291" lon="3.46883">
        <ele>416.5</ele>
        <time>2015-10-25T10:03:42Z</time>
      </trkpt>
      <trkpt lat="43.71292" lon="3.46881">
        <ele>417</ele>
        <time>2015-10-25T10:03:43Z</time>
      </trkpt>
      <trkpt lat="43.71294" lon="3.46878">
        <ele>417</ele>
        <time>2015-10-25T10:03:44Z</time>
      </trkpt>
      <trkpt lat="43.71296" lon="3.46876">
        <ele>417</ele>
        <time>2015-10-25T10:03:45Z</time>
      </trkpt>
      <trkpt lat="43.71298" lon="3.46873">
        <ele>417</ele>
        <time>2015-10-25T10:03:46Z</time>
      </trkpt>
      <trkpt lat="43.71299" lon="3.4687">
        <ele>417</ele>
        <time>2015-10-25T10:03:47Z</time>
      </trkpt>
      <trkpt lat="43.713" lon="3.46868">
        <ele>417</ele>
        <time>2015-10-25T10:03:48Z</time>
      </trkpt>
      <trkpt lat="43.71302" lon="3.46865">
        <ele>417</ele>
        <time>2015-10-25T10:03:49Z</time>
      </trkpt>
      <trkpt lat="43.71302" lon="3.46863">
        <ele>417</ele>
        <time>2015-10-25T10:03:50Z</time>
      </trkpt>
      <trkpt lat="43.71303" lon="3.4686">
        <ele>417</ele>
        <time>2015-10-25T10:03:51Z</time>
      </trkpt>
      <trkpt lat="43.71304" lon="3.46857">
        <ele>417.5</ele>
        <time>2015-10-25T10:03:52Z</time>
      </trkpt>
      <trkpt lat="43.71305" lon="3.46855">
        <ele>415.5</ele>
        <time>2015-10-25T10:03:53Z</time>
      </trkpt>
      <trkpt lat="43.71305" lon="3.46852">
        <ele>416</ele>
        <time>2015-10-25T10:03:54Z</time>
      </trkpt>
      <trkpt lat="43.71306" lon="3.46849">
        <ele>416</ele>
        <time>2015-10-25T10:03:55Z</time>
      </trkpt>
      <trkpt lat="43.71306" lon="3.46846">
        <ele>416.5</ele>
        <time>2015-10-25T10:03:56Z</time>
      </trkpt>
      <trkpt lat="43.71306" lon="3.46843">
        <ele>416.5</ele>
        <time>2015-10-25T10:03:57Z</time>
      </trkpt>
      <trkpt lat="43.71306" lon="3.46839">
        <ele>416</ele>
        <time>2015-10-25T10:03:58Z</time>
      </trkpt>
      <trkpt lat="43.71305" lon="3.46837">
        <ele>415.5</ele>
        <time>2015-10-25T10:03:59Z</time>
      </trkpt>
      <trkpt lat="43.71305" lon="3.46834">
        <ele>416</ele>
        <time>2015-10-25T10:04:00Z</time>
      </trkpt>
      <trkpt lat="43.71305" lon="3.46831">
        <ele>416</ele>
        <time>2015-10-25T10:04:01Z</time>
      </trkpt>
      <trkpt lat="43.71305" lon="3.46827">
        <ele>416</ele>
        <time>2015-10-25T10:04:02Z</time>
      </trkpt>
      <trkpt lat="43.71305" lon="3.46824">
        <ele>416</ele>
        <time>2015-10-25T10:04:03Z</time>
      </trkpt>
      <trkpt lat="43.71305" lon="3.46821">
        <ele>416.5</ele>
        <time>2015-10-25T10:04:04Z</time>
      </trkpt>
      <trkpt lat="43.71305" lon="3.46817">
        <ele>416</ele>
        <time>2015-10-25T10:04:05Z</time>
      </trkpt>
      <trkpt lat="43.71305" lon="3.46814">
        <ele>416</ele>
        <time>2015-10-25T10:04:06Z</time>
      </trkpt>
      <trkpt lat="43.71305" lon="3.46811">
        <ele>416</ele>
        <time>2015-10-25T10:04:07Z</time>
      </trkpt>
      <trkpt lat="43.71304" lon="3.46808">
        <ele>415.5</ele>
        <time>2015-10-25T10:04:08Z</time>
      </trkpt>
      <trkpt lat="43.71304" lon="3.46805">
        <ele>415.5</ele>
        <time>2015-10-25T10:04:09Z</time>
      </trkpt>
      <trkpt lat="43.71304" lon="3.46802">
        <ele>416</ele>
        <time>2015-10-25T10:04:10Z</time>
      </trkpt>
      <trkpt lat="43.71303" lon="3.468">
        <ele>417</ele>
        <time>2015-10-25T10:04:11Z</time>
      </trkpt>
      <trkpt lat="43.71302" lon="3.46797">
        <ele>418</ele>
        <time>2015-10-25T10:04:12Z</time>
      </trkpt>
      <trkpt lat="43.71301" lon="3.46794">
        <ele>418.5</ele>
        <time>2015-10-25T10:04:13Z</time>
      </trkpt>
      <trkpt lat="43.71301" lon="3.46791">
        <ele>419</ele>
        <time>2015-10-25T10:04:14Z</time>
      </trkpt>
      <trkpt lat="43.71301" lon="3.46787">
        <ele>419</ele>
        <time>2015-10-25T10:04:15Z</time>
      </trkpt>
      <trkpt lat="43.713" lon="3.46784">
        <ele>418.5</ele>
        <time>2015-10-25T10:04:16Z</time>
      </trkpt>
      <trkpt lat="43.713" lon="3.46781">
        <ele>418.5</ele>
        <time>2015-10-25T10:04:17Z</time>
      </trkpt>
      <trkpt lat="43.71298" lon="3.46775">
        <ele>419</ele>
        <time>2015-10-25T10:04:19Z</time>
      </trkpt>
      <trkpt lat="43.71297" lon="3.46769">
        <ele>419.5</ele>
        <time>2015-10-25T10:04:21Z</time>
      </trkpt>
      <trkpt lat="43.71297" lon="3.46765">
        <ele>419</ele>
        <time>2015-10-25T10:04:22Z</time>
      </trkpt>
      <trkpt lat="43.71296" lon="3.46763">
        <ele>419.5</ele>
        <time>2015-10-25T10:04:23Z</time>
      </trkpt>
      <trkpt lat="43.71295" lon="3.4676">
        <ele>419.5</ele>
        <time>2015-10-25T10:04:24Z</time>
      </trkpt>
      <trkpt lat="43.71295" lon="3.46757">
        <ele>420.5</ele>
        <time>2015-10-25T10:04:25Z</time>
      </trkpt>
      <trkpt lat="43.71295" lon="3.46754">
        <ele>421</ele>
        <time>2015-10-25T10:04:26Z</time>
      </trkpt>
      <trkpt lat="43.71294" lon="3.46752">
        <ele>422</ele>
        <time>2015-10-25T10:04:27Z</time>
      </trkpt>
      <trkpt lat="43.71293" lon="3.46749">
        <ele>423.5</ele>
        <time>2015-10-25T10:04:28Z</time>
      </trkpt>
      <trkpt lat="43.71292" lon="3.46746">
        <ele>424.5</ele>
        <time>2015-10-25T10:04:29Z</time>
      </trkpt>
      <trkpt lat="43.71291" lon="3.46743">
        <ele>424.5</ele>
        <time>2015-10-25T10:04:30Z</time>
      </trkpt>
      <trkpt lat="43.7129" lon="3.4674">
        <ele>425</ele>
        <time>2015-10-25T10:04:31Z</time>
      </trkpt>
      <trkpt lat="43.71289" lon="3.46737">
        <ele>425.5</ele>
        <time>2015-10-25T10:04:32Z</time>
      </trkpt>
      <trkpt lat="43.71288" lon="3.46734">
        <ele>426</ele>
        <time>2015-10-25T10:04:33Z</time>
      </trkpt>
      <trkpt lat="43.71288" lon="3.46731">
        <ele>425.5</ele>
        <time>2015-10-25T10:04:34Z</time>
      </trkpt>
      <trkpt lat="43.71287" lon="3.46728">
        <ele>426</ele>
        <time>2015-10-25T10:04:35Z</time>
      </trkpt>
      <trkpt lat="43.71286" lon="3.46725">
        <ele>427.5</ele>
        <time>2015-10-25T10:04:36Z</time>
      </trkpt>
      <trkpt lat="43.71285" lon="3.46721">
        <ele>428</ele>
        <time>2015-10-25T10:04:37Z</time>
      </trkpt>
      <trkpt lat="43.71284" lon="3.46717">
        <ele>428.5</ele>
        <time>2015-10-25T10:04:38Z</time>
      </trkpt>
      <trkpt lat="43.71284" lon="3.46714">
        <ele>428.5</ele>
        <time>2015-10-25T10:04:39Z</time>
      </trkpt>
      <trkpt lat="43.71283" lon="3.4671">
        <ele>428.5</ele>
        <time>2015-10-25T10:04:40Z</time>
      </trkpt>
      <trkpt lat="43.71283" lon="3.46707">
        <ele>429</ele>
        <time>2015-10-25T10:04:41Z</time>
      </trkpt>
      <trkpt lat="43.71283" lon="3.46703">
        <ele>429</ele>
        <time>2015-10-25T10:04:42Z</time>
      </trkpt>
      <trkpt lat="43.71283" lon="3.46699">
        <ele>429.5</ele>
        <time>2015-10-25T10:04:43Z</time>
      </trkpt>
      <trkpt lat="43.71283" lon="3.46695">
        <ele>429.5</ele>
        <time>2015-10-25T10:04:44Z</time>
      </trkpt>
      <trkpt lat="43.71283" lon="3.46691">
        <ele>430</ele>
        <time>2015-10-25T10:04:45Z</time>
      </trkpt>
      <trkpt lat="43.71283" lon="3.46688">
        <ele>430</ele>
        <time>2015-10-25T10:04:46Z</time>
      </trkpt>
      <trkpt lat="43.71283" lon="3.46685">
        <ele>430</ele>
        <time>2015-10-25T10:04:47Z</time>
      </trkpt>
      <trkpt lat="43.71283" lon="3.46682">
        <ele>429</ele>
        <time>2015-10-25T10:04:48Z</time>
      </trkpt>
      <trkpt lat="43.71282" lon="3.46679">
        <ele>429.5</ele>
        <time>2015-10-25T10:04:49Z</time>
      </trkpt>
      <trkpt lat="43.71281" lon="3.46675">
        <ele>429.5</ele>
        <time>2015-10-25T10:04:49Z</time>
      </trkpt>
      <trkpt lat="43.71279" lon="3.46674">
        <ele>431.5</ele>
        <time>2015-10-25T10:04:51Z</time>
      </trkpt>
      <trkpt lat="43.71276" lon="3.46673">
        <ele>431</ele>
        <time>2015-10-25T10:04:51Z</time>
      </trkpt>
      <trkpt lat="43.71274" lon="3.46671">
        <ele>431.5</ele>
        <time>2015-10-25T10:04:53Z</time>
      </trkpt>
      <trkpt lat="43.71272" lon="3.46669">
        <ele>432</ele>
        <time>2015-10-25T10:04:53Z</time>
      </trkpt>
      <trkpt lat="43.7127" lon="3.46667">
        <ele>433.5</ele>
        <time>2015-10-25T10:04:55Z</time>
      </trkpt>
      <trkpt lat="43.71268" lon="3.46665">
        <ele>434</ele>
        <time>2015-10-25T10:04:56Z</time>
      </trkpt>
      <trkpt lat="43.71266" lon="3.46663">
        <ele>434.5</ele>
        <time>2015-10-25T10:04:56Z</time>
      </trkpt>
      <trkpt lat="43.71263" lon="3.46662">
        <ele>434</ele>
        <time>2015-10-25T10:04:58Z</time>
      </trkpt>
      <trkpt lat="43.71262" lon="3.46661">
        <ele>434.5</ele>
        <time>2015-10-25T10:04:58Z</time>
      </trkpt>
      <trkpt lat="43.71259" lon="3.46659">
        <ele>434.5</ele>
        <time>2015-10-25T10:04:59Z</time>
      </trkpt>
      <trkpt lat="43.71257" lon="3.46658">
        <ele>435</ele>
        <time>2015-10-25T10:05:00Z</time>
      </trkpt>
      <trkpt lat="43.71255" lon="3.46658">
        <ele>435.5</ele>
        <time>2015-10-25T10:05:01Z</time>
      </trkpt>
      <trkpt lat="43.71253" lon="3.46656">
        <ele>435.5</ele>
        <time>2015-10-25T10:05:02Z</time>
      </trkpt>
      <trkpt lat="43.71251" lon="3.46654">
        <ele>435</ele>
        <time>2015-10-25T10:05:03Z</time>
      </trkpt>
      <trkpt lat="43.71248" lon="3.46653">
        <ele>434.5</ele>
        <time>2015-10-25T10:05:04Z</time>
      </trkpt>
      <trkpt lat="43.71248" lon="3.46651">
        <ele>436</ele>
        <time>2015-10-25T10:05:05Z</time>
      </trkpt>
      <trkpt lat="43.71247" lon="3.46649">
        <ele>435.5</ele>
        <time>2015-10-25T10:05:06Z</time>
      </trkpt>
      <trkpt lat="43.71246" lon="3.46647">
        <ele>435</ele>
        <time>2015-10-25T10:05:07Z</time>
      </trkpt>
      <trkpt lat="43.71244" lon="3.46645">
        <ele>434.5</ele>
        <time>2015-10-25T10:05:08Z</time>
      </trkpt>
      <trkpt lat="43.71243" lon="3.46643">
        <ele>435.5</ele>
        <time>2015-10-25T10:05:09Z</time>
      </trkpt>
      <trkpt lat="43.71241" lon="3.46637">
        <ele>435.5</ele>
        <time>2015-10-25T10:05:11Z</time>
      </trkpt>
      <trkpt lat="43.71241" lon="3.46634">
        <ele>435.5</ele>
        <time>2015-10-25T10:05:12Z</time>
      </trkpt>
      <trkpt lat="43.7124" lon="3.46629">
        <ele>434.5</ele>
        <time>2015-10-25T10:05:13Z</time>
      </trkpt>
      <trkpt lat="43.71241" lon="3.46624">
        <ele>433.5</ele>
        <time>2015-10-25T10:05:14Z</time>
      </trkpt>
      <trkpt lat="43.71241" lon="3.46621">
        <ele>433.5</ele>
        <time>2015-10-25T10:05:15Z</time>
      </trkpt>
      <trkpt lat="43.71241" lon="3.46617">
        <ele>433.5</ele>
        <time>2015-10-25T10:05:16Z</time>
      </trkpt>
      <trkpt lat="43.71241" lon="3.46614">
        <ele>433</ele>
        <time>2015-10-25T10:05:17Z</time>
      </trkpt>
      <trkpt lat="43.71242" lon="3.46611">
        <ele>432</ele>
        <time>2015-10-25T10:05:18Z</time>
      </trkpt>
      <trkpt lat="43.71243" lon="3.46608">
        <ele>431</ele>
        <time>2015-10-25T10:05:19Z</time>
      </trkpt>
      <trkpt lat="43.71243" lon="3.46605">
        <ele>430</ele>
        <time>2015-10-25T10:05:20Z</time>
      </trkpt>
      <trkpt lat="43.71244" lon="3.46601">
        <ele>429</ele>
        <time>2015-10-25T10:05:21Z</time>
      </trkpt>
      <trkpt lat="43.71244" lon="3.46599">
        <ele>428.5</ele>
        <time>2015-10-25T10:05:22Z</time>
      </trkpt>
      <trkpt lat="43.71246" lon="3.46596">
        <ele>427.5</ele>
        <time>2015-10-25T10:05:23Z</time>
      </trkpt>
      <trkpt lat="43.71246" lon="3.46594">
        <ele>427.5</ele>
        <time>2015-10-25T10:05:24Z</time>
      </trkpt>
      <trkpt lat="43.71247" lon="3.46591">
        <ele>426.5</ele>
        <time>2015-10-25T10:05:25Z</time>
      </trkpt>
      <trkpt lat="43.71248" lon="3.46588">
        <ele>426</ele>
        <time>2015-10-25T10:05:26Z</time>
      </trkpt>
      <trkpt lat="43.71249" lon="3.46585">
        <ele>425.5</ele>
        <time>2015-10-25T10:05:27Z</time>
      </trkpt>
      <trkpt lat="43.7125" lon="3.46583">
        <ele>425.5</ele>
        <time>2015-10-25T10:05:28Z</time>
      </trkpt>
      <trkpt lat="43.7125" lon="3.4658">
        <ele>425.5</ele>
        <time>2015-10-25T10:05:29Z</time>
      </trkpt>
      <trkpt lat="43.71251" lon="3.46578">
        <ele>425</ele>
        <time>2015-10-25T10:05:30Z</time>
      </trkpt>
      <trkpt lat="43.71252" lon="3.46576">
        <ele>423.5</ele>
        <time>2015-10-25T10:05:31Z</time>
      </trkpt>
      <trkpt lat="43.71253" lon="3.46575">
        <ele>423</ele>
        <time>2015-10-25T10:05:32Z</time>
      </trkpt>
      <trkpt lat="43.71255" lon="3.46576">
        <ele>423</ele>
        <time>2015-10-25T10:05:33Z</time>
      </trkpt>
      <trkpt lat="43.71255" lon="3.46576">
        <ele>423</ele>
        <time>2015-10-25T10:05:34Z</time>
      </trkpt>
      <trkpt lat="43.71257" lon="3.46576">
        <ele>421.5</ele>
        <time>2015-10-25T10:05:35Z</time>
      </trkpt>
      <trkpt lat="43.71257" lon="3.46575">
        <ele>421.5</ele>
        <time>2015-10-25T10:05:36Z</time>
      </trkpt>
      <trkpt lat="43.71259" lon="3.46575">
        <ele>421</ele>
        <time>2015-10-25T10:05:37Z</time>
      </trkpt>
      <trkpt lat="43.71259" lon="3.46577">
        <ele>421</ele>
        <time>2015-10-25T10:05:39Z</time>
      </trkpt>
      <trkpt lat="43.71259" lon="3.46578">
        <ele>420.5</ele>
        <time>2015-10-25T10:05:39Z</time>
      </trkpt>
      <trkpt lat="43.71258" lon="3.4658">
        <ele>420.5</ele>
        <time>2015-10-25T10:05:40Z</time>
      </trkpt>
      <trkpt lat="43.71257" lon="3.46581">
        <ele>421</ele>
        <time>2015-10-25T10:05:41Z</time>
      </trkpt>
      <trkpt lat="43.71256" lon="3.46582">
        <ele>421</ele>
        <time>2015-10-25T10:05:42Z</time>
      </trkpt>
      <trkpt lat="43.71255" lon="3.46582">
        <ele>421</ele>
        <time>2015-10-25T10:05:43Z</time>
      </trkpt>
      <trkpt lat="43.71254" lon="3.46582">
        <ele>420.5</ele>
        <time>2015-10-25T10:05:44Z</time>
      </trkpt>
      <trkpt lat="43.71253" lon="3.46582">
        <ele>419.5</ele>
        <time>2015-10-25T10:05:45Z</time>
      </trkpt>
      <trkpt lat="43.71253" lon="3.46583">
        <ele>419</ele>
        <time>2015-10-25T10:05:46Z</time>
      </trkpt>
      <trkpt lat="43.71252" lon="3.46584">
        <ele>419</ele>
        <time>2015-10-25T10:05:47Z</time>
      </trkpt>
      <trkpt lat="43.71251" lon="3.46584">
        <ele>419.5</ele>
        <time>2015-10-25T10:05:48Z</time>
      </trkpt>
      <trkpt lat="43.71251" lon="3.46584">
        <ele>419.5</ele>
        <time>2015-10-25T10:05:49Z</time>
      </trkpt>
      <trkpt lat="43.71251" lon="3.46585">
        <ele>420</ele>
        <time>2015-10-25T10:05:50Z</time>
      </trkpt>
      <trkpt lat="43.7125" lon="3.46586">
        <ele>421</ele>
        <time>2015-10-25T10:05:51Z</time>
      </trkpt>
      <trkpt lat="43.71251" lon="3.46586">
        <ele>421.5</ele>
        <time>2015-10-25T10:05:52Z</time>
      </trkpt>
      <trkpt lat="43.7125" lon="3.46587">
        <ele>421.5</ele>
        <time>2015-10-25T10:05:53Z</time>
      </trkpt>
      <trkpt lat="43.7125" lon="3.46589">
        <ele>422</ele>
        <time>2015-10-25T10:05:54Z</time>
      </trkpt>
      <trkpt lat="43.71249" lon="3.46591">
        <ele>423</ele>
        <time>2015-10-25T10:05:55Z</time>
      </trkpt>
      <trkpt lat="43.71248" lon="3.46592">
        <ele>423.5</ele>
        <time>2015-10-25T10:05:56Z</time>
      </trkpt>
      <trkpt lat="43.71247" lon="3.46593">
        <ele>424</ele>
        <time>2015-10-25T10:05:57Z</time>
      </trkpt>
      <trkpt lat="43.71246" lon="3.46595">
        <ele>424</ele>
        <time>2015-10-25T10:05:58Z</time>
      </trkpt>
      <trkpt lat="43.71245" lon="3.46597">
        <ele>425</ele>
        <time>2015-10-25T10:05:59Z</time>
      </trkpt>
      <trkpt lat="43.71246" lon="3.46598">
        <ele>425.5</ele>
        <time>2015-10-25T10:06:00Z</time>
      </trkpt>
      <trkpt lat="43.71247" lon="3.46599">
        <ele>425</ele>
        <time>2015-10-25T10:06:01Z</time>
      </trkpt>
      <trkpt lat="43.71247" lon="3.46598">
        <ele>425</ele>
        <time>2015-10-25T10:06:02Z</time>
      </trkpt>
      <trkpt lat="43.71249" lon="3.46597">
        <ele>425</ele>
        <time>2015-10-25T10:06:03Z</time>
      </trkpt>
      <trkpt lat="43.71251" lon="3.46594">
        <ele>425</ele>
        <time>2015-10-25T10:06:05Z</time>
      </trkpt>
      <trkpt lat="43.71251" lon="3.46593">
        <ele>425</ele>
        <time>2015-10-25T10:06:06Z</time>
      </trkpt>
      <trkpt lat="43.71252" lon="3.46591">
        <ele>425</ele>
        <time>2015-10-25T10:06:07Z</time>
      </trkpt>
      <trkpt lat="43.71252" lon="3.4659">
        <ele>425</ele>
        <time>2015-10-25T10:06:08Z</time>
      </trkpt>
      <trkpt lat="43.71252" lon="3.46589">
        <ele>425</ele>
        <time>2015-10-25T10:06:09Z</time>
      </trkpt>
      <trkpt lat="43.71251" lon="3.46588">
        <ele>425</ele>
        <time>2015-10-25T10:06:10Z</time>
      </trkpt>
      <trkpt lat="43.71251" lon="3.46588">
        <ele>425</ele>
        <time>2015-10-25T10:06:11Z</time>
      </trkpt>
      <trkpt lat="43.71249" lon="3.46587">
        <ele>425</ele>
        <time>2015-10-25T10:06:12Z</time>
      </trkpt>
      <trkpt lat="43.71248" lon="3.46587">
        <ele>425</ele>
        <time>2015-10-25T10:06:14Z</time>
      </trkpt>
      <trkpt lat="43.71247" lon="3.46588">
        <ele>424.5</ele>
        <time>2015-10-25T10:06:16Z</time>
      </trkpt>
      <trkpt lat="43.71247" lon="3.46587">
        <ele>424.5</ele>
        <time>2015-10-25T10:06:19Z</time>
      </trkpt>
      <trkpt lat="43.71246" lon="3.46586">
        <ele>424</ele>
        <time>2015-10-25T10:06:21Z</time>
      </trkpt>
      <trkpt lat="43.71246" lon="3.46585">
        <ele>424</ele>
        <time>2015-10-25T10:06:22Z</time>
      </trkpt>
      <trkpt lat="43.71246" lon="3.46584">
        <ele>423.5</ele>
        <time>2015-10-25T10:06:23Z</time>
      </trkpt>
      <trkpt lat="43.71246" lon="3.46583">
        <ele>423</ele>
        <time>2015-10-25T10:06:24Z</time>
      </trkpt>
      <trkpt lat="43.71245" lon="3.46581">
        <ele>422.5</ele>
        <time>2015-10-25T10:06:25Z</time>
      </trkpt>
      <trkpt lat="43.71245" lon="3.4658">
        <ele>422.5</ele>
        <time>2015-10-25T10:06:26Z</time>
      </trkpt>
      <trkpt lat="43.71246" lon="3.4658">
        <ele>423</ele>
        <time>2015-10-25T10:06:27Z</time>
      </trkpt>
      <trkpt lat="43.71246" lon="3.46579">
        <ele>423.5</ele>
        <time>2015-10-25T10:06:28Z</time>
      </trkpt>
      <trkpt lat="43.71246" lon="3.46578">
        <ele>424</ele>
        <time>2015-10-25T10:06:29Z</time>
      </trkpt>
      <trkpt lat="43.71246" lon="3.46578">
        <ele>424</ele>
        <time>2015-10-25T10:06:30Z</time>
      </trkpt>
      <trkpt lat="43.71246" lon="3.46578">
        <ele>424</ele>
        <time>2015-10-25T10:06:31Z</time>
      </trkpt>
      <trkpt lat="43.71246" lon="3.46579">
        <ele>424</ele>
        <time>2015-10-25T10:06:33Z</time>
      </trkpt>
      <trkpt lat="43.71246" lon="3.4658">
        <ele>423.5</ele>
        <time>2015-10-25T10:06:36Z</time>
      </trkpt>
      <trkpt lat="43.71246" lon="3.4658">
        <ele>423.5</ele>
        <time>2015-10-25T10:06:38Z</time>
      </trkpt>
      <trkpt lat="43.71247" lon="3.46581">
        <ele>423.5</ele>
        <time>2015-10-25T10:06:40Z</time>
      </trkpt>
      <trkpt lat="43.71247" lon="3.46581">
        <ele>423.5</ele>
        <time>2015-10-25T10:06:42Z</time>
      </trkpt>
      <trkpt lat="43.71246" lon="3.46579">
        <ele>424</ele>
        <time>2015-10-25T10:06:43Z</time>
      </trkpt>
      <trkpt lat="43.71247" lon="3.46577">
        <ele>424</ele>
        <time>2015-10-25T10:06:44Z</time>
      </trkpt>
      <trkpt lat="43.71247" lon="3.46575">
        <ele>422</ele>
        <time>2015-10-25T10:06:45Z</time>
      </trkpt>
      <trkpt lat="43.71247" lon="3.46576">
        <ele>422</ele>
        <time>2015-10-25T10:06:46Z</time>
      </trkpt>
      <trkpt lat="43.71247" lon="3.46577">
        <ele>421.5</ele>
        <time>2015-10-25T10:06:47Z</time>
      </trkpt>
      <trkpt lat="43.71248" lon="3.46578">
        <ele>421.5</ele>
        <time>2015-10-25T10:06:49Z</time>
      </trkpt>
      <trkpt lat="43.71249" lon="3.46577">
        <ele>421</ele>
        <time>2015-10-25T10:06:52Z</time>
      </trkpt>
      <trkpt lat="43.7125" lon="3.46579">
        <ele>421.5</ele>
        <time>2015-10-25T10:06:55Z</time>
      </trkpt>
      <trkpt lat="43.7125" lon="3.46578">
        <ele>421</ele>
        <time>2015-10-25T10:06:58Z</time>
      </trkpt>
      <trkpt lat="43.7125" lon="3.46578">
        <ele>420</ele>
        <time>2015-10-25T10:07:00Z</time>
      </trkpt>
      <trkpt lat="43.71249" lon="3.46578">
        <ele>420</ele>
        <time>2015-10-25T10:07:01Z</time>
      </trkpt>
      <trkpt lat="43.71249" lon="3.46577">
        <ele>419.5</ele>
        <time>2015-10-25T10:07:02Z</time>
      </trkpt>
      <trkpt lat="43.71248" lon="3.46574">
        <ele>419.5</ele>
        <time>2015-10-25T10:07:03Z</time>
      </trkpt>
      <trkpt lat="43.71248" lon="3.46573">
        <ele>419.5</ele>
        <time>2015-10-25T10:07:04Z</time>
      </trkpt>
      <trkpt lat="43.71249" lon="3.46573">
        <ele>420.5</ele>
        <time>2015-10-25T10:07:06Z</time>
      </trkpt>
      <trkpt lat="43.71251" lon="3.46578">
        <ele>421</ele>
        <time>2015-10-25T10:07:11Z</time>
      </trkpt>
      <trkpt lat="43.71251" lon="3.46578">
        <ele>421</ele>
        <time>2015-10-25T10:07:13Z</time>
      </trkpt>
      <trkpt lat="43.71252" lon="3.46579">
        <ele>422.5</ele>
        <time>2015-10-25T10:07:14Z</time>
      </trkpt>
      <trkpt lat="43.71251" lon="3.46579">
        <ele>423.5</ele>
        <time>2015-10-25T10:07:15Z</time>
      </trkpt>
      <trkpt lat="43.71251" lon="3.46579">
        <ele>423.5</ele>
        <time>2015-10-25T10:07:16Z</time>
      </trkpt>
      <trkpt lat="43.71251" lon="3.46579">
        <ele>423.5</ele>
        <time>2015-10-25T10:07:17Z</time>
      </trkpt>
      <trkpt lat="43.71251" lon="3.46579">
        <ele>423.5</ele>
        <time>2015-10-25T10:07:18Z</time>
      </trkpt>
      <trkpt lat="43.71251" lon="3.46579">
        <ele>423.5</ele>
        <time>2015-10-25T10:07:19Z</time>
      </trkpt>
      <trkpt lat="43.71253" lon="3.46579">
        <ele>423.5</ele>
        <time>2015-10-25T10:07:20Z</time>
      </trkpt>
      <trkpt lat="43.71253" lon="3.46578">
        <ele>423.5</ele>
        <time>2015-10-25T10:07:21Z</time>
      </trkpt>
      <trkpt lat="43.71253" lon="3.46579">
        <ele>424</ele>
        <time>2015-10-25T10:07:22Z</time>
      </trkpt>
      <trkpt lat="43.71251" lon="3.4658">
        <ele>424</ele>
        <time>2015-10-25T10:07:23Z</time>
      </trkpt>
      <trkpt lat="43.7125" lon="3.46582">
        <ele>424.5</ele>
        <time>2015-10-25T10:07:24Z</time>
      </trkpt>
      <trkpt lat="43.71249" lon="3.46584">
        <ele>425</ele>
        <time>2015-10-25T10:07:26Z</time>
      </trkpt>
      <trkpt lat="43.71249" lon="3.46585">
        <ele>425.5</ele>
        <time>2015-10-25T10:07:29Z</time>
      </trkpt>
      <trkpt lat="43.7125" lon="3.46586">
        <ele>422.5</ele>
        <time>2015-10-25T10:07:31Z</time>
      </trkpt>
      <trkpt lat="43.71251" lon="3.46585">
        <ele>421</ele>
        <time>2015-10-25T10:07:36Z</time>
      </trkpt>
      <trkpt lat="43.71249" lon="3.46586">
        <ele>422</ele>
        <time>2015-10-25T10:07:38Z</time>
      </trkpt>
      <trkpt lat="43.7125" lon="3.46584">
        <ele>422</ele>
        <time>2015-10-25T10:07:39Z</time>
      </trkpt>
      <trkpt lat="43.7125" lon="3.46584">
        <ele>421.5</ele>
        <time>2015-10-25T10:07:40Z</time>
      </trkpt>
      <trkpt lat="43.7125" lon="3.46586">
        <ele>420</ele>
        <time>2015-10-25T10:07:47Z</time>
      </trkpt>
      <trkpt lat="43.7125" lon="3.46583">
        <ele>418</ele>
        <time>2015-10-25T10:07:49Z</time>
      </trkpt>
      <trkpt lat="43.71249" lon="3.46583">
        <ele>418.5</ele>
        <time>2015-10-25T10:07:50Z</time>
      </trkpt>
      <trkpt lat="43.7125" lon="3.46584">
        <ele>418</ele>
        <time>2015-10-25T10:07:51Z</time>
      </trkpt>
      <trkpt lat="43.71251" lon="3.46583">
        <ele>416</ele>
        <time>2015-10-25T10:07:52Z</time>
      </trkpt>
      <trkpt lat="43.71249" lon="3.46582">
        <ele>417.5</ele>
        <time>2015-10-25T10:07:53Z</time>
      </trkpt>
      <trkpt lat="43.71249" lon="3.46582">
        <ele>418</ele>
        <time>2015-10-25T10:07:56Z</time>
      </trkpt>
      <trkpt lat="43.71248" lon="3.46581">
        <ele>418.5</ele>
        <time>2015-10-25T10:08:00Z</time>
      </trkpt>
      <trkpt lat="43.71246" lon="3.46581">
        <ele>419.5</ele>
        <time>2015-10-25T10:08:02Z</time>
      </trkpt>
      <trkpt lat="43.71246" lon="3.46581">
        <ele>419.5</ele>
        <time>2015-10-25T10:08:03Z</time>
      </trkpt>
      <trkpt lat="43.71249" lon="3.4658">
        <ele>418.5</ele>
        <time>2015-10-25T10:08:05Z</time>
      </trkpt>
      <trkpt lat="43.71249" lon="3.4658">
        <ele>420</ele>
        <time>2015-10-25T10:08:07Z</time>
      </trkpt>
      <trkpt lat="43.71248" lon="3.46581">
        <ele>422</ele>
        <time>2015-10-25T10:08:08Z</time>
      </trkpt>
      <trkpt lat="43.71247" lon="3.46582">
        <ele>423.5</ele>
        <time>2015-10-25T10:08:09Z</time>
      </trkpt>
      <trkpt lat="43.71247" lon="3.46583">
        <ele>424</ele>
        <time>2015-10-25T10:08:10Z</time>
      </trkpt>
      <trkpt lat="43.71246" lon="3.46584">
        <ele>426</ele>
        <time>2015-10-25T10:08:11Z</time>
      </trkpt>
      <trkpt lat="43.71244" lon="3.46586">
        <ele>427</ele>
        <time>2015-10-25T10:08:13Z</time>
      </trkpt>
      <trkpt lat="43.71244" lon="3.46585">
        <ele>426.5</ele>
        <time>2015-10-25T10:08:17Z</time>
      </trkpt>
      <trkpt lat="43.71242" lon="3.46583">
        <ele>427</ele>
        <time>2015-10-25T10:07:45Z</time>
      </trkpt>
      <trkpt lat="43.71242" lon="3.46583">
        <ele>427</ele>
        <time>2015-10-25T10:07:47Z</time>
      </trkpt>
      <trkpt lat="43.71242" lon="3.46584">
        <ele>426.5</ele>
        <time>2015-10-25T10:07:54Z</time>
      </trkpt>
      <trkpt lat="43.7124" lon="3.46581">
        <ele>428.5</ele>
        <time>2015-10-25T10:08:23Z</time>
      </trkpt>
      <trkpt lat="43.7124" lon="3.46581">
        <ele>429</ele>
        <time>2015-10-25T10:08:27Z</time>
      </trkpt>
      <trkpt lat="43.7124" lon="3.46581">
        <ele>429</ele>
        <time>2015-10-25T10:08:30Z</time>
      </trkpt>
      <trkpt lat="43.71241" lon="3.46581">
        <ele>428.5</ele>
        <time>2015-10-25T10:08:34Z</time>
      </trkpt>
      <trkpt lat="43.71241" lon="3.46578">
        <ele>429</ele>
        <time>2015-10-25T10:08:36Z</time>
      </trkpt>
      <trkpt lat="43.7124" lon="3.46576">
        <ele>429</ele>
        <time>2015-10-25T10:08:37Z</time>
      </trkpt>
      <trkpt lat="43.7124" lon="3.46574">
        <ele>430</ele>
        <time>2015-10-25T10:08:38Z</time>
      </trkpt>
      <trkpt lat="43.71241" lon="3.46572">
        <ele>430</ele>
        <time>2015-10-25T10:08:39Z</time>
      </trkpt>
      <trkpt lat="43.71241" lon="3.4657">
        <ele>430</ele>
        <time>2015-10-25T10:08:40Z</time>
      </trkpt>
      <trkpt lat="43.71242" lon="3.46568">
        <ele>430.5</ele>
        <time>2015-10-25T10:08:41Z</time>
      </trkpt>
      <trkpt lat="43.71243" lon="3.46567">
        <ele>431</ele>
        <time>2015-10-25T10:08:42Z</time>
      </trkpt>
      <trkpt lat="43.71243" lon="3.46566">
        <ele>431</ele>
        <time>2015-10-25T10:08:43Z</time>
      </trkpt>
      <trkpt lat="43.71244" lon="3.46564">
        <ele>431</ele>
        <time>2015-10-25T10:08:44Z</time>
      </trkpt>
      <trkpt lat="43.71245" lon="3.46563">
        <ele>431</ele>
        <time>2015-10-25T10:08:45Z</time>
      </trkpt>
      <trkpt lat="43.71245" lon="3.46562">
        <ele>431.5</ele>
        <time>2015-10-25T10:08:46Z</time>
      </trkpt>
      <trkpt lat="43.71246" lon="3.46561">
        <ele>432</ele>
        <time>2015-10-25T10:08:47Z</time>
      </trkpt>
      <trkpt lat="43.71246" lon="3.4656">
        <ele>432.5</ele>
        <time>2015-10-25T10:08:48Z</time>
      </trkpt>
      <trkpt lat="43.71247" lon="3.46559">
        <ele>433</ele>
        <time>2015-10-25T10:08:49Z</time>
      </trkpt>
      <trkpt lat="43.71247" lon="3.46558">
        <ele>434</ele>
        <time>2015-10-25T10:08:51Z</time>
      </trkpt>
      <trkpt lat="43.71249" lon="3.46556">
        <ele>434</ele>
        <time>2015-10-25T10:08:52Z</time>
      </trkpt>
      <trkpt lat="43.71249" lon="3.46555">
        <ele>435</ele>
        <time>2015-10-25T10:08:53Z</time>
      </trkpt>
      <trkpt lat="43.7125" lon="3.46553">
        <ele>434.5</ele>
        <time>2015-10-25T10:08:54Z</time>
      </trkpt>
      <trkpt lat="43.7125" lon="3.46552">
        <ele>435.5</ele>
        <time>2015-10-25T10:08:55Z</time>
      </trkpt>
      <trkpt lat="43.71251" lon="3.46551">
        <ele>435.5</ele>
        <time>2015-10-25T10:08:56Z</time>
      </trkpt>
      <trkpt lat="43.71252" lon="3.4655">
        <ele>435</ele>
        <time>2015-10-25T10:08:57Z</time>
      </trkpt>
      <trkpt lat="43.71253" lon="3.46549">
        <ele>435</ele>
        <time>2015-10-25T10:08:58Z</time>
      </trkpt>
      <trkpt lat="43.71255" lon="3.46548">
        <ele>435</ele>
        <time>2015-10-25T10:08:59Z</time>
      </trkpt>
      <trkpt lat="43.71256" lon="3.46547">
        <ele>435</ele>
        <time>2015-10-25T10:09:00Z</time>
      </trkpt>
      <trkpt lat="43.71258" lon="3.46546">
        <ele>436</ele>
        <time>2015-10-25T10:09:01Z</time>
      </trkpt>
      <trkpt lat="43.71259" lon="3.46545">
        <ele>436.5</ele>
        <time>2015-10-25T10:09:02Z</time>
      </trkpt>
      <trkpt lat="43.7126" lon="3.46545">
        <ele>436.5</ele>
        <time>2015-10-25T10:09:03Z</time>
      </trkpt>
      <trkpt lat="43.71262" lon="3.46544">
        <ele>436.5</ele>
        <time>2015-10-25T10:09:04Z</time>
      </trkpt>
      <trkpt lat="43.71264" lon="3.46544">
        <ele>436</ele>
        <time>2015-10-25T10:09:05Z</time>
      </trkpt>
      <trkpt lat="43.71265" lon="3.46544">
        <ele>436</ele>
        <time>2015-10-25T10:09:06Z</time>
      </trkpt>
      <trkpt lat="43.71267" lon="3.46543">
        <ele>435.5</ele>
        <time>2015-10-25T10:09:07Z</time>
      </trkpt>
      <trkpt lat="43.71269" lon="3.46543">
        <ele>434.5</ele>
        <time>2015-10-25T10:09:08Z</time>
      </trkpt>
      <trkpt lat="43.7127" lon="3.46543">
        <ele>434.5</ele>
        <time>2015-10-25T10:09:09Z</time>
      </trkpt>
      <trkpt lat="43.71272" lon="3.46543">
        <ele>434.5</ele>
        <time>2015-10-25T10:09:10Z</time>
      </trkpt>
      <trkpt lat="43.71274" lon="3.46543">
        <ele>434.5</ele>
        <time>2015-10-25T10:09:11Z</time>
      </trkpt>
      <trkpt lat="43.71275" lon="3.46542">
        <ele>435</ele>
        <time>2015-10-25T10:09:12Z</time>
      </trkpt>
      <trkpt lat="43.71277" lon="3.46541">
        <ele>436</ele>
        <time>2015-10-25T10:09:13Z</time>
      </trkpt>
      <trkpt lat="43.71278" lon="3.4654">
        <ele>436</ele>
        <time>2015-10-25T10:09:14Z</time>
      </trkpt>
      <trkpt lat="43.7128" lon="3.4654">
        <ele>436</ele>
        <time>2015-10-25T10:09:15Z</time>
      </trkpt>
      <trkpt lat="43.71281" lon="3.46538">
        <ele>436.5</ele>
        <time>2015-10-25T10:09:16Z</time>
      </trkpt>
      <trkpt lat="43.71282" lon="3.46537">
        <ele>437</ele>
        <time>2015-10-25T10:09:17Z</time>
      </trkpt>
      <trkpt lat="43.71283" lon="3.46536">
        <ele>437.5</ele>
        <time>2015-10-25T10:09:18Z</time>
      </trkpt>
      <trkpt lat="43.71285" lon="3.46536">
        <ele>437</ele>
        <time>2015-10-25T10:09:19Z</time>
      </trkpt>
      <trkpt lat="43.71286" lon="3.46535">
        <ele>437.5</ele>
        <time>2015-10-25T10:09:20Z</time>
      </trkpt>
      <trkpt lat="43.71287" lon="3.46534">
        <ele>437.5</ele>
        <time>2015-10-25T10:09:21Z</time>
      </trkpt>
      <trkpt lat="43.71289" lon="3.46533">
        <ele>437.5</ele>
        <time>2015-10-25T10:09:22Z</time>
      </trkpt>
      <trkpt lat="43.71291" lon="3.46533">
        <ele>437</ele>
        <time>2015-10-25T10:09:23Z</time>
      </trkpt>
      <trkpt lat="43.71293" lon="3.46532">
        <ele>437</ele>
        <time>2015-10-25T10:09:24Z</time>
      </trkpt>
      <trkpt lat="43.71294" lon="3.46531">
        <ele>437</ele>
        <time>2015-10-25T10:09:25Z</time>
      </trkpt>
      <trkpt lat="43.71296" lon="3.46531">
        <ele>437</ele>
        <time>2015-10-25T10:09:26Z</time>
      </trkpt>
      <trkpt lat="43.71298" lon="3.4653">
        <ele>436.5</ele>
        <time>2015-10-25T10:09:27Z</time>
      </trkpt>
      <trkpt lat="43.71299" lon="3.4653">
        <ele>437</ele>
        <time>2015-10-25T10:09:28Z</time>
      </trkpt>
      <trkpt lat="43.713" lon="3.46529">
        <ele>437</ele>
        <time>2015-10-25T10:09:29Z</time>
      </trkpt>
      <trkpt lat="43.71302" lon="3.46529">
        <ele>437</ele>
        <time>2015-10-25T10:09:30Z</time>
      </trkpt>
      <trkpt lat="43.71303" lon="3.46528">
        <ele>437.5</ele>
        <time>2015-10-25T10:09:31Z</time>
      </trkpt>
      <trkpt lat="43.71305" lon="3.46528">
        <ele>437.5</ele>
        <time>2015-10-25T10:09:32Z</time>
      </trkpt>
      <trkpt lat="43.71306" lon="3.46528">
        <ele>437.5</ele>
        <time>2015-10-25T10:09:33Z</time>
      </trkpt>
      <trkpt lat="43.71308" lon="3.46527">
        <ele>438</ele>
        <time>2015-10-25T10:09:34Z</time>
      </trkpt>
      <trkpt lat="43.71309" lon="3.46527">
        <ele>438</ele>
        <time>2015-10-25T10:09:35Z</time>
      </trkpt>
      <trkpt lat="43.71311" lon="3.46527">
        <ele>437.5</ele>
        <time>2015-10-25T10:09:36Z</time>
      </trkpt>
      <trkpt lat="43.71312" lon="3.46526">
        <ele>438</ele>
        <time>2015-10-25T10:09:37Z</time>
      </trkpt>
      <trkpt lat="43.71314" lon="3.46526">
        <ele>438</ele>
        <time>2015-10-25T10:09:38Z</time>
      </trkpt>
      <trkpt lat="43.71316" lon="3.46526">
        <ele>438</ele>
        <time>2015-10-25T10:09:39Z</time>
      </trkpt>
      <trkpt lat="43.71317" lon="3.46525">
        <ele>438.5</ele>
        <time>2015-10-25T10:09:40Z</time>
      </trkpt>
      <trkpt lat="43.71319" lon="3.46526">
        <ele>438.5</ele>
        <time>2015-10-25T10:09:41Z</time>
      </trkpt>
      <trkpt lat="43.71321" lon="3.46526">
        <ele>438.5</ele>
        <time>2015-10-25T10:09:42Z</time>
      </trkpt>
      <trkpt lat="43.71323" lon="3.46526">
        <ele>438.5</ele>
        <time>2015-10-25T10:09:43Z</time>
      </trkpt>
      <trkpt lat="43.71326" lon="3.46525">
        <ele>439.5</ele>
        <time>2015-10-25T10:09:45Z</time>
      </trkpt>
      <trkpt lat="43.71328" lon="3.46526">
        <ele>439</ele>
        <time>2015-10-25T10:09:46Z</time>
      </trkpt>
      <trkpt lat="43.71329" lon="3.46526">
        <ele>440.5</ele>
        <time>2015-10-25T10:09:47Z</time>
      </trkpt>
      <trkpt lat="43.71331" lon="3.46526">
        <ele>441</ele>
        <time>2015-10-25T10:09:48Z</time>
      </trkpt>
      <trkpt lat="43.71332" lon="3.46525">
        <ele>442</ele>
        <time>2015-10-25T10:09:49Z</time>
      </trkpt>
      <trkpt lat="43.71333" lon="3.46524">
        <ele>443</ele>
        <time>2015-10-25T10:09:50Z</time>
      </trkpt>
      <trkpt lat="43.71334" lon="3.46527">
        <ele>443</ele>
        <time>2015-10-25T10:09:51Z</time>
      </trkpt>
      <trkpt lat="43.71335" lon="3.46527">
        <ele>444.5</ele>
        <time>2015-10-25T10:09:52Z</time>
      </trkpt>
      <trkpt lat="43.71336" lon="3.46527">
        <ele>444.5</ele>
        <time>2015-10-25T10:09:53Z</time>
      </trkpt>
      <trkpt lat="43.71337" lon="3.46526">
        <ele>445</ele>
        <time>2015-10-25T10:09:54Z</time>
      </trkpt>
      <trkpt lat="43.71338" lon="3.46526">
        <ele>445.5</ele>
        <time>2015-10-25T10:09:55Z</time>
      </trkpt>
      <trkpt lat="43.71339" lon="3.46525">
        <ele>445.5</ele>
        <time>2015-10-25T10:09:56Z</time>
      </trkpt>
      <trkpt lat="43.71341" lon="3.46524">
        <ele>445</ele>
        <time>2015-10-25T10:09:57Z</time>
      </trkpt>
      <trkpt lat="43.71342" lon="3.46524">
        <ele>444.5</ele>
        <time>2015-10-25T10:09:58Z</time>
      </trkpt>
      <trkpt lat="43.71344" lon="3.46524">
        <ele>444</ele>
        <time>2015-10-25T10:09:59Z</time>
      </trkpt>
      <trkpt lat="43.71345" lon="3.46523">
        <ele>445.5</ele>
        <time>2015-10-25T10:10:00Z</time>
      </trkpt>
      <trkpt lat="43.71346" lon="3.46522">
        <ele>446.5</ele>
        <time>2015-10-25T10:10:01Z</time>
      </trkpt>
      <trkpt lat="43.71347" lon="3.46521">
        <ele>447.5</ele>
        <time>2015-10-25T10:10:02Z</time>
      </trkpt>
      <trkpt lat="43.71348" lon="3.4652">
        <ele>448</ele>
        <time>2015-10-25T10:10:03Z</time>
      </trkpt>
      <trkpt lat="43.7135" lon="3.4652">
        <ele>448</ele>
        <time>2015-10-25T10:10:04Z</time>
      </trkpt>
      <trkpt lat="43.71351" lon="3.46519">
        <ele>448.5</ele>
        <time>2015-10-25T10:10:05Z</time>
      </trkpt>
      <trkpt lat="43.71352" lon="3.46518">
        <ele>449.5</ele>
        <time>2015-10-25T10:10:06Z</time>
      </trkpt>
      <trkpt lat="43.71354" lon="3.46518">
        <ele>448.5</ele>
        <time>2015-10-25T10:10:07Z</time>
      </trkpt>
      <trkpt lat="43.71356" lon="3.46517">
        <ele>447.5</ele>
        <time>2015-10-25T10:10:08Z</time>
      </trkpt>
      <trkpt lat="43.71357" lon="3.46516">
        <ele>448</ele>
        <time>2015-10-25T10:10:09Z</time>
      </trkpt>
      <trkpt lat="43.71358" lon="3.46515">
        <ele>448.5</ele>
        <time>2015-10-25T10:10:10Z</time>
      </trkpt>
      <trkpt lat="43.71359" lon="3.46513">
        <ele>448</ele>
        <time>2015-10-25T10:10:11Z</time>
      </trkpt>
      <trkpt lat="43.71361" lon="3.46512">
        <ele>448</ele>
        <time>2015-10-25T10:10:12Z</time>
      </trkpt>
      <trkpt lat="43.71363" lon="3.46511">
        <ele>448</ele>
        <time>2015-10-25T10:10:13Z</time>
      </trkpt>
      <trkpt lat="43.71364" lon="3.4651">
        <ele>448</ele>
        <time>2015-10-25T10:10:14Z</time>
      </trkpt>
      <trkpt lat="43.71365" lon="3.46509">
        <ele>448</ele>
        <time>2015-10-25T10:10:15Z</time>
      </trkpt>
      <trkpt lat="43.71366" lon="3.46508">
        <ele>447.5</ele>
        <time>2015-10-25T10:10:16Z</time>
      </trkpt>
      <trkpt lat="43.71368" lon="3.46507">
        <ele>447.5</ele>
        <time>2015-10-25T10:10:17Z</time>
      </trkpt>
      <trkpt lat="43.71369" lon="3.46506">
        <ele>447</ele>
        <time>2015-10-25T10:10:18Z</time>
      </trkpt>
      <trkpt lat="43.71371" lon="3.46505">
        <ele>447</ele>
        <time>2015-10-25T10:10:19Z</time>
      </trkpt>
      <trkpt lat="43.71372" lon="3.46504">
        <ele>447</ele>
        <time>2015-10-25T10:10:20Z</time>
      </trkpt>
      <trkpt lat="43.71374" lon="3.46503">
        <ele>447</ele>
        <time>2015-10-25T10:10:21Z</time>
      </trkpt>
      <trkpt lat="43.71375" lon="3.46501">
        <ele>447</ele>
        <time>2015-10-25T10:10:22Z</time>
      </trkpt>
      <trkpt lat="43.71376" lon="3.465">
        <ele>446</ele>
        <time>2015-10-25T10:10:23Z</time>
      </trkpt>
      <trkpt lat="43.71378" lon="3.465">
        <ele>443</ele>
        <time>2015-10-25T10:10:24Z</time>
      </trkpt>
      <trkpt lat="43.7138" lon="3.46499">
        <ele>444.5</ele>
        <time>2015-10-25T10:10:25Z</time>
      </trkpt>
      <trkpt lat="43.71381" lon="3.46497">
        <ele>445</ele>
        <time>2015-10-25T10:10:26Z</time>
      </trkpt>
      <trkpt lat="43.71383" lon="3.46496">
        <ele>444.5</ele>
        <time>2015-10-25T10:10:27Z</time>
      </trkpt>
      <trkpt lat="43.71384" lon="3.46495">
        <ele>443.5</ele>
        <time>2015-10-25T10:10:28Z</time>
      </trkpt>
      <trkpt lat="43.71386" lon="3.46494">
        <ele>445</ele>
        <time>2015-10-25T10:10:29Z</time>
      </trkpt>
      <trkpt lat="43.71387" lon="3.46493">
        <ele>446</ele>
        <time>2015-10-25T10:10:30Z</time>
      </trkpt>
      <trkpt lat="43.71388" lon="3.46492">
        <ele>447</ele>
        <time>2015-10-25T10:10:31Z</time>
      </trkpt>
      <trkpt lat="43.71389" lon="3.4649">
        <ele>447.5</ele>
        <time>2015-10-25T10:10:32Z</time>
      </trkpt>
      <trkpt lat="43.7139" lon="3.46489">
        <ele>447</ele>
        <time>2015-10-25T10:10:33Z</time>
      </trkpt>
      <trkpt lat="43.71391" lon="3.46487">
        <ele>448.5</ele>
        <time>2015-10-25T10:10:34Z</time>
      </trkpt>
      <trkpt lat="43.71393" lon="3.46485">
        <ele>448.5</ele>
        <time>2015-10-25T10:10:35Z</time>
      </trkpt>
      <trkpt lat="43.71394" lon="3.46485">
        <ele>449</ele>
        <time>2015-10-25T10:10:36Z</time>
      </trkpt>
      <trkpt lat="43.71396" lon="3.46484">
        <ele>448</ele>
        <time>2015-10-25T10:10:37Z</time>
      </trkpt>
      <trkpt lat="43.71397" lon="3.46483">
        <ele>447.5</ele>
        <time>2015-10-25T10:10:38Z</time>
      </trkpt>
      <trkpt lat="43.71398" lon="3.46482">
        <ele>446.5</ele>
        <time>2015-10-25T10:10:39Z</time>
      </trkpt>
      <trkpt lat="43.714" lon="3.46481">
        <ele>445</ele>
        <time>2015-10-25T10:10:40Z</time>
      </trkpt>
      <trkpt lat="43.71401" lon="3.4648">
        <ele>445.5</ele>
        <time>2015-10-25T10:10:41Z</time>
      </trkpt>
      <trkpt lat="43.71401" lon="3.46478">
        <ele>446.5</ele>
        <time>2015-10-25T10:10:42Z</time>
      </trkpt>
      <trkpt lat="43.71402" lon="3.46476">
        <ele>446.5</ele>
        <time>2015-10-25T10:10:43Z</time>
      </trkpt>
      <trkpt lat="43.71403" lon="3.46474">
        <ele>447</ele>
        <time>2015-10-25T10:10:44Z</time>
      </trkpt>
      <trkpt lat="43.71404" lon="3.46472">
        <ele>448.5</ele>
        <time>2015-10-25T10:10:45Z</time>
      </trkpt>
      <trkpt lat="43.71404" lon="3.46471">
        <ele>448</ele>
        <time>2015-10-25T10:10:46Z</time>
      </trkpt>
      <trkpt lat="43.71405" lon="3.46468">
        <ele>447.5</ele>
        <time>2015-10-25T10:10:47Z</time>
      </trkpt>
      <trkpt lat="43.71405" lon="3.46466">
        <ele>448</ele>
        <time>2015-10-25T10:10:48Z</time>
      </trkpt>
      <trkpt lat="43.71405" lon="3.46464">
        <ele>448</ele>
        <time>2015-10-25T10:10:49Z</time>
      </trkpt>
      <trkpt lat="43.71405" lon="3.46463">
        <ele>448</ele>
        <time>2015-10-25T10:10:50Z</time>
      </trkpt>
      <trkpt lat="43.71405" lon="3.46462">
        <ele>448</ele>
        <time>2015-10-25T10:10:51Z</time>
      </trkpt>
      <trkpt lat="43.71404" lon="3.46461">
        <ele>448.5</ele>
        <time>2015-10-25T10:10:52Z</time>
      </trkpt>
      <trkpt lat="43.71403" lon="3.4646">
        <ele>448</ele>
        <time>2015-10-25T10:10:53Z</time>
      </trkpt>
      <trkpt lat="43.71402" lon="3.46459">
        <ele>448</ele>
        <time>2015-10-25T10:10:54Z</time>
      </trkpt>
      <trkpt lat="43.71402" lon="3.46459">
        <ele>446</ele>
        <time>2015-10-25T10:10:55Z</time>
      </trkpt>
      <trkpt lat="43.71401" lon="3.46458">
        <ele>444.5</ele>
        <time>2015-10-25T10:10:56Z</time>
      </trkpt>
      <trkpt lat="43.71401" lon="3.46457">
        <ele>443.5</ele>
        <time>2015-10-25T10:10:57Z</time>
      </trkpt>
      <trkpt lat="43.714" lon="3.46457">
        <ele>443</ele>
        <time>2015-10-25T10:10:58Z</time>
      </trkpt>
      <trkpt lat="43.71399" lon="3.46456">
        <ele>443.5</ele>
        <time>2015-10-25T10:10:59Z</time>
      </trkpt>
      <trkpt lat="43.71397" lon="3.46455">
        <ele>443.5</ele>
        <time>2015-10-25T10:11:00Z</time>
      </trkpt>
      <trkpt lat="43.71396" lon="3.46455">
        <ele>443.5</ele>
        <time>2015-10-25T10:11:01Z</time>
      </trkpt>
      <trkpt lat="43.71395" lon="3.46454">
        <ele>444.5</ele>
        <time>2015-10-25T10:11:02Z</time>
      </trkpt>
      <trkpt lat="43.71394" lon="3.46454">
        <ele>445</ele>
        <time>2015-10-25T10:11:03Z</time>
      </trkpt>
      <trkpt lat="43.71393" lon="3.46453">
        <ele>446</ele>
        <time>2015-10-25T10:11:04Z</time>
      </trkpt>
      <trkpt lat="43.71392" lon="3.46453">
        <ele>447</ele>
        <time>2015-10-25T10:11:05Z</time>
      </trkpt>
      <trkpt lat="43.7139" lon="3.46452">
        <ele>447</ele>
        <time>2015-10-25T10:11:06Z</time>
      </trkpt>
      <trkpt lat="43.7139" lon="3.46451">
        <ele>447.5</ele>
        <time>2015-10-25T10:11:07Z</time>
      </trkpt>
      <trkpt lat="43.71389" lon="3.46451">
        <ele>448.5</ele>
        <time>2015-10-25T10:11:08Z</time>
      </trkpt>
      <trkpt lat="43.71388" lon="3.46451">
        <ele>449.5</ele>
        <time>2015-10-25T10:11:09Z</time>
      </trkpt>
      <trkpt lat="43.71387" lon="3.46451">
        <ele>450.5</ele>
        <time>2015-10-25T10:11:10Z</time>
      </trkpt>
      <trkpt lat="43.71385" lon="3.4645">
        <ele>450.5</ele>
        <time>2015-10-25T10:11:11Z</time>
      </trkpt>
      <trkpt lat="43.71383" lon="3.46451">
        <ele>452</ele>
        <time>2015-10-25T10:11:12Z</time>
      </trkpt>
      <trkpt lat="43.71382" lon="3.4645">
        <ele>452</ele>
        <time>2015-10-25T10:11:13Z</time>
      </trkpt>
      <trkpt lat="43.7138" lon="3.46449">
        <ele>452.5</ele>
        <time>2015-10-25T10:11:14Z</time>
      </trkpt>
      <trkpt lat="43.71379" lon="3.46449">
        <ele>452.5</ele>
        <time>2015-10-25T10:11:15Z</time>
      </trkpt>
      <trkpt lat="43.71377" lon="3.4645">
        <ele>452.5</ele>
        <time>2015-10-25T10:11:16Z</time>
      </trkpt>
      <trkpt lat="43.71375" lon="3.4645">
        <ele>453</ele>
        <time>2015-10-25T10:11:17Z</time>
      </trkpt>
      <trkpt lat="43.71374" lon="3.4645">
        <ele>453.5</ele>
        <time>2015-10-25T10:11:18Z</time>
      </trkpt>
      <trkpt lat="43.71374" lon="3.4645">
        <ele>453.5</ele>
        <time>2015-10-25T10:11:19Z</time>
      </trkpt>
      <trkpt lat="43.71372" lon="3.4645">
        <ele>453</ele>
        <time>2015-10-25T10:11:20Z</time>
      </trkpt>
      <trkpt lat="43.7137" lon="3.4645">
        <ele>454</ele>
        <time>2015-10-25T10:11:21Z</time>
      </trkpt>
      <trkpt lat="43.71369" lon="3.46451">
        <ele>454.5</ele>
        <time>2015-10-25T10:11:22Z</time>
      </trkpt>
      <trkpt lat="43.71367" lon="3.46451">
        <ele>454.5</ele>
        <time>2015-10-25T10:11:23Z</time>
      </trkpt>
      <trkpt lat="43.71366" lon="3.46451">
        <ele>455</ele>
        <time>2015-10-25T10:11:24Z</time>
      </trkpt>
      <trkpt lat="43.71364" lon="3.46451">
        <ele>455</ele>
        <time>2015-10-25T10:11:25Z</time>
      </trkpt>
      <trkpt lat="43.71363" lon="3.46451">
        <ele>455</ele>
        <time>2015-10-25T10:11:26Z</time>
      </trkpt>
      <trkpt lat="43.71361" lon="3.46452">
        <ele>455</ele>
        <time>2015-10-25T10:11:27Z</time>
      </trkpt>
      <trkpt lat="43.71359" lon="3.46452">
        <ele>455</ele>
        <time>2015-10-25T10:11:28Z</time>
      </trkpt>
      <trkpt lat="43.71358" lon="3.46452">
        <ele>455</ele>
        <time>2015-10-25T10:11:29Z</time>
      </trkpt>
      <trkpt lat="43.71356" lon="3.46453">
        <ele>455</ele>
        <time>2015-10-25T10:11:30Z</time>
      </trkpt>
      <trkpt lat="43.71355" lon="3.46453">
        <ele>455</ele>
        <time>2015-10-25T10:11:31Z</time>
      </trkpt>
      <trkpt lat="43.71354" lon="3.46454">
        <ele>455.5</ele>
        <time>2015-10-25T10:11:31Z</time>
      </trkpt>
      <trkpt lat="43.71352" lon="3.46455">
        <ele>455</ele>
        <time>2015-10-25T10:11:32Z</time>
      </trkpt>
      <trkpt lat="43.7135" lon="3.46456">
        <ele>454.5</ele>
        <time>2015-10-25T10:11:33Z</time>
      </trkpt>
      <trkpt lat="43.7135" lon="3.46457">
        <ele>456.5</ele>
        <time>2015-10-25T10:11:34Z</time>
      </trkpt>
      <trkpt lat="43.71348" lon="3.46458">
        <ele>456.5</ele>
        <time>2015-10-25T10:11:35Z</time>
      </trkpt>
      <trkpt lat="43.71349" lon="3.46459">
        <ele>456.5</ele>
        <time>2015-10-25T10:11:36Z</time>
      </trkpt>
      <trkpt lat="43.71344" lon="3.46462">
        <ele>455.5</ele>
        <time>2015-10-25T10:11:38Z</time>
      </trkpt>
      <trkpt lat="43.71342" lon="3.46463">
        <ele>456.5</ele>
        <time>2015-10-25T10:11:39Z</time>
      </trkpt>
      <trkpt lat="43.71341" lon="3.46464">
        <ele>456.5</ele>
        <time>2015-10-25T10:11:40Z</time>
      </trkpt>
      <trkpt lat="43.71339" lon="3.46465">
        <ele>457</ele>
        <time>2015-10-25T10:11:41Z</time>
      </trkpt>
      <trkpt lat="43.71338" lon="3.46466">
        <ele>457.5</ele>
        <time>2015-10-25T10:11:42Z</time>
      </trkpt>
      <trkpt lat="43.71337" lon="3.46467">
        <ele>458</ele>
        <time>2015-10-25T10:11:43Z</time>
      </trkpt>
      <trkpt lat="43.71336" lon="3.46468">
        <ele>458</ele>
        <time>2015-10-25T10:11:44Z</time>
      </trkpt>
      <trkpt lat="43.71334" lon="3.4647">
        <ele>459</ele>
        <time>2015-10-25T10:11:45Z</time>
      </trkpt>
      <trkpt lat="43.71333" lon="3.46471">
        <ele>458.5</ele>
        <time>2015-10-25T10:11:46Z</time>
      </trkpt>
      <trkpt lat="43.7133" lon="3.46472">
        <ele>458.5</ele>
        <time>2015-10-25T10:11:47Z</time>
      </trkpt>
      <trkpt lat="43.71329" lon="3.46473">
        <ele>458.5</ele>
        <time>2015-10-25T10:11:48Z</time>
      </trkpt>
      <trkpt lat="43.71327" lon="3.46472">
        <ele>458.5</ele>
        <time>2015-10-25T10:11:49Z</time>
      </trkpt>
      <trkpt lat="43.71326" lon="3.46472">
        <ele>458.5</ele>
        <time>2015-10-25T10:11:50Z</time>
      </trkpt>
      <trkpt lat="43.71325" lon="3.46469">
        <ele>457</ele>
        <time>2015-10-25T10:11:51Z</time>
      </trkpt>
      <trkpt lat="43.71324" lon="3.46469">
        <ele>457</ele>
        <time>2015-10-25T10:11:52Z</time>
      </trkpt>
      <trkpt lat="43.71323" lon="3.4647">
        <ele>458.5</ele>
        <time>2015-10-25T10:11:53Z</time>
      </trkpt>
      <trkpt lat="43.71321" lon="3.4647">
        <ele>458.5</ele>
        <time>2015-10-25T10:11:54Z</time>
      </trkpt>
      <trkpt lat="43.71319" lon="3.4647">
        <ele>458.5</ele>
        <time>2015-10-25T10:11:55Z</time>
      </trkpt>
      <trkpt lat="43.71317" lon="3.4647">
        <ele>458.5</ele>
        <time>2015-10-25T10:11:56Z</time>
      </trkpt>
      <trkpt lat="43.71315" lon="3.4647">
        <ele>458.5</ele>
        <time>2015-10-25T10:11:57Z</time>
      </trkpt>
      <trkpt lat="43.71314" lon="3.4647">
        <ele>459.5</ele>
        <time>2015-10-25T10:11:58Z</time>
      </trkpt>
      <trkpt lat="43.71312" lon="3.4647">
        <ele>459.5</ele>
        <time>2015-10-25T10:11:59Z</time>
      </trkpt>
      <trkpt lat="43.7131" lon="3.4647">
        <ele>459</ele>
        <time>2015-10-25T10:12:00Z</time>
      </trkpt>
      <trkpt lat="43.71308" lon="3.4647">
        <ele>459</ele>
        <time>2015-10-25T10:12:01Z</time>
      </trkpt>
      <trkpt lat="43.71307" lon="3.4647">
        <ele>459</ele>
        <time>2015-10-25T10:12:02Z</time>
      </trkpt>
      <trkpt lat="43.71305" lon="3.4647">
        <ele>459.5</ele>
        <time>2015-10-25T10:12:03Z</time>
      </trkpt>
      <trkpt lat="43.71304" lon="3.4647">
        <ele>460</ele>
        <time>2015-10-25T10:12:04Z</time>
      </trkpt>
      <trkpt lat="43.71302" lon="3.46469">
        <ele>460</ele>
        <time>2015-10-25T10:12:05Z</time>
      </trkpt>
      <trkpt lat="43.71301" lon="3.46469">
        <ele>460</ele>
        <time>2015-10-25T10:12:06Z</time>
      </trkpt>
      <trkpt lat="43.71299" lon="3.46468">
        <ele>460</ele>
        <time>2015-10-25T10:12:07Z</time>
      </trkpt>
      <trkpt lat="43.71297" lon="3.46467">
        <ele>460</ele>
        <time>2015-10-25T10:12:08Z</time>
      </trkpt>
      <trkpt lat="43.71296" lon="3.46467">
        <ele>460.5</ele>
        <time>2015-10-25T10:12:09Z</time>
      </trkpt>
      <trkpt lat="43.71294" lon="3.46466">
        <ele>460.5</ele>
        <time>2015-10-25T10:12:10Z</time>
      </trkpt>
      <trkpt lat="43.71293" lon="3.46465">
        <ele>461</ele>
        <time>2015-10-25T10:12:11Z</time>
      </trkpt>
      <trkpt lat="43.71291" lon="3.46465">
        <ele>461</ele>
        <time>2015-10-25T10:12:12Z</time>
      </trkpt>
      <trkpt lat="43.7129" lon="3.46465">
        <ele>461.5</ele>
        <time>2015-10-25T10:12:13Z</time>
      </trkpt>
      <trkpt lat="43.71289" lon="3.46464">
        <ele>462</ele>
        <time>2015-10-25T10:12:14Z</time>
      </trkpt>
      <trkpt lat="43.71287" lon="3.46464">
        <ele>462.5</ele>
        <time>2015-10-25T10:12:15Z</time>
      </trkpt>
      <trkpt lat="43.71286" lon="3.46463">
        <ele>463</ele>
        <time>2015-10-25T10:12:16Z</time>
      </trkpt>
      <trkpt lat="43.71285" lon="3.46463">
        <ele>463</ele>
        <time>2015-10-25T10:12:17Z</time>
      </trkpt>
      <trkpt lat="43.71283" lon="3.46462">
        <ele>464</ele>
        <time>2015-10-25T10:12:18Z</time>
      </trkpt>
      <trkpt lat="43.71282" lon="3.46462">
        <ele>464.5</ele>
        <time>2015-10-25T10:12:19Z</time>
      </trkpt>
      <trkpt lat="43.7128" lon="3.46461">
        <ele>465</ele>
        <time>2015-10-25T10:12:20Z</time>
      </trkpt>
      <trkpt lat="43.71279" lon="3.4646">
        <ele>465.5</ele>
        <time>2015-10-25T10:12:21Z</time>
      </trkpt>
      <trkpt lat="43.71277" lon="3.4646">
        <ele>466.5</ele>
        <time>2015-10-25T10:12:22Z</time>
      </trkpt>
      <trkpt lat="43.71276" lon="3.46459">
        <ele>466.5</ele>
        <time>2015-10-25T10:12:23Z</time>
      </trkpt>
      <trkpt lat="43.71275" lon="3.46459">
        <ele>467</ele>
        <time>2015-10-25T10:12:24Z</time>
      </trkpt>
      <trkpt lat="43.71273" lon="3.46458">
        <ele>467</ele>
        <time>2015-10-25T10:12:25Z</time>
      </trkpt>
      <trkpt lat="43.71271" lon="3.46457">
        <ele>467</ele>
        <time>2015-10-25T10:12:26Z</time>
      </trkpt>
      <trkpt lat="43.71269" lon="3.46457">
        <ele>466.5</ele>
        <time>2015-10-25T10:12:27Z</time>
      </trkpt>
      <trkpt lat="43.71267" lon="3.46456">
        <ele>466</ele>
        <time>2015-10-25T10:12:28Z</time>
      </trkpt>
      <trkpt lat="43.71266" lon="3.46454">
        <ele>466</ele>
        <time>2015-10-25T10:12:29Z</time>
      </trkpt>
      <trkpt lat="43.71264" lon="3.46453">
        <ele>466</ele>
        <time>2015-10-25T10:12:30Z</time>
      </trkpt>
      <trkpt lat="43.71263" lon="3.46451">
        <ele>466</ele>
        <time>2015-10-25T10:12:31Z</time>
      </trkpt>
      <trkpt lat="43.71261" lon="3.4645">
        <ele>466</ele>
        <time>2015-10-25T10:12:32Z</time>
      </trkpt>
      <trkpt lat="43.7126" lon="3.46449">
        <ele>466.5</ele>
        <time>2015-10-25T10:12:33Z</time>
      </trkpt>
      <trkpt lat="43.71259" lon="3.46448">
        <ele>466</ele>
        <time>2015-10-25T10:12:34Z</time>
      </trkpt>
      <trkpt lat="43.71258" lon="3.46446">
        <ele>466</ele>
        <time>2015-10-25T10:12:35Z</time>
      </trkpt>
      <trkpt lat="43.71256" lon="3.46444">
        <ele>466</ele>
        <time>2015-10-25T10:12:36Z</time>
      </trkpt>
      <trkpt lat="43.71255" lon="3.46442">
        <ele>465</ele>
        <time>2015-10-25T10:12:37Z</time>
      </trkpt>
      <trkpt lat="43.71254" lon="3.46441">
        <ele>465</ele>
        <time>2015-10-25T10:12:38Z</time>
      </trkpt>
      <trkpt lat="43.71253" lon="3.4644">
        <ele>465</ele>
        <time>2015-10-25T10:12:39Z</time>
      </trkpt>
      <trkpt lat="43.71252" lon="3.46437">
        <ele>465</ele>
        <time>2015-10-25T10:12:40Z</time>
      </trkpt>
      <trkpt lat="43.71251" lon="3.46436">
        <ele>464.5</ele>
        <time>2015-10-25T10:12:41Z</time>
      </trkpt>
      <trkpt lat="43.7125" lon="3.46434">
        <ele>464</ele>
        <time>2015-10-25T10:12:42Z</time>
      </trkpt>
      <trkpt lat="43.71249" lon="3.46432">
        <ele>464.5</ele>
        <time>2015-10-25T10:12:43Z</time>
      </trkpt>
      <trkpt lat="43.71248" lon="3.4643">
        <ele>464</ele>
        <time>2015-10-25T10:12:44Z</time>
      </trkpt>
      <trkpt lat="43.71246" lon="3.46428">
        <ele>464</ele>
        <time>2015-10-25T10:12:45Z</time>
      </trkpt>
      <trkpt lat="43.71246" lon="3.46426">
        <ele>464</ele>
        <time>2015-10-25T10:12:46Z</time>
      </trkpt>
      <trkpt lat="43.71244" lon="3.46425">
        <ele>464.5</ele>
        <time>2015-10-25T10:12:47Z</time>
      </trkpt>
      <trkpt lat="43.71243" lon="3.46425">
        <ele>465</ele>
        <time>2015-10-25T10:12:48Z</time>
      </trkpt>
      <trkpt lat="43.71243" lon="3.46423">
        <ele>464.5</ele>
        <time>2015-10-25T10:12:49Z</time>
      </trkpt>
      <trkpt lat="43.71242" lon="3.46421">
        <ele>464.5</ele>
        <time>2015-10-25T10:12:50Z</time>
      </trkpt>
      <trkpt lat="43.71241" lon="3.4642">
        <ele>464.5</ele>
        <time>2015-10-25T10:12:51Z</time>
      </trkpt>
      <trkpt lat="43.7124" lon="3.46418">
        <ele>465</ele>
        <time>2015-10-25T10:12:52Z</time>
      </trkpt>
      <trkpt lat="43.7124" lon="3.46417">
        <ele>465</ele>
        <time>2015-10-25T10:12:53Z</time>
      </trkpt>
      <trkpt lat="43.71239" lon="3.46416">
        <ele>465</ele>
        <time>2015-10-25T10:12:54Z</time>
      </trkpt>
      <trkpt lat="43.71239" lon="3.46414">
        <ele>464.5</ele>
        <time>2015-10-25T10:12:55Z</time>
      </trkpt>
      <trkpt lat="43.71238" lon="3.46411">
        <ele>464</ele>
        <time>2015-10-25T10:12:56Z</time>
      </trkpt>
      <trkpt lat="43.71238" lon="3.46409">
        <ele>464</ele>
        <time>2015-10-25T10:12:57Z</time>
      </trkpt>
      <trkpt lat="43.71237" lon="3.46408">
        <ele>463.5</ele>
        <time>2015-10-25T10:12:58Z</time>
      </trkpt>
      <trkpt lat="43.71237" lon="3.46405">
        <ele>463.5</ele>
        <time>2015-10-25T10:12:59Z</time>
      </trkpt>
      <trkpt lat="43.71237" lon="3.46403">
        <ele>463</ele>
        <time>2015-10-25T10:13:00Z</time>
      </trkpt>
      <trkpt lat="43.71236" lon="3.46401">
        <ele>463</ele>
        <time>2015-10-25T10:13:01Z</time>
      </trkpt>
      <trkpt lat="43.71235" lon="3.46401">
        <ele>463.5</ele>
        <time>2015-10-25T10:13:02Z</time>
      </trkpt>
      <trkpt lat="43.71234" lon="3.464">
        <ele>464</ele>
        <time>2015-10-25T10:13:03Z</time>
      </trkpt>
      <trkpt lat="43.71235" lon="3.46397">
        <ele>463</ele>
        <time>2015-10-25T10:13:04Z</time>
      </trkpt>
      <trkpt lat="43.71234" lon="3.46394">
        <ele>463</ele>
        <time>2015-10-25T10:13:05Z</time>
      </trkpt>
      <trkpt lat="43.71234" lon="3.46393">
        <ele>463</ele>
        <time>2015-10-25T10:13:06Z</time>
      </trkpt>
      <trkpt lat="43.71234" lon="3.46391">
        <ele>463</ele>
        <time>2015-10-25T10:13:07Z</time>
      </trkpt>
      <trkpt lat="43.71233" lon="3.4639">
        <ele>463.5</ele>
        <time>2015-10-25T10:13:08Z</time>
      </trkpt>
      <trkpt lat="43.71232" lon="3.46388">
        <ele>464</ele>
        <time>2015-10-25T10:13:09Z</time>
      </trkpt>
      <trkpt lat="43.71232" lon="3.46386">
        <ele>463.5</ele>
        <time>2015-10-25T10:13:10Z</time>
      </trkpt>
      <trkpt lat="43.71231" lon="3.46384">
        <ele>463.5</ele>
        <time>2015-10-25T10:13:11Z</time>
      </trkpt>
      <trkpt lat="43.71231" lon="3.46382">
        <ele>463.5</ele>
        <time>2015-10-25T10:13:12Z</time>
      </trkpt>
      <trkpt lat="43.71229" lon="3.4638">
        <ele>465</ele>
        <time>2015-10-25T10:13:13Z</time>
      </trkpt>
      <trkpt lat="43.71229" lon="3.46378">
        <ele>465.5</ele>
        <time>2015-10-25T10:13:14Z</time>
      </trkpt>
      <trkpt lat="43.71228" lon="3.46375">
        <ele>465.5</ele>
        <time>2015-10-25T10:13:15Z</time>
      </trkpt>
      <trkpt lat="43.71227" lon="3.46372">
        <ele>465</ele>
        <time>2015-10-25T10:13:16Z</time>
      </trkpt>
      <trkpt lat="43.71227" lon="3.4637">
        <ele>464.5</ele>
        <time>2015-10-25T10:13:17Z</time>
      </trkpt>
      <trkpt lat="43.71225" lon="3.46368">
        <ele>465</ele>
        <time>2015-10-25T10:13:18Z</time>
      </trkpt>
      <trkpt lat="43.71224" lon="3.46366">
        <ele>466</ele>
        <time>2015-10-25T10:13:19Z</time>
      </trkpt>
      <trkpt lat="43.71222" lon="3.46364">
        <ele>466.5</ele>
        <time>2015-10-25T10:13:20Z</time>
      </trkpt>
      <trkpt lat="43.7122" lon="3.46363">
        <ele>467.5</ele>
        <time>2015-10-25T10:13:21Z</time>
      </trkpt>
      <trkpt lat="43.71219" lon="3.46362">
        <ele>468</ele>
        <time>2015-10-25T10:13:22Z</time>
      </trkpt>
      <trkpt lat="43.71218" lon="3.4636">
        <ele>468</ele>
        <time>2015-10-25T10:13:23Z</time>
      </trkpt>
      <trkpt lat="43.71218" lon="3.46358">
        <ele>468</ele>
        <time>2015-10-25T10:13:24Z</time>
      </trkpt>
      <trkpt lat="43.71218" lon="3.46356">
        <ele>468</ele>
        <time>2015-10-25T10:13:25Z</time>
      </trkpt>
      <trkpt lat="43.71218" lon="3.46355">
        <ele>468</ele>
        <time>2015-10-25T10:13:26Z</time>
      </trkpt>
      <trkpt lat="43.71218" lon="3.46353">
        <ele>468</ele>
        <time>2015-10-25T10:13:27Z</time>
      </trkpt>
      <trkpt lat="43.71218" lon="3.46351">
        <ele>467</ele>
        <time>2015-10-25T10:13:28Z</time>
      </trkpt>
      <trkpt lat="43.71217" lon="3.46349">
        <ele>467.5</ele>
        <time>2015-10-25T10:13:29Z</time>
      </trkpt>
      <trkpt lat="43.71217" lon="3.46346">
        <ele>467</ele>
        <time>2015-10-25T10:13:30Z</time>
      </trkpt>
      <trkpt lat="43.71217" lon="3.46343">
        <ele>466</ele>
        <time>2015-10-25T10:13:31Z</time>
      </trkpt>
      <trkpt lat="43.71217" lon="3.46341">
        <ele>466.5</ele>
        <time>2015-10-25T10:13:32Z</time>
      </trkpt>
      <trkpt lat="43.71217" lon="3.46339">
        <ele>467</ele>
        <time>2015-10-25T10:13:33Z</time>
      </trkpt>
      <trkpt lat="43.71216" lon="3.46336">
        <ele>466.5</ele>
        <time>2015-10-25T10:13:34Z</time>
      </trkpt>
      <trkpt lat="43.71216" lon="3.46334">
        <ele>465</ele>
        <time>2015-10-25T10:13:35Z</time>
      </trkpt>
      <trkpt lat="43.71216" lon="3.46332">
        <ele>465</ele>
        <time>2015-10-25T10:13:36Z</time>
      </trkpt>
      <trkpt lat="43.71216" lon="3.46329">
        <ele>464.5</ele>
        <time>2015-10-25T10:13:37Z</time>
      </trkpt>
      <trkpt lat="43.71216" lon="3.46326">
        <ele>464.5</ele>
        <time>2015-10-25T10:13:38Z</time>
      </trkpt>
      <trkpt lat="43.71216" lon="3.46324">
        <ele>464</ele>
        <time>2015-10-25T10:13:39Z</time>
      </trkpt>
      <trkpt lat="43.71216" lon="3.46322">
        <ele>464</ele>
        <time>2015-10-25T10:13:40Z</time>
      </trkpt>
      <trkpt lat="43.71215" lon="3.46321">
        <ele>465</ele>
        <time>2015-10-25T10:13:41Z</time>
      </trkpt>
      <trkpt lat="43.71215" lon="3.46319">
        <ele>466</ele>
        <time>2015-10-25T10:13:42Z</time>
      </trkpt>
      <trkpt lat="43.71214" lon="3.46317">
        <ele>466.5</ele>
        <time>2015-10-25T10:13:43Z</time>
      </trkpt>
      <trkpt lat="43.71213" lon="3.46316">
        <ele>466.5</ele>
        <time>2015-10-25T10:13:44Z</time>
      </trkpt>
      <trkpt lat="43.71213" lon="3.46314">
        <ele>466.5</ele>
        <time>2015-10-25T10:13:45Z</time>
      </trkpt>
      <trkpt lat="43.71212" lon="3.46312">
        <ele>467</ele>
        <time>2015-10-25T10:13:46Z</time>
      </trkpt>
      <trkpt lat="43.71211" lon="3.46311">
        <ele>467.5</ele>
        <time>2015-10-25T10:13:47Z</time>
      </trkpt>
      <trkpt lat="43.7121" lon="3.46309">
        <ele>468</ele>
        <time>2015-10-25T10:13:48Z</time>
      </trkpt>
      <trkpt lat="43.71209" lon="3.46308">
        <ele>470</ele>
        <time>2015-10-25T10:13:49Z</time>
      </trkpt>
      <trkpt lat="43.71207" lon="3.46307">
        <ele>472</ele>
        <time>2015-10-25T10:13:50Z</time>
      </trkpt>
      <trkpt lat="43.71206" lon="3.46307">
        <ele>473</ele>
        <time>2015-10-25T10:13:51Z</time>
      </trkpt>
      <trkpt lat="43.71204" lon="3.46306">
        <ele>474</ele>
        <time>2015-10-25T10:13:52Z</time>
      </trkpt>
      <trkpt lat="43.71203" lon="3.46306">
        <ele>475</ele>
        <time>2015-10-25T10:13:53Z</time>
      </trkpt>
      <trkpt lat="43.71202" lon="3.46305">
        <ele>475.5</ele>
        <time>2015-10-25T10:13:54Z</time>
      </trkpt>
      <trkpt lat="43.71201" lon="3.46305">
        <ele>476.5</ele>
        <time>2015-10-25T10:13:55Z</time>
      </trkpt>
      <trkpt lat="43.71196" lon="3.46306">
        <ele>476.5</ele>
        <time>2015-10-25T10:13:57Z</time>
      </trkpt>
      <trkpt lat="43.71194" lon="3.46306">
        <ele>476.5</ele>
        <time>2015-10-25T10:13:58Z</time>
      </trkpt>
      <trkpt lat="43.71193" lon="3.46306">
        <ele>476.5</ele>
        <time>2015-10-25T10:13:59Z</time>
      </trkpt>
      <trkpt lat="43.71192" lon="3.46306">
        <ele>477</ele>
        <time>2015-10-25T10:14:00Z</time>
      </trkpt>
      <trkpt lat="43.7119" lon="3.46305">
        <ele>477.5</ele>
        <time>2015-10-25T10:14:01Z</time>
      </trkpt>
      <trkpt lat="43.7119" lon="3.46303">
        <ele>477.5</ele>
        <time>2015-10-25T10:14:02Z</time>
      </trkpt>
      <trkpt lat="43.71188" lon="3.46303">
        <ele>478.5</ele>
        <time>2015-10-25T10:14:03Z</time>
      </trkpt>
      <trkpt lat="43.71188" lon="3.46303">
        <ele>479.5</ele>
        <time>2015-10-25T10:14:04Z</time>
      </trkpt>
      <trkpt lat="43.71186" lon="3.46302">
        <ele>479.5</ele>
        <time>2015-10-25T10:14:05Z</time>
      </trkpt>
      <trkpt lat="43.71185" lon="3.46302">
        <ele>480</ele>
        <time>2015-10-25T10:14:06Z</time>
      </trkpt>
      <trkpt lat="43.71183" lon="3.46302">
        <ele>480.5</ele>
        <time>2015-10-25T10:14:07Z</time>
      </trkpt>
      <trkpt lat="43.71182" lon="3.46301">
        <ele>480.5</ele>
        <time>2015-10-25T10:14:08Z</time>
      </trkpt>
      <trkpt lat="43.7118" lon="3.46301">
        <ele>480.5</ele>
        <time>2015-10-25T10:14:09Z</time>
      </trkpt>
      <trkpt lat="43.71178" lon="3.463">
        <ele>481</ele>
        <time>2015-10-25T10:14:10Z</time>
      </trkpt>
      <trkpt lat="43.71177" lon="3.463">
        <ele>481.5</ele>
        <time>2015-10-25T10:14:11Z</time>
      </trkpt>
      <trkpt lat="43.71176" lon="3.46299">
        <ele>482</ele>
        <time>2015-10-25T10:14:12Z</time>
      </trkpt>
      <trkpt lat="43.71175" lon="3.46299">
        <ele>483</ele>
        <time>2015-10-25T10:14:13Z</time>
      </trkpt>
      <trkpt lat="43.71174" lon="3.46299">
        <ele>483</ele>
        <time>2015-10-25T10:14:14Z</time>
      </trkpt>
      <trkpt lat="43.71173" lon="3.46299">
        <ele>482.5</ele>
        <time>2015-10-25T10:14:15Z</time>
      </trkpt>
      <trkpt lat="43.71172" lon="3.46299">
        <ele>483</ele>
        <time>2015-10-25T10:14:16Z</time>
      </trkpt>
      <trkpt lat="43.71171" lon="3.46298">
        <ele>483</ele>
        <time>2015-10-25T10:14:17Z</time>
      </trkpt>
      <trkpt lat="43.7117" lon="3.46298">
        <ele>483</ele>
        <time>2015-10-25T10:14:18Z</time>
      </trkpt>
      <trkpt lat="43.71169" lon="3.46298">
        <ele>483.5</ele>
        <time>2015-10-25T10:14:19Z</time>
      </trkpt>
      <trkpt lat="43.71168" lon="3.46298">
        <ele>484</ele>
        <time>2015-10-25T10:14:20Z</time>
      </trkpt>
      <trkpt lat="43.71167" lon="3.46297">
        <ele>484</ele>
        <time>2015-10-25T10:14:21Z</time>
      </trkpt>
      <trkpt lat="43.71166" lon="3.46297">
        <ele>484</ele>
        <time>2015-10-25T10:14:22Z</time>
      </trkpt>
      <trkpt lat="43.71164" lon="3.46297">
        <ele>484</ele>
        <time>2015-10-25T10:14:23Z</time>
      </trkpt>
      <trkpt lat="43.71163" lon="3.46296">
        <ele>484</ele>
        <time>2015-10-25T10:14:24Z</time>
      </trkpt>
      <trkpt lat="43.71161" lon="3.46296">
        <ele>484.5</ele>
        <time>2015-10-25T10:14:25Z</time>
      </trkpt>
      <trkpt lat="43.7116" lon="3.46295">
        <ele>484.5</ele>
        <time>2015-10-25T10:14:26Z</time>
      </trkpt>
      <trkpt lat="43.71159" lon="3.46294">
        <ele>484.5</ele>
        <time>2015-10-25T10:14:27Z</time>
      </trkpt>
      <trkpt lat="43.71157" lon="3.46294">
        <ele>485</ele>
        <time>2015-10-25T10:14:28Z</time>
      </trkpt>
      <trkpt lat="43.71156" lon="3.46294">
        <ele>485</ele>
        <time>2015-10-25T10:14:29Z</time>
      </trkpt>
      <trkpt lat="43.71154" lon="3.46293">
        <ele>485.5</ele>
        <time>2015-10-25T10:14:30Z</time>
      </trkpt>
      <trkpt lat="43.71153" lon="3.46293">
        <ele>485.5</ele>
        <time>2015-10-25T10:14:31Z</time>
      </trkpt>
      <trkpt lat="43.71152" lon="3.46292">
        <ele>486</ele>
        <time>2015-10-25T10:14:32Z</time>
      </trkpt>
      <trkpt lat="43.71151" lon="3.46292">
        <ele>486.5</ele>
        <time>2015-10-25T10:14:33Z</time>
      </trkpt>
      <trkpt lat="43.71149" lon="3.46291">
        <ele>486.5</ele>
        <time>2015-10-25T10:14:34Z</time>
      </trkpt>
      <trkpt lat="43.71148" lon="3.4629">
        <ele>486.5</ele>
        <time>2015-10-25T10:14:35Z</time>
      </trkpt>
      <trkpt lat="43.71146" lon="3.46289">
        <ele>486.5</ele>
        <time>2015-10-25T10:14:36Z</time>
      </trkpt>
      <trkpt lat="43.71145" lon="3.46289">
        <ele>486.5</ele>
        <time>2015-10-25T10:14:37Z</time>
      </trkpt>
      <trkpt lat="43.71143" lon="3.46289">
        <ele>486.5</ele>
        <time>2015-10-25T10:14:38Z</time>
      </trkpt>
      <trkpt lat="43.71142" lon="3.46288">
        <ele>486</ele>
        <time>2015-10-25T10:14:39Z</time>
      </trkpt>
      <trkpt lat="43.7114" lon="3.46287">
        <ele>485.5</ele>
        <time>2015-10-25T10:14:40Z</time>
      </trkpt>
      <trkpt lat="43.71138" lon="3.46286">
        <ele>485.5</ele>
        <time>2015-10-25T10:14:41Z</time>
      </trkpt>
      <trkpt lat="43.71136" lon="3.46285">
        <ele>485</ele>
        <time>2015-10-25T10:14:42Z</time>
      </trkpt>
      <trkpt lat="43.71135" lon="3.46284">
        <ele>485</ele>
        <time>2015-10-25T10:14:43Z</time>
      </trkpt>
      <trkpt lat="43.71134" lon="3.46283">
        <ele>485</ele>
        <time>2015-10-25T10:14:44Z</time>
      </trkpt>
      <trkpt lat="43.71132" lon="3.46282">
        <ele>485.5</ele>
        <time>2015-10-25T10:14:45Z</time>
      </trkpt>
      <trkpt lat="43.7113" lon="3.46281">
        <ele>486</ele>
        <time>2015-10-25T10:14:46Z</time>
      </trkpt>
      <trkpt lat="43.71128" lon="3.4628">
        <ele>485.5</ele>
        <time>2015-10-25T10:14:47Z</time>
      </trkpt>
      <trkpt lat="43.71125" lon="3.46279">
        <ele>485</ele>
        <time>2015-10-25T10:14:48Z</time>
      </trkpt>
      <trkpt lat="43.71123" lon="3.46277">
        <ele>485</ele>
        <time>2015-10-25T10:14:49Z</time>
      </trkpt>
      <trkpt lat="43.71121" lon="3.46277">
        <ele>485.5</ele>
        <time>2015-10-25T10:14:50Z</time>
      </trkpt>
      <trkpt lat="43.7112" lon="3.46276">
        <ele>485.5</ele>
        <time>2015-10-25T10:14:51Z</time>
      </trkpt>
      <trkpt lat="43.71118" lon="3.46276">
        <ele>485.5</ele>
        <time>2015-10-25T10:14:52Z</time>
      </trkpt>
      <trkpt lat="43.71117" lon="3.46275">
        <ele>485.5</ele>
        <time>2015-10-25T10:14:53Z</time>
      </trkpt>
      <trkpt lat="43.71116" lon="3.46274">
        <ele>485</ele>
        <time>2015-10-25T10:14:54Z</time>
      </trkpt>
      <trkpt lat="43.71114" lon="3.46273">
        <ele>486</ele>
        <time>2015-10-25T10:14:55Z</time>
      </trkpt>
      <trkpt lat="43.71113" lon="3.46272">
        <ele>486</ele>
        <time>2015-10-25T10:14:56Z</time>
      </trkpt>
      <trkpt lat="43.71112" lon="3.46271">
        <ele>486</ele>
        <time>2015-10-25T10:14:57Z</time>
      </trkpt>
      <trkpt lat="43.7111" lon="3.46272">
        <ele>487</ele>
        <time>2015-10-25T10:14:58Z</time>
      </trkpt>
      <trkpt lat="43.71108" lon="3.46271">
        <ele>487</ele>
        <time>2015-10-25T10:14:59Z</time>
      </trkpt>
      <trkpt lat="43.71106" lon="3.4627">
        <ele>487</ele>
        <time>2015-10-25T10:15:00Z</time>
      </trkpt>
      <trkpt lat="43.71105" lon="3.46269">
        <ele>487</ele>
        <time>2015-10-25T10:15:01Z</time>
      </trkpt>
      <trkpt lat="43.71103" lon="3.46267">
        <ele>487</ele>
        <time>2015-10-25T10:15:02Z</time>
      </trkpt>
      <trkpt lat="43.71102" lon="3.46266">
        <ele>487</ele>
        <time>2015-10-25T10:15:03Z</time>
      </trkpt>
      <trkpt lat="43.71101" lon="3.46264">
        <ele>487.5</ele>
        <time>2015-10-25T10:15:04Z</time>
      </trkpt>
      <trkpt lat="43.711" lon="3.46262">
        <ele>487</ele>
        <time>2015-10-25T10:15:05Z</time>
      </trkpt>
      <trkpt lat="43.71099" lon="3.46261">
        <ele>487</ele>
        <time>2015-10-25T10:15:06Z</time>
      </trkpt>
      <trkpt lat="43.71098" lon="3.4626">
        <ele>487</ele>
        <time>2015-10-25T10:15:06Z</time>
      </trkpt>
      <trkpt lat="43.71096" lon="3.46259">
        <ele>487.5</ele>
        <time>2015-10-25T10:15:07Z</time>
      </trkpt>
      <trkpt lat="43.71096" lon="3.46257">
        <ele>487.5</ele>
        <time>2015-10-25T10:15:08Z</time>
      </trkpt>
      <trkpt lat="43.71094" lon="3.46256">
        <ele>487</ele>
        <time>2015-10-25T10:15:09Z</time>
      </trkpt>
      <trkpt lat="43.71094" lon="3.46255">
        <ele>488</ele>
        <time>2015-10-25T10:15:10Z</time>
      </trkpt>
      <trkpt lat="43.71092" lon="3.46254">
        <ele>488.5</ele>
        <time>2015-10-25T10:15:11Z</time>
      </trkpt>
      <trkpt lat="43.71091" lon="3.46253">
        <ele>488.5</ele>
        <time>2015-10-25T10:15:12Z</time>
      </trkpt>
      <trkpt lat="43.71091" lon="3.46251">
        <ele>488.5</ele>
        <time>2015-10-25T10:15:13Z</time>
      </trkpt>
      <trkpt lat="43.7109" lon="3.4625">
        <ele>489</ele>
        <time>2015-10-25T10:15:14Z</time>
      </trkpt>
      <trkpt lat="43.71088" lon="3.46249">
        <ele>489</ele>
        <time>2015-10-25T10:15:15Z</time>
      </trkpt>
      <trkpt lat="43.71088" lon="3.46247">
        <ele>489</ele>
        <time>2015-10-25T10:15:16Z</time>
      </trkpt>
      <trkpt lat="43.71087" lon="3.46245">
        <ele>488.5</ele>
        <time>2015-10-25T10:15:17Z</time>
      </trkpt>
      <trkpt lat="43.71086" lon="3.46243">
        <ele>488.5</ele>
        <time>2015-10-25T10:15:18Z</time>
      </trkpt>
      <trkpt lat="43.71085" lon="3.46241">
        <ele>488</ele>
        <time>2015-10-25T10:15:19Z</time>
      </trkpt>
      <trkpt lat="43.71084" lon="3.46239">
        <ele>488</ele>
        <time>2015-10-25T10:15:20Z</time>
      </trkpt>
      <trkpt lat="43.71083" lon="3.46237">
        <ele>488</ele>
        <time>2015-10-25T10:15:21Z</time>
      </trkpt>
      <trkpt lat="43.71082" lon="3.46235">
        <ele>488</ele>
        <time>2015-10-25T10:15:22Z</time>
      </trkpt>
      <trkpt lat="43.71081" lon="3.46234">
        <ele>488</ele>
        <time>2015-10-25T10:15:23Z</time>
      </trkpt>
      <trkpt lat="43.7108" lon="3.46232">
        <ele>488</ele>
        <time>2015-10-25T10:15:24Z</time>
      </trkpt>
      <trkpt lat="43.71079" lon="3.4623">
        <ele>487</ele>
        <time>2015-10-25T10:15:25Z</time>
      </trkpt>
      <trkpt lat="43.71078" lon="3.46228">
        <ele>487</ele>
        <time>2015-10-25T10:15:26Z</time>
      </trkpt>
      <trkpt lat="43.71077" lon="3.46227">
        <ele>487</ele>
        <time>2015-10-25T10:15:27Z</time>
      </trkpt>
      <trkpt lat="43.71077" lon="3.46225">
        <ele>487</ele>
        <time>2015-10-25T10:15:28Z</time>
      </trkpt>
      <trkpt lat="43.71076" lon="3.46223">
        <ele>486.5</ele>
        <time>2015-10-25T10:15:29Z</time>
      </trkpt>
      <trkpt lat="43.71075" lon="3.46222">
        <ele>486.5</ele>
        <time>2015-10-25T10:15:30Z</time>
      </trkpt>
      <trkpt lat="43.71075" lon="3.4622">
        <ele>486</ele>
        <time>2015-10-25T10:15:31Z</time>
      </trkpt>
      <trkpt lat="43.71074" lon="3.46217">
        <ele>486</ele>
        <time>2015-10-25T10:15:32Z</time>
      </trkpt>
      <trkpt lat="43.71073" lon="3.46215">
        <ele>486</ele>
        <time>2015-10-25T10:15:33Z</time>
      </trkpt>
      <trkpt lat="43.71073" lon="3.46212">
        <ele>486</ele>
        <time>2015-10-25T10:15:34Z</time>
      </trkpt>
      <trkpt lat="43.71072" lon="3.4621">
        <ele>485.5</ele>
        <time>2015-10-25T10:15:35Z</time>
      </trkpt>
      <trkpt lat="43.71071" lon="3.46207">
        <ele>485</ele>
        <time>2015-10-25T10:15:36Z</time>
      </trkpt>
      <trkpt lat="43.71071" lon="3.46204">
        <ele>484.5</ele>
        <time>2015-10-25T10:15:37Z</time>
      </trkpt>
      <trkpt lat="43.7107" lon="3.46201">
        <ele>484</ele>
        <time>2015-10-25T10:15:38Z</time>
      </trkpt>
      <trkpt lat="43.7107" lon="3.46199">
        <ele>483.5</ele>
        <time>2015-10-25T10:15:39Z</time>
      </trkpt>
      <trkpt lat="43.7107" lon="3.46196">
        <ele>483</ele>
        <time>2015-10-25T10:15:40Z</time>
      </trkpt>
      <trkpt lat="43.71069" lon="3.46194">
        <ele>483</ele>
        <time>2015-10-25T10:15:41Z</time>
      </trkpt>
      <trkpt lat="43.71068" lon="3.46193">
        <ele>483</ele>
        <time>2015-10-25T10:15:42Z</time>
      </trkpt>
      <trkpt lat="43.71066" lon="3.46194">
        <ele>484</ele>
        <time>2015-10-25T10:15:43Z</time>
      </trkpt>
      <trkpt lat="43.71066" lon="3.46191">
        <ele>483.5</ele>
        <time>2015-10-25T10:15:44Z</time>
      </trkpt>
      <trkpt lat="43.71065" lon="3.4619">
        <ele>483.5</ele>
        <time>2015-10-25T10:15:45Z</time>
      </trkpt>
      <trkpt lat="43.71064" lon="3.46188">
        <ele>484</ele>
        <time>2015-10-25T10:15:46Z</time>
      </trkpt>
      <trkpt lat="43.71063" lon="3.46187">
        <ele>484.5</ele>
        <time>2015-10-25T10:15:47Z</time>
      </trkpt>
      <trkpt lat="43.71062" lon="3.46186">
        <ele>484.5</ele>
        <time>2015-10-25T10:15:48Z</time>
      </trkpt>
      <trkpt lat="43.71061" lon="3.46183">
        <ele>485</ele>
        <time>2015-10-25T10:15:49Z</time>
      </trkpt>
      <trkpt lat="43.7106" lon="3.46181">
        <ele>485</ele>
        <time>2015-10-25T10:15:50Z</time>
      </trkpt>
      <trkpt lat="43.71059" lon="3.4618">
        <ele>485.5</ele>
        <time>2015-10-25T10:15:51Z</time>
      </trkpt>
      <trkpt lat="43.71058" lon="3.46178">
        <ele>485.5</ele>
        <time>2015-10-25T10:15:52Z</time>
      </trkpt>
      <trkpt lat="43.71058" lon="3.46177">
        <ele>486</ele>
        <time>2015-10-25T10:15:53Z</time>
      </trkpt>
      <trkpt lat="43.71057" lon="3.46175">
        <ele>486</ele>
        <time>2015-10-25T10:15:54Z</time>
      </trkpt>
      <trkpt lat="43.71056" lon="3.46172">
        <ele>486</ele>
        <time>2015-10-25T10:15:55Z</time>
      </trkpt>
      <trkpt lat="43.71055" lon="3.4617">
        <ele>486</ele>
        <time>2015-10-25T10:15:56Z</time>
      </trkpt>
      <trkpt lat="43.71054" lon="3.46168">
        <ele>485.5</ele>
        <time>2015-10-25T10:15:57Z</time>
      </trkpt>
      <trkpt lat="43.71054" lon="3.46166">
        <ele>486</ele>
        <time>2015-10-25T10:15:58Z</time>
      </trkpt>
      <trkpt lat="43.71053" lon="3.46164">
        <ele>486</ele>
        <time>2015-10-25T10:15:59Z</time>
      </trkpt>
      <trkpt lat="43.71052" lon="3.46162">
        <ele>486.5</ele>
        <time>2015-10-25T10:16:00Z</time>
      </trkpt>
      <trkpt lat="43.7105" lon="3.4616">
        <ele>487</ele>
        <time>2015-10-25T10:16:01Z</time>
      </trkpt>
      <trkpt lat="43.71049" lon="3.46157">
        <ele>487.5</ele>
        <time>2015-10-25T10:16:02Z</time>
      </trkpt>
      <trkpt lat="43.71048" lon="3.46156">
        <ele>487.5</ele>
        <time>2015-10-25T10:16:03Z</time>
      </trkpt>
      <trkpt lat="43.71047" lon="3.46154">
        <ele>488</ele>
        <time>2015-10-25T10:16:04Z</time>
      </trkpt>
      <trkpt lat="43.71045" lon="3.46154">
        <ele>488</ele>
        <time>2015-10-25T10:16:05Z</time>
      </trkpt>
      <trkpt lat="43.71044" lon="3.46152">
        <ele>488.5</ele>
        <time>2015-10-25T10:16:06Z</time>
      </trkpt>
      <trkpt lat="43.71043" lon="3.4615">
        <ele>488.5</ele>
        <time>2015-10-25T10:16:07Z</time>
      </trkpt>
      <trkpt lat="43.71042" lon="3.46148">
        <ele>488.5</ele>
        <time>2015-10-25T10:16:08Z</time>
      </trkpt>
      <trkpt lat="43.71041" lon="3.46147">
        <ele>489</ele>
        <time>2015-10-25T10:16:09Z</time>
      </trkpt>
      <trkpt lat="43.7104" lon="3.46145">
        <ele>489.5</ele>
        <time>2015-10-25T10:16:10Z</time>
      </trkpt>
      <trkpt lat="43.71039" lon="3.46144">
        <ele>489.5</ele>
        <time>2015-10-25T10:16:11Z</time>
      </trkpt>
      <trkpt lat="43.71038" lon="3.46141">
        <ele>489.5</ele>
        <time>2015-10-25T10:16:12Z</time>
      </trkpt>
      <trkpt lat="43.71037" lon="3.46139">
        <ele>489.5</ele>
        <time>2015-10-25T10:16:13Z</time>
      </trkpt>
      <trkpt lat="43.71036" lon="3.46138">
        <ele>489.5</ele>
        <time>2015-10-25T10:16:14Z</time>
      </trkpt>
      <trkpt lat="43.71035" lon="3.46136">
        <ele>490</ele>
        <time>2015-10-25T10:16:15Z</time>
      </trkpt>
      <trkpt lat="43.71034" lon="3.46134">
        <ele>490</ele>
        <time>2015-10-25T10:16:16Z</time>
      </trkpt>
      <trkpt lat="43.71034" lon="3.46132">
        <ele>490</ele>
        <time>2015-10-25T10:16:17Z</time>
      </trkpt>
      <trkpt lat="43.71032" lon="3.46131">
        <ele>490.5</ele>
        <time>2015-10-25T10:16:18Z</time>
      </trkpt>
      <trkpt lat="43.71031" lon="3.46128">
        <ele>490.5</ele>
        <time>2015-10-25T10:16:19Z</time>
      </trkpt>
      <trkpt lat="43.7103" lon="3.46126">
        <ele>490.5</ele>
        <time>2015-10-25T10:16:20Z</time>
      </trkpt>
      <trkpt lat="43.7103" lon="3.46123">
        <ele>490.5</ele>
        <time>2015-10-25T10:16:21Z</time>
      </trkpt>
      <trkpt lat="43.71029" lon="3.46121">
        <ele>491</ele>
        <time>2015-10-25T10:16:22Z</time>
      </trkpt>
      <trkpt lat="43.71028" lon="3.46119">
        <ele>491</ele>
        <time>2015-10-25T10:16:23Z</time>
      </trkpt>
      <trkpt lat="43.71028" lon="3.46116">
        <ele>490.5</ele>
        <time>2015-10-25T10:16:24Z</time>
      </trkpt>
      <trkpt lat="43.71027" lon="3.46114">
        <ele>491</ele>
        <time>2015-10-25T10:16:25Z</time>
      </trkpt>
      <trkpt lat="43.71026" lon="3.46112">
        <ele>491.5</ele>
        <time>2015-10-25T10:16:26Z</time>
      </trkpt>
      <trkpt lat="43.71026" lon="3.46108">
        <ele>490.5</ele>
        <time>2015-10-25T10:16:27Z</time>
      </trkpt>
      <trkpt lat="43.71025" lon="3.46106">
        <ele>490.5</ele>
        <time>2015-10-25T10:16:28Z</time>
      </trkpt>
      <trkpt lat="43.71024" lon="3.46104">
        <ele>491</ele>
        <time>2015-10-25T10:16:29Z</time>
      </trkpt>
      <trkpt lat="43.71023" lon="3.46102">
        <ele>491.5</ele>
        <time>2015-10-25T10:16:30Z</time>
      </trkpt>
      <trkpt lat="43.71022" lon="3.461">
        <ele>492</ele>
        <time>2015-10-25T10:16:31Z</time>
      </trkpt>
      <trkpt lat="43.71021" lon="3.46098">
        <ele>492</ele>
        <time>2015-10-25T10:16:32Z</time>
      </trkpt>
      <trkpt lat="43.71019" lon="3.46097">
        <ele>493</ele>
        <time>2015-10-25T10:16:33Z</time>
      </trkpt>
      <trkpt lat="43.71019" lon="3.46095">
        <ele>493.5</ele>
        <time>2015-10-25T10:16:34Z</time>
      </trkpt>
      <trkpt lat="43.71017" lon="3.46094">
        <ele>493.5</ele>
        <time>2015-10-25T10:16:35Z</time>
      </trkpt>
      <trkpt lat="43.71017" lon="3.46092">
        <ele>493.5</ele>
        <time>2015-10-25T10:16:36Z</time>
      </trkpt>
      <trkpt lat="43.71016" lon="3.4609">
        <ele>493.5</ele>
        <time>2015-10-25T10:16:37Z</time>
      </trkpt>
      <trkpt lat="43.71016" lon="3.46088">
        <ele>493.5</ele>
        <time>2015-10-25T10:16:38Z</time>
      </trkpt>
      <trkpt lat="43.71015" lon="3.46086">
        <ele>494</ele>
        <time>2015-10-25T10:16:39Z</time>
      </trkpt>
      <trkpt lat="43.71014" lon="3.46084">
        <ele>494</ele>
        <time>2015-10-25T10:16:40Z</time>
      </trkpt>
      <trkpt lat="43.71014" lon="3.46082">
        <ele>494</ele>
        <time>2015-10-25T10:16:41Z</time>
      </trkpt>
      <trkpt lat="43.71013" lon="3.4608">
        <ele>494</ele>
        <time>2015-10-25T10:16:42Z</time>
      </trkpt>
      <trkpt lat="43.71013" lon="3.46078">
        <ele>493.5</ele>
        <time>2015-10-25T10:16:43Z</time>
      </trkpt>
      <trkpt lat="43.71013" lon="3.46075">
        <ele>494</ele>
        <time>2015-10-25T10:16:44Z</time>
      </trkpt>
      <trkpt lat="43.71012" lon="3.46073">
        <ele>493.5</ele>
        <time>2015-10-25T10:16:45Z</time>
      </trkpt>
      <trkpt lat="43.71012" lon="3.46071">
        <ele>493.5</ele>
        <time>2015-10-25T10:16:46Z</time>
      </trkpt>
      <trkpt lat="43.71011" lon="3.46069">
        <ele>493</ele>
        <time>2015-10-25T10:16:47Z</time>
      </trkpt>
      <trkpt lat="43.7101" lon="3.46067">
        <ele>493.5</ele>
        <time>2015-10-25T10:16:48Z</time>
      </trkpt>
      <trkpt lat="43.71009" lon="3.46065">
        <ele>494</ele>
        <time>2015-10-25T10:16:49Z</time>
      </trkpt>
      <trkpt lat="43.71009" lon="3.46063">
        <ele>494</ele>
        <time>2015-10-25T10:16:50Z</time>
      </trkpt>
      <trkpt lat="43.71008" lon="3.46061">
        <ele>494.5</ele>
        <time>2015-10-25T10:16:51Z</time>
      </trkpt>
      <trkpt lat="43.71007" lon="3.46059">
        <ele>494</ele>
        <time>2015-10-25T10:16:52Z</time>
      </trkpt>
      <trkpt lat="43.71007" lon="3.46057">
        <ele>494.5</ele>
        <time>2015-10-25T10:16:53Z</time>
      </trkpt>
      <trkpt lat="43.71006" lon="3.46056">
        <ele>495</ele>
        <time>2015-10-25T10:16:54Z</time>
      </trkpt>
      <trkpt lat="43.71005" lon="3.46054">
        <ele>495.5</ele>
        <time>2015-10-25T10:16:55Z</time>
      </trkpt>
      <trkpt lat="43.71004" lon="3.46052">
        <ele>495.5</ele>
        <time>2015-10-25T10:16:56Z</time>
      </trkpt>
      <trkpt lat="43.71003" lon="3.4605">
        <ele>496</ele>
        <time>2015-10-25T10:16:57Z</time>
      </trkpt>
      <trkpt lat="43.71003" lon="3.46048">
        <ele>496</ele>
        <time>2015-10-25T10:16:58Z</time>
      </trkpt>
      <trkpt lat="43.71002" lon="3.46046">
        <ele>496</ele>
        <time>2015-10-25T10:16:59Z</time>
      </trkpt>
      <trkpt lat="43.71001" lon="3.46044">
        <ele>496.5</ele>
        <time>2015-10-25T10:17:00Z</time>
      </trkpt>
      <trkpt lat="43.71001" lon="3.46041">
        <ele>496</ele>
        <time>2015-10-25T10:17:01Z</time>
      </trkpt>
      <trkpt lat="43.71" lon="3.46037">
        <ele>495.5</ele>
        <time>2015-10-25T10:17:02Z</time>
      </trkpt>
      <trkpt lat="43.70998" lon="3.46037">
        <ele>497</ele>
        <time>2015-10-25T10:17:03Z</time>
      </trkpt>
      <trkpt lat="43.70998" lon="3.46034">
        <ele>496</ele>
        <time>2015-10-25T10:17:04Z</time>
      </trkpt>
      <trkpt lat="43.70997" lon="3.46031">
        <ele>496.5</ele>
        <time>2015-10-25T10:17:05Z</time>
      </trkpt>
      <trkpt lat="43.70996" lon="3.46031">
        <ele>497.5</ele>
        <time>2015-10-25T10:17:06Z</time>
      </trkpt>
      <trkpt lat="43.70995" lon="3.46029">
        <ele>497.5</ele>
        <time>2015-10-25T10:17:07Z</time>
      </trkpt>
      <trkpt lat="43.70994" lon="3.46027">
        <ele>497.5</ele>
        <time>2015-10-25T10:17:08Z</time>
      </trkpt>
      <trkpt lat="43.70993" lon="3.46025">
        <ele>497.5</ele>
        <time>2015-10-25T10:17:09Z</time>
      </trkpt>
      <trkpt lat="43.70992" lon="3.46023">
        <ele>498</ele>
        <time>2015-10-25T10:17:10Z</time>
      </trkpt>
      <trkpt lat="43.70992" lon="3.46021">
        <ele>498</ele>
        <time>2015-10-25T10:17:11Z</time>
      </trkpt>
      <trkpt lat="43.70991" lon="3.46019">
        <ele>498</ele>
        <time>2015-10-25T10:17:12Z</time>
      </trkpt>
      <trkpt lat="43.70991" lon="3.46016">
        <ele>497.5</ele>
        <time>2015-10-25T10:17:13Z</time>
      </trkpt>
      <trkpt lat="43.7099" lon="3.46014">
        <ele>498</ele>
        <time>2015-10-25T10:17:14Z</time>
      </trkpt>
      <trkpt lat="43.70989" lon="3.46011">
        <ele>499</ele>
        <time>2015-10-25T10:17:15Z</time>
      </trkpt>
      <trkpt lat="43.70988" lon="3.46008">
        <ele>498.5</ele>
        <time>2015-10-25T10:17:16Z</time>
      </trkpt>
      <trkpt lat="43.70987" lon="3.46007">
        <ele>499.5</ele>
        <time>2015-10-25T10:17:17Z</time>
      </trkpt>
      <trkpt lat="43.70985" lon="3.46005">
        <ele>500</ele>
        <time>2015-10-25T10:17:18Z</time>
      </trkpt>
      <trkpt lat="43.70983" lon="3.46004">
        <ele>501</ele>
        <time>2015-10-25T10:17:19Z</time>
      </trkpt>
      <trkpt lat="43.70982" lon="3.46003">
        <ele>502</ele>
        <time>2015-10-25T10:17:20Z</time>
      </trkpt>
      <trkpt lat="43.7098" lon="3.46002">
        <ele>502.5</ele>
        <time>2015-10-25T10:17:21Z</time>
      </trkpt>
      <trkpt lat="43.70978" lon="3.46001">
        <ele>503</ele>
        <time>2015-10-25T10:17:22Z</time>
      </trkpt>
      <trkpt lat="43.70976" lon="3.46">
        <ele>503.5</ele>
        <time>2015-10-25T10:17:23Z</time>
      </trkpt>
      <trkpt lat="43.70975" lon="3.45999">
        <ele>504</ele>
        <time>2015-10-25T10:17:24Z</time>
      </trkpt>
      <trkpt lat="43.70973" lon="3.45998">
        <ele>504</ele>
        <time>2015-10-25T10:17:25Z</time>
      </trkpt>
      <trkpt lat="43.70972" lon="3.45996">
        <ele>504</ele>
        <time>2015-10-25T10:17:26Z</time>
      </trkpt>
      <trkpt lat="43.70971" lon="3.45995">
        <ele>504</ele>
        <time>2015-10-25T10:17:27Z</time>
      </trkpt>
      <trkpt lat="43.70969" lon="3.45993">
        <ele>504</ele>
        <time>2015-10-25T10:17:28Z</time>
      </trkpt>
      <trkpt lat="43.70969" lon="3.45991">
        <ele>503.5</ele>
        <time>2015-10-25T10:17:29Z</time>
      </trkpt>
      <trkpt lat="43.70969" lon="3.45989">
        <ele>504</ele>
        <time>2015-10-25T10:17:30Z</time>
      </trkpt>
      <trkpt lat="43.70969" lon="3.45988">
        <ele>504</ele>
        <time>2015-10-25T10:17:31Z</time>
      </trkpt>
      <trkpt lat="43.7097" lon="3.45987">
        <ele>504.5</ele>
        <time>2015-10-25T10:17:32Z</time>
      </trkpt>
      <trkpt lat="43.70971" lon="3.45986">
        <ele>505</ele>
        <time>2015-10-25T10:17:33Z</time>
      </trkpt>
      <trkpt lat="43.70973" lon="3.45985">
        <ele>505</ele>
        <time>2015-10-25T10:17:34Z</time>
      </trkpt>
      <trkpt lat="43.70974" lon="3.45985">
        <ele>504.5</ele>
        <time>2015-10-25T10:17:35Z</time>
      </trkpt>
      <trkpt lat="43.70976" lon="3.45985">
        <ele>504.5</ele>
        <time>2015-10-25T10:17:36Z</time>
      </trkpt>
      <trkpt lat="43.70977" lon="3.45986">
        <ele>504</ele>
        <time>2015-10-25T10:17:37Z</time>
      </trkpt>
      <trkpt lat="43.70978" lon="3.45986">
        <ele>504</ele>
        <time>2015-10-25T10:17:38Z</time>
      </trkpt>
      <trkpt lat="43.70981" lon="3.45986">
        <ele>503.5</ele>
        <time>2015-10-25T10:17:39Z</time>
      </trkpt>
      <trkpt lat="43.70982" lon="3.45987">
        <ele>503.5</ele>
        <time>2015-10-25T10:17:40Z</time>
      </trkpt>
      <trkpt lat="43.70983" lon="3.45988">
        <ele>503.5</ele>
        <time>2015-10-25T10:17:41Z</time>
      </trkpt>
      <trkpt lat="43.70984" lon="3.45989">
        <ele>503.5</ele>
        <time>2015-10-25T10:17:42Z</time>
      </trkpt>
      <trkpt lat="43.70985" lon="3.45989">
        <ele>504</ele>
        <time>2015-10-25T10:17:43Z</time>
      </trkpt>
      <trkpt lat="43.70987" lon="3.4599">
        <ele>504</ele>
        <time>2015-10-25T10:17:44Z</time>
      </trkpt>
      <trkpt lat="43.70988" lon="3.4599">
        <ele>504</ele>
        <time>2015-10-25T10:17:45Z</time>
      </trkpt>
      <trkpt lat="43.70989" lon="3.45991">
        <ele>504.5</ele>
        <time>2015-10-25T10:17:46Z</time>
      </trkpt>
      <trkpt lat="43.7099" lon="3.45992">
        <ele>504</ele>
        <time>2015-10-25T10:17:47Z</time>
      </trkpt>
      <trkpt lat="43.70991" lon="3.45993">
        <ele>504</ele>
        <time>2015-10-25T10:17:48Z</time>
      </trkpt>
      <trkpt lat="43.70992" lon="3.45994">
        <ele>505.5</ele>
        <time>2015-10-25T10:17:49Z</time>
      </trkpt>
      <trkpt lat="43.70993" lon="3.45995">
        <ele>505.5</ele>
        <time>2015-10-25T10:17:50Z</time>
      </trkpt>
      <trkpt lat="43.70994" lon="3.45997">
        <ele>505.5</ele>
        <time>2015-10-25T10:17:51Z</time>
      </trkpt>
      <trkpt lat="43.70995" lon="3.45998">
        <ele>505.5</ele>
        <time>2015-10-25T10:17:52Z</time>
      </trkpt>
      <trkpt lat="43.70997" lon="3.45999">
        <ele>506</ele>
        <time>2015-10-25T10:17:53Z</time>
      </trkpt>
      <trkpt lat="43.70998" lon="3.46">
        <ele>506</ele>
        <time>2015-10-25T10:17:54Z</time>
      </trkpt>
      <trkpt lat="43.70999" lon="3.46">
        <ele>507.5</ele>
        <time>2015-10-25T10:17:55Z</time>
      </trkpt>
      <trkpt lat="43.71001" lon="3.46002">
        <ele>507.5</ele>
        <time>2015-10-25T10:17:56Z</time>
      </trkpt>
      <trkpt lat="43.71002" lon="3.46003">
        <ele>508</ele>
        <time>2015-10-25T10:17:57Z</time>
      </trkpt>
      <trkpt lat="43.71003" lon="3.46004">
        <ele>508</ele>
        <time>2015-10-25T10:17:58Z</time>
      </trkpt>
      <trkpt lat="43.71004" lon="3.46005">
        <ele>508</ele>
        <time>2015-10-25T10:17:59Z</time>
      </trkpt>
      <trkpt lat="43.71005" lon="3.46007">
        <ele>507.5</ele>
        <time>2015-10-25T10:18:00Z</time>
      </trkpt>
      <trkpt lat="43.71007" lon="3.46009">
        <ele>507</ele>
        <time>2015-10-25T10:18:01Z</time>
      </trkpt>
      <trkpt lat="43.71008" lon="3.4601">
        <ele>507</ele>
        <time>2015-10-25T10:18:02Z</time>
      </trkpt>
      <trkpt lat="43.71009" lon="3.46012">
        <ele>507</ele>
        <time>2015-10-25T10:18:03Z</time>
      </trkpt>
      <trkpt lat="43.7101" lon="3.46013">
        <ele>507</ele>
        <time>2015-10-25T10:18:04Z</time>
      </trkpt>
      <trkpt lat="43.71011" lon="3.46015">
        <ele>505.5</ele>
        <time>2015-10-25T10:18:05Z</time>
      </trkpt>
      <trkpt lat="43.71012" lon="3.46016">
        <ele>506</ele>
        <time>2015-10-25T10:18:06Z</time>
      </trkpt>
      <trkpt lat="43.71011" lon="3.46017">
        <ele>507</ele>
        <time>2015-10-25T10:18:07Z</time>
      </trkpt>
      <trkpt lat="43.71013" lon="3.46019">
        <ele>506.5</ele>
        <time>2015-10-25T10:18:08Z</time>
      </trkpt>
      <trkpt lat="43.71013" lon="3.4602">
        <ele>507</ele>
        <time>2015-10-25T10:18:09Z</time>
      </trkpt>
      <trkpt lat="43.71014" lon="3.46021">
        <ele>507</ele>
        <time>2015-10-25T10:18:10Z</time>
      </trkpt>
      <trkpt lat="43.71015" lon="3.46021">
        <ele>507</ele>
        <time>2015-10-25T10:18:11Z</time>
      </trkpt>
      <trkpt lat="43.71015" lon="3.46023">
        <ele>508</ele>
        <time>2015-10-25T10:18:12Z</time>
      </trkpt>
      <trkpt lat="43.71016" lon="3.46023">
        <ele>508.5</ele>
        <time>2015-10-25T10:18:13Z</time>
      </trkpt>
      <trkpt lat="43.71018" lon="3.46025">
        <ele>510</ele>
        <time>2015-10-25T10:18:14Z</time>
      </trkpt>
      <trkpt lat="43.71019" lon="3.46027">
        <ele>509.5</ele>
        <time>2015-10-25T10:18:15Z</time>
      </trkpt>
      <trkpt lat="43.7102" lon="3.46029">
        <ele>509</ele>
        <time>2015-10-25T10:18:16Z</time>
      </trkpt>
      <trkpt lat="43.71021" lon="3.46031">
        <ele>509</ele>
        <time>2015-10-25T10:18:17Z</time>
      </trkpt>
      <trkpt lat="43.71022" lon="3.46033">
        <ele>509</ele>
        <time>2015-10-25T10:18:18Z</time>
      </trkpt>
      <trkpt lat="43.71023" lon="3.46036">
        <ele>508.5</ele>
        <time>2015-10-25T10:18:19Z</time>
      </trkpt>
      <trkpt lat="43.71023" lon="3.46038">
        <ele>508.5</ele>
        <time>2015-10-25T10:18:20Z</time>
      </trkpt>
      <trkpt lat="43.71024" lon="3.4604">
        <ele>509</ele>
        <time>2015-10-25T10:18:21Z</time>
      </trkpt>
      <trkpt lat="43.71026" lon="3.46042">
        <ele>508.5</ele>
        <time>2015-10-25T10:18:22Z</time>
      </trkpt>
      <trkpt lat="43.71027" lon="3.46045">
        <ele>509</ele>
        <time>2015-10-25T10:18:23Z</time>
      </trkpt>
      <trkpt lat="43.71028" lon="3.46047">
        <ele>509</ele>
        <time>2015-10-25T10:18:24Z</time>
      </trkpt>
      <trkpt lat="43.71029" lon="3.4605">
        <ele>509</ele>
        <time>2015-10-25T10:18:25Z</time>
      </trkpt>
      <trkpt lat="43.7103" lon="3.46052">
        <ele>509.5</ele>
        <time>2015-10-25T10:18:26Z</time>
      </trkpt>
      <trkpt lat="43.71031" lon="3.46054">
        <ele>510</ele>
        <time>2015-10-25T10:18:27Z</time>
      </trkpt>
      <trkpt lat="43.71032" lon="3.46056">
        <ele>510.5</ele>
        <time>2015-10-25T10:18:28Z</time>
      </trkpt>
      <trkpt lat="43.71033" lon="3.46057">
        <ele>511.5</ele>
        <time>2015-10-25T10:18:29Z</time>
      </trkpt>
      <trkpt lat="43.71034" lon="3.46058">
        <ele>513</ele>
        <time>2015-10-25T10:18:30Z</time>
      </trkpt>
      <trkpt lat="43.71035" lon="3.4606">
        <ele>513</ele>
        <time>2015-10-25T10:18:31Z</time>
      </trkpt>
      <trkpt lat="43.71037" lon="3.46062">
        <ele>511.5</ele>
        <time>2015-10-25T10:18:32Z</time>
      </trkpt>
      <trkpt lat="43.71038" lon="3.46064">
        <ele>512</ele>
        <time>2015-10-25T10:18:33Z</time>
      </trkpt>
      <trkpt lat="43.71039" lon="3.46066">
        <ele>511.5</ele>
        <time>2015-10-25T10:18:34Z</time>
      </trkpt>
      <trkpt lat="43.71041" lon="3.46067">
        <ele>511</ele>
        <time>2015-10-25T10:18:35Z</time>
      </trkpt>
      <trkpt lat="43.71042" lon="3.46068">
        <ele>511</ele>
        <time>2015-10-25T10:18:36Z</time>
      </trkpt>
      <trkpt lat="43.71043" lon="3.46069">
        <ele>510.5</ele>
        <time>2015-10-25T10:18:37Z</time>
      </trkpt>
      <trkpt lat="43.71044" lon="3.4607">
        <ele>510.5</ele>
        <time>2015-10-25T10:18:38Z</time>
      </trkpt>
      <trkpt lat="43.71046" lon="3.46072">
        <ele>511</ele>
        <time>2015-10-25T10:18:39Z</time>
      </trkpt>
      <trkpt lat="43.71046" lon="3.46072">
        <ele>512.5</ele>
        <time>2015-10-25T10:18:40Z</time>
      </trkpt>
      <trkpt lat="43.71048" lon="3.46074">
        <ele>512</ele>
        <time>2015-10-25T10:18:41Z</time>
      </trkpt>
      <trkpt lat="43.71049" lon="3.46076">
        <ele>511</ele>
        <time>2015-10-25T10:18:42Z</time>
      </trkpt>
      <trkpt lat="43.7105" lon="3.46077">
        <ele>511.5</ele>
        <time>2015-10-25T10:18:43Z</time>
      </trkpt>
      <trkpt lat="43.71052" lon="3.46079">
        <ele>511.5</ele>
        <time>2015-10-25T10:18:44Z</time>
      </trkpt>
      <trkpt lat="43.71053" lon="3.4608">
        <ele>511.5</ele>
        <time>2015-10-25T10:18:44Z</time>
      </trkpt>
      <trkpt lat="43.71053" lon="3.46082">
        <ele>511.5</ele>
        <time>2015-10-25T10:18:45Z</time>
      </trkpt>
      <trkpt lat="43.71053" lon="3.46083">
        <ele>511.5</ele>
        <time>2015-10-25T10:18:46Z</time>
      </trkpt>
      <trkpt lat="43.71054" lon="3.46086">
        <ele>511</ele>
        <time>2015-10-25T10:18:47Z</time>
      </trkpt>
      <trkpt lat="43.71056" lon="3.46089">
        <ele>509.5</ele>
        <time>2015-10-25T10:18:48Z</time>
      </trkpt>
      <trkpt lat="43.71057" lon="3.4609">
        <ele>511</ele>
        <time>2015-10-25T10:18:49Z</time>
      </trkpt>
      <trkpt lat="43.71058" lon="3.46092">
        <ele>512</ele>
        <time>2015-10-25T10:18:50Z</time>
      </trkpt>
      <trkpt lat="43.71062" lon="3.46097">
        <ele>510.5</ele>
        <time>2015-10-25T10:18:52Z</time>
      </trkpt>
      <trkpt lat="43.71064" lon="3.46099">
        <ele>510.5</ele>
        <time>2015-10-25T10:18:53Z</time>
      </trkpt>
      <trkpt lat="43.71065" lon="3.461">
        <ele>512</ele>
        <time>2015-10-25T10:18:54Z</time>
      </trkpt>
      <trkpt lat="43.71069" lon="3.46105">
        <ele>509</ele>
        <time>2015-10-25T10:18:56Z</time>
      </trkpt>
      <trkpt lat="43.7107" lon="3.46106">
        <ele>510</ele>
        <time>2015-10-25T10:18:57Z</time>
      </trkpt>
      <trkpt lat="43.71072" lon="3.46108">
        <ele>509.5</ele>
        <time>2015-10-25T10:18:58Z</time>
      </trkpt>
      <trkpt lat="43.71073" lon="3.46109">
        <ele>510.5</ele>
        <time>2015-10-25T10:18:59Z</time>
      </trkpt>
      <trkpt lat="43.71074" lon="3.46111">
        <ele>511.5</ele>
        <time>2015-10-25T10:19:00Z</time>
      </trkpt>
      <trkpt lat="43.71075" lon="3.46112">
        <ele>512.5</ele>
        <time>2015-10-25T10:19:02Z</time>
      </trkpt>
      <trkpt lat="43.71077" lon="3.46115">
        <ele>511</ele>
        <time>2015-10-25T10:19:02Z</time>
      </trkpt>
      <trkpt lat="43.71079" lon="3.46117">
        <ele>509.5</ele>
        <time>2015-10-25T10:19:03Z</time>
      </trkpt>
      <trkpt lat="43.71081" lon="3.46119">
        <ele>510</ele>
        <time>2015-10-25T10:19:04Z</time>
      </trkpt>
      <trkpt lat="43.71083" lon="3.46121">
        <ele>509</ele>
        <time>2015-10-25T10:19:05Z</time>
      </trkpt>
      <trkpt lat="43.71085" lon="3.46123">
        <ele>509</ele>
        <time>2015-10-25T10:19:06Z</time>
      </trkpt>
      <trkpt lat="43.71087" lon="3.46125">
        <ele>509</ele>
        <time>2015-10-25T10:19:07Z</time>
      </trkpt>
      <trkpt lat="43.71087" lon="3.46125">
        <ele>510</ele>
        <time>2015-10-25T10:19:08Z</time>
      </trkpt>
      <trkpt lat="43.71089" lon="3.46126">
        <ele>510.5</ele>
        <time>2015-10-25T10:19:09Z</time>
      </trkpt>
      <trkpt lat="43.7109" lon="3.46128">
        <ele>511</ele>
        <time>2015-10-25T10:19:10Z</time>
      </trkpt>
      <trkpt lat="43.71092" lon="3.46128">
        <ele>510.5</ele>
        <time>2015-10-25T10:19:11Z</time>
      </trkpt>
      <trkpt lat="43.71095" lon="3.46133">
        <ele>511</ele>
        <time>2015-10-25T10:19:13Z</time>
      </trkpt>
      <trkpt lat="43.71097" lon="3.46135">
        <ele>511.5</ele>
        <time>2015-10-25T10:19:14Z</time>
      </trkpt>
      <trkpt lat="43.71098" lon="3.46137">
        <ele>512</ele>
        <time>2015-10-25T10:19:15Z</time>
      </trkpt>
      <trkpt lat="43.71101" lon="3.46135">
        <ele>511.5</ele>
        <time>2015-10-25T10:19:16Z</time>
      </trkpt>
      <trkpt lat="43.71103" lon="3.46135">
        <ele>511.5</ele>
        <time>2015-10-25T10:19:17Z</time>
      </trkpt>
      <trkpt lat="43.71105" lon="3.46137">
        <ele>510</ele>
        <time>2015-10-25T10:19:18Z</time>
      </trkpt>
      <trkpt lat="43.71107" lon="3.46138">
        <ele>509.5</ele>
        <time>2015-10-25T10:19:19Z</time>
      </trkpt>
      <trkpt lat="43.71108" lon="3.46139">
        <ele>509</ele>
        <time>2015-10-25T10:19:20Z</time>
      </trkpt>
      <trkpt lat="43.7111" lon="3.46141">
        <ele>507.5</ele>
        <time>2015-10-25T10:19:21Z</time>
      </trkpt>
      <trkpt lat="43.71111" lon="3.46143">
        <ele>507.5</ele>
        <time>2015-10-25T10:19:22Z</time>
      </trkpt>
      <trkpt lat="43.71113" lon="3.46144">
        <ele>509</ele>
        <time>2015-10-25T10:19:23Z</time>
      </trkpt>
      <trkpt lat="43.71114" lon="3.46146">
        <ele>509.5</ele>
        <time>2015-10-25T10:19:24Z</time>
      </trkpt>
      <trkpt lat="43.71115" lon="3.46148">
        <ele>510</ele>
        <time>2015-10-25T10:19:25Z</time>
      </trkpt>
      <trkpt lat="43.7112" lon="3.46156">
        <ele>503</ele>
        <time>2015-10-25T10:19:27Z</time>
      </trkpt>
      <trkpt lat="43.71122" lon="3.46159">
        <ele>504</ele>
        <time>2015-10-25T10:19:28Z</time>
      </trkpt>
      <trkpt lat="43.71124" lon="3.46161">
        <ele>503.5</ele>
        <time>2015-10-25T10:19:29Z</time>
      </trkpt>
      <trkpt lat="43.71127" lon="3.46166">
        <ele>502</ele>
        <time>2015-10-25T10:19:31Z</time>
      </trkpt>
      <trkpt lat="43.71128" lon="3.46168">
        <ele>502.5</ele>
        <time>2015-10-25T10:19:32Z</time>
      </trkpt>
      <trkpt lat="43.71129" lon="3.4617">
        <ele>503</ele>
        <time>2015-10-25T10:19:33Z</time>
      </trkpt>
      <trkpt lat="43.71131" lon="3.46172">
        <ele>504</ele>
        <time>2015-10-25T10:19:34Z</time>
      </trkpt>
      <trkpt lat="43.71132" lon="3.46174">
        <ele>503</ele>
        <time>2015-10-25T10:19:35Z</time>
      </trkpt>
      <trkpt lat="43.71133" lon="3.46175">
        <ele>503</ele>
        <time>2015-10-25T10:19:36Z</time>
      </trkpt>
      <trkpt lat="43.71135" lon="3.46176">
        <ele>502.5</ele>
        <time>2015-10-25T10:19:37Z</time>
      </trkpt>
      <trkpt lat="43.71138" lon="3.46178">
        <ele>504</ele>
        <time>2015-10-25T10:19:39Z</time>
      </trkpt>
      <trkpt lat="43.7114" lon="3.4618">
        <ele>504.5</ele>
        <time>2015-10-25T10:19:40Z</time>
      </trkpt>
      <trkpt lat="43.71142" lon="3.46181">
        <ele>505.5</ele>
        <time>2015-10-25T10:19:41Z</time>
      </trkpt>
      <trkpt lat="43.71142" lon="3.46181">
        <ele>507.5</ele>
        <time>2015-10-25T10:19:42Z</time>
      </trkpt>
      <trkpt lat="43.71144" lon="3.46181">
        <ele>507.5</ele>
        <time>2015-10-25T10:19:43Z</time>
      </trkpt>
      <trkpt lat="43.71144" lon="3.46181">
        <ele>510.5</ele>
        <time>2015-10-25T10:19:44Z</time>
      </trkpt>
      <trkpt lat="43.71145" lon="3.4618">
        <ele>512</ele>
        <time>2015-10-25T10:19:45Z</time>
      </trkpt>
      <trkpt lat="43.71147" lon="3.4618">
        <ele>513.5</ele>
        <time>2015-10-25T10:19:46Z</time>
      </trkpt>
      <trkpt lat="43.71148" lon="3.4618">
        <ele>515</ele>
        <time>2015-10-25T10:19:47Z</time>
      </trkpt>
      <trkpt lat="43.7115" lon="3.4618">
        <ele>515</ele>
        <time>2015-10-25T10:19:48Z</time>
      </trkpt>
      <trkpt lat="43.71152" lon="3.46181">
        <ele>515</ele>
        <time>2015-10-25T10:19:49Z</time>
      </trkpt>
      <trkpt lat="43.71153" lon="3.46181">
        <ele>515.5</ele>
        <time>2015-10-25T10:19:50Z</time>
      </trkpt>
      <trkpt lat="43.71155" lon="3.46181">
        <ele>515.5</ele>
        <time>2015-10-25T10:19:51Z</time>
      </trkpt>
      <trkpt lat="43.71157" lon="3.4618">
        <ele>515</ele>
        <time>2015-10-25T10:19:52Z</time>
      </trkpt>
      <trkpt lat="43.71159" lon="3.4618">
        <ele>515</ele>
        <time>2015-10-25T10:19:53Z</time>
      </trkpt>
      <trkpt lat="43.7116" lon="3.4618">
        <ele>515</ele>
        <time>2015-10-25T10:19:54Z</time>
      </trkpt>
      <trkpt lat="43.71162" lon="3.4618">
        <ele>515.5</ele>
        <time>2015-10-25T10:19:55Z</time>
      </trkpt>
      <trkpt lat="43.71164" lon="3.4618">
        <ele>516.5</ele>
        <time>2015-10-25T10:19:56Z</time>
      </trkpt>
      <trkpt lat="43.71166" lon="3.4618">
        <ele>516</ele>
        <time>2015-10-25T10:19:57Z</time>
      </trkpt>
      <trkpt lat="43.71167" lon="3.4618">
        <ele>516</ele>
        <time>2015-10-25T10:19:58Z</time>
      </trkpt>
      <trkpt lat="43.71169" lon="3.4618">
        <ele>516.5</ele>
        <time>2015-10-25T10:19:59Z</time>
      </trkpt>
      <trkpt lat="43.71171" lon="3.46179">
        <ele>516.5</ele>
        <time>2015-10-25T10:20:00Z</time>
      </trkpt>
      <trkpt lat="43.71172" lon="3.46179">
        <ele>517.5</ele>
        <time>2015-10-25T10:20:01Z</time>
      </trkpt>
      <trkpt lat="43.71174" lon="3.46179">
        <ele>518</ele>
        <time>2015-10-25T10:20:02Z</time>
      </trkpt>
      <trkpt lat="43.71175" lon="3.46178">
        <ele>519.5</ele>
        <time>2015-10-25T10:20:03Z</time>
      </trkpt>
      <trkpt lat="43.71176" lon="3.46178">
        <ele>521</ele>
        <time>2015-10-25T10:20:04Z</time>
      </trkpt>
      <trkpt lat="43.71178" lon="3.46178">
        <ele>521</ele>
        <time>2015-10-25T10:20:05Z</time>
      </trkpt>
      <trkpt lat="43.71179" lon="3.46179">
        <ele>521</ele>
        <time>2015-10-25T10:20:06Z</time>
      </trkpt>
      <trkpt lat="43.71181" lon="3.46178">
        <ele>521.5</ele>
        <time>2015-10-25T10:20:07Z</time>
      </trkpt>
      <trkpt lat="43.71182" lon="3.46178">
        <ele>522.5</ele>
        <time>2015-10-25T10:20:08Z</time>
      </trkpt>
      <trkpt lat="43.71183" lon="3.46177">
        <ele>524</ele>
        <time>2015-10-25T10:20:09Z</time>
      </trkpt>
      <trkpt lat="43.71185" lon="3.46176">
        <ele>524.5</ele>
        <time>2015-10-25T10:20:10Z</time>
      </trkpt>
      <trkpt lat="43.71186" lon="3.46176">
        <ele>524</ele>
        <time>2015-10-25T10:20:11Z</time>
      </trkpt>
      <trkpt lat="43.71188" lon="3.46175">
        <ele>524</ele>
        <time>2015-10-25T10:20:12Z</time>
      </trkpt>
      <trkpt lat="43.71189" lon="3.46175">
        <ele>524</ele>
        <time>2015-10-25T10:20:13Z</time>
      </trkpt>
      <trkpt lat="43.7119" lon="3.46174">
        <ele>524</ele>
        <time>2015-10-25T10:20:14Z</time>
      </trkpt>
      <trkpt lat="43.71192" lon="3.46174">
        <ele>523.5</ele>
        <time>2015-10-25T10:20:15Z</time>
      </trkpt>
      <trkpt lat="43.71194" lon="3.46174">
        <ele>523.5</ele>
        <time>2015-10-25T10:20:16Z</time>
      </trkpt>
      <trkpt lat="43.71195" lon="3.46174">
        <ele>523.5</ele>
        <time>2015-10-25T10:20:17Z</time>
      </trkpt>
      <trkpt lat="43.71197" lon="3.46173">
        <ele>523</ele>
        <time>2015-10-25T10:20:18Z</time>
      </trkpt>
      <trkpt lat="43.71198" lon="3.46173">
        <ele>523.5</ele>
        <time>2015-10-25T10:20:19Z</time>
      </trkpt>
      <trkpt lat="43.71199" lon="3.46172">
        <ele>525</ele>
        <time>2015-10-25T10:20:20Z</time>
      </trkpt>
      <trkpt lat="43.712" lon="3.46172">
        <ele>527</ele>
        <time>2015-10-25T10:20:21Z</time>
      </trkpt>
      <trkpt lat="43.71201" lon="3.46172">
        <ele>526.5</ele>
        <time>2015-10-25T10:20:22Z</time>
      </trkpt>
      <trkpt lat="43.71203" lon="3.46172">
        <ele>526.5</ele>
        <time>2015-10-25T10:20:23Z</time>
      </trkpt>
      <trkpt lat="43.71204" lon="3.46172">
        <ele>526.5</ele>
        <time>2015-10-25T10:20:24Z</time>
      </trkpt>
      <trkpt lat="43.71206" lon="3.46171">
        <ele>527</ele>
        <time>2015-10-25T10:20:25Z</time>
      </trkpt>
      <trkpt lat="43.71207" lon="3.46171">
        <ele>527</ele>
        <time>2015-10-25T10:20:26Z</time>
      </trkpt>
      <trkpt lat="43.71209" lon="3.46171">
        <ele>526.5</ele>
        <time>2015-10-25T10:20:27Z</time>
      </trkpt>
      <trkpt lat="43.71211" lon="3.4617">
        <ele>526.5</ele>
        <time>2015-10-25T10:20:28Z</time>
      </trkpt>
      <trkpt lat="43.71212" lon="3.4617">
        <ele>527</ele>
        <time>2015-10-25T10:20:29Z</time>
      </trkpt>
      <trkpt lat="43.71214" lon="3.4617">
        <ele>527</ele>
        <time>2015-10-25T10:20:30Z</time>
      </trkpt>
      <trkpt lat="43.71215" lon="3.4617">
        <ele>527</ele>
        <time>2015-10-25T10:20:31Z</time>
      </trkpt>
      <trkpt lat="43.71216" lon="3.4617">
        <ele>528</ele>
        <time>2015-10-25T10:20:32Z</time>
      </trkpt>
      <trkpt lat="43.71217" lon="3.46169">
        <ele>529.5</ele>
        <time>2015-10-25T10:20:33Z</time>
      </trkpt>
      <trkpt lat="43.71218" lon="3.46167">
        <ele>530.5</ele>
        <time>2015-10-25T10:20:34Z</time>
      </trkpt>
      <trkpt lat="43.71218" lon="3.46166">
        <ele>530.5</ele>
        <time>2015-10-25T10:20:35Z</time>
      </trkpt>
      <trkpt lat="43.71218" lon="3.46165">
        <ele>530.5</ele>
        <time>2015-10-25T10:20:36Z</time>
      </trkpt>
      <trkpt lat="43.71218" lon="3.46163">
        <ele>530</ele>
        <time>2015-10-25T10:20:37Z</time>
      </trkpt>
      <trkpt lat="43.71219" lon="3.46162">
        <ele>529</ele>
        <time>2015-10-25T10:20:38Z</time>
      </trkpt>
      <trkpt lat="43.71218" lon="3.46162">
        <ele>529</ele>
        <time>2015-10-25T10:20:39Z</time>
      </trkpt>
      <trkpt lat="43.71218" lon="3.46161">
        <ele>528.5</ele>
        <time>2015-10-25T10:20:40Z</time>
      </trkpt>
      <trkpt lat="43.71217" lon="3.4616">
        <ele>527.5</ele>
        <time>2015-10-25T10:20:41Z</time>
      </trkpt>
      <trkpt lat="43.71218" lon="3.4616">
        <ele>525.5</ele>
        <time>2015-10-25T10:20:42Z</time>
      </trkpt>
      <trkpt lat="43.71218" lon="3.4616">
        <ele>524.5</ele>
        <time>2015-10-25T10:20:43Z</time>
      </trkpt>
      <trkpt lat="43.71218" lon="3.46161">
        <ele>523.5</ele>
        <time>2015-10-25T10:20:44Z</time>
      </trkpt>
      <trkpt lat="43.71218" lon="3.4616">
        <ele>522</ele>
        <time>2015-10-25T10:20:45Z</time>
      </trkpt>
      <trkpt lat="43.71217" lon="3.46159">
        <ele>521.5</ele>
        <time>2015-10-25T10:20:46Z</time>
      </trkpt>
      <trkpt lat="43.71216" lon="3.46159">
        <ele>521</ele>
        <time>2015-10-25T10:20:47Z</time>
      </trkpt>
      <trkpt lat="43.71215" lon="3.46158">
        <ele>519.5</ele>
        <time>2015-10-25T10:20:48Z</time>
      </trkpt>
      <trkpt lat="43.71214" lon="3.46157">
        <ele>519</ele>
        <time>2015-10-25T10:20:49Z</time>
      </trkpt>
      <trkpt lat="43.71213" lon="3.46157">
        <ele>518.5</ele>
        <time>2015-10-25T10:20:50Z</time>
      </trkpt>
      <trkpt lat="43.71212" lon="3.46156">
        <ele>518</ele>
        <time>2015-10-25T10:20:51Z</time>
      </trkpt>
      <trkpt lat="43.71212" lon="3.46154">
        <ele>517.5</ele>
        <time>2015-10-25T10:20:52Z</time>
      </trkpt>
      <trkpt lat="43.71211" lon="3.46154">
        <ele>517</ele>
        <time>2015-10-25T10:20:53Z</time>
      </trkpt>
      <trkpt lat="43.7121" lon="3.46154">
        <ele>517</ele>
        <time>2015-10-25T10:20:54Z</time>
      </trkpt>
      <trkpt lat="43.71209" lon="3.46154">
        <ele>516.5</ele>
        <time>2015-10-25T10:20:55Z</time>
      </trkpt>
      <trkpt lat="43.71208" lon="3.46154">
        <ele>517</ele>
        <time>2015-10-25T10:20:56Z</time>
      </trkpt>
      <trkpt lat="43.71208" lon="3.46153">
        <ele>517</ele>
        <time>2015-10-25T10:20:57Z</time>
      </trkpt>
      <trkpt lat="43.71207" lon="3.46153">
        <ele>516.5</ele>
        <time>2015-10-25T10:20:58Z</time>
      </trkpt>
      <trkpt lat="43.71207" lon="3.46153">
        <ele>516.5</ele>
        <time>2015-10-25T10:20:59Z</time>
      </trkpt>
      <trkpt lat="43.71206" lon="3.46152">
        <ele>516</ele>
        <time>2015-10-25T10:21:00Z</time>
      </trkpt>
      <trkpt lat="43.71205" lon="3.46152">
        <ele>516</ele>
        <time>2015-10-25T10:21:01Z</time>
      </trkpt>
      <trkpt lat="43.71205" lon="3.46151">
        <ele>516</ele>
        <time>2015-10-25T10:21:02Z</time>
      </trkpt>
      <trkpt lat="43.71204" lon="3.4615">
        <ele>516.5</ele>
        <time>2015-10-25T10:21:03Z</time>
      </trkpt>
      <trkpt lat="43.71203" lon="3.4615">
        <ele>516.5</ele>
        <time>2015-10-25T10:21:04Z</time>
      </trkpt>
      <trkpt lat="43.71203" lon="3.46149">
        <ele>517</ele>
        <time>2015-10-25T10:21:05Z</time>
      </trkpt>
      <trkpt lat="43.71202" lon="3.46148">
        <ele>517</ele>
        <time>2015-10-25T10:21:06Z</time>
      </trkpt>
      <trkpt lat="43.71201" lon="3.46148">
        <ele>517.5</ele>
        <time>2015-10-25T10:21:07Z</time>
      </trkpt>
      <trkpt lat="43.712" lon="3.46148">
        <ele>517.5</ele>
        <time>2015-10-25T10:21:08Z</time>
      </trkpt>
      <trkpt lat="43.71199" lon="3.46148">
        <ele>518</ele>
        <time>2015-10-25T10:21:09Z</time>
      </trkpt>
      <trkpt lat="43.71198" lon="3.46148">
        <ele>518.5</ele>
        <time>2015-10-25T10:21:10Z</time>
      </trkpt>
      <trkpt lat="43.71196" lon="3.46148">
        <ele>519.5</ele>
        <time>2015-10-25T10:21:11Z</time>
      </trkpt>
      <trkpt lat="43.71195" lon="3.46148">
        <ele>519.5</ele>
        <time>2015-10-25T10:21:12Z</time>
      </trkpt>
      <trkpt lat="43.71194" lon="3.46147">
        <ele>520</ele>
        <time>2015-10-25T10:21:13Z</time>
      </trkpt>
      <trkpt lat="43.71193" lon="3.46147">
        <ele>520</ele>
        <time>2015-10-25T10:21:14Z</time>
      </trkpt>
      <trkpt lat="43.71192" lon="3.46146">
        <ele>520</ele>
        <time>2015-10-25T10:21:15Z</time>
      </trkpt>
      <trkpt lat="43.7119" lon="3.46144">
        <ele>520</ele>
        <time>2015-10-25T10:21:16Z</time>
      </trkpt>
      <trkpt lat="43.71189" lon="3.46143">
        <ele>520.5</ele>
        <time>2015-10-25T10:21:17Z</time>
      </trkpt>
      <trkpt lat="43.71188" lon="3.46142">
        <ele>520.5</ele>
        <time>2015-10-25T10:21:18Z</time>
      </trkpt>
      <trkpt lat="43.71187" lon="3.46141">
        <ele>520.5</ele>
        <time>2015-10-25T10:21:19Z</time>
      </trkpt>
      <trkpt lat="43.71185" lon="3.4614">
        <ele>520.5</ele>
        <time>2015-10-25T10:21:20Z</time>
      </trkpt>
      <trkpt lat="43.71185" lon="3.46139">
        <ele>520.5</ele>
        <time>2015-10-25T10:21:21Z</time>
      </trkpt>
      <trkpt lat="43.71183" lon="3.46138">
        <ele>520.5</ele>
        <time>2015-10-25T10:21:22Z</time>
      </trkpt>
      <trkpt lat="43.71182" lon="3.46137">
        <ele>520.5</ele>
        <time>2015-10-25T10:21:23Z</time>
      </trkpt>
      <trkpt lat="43.7118" lon="3.46136">
        <ele>520.5</ele>
        <time>2015-10-25T10:21:24Z</time>
      </trkpt>
      <trkpt lat="43.71179" lon="3.46136">
        <ele>520.5</ele>
        <time>2015-10-25T10:21:25Z</time>
      </trkpt>
      <trkpt lat="43.71177" lon="3.46135">
        <ele>521</ele>
        <time>2015-10-25T10:21:26Z</time>
      </trkpt>
      <trkpt lat="43.71177" lon="3.46135">
        <ele>521</ele>
        <time>2015-10-25T10:21:27Z</time>
      </trkpt>
      <trkpt lat="43.71175" lon="3.46135">
        <ele>521</ele>
        <time>2015-10-25T10:21:28Z</time>
      </trkpt>
      <trkpt lat="43.71174" lon="3.46136">
        <ele>522.5</ele>
        <time>2015-10-25T10:21:29Z</time>
      </trkpt>
      <trkpt lat="43.71173" lon="3.46137">
        <ele>523.5</ele>
        <time>2015-10-25T10:21:30Z</time>
      </trkpt>
      <trkpt lat="43.71172" lon="3.46137">
        <ele>523.5</ele>
        <time>2015-10-25T10:21:31Z</time>
      </trkpt>
      <trkpt lat="43.7117" lon="3.46137">
        <ele>523.5</ele>
        <time>2015-10-25T10:21:32Z</time>
      </trkpt>
      <trkpt lat="43.71169" lon="3.46137">
        <ele>524.5</ele>
        <time>2015-10-25T10:21:33Z</time>
      </trkpt>
      <trkpt lat="43.71167" lon="3.46138">
        <ele>525</ele>
        <time>2015-10-25T10:21:34Z</time>
      </trkpt>
      <trkpt lat="43.71166" lon="3.46137">
        <ele>526</ele>
        <time>2015-10-25T10:21:35Z</time>
      </trkpt>
      <trkpt lat="43.71164" lon="3.46136">
        <ele>526.5</ele>
        <time>2015-10-25T10:21:36Z</time>
      </trkpt>
      <trkpt lat="43.71163" lon="3.46135">
        <ele>526.5</ele>
        <time>2015-10-25T10:21:37Z</time>
      </trkpt>
      <trkpt lat="43.71161" lon="3.46135">
        <ele>526.5</ele>
        <time>2015-10-25T10:21:38Z</time>
      </trkpt>
      <trkpt lat="43.71161" lon="3.46135">
        <ele>528</ele>
        <time>2015-10-25T10:21:39Z</time>
      </trkpt>
      <trkpt lat="43.7116" lon="3.46134">
        <ele>529</ele>
        <time>2015-10-25T10:21:40Z</time>
      </trkpt>
      <trkpt lat="43.7116" lon="3.46132">
        <ele>528</ele>
        <time>2015-10-25T10:21:41Z</time>
      </trkpt>
      <trkpt lat="43.71159" lon="3.46131">
        <ele>528</ele>
        <time>2015-10-25T10:21:42Z</time>
      </trkpt>
      <trkpt lat="43.71158" lon="3.46129">
        <ele>528.5</ele>
        <time>2015-10-25T10:21:43Z</time>
      </trkpt>
      <trkpt lat="43.71158" lon="3.46128">
        <ele>529.5</ele>
        <time>2015-10-25T10:21:44Z</time>
      </trkpt>
      <trkpt lat="43.71158" lon="3.46127">
        <ele>529</ele>
        <time>2015-10-25T10:21:45Z</time>
      </trkpt>
      <trkpt lat="43.71158" lon="3.46125">
        <ele>530</ele>
        <time>2015-10-25T10:21:46Z</time>
      </trkpt>
      <trkpt lat="43.71157" lon="3.46123">
        <ele>530</ele>
        <time>2015-10-25T10:21:47Z</time>
      </trkpt>
      <trkpt lat="43.71157" lon="3.46122">
        <ele>531</ele>
        <time>2015-10-25T10:21:48Z</time>
      </trkpt>
      <trkpt lat="43.71155" lon="3.4612">
        <ele>530.5</ele>
        <time>2015-10-25T10:21:49Z</time>
      </trkpt>
      <trkpt lat="43.71153" lon="3.46119">
        <ele>531</ele>
        <time>2015-10-25T10:21:50Z</time>
      </trkpt>
      <trkpt lat="43.71152" lon="3.46117">
        <ele>531</ele>
        <time>2015-10-25T10:21:51Z</time>
      </trkpt>
      <trkpt lat="43.71151" lon="3.46117">
        <ele>531.5</ele>
        <time>2015-10-25T10:21:52Z</time>
      </trkpt>
      <trkpt lat="43.7115" lon="3.46116">
        <ele>533</ele>
        <time>2015-10-25T10:21:53Z</time>
      </trkpt>
      <trkpt lat="43.71149" lon="3.46116">
        <ele>534</ele>
        <time>2015-10-25T10:21:54Z</time>
      </trkpt>
      <trkpt lat="43.71148" lon="3.46115">
        <ele>535</ele>
        <time>2015-10-25T10:21:55Z</time>
      </trkpt>
      <trkpt lat="43.71147" lon="3.46113">
        <ele>534.5</ele>
        <time>2015-10-25T10:21:56Z</time>
      </trkpt>
      <trkpt lat="43.71145" lon="3.46112">
        <ele>533.5</ele>
        <time>2015-10-25T10:21:57Z</time>
      </trkpt>
      <trkpt lat="43.71143" lon="3.4611">
        <ele>534</ele>
        <time>2015-10-25T10:21:58Z</time>
      </trkpt>
      <trkpt lat="43.71141" lon="3.46108">
        <ele>533.5</ele>
        <time>2015-10-25T10:21:59Z</time>
      </trkpt>
      <trkpt lat="43.7114" lon="3.46106">
        <ele>534</ele>
        <time>2015-10-25T10:22:00Z</time>
      </trkpt>
      <trkpt lat="43.71139" lon="3.46105">
        <ele>534.5</ele>
        <time>2015-10-25T10:22:01Z</time>
      </trkpt>
      <trkpt lat="43.71137" lon="3.46104">
        <ele>535.5</ele>
        <time>2015-10-25T10:22:02Z</time>
      </trkpt>
      <trkpt lat="43.71135" lon="3.46103">
        <ele>537</ele>
        <time>2015-10-25T10:22:03Z</time>
      </trkpt>
      <trkpt lat="43.71133" lon="3.46102">
        <ele>537.5</ele>
        <time>2015-10-25T10:22:04Z</time>
      </trkpt>
      <trkpt lat="43.71132" lon="3.461">
        <ele>538</ele>
        <time>2015-10-25T10:22:05Z</time>
      </trkpt>
      <trkpt lat="43.7113" lon="3.46098">
        <ele>539</ele>
        <time>2015-10-25T10:22:06Z</time>
      </trkpt>
      <trkpt lat="43.71129" lon="3.46097">
        <ele>539</ele>
        <time>2015-10-25T10:22:07Z</time>
      </trkpt>
      <trkpt lat="43.71128" lon="3.46094">
        <ele>538</ele>
        <time>2015-10-25T10:22:07Z</time>
      </trkpt>
      <trkpt lat="43.71126" lon="3.46092">
        <ele>538</ele>
        <time>2015-10-25T10:22:08Z</time>
      </trkpt>
      <trkpt lat="43.71125" lon="3.46091">
        <ele>538</ele>
        <time>2015-10-25T10:22:09Z</time>
      </trkpt>
      <trkpt lat="43.71124" lon="3.46089">
        <ele>538</ele>
        <time>2015-10-25T10:22:10Z</time>
      </trkpt>
      <trkpt lat="43.71124" lon="3.46087">
        <ele>538</ele>
        <time>2015-10-25T10:22:11Z</time>
      </trkpt>
      <trkpt lat="43.71125" lon="3.46085">
        <ele>538</ele>
        <time>2015-10-25T10:22:12Z</time>
      </trkpt>
      <trkpt lat="43.71125" lon="3.46083">
        <ele>538</ele>
        <time>2015-10-25T10:22:13Z</time>
      </trkpt>
      <trkpt lat="43.71126" lon="3.4608">
        <ele>538</ele>
        <time>2015-10-25T10:22:14Z</time>
      </trkpt>
      <trkpt lat="43.71128" lon="3.46079">
        <ele>537.5</ele>
        <time>2015-10-25T10:22:15Z</time>
      </trkpt>
      <trkpt lat="43.71129" lon="3.46078">
        <ele>537</ele>
        <time>2015-10-25T10:22:16Z</time>
      </trkpt>
      <trkpt lat="43.7113" lon="3.46077">
        <ele>537</ele>
        <time>2015-10-25T10:22:17Z</time>
      </trkpt>
      <trkpt lat="43.71131" lon="3.46078">
        <ele>536.5</ele>
        <time>2015-10-25T10:22:18Z</time>
      </trkpt>
      <trkpt lat="43.71131" lon="3.46078">
        <ele>537</ele>
        <time>2015-10-25T10:22:19Z</time>
      </trkpt>
      <trkpt lat="43.71132" lon="3.46079">
        <ele>538</ele>
        <time>2015-10-25T10:22:20Z</time>
      </trkpt>
      <trkpt lat="43.71133" lon="3.4608">
        <ele>538</ele>
        <time>2015-10-25T10:22:21Z</time>
      </trkpt>
      <trkpt lat="43.71134" lon="3.4608">
        <ele>538.5</ele>
        <time>2015-10-25T10:22:22Z</time>
      </trkpt>
      <trkpt lat="43.71135" lon="3.46081">
        <ele>539</ele>
        <time>2015-10-25T10:22:23Z</time>
      </trkpt>
      <trkpt lat="43.71135" lon="3.46081">
        <ele>539.5</ele>
        <time>2015-10-25T10:22:24Z</time>
      </trkpt>
      <trkpt lat="43.71136" lon="3.46081">
        <ele>540.5</ele>
        <time>2015-10-25T10:22:25Z</time>
      </trkpt>
      <trkpt lat="43.71137" lon="3.46081">
        <ele>541</ele>
        <time>2015-10-25T10:22:26Z</time>
      </trkpt>
      <trkpt lat="43.71138" lon="3.46081">
        <ele>541</ele>
        <time>2015-10-25T10:22:27Z</time>
      </trkpt>
      <trkpt lat="43.7114" lon="3.46082">
        <ele>540</ele>
        <time>2015-10-25T10:22:28Z</time>
      </trkpt>
      <trkpt lat="43.71141" lon="3.46083">
        <ele>540</ele>
        <time>2015-10-25T10:22:29Z</time>
      </trkpt>
      <trkpt lat="43.71142" lon="3.46083">
        <ele>540</ele>
        <time>2015-10-25T10:22:30Z</time>
      </trkpt>
      <trkpt lat="43.71144" lon="3.46084">
        <ele>540.5</ele>
        <time>2015-10-25T10:22:31Z</time>
      </trkpt>
      <trkpt lat="43.71144" lon="3.46084">
        <ele>540.5</ele>
        <time>2015-10-25T10:22:32Z</time>
      </trkpt>
      <trkpt lat="43.71145" lon="3.46084">
        <ele>540.5</ele>
        <time>2015-10-25T10:22:33Z</time>
      </trkpt>
      <trkpt lat="43.71147" lon="3.46084">
        <ele>540</ele>
        <time>2015-10-25T10:22:34Z</time>
      </trkpt>
      <trkpt lat="43.71148" lon="3.46085">
        <ele>540</ele>
        <time>2015-10-25T10:22:35Z</time>
      </trkpt>
      <trkpt lat="43.7115" lon="3.46084">
        <ele>541</ele>
        <time>2015-10-25T10:22:36Z</time>
      </trkpt>
      <trkpt lat="43.71151" lon="3.46084">
        <ele>541</ele>
        <time>2015-10-25T10:22:37Z</time>
      </trkpt>
      <trkpt lat="43.71153" lon="3.46084">
        <ele>542.5</ele>
        <time>2015-10-25T10:22:38Z</time>
      </trkpt>
      <trkpt lat="43.71154" lon="3.46083">
        <ele>542.5</ele>
        <time>2015-10-25T10:22:39Z</time>
      </trkpt>
      <trkpt lat="43.71156" lon="3.46083">
        <ele>541.5</ele>
        <time>2015-10-25T10:22:40Z</time>
      </trkpt>
      <trkpt lat="43.71156" lon="3.46082">
        <ele>541.5</ele>
        <time>2015-10-25T10:22:41Z</time>
      </trkpt>
      <trkpt lat="43.71157" lon="3.46082">
        <ele>542</ele>
        <time>2015-10-25T10:22:42Z</time>
      </trkpt>
      <trkpt lat="43.71158" lon="3.46082">
        <ele>543.5</ele>
        <time>2015-10-25T10:22:43Z</time>
      </trkpt>
      <trkpt lat="43.71159" lon="3.46083">
        <ele>542.5</ele>
        <time>2015-10-25T10:22:44Z</time>
      </trkpt>
      <trkpt lat="43.7116" lon="3.46084">
        <ele>542.5</ele>
        <time>2015-10-25T10:22:45Z</time>
      </trkpt>
      <trkpt lat="43.7116" lon="3.46085">
        <ele>542</ele>
        <time>2015-10-25T10:22:46Z</time>
      </trkpt>
      <trkpt lat="43.71161" lon="3.46085">
        <ele>542</ele>
        <time>2015-10-25T10:22:47Z</time>
      </trkpt>
      <trkpt lat="43.71162" lon="3.46086">
        <ele>542.5</ele>
        <time>2015-10-25T10:22:48Z</time>
      </trkpt>
      <trkpt lat="43.71163" lon="3.46086">
        <ele>542</ele>
        <time>2015-10-25T10:22:49Z</time>
      </trkpt>
      <trkpt lat="43.71164" lon="3.46086">
        <ele>541</ele>
        <time>2015-10-25T10:22:50Z</time>
      </trkpt>
      <trkpt lat="43.71166" lon="3.46087">
        <ele>539</ele>
        <time>2015-10-25T10:22:51Z</time>
      </trkpt>
      <trkpt lat="43.71167" lon="3.46087">
        <ele>541.5</ele>
        <time>2015-10-25T10:22:52Z</time>
      </trkpt>
      <trkpt lat="43.71168" lon="3.46088">
        <ele>542</ele>
        <time>2015-10-25T10:22:53Z</time>
      </trkpt>
      <trkpt lat="43.71169" lon="3.46087">
        <ele>543.5</ele>
        <time>2015-10-25T10:22:54Z</time>
      </trkpt>
      <trkpt lat="43.71169" lon="3.46087">
        <ele>544.5</ele>
        <time>2015-10-25T10:22:55Z</time>
      </trkpt>
      <trkpt lat="43.7117" lon="3.46086">
        <ele>546</ele>
        <time>2015-10-25T10:22:56Z</time>
      </trkpt>
      <trkpt lat="43.71171" lon="3.46085">
        <ele>547</ele>
        <time>2015-10-25T10:22:57Z</time>
      </trkpt>
      <trkpt lat="43.71172" lon="3.46085">
        <ele>548.5</ele>
        <time>2015-10-25T10:22:58Z</time>
      </trkpt>
      <trkpt lat="43.71173" lon="3.46083">
        <ele>550</ele>
        <time>2015-10-25T10:22:59Z</time>
      </trkpt>
      <trkpt lat="43.71175" lon="3.46083">
        <ele>550.5</ele>
        <time>2015-10-25T10:23:00Z</time>
      </trkpt>
      <trkpt lat="43.71176" lon="3.46081">
        <ele>552.5</ele>
        <time>2015-10-25T10:23:01Z</time>
      </trkpt>
      <trkpt lat="43.71177" lon="3.46079">
        <ele>554</ele>
        <time>2015-10-25T10:23:02Z</time>
      </trkpt>
      <trkpt lat="43.71179" lon="3.46077">
        <ele>554.5</ele>
        <time>2015-10-25T10:23:03Z</time>
      </trkpt>
      <trkpt lat="43.7118" lon="3.46075">
        <ele>554</ele>
        <time>2015-10-25T10:23:04Z</time>
      </trkpt>
      <trkpt lat="43.7118" lon="3.46075">
        <ele>555.5</ele>
        <time>2015-10-25T10:23:05Z</time>
      </trkpt>
      <trkpt lat="43.71181" lon="3.46073">
        <ele>557.5</ele>
        <time>2015-10-25T10:23:06Z</time>
      </trkpt>
      <trkpt lat="43.71181" lon="3.46071">
        <ele>559</ele>
        <time>2015-10-25T10:23:07Z</time>
      </trkpt>
      <trkpt lat="43.71182" lon="3.46069">
        <ele>560.5</ele>
        <time>2015-10-25T10:23:08Z</time>
      </trkpt>
      <trkpt lat="43.71183" lon="3.46068">
        <ele>561</ele>
        <time>2015-10-25T10:23:09Z</time>
      </trkpt>
      <trkpt lat="43.71184" lon="3.46066">
        <ele>562</ele>
        <time>2015-10-25T10:23:10Z</time>
      </trkpt>
      <trkpt lat="43.71184" lon="3.46065">
        <ele>562</ele>
        <time>2015-10-25T10:23:11Z</time>
      </trkpt>
      <trkpt lat="43.71185" lon="3.46066">
        <ele>560</ele>
        <time>2015-10-25T10:23:12Z</time>
      </trkpt>
      <trkpt lat="43.71186" lon="3.46065">
        <ele>560</ele>
        <time>2015-10-25T10:23:13Z</time>
      </trkpt>
      <trkpt lat="43.71186" lon="3.46066">
        <ele>559</ele>
        <time>2015-10-25T10:23:14Z</time>
      </trkpt>
      <trkpt lat="43.71187" lon="3.46066">
        <ele>558</ele>
        <time>2015-10-25T10:23:15Z</time>
      </trkpt>
      <trkpt lat="43.71187" lon="3.46066">
        <ele>559.5</ele>
        <time>2015-10-25T10:23:16Z</time>
      </trkpt>
      <trkpt lat="43.71187" lon="3.46066">
        <ele>558.5</ele>
        <time>2015-10-25T10:23:17Z</time>
      </trkpt>
      <trkpt lat="43.71188" lon="3.46066">
        <ele>556.5</ele>
        <time>2015-10-25T10:23:19Z</time>
      </trkpt>
      <trkpt lat="43.7119" lon="3.46067">
        <ele>551</ele>
        <time>2015-10-25T10:23:27Z</time>
      </trkpt>
      <trkpt lat="43.71191" lon="3.46069">
        <ele>550.5</ele>
        <time>2015-10-25T10:23:29Z</time>
      </trkpt>
      <trkpt lat="43.71195" lon="3.46078">
        <ele>545.5</ele>
        <time>2015-10-25T10:23:38Z</time>
      </trkpt>
      <trkpt lat="43.71195" lon="3.46077">
        <ele>544</ele>
        <time>2015-10-25T10:23:41Z</time>
      </trkpt>
      <trkpt lat="43.71195" lon="3.46077">
        <ele>543.5</ele>
        <time>2015-10-25T10:23:42Z</time>
      </trkpt>
      <trkpt lat="43.71195" lon="3.46077">
        <ele>542.5</ele>
        <time>2015-10-25T10:23:43Z</time>
      </trkpt>
      <trkpt lat="43.71194" lon="3.46078">
        <ele>542</ele>
        <time>2015-10-25T10:23:44Z</time>
      </trkpt>
      <trkpt lat="43.71193" lon="3.46078">
        <ele>542</ele>
        <time>2015-10-25T10:23:45Z</time>
      </trkpt>
      <trkpt lat="43.71193" lon="3.46077">
        <ele>541</ele>
        <time>2015-10-25T10:23:46Z</time>
      </trkpt>
      <trkpt lat="43.71193" lon="3.46078">
        <ele>540</ele>
        <time>2015-10-25T10:23:47Z</time>
      </trkpt>
      <trkpt lat="43.71194" lon="3.46081">
        <ele>537.5</ele>
        <time>2015-10-25T10:23:55Z</time>
      </trkpt>
      <trkpt lat="43.71195" lon="3.46082">
        <ele>537</ele>
        <time>2015-10-25T10:23:56Z</time>
      </trkpt>
      <trkpt lat="43.71196" lon="3.46084">
        <ele>537.5</ele>
        <time>2015-10-25T10:24:04Z</time>
      </trkpt>
      <trkpt lat="43.71198" lon="3.46085">
        <ele>539</ele>
        <time>2015-10-25T10:24:10Z</time>
      </trkpt>
      <trkpt lat="43.71198" lon="3.46086">
        <ele>539</ele>
        <time>2015-10-25T10:24:11Z</time>
      </trkpt>
      <trkpt lat="43.71199" lon="3.46088">
        <ele>539</ele>
        <time>2015-10-25T10:24:12Z</time>
      </trkpt>
      <trkpt lat="43.71199" lon="3.46089">
        <ele>539</ele>
        <time>2015-10-25T10:24:13Z</time>
      </trkpt>
      <trkpt lat="43.71199" lon="3.46089">
        <ele>539</ele>
        <time>2015-10-25T10:24:14Z</time>
      </trkpt>
      <trkpt lat="43.71199" lon="3.4609">
        <ele>539</ele>
        <time>2015-10-25T10:24:15Z</time>
      </trkpt>
      <trkpt lat="43.71199" lon="3.4609">
        <ele>539</ele>
        <time>2015-10-25T10:24:16Z</time>
      </trkpt>
      <trkpt lat="43.712" lon="3.46089">
        <ele>539</ele>
        <time>2015-10-25T10:24:17Z</time>
      </trkpt>
      <trkpt lat="43.71201" lon="3.46087">
        <ele>539.5</ele>
        <time>2015-10-25T10:24:21Z</time>
      </trkpt>
      <trkpt lat="43.71203" lon="3.46086">
        <ele>540.5</ele>
        <time>2015-10-25T10:24:23Z</time>
      </trkpt>
      <trkpt lat="43.71203" lon="3.46086">
        <ele>540.5</ele>
        <time>2015-10-25T10:24:24Z</time>
      </trkpt>
      <trkpt lat="43.71205" lon="3.4608">
        <ele>540.5</ele>
        <time>2015-10-25T10:24:35Z</time>
      </trkpt>
      <trkpt lat="43.71204" lon="3.4608">
        <ele>540.5</ele>
        <time>2015-10-25T10:24:36Z</time>
      </trkpt>
      <trkpt lat="43.71203" lon="3.46077">
        <ele>540.5</ele>
        <time>2015-10-25T10:24:43Z</time>
      </trkpt>
      <trkpt lat="43.71203" lon="3.46076">
        <ele>540.5</ele>
        <time>2015-10-25T10:24:44Z</time>
      </trkpt>
      <trkpt lat="43.71203" lon="3.46075">
        <ele>540</ele>
        <time>2015-10-25T10:24:45Z</time>
      </trkpt>
      <trkpt lat="43.71202" lon="3.46072">
        <ele>540</ele>
        <time>2015-10-25T10:24:47Z</time>
      </trkpt>
      <trkpt lat="43.71202" lon="3.46071">
        <ele>539.5</ele>
        <time>2015-10-25T10:24:48Z</time>
      </trkpt>
      <trkpt lat="43.71202" lon="3.46069">
        <ele>538.5</ele>
        <time>2015-10-25T10:24:54Z</time>
      </trkpt>
      <trkpt lat="43.71203" lon="3.46071">
        <ele>538.5</ele>
        <time>2015-10-25T10:24:55Z</time>
      </trkpt>
      <trkpt lat="43.71202" lon="3.4607">
        <ele>539</ele>
        <time>2015-10-25T10:24:57Z</time>
      </trkpt>
      <trkpt lat="43.71201" lon="3.46072">
        <ele>542</ele>
        <time>2015-10-25T10:24:59Z</time>
      </trkpt>
      <trkpt lat="43.71201" lon="3.46072">
        <ele>542.5</ele>
        <time>2015-10-25T10:25:00Z</time>
      </trkpt>
      <trkpt lat="43.71199" lon="3.46073">
        <ele>547.5</ele>
        <time>2015-10-25T10:24:31Z</time>
      </trkpt>
      <trkpt lat="43.71199" lon="3.46073">
        <ele>547.5</ele>
        <time>2015-10-25T10:24:32Z</time>
      </trkpt>
      <trkpt lat="43.71202" lon="3.46074">
        <ele>549</ele>
        <time>2015-10-25T10:24:19Z</time>
      </trkpt>
      <trkpt lat="43.71203" lon="3.46073">
        <ele>548</ele>
        <time>2015-10-25T10:24:20Z</time>
      </trkpt>
      <trkpt lat="43.71205" lon="3.46073">
        <ele>546.5</ele>
        <time>2015-10-25T10:24:21Z</time>
      </trkpt>
      <trkpt lat="43.71206" lon="3.46072">
        <ele>548.5</ele>
        <time>2015-10-25T10:24:22Z</time>
      </trkpt>
      <trkpt lat="43.71207" lon="3.46071">
        <ele>548.5</ele>
        <time>2015-10-25T10:24:23Z</time>
      </trkpt>
      <trkpt lat="43.71208" lon="3.46068">
        <ele>550.5</ele>
        <time>2015-10-25T10:24:24Z</time>
      </trkpt>
      <trkpt lat="43.71209" lon="3.46066">
        <ele>551.5</ele>
        <time>2015-10-25T10:24:25Z</time>
      </trkpt>
      <trkpt lat="43.7121" lon="3.46063">
        <ele>551.5</ele>
        <time>2015-10-25T10:24:26Z</time>
      </trkpt>
      <trkpt lat="43.7121" lon="3.46062">
        <ele>552.5</ele>
        <time>2015-10-25T10:24:27Z</time>
      </trkpt>
      <trkpt lat="43.71211" lon="3.4606">
        <ele>553.5</ele>
        <time>2015-10-25T10:24:28Z</time>
      </trkpt>
      <trkpt lat="43.71213" lon="3.46059">
        <ele>552</ele>
        <time>2015-10-25T10:24:29Z</time>
      </trkpt>
      <trkpt lat="43.71214" lon="3.46057">
        <ele>553</ele>
        <time>2015-10-25T10:24:30Z</time>
      </trkpt>
      <trkpt lat="43.71215" lon="3.46055">
        <ele>553.5</ele>
        <time>2015-10-25T10:24:31Z</time>
      </trkpt>
      <trkpt lat="43.71216" lon="3.46054">
        <ele>553.5</ele>
        <time>2015-10-25T10:24:32Z</time>
      </trkpt>
      <trkpt lat="43.71217" lon="3.46053">
        <ele>554</ele>
        <time>2015-10-25T10:24:33Z</time>
      </trkpt>
      <trkpt lat="43.71218" lon="3.46051">
        <ele>553.5</ele>
        <time>2015-10-25T10:24:34Z</time>
      </trkpt>
      <trkpt lat="43.7122" lon="3.46051">
        <ele>552.5</ele>
        <time>2015-10-25T10:24:35Z</time>
      </trkpt>
      <trkpt lat="43.71221" lon="3.46051">
        <ele>552.5</ele>
        <time>2015-10-25T10:24:36Z</time>
      </trkpt>
      <trkpt lat="43.71223" lon="3.4605">
        <ele>552.5</ele>
        <time>2015-10-25T10:24:37Z</time>
      </trkpt>
      <trkpt lat="43.71224" lon="3.46049">
        <ele>552.5</ele>
        <time>2015-10-25T10:24:38Z</time>
      </trkpt>
      <trkpt lat="43.71225" lon="3.46049">
        <ele>552.5</ele>
        <time>2015-10-25T10:24:39Z</time>
      </trkpt>
      <trkpt lat="43.71226" lon="3.46048">
        <ele>553</ele>
        <time>2015-10-25T10:24:40Z</time>
      </trkpt>
      <trkpt lat="43.71225" lon="3.46047">
        <ele>554.5</ele>
        <time>2015-10-25T10:24:41Z</time>
      </trkpt>
      <trkpt lat="43.71226" lon="3.46048">
        <ele>555</ele>
        <time>2015-10-25T10:24:42Z</time>
      </trkpt>
      <trkpt lat="43.71228" lon="3.46047">
        <ele>555</ele>
        <time>2015-10-25T10:24:43Z</time>
      </trkpt>
      <trkpt lat="43.71229" lon="3.46047">
        <ele>555</ele>
        <time>2015-10-25T10:24:44Z</time>
      </trkpt>
      <trkpt lat="43.7123" lon="3.46047">
        <ele>555</ele>
        <time>2015-10-25T10:24:45Z</time>
      </trkpt>
      <trkpt lat="43.71231" lon="3.46047">
        <ele>555</ele>
        <time>2015-10-25T10:24:46Z</time>
      </trkpt>
      <trkpt lat="43.71232" lon="3.46049">
        <ele>555</ele>
        <time>2015-10-25T10:24:48Z</time>
      </trkpt>
      <trkpt lat="43.71233" lon="3.4605">
        <ele>554</ele>
        <time>2015-10-25T10:24:49Z</time>
      </trkpt>
      <trkpt lat="43.71234" lon="3.46051">
        <ele>554</ele>
        <time>2015-10-25T10:24:50Z</time>
      </trkpt>
      <trkpt lat="43.71235" lon="3.46052">
        <ele>554</ele>
        <time>2015-10-25T10:24:51Z</time>
      </trkpt>
      <trkpt lat="43.71238" lon="3.46054">
        <ele>554</ele>
        <time>2015-10-25T10:24:52Z</time>
      </trkpt>
      <trkpt lat="43.7124" lon="3.46055">
        <ele>554</ele>
        <time>2015-10-25T10:24:53Z</time>
      </trkpt>
      <trkpt lat="43.7124" lon="3.46056">
        <ele>554</ele>
        <time>2015-10-25T10:24:55Z</time>
      </trkpt>
      <trkpt lat="43.71239" lon="3.46056">
        <ele>554</ele>
        <time>2015-10-25T10:24:56Z</time>
      </trkpt>
      <trkpt lat="43.71238" lon="3.46057">
        <ele>553.5</ele>
        <time>2015-10-25T10:24:57Z</time>
      </trkpt>
      <trkpt lat="43.71238" lon="3.46058">
        <ele>554</ele>
        <time>2015-10-25T10:25:02Z</time>
      </trkpt>
      <trkpt lat="43.71238" lon="3.46057">
        <ele>554</ele>
        <time>2015-10-25T10:25:03Z</time>
      </trkpt>
      <trkpt lat="43.71239" lon="3.46058">
        <ele>554</ele>
        <time>2015-10-25T10:25:04Z</time>
      </trkpt>
      <trkpt lat="43.7124" lon="3.4606">
        <ele>554</ele>
        <time>2015-10-25T10:25:05Z</time>
      </trkpt>
      <trkpt lat="43.71241" lon="3.46061">
        <ele>555</ele>
        <time>2015-10-25T10:25:06Z</time>
      </trkpt>
      <trkpt lat="43.71242" lon="3.46062">
        <ele>556</ele>
        <time>2015-10-25T10:25:07Z</time>
      </trkpt>
      <trkpt lat="43.71244" lon="3.46065">
        <ele>557</ele>
        <time>2015-10-25T10:25:09Z</time>
      </trkpt>
      <trkpt lat="43.71245" lon="3.46066">
        <ele>557.5</ele>
        <time>2015-10-25T10:25:10Z</time>
      </trkpt>
      <trkpt lat="43.71245" lon="3.46067">
        <ele>557.5</ele>
        <time>2015-10-25T10:25:11Z</time>
      </trkpt>
      <trkpt lat="43.71244" lon="3.46067">
        <ele>557.5</ele>
        <time>2015-10-25T10:25:12Z</time>
      </trkpt>
      <trkpt lat="43.71245" lon="3.46068">
        <ele>557.5</ele>
        <time>2015-10-25T10:25:13Z</time>
      </trkpt>
      <trkpt lat="43.71246" lon="3.46067">
        <ele>557.5</ele>
        <time>2015-10-25T10:25:14Z</time>
      </trkpt>
      <trkpt lat="43.71246" lon="3.46067">
        <ele>557.5</ele>
        <time>2015-10-25T10:25:15Z</time>
      </trkpt>
      <trkpt lat="43.71244" lon="3.46067">
        <ele>557.5</ele>
        <time>2015-10-25T10:25:16Z</time>
      </trkpt>
      <trkpt lat="43.71244" lon="3.46067">
        <ele>557</ele>
        <time>2015-10-25T10:25:17Z</time>
      </trkpt>
      <trkpt lat="43.71245" lon="3.46066">
        <ele>556</ele>
        <time>2015-10-25T10:25:18Z</time>
      </trkpt>
      <trkpt lat="43.71245" lon="3.46066">
        <ele>555.5</ele>
        <time>2015-10-25T10:25:19Z</time>
      </trkpt>
      <trkpt lat="43.71245" lon="3.46067">
        <ele>555</ele>
        <time>2015-10-25T10:25:20Z</time>
      </trkpt>
      <trkpt lat="43.71247" lon="3.46069">
        <ele>554.5</ele>
        <time>2015-10-25T10:25:21Z</time>
      </trkpt>
      <trkpt lat="43.71246" lon="3.4607">
        <ele>553.5</ele>
        <time>2015-10-25T10:25:22Z</time>
      </trkpt>
      <trkpt lat="43.71247" lon="3.46072">
        <ele>553.5</ele>
        <time>2015-10-25T10:25:23Z</time>
      </trkpt>
      <trkpt lat="43.71248" lon="3.46073">
        <ele>553</ele>
        <time>2015-10-25T10:25:24Z</time>
      </trkpt>
      <trkpt lat="43.71247" lon="3.46076">
        <ele>554.5</ele>
        <time>2015-10-25T10:25:25Z</time>
      </trkpt>
      <trkpt lat="43.71246" lon="3.46079">
        <ele>556</ele>
        <time>2015-10-25T10:25:26Z</time>
      </trkpt>
      <trkpt lat="43.71246" lon="3.46081">
        <ele>555.5</ele>
        <time>2015-10-25T10:25:27Z</time>
      </trkpt>
      <trkpt lat="43.71246" lon="3.46083">
        <ele>557.5</ele>
        <time>2015-10-25T10:25:28Z</time>
      </trkpt>
      <trkpt lat="43.71246" lon="3.46086">
        <ele>557</ele>
        <time>2015-10-25T10:25:29Z</time>
      </trkpt>
      <trkpt lat="43.71244" lon="3.46088">
        <ele>557</ele>
        <time>2015-10-25T10:25:30Z</time>
      </trkpt>
      <trkpt lat="43.71246" lon="3.46093">
        <ele>556.5</ele>
        <time>2015-10-25T10:25:31Z</time>
      </trkpt>
      <trkpt lat="43.71247" lon="3.46098">
        <ele>556.5</ele>
        <time>2015-10-25T10:25:32Z</time>
      </trkpt>
      <trkpt lat="43.71246" lon="3.461">
        <ele>556</ele>
        <time>2015-10-25T10:25:33Z</time>
      </trkpt>
      <trkpt lat="43.71246" lon="3.46101">
        <ele>556</ele>
        <time>2015-10-25T10:25:34Z</time>
      </trkpt>
      <trkpt lat="43.71248" lon="3.46103">
        <ele>555.5</ele>
        <time>2015-10-25T10:25:35Z</time>
      </trkpt>
      <trkpt lat="43.71261" lon="3.46109">
        <ele>559.5</ele>
        <time>2015-10-25T10:30:18Z</time>
      </trkpt>
      <trkpt lat="43.71263" lon="3.46115">
        <ele>558</ele>
        <time>2015-10-25T10:30:19Z</time>
      </trkpt>
      <trkpt lat="43.71263" lon="3.46118">
        <ele>558</ele>
        <time>2015-10-25T10:30:20Z</time>
      </trkpt>
      <trkpt lat="43.71266" lon="3.46118">
        <ele>557.5</ele>
        <time>2015-10-25T10:30:21Z</time>
      </trkpt>
      <trkpt lat="43.71267" lon="3.46119">
        <ele>557</ele>
        <time>2015-10-25T10:30:22Z</time>
      </trkpt>
      <trkpt lat="43.71267" lon="3.4612">
        <ele>555</ele>
        <time>2015-10-25T10:30:23Z</time>
      </trkpt>
      <trkpt lat="43.71266" lon="3.46123">
        <ele>552.5</ele>
        <time>2015-10-25T10:30:24Z</time>
      </trkpt>
      <trkpt lat="43.71265" lon="3.46125">
        <ele>551</ele>
        <time>2015-10-25T10:30:25Z</time>
      </trkpt>
      <trkpt lat="43.71265" lon="3.46126">
        <ele>550.5</ele>
        <time>2015-10-25T10:30:27Z</time>
      </trkpt>
      <trkpt lat="43.71266" lon="3.4613">
        <ele>550</ele>
        <time>2015-10-25T10:30:27Z</time>
      </trkpt>
      <trkpt lat="43.71264" lon="3.46131">
        <ele>549</ele>
        <time>2015-10-25T10:30:28Z</time>
      </trkpt>
      <trkpt lat="43.71268" lon="3.46138">
        <ele>547.5</ele>
        <time>2015-10-25T10:30:31Z</time>
      </trkpt>
      <trkpt lat="43.7127" lon="3.4614">
        <ele>549.5</ele>
        <time>2015-10-25T10:30:31Z</time>
      </trkpt>
      <trkpt lat="43.71271" lon="3.46142">
        <ele>549.5</ele>
        <time>2015-10-25T10:30:32Z</time>
      </trkpt>
      <trkpt lat="43.71272" lon="3.46144">
        <ele>548.5</ele>
        <time>2015-10-25T10:30:33Z</time>
      </trkpt>
      <trkpt lat="43.71273" lon="3.46145">
        <ele>548.5</ele>
        <time>2015-10-25T10:30:34Z</time>
      </trkpt>
      <trkpt lat="43.71274" lon="3.46147">
        <ele>547.5</ele>
        <time>2015-10-25T10:30:35Z</time>
      </trkpt>
      <trkpt lat="43.71273" lon="3.46149">
        <ele>545</ele>
        <time>2015-10-25T10:30:36Z</time>
      </trkpt>
      <trkpt lat="43.71273" lon="3.46152">
        <ele>542.5</ele>
        <time>2015-10-25T10:30:37Z</time>
      </trkpt>
      <trkpt lat="43.71273" lon="3.46155">
        <ele>541.5</ele>
        <time>2015-10-25T10:30:39Z</time>
      </trkpt>
      <trkpt lat="43.71275" lon="3.46159">
        <ele>542</ele>
        <time>2015-10-25T10:30:39Z</time>
      </trkpt>
      <trkpt lat="43.71276" lon="3.46163">
        <ele>541</ele>
        <time>2015-10-25T10:30:40Z</time>
      </trkpt>
      <trkpt lat="43.71276" lon="3.46165">
        <ele>540.5</ele>
        <time>2015-10-25T10:30:41Z</time>
      </trkpt>
      <trkpt lat="43.71281" lon="3.46171">
        <ele>525.5</ele>
        <time>2015-10-25T10:30:51Z</time>
      </trkpt>
      <trkpt lat="43.71282" lon="3.46172">
        <ele>519.5</ele>
        <time>2015-10-25T10:31:01Z</time>
      </trkpt>
      <trkpt lat="43.71282" lon="3.46175">
        <ele>518.5</ele>
        <time>2015-10-25T10:31:05Z</time>
      </trkpt>
      <trkpt lat="43.71282" lon="3.46183">
        <ele>518.5</ele>
        <time>2015-10-25T10:31:07Z</time>
      </trkpt>
      <trkpt lat="43.71282" lon="3.46188">
        <ele>518</ele>
        <time>2015-10-25T10:31:08Z</time>
      </trkpt>
      <trkpt lat="43.71282" lon="3.46192">
        <ele>518.5</ele>
        <time>2015-10-25T10:31:09Z</time>
      </trkpt>
      <trkpt lat="43.71281" lon="3.46192">
        <ele>519</ele>
        <time>2015-10-25T10:31:10Z</time>
      </trkpt>
      <trkpt lat="43.7128" lon="3.46194">
        <ele>518.5</ele>
        <time>2015-10-25T10:31:11Z</time>
      </trkpt>
      <trkpt lat="43.71279" lon="3.46195">
        <ele>518.5</ele>
        <time>2015-10-25T10:31:13Z</time>
      </trkpt>
      <trkpt lat="43.71279" lon="3.46196">
        <ele>518.5</ele>
        <time>2015-10-25T10:31:13Z</time>
      </trkpt>
      <trkpt lat="43.71278" lon="3.46197">
        <ele>518.5</ele>
        <time>2015-10-25T10:31:15Z</time>
      </trkpt>
      <trkpt lat="43.71276" lon="3.46198">
        <ele>516.5</ele>
        <time>2015-10-25T10:31:15Z</time>
      </trkpt>
      <trkpt lat="43.71275" lon="3.46201">
        <ele>516</ele>
        <time>2015-10-25T10:31:16Z</time>
      </trkpt>
      <trkpt lat="43.71275" lon="3.46204">
        <ele>515</ele>
        <time>2015-10-25T10:31:17Z</time>
      </trkpt>
      <trkpt lat="43.71276" lon="3.46203">
        <ele>515.5</ele>
        <time>2015-10-25T10:31:18Z</time>
      </trkpt>
      <trkpt lat="43.71276" lon="3.46204">
        <ele>515.5</ele>
        <time>2015-10-25T10:31:19Z</time>
      </trkpt>
      <trkpt lat="43.71273" lon="3.46209">
        <ele>513.5</ele>
        <time>2015-10-25T10:31:21Z</time>
      </trkpt>
      <trkpt lat="43.71272" lon="3.46211">
        <ele>514.5</ele>
        <time>2015-10-25T10:31:22Z</time>
      </trkpt>
      <trkpt lat="43.71273" lon="3.46211">
        <ele>515</ele>
        <time>2015-10-25T10:31:23Z</time>
      </trkpt>
      <trkpt lat="43.71277" lon="3.46218">
        <ele>515</ele>
        <time>2015-10-25T10:31:25Z</time>
      </trkpt>
      <trkpt lat="43.71278" lon="3.46221">
        <ele>514.5</ele>
        <time>2015-10-25T10:31:26Z</time>
      </trkpt>
      <trkpt lat="43.71279" lon="3.46231">
        <ele>515</ele>
        <time>2015-10-25T10:31:28Z</time>
      </trkpt>
      <trkpt lat="43.71276" lon="3.46234">
        <ele>513</ele>
        <time>2015-10-25T10:31:30Z</time>
      </trkpt>
      <trkpt lat="43.71273" lon="3.46237">
        <ele>512</ele>
        <time>2015-10-25T10:31:30Z</time>
      </trkpt>
      <trkpt lat="43.7127" lon="3.46238">
        <ele>509.5</ele>
        <time>2015-10-25T10:31:31Z</time>
      </trkpt>
      <trkpt lat="43.7127" lon="3.46243">
        <ele>510</ele>
        <time>2015-10-25T10:31:32Z</time>
      </trkpt>
      <trkpt lat="43.71268" lon="3.46248">
        <ele>509</ele>
        <time>2015-10-25T10:31:33Z</time>
      </trkpt>
      <trkpt lat="43.71267" lon="3.46253">
        <ele>509</ele>
        <time>2015-10-25T10:31:34Z</time>
      </trkpt>
      <trkpt lat="43.71263" lon="3.46255">
        <ele>510</ele>
        <time>2015-10-25T10:31:35Z</time>
      </trkpt>
      <trkpt lat="43.7126" lon="3.46259">
        <ele>510.5</ele>
        <time>2015-10-25T10:31:36Z</time>
      </trkpt>
      <trkpt lat="43.7126" lon="3.46263">
        <ele>511.5</ele>
        <time>2015-10-25T10:31:37Z</time>
      </trkpt>
      <trkpt lat="43.71261" lon="3.46267">
        <ele>513</ele>
        <time>2015-10-25T10:31:38Z</time>
      </trkpt>
      <trkpt lat="43.71261" lon="3.46272">
        <ele>515.5</ele>
        <time>2015-10-25T10:31:39Z</time>
      </trkpt>
      <trkpt lat="43.71261" lon="3.46277">
        <ele>516</ele>
        <time>2015-10-25T10:31:40Z</time>
      </trkpt>
      <trkpt lat="43.71255" lon="3.46282">
        <ele>515.5</ele>
        <time>2015-10-25T10:31:42Z</time>
      </trkpt>
      <trkpt lat="43.71243" lon="3.46302">
        <ele>514.5</ele>
        <time>2015-10-25T10:31:46Z</time>
      </trkpt>
      <trkpt lat="43.71238" lon="3.46307">
        <ele>514.5</ele>
        <time>2015-10-25T10:31:46Z</time>
      </trkpt>
      <trkpt lat="43.71236" lon="3.46316">
        <ele>513.5</ele>
        <time>2015-10-25T10:31:48Z</time>
      </trkpt>
      <trkpt lat="43.71234" lon="3.4632">
        <ele>514.5</ele>
        <time>2015-10-25T10:31:49Z</time>
      </trkpt>
      <trkpt lat="43.71236" lon="3.46323">
        <ele>514</ele>
        <time>2015-10-25T10:31:50Z</time>
      </trkpt>
      <trkpt lat="43.71235" lon="3.46327">
        <ele>512</ele>
        <time>2015-10-25T10:31:51Z</time>
      </trkpt>
      <trkpt lat="43.71235" lon="3.46332">
        <ele>509.5</ele>
        <time>2015-10-25T10:31:52Z</time>
      </trkpt>
      <trkpt lat="43.71231" lon="3.46336">
        <ele>508</ele>
        <time>2015-10-25T10:31:53Z</time>
      </trkpt>
      <trkpt lat="43.7123" lon="3.46343">
        <ele>508</ele>
        <time>2015-10-25T10:31:54Z</time>
      </trkpt>
      <trkpt lat="43.7123" lon="3.4635">
        <ele>507.5</ele>
        <time>2015-10-25T10:31:55Z</time>
      </trkpt>
      <trkpt lat="43.7123" lon="3.46357">
        <ele>508</ele>
        <time>2015-10-25T10:31:56Z</time>
      </trkpt>
      <trkpt lat="43.71228" lon="3.46363">
        <ele>506.5</ele>
        <time>2015-10-25T10:31:57Z</time>
      </trkpt>
      <trkpt lat="43.71228" lon="3.4637">
        <ele>505</ele>
        <time>2015-10-25T10:31:58Z</time>
      </trkpt>
      <trkpt lat="43.71224" lon="3.46374">
        <ele>504.5</ele>
        <time>2015-10-25T10:31:59Z</time>
      </trkpt>
      <trkpt lat="43.71225" lon="3.46379">
        <ele>504</ele>
        <time>2015-10-25T10:32:00Z</time>
      </trkpt>
      <trkpt lat="43.71226" lon="3.46384">
        <ele>503</ele>
        <time>2015-10-25T10:32:01Z</time>
      </trkpt>
      <trkpt lat="43.71227" lon="3.46389">
        <ele>504</ele>
        <time>2015-10-25T10:32:02Z</time>
      </trkpt>
      <trkpt lat="43.71226" lon="3.46404">
        <ele>503.5</ele>
        <time>2015-10-25T10:32:04Z</time>
      </trkpt>
      <trkpt lat="43.71224" lon="3.46411">
        <ele>502</ele>
        <time>2015-10-25T10:32:05Z</time>
      </trkpt>
      <trkpt lat="43.71214" lon="3.46416">
        <ele>502</ele>
        <time>2015-10-25T10:32:07Z</time>
      </trkpt>
      <trkpt lat="43.71214" lon="3.46421">
        <ele>500.5</ele>
        <time>2015-10-25T10:32:08Z</time>
      </trkpt>
      <trkpt lat="43.71214" lon="3.46428">
        <ele>499</ele>
        <time>2015-10-25T10:32:09Z</time>
      </trkpt>
      <trkpt lat="43.71215" lon="3.46436">
        <ele>497</ele>
        <time>2015-10-25T10:32:10Z</time>
      </trkpt>
      <trkpt lat="43.71219" lon="3.46455">
        <ele>491.5</ele>
        <time>2015-10-25T10:32:12Z</time>
      </trkpt>
      <trkpt lat="43.7122" lon="3.46461">
        <ele>490.5</ele>
        <time>2015-10-25T10:32:13Z</time>
      </trkpt>
      <trkpt lat="43.71217" lon="3.4647">
        <ele>487.5</ele>
        <time>2015-10-25T10:32:15Z</time>
      </trkpt>
      <trkpt lat="43.71214" lon="3.46474">
        <ele>486.5</ele>
        <time>2015-10-25T10:32:16Z</time>
      </trkpt>
      <trkpt lat="43.71212" lon="3.46478">
        <ele>487</ele>
        <time>2015-10-25T10:32:17Z</time>
      </trkpt>
      <trkpt lat="43.71211" lon="3.46483">
        <ele>485.5</ele>
        <time>2015-10-25T10:32:18Z</time>
      </trkpt>
      <trkpt lat="43.71214" lon="3.4649">
        <ele>484</ele>
        <time>2015-10-25T10:32:20Z</time>
      </trkpt>
      <trkpt lat="43.71217" lon="3.46502">
        <ele>482</ele>
        <time>2015-10-25T10:32:22Z</time>
      </trkpt>
      <trkpt lat="43.7122" lon="3.46508">
        <ele>481</ele>
        <time>2015-10-25T10:32:23Z</time>
      </trkpt>
      <trkpt lat="43.71224" lon="3.46511">
        <ele>480.5</ele>
        <time>2015-10-25T10:32:24Z</time>
      </trkpt>
      <trkpt lat="43.71229" lon="3.46515">
        <ele>480.5</ele>
        <time>2015-10-25T10:32:25Z</time>
      </trkpt>
      <trkpt lat="43.71233" lon="3.46519">
        <ele>479.5</ele>
        <time>2015-10-25T10:32:26Z</time>
      </trkpt>
      <trkpt lat="43.71236" lon="3.46525">
        <ele>479.5</ele>
        <time>2015-10-25T10:32:27Z</time>
      </trkpt>
      <trkpt lat="43.71239" lon="3.46531">
        <ele>479</ele>
        <time>2015-10-25T10:32:28Z</time>
      </trkpt>
      <trkpt lat="43.71242" lon="3.4654">
        <ele>476</ele>
        <time>2015-10-25T10:32:29Z</time>
      </trkpt>
      <trkpt lat="43.71247" lon="3.46562">
        <ele>474.5</ele>
        <time>2015-10-25T10:32:31Z</time>
      </trkpt>
      <trkpt lat="43.71248" lon="3.46572">
        <ele>473.5</ele>
        <time>2015-10-25T10:32:32Z</time>
      </trkpt>
      <trkpt lat="43.71248" lon="3.4658">
        <ele>475.5</ele>
        <time>2015-10-25T10:32:33Z</time>
      </trkpt>
      <trkpt lat="43.71246" lon="3.46587">
        <ele>473.5</ele>
        <time>2015-10-25T10:32:34Z</time>
      </trkpt>
      <trkpt lat="43.71244" lon="3.4659">
        <ele>472</ele>
        <time>2015-10-25T10:32:35Z</time>
      </trkpt>
      <trkpt lat="43.71248" lon="3.46597">
        <ele>455</ele>
        <time>2015-10-25T10:32:58Z</time>
      </trkpt>
      <trkpt lat="43.71247" lon="3.46596">
        <ele>453</ele>
        <time>2015-10-25T10:33:00Z</time>
      </trkpt>
      <trkpt lat="43.71246" lon="3.46595">
        <ele>451.5</ele>
        <time>2015-10-25T10:33:01Z</time>
      </trkpt>
      <trkpt lat="43.71246" lon="3.46594">
        <ele>451</ele>
        <time>2015-10-25T10:33:02Z</time>
      </trkpt>
      <trkpt lat="43.71246" lon="3.46595">
        <ele>450</ele>
        <time>2015-10-25T10:33:15Z</time>
      </trkpt>
      <trkpt lat="43.71246" lon="3.46595">
        <ele>449</ele>
        <time>2015-10-25T10:33:17Z</time>
      </trkpt>
      <trkpt lat="43.71246" lon="3.46598">
        <ele>445.5</ele>
        <time>2015-10-25T10:32:55Z</time>
      </trkpt>
      <trkpt lat="43.71247" lon="3.46598">
        <ele>444</ele>
        <time>2015-10-25T10:32:57Z</time>
      </trkpt>
      <trkpt lat="43.71247" lon="3.46599">
        <ele>443.5</ele>
        <time>2015-10-25T10:32:58Z</time>
      </trkpt>
      <trkpt lat="43.71248" lon="3.466">
        <ele>443</ele>
        <time>2015-10-25T10:32:59Z</time>
      </trkpt>
      <trkpt lat="43.71249" lon="3.46602">
        <ele>442.5</ele>
        <time>2015-10-25T10:33:00Z</time>
      </trkpt>
      <trkpt lat="43.71248" lon="3.46604">
        <ele>442</ele>
        <time>2015-10-25T10:33:01Z</time>
      </trkpt>
      <trkpt lat="43.71248" lon="3.46607">
        <ele>441</ele>
        <time>2015-10-25T10:33:02Z</time>
      </trkpt>
      <trkpt lat="43.71247" lon="3.4661">
        <ele>440.5</ele>
        <time>2015-10-25T10:33:03Z</time>
      </trkpt>
      <trkpt lat="43.71246" lon="3.46614">
        <ele>439.5</ele>
        <time>2015-10-25T10:33:04Z</time>
      </trkpt>
      <trkpt lat="43.71245" lon="3.46618">
        <ele>439</ele>
        <time>2015-10-25T10:33:05Z</time>
      </trkpt>
      <trkpt lat="43.71244" lon="3.46622">
        <ele>438.5</ele>
        <time>2015-10-25T10:33:06Z</time>
      </trkpt>
      <trkpt lat="43.71245" lon="3.46625">
        <ele>438</ele>
        <time>2015-10-25T10:33:07Z</time>
      </trkpt>
      <trkpt lat="43.71244" lon="3.46629">
        <ele>437.5</ele>
        <time>2015-10-25T10:33:08Z</time>
      </trkpt>
      <trkpt lat="43.71244" lon="3.46632">
        <ele>436.5</ele>
        <time>2015-10-25T10:33:09Z</time>
      </trkpt>
      <trkpt lat="43.71242" lon="3.46635">
        <ele>436</ele>
        <time>2015-10-25T10:33:10Z</time>
      </trkpt>
      <trkpt lat="43.71241" lon="3.46638">
        <ele>435.5</ele>
        <time>2015-10-25T10:33:11Z</time>
      </trkpt>
      <trkpt lat="43.7124" lon="3.46642">
        <ele>434.5</ele>
        <time>2015-10-25T10:33:12Z</time>
      </trkpt>
      <trkpt lat="43.71238" lon="3.46645">
        <ele>434</ele>
        <time>2015-10-25T10:33:13Z</time>
      </trkpt>
      <trkpt lat="43.71236" lon="3.46647">
        <ele>434.5</ele>
        <time>2015-10-25T10:33:14Z</time>
      </trkpt>
      <trkpt lat="43.71234" lon="3.46649">
        <ele>434.5</ele>
        <time>2015-10-25T10:33:15Z</time>
      </trkpt>
      <trkpt lat="43.71232" lon="3.4665">
        <ele>435</ele>
        <time>2015-10-25T10:33:16Z</time>
      </trkpt>
      <trkpt lat="43.71231" lon="3.46649">
        <ele>433.5</ele>
        <time>2015-10-25T10:33:17Z</time>
      </trkpt>
      <trkpt lat="43.7123" lon="3.4665">
        <ele>434</ele>
        <time>2015-10-25T10:33:18Z</time>
      </trkpt>
      <trkpt lat="43.71229" lon="3.4665">
        <ele>434</ele>
        <time>2015-10-25T10:33:19Z</time>
      </trkpt>
      <trkpt lat="43.71227" lon="3.46651">
        <ele>434</ele>
        <time>2015-10-25T10:33:20Z</time>
      </trkpt>
      <trkpt lat="43.71226" lon="3.46652">
        <ele>434</ele>
        <time>2015-10-25T10:33:21Z</time>
      </trkpt>
      <trkpt lat="43.71224" lon="3.46652">
        <ele>433.5</ele>
        <time>2015-10-25T10:33:22Z</time>
      </trkpt>
      <trkpt lat="43.71222" lon="3.46653">
        <ele>433.5</ele>
        <time>2015-10-25T10:33:23Z</time>
      </trkpt>
      <trkpt lat="43.7122" lon="3.46654">
        <ele>433.5</ele>
        <time>2015-10-25T10:33:24Z</time>
      </trkpt>
      <trkpt lat="43.71219" lon="3.46655">
        <ele>433.5</ele>
        <time>2015-10-25T10:33:25Z</time>
      </trkpt>
      <trkpt lat="43.71217" lon="3.46657">
        <ele>434</ele>
        <time>2015-10-25T10:33:26Z</time>
      </trkpt>
      <trkpt lat="43.71214" lon="3.4666">
        <ele>433</ele>
        <time>2015-10-25T10:33:28Z</time>
      </trkpt>
      <trkpt lat="43.71213" lon="3.46662">
        <ele>433</ele>
        <time>2015-10-25T10:33:29Z</time>
      </trkpt>
      <trkpt lat="43.71213" lon="3.46663">
        <ele>433</ele>
        <time>2015-10-25T10:33:30Z</time>
      </trkpt>
      <trkpt lat="43.71211" lon="3.46665">
        <ele>433.5</ele>
        <time>2015-10-25T10:33:31Z</time>
      </trkpt>
      <trkpt lat="43.71211" lon="3.46668">
        <ele>432.5</ele>
        <time>2015-10-25T10:33:32Z</time>
      </trkpt>
      <trkpt lat="43.7121" lon="3.4667">
        <ele>432.5</ele>
        <time>2015-10-25T10:33:32Z</time>
      </trkpt>
      <trkpt lat="43.71208" lon="3.46672">
        <ele>433</ele>
        <time>2015-10-25T10:33:33Z</time>
      </trkpt>
      <trkpt lat="43.71205" lon="3.46674">
        <ele>432.5</ele>
        <time>2015-10-25T10:33:35Z</time>
      </trkpt>
      <trkpt lat="43.71195" lon="3.46679">
        <ele>431</ele>
        <time>2015-10-25T10:33:36Z</time>
      </trkpt>
      <trkpt lat="43.71181" lon="3.46683">
        <ele>427.5</ele>
        <time>2015-10-25T10:33:38Z</time>
      </trkpt>
      <trkpt lat="43.71176" lon="3.46685">
        <ele>426.5</ele>
        <time>2015-10-25T10:33:39Z</time>
      </trkpt>
      <trkpt lat="43.7117" lon="3.46687">
        <ele>425</ele>
        <time>2015-10-25T10:33:40Z</time>
      </trkpt>
      <trkpt lat="43.71165" lon="3.46697">
        <ele>423.5</ele>
        <time>2015-10-25T10:33:42Z</time>
      </trkpt>
      <trkpt lat="43.71161" lon="3.467">
        <ele>423</ele>
        <time>2015-10-25T10:33:43Z</time>
      </trkpt>
      <trkpt lat="43.71148" lon="3.4671">
        <ele>420.5</ele>
        <time>2015-10-25T10:33:45Z</time>
      </trkpt>
      <trkpt lat="43.71144" lon="3.46717">
        <ele>420.5</ele>
        <time>2015-10-25T10:33:46Z</time>
      </trkpt>
      <trkpt lat="43.71138" lon="3.46723">
        <ele>420</ele>
        <time>2015-10-25T10:33:47Z</time>
      </trkpt>
      <trkpt lat="43.71132" lon="3.46724">
        <ele>418.5</ele>
        <time>2015-10-25T10:33:48Z</time>
      </trkpt>
      <trkpt lat="43.71127" lon="3.46726">
        <ele>417.5</ele>
        <time>2015-10-25T10:33:49Z</time>
      </trkpt>
      <trkpt lat="43.71122" lon="3.46722">
        <ele>417.5</ele>
        <time>2015-10-25T10:33:50Z</time>
      </trkpt>
      <trkpt lat="43.71117" lon="3.46719">
        <ele>416</ele>
        <time>2015-10-25T10:33:51Z</time>
      </trkpt>
      <trkpt lat="43.71111" lon="3.46719">
        <ele>415.5</ele>
        <time>2015-10-25T10:33:52Z</time>
      </trkpt>
      <trkpt lat="43.71107" lon="3.46719">
        <ele>414.5</ele>
        <time>2015-10-25T10:33:53Z</time>
      </trkpt>
      <trkpt lat="43.71081" lon="3.4676">
        <ele>414.5</ele>
        <time>2015-10-25T10:35:04Z</time>
      </trkpt>
      <trkpt lat="43.71076" lon="3.46765">
        <ele>414</ele>
        <time>2015-10-25T10:35:04Z</time>
      </trkpt>
      <trkpt lat="43.71071" lon="3.46767">
        <ele>413</ele>
        <time>2015-10-25T10:35:05Z</time>
      </trkpt>
      <trkpt lat="43.71067" lon="3.46773">
        <ele>413.5</ele>
        <time>2015-10-25T10:35:06Z</time>
      </trkpt>
      <trkpt lat="43.71063" lon="3.46777">
        <ele>413</ele>
        <time>2015-10-25T10:35:07Z</time>
      </trkpt>
      <trkpt lat="43.71059" lon="3.46777">
        <ele>412.5</ele>
        <time>2015-10-25T10:35:08Z</time>
      </trkpt>
      <trkpt lat="43.71054" lon="3.46778">
        <ele>411</ele>
        <time>2015-10-25T10:35:09Z</time>
      </trkpt>
      <trkpt lat="43.71048" lon="3.46781">
        <ele>410.5</ele>
        <time>2015-10-25T10:35:10Z</time>
      </trkpt>
      <trkpt lat="43.71042" lon="3.46784">
        <ele>408.5</ele>
        <time>2015-10-25T10:35:11Z</time>
      </trkpt>
      <trkpt lat="43.71037" lon="3.46791">
        <ele>409.5</ele>
        <time>2015-10-25T10:35:12Z</time>
      </trkpt>
      <trkpt lat="43.71035" lon="3.46799">
        <ele>407</ele>
        <time>2015-10-25T10:35:13Z</time>
      </trkpt>
      <trkpt lat="43.71031" lon="3.46807">
        <ele>408.5</ele>
        <time>2015-10-25T10:35:14Z</time>
      </trkpt>
      <trkpt lat="43.71026" lon="3.46815">
        <ele>408</ele>
        <time>2015-10-25T10:35:16Z</time>
      </trkpt>
      <trkpt lat="43.71024" lon="3.46823">
        <ele>407.5</ele>
        <time>2015-10-25T10:35:17Z</time>
      </trkpt>
      <trkpt lat="43.71021" lon="3.46829">
        <ele>406.5</ele>
        <time>2015-10-25T10:35:18Z</time>
      </trkpt>
      <trkpt lat="43.71016" lon="3.46835">
        <ele>405</ele>
        <time>2015-10-25T10:35:19Z</time>
      </trkpt>
      <trkpt lat="43.71012" lon="3.46841">
        <ele>404</ele>
        <time>2015-10-25T10:35:20Z</time>
      </trkpt>
      <trkpt lat="43.71006" lon="3.46847">
        <ele>402.5</ele>
        <time>2015-10-25T10:35:21Z</time>
      </trkpt>
      <trkpt lat="43.71001" lon="3.46854">
        <ele>401</ele>
        <time>2015-10-25T10:35:22Z</time>
      </trkpt>
      <trkpt lat="43.70995" lon="3.46862">
        <ele>400</ele>
        <time>2015-10-25T10:35:24Z</time>
      </trkpt>
      <trkpt lat="43.70989" lon="3.4687">
        <ele>399</ele>
        <time>2015-10-25T10:35:24Z</time>
      </trkpt>
      <trkpt lat="43.70983" lon="3.46877">
        <ele>398.5</ele>
        <time>2015-10-25T10:35:25Z</time>
      </trkpt>
      <trkpt lat="43.70977" lon="3.46882">
        <ele>396</ele>
        <time>2015-10-25T10:35:26Z</time>
      </trkpt>
      <trkpt lat="43.70972" lon="3.46891">
        <ele>395</ele>
        <time>2015-10-25T10:35:28Z</time>
      </trkpt>
      <trkpt lat="43.70968" lon="3.46893">
        <ele>394.5</ele>
        <time>2015-10-25T10:35:29Z</time>
      </trkpt>
      <trkpt lat="43.70965" lon="3.46891">
        <ele>395</ele>
        <time>2015-10-25T10:35:30Z</time>
      </trkpt>
      <trkpt lat="43.70955" lon="3.46881">
        <ele>390.5</ele>
        <time>2015-10-25T10:35:32Z</time>
      </trkpt>
      <trkpt lat="43.7095" lon="3.46877">
        <ele>388.5</ele>
        <time>2015-10-25T10:35:33Z</time>
      </trkpt>
      <trkpt lat="43.70937" lon="3.46875">
        <ele>385</ele>
        <time>2015-10-25T10:35:35Z</time>
      </trkpt>
      <trkpt lat="43.70934" lon="3.46855">
        <ele>384</ele>
        <time>2015-10-25T10:35:37Z</time>
      </trkpt>
      <trkpt lat="43.7093" lon="3.46856">
        <ele>383</ele>
        <time>2015-10-25T10:35:38Z</time>
      </trkpt>
      <trkpt lat="43.70926" lon="3.46856">
        <ele>381.5</ele>
        <time>2015-10-25T10:35:39Z</time>
      </trkpt>
      <trkpt lat="43.7092" lon="3.46855">
        <ele>379</ele>
        <time>2015-10-25T10:35:40Z</time>
      </trkpt>
      <trkpt lat="43.70916" lon="3.46858">
        <ele>378.5</ele>
        <time>2015-10-25T10:35:41Z</time>
      </trkpt>
      <trkpt lat="43.70909" lon="3.46856">
        <ele>378</ele>
        <time>2015-10-25T10:35:43Z</time>
      </trkpt>
      <trkpt lat="43.70904" lon="3.46855">
        <ele>377</ele>
        <time>2015-10-25T10:35:45Z</time>
      </trkpt>
      <trkpt lat="43.70899" lon="3.46858">
        <ele>376</ele>
        <time>2015-10-25T10:35:45Z</time>
      </trkpt>
      <trkpt lat="43.70891" lon="3.46851">
        <ele>374.5</ele>
        <time>2015-10-25T10:35:47Z</time>
      </trkpt>
      <trkpt lat="43.70886" lon="3.46845">
        <ele>375.5</ele>
        <time>2015-10-25T10:35:48Z</time>
      </trkpt>
      <trkpt lat="43.70882" lon="3.46839">
        <ele>375.5</ele>
        <time>2015-10-25T10:35:49Z</time>
      </trkpt>
      <trkpt lat="43.70877" lon="3.46834">
        <ele>375</ele>
        <time>2015-10-25T10:35:50Z</time>
      </trkpt>
      <trkpt lat="43.70871" lon="3.46834">
        <ele>374.5</ele>
        <time>2015-10-25T10:35:51Z</time>
      </trkpt>
      <trkpt lat="43.70865" lon="3.46832">
        <ele>373.5</ele>
        <time>2015-10-25T10:35:52Z</time>
      </trkpt>
      <trkpt lat="43.7086" lon="3.4683">
        <ele>371</ele>
        <time>2015-10-25T10:35:53Z</time>
      </trkpt>
      <trkpt lat="43.70854" lon="3.4683">
        <ele>370.5</ele>
        <time>2015-10-25T10:35:54Z</time>
      </trkpt>
      <trkpt lat="43.70848" lon="3.4683">
        <ele>370</ele>
        <time>2015-10-25T10:35:55Z</time>
      </trkpt>
      <trkpt lat="43.70841" lon="3.4683">
        <ele>369.5</ele>
        <time>2015-10-25T10:35:56Z</time>
      </trkpt>
      <trkpt lat="43.70831" lon="3.46827">
        <ele>367.5</ele>
        <time>2015-10-25T10:35:58Z</time>
      </trkpt>
      <trkpt lat="43.70816" lon="3.46824">
        <ele>368</ele>
        <time>2015-10-25T10:36:00Z</time>
      </trkpt>
      <trkpt lat="43.7081" lon="3.46824">
        <ele>367</ele>
        <time>2015-10-25T10:36:01Z</time>
      </trkpt>
      <trkpt lat="43.70798" lon="3.46824">
        <ele>369</ele>
        <time>2015-10-25T10:36:03Z</time>
      </trkpt>
      <trkpt lat="43.70795" lon="3.4682">
        <ele>369</ele>
        <time>2015-10-25T10:36:04Z</time>
      </trkpt>
      <trkpt lat="43.70791" lon="3.46814">
        <ele>367</ele>
        <time>2015-10-25T10:36:05Z</time>
      </trkpt>
      <trkpt lat="43.70784" lon="3.46811">
        <ele>366.5</ele>
        <time>2015-10-25T10:36:06Z</time>
      </trkpt>
      <trkpt lat="43.70768" lon="3.46803">
        <ele>363.5</ele>
        <time>2015-10-25T10:36:08Z</time>
      </trkpt>
      <trkpt lat="43.7076" lon="3.46798">
        <ele>361.5</ele>
        <time>2015-10-25T10:36:09Z</time>
      </trkpt>
      <trkpt lat="43.70753" lon="3.46794">
        <ele>360.5</ele>
        <time>2015-10-25T10:36:10Z</time>
      </trkpt>
      <trkpt lat="43.70747" lon="3.4679">
        <ele>360</ele>
        <time>2015-10-25T10:36:11Z</time>
      </trkpt>
      <trkpt lat="43.7074" lon="3.46789">
        <ele>358.5</ele>
        <time>2015-10-25T10:36:12Z</time>
      </trkpt>
      <trkpt lat="43.70733" lon="3.46787">
        <ele>357.5</ele>
        <time>2015-10-25T10:36:13Z</time>
      </trkpt>
      <trkpt lat="43.70727" lon="3.46784">
        <ele>356.5</ele>
        <time>2015-10-25T10:36:14Z</time>
      </trkpt>
      <trkpt lat="43.70721" lon="3.46782">
        <ele>355.5</ele>
        <time>2015-10-25T10:36:15Z</time>
      </trkpt>
      <trkpt lat="43.70709" lon="3.46783">
        <ele>354</ele>
        <time>2015-10-25T10:36:17Z</time>
      </trkpt>
      <trkpt lat="43.70709" lon="3.46777">
        <ele>353.5</ele>
        <time>2015-10-25T10:36:18Z</time>
      </trkpt>
      <trkpt lat="43.70707" lon="3.46775">
        <ele>353</ele>
        <time>2015-10-25T10:36:19Z</time>
      </trkpt>
      <trkpt lat="43.70706" lon="3.46775">
        <ele>353</ele>
        <time>2015-10-25T10:36:20Z</time>
      </trkpt>
      <trkpt lat="43.70706" lon="3.46774">
        <ele>352</ele>
        <time>2015-10-25T10:36:21Z</time>
      </trkpt>
      <trkpt lat="43.70706" lon="3.46772">
        <ele>351.5</ele>
        <time>2015-10-25T10:36:23Z</time>
      </trkpt>
      <trkpt lat="43.70705" lon="3.46772">
        <ele>351.5</ele>
        <time>2015-10-25T10:36:29Z</time>
      </trkpt>
      <trkpt lat="43.70705" lon="3.46772">
        <ele>350</ele>
        <time>2015-10-25T10:36:34Z</time>
      </trkpt>
      <trkpt lat="43.70704" lon="3.46771">
        <ele>349.5</ele>
        <time>2015-10-25T10:36:42Z</time>
      </trkpt>
    </trkseg>
  </trk>
</gpx>